<?xml version='1.0' encoding='UTF-8'?><gpx version="1.1" creator="JPX - https://github.com/jenetics/jpx" xmlns="http://www.topografix.com/GPX/1/1"><trk><trkseg><trkpt lat="40.158288757402566" lon="9.19233274606837"><ele>799.6666666666667</ele><time>2026-04-28T06:47:53.999Z</time></trkpt><trkpt lat="40.158379447287125" lon="9.192395944303287"><ele>796.3333333333334</ele><time>2026-04-28T06:47:55.999Z</time></trkpt><trkpt lat="40.158459342810005" lon="9.192468011645776"><ele>793.0</ele><time>2026-04-28T06:47:59.999Z</time></trkpt><trkpt lat="40.158521858951" lon="9.192484282290236"><ele>789.6666666666667</ele><time>2026-04-28T06:48:03.999Z</time></trkpt><trkpt lat="40.15859847120818" lon="9.19250073721298"><ele>786.3333333333334</ele><time>2026-04-28T06:48:05.999Z</time></trkpt><trkpt lat="40.15866559388329" lon="9.192572108424239"><ele>783.0</ele><time>2026-04-28T06:48:08.999Z</time></trkpt><trkpt lat="40.15867324574564" lon="9.192664730264498"><ele>783.0</ele><time>2026-04-28T06:48:11.999Z</time></trkpt><trkpt lat="40.15860888173443" lon="9.192604519770866"><ele>783.0</ele><time>2026-04-28T06:48:31.999Z</time></trkpt><trkpt lat="40.158540357943" lon="9.192604183985921"><ele>783.0</ele><time>2026-04-28T06:48:33.999Z</time></trkpt><trkpt lat="40.1584667368425" lon="9.192600406123452"><ele>783.0</ele><time>2026-04-28T06:48:36.999Z</time></trkpt><trkpt lat="40.15839258696562" lon="9.192708237604608"><ele>783.0</ele><time>2026-04-28T06:50:09.997Z</time></trkpt><trkpt lat="40.15832143293764" lon="9.1927149088086"><ele>783.0</ele><time>2026-04-28T06:50:12.997Z</time></trkpt><trkpt lat="40.158226345108936" lon="9.192764489966414"><ele>783.5999999999999</ele><time>2026-04-28T06:50:14.997Z</time></trkpt><trkpt lat="40.15811828358944" lon="9.19279729845303"><ele>784.1999999999999</ele><time>2026-04-28T06:50:16.997Z</time></trkpt><trkpt lat="40.15804139236212" lon="9.192781191420856"><ele>784.8</ele><time>2026-04-28T06:50:17.997Z</time></trkpt><trkpt lat="40.15798033962844" lon="9.192819612745263"><ele>785.4</ele><time>2026-04-28T06:50:18.997Z</time></trkpt><trkpt lat="40.157877079775076" lon="9.192916809841874"><ele>786.0</ele><time>2026-04-28T06:50:20.997Z</time></trkpt><trkpt lat="40.15779989406322" lon="9.192983680198893"><ele>786.0</ele><time>2026-04-28T06:50:22.997Z</time></trkpt><trkpt lat="40.15780049669596" lon="9.19307015069042"><ele>786.0</ele><time>2026-04-28T06:50:25.997Z</time></trkpt><trkpt lat="40.15787814295045" lon="9.193090411827768"><ele>786.0</ele><time>2026-04-28T06:50:30.997Z</time></trkpt><trkpt lat="40.15795869758799" lon="9.193081245454355"><ele>786.0</ele><time>2026-04-28T06:50:32.997Z</time></trkpt><trkpt lat="40.1580405900869" lon="9.193034684888241"><ele>786.0</ele><time>2026-04-28T06:50:34.997Z</time></trkpt><trkpt lat="40.15812451115583" lon="9.19301246961595"><ele>786.0</ele><time>2026-04-28T06:50:36.997Z</time></trkpt><trkpt lat="40.15818417134546" lon="9.1929803371801"><ele>785.5</ele><time>2026-04-28T06:50:38.997Z</time></trkpt><trkpt lat="40.15827143356851" lon="9.192992463381813"><ele>785.0</ele><time>2026-04-28T06:50:40.997Z</time></trkpt><trkpt lat="40.15834855444007" lon="9.193055844871584"><ele>784.5</ele><time>2026-04-28T06:50:42.997Z</time></trkpt><trkpt lat="40.15839546778044" lon="9.193114793708595"><ele>784.0</ele><time>2026-04-28T06:50:44.997Z</time></trkpt><trkpt lat="40.15843950456246" lon="9.193195702730963"><ele>783.5</ele><time>2026-04-28T06:50:46.997Z</time></trkpt><trkpt lat="40.15841369533244" lon="9.193311839134827"><ele>783.0</ele><time>2026-04-28T06:50:49.997Z</time></trkpt><trkpt lat="40.158362276036485" lon="9.19336126905158"><ele>780.7142857142857</ele><time>2026-04-28T06:50:53.997Z</time></trkpt><trkpt lat="40.158291802392135" lon="9.193312995473546"><ele>778.4285714285714</ele><time>2026-04-28T06:50:58.997Z</time></trkpt><trkpt lat="40.15822298012962" lon="9.19329873824688"><ele>776.1428571428571</ele><time>2026-04-28T06:51:03.997Z</time></trkpt><trkpt lat="40.15815998059797" lon="9.193290193037013"><ele>773.8571428571429</ele><time>2026-04-28T06:51:10.996Z</time></trkpt><trkpt lat="40.158090953750566" lon="9.193331419380748"><ele>771.5714285714287</ele><time>2026-04-28T06:51:25.996Z</time></trkpt><trkpt lat="40.15799952134339" lon="9.193357345396638"><ele>769.2857142857143</ele><time>2026-04-28T06:51:27.996Z</time></trkpt><trkpt lat="40.15794056601257" lon="9.19339277715476"><ele>767.0</ele><time>2026-04-28T06:51:28.996Z</time></trkpt><trkpt lat="40.1578566611238" lon="9.193437809125502"><ele>766.5714285714286</ele><time>2026-04-28T06:51:29.996Z</time></trkpt><trkpt lat="40.157794538836406" lon="9.193489196014124"><ele>766.1428571428571</ele><time>2026-04-28T06:51:30.996Z</time></trkpt><trkpt lat="40.15772122571393" lon="9.193524895322202"><ele>765.7142857142858</ele><time>2026-04-28T06:51:31.996Z</time></trkpt><trkpt lat="40.157646816181135" lon="9.193551873445807"><ele>765.2857142857142</ele><time>2026-04-28T06:51:32.996Z</time></trkpt><trkpt lat="40.15758261064137" lon="9.193579270996185"><ele>764.8571428571428</ele><time>2026-04-28T06:51:33.996Z</time></trkpt><trkpt lat="40.157510262834776" lon="9.193600022064162"><ele>764.4285714285714</ele><time>2026-04-28T06:51:34.996Z</time></trkpt><trkpt lat="40.157432828070746" lon="9.1936127010324"><ele>764.0</ele><time>2026-04-28T06:51:35.996Z</time></trkpt><trkpt lat="40.157306174216245" lon="9.193637880307767"><ele>765.3333333333333</ele><time>2026-04-28T06:51:37.996Z</time></trkpt><trkpt lat="40.15723998041112" lon="9.193645652264951"><ele>766.6666666666666</ele><time>2026-04-28T06:51:38.996Z</time></trkpt><trkpt lat="40.15717453430936" lon="9.193649408423289"><ele>768.0</ele><time>2026-04-28T06:51:39.996Z</time></trkpt><trkpt lat="40.15711213149223" lon="9.193633619105725"><ele>769.3333333333333</ele><time>2026-04-28T06:51:40.996Z</time></trkpt><trkpt lat="40.15701128000551" lon="9.19367356178203"><ele>770.6666666666666</ele><time>2026-04-28T06:51:42.996Z</time></trkpt><trkpt lat="40.15691825836877" lon="9.193725833518"><ele>772.0</ele><time>2026-04-28T06:51:44.996Z</time></trkpt><trkpt lat="40.1568247367175" lon="9.19379238305215"><ele>772.0</ele><time>2026-04-28T06:51:46.996Z</time></trkpt><trkpt lat="40.15672392705921" lon="9.193870228994214"><ele>772.0</ele><time>2026-04-28T06:51:48.996Z</time></trkpt><trkpt lat="40.156629516241765" lon="9.193937000298781"><ele>772.0</ele><time>2026-04-28T06:51:50.996Z</time></trkpt><trkpt lat="40.15653901235368" lon="9.194003811523258"><ele>772.0</ele><time>2026-04-28T06:51:52.996Z</time></trkpt><trkpt lat="40.15644546334031" lon="9.194077346766631"><ele>772.0</ele><time>2026-04-28T06:51:54.996Z</time></trkpt><trkpt lat="40.15636711398392" lon="9.194147308392367"><ele>767.2</ele><time>2026-04-28T06:51:56.996Z</time></trkpt><trkpt lat="40.156250719651794" lon="9.19423123651417"><ele>762.4000000000001</ele><time>2026-04-28T06:51:58.996Z</time></trkpt><trkpt lat="40.1561548611792" lon="9.194272304415312"><ele>757.5999999999999</ele><time>2026-04-28T06:51:59.996Z</time></trkpt><trkpt lat="40.15605589918485" lon="9.194282229972181"><ele>752.8</ele><time>2026-04-28T06:52:00.996Z</time></trkpt><trkpt lat="40.1559614638037" lon="9.194290689758532"><ele>748.0</ele><time>2026-04-28T06:52:01.996Z</time></trkpt><trkpt lat="40.15587124197981" lon="9.194281330829755"><ele>748.0</ele><time>2026-04-28T06:52:02.996Z</time></trkpt><trkpt lat="40.15578352419827" lon="9.194289556677887"><ele>748.0</ele><time>2026-04-28T06:52:03.996Z</time></trkpt><trkpt lat="40.15569035188644" lon="9.194336929607793"><ele>748.0</ele><time>2026-04-28T06:52:04.996Z</time></trkpt><trkpt lat="40.155601942531284" lon="9.194336254344668"><ele>748.0</ele><time>2026-04-28T06:52:05.996Z</time></trkpt><trkpt lat="40.15550724459954" lon="9.194339065416678"><ele>748.0</ele><time>2026-04-28T06:52:06.996Z</time></trkpt><trkpt lat="40.15541439033703" lon="9.194350092727698"><ele>748.4</ele><time>2026-04-28T06:52:07.996Z</time></trkpt><trkpt lat="40.155317733366246" lon="9.194362092606925"><ele>748.8</ele><time>2026-04-28T06:52:08.996Z</time></trkpt><trkpt lat="40.155225190276056" lon="9.194380168006575"><ele>749.2</ele><time>2026-04-28T06:52:09.996Z</time></trkpt><trkpt lat="40.15512656850106" lon="9.194410144497777"><ele>749.6</ele><time>2026-04-28T06:52:10.995Z</time></trkpt><trkpt lat="40.155035038786956" lon="9.19441412004204"><ele>750.0</ele><time>2026-04-28T06:52:11.995Z</time></trkpt><trkpt lat="40.15494410180456" lon="9.194436555699028"><ele>750.6</ele><time>2026-04-28T06:52:12.995Z</time></trkpt><trkpt lat="40.15486115235768" lon="9.194476568677187"><ele>751.2</ele><time>2026-04-28T06:52:13.995Z</time></trkpt><trkpt lat="40.154769130646876" lon="9.194515995579332"><ele>751.8</ele><time>2026-04-28T06:52:14.995Z</time></trkpt><trkpt lat="40.1546720299884" lon="9.194576110898838"><ele>752.4</ele><time>2026-04-28T06:52:15.995Z</time></trkpt><trkpt lat="40.15458584154845" lon="9.194666156442173"><ele>753.0</ele><time>2026-04-28T06:52:16.995Z</time></trkpt><trkpt lat="40.15451637755784" lon="9.194762808714845"><ele>750.0</ele><time>2026-04-28T06:52:17.995Z</time></trkpt><trkpt lat="40.15446262685183" lon="9.19490512436233"><ele>747.0</ele><time>2026-04-28T06:52:18.995Z</time></trkpt><trkpt lat="40.15442132970819" lon="9.195033153090964"><ele>744.0</ele><time>2026-04-28T06:52:19.995Z</time></trkpt><trkpt lat="40.154391368044415" lon="9.1951851790662"><ele>741.0</ele><time>2026-04-28T06:52:20.995Z</time></trkpt><trkpt lat="40.154362485749544" lon="9.19533665939767"><ele>741.0</ele><time>2026-04-28T06:52:21.995Z</time></trkpt><trkpt lat="40.15423820493437" lon="9.195552646160547"><ele>741.0</ele><time>2026-04-28T06:52:23.995Z</time></trkpt><trkpt lat="40.15412905599478" lon="9.195605277993916"><ele>741.0</ele><time>2026-04-28T06:52:24.995Z</time></trkpt><trkpt lat="40.15401232869813" lon="9.195659560044056"><ele>741.0</ele><time>2026-04-28T06:52:25.995Z</time></trkpt><trkpt lat="40.15389267541599" lon="9.195717096382497"><ele>740.0</ele><time>2026-04-28T06:52:26.995Z</time></trkpt><trkpt lat="40.15377039361949" lon="9.195771100339574"><ele>739.0</ele><time>2026-04-28T06:52:27.995Z</time></trkpt><trkpt lat="40.153666487255144" lon="9.195855120489933"><ele>738.0</ele><time>2026-04-28T06:52:28.995Z</time></trkpt><trkpt lat="40.153565025768565" lon="9.19595611396448"><ele>737.0</ele><time>2026-04-28T06:52:29.995Z</time></trkpt><trkpt lat="40.15345551041173" lon="9.196063479751148"><ele>737.0</ele><time>2026-04-28T06:52:30.995Z</time></trkpt><trkpt lat="40.15334506665163" lon="9.1961529870054"><ele>737.0</ele><time>2026-04-28T06:52:31.995Z</time></trkpt><trkpt lat="40.15322304588415" lon="9.196208984434993"><ele>737.0</ele><time>2026-04-28T06:52:32.995Z</time></trkpt><trkpt lat="40.15310842196836" lon="9.196284437518488"><ele>737.0</ele><time>2026-04-28T06:52:33.995Z</time></trkpt><trkpt lat="40.153003625987054" lon="9.196410593949599"><ele>732.5</ele><time>2026-04-28T06:52:34.995Z</time></trkpt><trkpt lat="40.15292872702043" lon="9.196552386703685"><ele>728.0</ele><time>2026-04-28T06:52:35.995Z</time></trkpt><trkpt lat="40.15283277829812" lon="9.196668951197868"><ele>723.5</ele><time>2026-04-28T06:52:36.995Z</time></trkpt><trkpt lat="40.152724638637004" lon="9.196772220770198"><ele>719.0</ele><time>2026-04-28T06:52:37.995Z</time></trkpt><trkpt lat="40.152595113702404" lon="9.196831652191335"><ele>719.0</ele><time>2026-04-28T06:52:38.995Z</time></trkpt><trkpt lat="40.15246819587601" lon="9.196883375807468"><ele>719.0</ele><time>2026-04-28T06:52:39.995Z</time></trkpt><trkpt lat="40.152331140973516" lon="9.196902081676265"><ele>719.0</ele><time>2026-04-28T06:52:40.995Z</time></trkpt><trkpt lat="40.15219633929475" lon="9.196870572750193"><ele>719.0</ele><time>2026-04-28T06:52:41.995Z</time></trkpt><trkpt lat="40.15207588776351" lon="9.196789754953041"><ele>716.25</ele><time>2026-04-28T06:52:42.995Z</time></trkpt><trkpt lat="40.15194901981001" lon="9.196709472700457"><ele>713.5</ele><time>2026-04-28T06:52:43.995Z</time></trkpt><trkpt lat="40.1518588162616" lon="9.196604114202774"><ele>710.75</ele><time>2026-04-28T06:52:44.995Z</time></trkpt><trkpt lat="40.15183555877494" lon="9.196469512017774"><ele>708.0</ele><time>2026-04-28T06:52:45.995Z</time></trkpt><trkpt lat="40.15181075120888" lon="9.196275398604465"><ele>708.0</ele><time>2026-04-28T06:52:46.995Z</time></trkpt><trkpt lat="40.151789599033094" lon="9.196111362076326"><ele>708.0</ele><time>2026-04-28T06:52:47.995Z</time></trkpt><trkpt lat="40.151765408532135" lon="9.195923763104934"><ele>708.0</ele><time>2026-04-28T06:52:48.995Z</time></trkpt><trkpt lat="40.151716674291606" lon="9.195740005503946"><ele>708.0</ele><time>2026-04-28T06:52:49.995Z</time></trkpt><trkpt lat="40.151692571567786" lon="9.195554838585288"><ele>710.25</ele><time>2026-04-28T06:52:50.995Z</time></trkpt><trkpt lat="40.15163167869827" lon="9.195411912917455"><ele>712.5</ele><time>2026-04-28T06:52:51.995Z</time></trkpt><trkpt lat="40.15153791228129" lon="9.195310873745365"><ele>714.75</ele><time>2026-04-28T06:52:52.995Z</time></trkpt><trkpt lat="40.151415505734306" lon="9.19530899977097"><ele>717.0</ele><time>2026-04-28T06:52:53.995Z</time></trkpt><trkpt lat="40.151278530679704" lon="9.195384048692203"><ele>717.25</ele><time>2026-04-28T06:52:54.995Z</time></trkpt><trkpt lat="40.15116537892097" lon="9.195525039926853"><ele>717.5</ele><time>2026-04-28T06:52:55.995Z</time></trkpt><trkpt lat="40.15107068635614" lon="9.195657041312703"><ele>717.75</ele><time>2026-04-28T06:52:56.995Z</time></trkpt><trkpt lat="40.1509684532582" lon="9.195713968754553"><ele>718.0</ele><time>2026-04-28T06:52:57.995Z</time></trkpt><trkpt lat="40.15081331173631" lon="9.195731395317349"><ele>712.75</ele><time>2026-04-28T06:52:58.995Z</time></trkpt><trkpt lat="40.150686487439586" lon="9.195797016364622"><ele>707.5</ele><time>2026-04-28T06:52:59.995Z</time></trkpt><trkpt lat="40.15057050546846" lon="9.19589168042367"><ele>702.25</ele><time>2026-04-28T06:53:00.995Z</time></trkpt><trkpt lat="40.15045646784643" lon="9.195978517079158"><ele>697.0</ele><time>2026-04-28T06:53:01.995Z</time></trkpt><trkpt lat="40.150324783536156" lon="9.19596619900521"><ele>697.0</ele><time>2026-04-28T06:53:02.995Z</time></trkpt><trkpt lat="40.15020303566828" lon="9.195894545369603"><ele>697.0</ele><time>2026-04-28T06:53:03.995Z</time></trkpt><trkpt lat="40.15008689574084" lon="9.195795533746445"><ele>697.0</ele><time>2026-04-28T06:53:04.995Z</time></trkpt><trkpt lat="40.149961333645486" lon="9.195761530599118"><ele>697.0</ele><time>2026-04-28T06:53:05.995Z</time></trkpt><trkpt lat="40.14984260497713" lon="9.195731161874285"><ele>699.25</ele><time>2026-04-28T06:53:06.995Z</time></trkpt><trkpt lat="40.149718969052046" lon="9.195761482181961"><ele>701.5</ele><time>2026-04-28T06:53:07.995Z</time></trkpt><trkpt lat="40.149592933602285" lon="9.195845304176524"><ele>703.75</ele><time>2026-04-28T06:53:08.995Z</time></trkpt><trkpt lat="40.14948384237836" lon="9.19596085125025"><ele>706.0</ele><time>2026-04-28T06:53:09.995Z</time></trkpt><trkpt lat="40.14939620945165" lon="9.196102762096663"><ele>706.0</ele><time>2026-04-28T06:53:10.995Z</time></trkpt><trkpt lat="40.14935162130463" lon="9.196262591254905"><ele>706.0</ele><time>2026-04-28T06:53:11.995Z</time></trkpt><trkpt lat="40.14934851194426" lon="9.196470972544274"><ele>706.0</ele><time>2026-04-28T06:53:12.995Z</time></trkpt><trkpt lat="40.14939336249116" lon="9.196666274795463"><ele>706.0</ele><time>2026-04-28T06:53:13.995Z</time></trkpt><trkpt lat="40.14942117426473" lon="9.19684853765615"><ele>704.0</ele><time>2026-04-28T06:53:14.995Z</time></trkpt><trkpt lat="40.14942877118732" lon="9.19702956885233"><ele>702.0</ele><time>2026-04-28T06:53:15.995Z</time></trkpt><trkpt lat="40.14939635177373" lon="9.19718329368293"><ele>700.0</ele><time>2026-04-28T06:53:16.995Z</time></trkpt><trkpt lat="40.149272920107705" lon="9.197263971338069"><ele>698.0</ele><time>2026-04-28T06:53:17.994Z</time></trkpt><trkpt lat="40.14914349706692" lon="9.197317179832215"><ele>694.5</ele><time>2026-04-28T06:53:18.994Z</time></trkpt><trkpt lat="40.149003723066755" lon="9.197369534188972"><ele>691.0</ele><time>2026-04-28T06:53:19.994Z</time></trkpt><trkpt lat="40.14887129582518" lon="9.197419959290647"><ele>687.5</ele><time>2026-04-28T06:53:20.994Z</time></trkpt><trkpt lat="40.1487353760619" lon="9.197463605942694"><ele>684.0</ele><time>2026-04-28T06:53:21.994Z</time></trkpt><trkpt lat="40.14858588810136" lon="9.197479762134437"><ele>684.0</ele><time>2026-04-28T06:53:22.994Z</time></trkpt><trkpt lat="40.14843547995456" lon="9.197490124916516"><ele>684.0</ele><time>2026-04-28T06:53:23.994Z</time></trkpt><trkpt lat="40.148287473666166" lon="9.197447913049713"><ele>684.0</ele><time>2026-04-28T06:53:24.994Z</time></trkpt><trkpt lat="40.14815129031767" lon="9.197412572792114"><ele>684.0</ele><time>2026-04-28T06:53:25.994Z</time></trkpt><trkpt lat="40.14801365688195" lon="9.197433423896525"><ele>685.0</ele><time>2026-04-28T06:53:26.994Z</time></trkpt><trkpt lat="40.147884826369854" lon="9.197497246376932"><ele>686.0</ele><time>2026-04-28T06:53:27.994Z</time></trkpt><trkpt lat="40.147768047285226" lon="9.197565601843666"><ele>687.0</ele><time>2026-04-28T06:53:28.994Z</time></trkpt><trkpt lat="40.14763797313247" lon="9.19757689426957"><ele>688.0</ele><time>2026-04-28T06:53:29.994Z</time></trkpt><trkpt lat="40.14751194653861" lon="9.19757389839819"><ele>688.0</ele><time>2026-04-28T06:53:30.994Z</time></trkpt><trkpt lat="40.14742203237997" lon="9.197627988497345"><ele>688.0</ele><time>2026-04-28T06:53:31.994Z</time></trkpt><trkpt lat="40.1473738282605" lon="9.197741246831702"><ele>688.0</ele><time>2026-04-28T06:53:32.994Z</time></trkpt><trkpt lat="40.1473890673067" lon="9.19789314848326"><ele>688.0</ele><time>2026-04-28T06:53:33.994Z</time></trkpt><trkpt lat="40.14743025002286" lon="9.198080183859473"><ele>686.0</ele><time>2026-04-28T06:53:34.994Z</time></trkpt><trkpt lat="40.147390530625344" lon="9.198218663759649"><ele>684.0</ele><time>2026-04-28T06:53:35.994Z</time></trkpt><trkpt lat="40.14728674079972" lon="9.198335909085051"><ele>682.0</ele><time>2026-04-28T06:53:36.994Z</time></trkpt><trkpt lat="40.14723412658416" lon="9.198466074599711"><ele>680.0</ele><time>2026-04-28T06:53:37.994Z</time></trkpt><trkpt lat="40.14720892381284" lon="9.198609985481857"><ele>680.0</ele><time>2026-04-28T06:53:38.994Z</time></trkpt><trkpt lat="40.147237905136244" lon="9.19876775460878"><ele>680.0</ele><time>2026-04-28T06:53:39.994Z</time></trkpt><trkpt lat="40.14731572482204" lon="9.198915359448646"><ele>680.0</ele><time>2026-04-28T06:53:40.994Z</time></trkpt><trkpt lat="40.147371053176386" lon="9.199071432058185"><ele>680.0</ele><time>2026-04-28T06:53:41.994Z</time></trkpt><trkpt lat="40.14738057900246" lon="9.199218537264919"><ele>676.0</ele><time>2026-04-28T06:53:42.994Z</time></trkpt><trkpt lat="40.14730996363837" lon="9.199339384024851"><ele>672.0</ele><time>2026-04-28T06:53:43.994Z</time></trkpt><trkpt lat="40.14719392528378" lon="9.199393482226839"><ele>668.0</ele><time>2026-04-28T06:53:44.994Z</time></trkpt><trkpt lat="40.14706632753614" lon="9.199409776647762"><ele>664.0</ele><time>2026-04-28T06:53:45.994Z</time></trkpt><trkpt lat="40.14693633981871" lon="9.199451817975966"><ele>664.0</ele><time>2026-04-28T06:53:46.994Z</time></trkpt><trkpt lat="40.14680035363346" lon="9.199477819998815"><ele>664.0</ele><time>2026-04-28T06:53:47.994Z</time></trkpt><trkpt lat="40.14665198161133" lon="9.199480273453696"><ele>664.0</ele><time>2026-04-28T06:53:48.994Z</time></trkpt><trkpt lat="40.14649906093948" lon="9.199442790992602"><ele>664.0</ele><time>2026-04-28T06:53:49.994Z</time></trkpt><trkpt lat="40.14635491419934" lon="9.19941392241979"><ele>663.0</ele><time>2026-04-28T06:53:50.994Z</time></trkpt><trkpt lat="40.14620032832906" lon="9.199414404368964"><ele>662.0</ele><time>2026-04-28T06:53:51.994Z</time></trkpt><trkpt lat="40.146036316176264" lon="9.199445097032399"><ele>661.0</ele><time>2026-04-28T06:53:52.994Z</time></trkpt><trkpt lat="40.14588321047851" lon="9.199512943188648"><ele>661.0</ele><time>2026-04-28T06:53:53.994Z</time></trkpt><trkpt lat="40.14574510765888" lon="9.199574417985927"><ele>661.0</ele><time>2026-04-28T06:53:54.994Z</time></trkpt><trkpt lat="40.14561723360715" lon="9.19965517327888"><ele>661.0</ele><time>2026-04-28T06:53:55.994Z</time></trkpt><trkpt lat="40.145493279323574" lon="9.1997269535995"><ele>661.0</ele><time>2026-04-28T06:53:56.994Z</time></trkpt><trkpt lat="40.14540837956526" lon="9.199832729565415"><ele>657.5</ele><time>2026-04-28T06:53:57.994Z</time></trkpt><trkpt lat="40.14536760728663" lon="9.1999973477566"><ele>654.0</ele><time>2026-04-28T06:53:58.994Z</time></trkpt><trkpt lat="40.14532545337152" lon="9.200203372216682"><ele>650.5</ele><time>2026-04-28T06:53:59.994Z</time></trkpt><trkpt lat="40.14529942383741" lon="9.200388397300753"><ele>647.0</ele><time>2026-04-28T06:54:00.994Z</time></trkpt><trkpt lat="40.14524361571903" lon="9.200556537633512"><ele>647.25</ele><time>2026-04-28T06:54:01.994Z</time></trkpt><trkpt lat="40.145197829894386" lon="9.20074171431761"><ele>647.5</ele><time>2026-04-28T06:54:02.994Z</time></trkpt><trkpt lat="40.14515541296189" lon="9.20091923893377"><ele>647.75</ele><time>2026-04-28T06:54:03.994Z</time></trkpt><trkpt lat="40.14511426837805" lon="9.201084197601755"><ele>648.0</ele><time>2026-04-28T06:54:04.994Z</time></trkpt><trkpt lat="40.14509019578799" lon="9.201218231070072"><ele>648.0</ele><time>2026-04-28T06:54:05.994Z</time></trkpt><trkpt lat="40.14500712488147" lon="9.201284759471033"><ele>648.0</ele><time>2026-04-28T06:54:06.994Z</time></trkpt><trkpt lat="40.14488776264529" lon="9.20128908458763"><ele>648.0</ele><time>2026-04-28T06:54:07.994Z</time></trkpt><trkpt lat="40.144755169835975" lon="9.201236066802316"><ele>648.0</ele><time>2026-04-28T06:54:08.994Z</time></trkpt><trkpt lat="40.144632993714275" lon="9.20117824398006"><ele>649.0</ele><time>2026-04-28T06:54:09.994Z</time></trkpt><trkpt lat="40.144501382587976" lon="9.201116264774077"><ele>650.0</ele><time>2026-04-28T06:54:10.994Z</time></trkpt><trkpt lat="40.14436271671256" lon="9.20107557296482"><ele>651.0</ele><time>2026-04-28T06:54:11.994Z</time></trkpt><trkpt lat="40.14421870238016" lon="9.201029244475391"><ele>652.0</ele><time>2026-04-28T06:54:12.994Z</time></trkpt><trkpt lat="40.14406957166327" lon="9.200982320842888"><ele>651.3333333333334</ele><time>2026-04-28T06:54:13.994Z</time></trkpt><trkpt lat="40.14391675435239" lon="9.20096887819679"><ele>650.6666666666666</ele><time>2026-04-28T06:54:14.994Z</time></trkpt><trkpt lat="40.14376697257294" lon="9.201008974692302"><ele>650.0</ele><time>2026-04-28T06:54:15.994Z</time></trkpt><trkpt lat="40.14363032515382" lon="9.201083968076052"><ele>650.0</ele><time>2026-04-28T06:54:16.994Z</time></trkpt><trkpt lat="40.143518708684496" lon="9.20120061822089"><ele>650.0</ele><time>2026-04-28T06:54:17.994Z</time></trkpt><trkpt lat="40.1434393235088" lon="9.201330350450686"><ele>650.0</ele><time>2026-04-28T06:54:18.994Z</time></trkpt><trkpt lat="40.143396245624054" lon="9.201519016053224"><ele>650.0</ele><time>2026-04-28T06:54:19.994Z</time></trkpt><trkpt lat="40.14337680993197" lon="9.201725677567737"><ele>650.0</ele><time>2026-04-28T06:54:20.994Z</time></trkpt><trkpt lat="40.14333107504521" lon="9.201922658021521"><ele>650.0</ele><time>2026-04-28T06:54:21.994Z</time></trkpt><trkpt lat="40.14327918575978" lon="9.202100496134445"><ele>650.0</ele><time>2026-04-28T06:54:22.994Z</time></trkpt><trkpt lat="40.14319222794384" lon="9.202232695912352"><ele>650.0</ele><time>2026-04-28T06:54:23.993Z</time></trkpt><trkpt lat="40.14308172899717" lon="9.20235258934982"><ele>650.0</ele><time>2026-04-28T06:54:24.993Z</time></trkpt><trkpt lat="40.14295963060308" lon="9.202482344655584"><ele>650.0</ele><time>2026-04-28T06:54:25.993Z</time></trkpt><trkpt lat="40.14283234043627" lon="9.202614502481907"><ele>650.0</ele><time>2026-04-28T06:54:26.993Z</time></trkpt><trkpt lat="40.14271182015412" lon="9.202740808984574"><ele>650.0</ele><time>2026-04-28T06:54:27.993Z</time></trkpt><trkpt lat="40.142606207470635" lon="9.202874734796609"><ele>650.0</ele><time>2026-04-28T06:54:28.993Z</time></trkpt><trkpt lat="40.14247610951703" lon="9.202938976257242"><ele>650.0</ele><time>2026-04-28T06:54:29.993Z</time></trkpt><trkpt lat="40.14236228208688" lon="9.202914072769362"><ele>650.0</ele><time>2026-04-28T06:54:30.993Z</time></trkpt><trkpt lat="40.142208295499614" lon="9.202873756584284"><ele>649.0</ele><time>2026-04-28T06:54:31.993Z</time></trkpt><trkpt lat="40.142037355812455" lon="9.202862378869122"><ele>648.0</ele><time>2026-04-28T06:54:32.993Z</time></trkpt><trkpt lat="40.14187441885081" lon="9.202851539808947"><ele>647.0</ele><time>2026-04-28T06:54:33.993Z</time></trkpt><trkpt lat="40.14169818617117" lon="9.202865052034717"><ele>646.3333333333333</ele><time>2026-04-28T06:54:34.993Z</time></trkpt><trkpt lat="40.141517044900304" lon="9.202865899209645"><ele>645.6666666666666</ele><time>2026-04-28T06:54:35.993Z</time></trkpt><trkpt lat="40.141341215341015" lon="9.202875952247274"><ele>645.0</ele><time>2026-04-28T06:54:36.993Z</time></trkpt><trkpt lat="40.14116321993731" lon="9.202877725427854"><ele>645.0</ele><time>2026-04-28T06:54:37.993Z</time></trkpt><trkpt lat="40.14098672551278" lon="9.20288289828293"><ele>645.0</ele><time>2026-04-28T06:54:38.993Z</time></trkpt><trkpt lat="40.140806673533966" lon="9.202885839880379"><ele>645.0</ele><time>2026-04-28T06:54:39.993Z</time></trkpt><trkpt lat="40.140621697756906" lon="9.20288131503871"><ele>647.0</ele><time>2026-04-28T06:54:40.993Z</time></trkpt><trkpt lat="40.140446850910955" lon="9.202878418745117"><ele>649.0</ele><time>2026-04-28T06:54:41.993Z</time></trkpt><trkpt lat="40.14025821740877" lon="9.202869274398903"><ele>651.0</ele><time>2026-04-28T06:54:42.993Z</time></trkpt><trkpt lat="40.140075647997755" lon="9.202874649038456"><ele>651.0</ele><time>2026-04-28T06:54:43.993Z</time></trkpt><trkpt lat="40.139892150795305" lon="9.202875502181252"><ele>651.0</ele><time>2026-04-28T06:54:44.993Z</time></trkpt><trkpt lat="40.13971264897508" lon="9.202894863309329"><ele>651.0</ele><time>2026-04-28T06:54:45.993Z</time></trkpt><trkpt lat="40.13954597474275" lon="9.202963085422674"><ele>651.0</ele><time>2026-04-28T06:54:46.993Z</time></trkpt><trkpt lat="40.139388849112784" lon="9.20306442752126"><ele>651.0</ele><time>2026-04-28T06:54:47.993Z</time></trkpt><trkpt lat="40.13923554427119" lon="9.203186955286563"><ele>651.0</ele><time>2026-04-28T06:54:48.993Z</time></trkpt><trkpt lat="40.13908460408887" lon="9.203288345662717"><ele>650.0</ele><time>2026-04-28T06:54:49.993Z</time></trkpt><trkpt lat="40.13893352250795" lon="9.203401632347925"><ele>649.0</ele><time>2026-04-28T06:54:50.993Z</time></trkpt><trkpt lat="40.1387775696098" lon="9.20350787002934"><ele>648.0</ele><time>2026-04-28T06:54:51.993Z</time></trkpt><trkpt lat="40.13862684316659" lon="9.203619635278132"><ele>648.0</ele><time>2026-04-28T06:54:52.993Z</time></trkpt><trkpt lat="40.13847289688611" lon="9.203721953054224"><ele>648.0</ele><time>2026-04-28T06:54:53.993Z</time></trkpt><trkpt lat="40.13831120729558" lon="9.203813862240024"><ele>648.0</ele><time>2026-04-28T06:54:54.993Z</time></trkpt><trkpt lat="40.138154641365105" lon="9.203899812029992"><ele>649.3333333333334</ele><time>2026-04-28T06:54:55.993Z</time></trkpt><trkpt lat="40.13799413254512" lon="9.203996018390567"><ele>650.6666666666667</ele><time>2026-04-28T06:54:56.993Z</time></trkpt><trkpt lat="40.13782960320289" lon="9.20407104746048"><ele>652.0</ele><time>2026-04-28T06:54:57.993Z</time></trkpt><trkpt lat="40.13766241540025" lon="9.204154132988576"><ele>652.0</ele><time>2026-04-28T06:54:58.993Z</time></trkpt><trkpt lat="40.13750578202284" lon="9.204249502858184"><ele>652.0</ele><time>2026-04-28T06:54:59.993Z</time></trkpt><trkpt lat="40.137348587466356" lon="9.204335710714128"><ele>652.0</ele><time>2026-04-28T06:55:00.993Z</time></trkpt><trkpt lat="40.13719601919409" lon="9.20442909495063"><ele>649.0</ele><time>2026-04-28T06:55:01.993Z</time></trkpt><trkpt lat="40.13703949734541" lon="9.204531086430476"><ele>646.0</ele><time>2026-04-28T06:55:02.993Z</time></trkpt><trkpt lat="40.1368934714618" lon="9.204642349410145"><ele>643.0</ele><time>2026-04-28T06:55:03.993Z</time></trkpt><trkpt lat="40.136745372935785" lon="9.20475977615339"><ele>642.0</ele><time>2026-04-28T06:55:04.993Z</time></trkpt><trkpt lat="40.136607011473735" lon="9.204882670064007"><ele>641.0</ele><time>2026-04-28T06:55:05.993Z</time></trkpt><trkpt lat="40.13648406648802" lon="9.205024068659688"><ele>640.0</ele><time>2026-04-28T06:55:06.993Z</time></trkpt><trkpt lat="40.1364076353182" lon="9.205225615816444"><ele>640.0</ele><time>2026-04-28T06:55:07.993Z</time></trkpt><trkpt lat="40.13635485769795" lon="9.2054276728608"><ele>640.0</ele><time>2026-04-28T06:55:08.993Z</time></trkpt><trkpt lat="40.13633346731718" lon="9.205651861703272"><ele>640.0</ele><time>2026-04-28T06:55:09.993Z</time></trkpt><trkpt lat="40.13632179539855" lon="9.20587384430274"><ele>641.0</ele><time>2026-04-28T06:55:10.993Z</time></trkpt><trkpt lat="40.1363063424348" lon="9.20610023646651"><ele>642.0</ele><time>2026-04-28T06:55:11.993Z</time></trkpt><trkpt lat="40.136259745438124" lon="9.206293940280158"><ele>643.0</ele><time>2026-04-28T06:55:12.993Z</time></trkpt><trkpt lat="40.13617168862951" lon="9.206488877935364"><ele>646.0</ele><time>2026-04-28T06:55:13.993Z</time></trkpt><trkpt lat="40.13605269950786" lon="9.206642918980767"><ele>649.0</ele><time>2026-04-28T06:55:14.993Z</time></trkpt><trkpt lat="40.13595442380989" lon="9.206830732605459"><ele>652.0</ele><time>2026-04-28T06:55:15.993Z</time></trkpt><trkpt lat="40.13583817598602" lon="9.206991936862533"><ele>652.0</ele><time>2026-04-28T06:55:16.993Z</time></trkpt><trkpt lat="40.135714595375084" lon="9.207143292325727"><ele>652.0</ele><time>2026-04-28T06:55:17.993Z</time></trkpt><trkpt lat="40.135571766783436" lon="9.207278520779166"><ele>652.0</ele><time>2026-04-28T06:55:18.993Z</time></trkpt><trkpt lat="40.13541909340957" lon="9.207395243527268"><ele>652.0</ele><time>2026-04-28T06:55:19.993Z</time></trkpt><trkpt lat="40.13525054305013" lon="9.207504049587822"><ele>652.0</ele><time>2026-04-28T06:55:20.993Z</time></trkpt><trkpt lat="40.135078357604186" lon="9.207617682168813"><ele>652.0</ele><time>2026-04-28T06:55:21.993Z</time></trkpt><trkpt lat="40.13489874060216" lon="9.207723239025398"><ele>648.0</ele><time>2026-04-28T06:55:22.993Z</time></trkpt><trkpt lat="40.13472583397731" lon="9.207844934304102"><ele>644.0</ele><time>2026-04-28T06:55:23.993Z</time></trkpt><trkpt lat="40.13455597698138" lon="9.207938002535808"><ele>640.0</ele><time>2026-04-28T06:55:24.993Z</time></trkpt><trkpt lat="40.134392498785395" lon="9.208049850487804"><ele>644.3333333333334</ele><time>2026-04-28T06:55:25.993Z</time></trkpt><trkpt lat="40.13425001393617" lon="9.20824233439979"><ele>648.6666666666666</ele><time>2026-04-28T06:55:26.993Z</time></trkpt><trkpt lat="40.134179052314096" lon="9.20853812316443"><ele>653.0</ele><time>2026-04-28T06:55:27.993Z</time></trkpt><trkpt lat="40.13422246671726" lon="9.208879699794414"><ele>653.0</ele><time>2026-04-28T06:55:28.993Z</time></trkpt><trkpt lat="40.13430149162974" lon="9.209165744301256"><ele>653.0</ele><time>2026-04-28T06:55:29.993Z</time></trkpt><trkpt lat="40.13417542181885" lon="9.208982727802528"><ele>653.0</ele><time>2026-04-28T06:55:30.992Z</time></trkpt><trkpt lat="40.134253764408186" lon="9.209207149226117"><ele>653.6666666666666</ele><time>2026-04-28T06:55:31.992Z</time></trkpt><trkpt lat="40.134329551104344" lon="9.209434834019229"><ele>654.3333333333334</ele><time>2026-04-28T06:55:32.992Z</time></trkpt><trkpt lat="40.13440771516049" lon="9.209676381863245"><ele>655.0</ele><time>2026-04-28T06:55:33.992Z</time></trkpt><trkpt lat="40.134482889166" lon="9.20991333451057"><ele>652.6666666666667</ele><time>2026-04-28T06:55:34.992Z</time></trkpt><trkpt lat="40.1345764413109" lon="9.21013905450411"><ele>650.3333333333334</ele><time>2026-04-28T06:55:35.992Z</time></trkpt><trkpt lat="40.134695629940396" lon="9.21035309518618"><ele>648.0</ele><time>2026-04-28T06:55:36.992Z</time></trkpt><trkpt lat="40.134813821816635" lon="9.210553920265054"><ele>647.6666666666666</ele><time>2026-04-28T06:55:37.992Z</time></trkpt><trkpt lat="40.134899325299976" lon="9.210770258052236"><ele>647.3333333333333</ele><time>2026-04-28T06:55:38.992Z</time></trkpt><trkpt lat="40.13491537363869" lon="9.211008351580178"><ele>647.0</ele><time>2026-04-28T06:55:39.992Z</time></trkpt><trkpt lat="40.134880576641834" lon="9.211235715357745"><ele>647.0</ele><time>2026-04-28T06:55:40.992Z</time></trkpt><trkpt lat="40.13479520454383" lon="9.21142238195237"><ele>647.0</ele><time>2026-04-28T06:55:41.992Z</time></trkpt><trkpt lat="40.13467823338023" lon="9.21160081556707"><ele>647.0</ele><time>2026-04-28T06:55:42.992Z</time></trkpt><trkpt lat="40.13454943484748" lon="9.211797699859982"><ele>647.3333333333333</ele><time>2026-04-28T06:55:43.992Z</time></trkpt><trkpt lat="40.13442017686061" lon="9.212004154063294"><ele>647.6666666666666</ele><time>2026-04-28T06:55:44.992Z</time></trkpt><trkpt lat="40.134298004343826" lon="9.212214272022921"><ele>648.0</ele><time>2026-04-28T06:55:45.992Z</time></trkpt><trkpt lat="40.13421405253537" lon="9.212452327367687"><ele>651.0</ele><time>2026-04-28T06:55:46.992Z</time></trkpt><trkpt lat="40.1341383685352" lon="9.212688660186682"><ele>654.0</ele><time>2026-04-28T06:55:47.992Z</time></trkpt><trkpt lat="40.134049585208" lon="9.212920763499024"><ele>657.0</ele><time>2026-04-28T06:55:48.992Z</time></trkpt><trkpt lat="40.133976460105444" lon="9.213128607290693"><ele>652.5</ele><time>2026-04-28T06:55:49.992Z</time></trkpt><trkpt lat="40.13387926454284" lon="9.213282425820429"><ele>648.0</ele><time>2026-04-28T06:55:50.992Z</time></trkpt><trkpt lat="40.13375456088789" lon="9.213357369980507"><ele>643.5</ele><time>2026-04-28T06:55:51.992Z</time></trkpt><trkpt lat="40.133611989975805" lon="9.213419294666428"><ele>639.0</ele><time>2026-04-28T06:55:52.992Z</time></trkpt><trkpt lat="40.13344499610033" lon="9.213350075016576"><ele>639.0</ele><time>2026-04-28T06:55:53.992Z</time></trkpt><trkpt lat="40.13327531038244" lon="9.213340089221088"><ele>639.0</ele><time>2026-04-28T06:55:54.992Z</time></trkpt><trkpt lat="40.133094771423366" lon="9.21330394374793"><ele>639.0</ele><time>2026-04-28T06:55:55.992Z</time></trkpt><trkpt lat="40.132912336012765" lon="9.213275128849139"><ele>639.3333333333334</ele><time>2026-04-28T06:55:56.992Z</time></trkpt><trkpt lat="40.13273032388057" lon="9.213252649389645"><ele>639.6666666666667</ele><time>2026-04-28T06:55:57.992Z</time></trkpt><trkpt lat="40.13254783441684" lon="9.2132348681195"><ele>640.0</ele><time>2026-04-28T06:55:58.992Z</time></trkpt><trkpt lat="40.13236584962994" lon="9.213216143611543"><ele>645.0</ele><time>2026-04-28T06:55:59.992Z</time></trkpt><trkpt lat="40.132200780974756" lon="9.213196188940392"><ele>650.0</ele><time>2026-04-28T06:56:00.992Z</time></trkpt><trkpt lat="40.132046124318386" lon="9.21317343388323"><ele>655.0</ele><time>2026-04-28T06:56:01.992Z</time></trkpt><trkpt lat="40.13190438883532" lon="9.213112854608069"><ele>655.0</ele><time>2026-04-28T06:56:02.992Z</time></trkpt><trkpt lat="40.13179597662161" lon="9.212983683533428"><ele>655.0</ele><time>2026-04-28T06:56:03.992Z</time></trkpt><trkpt lat="40.13168292716571" lon="9.212821817696764"><ele>655.0</ele><time>2026-04-28T06:56:04.992Z</time></trkpt><trkpt lat="40.13156290082466" lon="9.212659597577234"><ele>654.3333333333334</ele><time>2026-04-28T06:56:05.992Z</time></trkpt><trkpt lat="40.131452904866634" lon="9.212486197398595"><ele>653.6666666666666</ele><time>2026-04-28T06:56:06.992Z</time></trkpt><trkpt lat="40.13133226530055" lon="9.212310454493444"><ele>653.0</ele><time>2026-04-28T06:56:07.992Z</time></trkpt><trkpt lat="40.13120428076016" lon="9.212154381916749"><ele>653.0</ele><time>2026-04-28T06:56:08.992Z</time></trkpt><trkpt lat="40.13106047703531" lon="9.212019903051242"><ele>653.0</ele><time>2026-04-28T06:56:09.992Z</time></trkpt><trkpt lat="40.13089468202965" lon="9.211938079982849"><ele>653.0</ele><time>2026-04-28T06:56:10.992Z</time></trkpt><trkpt lat="40.13071198053402" lon="9.211913493727346"><ele>653.3333333333333</ele><time>2026-04-28T06:56:11.992Z</time></trkpt><trkpt lat="40.13052559193746" lon="9.211950747644039"><ele>653.6666666666666</ele><time>2026-04-28T06:56:12.992Z</time></trkpt><trkpt lat="40.13032382963327" lon="9.211990029272352"><ele>654.0</ele><time>2026-04-28T06:56:13.992Z</time></trkpt><trkpt lat="40.13013498460526" lon="9.212022745293702"><ele>654.0</ele><time>2026-04-28T06:56:14.992Z</time></trkpt><trkpt lat="40.12996669940866" lon="9.212045227970583"><ele>654.0</ele><time>2026-04-28T06:56:15.992Z</time></trkpt><trkpt lat="40.12982251844669" lon="9.212010946629865"><ele>654.0</ele><time>2026-04-28T06:56:16.992Z</time></trkpt><trkpt lat="40.12969224998764" lon="9.21190243858623"><ele>658.0</ele><time>2026-04-28T06:56:17.992Z</time></trkpt><trkpt lat="40.12956518148514" lon="9.211733556567198"><ele>662.0</ele><time>2026-04-28T06:56:18.992Z</time></trkpt><trkpt lat="40.12944315387383" lon="9.211545515366785"><ele>666.0</ele><time>2026-04-28T06:56:19.992Z</time></trkpt><trkpt lat="40.129313180490186" lon="9.211374013376155"><ele>666.0</ele><time>2026-04-28T06:56:20.992Z</time></trkpt><trkpt lat="40.12923132948645" lon="9.211168115940485"><ele>666.0</ele><time>2026-04-28T06:56:21.992Z</time></trkpt><trkpt lat="40.12921832244207" lon="9.210923113246489"><ele>666.0</ele><time>2026-04-28T06:56:22.992Z</time></trkpt><trkpt lat="40.12923336218962" lon="9.210682603320414"><ele>663.6666666666666</ele><time>2026-04-28T06:56:23.992Z</time></trkpt><trkpt lat="40.1292352650945" lon="9.210434376782567"><ele>661.3333333333333</ele><time>2026-04-28T06:56:24.992Z</time></trkpt><trkpt lat="40.129246227898705" lon="9.210192924892302"><ele>659.0</ele><time>2026-04-28T06:56:25.992Z</time></trkpt><trkpt lat="40.129211113375526" lon="9.209960464627763"><ele>659.0</ele><time>2026-04-28T06:56:26.992Z</time></trkpt><trkpt lat="40.12913398485736" lon="9.209748846200434"><ele>659.0</ele><time>2026-04-28T06:56:27.992Z</time></trkpt><trkpt lat="40.128994228295284" lon="9.209564932714525"><ele>659.0</ele><time>2026-04-28T06:56:28.992Z</time></trkpt><trkpt lat="40.12882648948827" lon="9.209454892083029"><ele>659.0</ele><time>2026-04-28T06:56:29.992Z</time></trkpt><trkpt lat="40.1286348646626" lon="9.209359952395097"><ele>659.0</ele><time>2026-04-28T06:56:30.992Z</time></trkpt><trkpt lat="40.12844662384977" lon="9.209275053204236"><ele>659.0</ele><time>2026-04-28T06:56:31.992Z</time></trkpt><trkpt lat="40.12825235663778" lon="9.209187360164394"><ele>662.6666666666666</ele><time>2026-04-28T06:56:32.992Z</time></trkpt><trkpt lat="40.128071330263005" lon="9.209065989321468"><ele>666.3333333333334</ele><time>2026-04-28T06:56:33.992Z</time></trkpt><trkpt lat="40.127884589672966" lon="9.208977752647598"><ele>670.0</ele><time>2026-04-28T06:56:34.992Z</time></trkpt><trkpt lat="40.127698814734366" lon="9.20888596397785"><ele>662.6666666666667</ele><time>2026-04-28T06:56:35.992Z</time></trkpt><trkpt lat="40.127512347794486" lon="9.208836001054516"><ele>655.3333333333334</ele><time>2026-04-28T06:56:36.992Z</time></trkpt><trkpt lat="40.127318824806196" lon="9.208841560371749"><ele>648.0</ele><time>2026-04-28T06:56:37.991Z</time></trkpt><trkpt lat="40.12712073314675" lon="9.208891005501359"><ele>646.0</ele><time>2026-04-28T06:56:38.991Z</time></trkpt><trkpt lat="40.126925227867254" lon="9.208967141740613"><ele>644.0</ele><time>2026-04-28T06:56:39.991Z</time></trkpt><trkpt lat="40.12673088977346" lon="9.209032362116393"><ele>642.0</ele><time>2026-04-28T06:56:40.991Z</time></trkpt><trkpt lat="40.12652952173959" lon="9.209086246332328"><ele>646.0</ele><time>2026-04-28T06:56:41.991Z</time></trkpt><trkpt lat="40.126326694905885" lon="9.209144665428155"><ele>650.0</ele><time>2026-04-28T06:56:42.991Z</time></trkpt><trkpt lat="40.126121626247716" lon="9.20919008773915"><ele>654.0</ele><time>2026-04-28T06:56:43.991Z</time></trkpt><trkpt lat="40.12592419131783" lon="9.209263359577218"><ele>654.0</ele><time>2026-04-28T06:56:44.991Z</time></trkpt><trkpt lat="40.12573383161083" lon="9.209368407987549"><ele>654.0</ele><time>2026-04-28T06:56:45.991Z</time></trkpt><trkpt lat="40.12554626053367" lon="9.209504315493309"><ele>654.0</ele><time>2026-04-28T06:56:46.991Z</time></trkpt><trkpt lat="40.12536547843331" lon="9.209646073746525"><ele>654.6666666666666</ele><time>2026-04-28T06:56:47.991Z</time></trkpt><trkpt lat="40.125180598041055" lon="9.209753225415728"><ele>655.3333333333333</ele><time>2026-04-28T06:56:48.991Z</time></trkpt><trkpt lat="40.1249891578503" lon="9.209849996986996"><ele>656.0</ele><time>2026-04-28T06:56:49.991Z</time></trkpt><trkpt lat="40.124787148849464" lon="9.209906823830948"><ele>656.0</ele><time>2026-04-28T06:56:50.991Z</time></trkpt><trkpt lat="40.124579515951424" lon="9.209938174616056"><ele>656.0</ele><time>2026-04-28T06:56:51.991Z</time></trkpt><trkpt lat="40.1243760070499" lon="9.209971774392752"><ele>656.0</ele><time>2026-04-28T06:56:52.991Z</time></trkpt><trkpt lat="40.124181226123454" lon="9.21002510660504"><ele>654.3333333333333</ele><time>2026-04-28T06:56:53.991Z</time></trkpt><trkpt lat="40.123998008982404" lon="9.210127000262176"><ele>652.6666666666666</ele><time>2026-04-28T06:56:54.991Z</time></trkpt><trkpt lat="40.123837563525655" lon="9.21027145800407"><ele>651.0</ele><time>2026-04-28T06:56:55.991Z</time></trkpt><trkpt lat="40.12368497898215" lon="9.210432537897809"><ele>651.0</ele><time>2026-04-28T06:56:56.991Z</time></trkpt><trkpt lat="40.12353209080712" lon="9.210612676688415"><ele>651.0</ele><time>2026-04-28T06:56:57.991Z</time></trkpt><trkpt lat="40.12337825184056" lon="9.210784754114574"><ele>651.0</ele><time>2026-04-28T06:56:58.991Z</time></trkpt><trkpt lat="40.12322551321635" lon="9.210936786463307"><ele>657.0</ele><time>2026-04-28T06:56:59.991Z</time></trkpt><trkpt lat="40.12308112852919" lon="9.211071557693517"><ele>663.0</ele><time>2026-04-28T06:57:00.991Z</time></trkpt><trkpt lat="40.12293583133757" lon="9.211152089270705"><ele>669.0</ele><time>2026-04-28T06:57:01.991Z</time></trkpt><trkpt lat="40.12278383529747" lon="9.211167301601177"><ele>669.0</ele><time>2026-04-28T06:57:02.991Z</time></trkpt><trkpt lat="40.122631519046145" lon="9.211106660624534"><ele>669.0</ele><time>2026-04-28T06:57:03.991Z</time></trkpt><trkpt lat="40.12249686613198" lon="9.210990589262416"><ele>669.0</ele><time>2026-04-28T06:57:04.991Z</time></trkpt><trkpt lat="40.12241406296545" lon="9.210799621612422"><ele>672.6666666666666</ele><time>2026-04-28T06:57:05.991Z</time></trkpt><trkpt lat="40.12237127593622" lon="9.21058532647004"><ele>676.3333333333333</ele><time>2026-04-28T06:57:06.991Z</time></trkpt><trkpt lat="40.12235687663181" lon="9.210354176481943"><ele>680.0</ele><time>2026-04-28T06:57:07.991Z</time></trkpt><trkpt lat="40.12233076569461" lon="9.210120777887564"><ele>680.0</ele><time>2026-04-28T06:57:08.991Z</time></trkpt><trkpt lat="40.12232482318532" lon="9.209886743535863"><ele>680.0</ele><time>2026-04-28T06:57:09.991Z</time></trkpt><trkpt lat="40.122287130401524" lon="9.209676649831787"><ele>680.0</ele><time>2026-04-28T06:57:10.991Z</time></trkpt><trkpt lat="40.122179313610594" lon="9.209493284157045"><ele>673.3333333333333</ele><time>2026-04-28T06:57:11.991Z</time></trkpt><trkpt lat="40.122018557892886" lon="9.209361726645215"><ele>666.6666666666666</ele><time>2026-04-28T06:57:12.991Z</time></trkpt><trkpt lat="40.12183445303075" lon="9.209293647297654"><ele>660.0</ele><time>2026-04-28T06:57:13.991Z</time></trkpt><trkpt lat="40.12164862935974" lon="9.2092342386749"><ele>657.6666666666666</ele><time>2026-04-28T06:57:14.991Z</time></trkpt><trkpt lat="40.12147046796297" lon="9.209150467444854"><ele>655.3333333333333</ele><time>2026-04-28T06:57:15.991Z</time></trkpt><trkpt lat="40.12128253856937" lon="9.209060688928178"><ele>653.0</ele><time>2026-04-28T06:57:16.991Z</time></trkpt><trkpt lat="40.12110429616596" lon="9.208945270979"><ele>653.0</ele><time>2026-04-28T06:57:17.991Z</time></trkpt><trkpt lat="40.12093033077459" lon="9.208853610184773"><ele>653.0</ele><time>2026-04-28T06:57:18.991Z</time></trkpt><trkpt lat="40.12073947747936" lon="9.208753189915816"><ele>653.0</ele><time>2026-04-28T06:57:19.991Z</time></trkpt><trkpt lat="40.120555248107976" lon="9.208656672041899"><ele>655.6666666666666</ele><time>2026-04-28T06:57:20.991Z</time></trkpt><trkpt lat="40.120363466914604" lon="9.208578167307863"><ele>658.3333333333334</ele><time>2026-04-28T06:57:21.991Z</time></trkpt><trkpt lat="40.1201820393025" lon="9.208467770148713"><ele>661.0</ele><time>2026-04-28T06:57:22.991Z</time></trkpt><trkpt lat="40.11999145716527" lon="9.20839447562429"><ele>660.6666666666667</ele><time>2026-04-28T06:57:23.991Z</time></trkpt><trkpt lat="40.11981162775682" lon="9.208343278361133"><ele>660.3333333333334</ele><time>2026-04-28T06:57:24.991Z</time></trkpt><trkpt lat="40.119646277219125" lon="9.208319502508095"><ele>660.0</ele><time>2026-04-28T06:57:25.991Z</time></trkpt><trkpt lat="40.11949378758948" lon="9.208312094644034"><ele>660.0</ele><time>2026-04-28T06:57:26.991Z</time></trkpt><trkpt lat="40.119370350748575" lon="9.208295035974926"><ele>660.0</ele><time>2026-04-28T06:57:27.991Z</time></trkpt><trkpt lat="40.1192833762551" lon="9.208240940435811"><ele>660.0</ele><time>2026-04-28T06:57:28.991Z</time></trkpt><trkpt lat="40.119215317426644" lon="9.208204480066849"><ele>660.0</ele><time>2026-04-28T06:57:29.991Z</time></trkpt><trkpt lat="40.119087240590005" lon="9.208361057645691"><ele>657.8</ele><time>2026-04-28T06:57:31.991Z</time></trkpt><trkpt lat="40.119045268459374" lon="9.20847002503038"><ele>655.6</ele><time>2026-04-28T06:57:32.991Z</time></trkpt><trkpt lat="40.118997817160675" lon="9.208594828968035"><ele>653.4000000000001</ele><time>2026-04-28T06:57:33.991Z</time></trkpt><trkpt lat="40.11892996894861" lon="9.208727499968624"><ele>651.2</ele><time>2026-04-28T06:57:34.991Z</time></trkpt><trkpt lat="40.118859710628996" lon="9.208857347479475"><ele>649.0</ele><time>2026-04-28T06:57:35.991Z</time></trkpt><trkpt lat="40.11878473842824" lon="9.208989986747934"><ele>650.0</ele><time>2026-04-28T06:57:36.991Z</time></trkpt><trkpt lat="40.118708263541436" lon="9.209119742854854"><ele>651.0</ele><time>2026-04-28T06:57:37.991Z</time></trkpt><trkpt lat="40.11863668974123" lon="9.209276157225922"><ele>652.0</ele><time>2026-04-28T06:57:38.991Z</time></trkpt><trkpt lat="40.11854658254078" lon="9.209416407826343"><ele>653.0</ele><time>2026-04-28T06:57:39.991Z</time></trkpt><trkpt lat="40.118464201906455" lon="9.209569825061106"><ele>653.0</ele><time>2026-04-28T06:57:40.991Z</time></trkpt><trkpt lat="40.11838253267748" lon="9.209720254348259"><ele>653.0</ele><time>2026-04-28T06:57:41.991Z</time></trkpt><trkpt lat="40.11830063878063" lon="9.209866025142754"><ele>653.0</ele><time>2026-04-28T06:57:42.991Z</time></trkpt><trkpt lat="40.11821053394631" lon="9.210009386702465"><ele>653.0</ele><time>2026-04-28T06:57:43.99Z</time></trkpt><trkpt lat="40.118112532404496" lon="9.210148432721743"><ele>653.3333333333333</ele><time>2026-04-28T06:57:44.99Z</time></trkpt><trkpt lat="40.118011330447686" lon="9.21029800949396"><ele>653.6666666666666</ele><time>2026-04-28T06:57:45.99Z</time></trkpt><trkpt lat="40.117902124489135" lon="9.210437257164438"><ele>654.0</ele><time>2026-04-28T06:57:46.99Z</time></trkpt><trkpt lat="40.11779825138705" lon="9.210579976270257"><ele>657.6666666666666</ele><time>2026-04-28T06:57:47.99Z</time></trkpt><trkpt lat="40.117693690848554" lon="9.210729869993509"><ele>661.3333333333333</ele><time>2026-04-28T06:57:48.99Z</time></trkpt><trkpt lat="40.11761730568791" lon="9.21090701144471"><ele>665.0</ele><time>2026-04-28T06:57:49.99Z</time></trkpt><trkpt lat="40.11757011147791" lon="9.211090524677966"><ele>665.0</ele><time>2026-04-28T06:57:50.99Z</time></trkpt><trkpt lat="40.117566516367496" lon="9.211300223514195"><ele>665.0</ele><time>2026-04-28T06:57:51.99Z</time></trkpt><trkpt lat="40.1176115919637" lon="9.211499546584964"><ele>665.0</ele><time>2026-04-28T06:57:52.99Z</time></trkpt><trkpt lat="40.11769139064393" lon="9.21170313599633"><ele>665.6666666666666</ele><time>2026-04-28T06:57:53.99Z</time></trkpt><trkpt lat="40.117789301340146" lon="9.211876089979116"><ele>666.3333333333334</ele><time>2026-04-28T06:57:54.99Z</time></trkpt><trkpt lat="40.11789275057805" lon="9.212054402329452"><ele>667.0</ele><time>2026-04-28T06:57:55.99Z</time></trkpt><trkpt lat="40.11798786142465" lon="9.21224345147131"><ele>666.0</ele><time>2026-04-28T06:57:56.99Z</time></trkpt><trkpt lat="40.11808071303244" lon="9.212429324892762"><ele>665.0</ele><time>2026-04-28T06:57:57.99Z</time></trkpt><trkpt lat="40.118168536478585" lon="9.212601638789623"><ele>664.0</ele><time>2026-04-28T06:57:58.99Z</time></trkpt><trkpt lat="40.11823228965144" lon="9.212790108277195"><ele>664.0</ele><time>2026-04-28T06:57:59.99Z</time></trkpt><trkpt lat="40.11822815414614" lon="9.212998032012557"><ele>664.0</ele><time>2026-04-28T06:58:00.99Z</time></trkpt><trkpt lat="40.118204090861965" lon="9.213193652157539"><ele>664.0</ele><time>2026-04-28T06:58:01.99Z</time></trkpt><trkpt lat="40.11815020020717" lon="9.213377196778598"><ele>666.0</ele><time>2026-04-28T06:58:02.99Z</time></trkpt><trkpt lat="40.118050180219115" lon="9.213530709222047"><ele>668.0</ele><time>2026-04-28T06:58:03.99Z</time></trkpt><trkpt lat="40.11793289771965" lon="9.21368330572593"><ele>670.0</ele><time>2026-04-28T06:58:04.99Z</time></trkpt><trkpt lat="40.11780520638501" lon="9.213812721265958"><ele>670.0</ele><time>2026-04-28T06:58:05.99Z</time></trkpt><trkpt lat="40.11767017570324" lon="9.21392337025253"><ele>670.0</ele><time>2026-04-28T06:58:06.99Z</time></trkpt><trkpt lat="40.1175409443325" lon="9.214079121290196"><ele>670.0</ele><time>2026-04-28T06:58:07.99Z</time></trkpt><trkpt lat="40.11739454539504" lon="9.214220004447586"><ele>674.0</ele><time>2026-04-28T06:58:08.99Z</time></trkpt><trkpt lat="40.11725224041609" lon="9.214369343443963"><ele>678.0</ele><time>2026-04-28T06:58:09.99Z</time></trkpt><trkpt lat="40.117107038916274" lon="9.21452016008222"><ele>682.0</ele><time>2026-04-28T06:58:10.99Z</time></trkpt><trkpt lat="40.11694735762898" lon="9.214663144793006"><ele>682.0</ele><time>2026-04-28T06:58:11.99Z</time></trkpt><trkpt lat="40.116780361466326" lon="9.214792883214004"><ele>682.0</ele><time>2026-04-28T06:58:12.99Z</time></trkpt><trkpt lat="40.116613640202424" lon="9.214903475467597"><ele>682.0</ele><time>2026-04-28T06:58:13.99Z</time></trkpt><trkpt lat="40.11643950237769" lon="9.215021359111505"><ele>687.6666666666667</ele><time>2026-04-28T06:58:14.99Z</time></trkpt><trkpt lat="40.116272473517675" lon="9.215135990709621"><ele>693.3333333333334</ele><time>2026-04-28T06:58:15.99Z</time></trkpt><trkpt lat="40.11610650064635" lon="9.21525723930639"><ele>699.0</ele><time>2026-04-28T06:58:16.99Z</time></trkpt><trkpt lat="40.115944155636925" lon="9.21537565135823"><ele>699.0</ele><time>2026-04-28T06:58:17.99Z</time></trkpt><trkpt lat="40.11579826680455" lon="9.215489885624068"><ele>699.0</ele><time>2026-04-28T06:58:18.99Z</time></trkpt><trkpt lat="40.11568063712649" lon="9.215631552756413"><ele>699.0</ele><time>2026-04-28T06:58:19.99Z</time></trkpt><trkpt lat="40.11559929373551" lon="9.215806054623371"><ele>702.6666666666666</ele><time>2026-04-28T06:58:20.99Z</time></trkpt><trkpt lat="40.11554717317213" lon="9.216014831940338"><ele>706.3333333333333</ele><time>2026-04-28T06:58:21.99Z</time></trkpt><trkpt lat="40.11555995623718" lon="9.216228205428235"><ele>710.0</ele><time>2026-04-28T06:58:22.99Z</time></trkpt><trkpt lat="40.11556503314128" lon="9.21645283440098"><ele>711.0</ele><time>2026-04-28T06:58:23.99Z</time></trkpt><trkpt lat="40.11558886184426" lon="9.216689185878801"><ele>712.0</ele><time>2026-04-28T06:58:24.99Z</time></trkpt><trkpt lat="40.11562750179779" lon="9.216928056581935"><ele>713.0</ele><time>2026-04-28T06:58:25.99Z</time></trkpt><trkpt lat="40.11566958552493" lon="9.217190540925044"><ele>714.3333333333333</ele><time>2026-04-28T06:58:26.99Z</time></trkpt><trkpt lat="40.11570905759167" lon="9.217443764677778"><ele>715.6666666666666</ele><time>2026-04-28T06:58:27.99Z</time></trkpt><trkpt lat="40.11574423110646" lon="9.217703220741019"><ele>717.0</ele><time>2026-04-28T06:58:28.99Z</time></trkpt><trkpt lat="40.11577704032577" lon="9.217963813455482"><ele>716.6666666666666</ele><time>2026-04-28T06:58:29.99Z</time></trkpt><trkpt lat="40.115784497313356" lon="9.218226368247684"><ele>716.3333333333333</ele><time>2026-04-28T06:58:30.99Z</time></trkpt><trkpt lat="40.11580919709799" lon="9.218493030445936"><ele>716.0</ele><time>2026-04-28T06:58:31.99Z</time></trkpt><trkpt lat="40.11585429480896" lon="9.218754393166114"><ele>715.6666666666666</ele><time>2026-04-28T06:58:32.99Z</time></trkpt><trkpt lat="40.11591753456186" lon="9.21901500162302"><ele>715.3333333333334</ele><time>2026-04-28T06:58:33.99Z</time></trkpt><trkpt lat="40.11598991879976" lon="9.219273000494928"><ele>715.0</ele><time>2026-04-28T06:58:34.99Z</time></trkpt><trkpt lat="40.11608246976386" lon="9.219521665768227"><ele>715.0</ele><time>2026-04-28T06:58:35.99Z</time></trkpt><trkpt lat="40.1161738873135" lon="9.219759502323418"><ele>715.0</ele><time>2026-04-28T06:58:36.99Z</time></trkpt><trkpt lat="40.11627959603665" lon="9.219989732960006"><ele>715.0</ele><time>2026-04-28T06:58:37.99Z</time></trkpt><trkpt lat="40.11638718370921" lon="9.220214990300336"><ele>715.6666666666667</ele><time>2026-04-28T06:58:38.99Z</time></trkpt><trkpt lat="40.116502726788276" lon="9.220432480801977"><ele>716.3333333333334</ele><time>2026-04-28T06:58:39.99Z</time></trkpt><trkpt lat="40.11661741865158" lon="9.220662044266703"><ele>717.0</ele><time>2026-04-28T06:58:40.99Z</time></trkpt><trkpt lat="40.11672818392642" lon="9.22088370904858"><ele>719.3333333333334</ele><time>2026-04-28T06:58:41.99Z</time></trkpt><trkpt lat="40.11684260477612" lon="9.221086804436293"><ele>721.6666666666667</ele><time>2026-04-28T06:58:42.99Z</time></trkpt><trkpt lat="40.1169690404027" lon="9.221274740757076"><ele>724.0</ele><time>2026-04-28T06:58:43.99Z</time></trkpt><trkpt lat="40.11711046437796" lon="9.22146225775188"><ele>725.0</ele><time>2026-04-28T06:58:44.99Z</time></trkpt><trkpt lat="40.11725817336322" lon="9.221639968290038"><ele>726.0</ele><time>2026-04-28T06:58:45.99Z</time></trkpt><trkpt lat="40.11740952558123" lon="9.221827873048163"><ele>727.0</ele><time>2026-04-28T06:58:46.99Z</time></trkpt><trkpt lat="40.11755357617233" lon="9.22202819626776"><ele>730.3333333333334</ele><time>2026-04-28T06:58:47.99Z</time></trkpt><trkpt lat="40.117688062938534" lon="9.222247682360793"><ele>733.6666666666666</ele><time>2026-04-28T06:58:48.99Z</time></trkpt><trkpt lat="40.11781252635987" lon="9.222461896598166"><ele>737.0</ele><time>2026-04-28T06:58:49.99Z</time></trkpt><trkpt lat="40.117932163177954" lon="9.222683735000672"><ele>737.3333333333333</ele><time>2026-04-28T06:58:50.989Z</time></trkpt><trkpt lat="40.118053991873495" lon="9.222912311298717"><ele>737.6666666666666</ele><time>2026-04-28T06:58:51.989Z</time></trkpt><trkpt lat="40.11817732371751" lon="9.223136023749802"><ele>738.0</ele><time>2026-04-28T06:58:52.989Z</time></trkpt><trkpt lat="40.11829519790028" lon="9.223360185935402"><ele>740.0</ele><time>2026-04-28T06:58:53.989Z</time></trkpt><trkpt lat="40.11841890227816" lon="9.22358826721444"><ele>742.0</ele><time>2026-04-28T06:58:54.989Z</time></trkpt><trkpt lat="40.11853896399369" lon="9.223815316828096"><ele>744.0</ele><time>2026-04-28T06:58:55.989Z</time></trkpt><trkpt lat="40.11866159465407" lon="9.22404690236472"><ele>744.0</ele><time>2026-04-28T06:58:56.989Z</time></trkpt><trkpt lat="40.11878679979414" lon="9.224274343833654"><ele>744.0</ele><time>2026-04-28T06:58:57.989Z</time></trkpt><trkpt lat="40.11891010037804" lon="9.224502964891826"><ele>744.0</ele><time>2026-04-28T06:58:58.989Z</time></trkpt><trkpt lat="40.11903471557201" lon="9.224733692209018"><ele>746.6666666666666</ele><time>2026-04-28T06:58:59.989Z</time></trkpt><trkpt lat="40.11914914278725" lon="9.224954865510615"><ele>749.3333333333333</ele><time>2026-04-28T06:59:00.989Z</time></trkpt><trkpt lat="40.11928092602696" lon="9.225162377728443"><ele>752.0</ele><time>2026-04-28T06:59:01.989Z</time></trkpt><trkpt lat="40.11940436962175" lon="9.225385992380405"><ele>752.0</ele><time>2026-04-28T06:59:02.989Z</time></trkpt><trkpt lat="40.119526916561504" lon="9.225611058845725"><ele>752.0</ele><time>2026-04-28T06:59:03.989Z</time></trkpt><trkpt lat="40.11964895668334" lon="9.22583142644577"><ele>752.0</ele><time>2026-04-28T06:59:04.989Z</time></trkpt><trkpt lat="40.119766007837" lon="9.226057383585477"><ele>752.3333333333333</ele><time>2026-04-28T06:59:05.989Z</time></trkpt><trkpt lat="40.11987124994443" lon="9.226292765547948"><ele>752.6666666666666</ele><time>2026-04-28T06:59:06.989Z</time></trkpt><trkpt lat="40.11997000076459" lon="9.226528157174705"><ele>753.0</ele><time>2026-04-28T06:59:07.989Z</time></trkpt><trkpt lat="40.12007143682927" lon="9.22676237019899"><ele>756.0</ele><time>2026-04-28T06:59:08.989Z</time></trkpt><trkpt lat="40.120168200629756" lon="9.227001264751442"><ele>759.0</ele><time>2026-04-28T06:59:09.989Z</time></trkpt><trkpt lat="40.12026527175631" lon="9.22724129843998"><ele>762.0</ele><time>2026-04-28T06:59:10.989Z</time></trkpt><trkpt lat="40.12036268703293" lon="9.227474813412814"><ele>762.3333333333334</ele><time>2026-04-28T06:59:11.989Z</time></trkpt><trkpt lat="40.120458633272996" lon="9.22771191898558"><ele>762.6666666666667</ele><time>2026-04-28T06:59:12.989Z</time></trkpt><trkpt lat="40.120539100203096" lon="9.227954054402915"><ele>763.0</ele><time>2026-04-28T06:59:13.989Z</time></trkpt><trkpt lat="40.12059607777024" lon="9.228202079786755"><ele>764.3333333333334</ele><time>2026-04-28T06:59:14.989Z</time></trkpt><trkpt lat="40.12061395867582" lon="9.228465990774328"><ele>765.6666666666666</ele><time>2026-04-28T06:59:15.989Z</time></trkpt><trkpt lat="40.12060146519422" lon="9.228717269046923"><ele>767.0</ele><time>2026-04-28T06:59:16.989Z</time></trkpt><trkpt lat="40.12056166477876" lon="9.2289650897458"><ele>768.6666666666666</ele><time>2026-04-28T06:59:17.989Z</time></trkpt><trkpt lat="40.120534698451266" lon="9.229209645492448"><ele>770.3333333333333</ele><time>2026-04-28T06:59:18.989Z</time></trkpt><trkpt lat="40.1205387025381" lon="9.229453090327885"><ele>772.0</ele><time>2026-04-28T06:59:19.989Z</time></trkpt><trkpt lat="40.120563790614014" lon="9.229700815312045"><ele>772.6666666666666</ele><time>2026-04-28T06:59:20.989Z</time></trkpt><trkpt lat="40.12060572029848" lon="9.229950640567267"><ele>773.3333333333333</ele><time>2026-04-28T06:59:21.989Z</time></trkpt><trkpt lat="40.12066074557701" lon="9.230193098396533"><ele>774.0</ele><time>2026-04-28T06:59:22.989Z</time></trkpt><trkpt lat="40.12070958112575" lon="9.23041458871376"><ele>774.0</ele><time>2026-04-28T06:59:23.989Z</time></trkpt><trkpt lat="40.12071978146369" lon="9.230598842152986"><ele>774.0</ele><time>2026-04-28T06:59:24.989Z</time></trkpt><trkpt lat="40.12066850051151" lon="9.230746882575751"><ele>774.0</ele><time>2026-04-28T06:59:25.989Z</time></trkpt><trkpt lat="40.1205703595873" lon="9.230866734522962"><ele>774.0</ele><time>2026-04-28T06:59:26.989Z</time></trkpt><trkpt lat="40.12045528306399" lon="9.230950119295917"><ele>775.5</ele><time>2026-04-28T06:59:27.989Z</time></trkpt><trkpt lat="40.12035771088098" lon="9.231080214651225"><ele>777.0</ele><time>2026-04-28T06:59:28.989Z</time></trkpt><trkpt lat="40.12032179028186" lon="9.231255732875335"><ele>778.5</ele><time>2026-04-28T06:59:29.989Z</time></trkpt><trkpt lat="40.12034377107115" lon="9.231451911592298"><ele>780.0</ele><time>2026-04-28T06:59:30.989Z</time></trkpt><trkpt lat="40.12040353311091" lon="9.231638217831957"><ele>782.6666666666667</ele><time>2026-04-28T06:59:31.989Z</time></trkpt><trkpt lat="40.1204796718716" lon="9.231818562008215"><ele>785.3333333333334</ele><time>2026-04-28T06:59:32.989Z</time></trkpt><trkpt lat="40.12054966780217" lon="9.232003639551698"><ele>788.0</ele><time>2026-04-28T06:59:33.989Z</time></trkpt><trkpt lat="40.120609279726885" lon="9.232201884431191"><ele>791.0</ele><time>2026-04-28T06:59:34.989Z</time></trkpt><trkpt lat="40.120632496015766" lon="9.232406728100083"><ele>794.0</ele><time>2026-04-28T06:59:35.989Z</time></trkpt><trkpt lat="40.12062101896804" lon="9.232622040121273"><ele>797.0</ele><time>2026-04-28T06:59:36.989Z</time></trkpt><trkpt lat="40.1205833779685" lon="9.232832129646196"><ele>797.0</ele><time>2026-04-28T06:59:37.989Z</time></trkpt><trkpt lat="40.120550011133446" lon="9.233045306954478"><ele>797.0</ele><time>2026-04-28T06:59:38.989Z</time></trkpt><trkpt lat="40.120529821526965" lon="9.233266621057314"><ele>797.0</ele><time>2026-04-28T06:59:39.989Z</time></trkpt><trkpt lat="40.120526371892545" lon="9.23348406929719"><ele>798.6666666666667</ele><time>2026-04-28T06:59:40.989Z</time></trkpt><trkpt lat="40.120562167585426" lon="9.23368839788489"><ele>800.3333333333333</ele><time>2026-04-28T06:59:41.989Z</time></trkpt><trkpt lat="40.12060845943116" lon="9.233886621254692"><ele>802.0</ele><time>2026-04-28T06:59:42.989Z</time></trkpt><trkpt lat="40.12066001312439" lon="9.23408099615238"><ele>802.6666666666666</ele><time>2026-04-28T06:59:43.989Z</time></trkpt><trkpt lat="40.120730556326556" lon="9.234285995557931"><ele>803.3333333333333</ele><time>2026-04-28T06:59:44.989Z</time></trkpt><trkpt lat="40.12080461379365" lon="9.234506737477423"><ele>804.0</ele><time>2026-04-28T06:59:45.989Z</time></trkpt><trkpt lat="40.12088764992899" lon="9.23474237644757"><ele>805.6666666666667</ele><time>2026-04-28T06:59:46.989Z</time></trkpt><trkpt lat="40.12098717039641" lon="9.234978031542939"><ele>807.3333333333334</ele><time>2026-04-28T06:59:47.989Z</time></trkpt><trkpt lat="40.12105885361526" lon="9.23516977318661"><ele>809.0</ele><time>2026-04-28T06:59:48.989Z</time></trkpt><trkpt lat="40.12109970884314" lon="9.235323120086369"><ele>809.0</ele><time>2026-04-28T06:59:49.989Z</time></trkpt><trkpt lat="40.121084802368145" lon="9.235454268707265"><ele>809.0</ele><time>2026-04-28T06:59:50.989Z</time></trkpt><trkpt lat="40.121017927289664" lon="9.23555051282977"><ele>809.0</ele><time>2026-04-28T06:59:51.989Z</time></trkpt><trkpt lat="40.1209172937705" lon="9.235559325107968"><ele>809.0</ele><time>2026-04-28T06:59:52.989Z</time></trkpt><trkpt lat="40.120828789254475" lon="9.235481636136203"><ele>809.0</ele><time>2026-04-28T06:59:53.989Z</time></trkpt><trkpt lat="40.120783725117306" lon="9.235329216480583"><ele>809.0</ele><time>2026-04-28T06:59:54.989Z</time></trkpt><trkpt lat="40.120735965556484" lon="9.235176604449125"><ele>809.0</ele><time>2026-04-28T06:59:55.989Z</time></trkpt><trkpt lat="40.12066488271981" lon="9.235033835825279"><ele>809.0</ele><time>2026-04-28T06:59:56.989Z</time></trkpt><trkpt lat="40.12058109103448" lon="9.234916558724052"><ele>809.0</ele><time>2026-04-28T06:59:57.988Z</time></trkpt><trkpt lat="40.12046869188031" lon="9.234850726639694"><ele>811.3333333333334</ele><time>2026-04-28T06:59:58.988Z</time></trkpt><trkpt lat="40.12031387141183" lon="9.23483434116466"><ele>813.6666666666667</ele><time>2026-04-28T06:59:59.988Z</time></trkpt><trkpt lat="40.12015636478424" lon="9.23489006439863"><ele>816.0</ele><time>2026-04-28T07:00:00.988Z</time></trkpt><trkpt lat="40.11999101907212" lon="9.234927891356353"><ele>819.6666666666667</ele><time>2026-04-28T07:00:01.988Z</time></trkpt><trkpt lat="40.1198149502636" lon="9.234954374309588"><ele>823.3333333333334</ele><time>2026-04-28T07:00:02.988Z</time></trkpt><trkpt lat="40.119629236406276" lon="9.234974311959206"><ele>827.0</ele><time>2026-04-28T07:00:03.988Z</time></trkpt><trkpt lat="40.119447402261635" lon="9.23499920733172"><ele>827.0</ele><time>2026-04-28T07:00:04.988Z</time></trkpt><trkpt lat="40.119284018499805" lon="9.235002943363519"><ele>827.0</ele><time>2026-04-28T07:00:05.988Z</time></trkpt><trkpt lat="40.119130904717586" lon="9.23495366223587"><ele>827.0</ele><time>2026-04-28T07:00:06.988Z</time></trkpt><trkpt lat="40.11900451699308" lon="9.23482503371649"><ele>827.6666666666667</ele><time>2026-04-28T07:00:07.988Z</time></trkpt><trkpt lat="40.11889873150723" lon="9.23464591154094"><ele>828.3333333333333</ele><time>2026-04-28T07:00:08.988Z</time></trkpt><trkpt lat="40.118816991885694" lon="9.23446021850605"><ele>829.0</ele><time>2026-04-28T07:00:09.988Z</time></trkpt><trkpt lat="40.1187262842338" lon="9.234282930948439"><ele>829.0</ele><time>2026-04-28T07:00:10.988Z</time></trkpt><trkpt lat="40.11864525248705" lon="9.234139213401713"><ele>829.0</ele><time>2026-04-28T07:00:11.988Z</time></trkpt><trkpt lat="40.11857404909846" lon="9.23402795888236"><ele>829.0</ele><time>2026-04-28T07:00:12.988Z</time></trkpt><trkpt lat="40.11848899313202" lon="9.233962209909242"><ele>829.0</ele><time>2026-04-28T07:00:13.988Z</time></trkpt><trkpt lat="40.11838732836868" lon="9.233969305101784"><ele>829.0</ele><time>2026-04-28T07:00:14.988Z</time></trkpt><trkpt lat="40.11829503052303" lon="9.234055289244822"><ele>829.0</ele><time>2026-04-28T07:00:15.988Z</time></trkpt><trkpt lat="40.11825412002323" lon="9.234196526037607"><ele>829.0</ele><time>2026-04-28T07:00:16.988Z</time></trkpt><trkpt lat="40.11826753549368" lon="9.234364703804783"><ele>829.0</ele><time>2026-04-28T07:00:17.988Z</time></trkpt><trkpt lat="40.11833656949256" lon="9.234529632705465"><ele>829.0</ele><time>2026-04-28T07:00:18.988Z</time></trkpt><trkpt lat="40.11842662953376" lon="9.234692364504623"><ele>832.0</ele><time>2026-04-28T07:00:19.988Z</time></trkpt><trkpt lat="40.11850118605852" lon="9.234876981611334"><ele>835.0</ele><time>2026-04-28T07:00:20.988Z</time></trkpt><trkpt lat="40.11856958482119" lon="9.235046758603444"><ele>838.0</ele><time>2026-04-28T07:00:21.988Z</time></trkpt><trkpt lat="40.11862992436081" lon="9.235208521416135"><ele>841.0</ele><time>2026-04-28T07:00:22.988Z</time></trkpt><trkpt lat="40.11871110149085" lon="9.235367433478519"><ele>841.0</ele><time>2026-04-28T07:00:23.988Z</time></trkpt><trkpt lat="40.11881222128934" lon="9.235509091240814"><ele>841.0</ele><time>2026-04-28T07:00:24.988Z</time></trkpt><trkpt lat="40.118937542966684" lon="9.235603432751141"><ele>841.0</ele><time>2026-04-28T07:00:25.988Z</time></trkpt><trkpt lat="40.11906612046945" lon="9.235659372647733"><ele>841.0</ele><time>2026-04-28T07:00:26.988Z</time></trkpt><trkpt lat="40.1191681798998" lon="9.235745142135736"><ele>840.25</ele><time>2026-04-28T07:00:27.988Z</time></trkpt><trkpt lat="40.11923979184311" lon="9.235889463340781"><ele>839.5</ele><time>2026-04-28T07:00:28.988Z</time></trkpt><trkpt lat="40.11928731946633" lon="9.236054124608991"><ele>838.75</ele><time>2026-04-28T07:00:29.988Z</time></trkpt><trkpt lat="40.119322066505575" lon="9.236199459864892"><ele>838.0</ele><time>2026-04-28T07:00:30.988Z</time></trkpt><trkpt lat="40.11935945279246" lon="9.236337162814044"><ele>838.0</ele><time>2026-04-28T07:00:31.988Z</time></trkpt><trkpt lat="40.11939171766396" lon="9.236469131381998"><ele>838.0</ele><time>2026-04-28T07:00:32.988Z</time></trkpt><trkpt lat="40.11940916117722" lon="9.236605925135708"><ele>838.0</ele><time>2026-04-28T07:00:33.988Z</time></trkpt><trkpt lat="40.11938526120782" lon="9.236742866912154"><ele>838.0</ele><time>2026-04-28T07:00:34.988Z</time></trkpt><trkpt lat="40.11929299636833" lon="9.236847399678515"><ele>838.0</ele><time>2026-04-28T07:00:35.988Z</time></trkpt><trkpt lat="40.119197242667475" lon="9.236940811976053"><ele>839.5999999999999</ele><time>2026-04-28T07:00:36.988Z</time></trkpt><trkpt lat="40.119091977800736" lon="9.236998445353187"><ele>841.1999999999999</ele><time>2026-04-28T07:00:37.988Z</time></trkpt><trkpt lat="40.11898727391329" lon="9.237047641667477"><ele>842.8</ele><time>2026-04-28T07:00:38.988Z</time></trkpt><trkpt lat="40.11888414245612" lon="9.237102620447175"><ele>844.4</ele><time>2026-04-28T07:00:39.988Z</time></trkpt><trkpt lat="40.11879580160561" lon="9.237165221137781"><ele>846.0</ele><time>2026-04-28T07:00:40.988Z</time></trkpt><trkpt lat="40.118728787749376" lon="9.237243921500276"><ele>849.4</ele><time>2026-04-28T07:00:41.988Z</time></trkpt><trkpt lat="40.118685611594586" lon="9.23734130074595"><ele>852.8</ele><time>2026-04-28T07:00:42.988Z</time></trkpt><trkpt lat="40.1186896013318" lon="9.237456709062387"><ele>856.1999999999999</ele><time>2026-04-28T07:00:43.988Z</time></trkpt><trkpt lat="40.11875525661368" lon="9.237586360281965"><ele>859.5999999999999</ele><time>2026-04-28T07:00:44.988Z</time></trkpt><trkpt lat="40.11885767098365" lon="9.237653485009513"><ele>863.0</ele><time>2026-04-28T07:00:45.988Z</time></trkpt><trkpt lat="40.11900553026961" lon="9.237662448108601"><ele>858.3333333333334</ele><time>2026-04-28T07:00:46.988Z</time></trkpt><trkpt lat="40.119180552925535" lon="9.23765995849152"><ele>853.6666666666667</ele><time>2026-04-28T07:00:47.988Z</time></trkpt><trkpt lat="40.11935977408587" lon="9.237697683841477"><ele>849.0</ele><time>2026-04-28T07:00:48.988Z</time></trkpt><trkpt lat="40.11952669487879" lon="9.23775908263095"><ele>849.0</ele><time>2026-04-28T07:00:49.988Z</time></trkpt><trkpt lat="40.11970004151499" lon="9.237845767399865"><ele>849.0</ele><time>2026-04-28T07:00:50.988Z</time></trkpt><trkpt lat="40.11986201355756" lon="9.23797269651136"><ele>849.0</ele><time>2026-04-28T07:00:51.988Z</time></trkpt><trkpt lat="40.120023720993835" lon="9.238117421335398"><ele>853.6666666666667</ele><time>2026-04-28T07:00:52.988Z</time></trkpt><trkpt lat="40.120181676996715" lon="9.238260619583071"><ele>858.3333333333334</ele><time>2026-04-28T07:00:53.988Z</time></trkpt><trkpt lat="40.12034672765849" lon="9.238406309242576"><ele>863.0</ele><time>2026-04-28T07:00:54.988Z</time></trkpt><trkpt lat="40.12050906063621" lon="9.238553879714216"><ele>863.0</ele><time>2026-04-28T07:00:55.988Z</time></trkpt><trkpt lat="40.120669096675385" lon="9.238703365927044"><ele>863.0</ele><time>2026-04-28T07:00:56.988Z</time></trkpt><trkpt lat="40.120820115896365" lon="9.238857403817628"><ele>863.0</ele><time>2026-04-28T07:00:57.988Z</time></trkpt><trkpt lat="40.12096683402068" lon="9.239004222169646"><ele>867.0</ele><time>2026-04-28T07:00:58.988Z</time></trkpt><trkpt lat="40.121110910724944" lon="9.239168397453678"><ele>871.0</ele><time>2026-04-28T07:00:59.988Z</time></trkpt><trkpt lat="40.12126124054589" lon="9.239325536748078"><ele>875.0</ele><time>2026-04-28T07:01:00.988Z</time></trkpt><trkpt lat="40.12140209729386" lon="9.239483292010242"><ele>875.0</ele><time>2026-04-28T07:01:01.988Z</time></trkpt><trkpt lat="40.121547877898124" lon="9.239627131529858"><ele>875.0</ele><time>2026-04-28T07:01:02.988Z</time></trkpt><trkpt lat="40.12169964684841" lon="9.239757791796047"><ele>875.0</ele><time>2026-04-28T07:01:03.987Z</time></trkpt><trkpt lat="40.12186266113554" lon="9.239882872432693"><ele>877.0</ele><time>2026-04-28T07:01:04.987Z</time></trkpt><trkpt lat="40.122029163202896" lon="9.239991706039998"><ele>879.0</ele><time>2026-04-28T07:01:05.987Z</time></trkpt><trkpt lat="40.122185600498135" lon="9.24010047434855"><ele>881.0</ele><time>2026-04-28T07:01:06.987Z</time></trkpt><trkpt lat="40.122323349351205" lon="9.240205399433773"><ele>881.5</ele><time>2026-04-28T07:01:07.987Z</time></trkpt><trkpt lat="40.12244766052556" lon="9.240304246622992"><ele>882.0</ele><time>2026-04-28T07:01:08.987Z</time></trkpt><trkpt lat="40.12253836758322" lon="9.240424661379373"><ele>882.5</ele><time>2026-04-28T07:01:09.987Z</time></trkpt><trkpt lat="40.12260375954568" lon="9.24058229082876"><ele>883.0</ele><time>2026-04-28T07:01:10.987Z</time></trkpt><trkpt lat="40.122637834940775" lon="9.240772259618549"><ele>883.0</ele><time>2026-04-28T07:01:11.987Z</time></trkpt><trkpt lat="40.12265382968001" lon="9.240958061056531"><ele>883.0</ele><time>2026-04-28T07:01:12.987Z</time></trkpt><trkpt lat="40.12269924486943" lon="9.241116041086814"><ele>883.0</ele><time>2026-04-28T07:01:13.987Z</time></trkpt><trkpt lat="40.12279659166921" lon="9.24122317533952"><ele>883.0</ele><time>2026-04-28T07:01:14.987Z</time></trkpt><trkpt lat="40.12293013042626" lon="9.241260607043293"><ele>883.0</ele><time>2026-04-28T07:01:15.987Z</time></trkpt><trkpt lat="40.123074936661034" lon="9.241273574354961"><ele>883.0</ele><time>2026-04-28T07:01:16.987Z</time></trkpt><trkpt lat="40.12322479461287" lon="9.241302942328117"><ele>883.0</ele><time>2026-04-28T07:01:17.987Z</time></trkpt><trkpt lat="40.12338017483682" lon="9.241341641919345"><ele>880.3333333333333</ele><time>2026-04-28T07:01:18.987Z</time></trkpt><trkpt lat="40.12353677141792" lon="9.241377285124054"><ele>877.6666666666667</ele><time>2026-04-28T07:01:19.987Z</time></trkpt><trkpt lat="40.12369726702702" lon="9.241416033239647"><ele>875.0</ele><time>2026-04-28T07:01:20.987Z</time></trkpt><trkpt lat="40.12385253671102" lon="9.241460603982937"><ele>877.3333333333334</ele><time>2026-04-28T07:01:21.987Z</time></trkpt><trkpt lat="40.124001080459166" lon="9.24148569495601"><ele>879.6666666666667</ele><time>2026-04-28T07:01:22.987Z</time></trkpt><trkpt lat="40.12414622874986" lon="9.241476043473252"><ele>882.0</ele><time>2026-04-28T07:01:23.987Z</time></trkpt><trkpt lat="40.12429770681433" lon="9.241426098675204"><ele>882.0</ele><time>2026-04-28T07:01:24.987Z</time></trkpt><trkpt lat="40.12444384036963" lon="9.241363083951478"><ele>882.0</ele><time>2026-04-28T07:01:25.987Z</time></trkpt><trkpt lat="40.12458439903513" lon="9.241306728649695"><ele>882.0</ele><time>2026-04-28T07:01:26.987Z</time></trkpt><trkpt lat="40.124725231852004" lon="9.241265668844708"><ele>882.0</ele><time>2026-04-28T07:01:27.987Z</time></trkpt><trkpt lat="40.124838608361685" lon="9.241197656074554"><ele>885.0</ele><time>2026-04-28T07:01:28.987Z</time></trkpt><trkpt lat="40.12491821148675" lon="9.241079562384419"><ele>888.0</ele><time>2026-04-28T07:01:29.987Z</time></trkpt><trkpt lat="40.12496412374903" lon="9.240920325538454"><ele>891.0</ele><time>2026-04-28T07:01:30.987Z</time></trkpt><trkpt lat="40.12500868831415" lon="9.240760664159465"><ele>894.0</ele><time>2026-04-28T07:01:31.987Z</time></trkpt><trkpt lat="40.12506142569637" lon="9.240646129575536"><ele>889.75</ele><time>2026-04-28T07:01:32.987Z</time></trkpt><trkpt lat="40.125133938153134" lon="9.240560990177363"><ele>885.5</ele><time>2026-04-28T07:01:33.987Z</time></trkpt><trkpt lat="40.12524172685015" lon="9.24053118703697"><ele>881.25</ele><time>2026-04-28T07:01:34.987Z</time></trkpt><trkpt lat="40.125374397858124" lon="9.240547857010778"><ele>877.0</ele><time>2026-04-28T07:01:35.987Z</time></trkpt><trkpt lat="40.12551551666041" lon="9.24058051101865"><ele>877.0</ele><time>2026-04-28T07:01:36.987Z</time></trkpt><trkpt lat="40.125636496941965" lon="9.240617960152353"><ele>877.0</ele><time>2026-04-28T07:01:37.987Z</time></trkpt><trkpt lat="40.12573555456788" lon="9.240678872688154"><ele>877.0</ele><time>2026-04-28T07:01:38.987Z</time></trkpt><trkpt lat="40.12579352122207" lon="9.240791190110853"><ele>877.0</ele><time>2026-04-28T07:01:39.987Z</time></trkpt><trkpt lat="40.12580215457011" lon="9.240928977097202"><ele>877.0</ele><time>2026-04-28T07:01:40.987Z</time></trkpt><trkpt lat="40.12574962140346" lon="9.241053943184115"><ele>881.25</ele><time>2026-04-28T07:01:41.987Z</time></trkpt><trkpt lat="40.125648889728836" lon="9.241128406278815"><ele>885.5</ele><time>2026-04-28T07:01:42.987Z</time></trkpt><trkpt lat="40.12552911263331" lon="9.24115335083766"><ele>889.75</ele><time>2026-04-28T07:01:43.987Z</time></trkpt><trkpt lat="40.12539627284015" lon="9.241137874963389"><ele>894.0</ele><time>2026-04-28T07:01:44.987Z</time></trkpt><trkpt lat="40.125263088431716" lon="9.241114435583844"><ele>894.0</ele><time>2026-04-28T07:01:45.987Z</time></trkpt><trkpt lat="40.125135736225396" lon="9.241136984712094"><ele>894.0</ele><time>2026-04-28T07:01:46.987Z</time></trkpt><trkpt lat="40.125031719099404" lon="9.241230886618853"><ele>894.0</ele><time>2026-04-28T07:01:47.987Z</time></trkpt><trkpt lat="40.12494105628964" lon="9.241393518924372"><ele>894.0</ele><time>2026-04-28T07:01:48.987Z</time></trkpt><trkpt lat="40.12485772269557" lon="9.241555629177894"><ele>895.0</ele><time>2026-04-28T07:01:49.987Z</time></trkpt><trkpt lat="40.124740018118615" lon="9.24168486068917"><ele>896.0</ele><time>2026-04-28T07:01:50.987Z</time></trkpt><trkpt lat="40.12460649721485" lon="9.241770292308981"><ele>897.0</ele><time>2026-04-28T07:01:51.987Z</time></trkpt><trkpt lat="40.12446534574435" lon="9.241859413398442"><ele>897.0</ele><time>2026-04-28T07:01:52.987Z</time></trkpt><trkpt lat="40.12431708220297" lon="9.241954209972446"><ele>897.0</ele><time>2026-04-28T07:01:53.987Z</time></trkpt><trkpt lat="40.124160911124" lon="9.242053982847969"><ele>897.0</ele><time>2026-04-28T07:01:54.987Z</time></trkpt><trkpt lat="40.12400387987048" lon="9.242134162587623"><ele>895.6666666666667</ele><time>2026-04-28T07:01:55.987Z</time></trkpt><trkpt lat="40.12385499972187" lon="9.24220769646621"><ele>894.3333333333334</ele><time>2026-04-28T07:01:56.987Z</time></trkpt><trkpt lat="40.12370771643678" lon="9.242293251849345"><ele>893.0</ele><time>2026-04-28T07:01:57.987Z</time></trkpt><trkpt lat="40.12354766860333" lon="9.24237899925174"><ele>898.6666666666667</ele><time>2026-04-28T07:01:58.987Z</time></trkpt><trkpt lat="40.12338278261765" lon="9.24245026544833"><ele>904.3333333333333</ele><time>2026-04-28T07:01:59.987Z</time></trkpt><trkpt lat="40.12322816784026" lon="9.242515619936043"><ele>910.0</ele><time>2026-04-28T07:02:00.987Z</time></trkpt><trkpt lat="40.12306534358636" lon="9.24254766142838"><ele>910.6666666666666</ele><time>2026-04-28T07:02:01.987Z</time></trkpt><trkpt lat="40.12288816856289" lon="9.242538422582534"><ele>911.3333333333333</ele><time>2026-04-28T07:02:02.987Z</time></trkpt><trkpt lat="40.1227048399889" lon="9.242517058277484"><ele>912.0</ele><time>2026-04-28T07:02:03.987Z</time></trkpt><trkpt lat="40.122521347743685" lon="9.242495187481259"><ele>914.3333333333333</ele><time>2026-04-28T07:02:04.987Z</time></trkpt><trkpt lat="40.12233728092904" lon="9.24247522321532"><ele>916.6666666666666</ele><time>2026-04-28T07:02:05.987Z</time></trkpt><trkpt lat="40.122153676331386" lon="9.242445261770238"><ele>919.0</ele><time>2026-04-28T07:02:06.987Z</time></trkpt><trkpt lat="40.12197369644683" lon="9.24239008531402"><ele>919.0</ele><time>2026-04-28T07:02:07.987Z</time></trkpt><trkpt lat="40.1217951946373" lon="9.242326701248828"><ele>919.0</ele><time>2026-04-28T07:02:08.987Z</time></trkpt><trkpt lat="40.12162040022415" lon="9.24225260572599"><ele>919.0</ele><time>2026-04-28T07:02:09.987Z</time></trkpt><trkpt lat="40.12144714892746" lon="9.242162000173836"><ele>921.3333333333333</ele><time>2026-04-28T07:02:10.986Z</time></trkpt><trkpt lat="40.12127485712544" lon="9.242055885566248"><ele>923.6666666666667</ele><time>2026-04-28T07:02:11.986Z</time></trkpt><trkpt lat="40.121109745323174" lon="9.241930411517417"><ele>926.0</ele><time>2026-04-28T07:02:12.986Z</time></trkpt><trkpt lat="40.12096730507082" lon="9.241807822571191"><ele>926.0</ele><time>2026-04-28T07:02:13.986Z</time></trkpt><trkpt lat="40.120848414846854" lon="9.241668916600867"><ele>926.0</ele><time>2026-04-28T07:02:14.986Z</time></trkpt><trkpt lat="40.12077698054362" lon="9.241512808256417"><ele>926.0</ele><time>2026-04-28T07:02:15.986Z</time></trkpt><trkpt lat="40.12070643743506" lon="9.241384806749194"><ele>926.0</ele><time>2026-04-28T07:02:16.986Z</time></trkpt><trkpt lat="40.12063315277353" lon="9.241306448690219"><ele>928.5999999999999</ele><time>2026-04-28T07:02:17.986Z</time></trkpt><trkpt lat="40.120546385884374" lon="9.241322037786578"><ele>931.1999999999999</ele><time>2026-04-28T07:02:18.986Z</time></trkpt><trkpt lat="40.12048783681553" lon="9.241426251661709"><ele>933.8000000000001</ele><time>2026-04-28T07:02:19.986Z</time></trkpt><trkpt lat="40.12048879995176" lon="9.241567428412457"><ele>936.4000000000001</ele><time>2026-04-28T07:02:20.986Z</time></trkpt><trkpt lat="40.12054830286325" lon="9.241715150429632"><ele>939.0</ele><time>2026-04-28T07:02:21.986Z</time></trkpt><trkpt lat="40.12063589105172" lon="9.241872512916869"><ele>938.3333333333333</ele><time>2026-04-28T07:02:22.986Z</time></trkpt><trkpt lat="40.12073229248276" lon="9.242036071298315"><ele>937.6666666666666</ele><time>2026-04-28T07:02:23.986Z</time></trkpt><trkpt lat="40.1208189698412" lon="9.242211593803095"><ele>937.0</ele><time>2026-04-28T07:02:24.986Z</time></trkpt><trkpt lat="40.12090277941339" lon="9.242377226514991"><ele>937.0</ele><time>2026-04-28T07:02:25.986Z</time></trkpt><trkpt lat="40.12098967713351" lon="9.242554662567784"><ele>937.0</ele><time>2026-04-28T07:02:26.986Z</time></trkpt><trkpt lat="40.1210821989437" lon="9.242735912875935"><ele>937.0</ele><time>2026-04-28T07:02:27.986Z</time></trkpt><trkpt lat="40.121170420879395" lon="9.242919836428918"><ele>937.0</ele><time>2026-04-28T07:02:28.986Z</time></trkpt><trkpt lat="40.12124798355295" lon="9.24308787498622"><ele>937.0</ele><time>2026-04-28T07:02:29.986Z</time></trkpt><trkpt lat="40.1213220133251" lon="9.243236984083717"><ele>937.0</ele><time>2026-04-28T07:02:30.986Z</time></trkpt><trkpt lat="40.12133469570904" lon="9.243378868190698"><ele>937.0</ele><time>2026-04-28T07:02:31.986Z</time></trkpt><trkpt lat="40.121292509814566" lon="9.243528580142772"><ele>939.6666666666666</ele><time>2026-04-28T07:02:32.986Z</time></trkpt><trkpt lat="40.121191788021676" lon="9.243672188759088"><ele>942.3333333333333</ele><time>2026-04-28T07:02:33.986Z</time></trkpt><trkpt lat="40.12107941012621" lon="9.24381133313309"><ele>945.0</ele><time>2026-04-28T07:02:34.986Z</time></trkpt><trkpt lat="40.12097128012149" lon="9.243961654981836"><ele>945.5</ele><time>2026-04-28T07:02:35.986Z</time></trkpt><trkpt lat="40.1208688506592" lon="9.244126714295664"><ele>946.0</ele><time>2026-04-28T07:02:36.986Z</time></trkpt><trkpt lat="40.12077641119327" lon="9.244281806152623"><ele>946.5</ele><time>2026-04-28T07:02:37.986Z</time></trkpt><trkpt lat="40.12072034332073" lon="9.244432024042782"><ele>947.0</ele><time>2026-04-28T07:02:38.986Z</time></trkpt><trkpt lat="40.120729275703205" lon="9.244616068506822"><ele>949.3333333333334</ele><time>2026-04-28T07:02:39.986Z</time></trkpt><trkpt lat="40.12076663466674" lon="9.24481158090457"><ele>951.6666666666667</ele><time>2026-04-28T07:02:40.986Z</time></trkpt><trkpt lat="40.12081689443561" lon="9.244998252390909"><ele>954.0</ele><time>2026-04-28T07:02:41.986Z</time></trkpt><trkpt lat="40.1208507472542" lon="9.245187620523543"><ele>954.0</ele><time>2026-04-28T07:02:42.986Z</time></trkpt><trkpt lat="40.12088526984798" lon="9.24536983676115"><ele>954.0</ele><time>2026-04-28T07:02:43.986Z</time></trkpt><trkpt lat="40.120915494437455" lon="9.24554988145378"><ele>954.0</ele><time>2026-04-28T07:02:44.986Z</time></trkpt><trkpt lat="40.12094810566937" lon="9.245709020930962"><ele>954.0</ele><time>2026-04-28T07:02:45.986Z</time></trkpt><trkpt lat="40.12094287359114" lon="9.245863342493983"><ele>954.75</ele><time>2026-04-28T07:02:46.986Z</time></trkpt><trkpt lat="40.12090524525109" lon="9.24602079145329"><ele>955.5</ele><time>2026-04-28T07:02:47.986Z</time></trkpt><trkpt lat="40.1208306165152" lon="9.246152123800462"><ele>956.25</ele><time>2026-04-28T07:02:48.986Z</time></trkpt><trkpt lat="40.120734703056236" lon="9.246257783415999"><ele>957.0</ele><time>2026-04-28T07:02:49.986Z</time></trkpt><trkpt lat="40.12062840721458" lon="9.246351933934942"><ele>958.5</ele><time>2026-04-28T07:02:50.986Z</time></trkpt><trkpt lat="40.12051449778832" lon="9.246441287646967"><ele>960.0</ele><time>2026-04-28T07:02:51.986Z</time></trkpt><trkpt lat="40.120398329682615" lon="9.246526375030701"><ele>961.5</ele><time>2026-04-28T07:02:52.986Z</time></trkpt><trkpt lat="40.120292448522605" lon="9.24662395469218"><ele>963.0</ele><time>2026-04-28T07:02:53.986Z</time></trkpt><trkpt lat="40.12017967994243" lon="9.246712602149815"><ele>963.0</ele><time>2026-04-28T07:02:54.986Z</time></trkpt><trkpt lat="40.120068566719304" lon="9.24680442107617"><ele>963.0</ele><time>2026-04-28T07:02:55.986Z</time></trkpt><trkpt lat="40.11995367125827" lon="9.246888879841928"><ele>963.0</ele><time>2026-04-28T07:02:56.986Z</time></trkpt><trkpt lat="40.119837502848654" lon="9.24697185517924"><ele>963.0</ele><time>2026-04-28T07:02:57.986Z</time></trkpt><trkpt lat="40.119724758279276" lon="9.247065546264436"><ele>967.25</ele><time>2026-04-28T07:02:58.986Z</time></trkpt><trkpt lat="40.119610665710475" lon="9.247131517568954"><ele>971.5</ele><time>2026-04-28T07:02:59.986Z</time></trkpt><trkpt lat="40.119487977107575" lon="9.247176732979181"><ele>975.75</ele><time>2026-04-28T07:03:00.986Z</time></trkpt><trkpt lat="40.119364081275755" lon="9.247197149544649"><ele>980.0</ele><time>2026-04-28T07:03:01.986Z</time></trkpt><trkpt lat="40.11924088039502" lon="9.247207356424369"><ele>980.0</ele><time>2026-04-28T07:03:02.986Z</time></trkpt><trkpt lat="40.119124253860164" lon="9.247211583866035"><ele>980.0</ele><time>2026-04-28T07:03:03.986Z</time></trkpt><trkpt lat="40.11901359289858" lon="9.247238619888364"><ele>980.0</ele><time>2026-04-28T07:03:04.986Z</time></trkpt><trkpt lat="40.11893488402817" lon="9.247318543488811"><ele>980.0</ele><time>2026-04-28T07:03:05.986Z</time></trkpt><trkpt lat="40.11888954289024" lon="9.247442108124288"><ele>980.0</ele><time>2026-04-28T07:03:06.986Z</time></trkpt><trkpt lat="40.11886180745854" lon="9.247570909839967"><ele>981.0</ele><time>2026-04-28T07:03:07.986Z</time></trkpt><trkpt lat="40.11883628153505" lon="9.247720485055387"><ele>982.0</ele><time>2026-04-28T07:03:08.986Z</time></trkpt><trkpt lat="40.11879580606245" lon="9.247855293850446"><ele>983.0</ele><time>2026-04-28T07:03:09.986Z</time></trkpt><trkpt lat="40.11875981572726" lon="9.247974084427062"><ele>984.0</ele><time>2026-04-28T07:03:10.986Z</time></trkpt><trkpt lat="40.11874040193648" lon="9.24811916888094"><ele>985.0</ele><time>2026-04-28T07:03:11.986Z</time></trkpt><trkpt lat="40.1187437097471" lon="9.248271087199406"><ele>985.0</ele><time>2026-04-28T07:03:12.986Z</time></trkpt><trkpt lat="40.11873445437241" lon="9.248419722720538"><ele>985.0</ele><time>2026-04-28T07:03:13.986Z</time></trkpt><trkpt lat="40.118726458578465" lon="9.248569088869571"><ele>985.0</ele><time>2026-04-28T07:03:14.986Z</time></trkpt><trkpt lat="40.11871872216309" lon="9.248723258338359"><ele>985.0</ele><time>2026-04-28T07:03:15.986Z</time></trkpt><trkpt lat="40.11870673531962" lon="9.248871984024088"><ele>984.6</ele><time>2026-04-28T07:03:16.985Z</time></trkpt><trkpt lat="40.118698689508435" lon="9.249021622028533"><ele>984.2</ele><time>2026-04-28T07:03:17.985Z</time></trkpt><trkpt lat="40.11869003885124" lon="9.249168217277731"><ele>983.8</ele><time>2026-04-28T07:03:18.985Z</time></trkpt><trkpt lat="40.11866525013038" lon="9.249308409385934"><ele>983.4</ele><time>2026-04-28T07:03:19.985Z</time></trkpt><trkpt lat="40.11862940780326" lon="9.249444446465361"><ele>983.0</ele><time>2026-04-28T07:03:20.985Z</time></trkpt><trkpt lat="40.118593586383426" lon="9.2495775500709"><ele>983.0</ele><time>2026-04-28T07:03:21.985Z</time></trkpt><trkpt lat="40.118538670867935" lon="9.249704033555563"><ele>983.0</ele><time>2026-04-28T07:03:22.985Z</time></trkpt><trkpt lat="40.11849412575989" lon="9.249824506777514"><ele>983.0</ele><time>2026-04-28T07:03:23.985Z</time></trkpt><trkpt lat="40.11844655758859" lon="9.249932319269925"><ele>983.0</ele><time>2026-04-28T07:03:24.985Z</time></trkpt><trkpt lat="40.11840652758017" lon="9.250037412608785"><ele>983.0</ele><time>2026-04-28T07:03:25.985Z</time></trkpt><trkpt lat="40.11839576386508" lon="9.250136650666473"><ele>983.4</ele><time>2026-04-28T07:03:26.985Z</time></trkpt><trkpt lat="40.11839625374693" lon="9.250323201033773"><ele>983.8</ele><time>2026-04-28T07:03:28.985Z</time></trkpt><trkpt lat="40.118511190229206" lon="9.250351353010267"><ele>984.2</ele><time>2026-04-28T07:03:32.985Z</time></trkpt><trkpt lat="40.118592514279655" lon="9.250353543772405"><ele>984.6</ele><time>2026-04-28T07:03:33.985Z</time></trkpt><trkpt lat="40.11868175319248" lon="9.250366186434142"><ele>985.0</ele><time>2026-04-28T07:03:34.985Z</time></trkpt><trkpt lat="40.11877555019188" lon="9.250387937255882"><ele>985.0</ele><time>2026-04-28T07:03:35.985Z</time></trkpt><trkpt lat="40.118873974186315" lon="9.250435011452241"><ele>985.0</ele><time>2026-04-28T07:03:36.985Z</time></trkpt><trkpt lat="40.1189673511549" lon="9.250488580481939"><ele>985.0</ele><time>2026-04-28T07:03:37.985Z</time></trkpt><trkpt lat="40.11907194138426" lon="9.250548484893834"><ele>985.0</ele><time>2026-04-28T07:03:38.985Z</time></trkpt><trkpt lat="40.11918260810792" lon="9.250608435536124"><ele>985.0</ele><time>2026-04-28T07:03:39.985Z</time></trkpt><trkpt lat="40.11928285339352" lon="9.250672784335237"><ele>983.75</ele><time>2026-04-28T07:03:40.985Z</time></trkpt><trkpt lat="40.119385462087685" lon="9.250758761709053"><ele>982.5</ele><time>2026-04-28T07:03:41.985Z</time></trkpt><trkpt lat="40.11948880554711" lon="9.250842712640534"><ele>981.25</ele><time>2026-04-28T07:03:42.985Z</time></trkpt><trkpt lat="40.119581295050246" lon="9.250927718343602"><ele>980.0</ele><time>2026-04-28T07:03:43.985Z</time></trkpt><trkpt lat="40.1196701304047" lon="9.251005986286351"><ele>980.0</ele><time>2026-04-28T07:03:44.985Z</time></trkpt><trkpt lat="40.11975336283299" lon="9.251068704338056"><ele>980.0</ele><time>2026-04-28T07:03:45.985Z</time></trkpt><trkpt lat="40.11981348145704" lon="9.251130660415747"><ele>980.0</ele><time>2026-04-28T07:03:46.985Z</time></trkpt><trkpt lat="40.11987901270611" lon="9.251171428519333"><ele>980.0</ele><time>2026-04-28T07:03:47.985Z</time></trkpt><trkpt lat="40.11996602653452" lon="9.251219632051757"><ele>980.0</ele><time>2026-04-28T07:03:48.985Z</time></trkpt><trkpt lat="40.12006147781454" lon="9.251299269403017"><ele>979.25</ele><time>2026-04-28T07:03:49.985Z</time></trkpt><trkpt lat="40.12015862028371" lon="9.251364934395026"><ele>978.5</ele><time>2026-04-28T07:03:50.985Z</time></trkpt><trkpt lat="40.12026071510918" lon="9.251435311261774"><ele>977.75</ele><time>2026-04-28T07:03:51.985Z</time></trkpt><trkpt lat="40.12036553468114" lon="9.251508802866688"><ele>977.0</ele><time>2026-04-28T07:03:52.985Z</time></trkpt><trkpt lat="40.120475803933715" lon="9.251572521012328"><ele>977.0</ele><time>2026-04-28T07:03:53.985Z</time></trkpt><trkpt lat="40.120582711382234" lon="9.251634368796752"><ele>977.0</ele><time>2026-04-28T07:03:54.985Z</time></trkpt><trkpt lat="40.120695398466665" lon="9.25167634192"><ele>977.0</ele><time>2026-04-28T07:03:55.985Z</time></trkpt><trkpt lat="40.12080541997992" lon="9.251721892945193"><ele>977.0</ele><time>2026-04-28T07:03:56.985Z</time></trkpt><trkpt lat="40.12091812044928" lon="9.25176453587489"><ele>974.25</ele><time>2026-04-28T07:03:57.985Z</time></trkpt><trkpt lat="40.12103277759155" lon="9.251805321607481"><ele>971.5</ele><time>2026-04-28T07:03:58.985Z</time></trkpt><trkpt lat="40.121149594013055" lon="9.251842764985408"><ele>968.75</ele><time>2026-04-28T07:03:59.985Z</time></trkpt><trkpt lat="40.12127157403035" lon="9.251878961084689"><ele>966.0</ele><time>2026-04-28T07:04:00.985Z</time></trkpt><trkpt lat="40.121391225507686" lon="9.25190929018709"><ele>966.0</ele><time>2026-04-28T07:04:01.985Z</time></trkpt><trkpt lat="40.121511110470756" lon="9.251923807005012"><ele>966.0</ele><time>2026-04-28T07:04:02.985Z</time></trkpt><trkpt lat="40.12162803245791" lon="9.251947593513334"><ele>966.0</ele><time>2026-04-28T07:04:03.985Z</time></trkpt><trkpt lat="40.12174360829373" lon="9.251974014790363"><ele>966.0</ele><time>2026-04-28T07:04:04.985Z</time></trkpt><trkpt lat="40.121857433730554" lon="9.25199849312103"><ele>964.75</ele><time>2026-04-28T07:04:05.985Z</time></trkpt><trkpt lat="40.12197309725148" lon="9.252035522262657"><ele>963.5</ele><time>2026-04-28T07:04:06.985Z</time></trkpt><trkpt lat="40.12209261853364" lon="9.252054418550355"><ele>962.25</ele><time>2026-04-28T07:04:07.985Z</time></trkpt><trkpt lat="40.12220964894121" lon="9.25208494826697"><ele>961.0</ele><time>2026-04-28T07:04:08.985Z</time></trkpt><trkpt lat="40.12232541107542" lon="9.252116668957067"><ele>960.1999999999999</ele><time>2026-04-28T07:04:09.985Z</time></trkpt><trkpt lat="40.12243543764028" lon="9.252146092252339"><ele>959.3999999999999</ele><time>2026-04-28T07:04:10.985Z</time></trkpt><trkpt lat="40.12253419550178" lon="9.252179838460256"><ele>958.6</ele><time>2026-04-28T07:04:11.985Z</time></trkpt><trkpt lat="40.122613597432675" lon="9.252236423833553"><ele>957.8</ele><time>2026-04-28T07:04:12.985Z</time></trkpt><trkpt lat="40.12264953381471" lon="9.252333509188833"><ele>957.0</ele><time>2026-04-28T07:04:13.985Z</time></trkpt><trkpt lat="40.12264828219684" lon="9.252453886762938"><ele>959.25</ele><time>2026-04-28T07:04:14.985Z</time></trkpt><trkpt lat="40.12265023894877" lon="9.252595655236966"><ele>961.5</ele><time>2026-04-28T07:04:15.985Z</time></trkpt><trkpt lat="40.12264341093854" lon="9.25274622340368"><ele>963.75</ele><time>2026-04-28T07:04:16.985Z</time></trkpt><trkpt lat="40.122638773339666" lon="9.25289656739157"><ele>966.0</ele><time>2026-04-28T07:04:17.985Z</time></trkpt><trkpt lat="40.12264339325518" lon="9.25305337794618"><ele>965.25</ele><time>2026-04-28T07:04:18.985Z</time></trkpt><trkpt lat="40.122645639414976" lon="9.253217116749761"><ele>964.5</ele><time>2026-04-28T07:04:19.985Z</time></trkpt><trkpt lat="40.12265011700192" lon="9.253376322104343"><ele>963.75</ele><time>2026-04-28T07:04:20.985Z</time></trkpt><trkpt lat="40.12264700715434" lon="9.253527259461718"><ele>963.0</ele><time>2026-04-28T07:04:21.985Z</time></trkpt><trkpt lat="40.122639202166205" lon="9.253672172979698"><ele>963.0</ele><time>2026-04-28T07:04:22.985Z</time></trkpt><trkpt lat="40.122613726608215" lon="9.253802044747529"><ele>963.0</ele><time>2026-04-28T07:04:23.984Z</time></trkpt><trkpt lat="40.12256164208172" lon="9.253920676986759"><ele>963.0</ele><time>2026-04-28T07:04:24.984Z</time></trkpt><trkpt lat="40.122494919527384" lon="9.254022813477269"><ele>963.0</ele><time>2026-04-28T07:04:25.984Z</time></trkpt><trkpt lat="40.12241332150552" lon="9.254108978842105"><ele>963.0</ele><time>2026-04-28T07:04:26.984Z</time></trkpt><trkpt lat="40.12232566945749" lon="9.254166022419271"><ele>962.2</ele><time>2026-04-28T07:04:27.984Z</time></trkpt><trkpt lat="40.122233640037145" lon="9.254191790348946"><ele>961.4</ele><time>2026-04-28T07:04:28.984Z</time></trkpt><trkpt lat="40.12212841392022" lon="9.254203698733255"><ele>960.6000000000001</ele><time>2026-04-28T07:04:29.984Z</time></trkpt><trkpt lat="40.12203198252307" lon="9.254218537255726"><ele>959.8000000000001</ele><time>2026-04-28T07:04:30.984Z</time></trkpt><trkpt lat="40.12192672821827" lon="9.254225369219782"><ele>959.0</ele><time>2026-04-28T07:04:31.984Z</time></trkpt><trkpt lat="40.12182000138983" lon="9.254227713921445"><ele>959.0</ele><time>2026-04-28T07:04:32.984Z</time></trkpt><trkpt lat="40.121716207367236" lon="9.254224996945682"><ele>959.0000000000001</ele><time>2026-04-28T07:04:33.984Z</time></trkpt><trkpt lat="40.12160887793832" lon="9.254186902811728"><ele>959.0000000000001</ele><time>2026-04-28T07:04:34.984Z</time></trkpt><trkpt lat="40.12150181395664" lon="9.254167155158573"><ele>959.0</ele><time>2026-04-28T07:04:35.984Z</time></trkpt><trkpt lat="40.12138655920571" lon="9.254149560053694"><ele>959.0</ele><time>2026-04-28T07:04:36.984Z</time></trkpt><trkpt lat="40.12127406683417" lon="9.25414079978781"><ele>959.1666666666667</ele><time>2026-04-28T07:04:37.984Z</time></trkpt><trkpt lat="40.121167492117955" lon="9.254123480854204"><ele>959.3333333333334</ele><time>2026-04-28T07:04:38.984Z</time></trkpt><trkpt lat="40.121073638681885" lon="9.254112552093744"><ele>959.5</ele><time>2026-04-28T07:04:39.984Z</time></trkpt><trkpt lat="40.120992322479346" lon="9.2540964423006"><ele>959.6666666666667</ele><time>2026-04-28T07:04:40.984Z</time></trkpt><trkpt lat="40.12092487561713" lon="9.254090623474308"><ele>959.8333333333334</ele><time>2026-04-28T07:04:41.984Z</time></trkpt><trkpt lat="40.12085534491701" lon="9.254074783593515"><ele>960.0</ele><time>2026-04-28T07:04:42.984Z</time></trkpt><trkpt lat="40.12076964933111" lon="9.254065037939887"><ele>959.8</ele><time>2026-04-28T07:04:43.984Z</time></trkpt><trkpt lat="40.12068082114776" lon="9.254036794569393"><ele>959.6</ele><time>2026-04-28T07:04:44.984Z</time></trkpt><trkpt lat="40.120592190774616" lon="9.254004129947846"><ele>959.4000000000001</ele><time>2026-04-28T07:04:45.984Z</time></trkpt><trkpt lat="40.1204923237549" lon="9.253983249046897"><ele>959.2</ele><time>2026-04-28T07:04:46.984Z</time></trkpt><trkpt lat="40.120395712063726" lon="9.253957607997675"><ele>959.0</ele><time>2026-04-28T07:04:47.984Z</time></trkpt><trkpt lat="40.12029906349834" lon="9.253937908879896"><ele>962.4000000000001</ele><time>2026-04-28T07:04:48.984Z</time></trkpt><trkpt lat="40.12020321345166" lon="9.2539202289122"><ele>965.8000000000001</ele><time>2026-04-28T07:04:49.984Z</time></trkpt><trkpt lat="40.1201021401338" lon="9.25391172697437"><ele>969.1999999999999</ele><time>2026-04-28T07:04:50.984Z</time></trkpt><trkpt lat="40.12000735509856" lon="9.253891797782455"><ele>972.5999999999999</ele><time>2026-04-28T07:04:51.984Z</time></trkpt><trkpt lat="40.11990606283229" lon="9.25391732678497"><ele>976.0</ele><time>2026-04-28T07:04:52.984Z</time></trkpt><trkpt lat="40.11979795880496" lon="9.253944992115285"><ele>976.5999999999999</ele><time>2026-04-28T07:04:53.984Z</time></trkpt><trkpt lat="40.11970889225211" lon="9.253946932299199"><ele>977.1999999999999</ele><time>2026-04-28T07:04:54.984Z</time></trkpt><trkpt lat="40.119608126405375" lon="9.253946076222585"><ele>977.8000000000001</ele><time>2026-04-28T07:04:55.984Z</time></trkpt><trkpt lat="40.11950675693007" lon="9.253951700858646"><ele>978.4000000000001</ele><time>2026-04-28T07:04:56.984Z</time></trkpt><trkpt lat="40.11939200883649" lon="9.253945919734752"><ele>979.0</ele><time>2026-04-28T07:04:57.984Z</time></trkpt><trkpt lat="40.11928296649434" lon="9.253947449184192"><ele>979.0</ele><time>2026-04-28T07:04:58.984Z</time></trkpt><trkpt lat="40.11916927281447" lon="9.253945899098449"><ele>979.0000000000001</ele><time>2026-04-28T07:04:59.984Z</time></trkpt><trkpt lat="40.11906284969124" lon="9.253940481194524"><ele>979.0000000000001</ele><time>2026-04-28T07:05:00.984Z</time></trkpt><trkpt lat="40.1189620288469" lon="9.25392927164371"><ele>979.0</ele><time>2026-04-28T07:05:01.984Z</time></trkpt><trkpt lat="40.11885963510815" lon="9.25393508898317"><ele>979.0</ele><time>2026-04-28T07:05:02.984Z</time></trkpt><trkpt lat="40.118755604380695" lon="9.253929560081033"><ele>978.4000000000001</ele><time>2026-04-28T07:05:03.984Z</time></trkpt><trkpt lat="40.11865440444335" lon="9.253930349775569"><ele>977.8000000000001</ele><time>2026-04-28T07:05:04.984Z</time></trkpt><trkpt lat="40.11856032943076" lon="9.253954037226809"><ele>977.1999999999999</ele><time>2026-04-28T07:05:05.984Z</time></trkpt><trkpt lat="40.118485462925754" lon="9.253975306053599"><ele>976.5999999999999</ele><time>2026-04-28T07:05:06.984Z</time></trkpt><trkpt lat="40.118378199239665" lon="9.253985188689976"><ele>976.0</ele><time>2026-04-28T07:05:08.984Z</time></trkpt><trkpt lat="40.118278113396116" lon="9.253980695527652"><ele>979.0</ele><time>2026-04-28T07:05:10.984Z</time></trkpt><trkpt lat="40.11817564879549" lon="9.254042262890007"><ele>981.9999999999999</ele><time>2026-04-28T07:05:12.984Z</time></trkpt><trkpt lat="40.11811029766734" lon="9.254154555930912"><ele>984.9999999999999</ele><time>2026-04-28T07:05:14.984Z</time></trkpt><trkpt lat="40.11806091979043" lon="9.254292049280407"><ele>988.0</ele><time>2026-04-28T07:05:16.984Z</time></trkpt><trkpt lat="40.118047133606694" lon="9.254378254105221"><ele>991.0</ele><time>2026-04-28T07:05:17.984Z</time></trkpt><trkpt lat="40.11797412890928" lon="9.254520340460628"><ele>991.0000000000001</ele><time>2026-04-28T07:05:19.984Z</time></trkpt><trkpt lat="40.11792888248907" lon="9.25458623652346"><ele>991.0</ele><time>2026-04-28T07:05:20.984Z</time></trkpt><trkpt lat="40.11788870045677" lon="9.254656909817836"><ele>991.0000000000001</ele><time>2026-04-28T07:05:21.984Z</time></trkpt><trkpt lat="40.11785509937079" lon="9.25473390169884"><ele>991.0000000000001</ele><time>2026-04-28T07:05:22.984Z</time></trkpt><trkpt lat="40.1178248081312" lon="9.254811986820217"><ele>991.0</ele><time>2026-04-28T07:05:23.984Z</time></trkpt><trkpt lat="40.117784577710246" lon="9.254886312451125"><ele>991.0000000000001</ele><time>2026-04-28T07:05:24.984Z</time></trkpt><trkpt lat="40.117754955743685" lon="9.254963617592837"><ele>991.0000000000001</ele><time>2026-04-28T07:05:25.984Z</time></trkpt><trkpt lat="40.1177090007944" lon="9.25503365523797"><ele>990.2857142857144</ele><time>2026-04-28T07:05:26.984Z</time></trkpt><trkpt lat="40.11765491980063" lon="9.255101779769118"><ele>989.5714285714287</ele><time>2026-04-28T07:05:27.984Z</time></trkpt><trkpt lat="40.11759639121063" lon="9.255165885498506"><ele>988.8571428571429</ele><time>2026-04-28T07:05:28.984Z</time></trkpt><trkpt lat="40.11755185735127" lon="9.25522949142534"><ele>988.1428571428572</ele><time>2026-04-28T07:05:29.984Z</time></trkpt><trkpt lat="40.117506409354554" lon="9.255304002403928"><ele>987.4285714285716</ele><time>2026-04-28T07:05:30.983Z</time></trkpt><trkpt lat="40.11747074413399" lon="9.255378155128948"><ele>986.7142857142857</ele><time>2026-04-28T07:05:31.983Z</time></trkpt><trkpt lat="40.11744156973049" lon="9.255464015981497"><ele>986.0</ele><time>2026-04-28T07:05:32.983Z</time></trkpt><trkpt lat="40.11736996476379" lon="9.25561046868664"><ele>985.6666666666667</ele><time>2026-04-28T07:05:34.983Z</time></trkpt><trkpt lat="40.11730987750101" lon="9.255686278262532"><ele>985.3333333333334</ele><time>2026-04-28T07:05:35.983Z</time></trkpt><trkpt lat="40.117250572021746" lon="9.255757886702428"><ele>985.0</ele><time>2026-04-28T07:05:36.983Z</time></trkpt><trkpt lat="40.1171846122246" lon="9.255836028091938"><ele>984.6666666666667</ele><time>2026-04-28T07:05:37.983Z</time></trkpt><trkpt lat="40.11710762944094" lon="9.255903065012271"><ele>984.3333333333334</ele><time>2026-04-28T07:05:38.983Z</time></trkpt><trkpt lat="40.11701811866901" lon="9.255949806956432"><ele>984.0</ele><time>2026-04-28T07:05:39.983Z</time></trkpt><trkpt lat="40.11692853830678" lon="9.255989945562968"><ele>984.0</ele><time>2026-04-28T07:05:40.983Z</time></trkpt><trkpt lat="40.116821820850866" lon="9.255996167210949"><ele>984.0000000000001</ele><time>2026-04-28T07:05:41.983Z</time></trkpt><trkpt lat="40.1167192985542" lon="9.255998560261526"><ele>984.0000000000001</ele><time>2026-04-28T07:05:42.983Z</time></trkpt><trkpt lat="40.116616173370176" lon="9.256007655138383"><ele>984.0</ele><time>2026-04-28T07:05:43.983Z</time></trkpt><trkpt lat="40.11651301067271" lon="9.256022168746995"><ele>984.0</ele><time>2026-04-28T07:05:44.983Z</time></trkpt><trkpt lat="40.1164165069395" lon="9.256035303242808"><ele>985.75</ele><time>2026-04-28T07:05:45.983Z</time></trkpt><trkpt lat="40.11630557494215" lon="9.256051678956124"><ele>987.5</ele><time>2026-04-28T07:05:46.983Z</time></trkpt><trkpt lat="40.116186955244025" lon="9.256071595026144"><ele>989.25</ele><time>2026-04-28T07:05:47.983Z</time></trkpt><trkpt lat="40.11608607712662" lon="9.256111343816045"><ele>991.0</ele><time>2026-04-28T07:05:48.983Z</time></trkpt><trkpt lat="40.11598340787394" lon="9.256186650364938"><ele>991.0</ele><time>2026-04-28T07:05:49.983Z</time></trkpt><trkpt lat="40.11589711593636" lon="9.256264438353272"><ele>991.0</ele><time>2026-04-28T07:05:50.983Z</time></trkpt><trkpt lat="40.11579583964402" lon="9.256340988851896"><ele>991.0</ele><time>2026-04-28T07:05:51.983Z</time></trkpt><trkpt lat="40.115698621113864" lon="9.256434166456843"><ele>991.0</ele><time>2026-04-28T07:05:52.983Z</time></trkpt><trkpt lat="40.11561166483059" lon="9.256516926647734"><ele>989.5999999999999</ele><time>2026-04-28T07:05:53.983Z</time></trkpt><trkpt lat="40.115529083689374" lon="9.256601363984895"><ele>988.1999999999999</ele><time>2026-04-28T07:05:54.983Z</time></trkpt><trkpt lat="40.11545242300451" lon="9.25668489858568"><ele>986.8000000000001</ele><time>2026-04-28T07:05:55.983Z</time></trkpt><trkpt lat="40.11536407562217" lon="9.25675436041903"><ele>985.4000000000001</ele><time>2026-04-28T07:05:56.983Z</time></trkpt><trkpt lat="40.11527877423797" lon="9.256822738526406"><ele>984.0</ele><time>2026-04-28T07:05:57.983Z</time></trkpt><trkpt lat="40.11520184767861" lon="9.256879060000617"><ele>984.0</ele><time>2026-04-28T07:05:58.983Z</time></trkpt><trkpt lat="40.11512461249156" lon="9.256909482982152"><ele>984.0</ele><time>2026-04-28T07:05:59.983Z</time></trkpt><trkpt lat="40.11506256603773" lon="9.256956586074164"><ele>984.0</ele><time>2026-04-28T07:06:00.983Z</time></trkpt><trkpt lat="40.11500290874854" lon="9.256983179865868"><ele>984.0</ele><time>2026-04-28T07:06:01.983Z</time></trkpt><trkpt lat="40.11494162291642" lon="9.257008379841634"><ele>984.0</ele><time>2026-04-28T07:06:02.983Z</time></trkpt><trkpt lat="40.11483457934732" lon="9.256992825958205"><ele>984.0</ele><time>2026-04-28T07:06:04.983Z</time></trkpt><trkpt lat="40.11477069310358" lon="9.256990879443807"><ele>984.3333333333334</ele><time>2026-04-28T07:06:05.983Z</time></trkpt><trkpt lat="40.114701700177264" lon="9.256990739697466"><ele>984.6666666666667</ele><time>2026-04-28T07:06:06.983Z</time></trkpt><trkpt lat="40.1146313930722" lon="9.256987157815454"><ele>985.0</ele><time>2026-04-28T07:06:07.983Z</time></trkpt><trkpt lat="40.114538267495796" lon="9.256990676812515"><ele>985.3333333333334</ele><time>2026-04-28T07:06:08.983Z</time></trkpt><trkpt lat="40.11443629293958" lon="9.257001445690824"><ele>985.6666666666667</ele><time>2026-04-28T07:06:09.983Z</time></trkpt><trkpt lat="40.11433154814566" lon="9.257032948037766"><ele>986.0</ele><time>2026-04-28T07:06:10.983Z</time></trkpt><trkpt lat="40.1142183617868" lon="9.257086804279473"><ele>986.0</ele><time>2026-04-28T07:06:11.983Z</time></trkpt><trkpt lat="40.11412251105589" lon="9.25717668395849"><ele>986.0</ele><time>2026-04-28T07:06:12.983Z</time></trkpt><trkpt lat="40.114023842058145" lon="9.257264740981226"><ele>986.0</ele><time>2026-04-28T07:06:13.983Z</time></trkpt><trkpt lat="40.113931158779636" lon="9.257348309880815"><ele>986.0</ele><time>2026-04-28T07:06:14.983Z</time></trkpt><trkpt lat="40.11383509823086" lon="9.257430357221432"><ele>985.0</ele><time>2026-04-28T07:06:15.983Z</time></trkpt><trkpt lat="40.11372943273549" lon="9.25749901251033"><ele>984.0</ele><time>2026-04-28T07:06:16.983Z</time></trkpt><trkpt lat="40.11362828900292" lon="9.257579829967504"><ele>983.0</ele><time>2026-04-28T07:06:17.983Z</time></trkpt><trkpt lat="40.113521711557766" lon="9.257626592708231"><ele>982.0</ele><time>2026-04-28T07:06:18.983Z</time></trkpt><trkpt lat="40.11342104761474" lon="9.25766528966875"><ele>982.0</ele><time>2026-04-28T07:06:19.983Z</time></trkpt><trkpt lat="40.113313777534295" lon="9.257699490084084"><ele>982.0</ele><time>2026-04-28T07:06:20.983Z</time></trkpt><trkpt lat="40.113204506561495" lon="9.2577213473939"><ele>982.0</ele><time>2026-04-28T07:06:21.983Z</time></trkpt><trkpt lat="40.11308621917416" lon="9.257746035622025"><ele>982.0</ele><time>2026-04-28T07:06:22.983Z</time></trkpt><trkpt lat="40.112966995177395" lon="9.257776408012889"><ele>984.5</ele><time>2026-04-28T07:06:23.983Z</time></trkpt><trkpt lat="40.11284025879657" lon="9.25780211946337"><ele>987.0</ele><time>2026-04-28T07:06:24.983Z</time></trkpt><trkpt lat="40.11271122394829" lon="9.257831389495486"><ele>989.5</ele><time>2026-04-28T07:06:25.983Z</time></trkpt><trkpt lat="40.112579685929624" lon="9.257855102289618"><ele>992.0</ele><time>2026-04-28T07:06:26.983Z</time></trkpt><trkpt lat="40.11244770588456" lon="9.257873857546802"><ele>995.25</ele><time>2026-04-28T07:06:27.983Z</time></trkpt><trkpt lat="40.11231538645342" lon="9.257879425428719"><ele>998.5</ele><time>2026-04-28T07:06:28.983Z</time></trkpt><trkpt lat="40.11217791706285" lon="9.25786212303191"><ele>1001.75</ele><time>2026-04-28T07:06:29.983Z</time></trkpt><trkpt lat="40.112033870548146" lon="9.257826268047284"><ele>1005.0</ele><time>2026-04-28T07:06:30.983Z</time></trkpt><trkpt lat="40.11188744744158" lon="9.257792154843978"><ele>1005.0</ele><time>2026-04-28T07:06:31.983Z</time></trkpt><trkpt lat="40.11173473602349" lon="9.257764883678776"><ele>1005.0</ele><time>2026-04-28T07:06:32.983Z</time></trkpt><trkpt lat="40.111581128844065" lon="9.257749816280851"><ele>1005.0</ele><time>2026-04-28T07:06:33.983Z</time></trkpt><trkpt lat="40.11142640126165" lon="9.257749746241908"><ele>1006.0</ele><time>2026-04-28T07:06:34.983Z</time></trkpt><trkpt lat="40.11126622305519" lon="9.257765841825174"><ele>1007.0</ele><time>2026-04-28T07:06:35.983Z</time></trkpt><trkpt lat="40.111103616435514" lon="9.25779353236719"><ele>1008.0</ele><time>2026-04-28T07:06:36.982Z</time></trkpt><trkpt lat="40.1109324361359" lon="9.257814574101777"><ele>1008.0</ele><time>2026-04-28T07:06:37.982Z</time></trkpt><trkpt lat="40.11076756427628" lon="9.257822581108867"><ele>1008.0</ele><time>2026-04-28T07:06:38.982Z</time></trkpt><trkpt lat="40.11060634573253" lon="9.2577955559268"><ele>1008.0</ele><time>2026-04-28T07:06:39.982Z</time></trkpt><trkpt lat="40.11045086323486" lon="9.25769596736424"><ele>1008.6666666666667</ele><time>2026-04-28T07:06:40.982Z</time></trkpt><trkpt lat="40.11031417809866" lon="9.257578506269718"><ele>1009.3333333333334</ele><time>2026-04-28T07:06:41.982Z</time></trkpt><trkpt lat="40.11017188068198" lon="9.25743832325502"><ele>1010.0</ele><time>2026-04-28T07:06:42.982Z</time></trkpt><trkpt lat="40.11003303984436" lon="9.257282564852735"><ele>1010.0</ele><time>2026-04-28T07:06:43.982Z</time></trkpt><trkpt lat="40.10991532506231" lon="9.257094252973447"><ele>1010.0</ele><time>2026-04-28T07:06:44.982Z</time></trkpt><trkpt lat="40.109820983563935" lon="9.256897243001804"><ele>1010.0</ele><time>2026-04-28T07:06:45.982Z</time></trkpt><trkpt lat="40.10972774005" lon="9.256708223160278"><ele>1013.6666666666667</ele><time>2026-04-28T07:06:46.982Z</time></trkpt><trkpt lat="40.10961694853393" lon="9.256546253163522"><ele>1017.3333333333333</ele><time>2026-04-28T07:06:47.982Z</time></trkpt><trkpt lat="40.10949149300211" lon="9.256443886712573"><ele>1021.0</ele><time>2026-04-28T07:06:48.982Z</time></trkpt><trkpt lat="40.10933608764192" lon="9.256407220905457"><ele>1021.0</ele><time>2026-04-28T07:06:49.982Z</time></trkpt><trkpt lat="40.10916568776075" lon="9.256422281084177"><ele>1021.0</ele><time>2026-04-28T07:06:50.982Z</time></trkpt><trkpt lat="40.10899014041758" lon="9.256417683297933"><ele>1021.0</ele><time>2026-04-28T07:06:51.982Z</time></trkpt><trkpt lat="40.108808333705205" lon="9.256412234362863"><ele>1018.0</ele><time>2026-04-28T07:06:52.982Z</time></trkpt><trkpt lat="40.1086264477636" lon="9.256426156010967"><ele>1015.0</ele><time>2026-04-28T07:06:53.982Z</time></trkpt><trkpt lat="40.108460554500304" lon="9.256433210812949"><ele>1012.0</ele><time>2026-04-28T07:06:54.982Z</time></trkpt><trkpt lat="40.10831454294696" lon="9.256419243485222"><ele>1007.25</ele><time>2026-04-28T07:06:55.982Z</time></trkpt><trkpt lat="40.10820143546999" lon="9.256336328017522"><ele>1002.5</ele><time>2026-04-28T07:06:56.982Z</time></trkpt><trkpt lat="40.108141858694125" lon="9.256192439994972"><ele>997.75</ele><time>2026-04-28T07:06:57.982Z</time></trkpt><trkpt lat="40.10812843267654" lon="9.256023473603335"><ele>993.0</ele><time>2026-04-28T07:06:58.982Z</time></trkpt><trkpt lat="40.108130164200226" lon="9.255834068730538"><ele>993.0</ele><time>2026-04-28T07:06:59.982Z</time></trkpt><trkpt lat="40.1081314833354" lon="9.255637490257525"><ele>993.0</ele><time>2026-04-28T07:07:00.982Z</time></trkpt><trkpt lat="40.10812379317091" lon="9.255428877261728"><ele>993.0</ele><time>2026-04-28T07:07:01.982Z</time></trkpt><trkpt lat="40.10811863678765" lon="9.255213746035178"><ele>994.3333333333333</ele><time>2026-04-28T07:07:02.982Z</time></trkpt><trkpt lat="40.10810447025767" lon="9.254986906104733"><ele>995.6666666666666</ele><time>2026-04-28T07:07:03.982Z</time></trkpt><trkpt lat="40.10807753262169" lon="9.254756964083365"><ele>997.0</ele><time>2026-04-28T07:07:04.982Z</time></trkpt><trkpt lat="40.10803038526153" lon="9.254530420492792"><ele>998.6666666666666</ele><time>2026-04-28T07:07:05.982Z</time></trkpt><trkpt lat="40.10795182831057" lon="9.254309472720122"><ele>1000.3333333333333</ele><time>2026-04-28T07:07:06.982Z</time></trkpt><trkpt lat="40.10786058792394" lon="9.25408444814896"><ele>1002.0</ele><time>2026-04-28T07:07:07.982Z</time></trkpt><trkpt lat="40.10777509643184" lon="9.253855607783704"><ele>1006.3333333333333</ele><time>2026-04-28T07:07:08.982Z</time></trkpt><trkpt lat="40.10769859371625" lon="9.253622305275924"><ele>1010.6666666666666</ele><time>2026-04-28T07:07:09.982Z</time></trkpt><trkpt lat="40.107607147326014" lon="9.253413852542451"><ele>1015.0</ele><time>2026-04-28T07:07:10.982Z</time></trkpt><trkpt lat="40.107484313353815" lon="9.253268265459475"><ele>1016.0</ele><time>2026-04-28T07:07:11.982Z</time></trkpt><trkpt lat="40.10733397706853" lon="9.253192146008287"><ele>1017.0</ele><time>2026-04-28T07:07:12.982Z</time></trkpt><trkpt lat="40.10715767313128" lon="9.253176728733694"><ele>1018.0</ele><time>2026-04-28T07:07:13.982Z</time></trkpt><trkpt lat="40.1069815170613" lon="9.253187675584428"><ele>1018.0</ele><time>2026-04-28T07:07:14.982Z</time></trkpt><trkpt lat="40.10679788448428" lon="9.253202894273484"><ele>1018.0</ele><time>2026-04-28T07:07:15.982Z</time></trkpt><trkpt lat="40.10660509809152" lon="9.253210065869359"><ele>1018.0</ele><time>2026-04-28T07:07:16.982Z</time></trkpt><trkpt lat="40.1064142066284" lon="9.253208506556916"><ele>1017.3333333333333</ele><time>2026-04-28T07:07:17.982Z</time></trkpt><trkpt lat="40.1062315087402" lon="9.25321359831021"><ele>1016.6666666666667</ele><time>2026-04-28T07:07:18.982Z</time></trkpt><trkpt lat="40.106052146354756" lon="9.253217400353781"><ele>1016.0</ele><time>2026-04-28T07:07:19.982Z</time></trkpt><trkpt lat="40.10587240107173" lon="9.253184480497511"><ele>1020.6666666666667</ele><time>2026-04-28T07:07:20.982Z</time></trkpt><trkpt lat="40.10569088145746" lon="9.253102726344599"><ele>1025.3333333333333</ele><time>2026-04-28T07:07:21.982Z</time></trkpt><trkpt lat="40.10552270306765" lon="9.252996635107145"><ele>1030.0</ele><time>2026-04-28T07:07:22.982Z</time></trkpt><trkpt lat="40.10536219272878" lon="9.252876502169725"><ele>1030.0</ele><time>2026-04-28T07:07:23.982Z</time></trkpt><trkpt lat="40.10520485695356" lon="9.25276285600692"><ele>1030.0</ele><time>2026-04-28T07:07:24.982Z</time></trkpt><trkpt lat="40.10503896620827" lon="9.252671129778609"><ele>1030.0</ele><time>2026-04-28T07:07:25.982Z</time></trkpt><trkpt lat="40.104868663897534" lon="9.252623437994384"><ele>1030.0</ele><time>2026-04-28T07:07:26.982Z</time></trkpt><trkpt lat="40.10470173586705" lon="9.252634816048486"><ele>1030.0</ele><time>2026-04-28T07:07:27.982Z</time></trkpt><trkpt lat="40.104528763385396" lon="9.252663155744026"><ele>1030.0</ele><time>2026-04-28T07:07:28.982Z</time></trkpt><trkpt lat="40.104344355888124" lon="9.2526563086098"><ele>1030.0</ele><time>2026-04-28T07:07:29.982Z</time></trkpt><trkpt lat="40.10417075822793" lon="9.252600808745672"><ele>1030.0</ele><time>2026-04-28T07:07:30.982Z</time></trkpt><trkpt lat="40.10400087533616" lon="9.252501878677903"><ele>1030.0</ele><time>2026-04-28T07:07:31.982Z</time></trkpt><trkpt lat="40.10383679295283" lon="9.252378884817537"><ele>1032.3333333333333</ele><time>2026-04-28T07:07:32.982Z</time></trkpt><trkpt lat="40.103677102314236" lon="9.252253765980834"><ele>1034.6666666666667</ele><time>2026-04-28T07:07:33.982Z</time></trkpt><trkpt lat="40.10352146019925" lon="9.252110428005219"><ele>1037.0</ele><time>2026-04-28T07:07:34.982Z</time></trkpt><trkpt lat="40.10337136639807" lon="9.251959039694139"><ele>1035.6666666666667</ele><time>2026-04-28T07:07:35.982Z</time></trkpt><trkpt lat="40.10322182184828" lon="9.251806996535631"><ele>1034.3333333333333</ele><time>2026-04-28T07:07:36.982Z</time></trkpt><trkpt lat="40.103075236095954" lon="9.251652815686802"><ele>1033.0</ele><time>2026-04-28T07:07:37.982Z</time></trkpt><trkpt lat="40.102930373073356" lon="9.25150106506815"><ele>1033.0</ele><time>2026-04-28T07:07:38.982Z</time></trkpt><trkpt lat="40.1027895600235" lon="9.251357107899945"><ele>1033.0</ele><time>2026-04-28T07:07:39.999Z</time></trkpt><trkpt lat="40.102660005764584" lon="9.251255506475847"><ele>1033.0</ele><time>2026-04-28T07:07:40.999Z</time></trkpt><trkpt lat="40.10251527607963" lon="9.25123915562525"><ele>1036.3333333333333</ele><time>2026-04-28T07:07:41.999Z</time></trkpt><trkpt lat="40.102365657449724" lon="9.251296489660684"><ele>1039.6666666666667</ele><time>2026-04-28T07:07:42.999Z</time></trkpt><trkpt lat="40.10223194631437" lon="9.251418456182531"><ele>1043.0</ele><time>2026-04-28T07:07:43.999Z</time></trkpt><trkpt lat="40.10212098422337" lon="9.251587412792277"><ele>1044.3333333333335</ele><time>2026-04-28T07:07:44.999Z</time></trkpt><trkpt lat="40.102009861860246" lon="9.25176243030109"><ele>1045.6666666666667</ele><time>2026-04-28T07:07:45.999Z</time></trkpt><trkpt lat="40.101894056092746" lon="9.251948861451321"><ele>1047.0</ele><time>2026-04-28T07:07:46.999Z</time></trkpt><trkpt lat="40.10176718490571" lon="9.252137173168832"><ele>1044.0</ele><time>2026-04-28T07:07:47.999Z</time></trkpt><trkpt lat="40.101627740273784" lon="9.252317020375342"><ele>1041.0</ele><time>2026-04-28T07:07:48.999Z</time></trkpt><trkpt lat="40.10149632823814" lon="9.252507649870843"><ele>1038.0</ele><time>2026-04-28T07:07:49.999Z</time></trkpt><trkpt lat="40.10137198322502" lon="9.252716037072677"><ele>1043.3333333333333</ele><time>2026-04-28T07:07:50.999Z</time></trkpt><trkpt lat="40.101270939037796" lon="9.252947487659771"><ele>1048.6666666666665</ele><time>2026-04-28T07:07:51.999Z</time></trkpt><trkpt lat="40.10117438188742" lon="9.253185494369701"><ele>1054.0</ele><time>2026-04-28T07:07:52.999Z</time></trkpt><trkpt lat="40.1010575375782" lon="9.25339753706797"><ele>1054.0</ele><time>2026-04-28T07:07:53.999Z</time></trkpt><trkpt lat="40.10091583355869" lon="9.253578275748366"><ele>1054.0</ele><time>2026-04-28T07:07:54.999Z</time></trkpt><trkpt lat="40.10076090233409" lon="9.253730946269565"><ele>1054.0</ele><time>2026-04-28T07:07:55.999Z</time></trkpt><trkpt lat="40.10059078332518" lon="9.253875167725141"><ele>1055.3333333333333</ele><time>2026-04-28T07:07:56.999Z</time></trkpt><trkpt lat="40.10042187097177" lon="9.254026893544657"><ele>1056.6666666666667</ele><time>2026-04-28T07:07:57.999Z</time></trkpt><trkpt lat="40.10025899883507" lon="9.254180926821261"><ele>1058.0</ele><time>2026-04-28T07:07:58.999Z</time></trkpt><trkpt lat="40.10009859408945" lon="9.25433077659805"><ele>1058.0</ele><time>2026-04-28T07:07:59.999Z</time></trkpt><trkpt lat="40.0999327289608" lon="9.254479756300448"><ele>1058.0</ele><time>2026-04-28T07:08:00.999Z</time></trkpt><trkpt lat="40.09975971128795" lon="9.254622133529438"><ele>1058.0</ele><time>2026-04-28T07:08:01.999Z</time></trkpt><trkpt lat="40.09960038816891" lon="9.254763526060968"><ele>1057.0</ele><time>2026-04-28T07:08:02.999Z</time></trkpt><trkpt lat="40.099451266263564" lon="9.254884978810905"><ele>1056.0</ele><time>2026-04-28T07:08:03.999Z</time></trkpt><trkpt lat="40.099293607893536" lon="9.254949460474272"><ele>1055.0</ele><time>2026-04-28T07:08:04.999Z</time></trkpt><trkpt lat="40.0991237674191" lon="9.254955887763298"><ele>1055.0</ele><time>2026-04-28T07:08:05.999Z</time></trkpt><trkpt lat="40.09894967378951" lon="9.254885211356713"><ele>1055.0</ele><time>2026-04-28T07:08:06.999Z</time></trkpt><trkpt lat="40.09877575534153" lon="9.254792049825616"><ele>1055.0</ele><time>2026-04-28T07:08:07.999Z</time></trkpt><trkpt lat="40.09859931458852" lon="9.254723424286782"><ele>1057.0</ele><time>2026-04-28T07:08:08.999Z</time></trkpt><trkpt lat="40.09841564445771" lon="9.254721079735383"><ele>1059.0</ele><time>2026-04-28T07:08:09.999Z</time></trkpt><trkpt lat="40.09822721767924" lon="9.254777202867405"><ele>1061.0</ele><time>2026-04-28T07:08:10.999Z</time></trkpt><trkpt lat="40.09803344792916" lon="9.25486891769108"><ele>1061.0</ele><time>2026-04-28T07:08:11.999Z</time></trkpt><trkpt lat="40.09783877865106" lon="9.254940155213603"><ele>1061.0</ele><time>2026-04-28T07:08:12.999Z</time></trkpt><trkpt lat="40.097659535055094" lon="9.255009358676569"><ele>1061.0</ele><time>2026-04-28T07:08:13.999Z</time></trkpt><trkpt lat="40.09749359849167" lon="9.25511164938785"><ele>1064.6666666666667</ele><time>2026-04-28T07:08:14.999Z</time></trkpt><trkpt lat="40.097355769085375" lon="9.255268760125553"><ele>1068.3333333333333</ele><time>2026-04-28T07:08:15.999Z</time></trkpt><trkpt lat="40.09723339971298" lon="9.255453951667056"><ele>1072.0</ele><time>2026-04-28T07:08:16.999Z</time></trkpt><trkpt lat="40.09711182115416" lon="9.255645464124889"><ele>1072.0</ele><time>2026-04-28T07:08:17.999Z</time></trkpt><trkpt lat="40.09698461727316" lon="9.255841449906352"><ele>1072.0</ele><time>2026-04-28T07:08:18.999Z</time></trkpt><trkpt lat="40.096851443231344" lon="9.25603324081934"><ele>1072.0</ele><time>2026-04-28T07:08:19.999Z</time></trkpt><trkpt lat="40.09669700285641" lon="9.256193332898983"><ele>1072.3333333333333</ele><time>2026-04-28T07:08:20.999Z</time></trkpt><trkpt lat="40.09651146479105" lon="9.256319824443931"><ele>1072.6666666666667</ele><time>2026-04-28T07:08:21.999Z</time></trkpt><trkpt lat="40.09631641477935" lon="9.256416502063194"><ele>1073.0</ele><time>2026-04-28T07:08:22.999Z</time></trkpt><trkpt lat="40.096122832487076" lon="9.25652487835453"><ele>1073.0</ele><time>2026-04-28T07:08:24Z</time></trkpt><trkpt lat="40.09594193040457" lon="9.256656747938404"><ele>1073.0</ele><time>2026-04-28T07:08:24.999Z</time></trkpt><trkpt lat="40.09577504673498" lon="9.256829516618449"><ele>1073.0</ele><time>2026-04-28T07:08:25.999Z</time></trkpt><trkpt lat="40.0956309952859" lon="9.257021186508261"><ele>1074.6666666666667</ele><time>2026-04-28T07:08:27Z</time></trkpt><trkpt lat="40.095486557242566" lon="9.257209868667447"><ele>1076.3333333333333</ele><time>2026-04-28T07:08:28Z</time></trkpt><trkpt lat="40.09535398966395" lon="9.257387696821283"><ele>1078.0</ele><time>2026-04-28T07:08:29Z</time></trkpt><trkpt lat="40.09522475294461" lon="9.257548198856963"><ele>1078.0</ele><time>2026-04-28T07:08:30Z</time></trkpt><trkpt lat="40.09509307777559" lon="9.257650210441101"><ele>1078.0</ele><time>2026-04-28T07:08:31Z</time></trkpt><trkpt lat="40.094944619891145" lon="9.257671801618109"><ele>1078.0</ele><time>2026-04-28T07:08:32Z</time></trkpt><trkpt lat="40.09477324431089" lon="9.25764656182128"><ele>1080.3333333333333</ele><time>2026-04-28T07:08:33Z</time></trkpt><trkpt lat="40.09459411949602" lon="9.257632754421866"><ele>1082.6666666666667</ele><time>2026-04-28T07:08:34Z</time></trkpt><trkpt lat="40.09441268006593" lon="9.257634275478233"><ele>1085.0</ele><time>2026-04-28T07:08:35Z</time></trkpt><trkpt lat="40.09425188051764" lon="9.257636743337923"><ele>1085.0</ele><time>2026-04-28T07:08:36Z</time></trkpt><trkpt lat="40.09411972018601" lon="9.25766333182831"><ele>1085.0</ele><time>2026-04-28T07:08:36.999Z</time></trkpt><trkpt lat="40.0940103406222" lon="9.257763473338597"><ele>1085.0</ele><time>2026-04-28T07:08:37.999Z</time></trkpt><trkpt lat="40.09395151788061" lon="9.257919872081848"><ele>1085.0</ele><time>2026-04-28T07:08:38.999Z</time></trkpt><trkpt lat="40.09396366523709" lon="9.258083987636052"><ele>1087.5</ele><time>2026-04-28T07:08:39.999Z</time></trkpt><trkpt lat="40.09398528560893" lon="9.258265997224091"><ele>1090.0</ele><time>2026-04-28T07:08:40.999Z</time></trkpt><trkpt lat="40.093943726422914" lon="9.258427924846574"><ele>1092.5</ele><time>2026-04-28T07:08:41.999Z</time></trkpt><trkpt lat="40.093835980688034" lon="9.25854142037174"><ele>1095.0</ele><time>2026-04-28T07:08:42.999Z</time></trkpt><trkpt lat="40.09370843931712" lon="9.258641737578586"><ele>1095.0</ele><time>2026-04-28T07:08:43.999Z</time></trkpt><trkpt lat="40.09357039650117" lon="9.258747989981263"><ele>1095.0</ele><time>2026-04-28T07:08:44.999Z</time></trkpt><trkpt lat="40.09342647837424" lon="9.258863747085968"><ele>1095.0</ele><time>2026-04-28T07:08:45.999Z</time></trkpt><trkpt lat="40.09327126221976" lon="9.25895726956314"><ele>1091.6666666666667</ele><time>2026-04-28T07:08:46.999Z</time></trkpt><trkpt lat="40.09310021487312" lon="9.259002892915104"><ele>1088.3333333333335</ele><time>2026-04-28T07:08:47.999Z</time></trkpt><trkpt lat="40.09292192979659" lon="9.259035485592303"><ele>1085.0</ele><time>2026-04-28T07:08:48.999Z</time></trkpt><trkpt lat="40.09274633466021" lon="9.2590637444699"><ele>1085.0</ele><time>2026-04-28T07:08:49.999Z</time></trkpt><trkpt lat="40.09256598035182" lon="9.259079290314778"><ele>1085.0</ele><time>2026-04-28T07:08:50.999Z</time></trkpt><trkpt lat="40.09237648034808" lon="9.259073420004734"><ele>1085.0</ele><time>2026-04-28T07:08:51.999Z</time></trkpt><trkpt lat="40.09218967772298" lon="9.259060646195332"><ele>1085.0</ele><time>2026-04-28T07:08:52.999Z</time></trkpt><trkpt lat="40.09199874669225" lon="9.259034451788454"><ele>1085.0</ele><time>2026-04-28T07:08:53.999Z</time></trkpt><trkpt lat="40.091810694689556" lon="9.2589750900694"><ele>1085.0</ele><time>2026-04-28T07:08:54.999Z</time></trkpt><trkpt lat="40.09163937287972" lon="9.258876129038141"><ele>1084.3333333333335</ele><time>2026-04-28T07:08:55.999Z</time></trkpt><trkpt lat="40.09149041130181" lon="9.25878010815148"><ele>1083.6666666666667</ele><time>2026-04-28T07:08:56.999Z</time></trkpt><trkpt lat="40.09136711274373" lon="9.25865030200299"><ele>1083.0</ele><time>2026-04-28T07:08:57.999Z</time></trkpt><trkpt lat="40.091298439464225" lon="9.258452088538878"><ele>1083.0</ele><time>2026-04-28T07:08:58.999Z</time></trkpt><trkpt lat="40.091249578696505" lon="9.258235964625388"><ele>1083.0</ele><time>2026-04-28T07:08:59.999Z</time></trkpt><trkpt lat="40.09119349126372" lon="9.258008566409002"><ele>1083.0</ele><time>2026-04-28T07:09:00.999Z</time></trkpt><trkpt lat="40.09113233198718" lon="9.257791519839772"><ele>1087.75</ele><time>2026-04-28T07:09:01.999Z</time></trkpt><trkpt lat="40.091080190608906" lon="9.257599314049806"><ele>1092.5</ele><time>2026-04-28T07:09:02.999Z</time></trkpt><trkpt lat="40.0910057972252" lon="9.25744039254115"><ele>1097.25</ele><time>2026-04-28T07:09:03.999Z</time></trkpt><trkpt lat="40.090889999212386" lon="9.257337063967704"><ele>1102.0</ele><time>2026-04-28T07:09:04.999Z</time></trkpt><trkpt lat="40.0907325868565" lon="9.257290386259054"><ele>1113.0</ele><time>2026-04-28T07:09:05.999Z</time></trkpt><trkpt lat="40.09056127664961" lon="9.257279192926482"><ele>1124.0</ele><time>2026-04-28T07:09:06.999Z</time></trkpt><trkpt lat="40.09037690737377" lon="9.257269829570491"><ele>1135.0</ele><time>2026-04-28T07:09:07.999Z</time></trkpt><trkpt lat="40.090193051186105" lon="9.257272677761133"><ele>1128.6666666666665</ele><time>2026-04-28T07:09:08.999Z</time></trkpt><trkpt lat="40.090001128440335" lon="9.257294218327463"><ele>1122.3333333333333</ele><time>2026-04-28T07:09:09.999Z</time></trkpt><trkpt lat="40.08979955368712" lon="9.25735494635528"><ele>1116.0</ele><time>2026-04-28T07:09:10.999Z</time></trkpt><trkpt lat="40.08960687133457" lon="9.257416460240794"><ele>1116.0</ele><time>2026-04-28T07:09:11.999Z</time></trkpt><trkpt lat="40.08941844341607" lon="9.257494435081808"><ele>1116.0</ele><time>2026-04-28T07:09:12.999Z</time></trkpt><trkpt lat="40.0892382205994" lon="9.257561464011024"><ele>1116.0</ele><time>2026-04-28T07:09:13.999Z</time></trkpt><trkpt lat="40.0890860176541" lon="9.257647233293849"><ele>1117.6666666666667</ele><time>2026-04-28T07:09:14.999Z</time></trkpt><trkpt lat="40.08897318056903" lon="9.257797751953468"><ele>1119.3333333333335</ele><time>2026-04-28T07:09:15.999Z</time></trkpt><trkpt lat="40.08886648781673" lon="9.25797854131127"><ele>1121.0</ele><time>2026-04-28T07:09:16.999Z</time></trkpt><trkpt lat="40.088762271506134" lon="9.258162189644061"><ele>1121.0</ele><time>2026-04-28T07:09:17.999Z</time></trkpt><trkpt lat="40.08864914907232" lon="9.25835455543675"><ele>1121.0</ele><time>2026-04-28T07:09:18.999Z</time></trkpt><trkpt lat="40.088528581469404" lon="9.25854464110142"><ele>1121.0</ele><time>2026-04-28T07:09:19.999Z</time></trkpt><trkpt lat="40.088413473920866" lon="9.258718905660007"><ele>1121.0</ele><time>2026-04-28T07:09:20.999Z</time></trkpt><trkpt lat="40.08827920528533" lon="9.2588491230871"><ele>1121.0</ele><time>2026-04-28T07:09:21.999Z</time></trkpt><trkpt lat="40.08812106183087" lon="9.258933494988256"><ele>1121.0</ele><time>2026-04-28T07:09:22.999Z</time></trkpt><trkpt lat="40.0879387262139" lon="9.258973701045601"><ele>1120.3333333333335</ele><time>2026-04-28T07:09:23.999Z</time></trkpt><trkpt lat="40.08775104981848" lon="9.259016046477237"><ele>1119.6666666666667</ele><time>2026-04-28T07:09:24.999Z</time></trkpt><trkpt lat="40.08755558521221" lon="9.259066244698603"><ele>1119.0</ele><time>2026-04-28T07:09:25.998Z</time></trkpt><trkpt lat="40.087358167646585" lon="9.259117569122097"><ele>1119.0</ele><time>2026-04-28T07:09:26.998Z</time></trkpt><trkpt lat="40.087153652398825" lon="9.259165731093146"><ele>1119.0</ele><time>2026-04-28T07:09:27.998Z</time></trkpt><trkpt lat="40.0869599229464" lon="9.259210769522504"><ele>1119.0</ele><time>2026-04-28T07:09:28.998Z</time></trkpt><trkpt lat="40.08676456079101" lon="9.259246056942267"><ele>1117.6666666666667</ele><time>2026-04-28T07:09:29.998Z</time></trkpt><trkpt lat="40.08657046074849" lon="9.259245161110373"><ele>1116.3333333333335</ele><time>2026-04-28T07:09:30.998Z</time></trkpt><trkpt lat="40.086381129496296" lon="9.259179618196823"><ele>1115.0</ele><time>2026-04-28T07:09:31.998Z</time></trkpt><trkpt lat="40.08619090884253" lon="9.259103494168842"><ele>1115.0</ele><time>2026-04-28T07:09:32.998Z</time></trkpt><trkpt lat="40.085994434552056" lon="9.25907691171457"><ele>1115.0</ele><time>2026-04-28T07:09:33.998Z</time></trkpt><trkpt lat="40.08579895361346" lon="9.25908948469526"><ele>1115.0</ele><time>2026-04-28T07:09:34.998Z</time></trkpt><trkpt lat="40.08560192554957" lon="9.25913547079854"><ele>1117.0</ele><time>2026-04-28T07:09:35.998Z</time></trkpt><trkpt lat="40.08540202726553" lon="9.259179301838284"><ele>1119.0</ele><time>2026-04-28T07:09:36.998Z</time></trkpt><trkpt lat="40.08520140452965" lon="9.25922298084278"><ele>1121.0</ele><time>2026-04-28T07:09:37.998Z</time></trkpt><trkpt lat="40.085000234721626" lon="9.259262577880207"><ele>1123.0</ele><time>2026-04-28T07:09:38.998Z</time></trkpt><trkpt lat="40.08479500036629" lon="9.25929285052852"><ele>1125.0</ele><time>2026-04-28T07:09:39.998Z</time></trkpt><trkpt lat="40.08458807566756" lon="9.259314969322332"><ele>1127.0</ele><time>2026-04-28T07:09:40.998Z</time></trkpt><trkpt lat="40.08438386048185" lon="9.25935130881798"><ele>1127.0</ele><time>2026-04-28T07:09:41.998Z</time></trkpt><trkpt lat="40.084188951368574" lon="9.259409631812373"><ele>1127.0</ele><time>2026-04-28T07:09:42.998Z</time></trkpt><trkpt lat="40.0839907768314" lon="9.259491920846903"><ele>1127.0</ele><time>2026-04-28T07:09:43.998Z</time></trkpt><trkpt lat="40.08379977524155" lon="9.259591147849878"><ele>1128.3333333333335</ele><time>2026-04-28T07:09:44.998Z</time></trkpt><trkpt lat="40.0836165018878" lon="9.25968148839322"><ele>1129.6666666666667</ele><time>2026-04-28T07:09:45.998Z</time></trkpt><trkpt lat="40.083447165904744" lon="9.259772389205946"><ele>1131.0</ele><time>2026-04-28T07:09:46.998Z</time></trkpt><trkpt lat="40.08330682199667" lon="9.259900662766356"><ele>1131.6666666666667</ele><time>2026-04-28T07:09:47.998Z</time></trkpt><trkpt lat="40.08321137248631" lon="9.260087503405734"><ele>1132.3333333333335</ele><time>2026-04-28T07:09:48.998Z</time></trkpt><trkpt lat="40.083138861936575" lon="9.260303413700438"><ele>1133.0</ele><time>2026-04-28T07:09:49.998Z</time></trkpt><trkpt lat="40.08308202721904" lon="9.260529457485644"><ele>1130.6666666666667</ele><time>2026-04-28T07:09:50.998Z</time></trkpt><trkpt lat="40.08298615721988" lon="9.260699501062605"><ele>1128.3333333333333</ele><time>2026-04-28T07:09:51.998Z</time></trkpt><trkpt lat="40.08284676526032" lon="9.260828747334447"><ele>1126.0</ele><time>2026-04-28T07:09:52.998Z</time></trkpt><trkpt lat="40.08267779342031" lon="9.260903785031026"><ele>1126.0</ele><time>2026-04-28T07:09:53.998Z</time></trkpt><trkpt lat="40.08250241452232" lon="9.260942399565119"><ele>1126.0</ele><time>2026-04-28T07:09:54.998Z</time></trkpt><trkpt lat="40.0823201180305" lon="9.260928682065632"><ele>1126.0</ele><time>2026-04-28T07:09:55.998Z</time></trkpt><trkpt lat="40.08214598466367" lon="9.260861701938559"><ele>1125.0</ele><time>2026-04-28T07:09:56.998Z</time></trkpt><trkpt lat="40.08196900358699" lon="9.260775046424808"><ele>1124.0</ele><time>2026-04-28T07:09:57.998Z</time></trkpt><trkpt lat="40.081789703881135" lon="9.26066501541595"><ele>1123.0</ele><time>2026-04-28T07:09:58.998Z</time></trkpt><trkpt lat="40.081610918486156" lon="9.260544950681368"><ele>1124.6666666666665</ele><time>2026-04-28T07:09:59.998Z</time></trkpt><trkpt lat="40.08143275034392" lon="9.26042288117209"><ele>1126.3333333333333</ele><time>2026-04-28T07:10:00.998Z</time></trkpt><trkpt lat="40.08125845745914" lon="9.260307970273256"><ele>1128.0</ele><time>2026-04-28T07:10:01.998Z</time></trkpt><trkpt lat="40.08108688802989" lon="9.260205548955726"><ele>1128.0</ele><time>2026-04-28T07:10:02.998Z</time></trkpt><trkpt lat="40.08090392469536" lon="9.26015947216517"><ele>1128.0</ele><time>2026-04-28T07:10:03.998Z</time></trkpt><trkpt lat="40.08071765903412" lon="9.260172594263024"><ele>1128.0</ele><time>2026-04-28T07:10:04.998Z</time></trkpt><trkpt lat="40.08052979771186" lon="9.260236027812505"><ele>1129.0</ele><time>2026-04-28T07:10:05.998Z</time></trkpt><trkpt lat="40.08034831861915" lon="9.260310397266714"><ele>1130.0</ele><time>2026-04-28T07:10:06.998Z</time></trkpt><trkpt lat="40.08016190814509" lon="9.260372052584856"><ele>1131.0</ele><time>2026-04-28T07:10:07.998Z</time></trkpt><trkpt lat="40.079975810388866" lon="9.260430935306742"><ele>1134.0</ele><time>2026-04-28T07:10:08.998Z</time></trkpt><trkpt lat="40.079788625714464" lon="9.260484439902717"><ele>1137.0</ele><time>2026-04-28T07:10:09.998Z</time></trkpt><trkpt lat="40.0796104535058" lon="9.260545805983448"><ele>1140.0</ele><time>2026-04-28T07:10:10.998Z</time></trkpt><trkpt lat="40.079440777508154" lon="9.260595165243405"><ele>1140.0</ele><time>2026-04-28T07:10:11.998Z</time></trkpt><trkpt lat="40.07927871285001" lon="9.260593337259014"><ele>1140.0</ele><time>2026-04-28T07:10:12.998Z</time></trkpt><trkpt lat="40.07913558919367" lon="9.260503927689836"><ele>1140.0</ele><time>2026-04-28T07:10:13.998Z</time></trkpt><trkpt lat="40.07899411440561" lon="9.260373738639522"><ele>1139.0</ele><time>2026-04-28T07:10:14.998Z</time></trkpt><trkpt lat="40.07884246151215" lon="9.260245816468352"><ele>1138.0</ele><time>2026-04-28T07:10:15.998Z</time></trkpt><trkpt lat="40.07866818565753" lon="9.260150509512007"><ele>1137.0</ele><time>2026-04-28T07:10:16.998Z</time></trkpt><trkpt lat="40.078475146564124" lon="9.26010780538203"><ele>1137.0</ele><time>2026-04-28T07:10:17.998Z</time></trkpt><trkpt lat="40.07827169128123" lon="9.260090924192442"><ele>1137.0</ele><time>2026-04-28T07:10:18.998Z</time></trkpt><trkpt lat="40.078061502145964" lon="9.260083090446086"><ele>1137.0</ele><time>2026-04-28T07:10:19.998Z</time></trkpt><trkpt lat="40.07785303313557" lon="9.260063694462179"><ele>1136.0</ele><time>2026-04-28T07:10:20.998Z</time></trkpt><trkpt lat="40.077642689424906" lon="9.260042255227283"><ele>1135.0</ele><time>2026-04-28T07:10:21.998Z</time></trkpt><trkpt lat="40.07743149421742" lon="9.260019834265071"><ele>1134.0</ele><time>2026-04-28T07:10:22.998Z</time></trkpt><trkpt lat="40.07721951763032" lon="9.259994855615368"><ele>1134.0</ele><time>2026-04-28T07:10:23.998Z</time></trkpt><trkpt lat="40.07701183524035" lon="9.2599705968673"><ele>1134.0</ele><time>2026-04-28T07:10:24.998Z</time></trkpt><trkpt lat="40.07681078600274" lon="9.259955621610827"><ele>1134.0</ele><time>2026-04-28T07:10:25.998Z</time></trkpt><trkpt lat="40.076610116497896" lon="9.259934929167025"><ele>1135.3333333333333</ele><time>2026-04-28T07:10:26.998Z</time></trkpt><trkpt lat="40.07641455027835" lon="9.259920933083903"><ele>1136.6666666666665</ele><time>2026-04-28T07:10:27.998Z</time></trkpt><trkpt lat="40.07623093121019" lon="9.259950481788998"><ele>1138.0</ele><time>2026-04-28T07:10:28.998Z</time></trkpt><trkpt lat="40.076047269905594" lon="9.260039049225174"><ele>1138.0</ele><time>2026-04-28T07:10:30Z</time></trkpt><trkpt lat="40.075876966429185" lon="9.260166156209113"><ele>1138.0</ele><time>2026-04-28T07:10:31Z</time></trkpt><trkpt lat="40.07570620983918" lon="9.260304591340807"><ele>1138.0</ele><time>2026-04-28T07:10:32Z</time></trkpt><trkpt lat="40.07552976093693" lon="9.260433669596642"><ele>1139.0</ele><time>2026-04-28T07:10:33Z</time></trkpt><trkpt lat="40.075354162575564" lon="9.260561200493502"><ele>1140.0</ele><time>2026-04-28T07:10:33.999Z</time></trkpt><trkpt lat="40.07517858162196" lon="9.260682386863655"><ele>1141.0</ele><time>2026-04-28T07:10:34.999Z</time></trkpt><trkpt lat="40.07499762043965" lon="9.260769958411249"><ele>1140.0</ele><time>2026-04-28T07:10:36Z</time></trkpt><trkpt lat="40.07480812369653" lon="9.260817809965706"><ele>1139.0</ele><time>2026-04-28T07:10:37Z</time></trkpt><trkpt lat="40.07461309589751" lon="9.260852815113443"><ele>1138.0</ele><time>2026-04-28T07:10:38Z</time></trkpt><trkpt lat="40.07441721920877" lon="9.26089493642779"><ele>1138.0</ele><time>2026-04-28T07:10:38.999Z</time></trkpt><trkpt lat="40.074221600409146" lon="9.260938309507882"><ele>1138.0</ele><time>2026-04-28T07:10:39.999Z</time></trkpt><trkpt lat="40.07402984852091" lon="9.260975698626916"><ele>1138.0</ele><time>2026-04-28T07:10:40.999Z</time></trkpt><trkpt lat="40.07383680595816" lon="9.261012692491567"><ele>1137.6666666666665</ele><time>2026-04-28T07:10:42Z</time></trkpt><trkpt lat="40.07364894592657" lon="9.261021185639867"><ele>1137.3333333333333</ele><time>2026-04-28T07:10:43Z</time></trkpt><trkpt lat="40.07348475734681" lon="9.260951420901025"><ele>1137.0</ele><time>2026-04-28T07:10:44Z</time></trkpt><trkpt lat="40.073339818290805" lon="9.260806884899765"><ele>1135.6666666666667</ele><time>2026-04-28T07:10:45Z</time></trkpt><trkpt lat="40.073198703499344" lon="9.260627052469761"><ele>1134.3333333333335</ele><time>2026-04-28T07:10:46Z</time></trkpt><trkpt lat="40.07304579879678" lon="9.260448071280537"><ele>1133.0</ele><time>2026-04-28T07:10:47Z</time></trkpt><trkpt lat="40.0728912659603" lon="9.260270603699553"><ele>1133.0</ele><time>2026-04-28T07:10:48Z</time></trkpt><trkpt lat="40.0727365162528" lon="9.260106946107705"><ele>1133.0</ele><time>2026-04-28T07:10:49Z</time></trkpt><trkpt lat="40.072563165911845" lon="9.259970684278347"><ele>1133.0</ele><time>2026-04-28T07:10:50Z</time></trkpt><trkpt lat="40.07237566963222" lon="9.259858190028988"><ele>1127.0</ele><time>2026-04-28T07:10:51Z</time></trkpt><trkpt lat="40.07218056518455" lon="9.259754917982914"><ele>1121.0</ele><time>2026-04-28T07:10:52Z</time></trkpt><trkpt lat="40.071979004376175" lon="9.259665868630428"><ele>1115.0</ele><time>2026-04-28T07:10:53Z</time></trkpt><trkpt lat="40.07177224720307" lon="9.259597154235998"><ele>1119.0</ele><time>2026-04-28T07:10:54Z</time></trkpt><trkpt lat="40.07157288393827" lon="9.25954754945868"><ele>1123.0</ele><time>2026-04-28T07:10:55Z</time></trkpt><trkpt lat="40.07139705905144" lon="9.259445225624852"><ele>1127.0</ele><time>2026-04-28T07:10:56Z</time></trkpt><trkpt lat="40.07124665528954" lon="9.25928780365438"><ele>1127.0</ele><time>2026-04-28T07:10:57Z</time></trkpt><trkpt lat="40.07110095962354" lon="9.259114544707083"><ele>1127.0</ele><time>2026-04-28T07:10:58Z</time></trkpt><trkpt lat="40.07095187143717" lon="9.258949862370853"><ele>1127.0</ele><time>2026-04-28T07:10:59Z</time></trkpt><trkpt lat="40.070787773968064" lon="9.258839189648"><ele>1117.0</ele><time>2026-04-28T07:10:59.999Z</time></trkpt><trkpt lat="40.07061942795978" lon="9.258772646437361"><ele>1107.0</ele><time>2026-04-28T07:11:00.999Z</time></trkpt><trkpt lat="40.07046332801397" lon="9.258773444451357"><ele>1097.0</ele><time>2026-04-28T07:11:01.999Z</time></trkpt><trkpt lat="40.07031255804194" lon="9.258849573531435"><ele>1097.0</ele><time>2026-04-28T07:11:02.999Z</time></trkpt><trkpt lat="40.07014006825678" lon="9.258941087742516"><ele>1097.0</ele><time>2026-04-28T07:11:03.999Z</time></trkpt><trkpt lat="40.06995719616136" lon="9.259026272451678"><ele>1097.0</ele><time>2026-04-28T07:11:04.999Z</time></trkpt><trkpt lat="40.069774251130895" lon="9.259128360384082"><ele>1099.3333333333335</ele><time>2026-04-28T07:11:05.999Z</time></trkpt><trkpt lat="40.069582915626164" lon="9.259216358160625"><ele>1101.6666666666667</ele><time>2026-04-28T07:11:06.999Z</time></trkpt><trkpt lat="40.069394116029024" lon="9.259279298880054"><ele>1104.0</ele><time>2026-04-28T07:11:07.999Z</time></trkpt><trkpt lat="40.069210591765" lon="9.259323995416672"><ele>1094.3333333333333</ele><time>2026-04-28T07:11:08.999Z</time></trkpt><trkpt lat="40.06904608211787" lon="9.259391591784702"><ele>1084.6666666666665</ele><time>2026-04-28T07:11:09.999Z</time></trkpt><trkpt lat="40.06890770386449" lon="9.259516854396715"><ele>1075.0</ele><time>2026-04-28T07:11:10.999Z</time></trkpt><trkpt lat="40.068796385081995" lon="9.25970129583128"><ele>1079.6666666666665</ele><time>2026-04-28T07:11:11.999Z</time></trkpt><trkpt lat="40.06869804625532" lon="9.259916926044742"><ele>1084.3333333333333</ele><time>2026-04-28T07:11:12.999Z</time></trkpt><trkpt lat="40.06860220092652" lon="9.260123618044748"><ele>1089.0</ele><time>2026-04-28T07:11:13.999Z</time></trkpt><trkpt lat="40.068536695179574" lon="9.260311916236931"><ele>1089.0</ele><time>2026-04-28T07:11:14.999Z</time></trkpt><trkpt lat="40.068442288128495" lon="9.26045236382038"><ele>1089.0</ele><time>2026-04-28T07:11:15.999Z</time></trkpt><trkpt lat="40.068314007029066" lon="9.260521218290673"><ele>1089.0</ele><time>2026-04-28T07:11:16.999Z</time></trkpt><trkpt lat="40.06818702231153" lon="9.260570563123187"><ele>1089.0</ele><time>2026-04-28T07:11:17.999Z</time></trkpt><trkpt lat="40.068102845207235" lon="9.260698527198853"><ele>1082.3333333333333</ele><time>2026-04-28T07:11:18.999Z</time></trkpt><trkpt lat="40.06804524489937" lon="9.260872362743306"><ele>1075.6666666666665</ele><time>2026-04-28T07:11:19.999Z</time></trkpt><trkpt lat="40.067975562368545" lon="9.26106668509904"><ele>1069.0</ele><time>2026-04-28T07:11:20.999Z</time></trkpt><trkpt lat="40.06786999523967" lon="9.261246090992161"><ele>1069.0</ele><time>2026-04-28T07:11:21.999Z</time></trkpt><trkpt lat="40.06774913438888" lon="9.261413538693956"><ele>1069.0</ele><time>2026-04-28T07:11:22.999Z</time></trkpt><trkpt lat="40.067629345318544" lon="9.261587412359077"><ele>1069.0</ele><time>2026-04-28T07:11:23.999Z</time></trkpt><trkpt lat="40.067495153243016" lon="9.261759270678116"><ele>1068.3333333333333</ele><time>2026-04-28T07:11:24.999Z</time></trkpt><trkpt lat="40.06733707444916" lon="9.261903096347316"><ele>1067.6666666666667</ele><time>2026-04-28T07:11:25.999Z</time></trkpt><trkpt lat="40.06717515910311" lon="9.262031800289298"><ele>1067.0</ele><time>2026-04-28T07:11:26.999Z</time></trkpt><trkpt lat="40.06703441018945" lon="9.262174251451865"><ele>1075.6666666666667</ele><time>2026-04-28T07:11:27.999Z</time></trkpt><trkpt lat="40.06693002485035" lon="9.262336421664756"><ele>1084.3333333333333</ele><time>2026-04-28T07:11:28.999Z</time></trkpt><trkpt lat="40.0668004051283" lon="9.262436432903504"><ele>1093.0</ele><time>2026-04-28T07:11:29.999Z</time></trkpt><trkpt lat="40.06664930740794" lon="9.26248322639476"><ele>1088.3333333333333</ele><time>2026-04-28T07:11:30.999Z</time></trkpt><trkpt lat="40.066489702383656" lon="9.262472372429663"><ele>1083.6666666666667</ele><time>2026-04-28T07:11:31.999Z</time></trkpt><trkpt lat="40.066328647793135" lon="9.262402012910613"><ele>1079.0</ele><time>2026-04-28T07:11:32.999Z</time></trkpt><trkpt lat="40.06618462244612" lon="9.262389732090394"><ele>1079.0</ele><time>2026-04-28T07:11:33.999Z</time></trkpt><trkpt lat="40.066039114907916" lon="9.26245721254494"><ele>1079.0</ele><time>2026-04-28T07:11:34.999Z</time></trkpt><trkpt lat="40.065888263432385" lon="9.262559931577359"><ele>1079.0</ele><time>2026-04-28T07:11:35.999Z</time></trkpt><trkpt lat="40.06572848788264" lon="9.262672591842998"><ele>1071.6666666666667</ele><time>2026-04-28T07:11:36.999Z</time></trkpt><trkpt lat="40.065551853191174" lon="9.262750650602708"><ele>1064.3333333333333</ele><time>2026-04-28T07:11:37.999Z</time></trkpt><trkpt lat="40.065368381035924" lon="9.262805191856646"><ele>1057.0</ele><time>2026-04-28T07:11:38.999Z</time></trkpt><trkpt lat="40.0651846355366" lon="9.262857647683644"><ele>1057.0</ele><time>2026-04-28T07:11:39.999Z</time></trkpt><trkpt lat="40.06500283943649" lon="9.262916833187106"><ele>1057.0</ele><time>2026-04-28T07:11:40.999Z</time></trkpt><trkpt lat="40.064831809798086" lon="9.262996524697392"><ele>1057.0</ele><time>2026-04-28T07:11:41.999Z</time></trkpt><trkpt lat="40.06465925679479" lon="9.263040098042024"><ele>1055.6666666666665</ele><time>2026-04-28T07:11:42.999Z</time></trkpt><trkpt lat="40.06448126921372" lon="9.26301317495556"><ele>1054.3333333333333</ele><time>2026-04-28T07:11:43.999Z</time></trkpt><trkpt lat="40.06430744027291" lon="9.26295663043245"><ele>1053.0</ele><time>2026-04-28T07:11:44.999Z</time></trkpt><trkpt lat="40.064147212716406" lon="9.262954151022564"><ele>1058.6666666666667</ele><time>2026-04-28T07:11:45.999Z</time></trkpt><trkpt lat="40.06399612842092" lon="9.263028926516565"><ele>1064.3333333333335</ele><time>2026-04-28T07:11:46.999Z</time></trkpt><trkpt lat="40.06384535231959" lon="9.263130544902396"><ele>1070.0</ele><time>2026-04-28T07:11:47.999Z</time></trkpt><trkpt lat="40.063718346547894" lon="9.263164275124232"><ele>1070.0</ele><time>2026-04-28T07:11:48.999Z</time></trkpt><trkpt lat="40.06359459563922" lon="9.263115727923646"><ele>1070.0</ele><time>2026-04-28T07:11:49.999Z</time></trkpt><trkpt lat="40.06351114288453" lon="9.263009661089693"><ele>1070.0</ele><time>2026-04-28T07:11:50.999Z</time></trkpt><trkpt lat="40.06347526654542" lon="9.262840728535"><ele>1070.0</ele><time>2026-04-28T07:11:51.999Z</time></trkpt><trkpt lat="40.06345353290614" lon="9.262649519605176"><ele>1070.0</ele><time>2026-04-28T07:11:52.999Z</time></trkpt><trkpt lat="40.06342127412529" lon="9.262456152121013"><ele>1070.0</ele><time>2026-04-28T07:11:53.999Z</time></trkpt><trkpt lat="40.06338697775034" lon="9.262271219051572"><ele>1070.0</ele><time>2026-04-28T07:11:54.999Z</time></trkpt><trkpt lat="40.06339203970978" lon="9.262081526093276"><ele>1070.0</ele><time>2026-04-28T07:11:55.999Z</time></trkpt><trkpt lat="40.06344469650256" lon="9.261900229871147"><ele>1073.3333333333335</ele><time>2026-04-28T07:11:56.999Z</time></trkpt><trkpt lat="40.06350884570157" lon="9.261718070071467"><ele>1076.6666666666667</ele><time>2026-04-28T07:11:57.999Z</time></trkpt><trkpt lat="40.063555362764475" lon="9.261522589493149"><ele>1080.0</ele><time>2026-04-28T07:11:58.999Z</time></trkpt><trkpt lat="40.06355182642955" lon="9.261316020343209"><ele>1080.0</ele><time>2026-04-28T07:11:59.999Z</time></trkpt><trkpt lat="40.06353070705167" lon="9.261101521103662"><ele>1080.0</ele><time>2026-04-28T07:12:00.999Z</time></trkpt><trkpt lat="40.063484275592394" lon="9.260894442207796"><ele>1080.0</ele><time>2026-04-28T07:12:01.999Z</time></trkpt><trkpt lat="40.0633977400383" lon="9.260716726905052"><ele>1074.6666666666667</ele><time>2026-04-28T07:12:02.999Z</time></trkpt><trkpt lat="40.06329078082034" lon="9.260557006253462"><ele>1069.3333333333335</ele><time>2026-04-28T07:12:03.999Z</time></trkpt><trkpt lat="40.06317062973291" lon="9.260406376946927"><ele>1064.0</ele><time>2026-04-28T07:12:04.999Z</time></trkpt><trkpt lat="40.06305375725656" lon="9.260244794664489"><ele>1070.3333333333335</ele><time>2026-04-28T07:12:05.998Z</time></trkpt><trkpt lat="40.06294625706697" lon="9.260072155816516"><ele>1076.6666666666667</ele><time>2026-04-28T07:12:06.998Z</time></trkpt><trkpt lat="40.06285334253334" lon="9.259891943782932"><ele>1083.0</ele><time>2026-04-28T07:12:07.998Z</time></trkpt><trkpt lat="40.06274775129037" lon="9.259730874624829"><ele>1083.0</ele><time>2026-04-28T07:12:08.998Z</time></trkpt><trkpt lat="40.062633659806345" lon="9.259597269950062"><ele>1083.0</ele><time>2026-04-28T07:12:09.998Z</time></trkpt><trkpt lat="40.06256582902016" lon="9.259448646261752"><ele>1083.0</ele><time>2026-04-28T07:12:10.998Z</time></trkpt><trkpt lat="40.062528555388" lon="9.25926751474692"><ele>1083.0</ele><time>2026-04-28T07:12:11.998Z</time></trkpt><trkpt lat="40.0625037504776" lon="9.259057922772397"><ele>1085.3333333333333</ele><time>2026-04-28T07:12:12.998Z</time></trkpt><trkpt lat="40.06243194606948" lon="9.258875364433784"><ele>1087.6666666666665</ele><time>2026-04-28T07:12:13.998Z</time></trkpt><trkpt lat="40.06232589467959" lon="9.258709860454413"><ele>1090.0</ele><time>2026-04-28T07:12:14.998Z</time></trkpt><trkpt lat="40.06218523283754" lon="9.2585849514101"><ele>1090.0</ele><time>2026-04-28T07:12:15.998Z</time></trkpt><trkpt lat="40.06202969031755" lon="9.258491155139865"><ele>1090.0</ele><time>2026-04-28T07:12:16.998Z</time></trkpt><trkpt lat="40.06186165896774" lon="9.25840746139703"><ele>1090.0</ele><time>2026-04-28T07:12:17.998Z</time></trkpt><trkpt lat="40.0616939678815" lon="9.258327168673851"><ele>1094.0</ele><time>2026-04-28T07:12:18.998Z</time></trkpt><trkpt lat="40.06152509473146" lon="9.258257750224228"><ele>1098.0</ele><time>2026-04-28T07:12:19.998Z</time></trkpt><trkpt lat="40.06135137478225" lon="9.258217670471229"><ele>1102.0</ele><time>2026-04-28T07:12:20.998Z</time></trkpt><trkpt lat="40.06117482652238" lon="9.258192417191347"><ele>1102.0</ele><time>2026-04-28T07:12:21.998Z</time></trkpt><trkpt lat="40.06099503455759" lon="9.258164900325081"><ele>1102.0</ele><time>2026-04-28T07:12:22.998Z</time></trkpt><trkpt lat="40.06082832377626" lon="9.258151968697804"><ele>1102.0</ele><time>2026-04-28T07:12:23.998Z</time></trkpt><trkpt lat="40.060670086795824" lon="9.258186864563816"><ele>1103.75</ele><time>2026-04-28T07:12:24.998Z</time></trkpt><trkpt lat="40.06053228303772" lon="9.258251083158726"><ele>1105.5</ele><time>2026-04-28T07:12:25.998Z</time></trkpt><trkpt lat="40.060412389840145" lon="9.258247582071235"><ele>1107.25</ele><time>2026-04-28T07:12:26.998Z</time></trkpt><trkpt lat="40.06030025604993" lon="9.258167024701647"><ele>1109.0</ele><time>2026-04-28T07:12:27.998Z</time></trkpt><trkpt lat="40.06019017979078" lon="9.258048417263812"><ele>1102.5</ele><time>2026-04-28T07:12:28.998Z</time></trkpt><trkpt lat="40.0600685078585" lon="9.257951041273648"><ele>1096.0</ele><time>2026-04-28T07:12:29.998Z</time></trkpt><trkpt lat="40.05993902363704" lon="9.257928835618937"><ele>1089.5</ele><time>2026-04-28T07:12:30.998Z</time></trkpt><trkpt lat="40.05979857466966" lon="9.25799477413129"><ele>1083.0</ele><time>2026-04-28T07:12:31.998Z</time></trkpt><trkpt lat="40.05964985355893" lon="9.25811786329248"><ele>1092.0</ele><time>2026-04-28T07:12:32.998Z</time></trkpt><trkpt lat="40.05949516165258" lon="9.258233378317774"><ele>1101.0</ele><time>2026-04-28T07:12:33.998Z</time></trkpt><trkpt lat="40.05933615390425" lon="9.258321613917229"><ele>1110.0</ele><time>2026-04-28T07:12:34.998Z</time></trkpt><trkpt lat="40.05916151109761" lon="9.258383485132804"><ele>1113.3333333333333</ele><time>2026-04-28T07:12:36Z</time></trkpt><trkpt lat="40.05898545022254" lon="9.258418954675333"><ele>1116.6666666666665</ele><time>2026-04-28T07:12:37Z</time></trkpt><trkpt lat="40.05881863884385" lon="9.258430436560547"><ele>1120.0</ele><time>2026-04-28T07:12:38Z</time></trkpt><trkpt lat="40.05867970936272" lon="9.258422795306833"><ele>1120.0</ele><time>2026-04-28T07:12:38.999Z</time></trkpt><trkpt lat="40.05855718583129" lon="9.258366273432518"><ele>1120.0</ele><time>2026-04-28T07:12:39.999Z</time></trkpt><trkpt lat="40.058476054627896" lon="9.258225640789625"><ele>1120.0</ele><time>2026-04-28T07:12:40.999Z</time></trkpt><trkpt lat="40.058444905610315" lon="9.258041388768076"><ele>1120.0</ele><time>2026-04-28T07:12:42Z</time></trkpt><trkpt lat="40.05841582432595" lon="9.257839582769574"><ele>1122.6666666666665</ele><time>2026-04-28T07:12:42.999Z</time></trkpt><trkpt lat="40.05836774309603" lon="9.257643523694735"><ele>1125.3333333333333</ele><time>2026-04-28T07:12:43.999Z</time></trkpt><trkpt lat="40.05826979921686" lon="9.257466429439155"><ele>1128.0</ele><time>2026-04-28T07:12:45Z</time></trkpt><trkpt lat="40.058139852953346" lon="9.257315456184093"><ele>1127.25</ele><time>2026-04-28T07:12:46Z</time></trkpt><trkpt lat="40.05801779007362" lon="9.257193386563662"><ele>1126.5</ele><time>2026-04-28T07:12:47Z</time></trkpt><trkpt lat="40.05793077747161" lon="9.257092671828"><ele>1125.75</ele><time>2026-04-28T07:12:48Z</time></trkpt><trkpt lat="40.05788044181538" lon="9.256974614475295"><ele>1125.0</ele><time>2026-04-28T07:12:48.999Z</time></trkpt><trkpt lat="40.05788295137827" lon="9.256822734770765"><ele>1125.0</ele><time>2026-04-28T07:12:49.999Z</time></trkpt><trkpt lat="40.057924390965724" lon="9.25665229988973"><ele>1125.0</ele><time>2026-04-28T07:12:50.999Z</time></trkpt><trkpt lat="40.057981101624236" lon="9.256473403120975"><ele>1125.0</ele><time>2026-04-28T07:12:51.999Z</time></trkpt><trkpt lat="40.05801579703479" lon="9.256292244926819"><ele>1125.0</ele><time>2026-04-28T07:12:52.999Z</time></trkpt><trkpt lat="40.05799041971637" lon="9.256105506127597"><ele>1123.3333333333333</ele><time>2026-04-28T07:12:53.999Z</time></trkpt><trkpt lat="40.057934125755374" lon="9.255919925199384"><ele>1121.6666666666665</ele><time>2026-04-28T07:12:54.999Z</time></trkpt><trkpt lat="40.05788668560569" lon="9.255725176620004"><ele>1120.0</ele><time>2026-04-28T07:12:55.999Z</time></trkpt><trkpt lat="40.0578812996883" lon="9.255535698613334"><ele>1116.25</ele><time>2026-04-28T07:12:56.999Z</time></trkpt><trkpt lat="40.05791062575686" lon="9.255356628760701"><ele>1112.5</ele><time>2026-04-28T07:12:57.999Z</time></trkpt><trkpt lat="40.05792725183596" lon="9.255181289163279"><ele>1108.75</ele><time>2026-04-28T07:12:58.999Z</time></trkpt><trkpt lat="40.05788469375289" lon="9.255006279797675"><ele>1105.0</ele><time>2026-04-28T07:12:59.999Z</time></trkpt><trkpt lat="40.057786011879465" lon="9.254828636061578"><ele>1105.0</ele><time>2026-04-28T07:13:00.999Z</time></trkpt><trkpt lat="40.057644463887236" lon="9.25469427995072"><ele>1105.0</ele><time>2026-04-28T07:13:01.999Z</time></trkpt><trkpt lat="40.05748896835685" lon="9.25460616585761"><ele>1105.0</ele><time>2026-04-28T07:13:02.999Z</time></trkpt><trkpt lat="40.057335920384176" lon="9.254520101726339"><ele>1105.0</ele><time>2026-04-28T07:13:03.999Z</time></trkpt><trkpt lat="40.05719992342671" lon="9.254393789383586"><ele>1105.0</ele><time>2026-04-28T07:13:04.999Z</time></trkpt><trkpt lat="40.057096951428775" lon="9.25423095210088"><ele>1105.0</ele><time>2026-04-28T07:13:05.999Z</time></trkpt><trkpt lat="40.05703940011848" lon="9.254024506808125"><ele>1097.3333333333333</ele><time>2026-04-28T07:13:06.999Z</time></trkpt><trkpt lat="40.056998157631746" lon="9.253811799974022"><ele>1089.6666666666667</ele><time>2026-04-28T07:13:07.999Z</time></trkpt><trkpt lat="40.05693220069333" lon="9.253631820719562"><ele>1082.0</ele><time>2026-04-28T07:13:08.999Z</time></trkpt><trkpt lat="40.05683434611659" lon="9.25346793620929"><ele>1082.0</ele><time>2026-04-28T07:13:09.999Z</time></trkpt><trkpt lat="40.056723279622105" lon="9.253308997836431"><ele>1082.0</ele><time>2026-04-28T07:13:10.999Z</time></trkpt><trkpt lat="40.056625707366926" lon="9.25317593680521"><ele>1082.0</ele><time>2026-04-28T07:13:11.999Z</time></trkpt><trkpt lat="40.056516085531214" lon="9.253098482709555"><ele>1082.0</ele><time>2026-04-28T07:13:12.999Z</time></trkpt><trkpt lat="40.0563901200036" lon="9.253099858908753"><ele>1082.0</ele><time>2026-04-28T07:13:13.999Z</time></trkpt><trkpt lat="40.05626448832472" lon="9.253169600566839"><ele>1082.0</ele><time>2026-04-28T07:13:14.999Z</time></trkpt><trkpt lat="40.05612452534758" lon="9.253276370399723"><ele>1082.0</ele><time>2026-04-28T07:13:15.999Z</time></trkpt><trkpt lat="40.05596263223094" lon="9.253328926686152"><ele>1082.0</ele><time>2026-04-28T07:13:16.999Z</time></trkpt><trkpt lat="40.05578901508876" lon="9.253331033860933"><ele>1082.0</ele><time>2026-04-28T07:13:17.999Z</time></trkpt><trkpt lat="40.05562718901812" lon="9.253297092442814"><ele>1082.0</ele><time>2026-04-28T07:13:18.999Z</time></trkpt><trkpt lat="40.05548775723209" lon="9.253224738109079"><ele>1080.25</ele><time>2026-04-28T07:13:19.999Z</time></trkpt><trkpt lat="40.055391571985005" lon="9.253117145367908"><ele>1078.5</ele><time>2026-04-28T07:13:20.999Z</time></trkpt><trkpt lat="40.05533678795391" lon="9.252962208860584"><ele>1076.75</ele><time>2026-04-28T07:13:21.999Z</time></trkpt><trkpt lat="40.05531964291611" lon="9.252759867975039"><ele>1075.0</ele><time>2026-04-28T07:13:22.999Z</time></trkpt><trkpt lat="40.05532146232499" lon="9.252539829096154"><ele>1075.0</ele><time>2026-04-28T07:13:23.999Z</time></trkpt><trkpt lat="40.05532052994096" lon="9.25234083821107"><ele>1075.0</ele><time>2026-04-28T07:13:24.999Z</time></trkpt><trkpt lat="40.055274492966284" lon="9.25219220771725"><ele>1075.0</ele><time>2026-04-28T07:13:25.999Z</time></trkpt><trkpt lat="40.055182612752205" lon="9.252091039164426"><ele>1075.0</ele><time>2026-04-28T07:13:26.999Z</time></trkpt><trkpt lat="40.05505194574947" lon="9.252060604218784"><ele>1064.0</ele><time>2026-04-28T07:13:27.999Z</time></trkpt><trkpt lat="40.05489121114474" lon="9.252074952560797"><ele>1053.0</ele><time>2026-04-28T07:13:28.999Z</time></trkpt><trkpt lat="40.05472147631134" lon="9.25210496449122"><ele>1042.0</ele><time>2026-04-28T07:13:29.999Z</time></trkpt><trkpt lat="40.054550437690885" lon="9.252110869502115"><ele>1042.0</ele><time>2026-04-28T07:13:30.999Z</time></trkpt><trkpt lat="40.05438482364866" lon="9.252120963740198"><ele>1042.0</ele><time>2026-04-28T07:13:31.999Z</time></trkpt><trkpt lat="40.05423691636168" lon="9.25217971426732"><ele>1042.0</ele><time>2026-04-28T07:13:32.998Z</time></trkpt><trkpt lat="40.0541185693558" lon="9.252290096474075"><ele>1047.25</ele><time>2026-04-28T07:13:33.998Z</time></trkpt><trkpt lat="40.05402479610383" lon="9.252445615418232"><ele>1052.5</ele><time>2026-04-28T07:13:34.998Z</time></trkpt><trkpt lat="40.053919991633876" lon="9.252593078051518"><ele>1057.75</ele><time>2026-04-28T07:13:35.998Z</time></trkpt><trkpt lat="40.053812080083645" lon="9.252710717801499"><ele>1063.0</ele><time>2026-04-28T07:13:36.998Z</time></trkpt><trkpt lat="40.053700567277886" lon="9.25275226418398"><ele>1063.0</ele><time>2026-04-28T07:13:37.998Z</time></trkpt><trkpt lat="40.05358606871374" lon="9.25271484883834"><ele>1063.0</ele><time>2026-04-28T07:13:38.998Z</time></trkpt><trkpt lat="40.05348896013162" lon="9.25260952425584"><ele>1063.0</ele><time>2026-04-28T07:13:39.998Z</time></trkpt><trkpt lat="40.053403887204865" lon="9.252455842677358"><ele>1063.0</ele><time>2026-04-28T07:13:40.998Z</time></trkpt><trkpt lat="40.05329394104695" lon="9.252307041057625"><ele>1057.3333333333333</ele><time>2026-04-28T07:13:41.998Z</time></trkpt><trkpt lat="40.053160222269305" lon="9.252165444560593"><ele>1051.6666666666667</ele><time>2026-04-28T07:13:42.998Z</time></trkpt><trkpt lat="40.053011087597724" lon="9.252046804166342"><ele>1046.0</ele><time>2026-04-28T07:13:43.998Z</time></trkpt><trkpt lat="40.05283920259934" lon="9.251951745601362"><ele>1046.0</ele><time>2026-04-28T07:13:44.998Z</time></trkpt><trkpt lat="40.05266764163791" lon="9.251870664799403"><ele>1046.0</ele><time>2026-04-28T07:13:45.998Z</time></trkpt><trkpt lat="40.05249040162809" lon="9.25181542774933"><ele>1046.0</ele><time>2026-04-28T07:13:46.998Z</time></trkpt><trkpt lat="40.05232349656239" lon="9.251731509721354"><ele>1042.0</ele><time>2026-04-28T07:13:47.998Z</time></trkpt><trkpt lat="40.05219665115262" lon="9.251582205723968"><ele>1038.0</ele><time>2026-04-28T07:13:48.998Z</time></trkpt><trkpt lat="40.05208383154941" lon="9.251428481987324"><ele>1034.0</ele><time>2026-04-28T07:13:49.998Z</time></trkpt><trkpt lat="40.05194881490319" lon="9.251275412441837"><ele>1034.0</ele><time>2026-04-28T07:13:50.998Z</time></trkpt><trkpt lat="40.05181976758315" lon="9.251129991473515"><ele>1034.0</ele><time>2026-04-28T07:13:51.998Z</time></trkpt><trkpt lat="40.05170908162435" lon="9.250994354549874"><ele>1034.0</ele><time>2026-04-28T07:13:52.998Z</time></trkpt><trkpt lat="40.05159376835607" lon="9.250900877787661"><ele>1032.0</ele><time>2026-04-28T07:13:53.998Z</time></trkpt><trkpt lat="40.05146006511458" lon="9.250872798184671"><ele>1030.0</ele><time>2026-04-28T07:13:54.998Z</time></trkpt><trkpt lat="40.051308163128716" lon="9.250908713594152"><ele>1028.0</ele><time>2026-04-28T07:13:55.998Z</time></trkpt><trkpt lat="40.051143345074735" lon="9.250980546248636"><ele>1028.0</ele><time>2026-04-28T07:13:56.998Z</time></trkpt><trkpt lat="40.05096974909589" lon="9.251060052725972"><ele>1028.0</ele><time>2026-04-28T07:13:57.998Z</time></trkpt><trkpt lat="40.05080081005559" lon="9.251129839631888"><ele>1028.0</ele><time>2026-04-28T07:13:58.998Z</time></trkpt><trkpt lat="40.050649657198136" lon="9.251184870304796"><ele>1027.75</ele><time>2026-04-28T07:13:59.998Z</time></trkpt><trkpt lat="40.050522572721604" lon="9.25120043450142"><ele>1027.5</ele><time>2026-04-28T07:14:00.998Z</time></trkpt><trkpt lat="40.05040630941143" lon="9.251176445343868"><ele>1027.25</ele><time>2026-04-28T07:14:01.998Z</time></trkpt><trkpt lat="40.05032122253027" lon="9.251072505580558"><ele>1027.0</ele><time>2026-04-28T07:14:02.998Z</time></trkpt><trkpt lat="40.05024970056182" lon="9.25091732820742"><ele>1027.0</ele><time>2026-04-28T07:14:03.998Z</time></trkpt><trkpt lat="40.05014068834995" lon="9.250798593118805"><ele>1027.0</ele><time>2026-04-28T07:14:04.998Z</time></trkpt><trkpt lat="40.049998385373485" lon="9.250719222452702"><ele>1027.0</ele><time>2026-04-28T07:14:05.998Z</time></trkpt><trkpt lat="40.04986028939053" lon="9.25066183419797"><ele>1027.0</ele><time>2026-04-28T07:14:06.998Z</time></trkpt><trkpt lat="40.04972928587462" lon="9.250627530468643"><ele>1023.5</ele><time>2026-04-28T07:14:07.998Z</time></trkpt><trkpt lat="40.049596427486144" lon="9.250661365087426"><ele>1020.0</ele><time>2026-04-28T07:14:08.998Z</time></trkpt><trkpt lat="40.049477600537124" lon="9.250744681854924"><ele>1016.5</ele><time>2026-04-28T07:14:09.998Z</time></trkpt><trkpt lat="40.049407274423885" lon="9.250892438543605"><ele>1013.0</ele><time>2026-04-28T07:14:10.998Z</time></trkpt><trkpt lat="40.049384378043946" lon="9.251073243169264"><ele>1013.0</ele><time>2026-04-28T07:14:11.998Z</time></trkpt><trkpt lat="40.04937541662898" lon="9.251249888112797"><ele>1013.0</ele><time>2026-04-28T07:14:12.998Z</time></trkpt><trkpt lat="40.04933974257277" lon="9.251406500958907"><ele>1013.0</ele><time>2026-04-28T07:14:13.998Z</time></trkpt><trkpt lat="40.04925493030232" lon="9.251518395363428"><ele>1013.0</ele><time>2026-04-28T07:14:14.998Z</time></trkpt><trkpt lat="40.04912958559793" lon="9.251559264057818"><ele>1010.3333333333334</ele><time>2026-04-28T07:14:15.998Z</time></trkpt><trkpt lat="40.04898265566013" lon="9.251530093386686"><ele>1007.6666666666667</ele><time>2026-04-28T07:14:16.998Z</time></trkpt><trkpt lat="40.04883169059504" lon="9.251464064921368"><ele>1005.0</ele><time>2026-04-28T07:14:17.998Z</time></trkpt><trkpt lat="40.048672591878464" lon="9.251403887726228"><ele>1005.0</ele><time>2026-04-28T07:14:18.998Z</time></trkpt><trkpt lat="40.048513390234326" lon="9.251338152693167"><ele>1005.0</ele><time>2026-04-28T07:14:19.998Z</time></trkpt><trkpt lat="40.04835178744603" lon="9.25132407444981"><ele>1005.0</ele><time>2026-04-28T07:14:20.998Z</time></trkpt><trkpt lat="40.04818455601811" lon="9.251353546836347"><ele>1002.6666666666667</ele><time>2026-04-28T07:14:21.998Z</time></trkpt><trkpt lat="40.048020648758936" lon="9.251431885260633"><ele>1000.3333333333334</ele><time>2026-04-28T07:14:22.998Z</time></trkpt><trkpt lat="40.04785962101151" lon="9.251512101141257"><ele>998.0</ele><time>2026-04-28T07:14:23.998Z</time></trkpt><trkpt lat="40.047701577410294" lon="9.251601965075146"><ele>1000.0</ele><time>2026-04-28T07:14:24.998Z</time></trkpt><trkpt lat="40.04753525235152" lon="9.25168639951994"><ele>1002.0</ele><time>2026-04-28T07:14:25.998Z</time></trkpt><trkpt lat="40.04736755204269" lon="9.251757797539463"><ele>1004.0</ele><time>2026-04-28T07:14:26.998Z</time></trkpt><trkpt lat="40.047185508750985" lon="9.251804396697507"><ele>1004.0</ele><time>2026-04-28T07:14:27.998Z</time></trkpt><trkpt lat="40.0469976707143" lon="9.251830223466639"><ele>1004.0</ele><time>2026-04-28T07:14:28.998Z</time></trkpt><trkpt lat="40.04683095978596" lon="9.251839835766729"><ele>1004.0</ele><time>2026-04-28T07:14:29.998Z</time></trkpt><trkpt lat="40.04666450485597" lon="9.251864037997175"><ele>994.0</ele><time>2026-04-28T07:14:30.998Z</time></trkpt><trkpt lat="40.04651952193476" lon="9.251937744699465"><ele>984.0</ele><time>2026-04-28T07:14:31.998Z</time></trkpt><trkpt lat="40.04639045218125" lon="9.25206161507767"><ele>974.0</ele><time>2026-04-28T07:14:32.998Z</time></trkpt><trkpt lat="40.046278452396116" lon="9.252229525063964"><ele>980.0</ele><time>2026-04-28T07:14:33.998Z</time></trkpt><trkpt lat="40.046182939655644" lon="9.252421570754677"><ele>986.0</ele><time>2026-04-28T07:14:34.998Z</time></trkpt><trkpt lat="40.046119546317534" lon="9.252626329947667"><ele>992.0</ele><time>2026-04-28T07:14:35.998Z</time></trkpt><trkpt lat="40.046028008635616" lon="9.252807386291654"><ele>992.0</ele><time>2026-04-28T07:14:36.998Z</time></trkpt><trkpt lat="40.04589778800926" lon="9.252941696867902"><ele>992.0</ele><time>2026-04-28T07:14:37.998Z</time></trkpt><trkpt lat="40.04575577290032" lon="9.253065874492684"><ele>992.0</ele><time>2026-04-28T07:14:38.998Z</time></trkpt><trkpt lat="40.04561140044444" lon="9.253186114558163"><ele>990.3333333333334</ele><time>2026-04-28T07:14:39.997Z</time></trkpt><trkpt lat="40.04545676812162" lon="9.253290757168283"><ele>988.6666666666667</ele><time>2026-04-28T07:14:40.997Z</time></trkpt><trkpt lat="40.04529536912482" lon="9.253371314154876"><ele>987.0</ele><time>2026-04-28T07:14:42Z</time></trkpt><trkpt lat="40.045154756080585" lon="9.253469806156414"><ele>987.0</ele><time>2026-04-28T07:14:43Z</time></trkpt><trkpt lat="40.04502411661569" lon="9.25358116586367"><ele>987.0</ele><time>2026-04-28T07:14:44Z</time></trkpt><trkpt lat="40.04490824281687" lon="9.253705254267318"><ele>987.0</ele><time>2026-04-28T07:14:45Z</time></trkpt><trkpt lat="40.04482852663024" lon="9.253863245964807"><ele>981.0</ele><time>2026-04-28T07:14:46Z</time></trkpt><trkpt lat="40.04479739488816" lon="9.254067528314247"><ele>975.0</ele><time>2026-04-28T07:14:47Z</time></trkpt><trkpt lat="40.044793347971854" lon="9.254286717779761"><ele>969.0</ele><time>2026-04-28T07:14:48Z</time></trkpt><trkpt lat="40.04480189478635" lon="9.254511452781639"><ele>969.0</ele><time>2026-04-28T07:14:49Z</time></trkpt><trkpt lat="40.04481873916742" lon="9.254746902409947"><ele>969.0</ele><time>2026-04-28T07:14:50Z</time></trkpt><trkpt lat="40.0448606220189" lon="9.254981845794855"><ele>969.0</ele><time>2026-04-28T07:14:51Z</time></trkpt><trkpt lat="40.04490050535431" lon="9.255197201402783"><ele>968.6666666666667</ele><time>2026-04-28T07:14:51.999Z</time></trkpt><trkpt lat="40.04491072088071" lon="9.255403077485237"><ele>968.3333333333334</ele><time>2026-04-28T07:14:52.999Z</time></trkpt><trkpt lat="40.04487539647584" lon="9.255603060481908"><ele>968.0</ele><time>2026-04-28T07:14:53.999Z</time></trkpt><trkpt lat="40.044800445432735" lon="9.255789817586884"><ele>972.5</ele><time>2026-04-28T07:14:55Z</time></trkpt><trkpt lat="40.04471828544284" lon="9.25596262252808"><ele>977.0</ele><time>2026-04-28T07:14:56Z</time></trkpt><trkpt lat="40.04462702111511" lon="9.25610402909013"><ele>981.5</ele><time>2026-04-28T07:14:57Z</time></trkpt><trkpt lat="40.04453786657111" lon="9.25620906236722"><ele>986.0</ele><time>2026-04-28T07:14:58Z</time></trkpt><trkpt lat="40.04443507077496" lon="9.256241281956335"><ele>986.0</ele><time>2026-04-28T07:14:59Z</time></trkpt><trkpt lat="40.0443244148541" lon="9.256204752337744"><ele>986.0</ele><time>2026-04-28T07:15:00Z</time></trkpt><trkpt lat="40.04423520534267" lon="9.256104536632463"><ele>986.0</ele><time>2026-04-28T07:15:01Z</time></trkpt><trkpt lat="40.0441837399918" lon="9.2559565071922"><ele>986.0</ele><time>2026-04-28T07:15:02Z</time></trkpt><trkpt lat="40.04413212684604" lon="9.255795938250651"><ele>990.3333333333334</ele><time>2026-04-28T07:15:03Z</time></trkpt><trkpt lat="40.044038675980424" lon="9.25564737539398"><ele>994.6666666666667</ele><time>2026-04-28T07:15:04Z</time></trkpt><trkpt lat="40.04391268461058" lon="9.25552082034107"><ele>999.0</ele><time>2026-04-28T07:15:05Z</time></trkpt><trkpt lat="40.04374430405925" lon="9.25542863870473"><ele>988.6666666666667</ele><time>2026-04-28T07:15:06Z</time></trkpt><trkpt lat="40.04357212409914" lon="9.25538352474804"><ele>978.3333333333334</ele><time>2026-04-28T07:15:07Z</time></trkpt><trkpt lat="40.04338293194804" lon="9.255338066650967"><ele>968.0</ele><time>2026-04-28T07:15:08Z</time></trkpt><trkpt lat="40.04318500073982" lon="9.255287903984753"><ele>967.3333333333334</ele><time>2026-04-28T07:15:09Z</time></trkpt><trkpt lat="40.042982512576856" lon="9.255247331124894"><ele>966.6666666666667</ele><time>2026-04-28T07:15:10Z</time></trkpt><trkpt lat="40.04277523124664" lon="9.25521530541739"><ele>966.0</ele><time>2026-04-28T07:15:11Z</time></trkpt><trkpt lat="40.04257820615163" lon="9.25520971663327"><ele>961.6666666666667</ele><time>2026-04-28T07:15:12Z</time></trkpt><trkpt lat="40.04238990215145" lon="9.255218616233897"><ele>957.3333333333334</ele><time>2026-04-28T07:15:13Z</time></trkpt><trkpt lat="40.04220781529884" lon="9.255247965983022"><ele>953.0</ele><time>2026-04-28T07:15:14Z</time></trkpt><trkpt lat="40.042032293706505" lon="9.25532343062999"><ele>953.0</ele><time>2026-04-28T07:15:15Z</time></trkpt><trkpt lat="40.04185870444809" lon="9.255411234080428"><ele>953.0</ele><time>2026-04-28T07:15:16Z</time></trkpt><trkpt lat="40.04167511657819" lon="9.255462821249576"><ele>953.0</ele><time>2026-04-28T07:15:17Z</time></trkpt><trkpt lat="40.04148261878887" lon="9.25544885919557"><ele>953.0</ele><time>2026-04-28T07:15:18Z</time></trkpt><trkpt lat="40.0412968144451" lon="9.255413474720768"><ele>953.0</ele><time>2026-04-28T07:15:19Z</time></trkpt><trkpt lat="40.041111762581124" lon="9.255401854639896"><ele>953.0</ele><time>2026-04-28T07:15:20Z</time></trkpt><trkpt lat="40.04093204851445" lon="9.255438514514953"><ele>950.75</ele><time>2026-04-28T07:15:21Z</time></trkpt><trkpt lat="40.040785720036446" lon="9.25547828139031"><ele>948.5</ele><time>2026-04-28T07:15:22Z</time></trkpt><trkpt lat="40.04064319165336" lon="9.255472858558845"><ele>946.25</ele><time>2026-04-28T07:15:23Z</time></trkpt><trkpt lat="40.04051403058467" lon="9.255395392101388"><ele>944.0</ele><time>2026-04-28T07:15:24Z</time></trkpt><trkpt lat="40.040374965287285" lon="9.255302752121377"><ele>944.0</ele><time>2026-04-28T07:15:25Z</time></trkpt><trkpt lat="40.040217742633644" lon="9.25529930277698"><ele>944.0</ele><time>2026-04-28T07:15:26Z</time></trkpt><trkpt lat="40.04006039287568" lon="9.255359776819512"><ele>944.0</ele><time>2026-04-28T07:15:27Z</time></trkpt><trkpt lat="40.0398991724143" lon="9.255447056758147"><ele>946.6666666666667</ele><time>2026-04-28T07:15:28Z</time></trkpt><trkpt lat="40.039732405725104" lon="9.255543170903783"><ele>949.3333333333333</ele><time>2026-04-28T07:15:29Z</time></trkpt><trkpt lat="40.03956897948268" lon="9.255655429415054"><ele>952.0</ele><time>2026-04-28T07:15:30Z</time></trkpt><trkpt lat="40.03941258438678" lon="9.255784217506559"><ele>952.0</ele><time>2026-04-28T07:15:31Z</time></trkpt><trkpt lat="40.039266510271155" lon="9.255939521559771"><ele>952.0</ele><time>2026-04-28T07:15:32Z</time></trkpt><trkpt lat="40.03911831785093" lon="9.25609112759525"><ele>952.0</ele><time>2026-04-28T07:15:33Z</time></trkpt><trkpt lat="40.03895747046618" lon="9.256208166369497"><ele>949.0</ele><time>2026-04-28T07:15:34Z</time></trkpt><trkpt lat="40.038782473708146" lon="9.25630035027669"><ele>946.0</ele><time>2026-04-28T07:15:35Z</time></trkpt><trkpt lat="40.03861679290048" lon="9.256361361515733"><ele>943.0</ele><time>2026-04-28T07:15:36Z</time></trkpt><trkpt lat="40.038472298871426" lon="9.256398093430693"><ele>943.0</ele><time>2026-04-28T07:15:37Z</time></trkpt><trkpt lat="40.0383376995081" lon="9.256439145278103"><ele>943.0</ele><time>2026-04-28T07:15:38Z</time></trkpt><trkpt lat="40.03822972752284" lon="9.256518150246173"><ele>943.0</ele><time>2026-04-28T07:15:39Z</time></trkpt><trkpt lat="40.038145905796185" lon="9.256648823149932"><ele>943.0</ele><time>2026-04-28T07:15:40Z</time></trkpt><trkpt lat="40.03806029297693" lon="9.256787321378026"><ele>945.0</ele><time>2026-04-28T07:15:41Z</time></trkpt><trkpt lat="40.037946733863855" lon="9.256901529827486"><ele>947.0</ele><time>2026-04-28T07:15:42Z</time></trkpt><trkpt lat="40.03780757422434" lon="9.256960921168421"><ele>949.0</ele><time>2026-04-28T07:15:42.999Z</time></trkpt><trkpt lat="40.037678299600415" lon="9.256996066410737"><ele>951.0</ele><time>2026-04-28T07:15:43.999Z</time></trkpt><trkpt lat="40.03755165155168" lon="9.25699752411904"><ele>955.5999999999999</ele><time>2026-04-28T07:15:44.999Z</time></trkpt><trkpt lat="40.03743432717144" lon="9.25697426093416"><ele>960.1999999999999</ele><time>2026-04-28T07:15:45.999Z</time></trkpt><trkpt lat="40.03732369823516" lon="9.256945689473419"><ele>964.8000000000001</ele><time>2026-04-28T07:15:46.999Z</time></trkpt><trkpt lat="40.03721838551964" lon="9.256927252622889"><ele>969.4000000000001</ele><time>2026-04-28T07:15:47.999Z</time></trkpt><trkpt lat="40.03712157620891" lon="9.256906113336033"><ele>974.0</ele><time>2026-04-28T07:15:48.999Z</time></trkpt><trkpt lat="40.03703132641086" lon="9.256860258095326"><ele>974.0</ele><time>2026-04-28T07:15:49.999Z</time></trkpt><trkpt lat="40.03696181446702" lon="9.256766574212973"><ele>974.0000000000001</ele><time>2026-04-28T07:15:50.999Z</time></trkpt><trkpt lat="40.03694753691974" lon="9.256632170185751"><ele>974.0000000000001</ele><time>2026-04-28T07:15:51.999Z</time></trkpt><trkpt lat="40.03695440286106" lon="9.256485037736422"><ele>974.0</ele><time>2026-04-28T07:15:52.999Z</time></trkpt><trkpt lat="40.036974345440235" lon="9.256340350316174"><ele>974.0</ele><time>2026-04-28T07:15:53.999Z</time></trkpt><trkpt lat="40.037035509816256" lon="9.256210754041273"><ele>972.0</ele><time>2026-04-28T07:15:54.999Z</time></trkpt><trkpt lat="40.03714304298147" lon="9.256128774652732"><ele>970.0</ele><time>2026-04-28T07:15:55.999Z</time></trkpt><trkpt lat="40.03726505781797" lon="9.256109033728142"><ele>968.0</ele><time>2026-04-28T07:15:56.999Z</time></trkpt><trkpt lat="40.03739372829852" lon="9.256099097621199"><ele>966.0</ele><time>2026-04-28T07:15:57.999Z</time></trkpt><trkpt lat="40.037505380937766" lon="9.256020598429938"><ele>966.0</ele><time>2026-04-28T07:15:58.999Z</time></trkpt><trkpt lat="40.03759951537684" lon="9.255899725035118"><ele>966.0</ele><time>2026-04-28T07:15:59.999Z</time></trkpt><trkpt lat="40.037691901834435" lon="9.255769557255556"><ele>966.0</ele><time>2026-04-28T07:16:00.999Z</time></trkpt><trkpt lat="40.037786121354586" lon="9.255640795298044"><ele>966.0</ele><time>2026-04-28T07:16:01.999Z</time></trkpt><trkpt lat="40.03788293615819" lon="9.255502406740545"><ele>977.6666666666667</ele><time>2026-04-28T07:16:02.999Z</time></trkpt><trkpt lat="40.037990009154505" lon="9.255364922729603"><ele>989.3333333333334</ele><time>2026-04-28T07:16:03.999Z</time></trkpt><trkpt lat="40.03811449759054" lon="9.255241603796227"><ele>1001.0</ele><time>2026-04-28T07:16:04.999Z</time></trkpt><trkpt lat="40.03822581309747" lon="9.255099153171196"><ele>995.6666666666667</ele><time>2026-04-28T07:16:05.999Z</time></trkpt><trkpt lat="40.03832363617929" lon="9.254938105749275"><ele>990.3333333333333</ele><time>2026-04-28T07:16:06.999Z</time></trkpt><trkpt lat="40.0384131323307" lon="9.2547624185627"><ele>985.0</ele><time>2026-04-28T07:16:07.999Z</time></trkpt><trkpt lat="40.0384960272176" lon="9.254579277923659"><ele>985.0</ele><time>2026-04-28T07:16:08.999Z</time></trkpt><trkpt lat="40.038579164355745" lon="9.254406486225871"><ele>985.0</ele><time>2026-04-28T07:16:09.999Z</time></trkpt><trkpt lat="40.038642129989796" lon="9.25422115381832"><ele>985.0</ele><time>2026-04-28T07:16:10.999Z</time></trkpt><trkpt lat="40.038676959032784" lon="9.254033783234751"><ele>988.0</ele><time>2026-04-28T07:16:11.999Z</time></trkpt><trkpt lat="40.038660589349675" lon="9.253862661389071"><ele>991.0</ele><time>2026-04-28T07:16:12.999Z</time></trkpt><trkpt lat="40.038601983535344" lon="9.253710286517247"><ele>994.0</ele><time>2026-04-28T07:16:13.999Z</time></trkpt><trkpt lat="40.03853408828206" lon="9.253558124810372"><ele>997.0</ele><time>2026-04-28T07:16:14.999Z</time></trkpt><trkpt lat="40.038503610892086" lon="9.253421416886917"><ele>997.0</ele><time>2026-04-28T07:16:15.999Z</time></trkpt><trkpt lat="40.03852373488419" lon="9.253295852184918"><ele>997.0</ele><time>2026-04-28T07:16:16.999Z</time></trkpt><trkpt lat="40.038610241968684" lon="9.253220747707138"><ele>997.0</ele><time>2026-04-28T07:16:17.999Z</time></trkpt><trkpt lat="40.03872160998508" lon="9.253212581663433"><ele>997.0</ele><time>2026-04-28T07:16:18.999Z</time></trkpt><trkpt lat="40.038846674626335" lon="9.253231861410704"><ele>997.0</ele><time>2026-04-28T07:16:19.999Z</time></trkpt><trkpt lat="40.038972229442244" lon="9.253251652017925"><ele>997.0</ele><time>2026-04-28T07:16:20.999Z</time></trkpt><trkpt lat="40.03911482324746" lon="9.253274117971841"><ele>997.0</ele><time>2026-04-28T07:16:21.999Z</time></trkpt><trkpt lat="40.039261523339505" lon="9.253275257365651"><ele>997.0</ele><time>2026-04-28T07:16:22.999Z</time></trkpt><trkpt lat="40.03940561676933" lon="9.253215770503433"><ele>997.0</ele><time>2026-04-28T07:16:23.999Z</time></trkpt><trkpt lat="40.03954814419826" lon="9.253097348986227"><ele>1000.0</ele><time>2026-04-28T07:16:24.999Z</time></trkpt><trkpt lat="40.039680722341615" lon="9.252968013040853"><ele>1003.0</ele><time>2026-04-28T07:16:25.999Z</time></trkpt><trkpt lat="40.03981374331461" lon="9.252831094556024"><ele>1006.0</ele><time>2026-04-28T07:16:26.999Z</time></trkpt><trkpt lat="40.039958840014926" lon="9.252689110919428"><ele>1006.0</ele><time>2026-04-28T07:16:27.999Z</time></trkpt><trkpt lat="40.040101908706525" lon="9.252560129802044"><ele>1006.0</ele><time>2026-04-28T07:16:28.999Z</time></trkpt><trkpt lat="40.04022347054676" lon="9.252409269128787"><ele>1006.0</ele><time>2026-04-28T07:16:29.999Z</time></trkpt><trkpt lat="40.04030549399137" lon="9.252225239266906"><ele>1006.0</ele><time>2026-04-28T07:16:30.999Z</time></trkpt><trkpt lat="40.04035657558994" lon="9.25200019616266"><ele>1006.0</ele><time>2026-04-28T07:16:31.999Z</time></trkpt><trkpt lat="40.04040428583328" lon="9.251767709906389"><ele>1006.0</ele><time>2026-04-28T07:16:32.999Z</time></trkpt><trkpt lat="40.04046208627714" lon="9.25153985810255"><ele>1011.6666666666666</ele><time>2026-04-28T07:16:33.999Z</time></trkpt><trkpt lat="40.04052550638576" lon="9.251303109012959"><ele>1017.3333333333333</ele><time>2026-04-28T07:16:34.999Z</time></trkpt><trkpt lat="40.040586882347476" lon="9.251065511750774"><ele>1023.0</ele><time>2026-04-28T07:16:35.999Z</time></trkpt><trkpt lat="40.040635762004165" lon="9.250832422467683"><ele>1025.3333333333333</ele><time>2026-04-28T07:16:36.999Z</time></trkpt><trkpt lat="40.04063868120814" lon="9.250591724119696"><ele>1027.6666666666665</ele><time>2026-04-28T07:16:37.999Z</time></trkpt><trkpt lat="40.040618377553834" lon="9.250353840915054"><ele>1030.0</ele><time>2026-04-28T07:16:38.999Z</time></trkpt><trkpt lat="40.040566902832" lon="9.2501256378113"><ele>1030.0</ele><time>2026-04-28T07:16:39.999Z</time></trkpt><trkpt lat="40.04049513977692" lon="9.249912781804207"><ele>1030.0</ele><time>2026-04-28T07:16:40.999Z</time></trkpt><trkpt lat="40.040411144971905" lon="9.2497235169261"><ele>1030.0</ele><time>2026-04-28T07:16:41.999Z</time></trkpt><trkpt lat="40.0403424165364" lon="9.249562556050673"><ele>1030.2</ele><time>2026-04-28T07:16:42.999Z</time></trkpt><trkpt lat="40.04029756403357" lon="9.249423687563857"><ele>1030.4</ele><time>2026-04-28T07:16:43.999Z</time></trkpt><trkpt lat="40.040324273191345" lon="9.249296457534818"><ele>1030.6</ele><time>2026-04-28T07:16:44.999Z</time></trkpt><trkpt lat="40.04040435289604" lon="9.249214239609481"><ele>1030.8</ele><time>2026-04-28T07:16:45.999Z</time></trkpt><trkpt lat="40.04052271934161" lon="9.249197509861684"><ele>1031.0</ele><time>2026-04-28T07:16:46.999Z</time></trkpt><trkpt lat="40.040658888765186" lon="9.249227256377766"><ele>1024.6666666666667</ele><time>2026-04-28T07:16:48Z</time></trkpt><trkpt lat="40.04080602649113" lon="9.249277892911838"><ele>1018.3333333333333</ele><time>2026-04-28T07:16:48.999Z</time></trkpt><trkpt lat="40.04096779407667" lon="9.249342364152337"><ele>1012.0</ele><time>2026-04-28T07:16:49.999Z</time></trkpt><trkpt lat="40.041133808778916" lon="9.249401319569138"><ele>1012.0</ele><time>2026-04-28T07:16:50.999Z</time></trkpt><trkpt lat="40.0412854932105" lon="9.24945746976926"><ele>1012.0</ele><time>2026-04-28T07:16:52Z</time></trkpt><trkpt lat="40.04141901515427" lon="9.249458116971352"><ele>1012.0</ele><time>2026-04-28T07:16:53Z</time></trkpt><trkpt lat="40.041523293803635" lon="9.249364984948263"><ele>1012.0</ele><time>2026-04-28T07:16:54Z</time></trkpt><trkpt lat="40.04157462189235" lon="9.249210616800012"><ele>1012.0</ele><time>2026-04-28T07:16:55Z</time></trkpt><trkpt lat="40.041559251404585" lon="9.249012654133917"><ele>1012.0</ele><time>2026-04-28T07:16:56Z</time></trkpt><trkpt lat="40.041516112576275" lon="9.248819210286118"><ele>1012.0</ele><time>2026-04-28T07:16:57Z</time></trkpt><trkpt lat="40.04149152347223" lon="9.248613564048174"><ele>1016.0</ele><time>2026-04-28T07:16:57.999Z</time></trkpt><trkpt lat="40.0415158115052" lon="9.248426974437907"><ele>1020.0</ele><time>2026-04-28T07:16:58.999Z</time></trkpt><trkpt lat="40.04159803715014" lon="9.248267366540913"><ele>1024.0</ele><time>2026-04-28T07:17:00Z</time></trkpt><trkpt lat="40.041723795258" lon="9.248118137638544"><ele>1024.0</ele><time>2026-04-28T07:17:01Z</time></trkpt><trkpt lat="40.04183188432604" lon="9.247940676799828"><ele>1024.0</ele><time>2026-04-28T07:17:02Z</time></trkpt><trkpt lat="40.04191433747654" lon="9.247741432215712"><ele>1024.0</ele><time>2026-04-28T07:17:03Z</time></trkpt><trkpt lat="40.04196768916113" lon="9.247515688192015"><ele>1026.6666666666665</ele><time>2026-04-28T07:17:04Z</time></trkpt><trkpt lat="40.041966075681046" lon="9.24727187062432"><ele>1029.3333333333333</ele><time>2026-04-28T07:17:05Z</time></trkpt><trkpt lat="40.04188861622698" lon="9.247028702921417"><ele>1032.0</ele><time>2026-04-28T07:17:06Z</time></trkpt><trkpt lat="40.04177775038893" lon="9.24681067771027"><ele>1032.0</ele><time>2026-04-28T07:17:07Z</time></trkpt><trkpt lat="40.041671135435685" lon="9.246609446293407"><ele>1032.0</ele><time>2026-04-28T07:17:08Z</time></trkpt><trkpt lat="40.04162808930707" lon="9.246443035931383"><ele>1032.0</ele><time>2026-04-28T07:17:09Z</time></trkpt><trkpt lat="40.04164137605326" lon="9.246280754829876"><ele>1032.0</ele><time>2026-04-28T07:17:10Z</time></trkpt><trkpt lat="40.041896982130254" lon="9.246301491253506"><ele>1031.0</ele><time>2026-04-28T07:17:11Z</time></trkpt><trkpt lat="40.04203707020487" lon="9.246263157659214"><ele>1030.0</ele><time>2026-04-28T07:17:12Z</time></trkpt><trkpt lat="40.042183029093664" lon="9.246281715084832"><ele>1029.0</ele><time>2026-04-28T07:17:13Z</time></trkpt><trkpt lat="40.04233568911715" lon="9.246316589352007"><ele>1028.0</ele><time>2026-04-28T07:17:14Z</time></trkpt><trkpt lat="40.04248427165745" lon="9.24635254432412"><ele>1028.0</ele><time>2026-04-28T07:17:15Z</time></trkpt><trkpt lat="40.04262391693183" lon="9.246330923038506"><ele>1028.0</ele><time>2026-04-28T07:17:16Z</time></trkpt><trkpt lat="40.04274073336187" lon="9.246225924109247"><ele>1028.0</ele><time>2026-04-28T07:17:17Z</time></trkpt><trkpt lat="40.042815168260354" lon="9.246056057269863"><ele>1028.0</ele><time>2026-04-28T07:17:18Z</time></trkpt><trkpt lat="40.04283085728891" lon="9.245855964902367"><ele>1028.0</ele><time>2026-04-28T07:17:19Z</time></trkpt><trkpt lat="40.04279321891678" lon="9.245641570179899"><ele>1028.0</ele><time>2026-04-28T07:17:20Z</time></trkpt><trkpt lat="40.042759315980824" lon="9.245432538028238"><ele>1028.0</ele><time>2026-04-28T07:17:21Z</time></trkpt><trkpt lat="40.04273689701664" lon="9.245214698968784"><ele>1033.0</ele><time>2026-04-28T07:17:22Z</time></trkpt><trkpt lat="40.04274857342386" lon="9.244992628913481"><ele>1038.0</ele><time>2026-04-28T07:17:23Z</time></trkpt><trkpt lat="40.04280924005931" lon="9.244775712402213"><ele>1043.0</ele><time>2026-04-28T07:17:24Z</time></trkpt><trkpt lat="40.042884508388454" lon="9.244574808884781"><ele>1048.3333333333335</ele><time>2026-04-28T07:17:25Z</time></trkpt><trkpt lat="40.0429459199104" lon="9.244359661130453"><ele>1053.6666666666667</ele><time>2026-04-28T07:17:26Z</time></trkpt><trkpt lat="40.04301150516123" lon="9.244144889824154"><ele>1059.0</ele><time>2026-04-28T07:17:27Z</time></trkpt><trkpt lat="40.04306843132856" lon="9.243935561198027"><ele>1062.3333333333333</ele><time>2026-04-28T07:17:28Z</time></trkpt><trkpt lat="40.04314001832887" lon="9.243725342527023"><ele>1065.6666666666665</ele><time>2026-04-28T07:17:29Z</time></trkpt><trkpt lat="40.04325096124838" lon="9.243538639700226"><ele>1069.0</ele><time>2026-04-28T07:17:30Z</time></trkpt><trkpt lat="40.043384439405685" lon="9.243379175156617"><ele>1064.6666666666665</ele><time>2026-04-28T07:17:31Z</time></trkpt><trkpt lat="40.04348570636594" lon="9.24322085174631"><ele>1060.3333333333333</ele><time>2026-04-28T07:17:32Z</time></trkpt><trkpt lat="40.043553250783994" lon="9.243051616334412"><ele>1056.0</ele><time>2026-04-28T07:17:33Z</time></trkpt><trkpt lat="40.0435296919666" lon="9.242839703116928"><ele>1056.0</ele><time>2026-04-28T07:17:33.999Z</time></trkpt><trkpt lat="40.04346989107053" lon="9.242645570420276"><ele>1056.0</ele><time>2026-04-28T07:17:34.999Z</time></trkpt><trkpt lat="40.04342580787918" lon="9.242483386131294"><ele>1056.0</ele><time>2026-04-28T07:17:35.999Z</time></trkpt><trkpt lat="40.04348749103517" lon="9.242350098248862"><ele>1056.0</ele><time>2026-04-28T07:17:36.999Z</time></trkpt><trkpt lat="40.043625893267865" lon="9.242279531000744"><ele>1064.0</ele><time>2026-04-28T07:17:37.999Z</time></trkpt><trkpt lat="40.04377337439418" lon="9.24226939394658"><ele>1072.0</ele><time>2026-04-28T07:17:38.999Z</time></trkpt><trkpt lat="40.04392074488732" lon="9.24225735785236"><ele>1080.0</ele><time>2026-04-28T07:17:39.999Z</time></trkpt><trkpt lat="40.04407524939374" lon="9.242177548791815"><ele>1073.0</ele><time>2026-04-28T07:17:40.999Z</time></trkpt><trkpt lat="40.04419615209269" lon="9.242028426083559"><ele>1066.0</ele><time>2026-04-28T07:17:41.999Z</time></trkpt><trkpt lat="40.04430115080451" lon="9.241843807163777"><ele>1059.0</ele><time>2026-04-28T07:17:42.999Z</time></trkpt><trkpt lat="40.04440477297488" lon="9.241642130992783"><ele>1066.0</ele><time>2026-04-28T07:17:43.999Z</time></trkpt><trkpt lat="40.04452317909026" lon="9.241455732979988"><ele>1073.0</ele><time>2026-04-28T07:17:44.999Z</time></trkpt><trkpt lat="40.044638513052966" lon="9.241285863582469"><ele>1080.0</ele><time>2026-04-28T07:17:45.999Z</time></trkpt><trkpt lat="40.04472353177358" lon="9.24112398021648"><ele>1080.0</ele><time>2026-04-28T07:17:46.999Z</time></trkpt><trkpt lat="40.04476287217616" lon="9.240944482172928"><ele>1080.0</ele><time>2026-04-28T07:17:47.999Z</time></trkpt><trkpt lat="40.04475492436579" lon="9.240744046673198"><ele>1080.0</ele><time>2026-04-28T07:17:48.999Z</time></trkpt><trkpt lat="40.044710198233055" lon="9.24052022814636"><ele>1083.75</ele><time>2026-04-28T07:17:49.999Z</time></trkpt><trkpt lat="40.04468418241444" lon="9.240308433558662"><ele>1087.5</ele><time>2026-04-28T07:17:50.999Z</time></trkpt><trkpt lat="40.044696343283" lon="9.240108423296462"><ele>1091.25</ele><time>2026-04-28T07:17:51.999Z</time></trkpt><trkpt lat="40.044743362237995" lon="9.239950718790661"><ele>1095.0</ele><time>2026-04-28T07:17:52.999Z</time></trkpt><trkpt lat="40.044806951220174" lon="9.239828214967655"><ele>1098.25</ele><time>2026-04-28T07:17:53.999Z</time></trkpt><trkpt lat="40.04489724174918" lon="9.23972827472813"><ele>1101.5</ele><time>2026-04-28T07:17:54.999Z</time></trkpt><trkpt lat="40.045053799710395" lon="9.23966111720024"><ele>1104.75</ele><time>2026-04-28T07:17:55.999Z</time></trkpt><trkpt lat="40.045187468143745" lon="9.23956645370356"><ele>1108.0</ele><time>2026-04-28T07:17:56.999Z</time></trkpt><trkpt lat="40.045290475067965" lon="9.239403924760685"><ele>1105.3333333333333</ele><time>2026-04-28T07:17:57.999Z</time></trkpt><trkpt lat="40.045352619677736" lon="9.239194436966146"><ele>1102.6666666666667</ele><time>2026-04-28T07:17:58.999Z</time></trkpt><trkpt lat="40.04539496644551" lon="9.238996581537695"><ele>1100.0</ele><time>2026-04-28T07:17:59.999Z</time></trkpt><trkpt lat="40.045462207971724" lon="9.238854539019018"><ele>1100.0</ele><time>2026-04-28T07:18:00.999Z</time></trkpt><trkpt lat="40.04554811760852" lon="9.238813750925912"><ele>1100.0</ele><time>2026-04-28T07:18:01.999Z</time></trkpt><trkpt lat="40.04567628932769" lon="9.238848610026183"><ele>1100.0</ele><time>2026-04-28T07:18:02.999Z</time></trkpt><trkpt lat="40.045822333645866" lon="9.238903986885651"><ele>1100.0</ele><time>2026-04-28T07:18:03.999Z</time></trkpt><trkpt lat="40.04595414594192" lon="9.23892517571893"><ele>1096.0</ele><time>2026-04-28T07:18:04.999Z</time></trkpt><trkpt lat="40.04611280334659" lon="9.238903635922437"><ele>1092.0</ele><time>2026-04-28T07:18:05.999Z</time></trkpt><trkpt lat="40.04626762330399" lon="9.238824743233131"><ele>1088.0</ele><time>2026-04-28T07:18:06.999Z</time></trkpt><trkpt lat="40.04640976911851" lon="9.238701448336288"><ele>1088.0</ele><time>2026-04-28T07:18:07.999Z</time></trkpt><trkpt lat="40.04656476519374" lon="9.238577005864856"><ele>1088.0</ele><time>2026-04-28T07:18:08.999Z</time></trkpt><trkpt lat="40.046739810647914" lon="9.238478539659546"><ele>1088.0</ele><time>2026-04-28T07:18:09.999Z</time></trkpt><trkpt lat="40.046913993757904" lon="9.238387207632385"><ele>1084.6666666666667</ele><time>2026-04-28T07:18:10.999Z</time></trkpt><trkpt lat="40.04707652969681" lon="9.238283622597901"><ele>1081.3333333333333</ele><time>2026-04-28T07:18:11.999Z</time></trkpt><trkpt lat="40.04722097768138" lon="9.238168499005168"><ele>1078.0</ele><time>2026-04-28T07:18:12.999Z</time></trkpt><trkpt lat="40.04733249848892" lon="9.238005818950322"><ele>1077.6666666666665</ele><time>2026-04-28T07:18:13.999Z</time></trkpt><trkpt lat="40.0474080392845" lon="9.237820098427843"><ele>1077.3333333333333</ele><time>2026-04-28T07:18:14.999Z</time></trkpt><trkpt lat="40.04746048028813" lon="9.237600935882917"><ele>1077.0</ele><time>2026-04-28T07:18:15.999Z</time></trkpt><trkpt lat="40.04755470182231" lon="9.237407926507354"><ele>1086.3333333333333</ele><time>2026-04-28T07:18:16.999Z</time></trkpt><trkpt lat="40.04769264014503" lon="9.237261836214548"><ele>1095.6666666666665</ele><time>2026-04-28T07:18:17.999Z</time></trkpt><trkpt lat="40.047851995365235" lon="9.23713953882017"><ele>1105.0</ele><time>2026-04-28T07:18:18.999Z</time></trkpt><trkpt lat="40.04799811101571" lon="9.23701720492392"><ele>1105.0</ele><time>2026-04-28T07:18:19.999Z</time></trkpt><trkpt lat="40.04814322750578" lon="9.236884154012708"><ele>1105.0</ele><time>2026-04-28T07:18:20.999Z</time></trkpt><trkpt lat="40.0483009353244" lon="9.236761665105947"><ele>1105.0</ele><time>2026-04-28T07:18:21.999Z</time></trkpt><trkpt lat="40.048464245140025" lon="9.236659415753783"><ele>1107.0</ele><time>2026-04-28T07:18:22.999Z</time></trkpt><trkpt lat="40.048634093092076" lon="9.236586636577726"><ele>1109.0</ele><time>2026-04-28T07:18:23.999Z</time></trkpt><trkpt lat="40.04880075118297" lon="9.236508441996406"><ele>1111.0</ele><time>2026-04-28T07:18:24.999Z</time></trkpt><trkpt lat="40.0489358899566" lon="9.236372486476894"><ele>1111.0</ele><time>2026-04-28T07:18:25.999Z</time></trkpt><trkpt lat="40.04904764960359" lon="9.236198902572443"><ele>1111.0</ele><time>2026-04-28T07:18:26.999Z</time></trkpt><trkpt lat="40.049141372748785" lon="9.23600334280932"><ele>1111.0</ele><time>2026-04-28T07:18:27.999Z</time></trkpt><trkpt lat="40.04925884980776" lon="9.235835174200291"><ele>1105.0</ele><time>2026-04-28T07:18:28.999Z</time></trkpt><trkpt lat="40.049405797230406" lon="9.23574154495259"><ele>1099.0</ele><time>2026-04-28T07:18:29.999Z</time></trkpt><trkpt lat="40.04956116630841" lon="9.235688353634718"><ele>1093.0</ele><time>2026-04-28T07:18:30.999Z</time></trkpt><trkpt lat="40.049725429891105" lon="9.235637069052707"><ele>1098.0</ele><time>2026-04-28T07:18:31.999Z</time></trkpt><trkpt lat="40.04989343980928" lon="9.235563777385234"><ele>1103.0</ele><time>2026-04-28T07:18:32.999Z</time></trkpt><trkpt lat="40.050055411353306" lon="9.235481975836533"><ele>1108.0</ele><time>2026-04-28T07:18:33.999Z</time></trkpt><trkpt lat="40.050215229266946" lon="9.23539918930933"><ele>1108.0</ele><time>2026-04-28T07:18:34.999Z</time></trkpt><trkpt lat="40.050387275607214" lon="9.235335374849207"><ele>1108.0</ele><time>2026-04-28T07:18:35.999Z</time></trkpt><trkpt lat="40.05057293004418" lon="9.235277994116322"><ele>1108.0</ele><time>2026-04-28T07:18:36.999Z</time></trkpt><trkpt lat="40.05075627808812" lon="9.235230592672288"><ele>1107.6666666666665</ele><time>2026-04-28T07:18:37.999Z</time></trkpt><trkpt lat="40.0509439746794" lon="9.235196800158944"><ele>1107.3333333333333</ele><time>2026-04-28T07:18:38.999Z</time></trkpt><trkpt lat="40.05112881133353" lon="9.23512868813373"><ele>1107.0</ele><time>2026-04-28T07:18:39.998Z</time></trkpt><trkpt lat="40.051313560898826" lon="9.23501992974844"><ele>1107.0</ele><time>2026-04-28T07:18:40.998Z</time></trkpt><trkpt lat="40.051492705509226" lon="9.234909554367555"><ele>1107.0</ele><time>2026-04-28T07:18:41.998Z</time></trkpt><trkpt lat="40.051667035939445" lon="9.23480131487175"><ele>1107.0</ele><time>2026-04-28T07:18:42.998Z</time></trkpt><trkpt lat="40.05185150541554" lon="9.234690954872171"><ele>1114.6666666666667</ele><time>2026-04-28T07:18:43.998Z</time></trkpt><trkpt lat="40.05202930492569" lon="9.234582098795682"><ele>1122.3333333333335</ele><time>2026-04-28T07:18:44.998Z</time></trkpt><trkpt lat="40.05220954891014" lon="9.234465255083089"><ele>1130.0</ele><time>2026-04-28T07:18:45.998Z</time></trkpt><trkpt lat="40.05239811989899" lon="9.234360731333593"><ele>1126.3333333333335</ele><time>2026-04-28T07:18:46.998Z</time></trkpt><trkpt lat="40.052583074512285" lon="9.234245547435549"><ele>1122.6666666666667</ele><time>2026-04-28T07:18:47.998Z</time></trkpt><trkpt lat="40.05276838696271" lon="9.234125464701028"><ele>1119.0</ele><time>2026-04-28T07:18:48.998Z</time></trkpt><trkpt lat="40.05295797933974" lon="9.23400949245758"><ele>1123.3333333333333</ele><time>2026-04-28T07:18:49.998Z</time></trkpt><trkpt lat="40.05313242102518" lon="9.233899579829176"><ele>1127.6666666666665</ele><time>2026-04-28T07:18:50.998Z</time></trkpt><trkpt lat="40.0532970229938" lon="9.233798074460985"><ele>1132.0</ele><time>2026-04-28T07:18:51.998Z</time></trkpt><trkpt lat="40.053450043764784" lon="9.23373869105849"><ele>1132.0</ele><time>2026-04-28T07:18:53Z</time></trkpt><trkpt lat="40.053617027009444" lon="9.23375475218544"><ele>1132.0</ele><time>2026-04-28T07:18:54Z</time></trkpt><trkpt lat="40.0537988058182" lon="9.233815118756095"><ele>1132.0</ele><time>2026-04-28T07:18:55Z</time></trkpt><trkpt lat="40.05395407999128" lon="9.233858054214855"><ele>1132.0</ele><time>2026-04-28T07:18:55.999Z</time></trkpt><trkpt lat="40.05408598080748" lon="9.233813847047598"><ele>1132.0</ele><time>2026-04-28T07:18:57Z</time></trkpt><trkpt lat="40.054196950091104" lon="9.233705793737071"><ele>1132.0</ele><time>2026-04-28T07:18:58Z</time></trkpt><trkpt lat="40.05429196695069" lon="9.233539177039065"><ele>1132.0</ele><time>2026-04-28T07:18:59Z</time></trkpt><trkpt lat="40.05437127641129" lon="9.23334756776651"><ele>1133.0</ele><time>2026-04-28T07:19:00Z</time></trkpt><trkpt lat="40.05445112012911" lon="9.233153118679146"><ele>1134.0</ele><time>2026-04-28T07:19:01Z</time></trkpt><trkpt lat="40.05454467626472" lon="9.232960337476735"><ele>1135.0</ele><time>2026-04-28T07:19:02Z</time></trkpt><trkpt lat="40.05463321759876" lon="9.232774967568645"><ele>1135.0</ele><time>2026-04-28T07:19:03Z</time></trkpt><trkpt lat="40.05472624063678" lon="9.23260919896133"><ele>1135.0</ele><time>2026-04-28T07:19:04Z</time></trkpt><trkpt lat="40.054775550240365" lon="9.232438488599945"><ele>1135.0</ele><time>2026-04-28T07:19:04.999Z</time></trkpt><trkpt lat="40.05477166126418" lon="9.232237536061444"><ele>1137.25</ele><time>2026-04-28T07:19:06Z</time></trkpt><trkpt lat="40.05472931188362" lon="9.232034783493551"><ele>1139.5</ele><time>2026-04-28T07:19:07Z</time></trkpt><trkpt lat="40.05467239590695" lon="9.231838981997248"><ele>1141.75</ele><time>2026-04-28T07:19:08Z</time></trkpt><trkpt lat="40.05466839145034" lon="9.231677837362186"><ele>1144.0</ele><time>2026-04-28T07:19:09Z</time></trkpt><trkpt lat="40.05475022791499" lon="9.231528731498406"><ele>1143.0</ele><time>2026-04-28T07:19:10Z</time></trkpt><trkpt lat="40.054886631839175" lon="9.231410026005523"><ele>1142.0</ele><time>2026-04-28T07:19:11Z</time></trkpt><trkpt lat="40.05503147111232" lon="9.231297766717843"><ele>1141.0</ele><time>2026-04-28T07:19:12Z</time></trkpt><trkpt lat="40.05514887387976" lon="9.231142296751877"><ele>1141.0</ele><time>2026-04-28T07:19:13Z</time></trkpt><trkpt lat="40.0552531556847" lon="9.230960637164083"><ele>1141.0</ele><time>2026-04-28T07:19:14Z</time></trkpt><trkpt lat="40.055328875005884" lon="9.230756363647098"><ele>1141.0</ele><time>2026-04-28T07:19:15Z</time></trkpt><trkpt lat="40.05538060608284" lon="9.230550325715901"><ele>1147.0</ele><time>2026-04-28T07:19:16Z</time></trkpt><trkpt lat="40.05543765808168" lon="9.230348068066576"><ele>1153.0</ele><time>2026-04-28T07:19:17Z</time></trkpt><trkpt lat="40.055507239762285" lon="9.23015205683378"><ele>1159.0</ele><time>2026-04-28T07:19:18Z</time></trkpt><trkpt lat="40.05563024660675" lon="9.230000048147144"><ele>1160.6666666666665</ele><time>2026-04-28T07:19:19Z</time></trkpt><trkpt lat="40.055799461835036" lon="9.229904162858354"><ele>1162.3333333333333</ele><time>2026-04-28T07:19:20Z</time></trkpt><trkpt lat="40.05598123156087" lon="9.229848598218068"><ele>1164.0</ele><time>2026-04-28T07:19:21Z</time></trkpt><trkpt lat="40.0561474422027" lon="9.229789004052066"><ele>1164.0</ele><time>2026-04-28T07:19:22Z</time></trkpt><trkpt lat="40.056300660798534" lon="9.229691029102197"><ele>1164.0</ele><time>2026-04-28T07:19:22.999Z</time></trkpt><trkpt lat="40.056453981478924" lon="9.229552182128794"><ele>1164.0</ele><time>2026-04-28T07:19:23.999Z</time></trkpt><trkpt lat="40.056564448044185" lon="9.229367613062177"><ele>1160.3333333333333</ele><time>2026-04-28T07:19:24.999Z</time></trkpt><trkpt lat="40.056693828548276" lon="9.229204298938072"><ele>1156.6666666666665</ele><time>2026-04-28T07:19:25.999Z</time></trkpt><trkpt lat="40.05687584348685" lon="9.229125871141173"><ele>1153.0</ele><time>2026-04-28T07:19:26.999Z</time></trkpt><trkpt lat="40.05705383337772" lon="9.229067754817377"><ele>1153.0</ele><time>2026-04-28T07:19:27.999Z</time></trkpt><trkpt lat="40.05721377337139" lon="9.22902269062723"><ele>1153.0</ele><time>2026-04-28T07:19:28.999Z</time></trkpt><trkpt lat="40.05732951293463" lon="9.228915765483407"><ele>1153.0</ele><time>2026-04-28T07:19:29.999Z</time></trkpt><trkpt lat="40.057418207531796" lon="9.228742370574121"><ele>1152.3333333333333</ele><time>2026-04-28T07:19:30.999Z</time></trkpt><trkpt lat="40.05747807127652" lon="9.228529565379919"><ele>1151.6666666666667</ele><time>2026-04-28T07:19:31.999Z</time></trkpt><trkpt lat="40.05751711959614" lon="9.228305303165353"><ele>1151.0</ele><time>2026-04-28T07:19:32.999Z</time></trkpt><trkpt lat="40.05754018781018" lon="9.228128120900546"><ele>1151.6666666666667</ele><time>2026-04-28T07:19:33.999Z</time></trkpt><trkpt lat="40.05750926538004" lon="9.227954332857477"><ele>1152.3333333333333</ele><time>2026-04-28T07:19:34.999Z</time></trkpt><trkpt lat="40.057422728261635" lon="9.22779461058717"><ele>1153.0</ele><time>2026-04-28T07:19:35.999Z</time></trkpt><trkpt lat="40.05729047981647" lon="9.227661654210523"><ele>1153.0</ele><time>2026-04-28T07:19:36.999Z</time></trkpt><trkpt lat="40.0571507232189" lon="9.2275416194738"><ele>1153.0</ele><time>2026-04-28T07:19:37.999Z</time></trkpt><trkpt lat="40.05697757722643" lon="9.227440845632907"><ele>1153.0</ele><time>2026-04-28T07:19:38.999Z</time></trkpt><trkpt lat="40.05678648555111" lon="9.227397256797738"><ele>1154.0</ele><time>2026-04-28T07:19:39.999Z</time></trkpt><trkpt lat="40.05659295721845" lon="9.227366858643375"><ele>1155.0</ele><time>2026-04-28T07:19:40.999Z</time></trkpt><trkpt lat="40.05639518753453" lon="9.227334471366076"><ele>1156.0</ele><time>2026-04-28T07:19:41.999Z</time></trkpt><trkpt lat="40.056190378659394" lon="9.22731000456682"><ele>1156.0</ele><time>2026-04-28T07:19:42.999Z</time></trkpt><trkpt lat="40.055972960908065" lon="9.227314192055198"><ele>1156.0</ele><time>2026-04-28T07:19:43.999Z</time></trkpt><trkpt lat="40.055763662875435" lon="9.22732631791268"><ele>1156.0</ele><time>2026-04-28T07:19:44.999Z</time></trkpt><trkpt lat="40.05554184788092" lon="9.227341106499157"><ele>1156.0</ele><time>2026-04-28T07:19:45.999Z</time></trkpt><trkpt lat="40.0553289377703" lon="9.227358109580225"><ele>1156.0</ele><time>2026-04-28T07:19:46.999Z</time></trkpt><trkpt lat="40.05510851303582" lon="9.227371747429551"><ele>1156.0</ele><time>2026-04-28T07:19:47.999Z</time></trkpt><trkpt lat="40.05489169822985" lon="9.227386305866288"><ele>1158.3333333333333</ele><time>2026-04-28T07:19:48.999Z</time></trkpt><trkpt lat="40.05467441449949" lon="9.22740082532097"><ele>1160.6666666666667</ele><time>2026-04-28T07:19:49.999Z</time></trkpt><trkpt lat="40.0544583327353" lon="9.227412632483972"><ele>1163.0</ele><time>2026-04-28T07:19:50.999Z</time></trkpt><trkpt lat="40.05424903834044" lon="9.227427818008927"><ele>1166.6666666666667</ele><time>2026-04-28T07:19:51.999Z</time></trkpt><trkpt lat="40.054046912389644" lon="9.227439041465884"><ele>1170.3333333333333</ele><time>2026-04-28T07:19:52.999Z</time></trkpt><trkpt lat="40.0538528474678" lon="9.22741991984723"><ele>1174.0</ele><time>2026-04-28T07:19:53.999Z</time></trkpt><trkpt lat="40.05365939352703" lon="9.22735511194906"><ele>1172.0</ele><time>2026-04-28T07:19:54.999Z</time></trkpt><trkpt lat="40.0534716120961" lon="9.227258803982796"><ele>1170.0</ele><time>2026-04-28T07:19:55.999Z</time></trkpt><trkpt lat="40.05330220606409" lon="9.227125733300282"><ele>1168.0</ele><time>2026-04-28T07:19:56.999Z</time></trkpt><trkpt lat="40.053151573458834" lon="9.226950930324858"><ele>1168.0</ele><time>2026-04-28T07:19:57.999Z</time></trkpt><trkpt lat="40.053017444404425" lon="9.226767038625532"><ele>1168.0</ele><time>2026-04-28T07:19:58.999Z</time></trkpt><trkpt lat="40.05288712482723" lon="9.226603717365386"><ele>1168.0</ele><time>2026-04-28T07:19:59.999Z</time></trkpt><trkpt lat="40.05271922285887" lon="9.226484812805051"><ele>1162.3333333333333</ele><time>2026-04-28T07:20:00.999Z</time></trkpt><trkpt lat="40.0525267948248" lon="9.226414086085194"><ele>1156.6666666666667</ele><time>2026-04-28T07:20:01.999Z</time></trkpt><trkpt lat="40.052316345517575" lon="9.226365985915608"><ele>1151.0</ele><time>2026-04-28T07:20:02.999Z</time></trkpt><trkpt lat="40.052130267958105" lon="9.22631841923076"><ele>1150.3333333333335</ele><time>2026-04-28T07:20:03.999Z</time></trkpt><trkpt lat="40.05195453860516" lon="9.226295664266376"><ele>1149.6666666666667</ele><time>2026-04-28T07:20:04.999Z</time></trkpt><trkpt lat="40.051776579448436" lon="9.22633852865105"><ele>1149.0</ele><time>2026-04-28T07:20:05.999Z</time></trkpt><trkpt lat="40.051609125063784" lon="9.226444448149016"><ele>1150.3333333333333</ele><time>2026-04-28T07:20:06.999Z</time></trkpt><trkpt lat="40.05145868177588" lon="9.226603912738062"><ele>1151.6666666666665</ele><time>2026-04-28T07:20:07.999Z</time></trkpt><trkpt lat="40.05132680468755" lon="9.226810179648606"><ele>1153.0</ele><time>2026-04-28T07:20:08.999Z</time></trkpt><trkpt lat="40.05118257685494" lon="9.227010774873335"><ele>1153.0</ele><time>2026-04-28T07:20:09.999Z</time></trkpt><trkpt lat="40.05103201012266" lon="9.227211867190512"><ele>1153.0</ele><time>2026-04-28T07:20:10.999Z</time></trkpt><trkpt lat="40.050874830067244" lon="9.227413372356361"><ele>1153.0</ele><time>2026-04-28T07:20:11.999Z</time></trkpt><trkpt lat="40.05071453292828" lon="9.227622970106752"><ele>1152.5</ele><time>2026-04-28T07:20:12.999Z</time></trkpt><trkpt lat="40.050557092553596" lon="9.22784346302385"><ele>1152.0</ele><time>2026-04-28T07:20:13.999Z</time></trkpt><trkpt lat="40.05040646328135" lon="9.228093373629186"><ele>1163.0</ele><time>2026-04-28T07:20:14.999Z</time></trkpt><trkpt lat="40.050247671832636" lon="9.228344691087804"><ele>1174.0</ele><time>2026-04-28T07:20:15.999Z</time></trkpt><trkpt lat="40.050101707021796" lon="9.228612081602556"><ele>1174.0</ele><time>2026-04-28T07:20:16.999Z</time></trkpt><trkpt lat="40.049966208378315" lon="9.228889945034016"><ele>1174.0</ele><time>2026-04-28T07:20:17.999Z</time></trkpt><trkpt lat="40.04984921930047" lon="9.229169378593381"><ele>1175.0</ele><time>2026-04-28T07:20:18.999Z</time></trkpt><trkpt lat="40.04974368658904" lon="9.229453512198583"><ele>1176.0</ele><time>2026-04-28T07:20:19.999Z</time></trkpt><trkpt lat="40.049636958232774" lon="9.22975337335847"><ele>1185.5</ele><time>2026-04-28T07:20:20.999Z</time></trkpt><trkpt lat="40.04953871089344" lon="9.23005700864818"><ele>1195.0</ele><time>2026-04-28T07:20:21.999Z</time></trkpt><trkpt lat="40.04946039524936" lon="9.230413049654205"><ele>1159.0</ele><time>2026-04-28T07:20:22.999Z</time></trkpt><trkpt lat="40.04884061912435" lon="9.229734014914253"><ele>1169.5</ele><time>2026-04-28T07:20:23.999Z</time></trkpt><trkpt lat="40.048644608943974" lon="9.229888346289043"><ele>1180.0</ele><time>2026-04-28T07:20:24.999Z</time></trkpt><trkpt lat="40.04844884428784" lon="9.23003821035343"><ele>1174.0</ele><time>2026-04-28T07:20:25.999Z</time></trkpt><trkpt lat="40.04825765062694" lon="9.23019751829005"><ele>1168.0</ele><time>2026-04-28T07:20:26.999Z</time></trkpt><trkpt lat="40.04806285241691" lon="9.23035745847253"><ele>1168.0</ele><time>2026-04-28T07:20:27.999Z</time></trkpt><trkpt lat="40.04786238055123" lon="9.230514817934276"><ele>1168.0</ele><time>2026-04-28T07:20:28.999Z</time></trkpt><trkpt lat="40.04766565195362" lon="9.230671793585811"><ele>1173.5</ele><time>2026-04-28T07:20:29.998Z</time></trkpt><trkpt lat="40.047467685004634" lon="9.230834625272117"><ele>1179.0</ele><time>2026-04-28T07:20:30.998Z</time></trkpt><trkpt lat="40.04727100644445" lon="9.231000982567146"><ele>1179.0</ele><time>2026-04-28T07:20:31.998Z</time></trkpt><trkpt lat="40.04706200269609" lon="9.231153419886247"><ele>1179.0</ele><time>2026-04-28T07:20:32.998Z</time></trkpt><trkpt lat="40.04685732260486" lon="9.23129784687824"><ele>1179.0</ele><time>2026-04-28T07:20:33.998Z</time></trkpt><trkpt lat="40.046642878175206" lon="9.231430707182659"><ele>1179.0</ele><time>2026-04-28T07:20:34.998Z</time></trkpt><trkpt lat="40.04642786257758" lon="9.23156686910119"><ele>1185.0</ele><time>2026-04-28T07:20:35.998Z</time></trkpt><trkpt lat="40.04621538732384" lon="9.231706600164195"><ele>1191.0</ele><time>2026-04-28T07:20:36.998Z</time></trkpt><trkpt lat="40.04600086793544" lon="9.231839922411686"><ele>1188.5</ele><time>2026-04-28T07:20:37.998Z</time></trkpt><trkpt lat="40.045793067449694" lon="9.231973828923122"><ele>1186.0</ele><time>2026-04-28T07:20:38.998Z</time></trkpt><trkpt lat="40.04559157287012" lon="9.232102303428254"><ele>1186.0</ele><time>2026-04-28T07:20:39.998Z</time></trkpt><trkpt lat="40.04538156248985" lon="9.232202315132838"><ele>1186.0</ele><time>2026-04-28T07:20:40.998Z</time></trkpt><trkpt lat="40.04516753306388" lon="9.232266086752997"><ele>1186.0</ele><time>2026-04-28T07:20:41.998Z</time></trkpt><trkpt lat="40.04494641014899" lon="9.232303222421322"><ele>1197.0</ele><time>2026-04-28T07:20:42.998Z</time></trkpt><trkpt lat="40.04472264905946" lon="9.232323574608042"><ele>1208.0</ele><time>2026-04-28T07:20:43.998Z</time></trkpt><trkpt lat="40.0444953044293" lon="9.232357105635312"><ele>1208.0</ele><time>2026-04-28T07:20:44.998Z</time></trkpt><trkpt lat="40.04425762354735" lon="9.232378188717275"><ele>1208.0</ele><time>2026-04-28T07:20:45.998Z</time></trkpt><trkpt lat="40.044033889965455" lon="9.232424469703501"><ele>1207.0</ele><time>2026-04-28T07:20:46.998Z</time></trkpt><trkpt lat="40.04380667908081" lon="9.232469984156904"><ele>1206.0</ele><time>2026-04-28T07:20:47.998Z</time></trkpt><trkpt lat="40.04358147517681" lon="9.232508270344994"><ele>1206.0</ele><time>2026-04-28T07:20:48.998Z</time></trkpt><trkpt lat="40.043347474071545" lon="9.23255111744249"><ele>1206.0</ele><time>2026-04-28T07:20:49.998Z</time></trkpt><trkpt lat="40.043110540085095" lon="9.232593724762786"><ele>1205.0</ele><time>2026-04-28T07:20:50.998Z</time></trkpt><trkpt lat="40.04287677695692" lon="9.232629084813574"><ele>1204.0</ele><time>2026-04-28T07:20:51.998Z</time></trkpt><trkpt lat="40.04264203107885" lon="9.232675117490459"><ele>1201.0</ele><time>2026-04-28T07:20:52.998Z</time></trkpt><trkpt lat="40.04242990314149" lon="9.232777293887484"><ele>1198.0</ele><time>2026-04-28T07:20:53.998Z</time></trkpt><trkpt lat="40.042230205028574" lon="9.232889671133881"><ele>1195.0</ele><time>2026-04-28T07:20:54.998Z</time></trkpt><trkpt lat="40.042037843439" lon="9.233005984947829"><ele>1195.0</ele><time>2026-04-28T07:20:55.998Z</time></trkpt><trkpt lat="40.041838108367116" lon="9.233128743597895"><ele>1195.0</ele><time>2026-04-28T07:20:56.998Z</time></trkpt><trkpt lat="40.04164072974713" lon="9.233233706112998"><ele>1195.0</ele><time>2026-04-28T07:20:57.998Z</time></trkpt><trkpt lat="40.04144555486679" lon="9.23333104601622"><ele>1199.3333333333333</ele><time>2026-04-28T07:20:59Z</time></trkpt><trkpt lat="40.041244534477094" lon="9.233407380003182"><ele>1203.6666666666667</ele><time>2026-04-28T07:21:00Z</time></trkpt><trkpt lat="40.041033235842995" lon="9.233455087036765"><ele>1208.0</ele><time>2026-04-28T07:21:01Z</time></trkpt><trkpt lat="40.04082917551042" lon="9.233509639535193"><ele>1206.3333333333335</ele><time>2026-04-28T07:21:02Z</time></trkpt><trkpt lat="40.04062507406358" lon="9.233590247643647"><ele>1204.6666666666667</ele><time>2026-04-28T07:21:03Z</time></trkpt><trkpt lat="40.04042516344027" lon="9.233686701219725"><ele>1203.0</ele><time>2026-04-28T07:21:04Z</time></trkpt><trkpt lat="40.040222388556025" lon="9.233786714187014"><ele>1203.0</ele><time>2026-04-28T07:21:05Z</time></trkpt><trkpt lat="40.04001251359367" lon="9.233888603781127"><ele>1203.0</ele><time>2026-04-28T07:21:06Z</time></trkpt><trkpt lat="40.039802051306616" lon="9.233981046409054"><ele>1203.0</ele><time>2026-04-28T07:21:07Z</time></trkpt><trkpt lat="40.03957899262753" lon="9.234067593403605"><ele>1207.0</ele><time>2026-04-28T07:21:08Z</time></trkpt><trkpt lat="40.039373331859174" lon="9.234166357502342"><ele>1211.0</ele><time>2026-04-28T07:21:09Z</time></trkpt><trkpt lat="40.039165122507136" lon="9.234267651915221"><ele>1215.0</ele><time>2026-04-28T07:21:10Z</time></trkpt><trkpt lat="40.03895429855072" lon="9.234360308257322"><ele>1215.0</ele><time>2026-04-28T07:21:10.999Z</time></trkpt><trkpt lat="40.03874975238379" lon="9.234455191784335"><ele>1215.0</ele><time>2026-04-28T07:21:12Z</time></trkpt><trkpt lat="40.03854895481439" lon="9.234547796242055"><ele>1215.0</ele><time>2026-04-28T07:21:13Z</time></trkpt><trkpt lat="40.03833916826486" lon="9.234614909590743"><ele>1216.0</ele><time>2026-04-28T07:21:14Z</time></trkpt><trkpt lat="40.038123082692785" lon="9.234659011021089"><ele>1217.0</ele><time>2026-04-28T07:21:15Z</time></trkpt><trkpt lat="40.037910827606936" lon="9.234674022297021"><ele>1218.0</ele><time>2026-04-28T07:21:16Z</time></trkpt><trkpt lat="40.03769546186052" lon="9.234698949073046"><ele>1218.0</ele><time>2026-04-28T07:21:17Z</time></trkpt><trkpt lat="40.03747867233677" lon="9.234726361333927"><ele>1218.0</ele><time>2026-04-28T07:21:18Z</time></trkpt><trkpt lat="40.037256051660876" lon="9.234733507659023"><ele>1218.0</ele><time>2026-04-28T07:21:19Z</time></trkpt><trkpt lat="40.03704267092186" lon="9.234705334258779"><ele>1220.0</ele><time>2026-04-28T07:21:20Z</time></trkpt><trkpt lat="40.036823592647444" lon="9.234643530679229"><ele>1222.0</ele><time>2026-04-28T07:21:21Z</time></trkpt><trkpt lat="40.03660587914175" lon="9.234577727437483"><ele>1224.0</ele><time>2026-04-28T07:21:22Z</time></trkpt><trkpt lat="40.03638375119106" lon="9.234525060548838"><ele>1227.3333333333333</ele><time>2026-04-28T07:21:23Z</time></trkpt><trkpt lat="40.0361680553235" lon="9.23447777082448"><ele>1230.6666666666665</ele><time>2026-04-28T07:21:24Z</time></trkpt><trkpt lat="40.035959446634514" lon="9.234391942728319"><ele>1234.0</ele><time>2026-04-28T07:21:25Z</time></trkpt><trkpt lat="40.035756073601725" lon="9.234268086557584"><ele>1231.0</ele><time>2026-04-28T07:21:26Z</time></trkpt><trkpt lat="40.035564464264105" lon="9.234116964401588"><ele>1228.0</ele><time>2026-04-28T07:21:27Z</time></trkpt><trkpt lat="40.03537635927119" lon="9.23396839721121"><ele>1225.0</ele><time>2026-04-28T07:21:28Z</time></trkpt><trkpt lat="40.03518702659778" lon="9.233857483853576"><ele>1225.0</ele><time>2026-04-28T07:21:29Z</time></trkpt><trkpt lat="40.03498912478149" lon="9.233768799063132"><ele>1225.0</ele><time>2026-04-28T07:21:30Z</time></trkpt><trkpt lat="40.03478761436429" lon="9.233759154910155"><ele>1225.0</ele><time>2026-04-28T07:21:31Z</time></trkpt><trkpt lat="40.03461451448376" lon="9.233790138342375"><ele>1229.0</ele><time>2026-04-28T07:21:32Z</time></trkpt><trkpt lat="40.034459644835565" lon="9.23378410670357"><ele>1233.0</ele><time>2026-04-28T07:21:33Z</time></trkpt><trkpt lat="40.034331281958586" lon="9.233717220401822"><ele>1237.0</ele><time>2026-04-28T07:21:34Z</time></trkpt><trkpt lat="40.03422404315288" lon="9.233586904141022"><ele>1241.0</ele><time>2026-04-28T07:21:35Z</time></trkpt><trkpt lat="40.034136817733135" lon="9.233378469483448"><ele>1245.3333333333335</ele><time>2026-04-28T07:21:36Z</time></trkpt><trkpt lat="40.03406822708411" lon="9.233164433656963"><ele>1249.6666666666667</ele><time>2026-04-28T07:21:37Z</time></trkpt><trkpt lat="40.03401327549687" lon="9.232946733421064"><ele>1254.0</ele><time>2026-04-28T07:21:38Z</time></trkpt><trkpt lat="40.0339192492181" lon="9.232736808310891"><ele>1254.0</ele><time>2026-04-28T07:21:38.999Z</time></trkpt><trkpt lat="40.03380112778164" lon="9.232568473433146"><ele>1254.0</ele><time>2026-04-28T07:21:39.999Z</time></trkpt><trkpt lat="40.033659900973795" lon="9.232439890934502"><ele>1254.0</ele><time>2026-04-28T07:21:40.999Z</time></trkpt><trkpt lat="40.03347197484762" lon="9.23231873686822"><ele>1252.3333333333333</ele><time>2026-04-28T07:21:41.999Z</time></trkpt><trkpt lat="40.03329852691962" lon="9.232198885955182"><ele>1250.6666666666665</ele><time>2026-04-28T07:21:42.999Z</time></trkpt><trkpt lat="40.033147570626774" lon="9.232064015143095"><ele>1249.0</ele><time>2026-04-28T07:21:43.999Z</time></trkpt><trkpt lat="40.03299195100618" lon="9.2319215267247"><ele>1249.0</ele><time>2026-04-28T07:21:44.999Z</time></trkpt><trkpt lat="40.03282766920889" lon="9.231780825026599"><ele>1249.0</ele><time>2026-04-28T07:21:45.999Z</time></trkpt><trkpt lat="40.032664004278" lon="9.23163277140049"><ele>1249.0</ele><time>2026-04-28T07:21:46.999Z</time></trkpt><trkpt lat="40.032503915045424" lon="9.231494172382858"><ele>1248.6666666666665</ele><time>2026-04-28T07:21:47.999Z</time></trkpt><trkpt lat="40.03234802215318" lon="9.231350633806494"><ele>1248.3333333333333</ele><time>2026-04-28T07:21:48.999Z</time></trkpt><trkpt lat="40.03219487385109" lon="9.231214345955669"><ele>1248.0</ele><time>2026-04-28T07:21:49.999Z</time></trkpt><trkpt lat="40.03203582084492" lon="9.231072902492675"><ele>1248.0</ele><time>2026-04-28T07:21:50.999Z</time></trkpt><trkpt lat="40.03188362648984" lon="9.230938258737643"><ele>1248.0</ele><time>2026-04-28T07:21:51.999Z</time></trkpt><trkpt lat="40.03174026470218" lon="9.230811463868669"><ele>1248.0</ele><time>2026-04-28T07:21:52.999Z</time></trkpt><trkpt lat="40.031610778511656" lon="9.230690226996176"><ele>1243.5</ele><time>2026-04-28T07:21:53.999Z</time></trkpt><trkpt lat="40.03151168345696" lon="9.230558576606528"><ele>1239.0</ele><time>2026-04-28T07:21:54.999Z</time></trkpt><trkpt lat="40.03143638109158" lon="9.230413724483514"><ele>1234.5</ele><time>2026-04-28T07:21:55.999Z</time></trkpt><trkpt lat="40.031398850871575" lon="9.23025084186877"><ele>1230.0</ele><time>2026-04-28T07:21:56.999Z</time></trkpt><trkpt lat="40.03135840340752" lon="9.230082734288453"><ele>1230.0</ele><time>2026-04-28T07:21:57.999Z</time></trkpt><trkpt lat="40.031295720462396" lon="9.229905388612275"><ele>1230.0</ele><time>2026-04-28T07:21:58.999Z</time></trkpt><trkpt lat="40.03119708093915" lon="9.22974600737026"><ele>1230.0</ele><time>2026-04-28T07:21:59.999Z</time></trkpt><trkpt lat="40.03107037948718" lon="9.229604611323388"><ele>1228.6666666666667</ele><time>2026-04-28T07:22:00.999Z</time></trkpt><trkpt lat="40.03092798965768" lon="9.22946238527887"><ele>1227.3333333333335</ele><time>2026-04-28T07:22:01.999Z</time></trkpt><trkpt lat="40.03078884674964" lon="9.229317135883292"><ele>1226.0</ele><time>2026-04-28T07:22:02.999Z</time></trkpt><trkpt lat="40.03064090525329" lon="9.229178684752377"><ele>1226.0</ele><time>2026-04-28T07:22:03.999Z</time></trkpt><trkpt lat="40.03048173276556" lon="9.229069100025598"><ele>1226.0</ele><time>2026-04-28T07:22:04.999Z</time></trkpt><trkpt lat="40.03031129282595" lon="9.22900677442216"><ele>1226.0</ele><time>2026-04-28T07:22:05.999Z</time></trkpt><trkpt lat="40.03014675484373" lon="9.228966375065927"><ele>1222.0</ele><time>2026-04-28T07:22:06.999Z</time></trkpt><trkpt lat="40.030001023980496" lon="9.228910248577257"><ele>1218.0</ele><time>2026-04-28T07:22:07.999Z</time></trkpt><trkpt lat="40.02989023954791" lon="9.22877915927194"><ele>1214.0</ele><time>2026-04-28T07:22:08.999Z</time></trkpt><trkpt lat="40.02982483342348" lon="9.228574436870343"><ele>1214.0</ele><time>2026-04-28T07:22:09.999Z</time></trkpt><trkpt lat="40.02978125781371" lon="9.228349461672297"><ele>1214.0</ele><time>2026-04-28T07:22:10.999Z</time></trkpt><trkpt lat="40.0297224832056" lon="9.228134689544563"><ele>1214.0</ele><time>2026-04-28T07:22:11.999Z</time></trkpt><trkpt lat="40.02963410726327" lon="9.227954283866639"><ele>1219.6666666666667</ele><time>2026-04-28T07:22:12.999Z</time></trkpt><trkpt lat="40.029507644396936" lon="9.227785918643228"><ele>1225.3333333333333</ele><time>2026-04-28T07:22:13.999Z</time></trkpt><trkpt lat="40.02936215516231" lon="9.227621768391135"><ele>1231.0</ele><time>2026-04-28T07:22:14.999Z</time></trkpt><trkpt lat="40.02920658760924" lon="9.2274785936138"><ele>1228.0</ele><time>2026-04-28T07:22:15.999Z</time></trkpt><trkpt lat="40.02904000557965" lon="9.227366590496045"><ele>1225.0</ele><time>2026-04-28T07:22:16.999Z</time></trkpt><trkpt lat="40.0288620279449" lon="9.227280341808028"><ele>1222.0</ele><time>2026-04-28T07:22:17.999Z</time></trkpt><trkpt lat="40.02870596268357" lon="9.2272065736555"><ele>1222.0</ele><time>2026-04-28T07:22:18.999Z</time></trkpt><trkpt lat="40.02857623739616" lon="9.227078449608577"><ele>1222.0</ele><time>2026-04-28T07:22:19.999Z</time></trkpt><trkpt lat="40.02847891576678" lon="9.226869538932721"><ele>1222.0</ele><time>2026-04-28T07:22:20.999Z</time></trkpt><trkpt lat="40.02839744839725" lon="9.226634593758249"><ele>1219.6666666666665</ele><time>2026-04-28T07:22:21.999Z</time></trkpt><trkpt lat="40.02830317556216" lon="9.226405265502711"><ele>1217.3333333333333</ele><time>2026-04-28T07:22:22.999Z</time></trkpt><trkpt lat="40.02817149156948" lon="9.22620750472064"><ele>1215.0</ele><time>2026-04-28T07:22:23.999Z</time></trkpt><trkpt lat="40.028040067317825" lon="9.226022804505467"><ele>1215.0</ele><time>2026-04-28T07:22:24.999Z</time></trkpt><trkpt lat="40.02790675151679" lon="9.225867557204777"><ele>1215.0</ele><time>2026-04-28T07:22:25.999Z</time></trkpt><trkpt lat="40.02775746223788" lon="9.225748902772567"><ele>1215.0</ele><time>2026-04-28T07:22:26.999Z</time></trkpt><trkpt lat="40.027577225303766" lon="9.22569354720758"><ele>1210.6666666666667</ele><time>2026-04-28T07:22:27.999Z</time></trkpt><trkpt lat="40.02738210485176" lon="9.225677328067885"><ele>1206.3333333333335</ele><time>2026-04-28T07:22:28.999Z</time></trkpt><trkpt lat="40.027221698659936" lon="9.225613635466408"><ele>1202.0</ele><time>2026-04-28T07:22:29.999Z</time></trkpt><trkpt lat="40.02709562210588" lon="9.225451467938738"><ele>1202.0</ele><time>2026-04-28T07:22:30.999Z</time></trkpt><trkpt lat="40.027006098977886" lon="9.225231040311858"><ele>1202.0</ele><time>2026-04-28T07:22:31.999Z</time></trkpt><trkpt lat="40.02690882079748" lon="9.225012458268637"><ele>1202.0</ele><time>2026-04-28T07:22:32.999Z</time></trkpt><trkpt lat="40.02680160287959" lon="9.224812526795695"><ele>1203.6666666666667</ele><time>2026-04-28T07:22:33.999Z</time></trkpt><trkpt lat="40.026696860923025" lon="9.224618560433141"><ele>1205.3333333333333</ele><time>2026-04-28T07:22:34.999Z</time></trkpt><trkpt lat="40.02662472270093" lon="9.22442536787556"><ele>1207.0</ele><time>2026-04-28T07:22:35.999Z</time></trkpt><trkpt lat="40.026586034209295" lon="9.224222682483976"><ele>1207.0</ele><time>2026-04-28T07:22:36.999Z</time></trkpt><trkpt lat="40.02655955297966" lon="9.224019483507375"><ele>1207.0</ele><time>2026-04-28T07:22:37.999Z</time></trkpt><trkpt lat="40.02649271925254" lon="9.223859797991881"><ele>1207.0</ele><time>2026-04-28T07:22:38.999Z</time></trkpt><trkpt lat="40.026392159276114" lon="9.223766017108153"><ele>1207.0</ele><time>2026-04-28T07:22:39.999Z</time></trkpt><trkpt lat="40.02624921561897" lon="9.223756259044102"><ele>1207.0</ele><time>2026-04-28T07:22:40.999Z</time></trkpt><trkpt lat="40.026093214598134" lon="9.223818578255297"><ele>1207.0</ele><time>2026-04-28T07:22:41.999Z</time></trkpt><trkpt lat="40.02596759941346" lon="9.22396993296504"><ele>1207.0</ele><time>2026-04-28T07:22:42.999Z</time></trkpt><trkpt lat="40.025847941254334" lon="9.224145509069634"><ele>1207.0</ele><time>2026-04-28T07:22:43.999Z</time></trkpt><trkpt lat="40.02574732279519" lon="9.224292115808542"><ele>1207.0</ele><time>2026-04-28T07:22:44.999Z</time></trkpt><trkpt lat="40.025602832443944" lon="9.224339052569086"><ele>1207.0</ele><time>2026-04-28T07:22:45.998Z</time></trkpt><trkpt lat="40.025438399448774" lon="9.224284973879753"><ele>1207.0</ele><time>2026-04-28T07:22:46.998Z</time></trkpt><trkpt lat="40.02527740257435" lon="9.22417566416337"><ele>1207.0</ele><time>2026-04-28T07:22:47.998Z</time></trkpt><trkpt lat="40.02514211864743" lon="9.224117092928678"><ele>1207.0</ele><time>2026-04-28T07:22:48.998Z</time></trkpt><trkpt lat="40.0250191055353" lon="9.224145275883355"><ele>1207.0</ele><time>2026-04-28T07:22:49.998Z</time></trkpt><trkpt lat="40.024911708586245" lon="9.224278623278808"><ele>1216.0</ele><time>2026-04-28T07:22:50.998Z</time></trkpt><trkpt lat="40.02485111399793" lon="9.224483219742222"><ele>1225.0</ele><time>2026-04-28T07:22:51.998Z</time></trkpt><trkpt lat="40.02484881002301" lon="9.224735450605884"><ele>1234.0</ele><time>2026-04-28T07:22:52.998Z</time></trkpt><trkpt lat="40.02486717790246" lon="9.224996024019946"><ele>1234.0</ele><time>2026-04-28T07:22:53.998Z</time></trkpt><trkpt lat="40.024860198353615" lon="9.225259790338958"><ele>1234.0</ele><time>2026-04-28T07:22:54.998Z</time></trkpt><trkpt lat="40.02480454372876" lon="9.225499299526131"><ele>1234.0</ele><time>2026-04-28T07:22:55.998Z</time></trkpt><trkpt lat="40.02472593959163" lon="9.225732488622985"><ele>1226.6666666666665</ele><time>2026-04-28T07:22:56.998Z</time></trkpt><trkpt lat="40.024628492394726" lon="9.225946598005113"><ele>1219.3333333333333</ele><time>2026-04-28T07:22:57.998Z</time></trkpt><trkpt lat="40.02450387025811" lon="9.226159529672978"><ele>1212.0</ele><time>2026-04-28T07:22:58.998Z</time></trkpt><trkpt lat="40.0243651551789" lon="9.226360021590882"><ele>1207.6666666666667</ele><time>2026-04-28T07:22:59.998Z</time></trkpt><trkpt lat="40.024215242894904" lon="9.226546858667964"><ele>1203.3333333333335</ele><time>2026-04-28T07:23:00.998Z</time></trkpt><trkpt lat="40.02405744341131" lon="9.226723408830408"><ele>1199.0</ele><time>2026-04-28T07:23:01.998Z</time></trkpt><trkpt lat="40.023895685063124" lon="9.226882398582303"><ele>1199.0</ele><time>2026-04-28T07:23:02.998Z</time></trkpt><trkpt lat="40.02372702733076" lon="9.227029167105304"><ele>1199.0</ele><time>2026-04-28T07:23:03.998Z</time></trkpt><trkpt lat="40.023552418756225" lon="9.227134259571894"><ele>1199.0</ele><time>2026-04-28T07:23:05Z</time></trkpt><trkpt lat="40.023360932540804" lon="9.227178768919202"><ele>1198.6666666666667</ele><time>2026-04-28T07:23:05.999Z</time></trkpt><trkpt lat="40.02316302887765" lon="9.227185056381357"><ele>1198.3333333333333</ele><time>2026-04-28T07:23:06.999Z</time></trkpt><trkpt lat="40.02296128239954" lon="9.227160461875124"><ele>1198.0</ele><time>2026-04-28T07:23:08Z</time></trkpt><trkpt lat="40.02277167572384" lon="9.227126671624097"><ele>1198.0</ele><time>2026-04-28T07:23:08.999Z</time></trkpt><trkpt lat="40.022594837662005" lon="9.227133064605777"><ele>1198.0</ele><time>2026-04-28T07:23:09.999Z</time></trkpt><trkpt lat="40.02242625929357" lon="9.227221968350007"><ele>1198.0</ele><time>2026-04-28T07:23:11Z</time></trkpt><trkpt lat="40.022283150824265" lon="9.227374294877269"><ele>1189.3333333333333</ele><time>2026-04-28T07:23:12Z</time></trkpt><trkpt lat="40.0221099358425" lon="9.227521878776125"><ele>1180.6666666666667</ele><time>2026-04-28T07:23:13Z</time></trkpt><trkpt lat="40.02192029973598" lon="9.227633045672636"><ele>1172.0</ele><time>2026-04-28T07:23:14Z</time></trkpt><trkpt lat="40.0217212735198" lon="9.22769599454321"><ele>1167.3333333333335</ele><time>2026-04-28T07:23:14.999Z</time></trkpt><trkpt lat="40.021533571892434" lon="9.22774135837767"><ele>1162.6666666666667</ele><time>2026-04-28T07:23:15.999Z</time></trkpt><trkpt lat="40.02136400504713" lon="9.227773765307935"><ele>1158.0</ele><time>2026-04-28T07:23:17Z</time></trkpt><trkpt lat="40.021205728176604" lon="9.227792468504642"><ele>1158.0</ele><time>2026-04-28T07:23:18Z</time></trkpt><trkpt lat="40.02105740340193" lon="9.227720405013153"><ele>1158.0</ele><time>2026-04-28T07:23:19Z</time></trkpt><trkpt lat="40.02093006231328" lon="9.2275818322359"><ele>1158.0</ele><time>2026-04-28T07:23:20Z</time></trkpt><trkpt lat="40.020853167007544" lon="9.227372703727998"><ele>1155.0</ele><time>2026-04-28T07:23:21Z</time></trkpt><trkpt lat="40.02081109665028" lon="9.227144420339659"><ele>1152.0</ele><time>2026-04-28T07:23:22Z</time></trkpt><trkpt lat="40.02076600888466" lon="9.226911887256971"><ele>1149.0</ele><time>2026-04-28T07:23:23Z</time></trkpt><trkpt lat="40.02069507758454" lon="9.22669464792808"><ele>1149.0</ele><time>2026-04-28T07:23:24Z</time></trkpt><trkpt lat="40.02059074248413" lon="9.226501361026978"><ele>1149.0</ele><time>2026-04-28T07:23:25Z</time></trkpt><trkpt lat="40.02046273091676" lon="9.226343396111817"><ele>1149.0</ele><time>2026-04-28T07:23:26Z</time></trkpt><trkpt lat="40.020330410203314" lon="9.226234930899928"><ele>1148.0</ele><time>2026-04-28T07:23:27Z</time></trkpt><trkpt lat="40.02018744289147" lon="9.226211244592282"><ele>1147.0</ele><time>2026-04-28T07:23:28Z</time></trkpt><trkpt lat="40.02001980706118" lon="9.226163417288571"><ele>1146.0</ele><time>2026-04-28T07:23:29Z</time></trkpt><trkpt lat="40.01985192328226" lon="9.226229036755187"><ele>1146.0</ele><time>2026-04-28T07:23:30Z</time></trkpt><trkpt lat="40.01967436270449" lon="9.226251921579385"><ele>1146.0</ele><time>2026-04-28T07:23:31Z</time></trkpt><trkpt lat="40.019500412139166" lon="9.22621163109442"><ele>1146.0</ele><time>2026-04-28T07:23:32Z</time></trkpt><trkpt lat="40.019360121871216" lon="9.226137233588481"><ele>1146.0</ele><time>2026-04-28T07:23:33Z</time></trkpt><trkpt lat="40.019253770339496" lon="9.226003912714212"><ele>1146.0</ele><time>2026-04-28T07:23:34Z</time></trkpt><trkpt lat="40.019215967100656" lon="9.225814646860918"><ele>1146.0</ele><time>2026-04-28T07:23:35Z</time></trkpt><trkpt lat="40.01924054376206" lon="9.225592516728177"><ele>1144.5</ele><time>2026-04-28T07:23:36Z</time></trkpt><trkpt lat="40.01926274289416" lon="9.225369186580167"><ele>1143.0</ele><time>2026-04-28T07:23:36.999Z</time></trkpt><trkpt lat="40.01920851234909" lon="9.225199980112677"><ele>1141.5</ele><time>2026-04-28T07:23:37.999Z</time></trkpt><trkpt lat="40.01910647047384" lon="9.225088531143506"><ele>1140.0</ele><time>2026-04-28T07:23:38.999Z</time></trkpt><trkpt lat="40.01895053135996" lon="9.225095324231608"><ele>1140.0</ele><time>2026-04-28T07:23:39.999Z</time></trkpt><trkpt lat="40.018786797198096" lon="9.225183296754073"><ele>1140.0</ele><time>2026-04-28T07:23:40.999Z</time></trkpt><trkpt lat="40.0186286759751" lon="9.225291306645996"><ele>1140.0</ele><time>2026-04-28T07:23:41.999Z</time></trkpt><trkpt lat="40.01847875508324" lon="9.225275529869972"><ele>1140.0</ele><time>2026-04-28T07:23:42.999Z</time></trkpt><trkpt lat="40.01837591477243" lon="9.225151238501656"><ele>1140.0</ele><time>2026-04-28T07:23:43.999Z</time></trkpt><trkpt lat="40.018332663735535" lon="9.224947014474033"><ele>1140.0</ele><time>2026-04-28T07:23:44.999Z</time></trkpt><trkpt lat="40.01829206804936" lon="9.224752571218563"><ele>1140.0</ele><time>2026-04-28T07:23:45.999Z</time></trkpt><trkpt lat="40.01819269803379" lon="9.224627898803526"><ele>1140.0</ele><time>2026-04-28T07:23:46.999Z</time></trkpt><trkpt lat="40.018054039844515" lon="9.224610619371404"><ele>1140.0</ele><time>2026-04-28T07:23:47.999Z</time></trkpt><trkpt lat="40.01786396562835" lon="9.224657505992724"><ele>1140.0</ele><time>2026-04-28T07:23:48.999Z</time></trkpt><trkpt lat="40.0176846073909" lon="9.224625038766387"><ele>1140.0</ele><time>2026-04-28T07:23:49.999Z</time></trkpt><trkpt lat="40.017529663516505" lon="9.224470896078017"><ele>1140.0</ele><time>2026-04-28T07:23:50.999Z</time></trkpt><trkpt lat="40.01736261726642" lon="9.224248849070966"><ele>1140.3333333333333</ele><time>2026-04-28T07:23:51.999Z</time></trkpt><trkpt lat="40.01719317449953" lon="9.224098046664137"><ele>1140.6666666666665</ele><time>2026-04-28T07:23:52.999Z</time></trkpt><trkpt lat="40.01700403977126" lon="9.223966198277546"><ele>1141.0</ele><time>2026-04-28T07:23:53.999Z</time></trkpt><trkpt lat="40.016801677948294" lon="9.223845135339444"><ele>1134.6666666666665</ele><time>2026-04-28T07:23:54.999Z</time></trkpt><trkpt lat="40.016602359505896" lon="9.223726036013238"><ele>1128.3333333333333</ele><time>2026-04-28T07:23:55.999Z</time></trkpt><trkpt lat="40.016404684197106" lon="9.223605026231596"><ele>1122.0</ele><time>2026-04-28T07:23:56.999Z</time></trkpt><trkpt lat="40.016205302560536" lon="9.2234928961368"><ele>1122.0</ele><time>2026-04-28T07:23:57.999Z</time></trkpt><trkpt lat="40.01599988405686" lon="9.223404883958642"><ele>1122.0</ele><time>2026-04-28T07:23:58.999Z</time></trkpt><trkpt lat="40.01579474291621" lon="9.223330697174909"><ele>1122.0</ele><time>2026-04-28T07:23:59.999Z</time></trkpt><trkpt lat="40.01559759322434" lon="9.223258301954147"><ele>1124.6666666666667</ele><time>2026-04-28T07:24:00.999Z</time></trkpt><trkpt lat="40.01541807453156" lon="9.223176795866793"><ele>1127.3333333333335</ele><time>2026-04-28T07:24:01.999Z</time></trkpt><trkpt lat="40.01522977597792" lon="9.22312704962631"><ele>1130.0</ele><time>2026-04-28T07:24:02.999Z</time></trkpt><trkpt lat="40.01505284309151" lon="9.223085558442959"><ele>1131.3333333333335</ele><time>2026-04-28T07:24:03.999Z</time></trkpt><trkpt lat="40.0148643165176" lon="9.223103292769972"><ele>1132.6666666666667</ele><time>2026-04-28T07:24:04.999Z</time></trkpt><trkpt lat="40.01466058884905" lon="9.223170899486949"><ele>1134.0</ele><time>2026-04-28T07:24:05.999Z</time></trkpt><trkpt lat="40.0144480253156" lon="9.223238293584918"><ele>1126.0</ele><time>2026-04-28T07:24:06.999Z</time></trkpt><trkpt lat="40.01422871190432" lon="9.223291870260358"><ele>1118.0</ele><time>2026-04-28T07:24:07.999Z</time></trkpt><trkpt lat="40.01400852268793" lon="9.223332258810457"><ele>1110.0</ele><time>2026-04-28T07:24:08.999Z</time></trkpt><trkpt lat="40.013776906716984" lon="9.223383750084047"><ele>1109.0</ele><time>2026-04-28T07:24:09.999Z</time></trkpt><trkpt lat="40.01355876419547" lon="9.223458661072984"><ele>1108.0</ele><time>2026-04-28T07:24:10.999Z</time></trkpt><trkpt lat="40.01334307894412" lon="9.223527391944119"><ele>1107.0</ele><time>2026-04-28T07:24:11.999Z</time></trkpt><trkpt lat="40.01313187887395" lon="9.223575915491848"><ele>1101.6666666666667</ele><time>2026-04-28T07:24:12.999Z</time></trkpt><trkpt lat="40.01292997682928" lon="9.223619659724513"><ele>1096.3333333333335</ele><time>2026-04-28T07:24:13.999Z</time></trkpt><trkpt lat="40.01275413797627" lon="9.223642560917838"><ele>1091.0</ele><time>2026-04-28T07:24:14.999Z</time></trkpt><trkpt lat="40.012594877927036" lon="9.223590927817156"><ele>1088.0</ele><time>2026-04-28T07:24:15.999Z</time></trkpt><trkpt lat="40.01243698857766" lon="9.223439323112578"><ele>1085.0</ele><time>2026-04-28T07:24:16.999Z</time></trkpt><trkpt lat="40.01228554514862" lon="9.22325091852184"><ele>1082.0</ele><time>2026-04-28T07:24:17.999Z</time></trkpt><trkpt lat="40.01213540753119" lon="9.223062850362014"><ele>1082.0</ele><time>2026-04-28T07:24:18.999Z</time></trkpt><trkpt lat="40.0119743913392" lon="9.222925808255711"><ele>1082.0</ele><time>2026-04-28T07:24:19.999Z</time></trkpt><trkpt lat="40.011826452800726" lon="9.22281678532474"><ele>1082.0</ele><time>2026-04-28T07:24:20.999Z</time></trkpt><trkpt lat="40.01172350003829" lon="9.222658679251643"><ele>1082.0</ele><time>2026-04-28T07:24:21.999Z</time></trkpt><trkpt lat="40.011670675562" lon="9.22244752355324"><ele>1082.0</ele><time>2026-04-28T07:24:22.999Z</time></trkpt><trkpt lat="40.01161854231765" lon="9.222227032045689"><ele>1082.0</ele><time>2026-04-28T07:24:23.999Z</time></trkpt><trkpt lat="40.011531286518185" lon="9.222027732566685"><ele>1075.6666666666667</ele><time>2026-04-28T07:24:24.999Z</time></trkpt><trkpt lat="40.01138894300487" lon="9.22188916031868"><ele>1069.3333333333333</ele><time>2026-04-28T07:24:25.999Z</time></trkpt><trkpt lat="40.01120460882814" lon="9.221759323859786"><ele>1063.0</ele><time>2026-04-28T07:24:26.999Z</time></trkpt><trkpt lat="40.01106206566775" lon="9.221575032860784"><ele>1066.6666666666665</ele><time>2026-04-28T07:24:27.999Z</time></trkpt><trkpt lat="40.01095182605021" lon="9.221345719764532"><ele>1070.3333333333333</ele><time>2026-04-28T07:24:28.999Z</time></trkpt><trkpt lat="40.010862381783895" lon="9.2210982033994"><ele>1074.0</ele><time>2026-04-28T07:24:29.999Z</time></trkpt><trkpt lat="40.01078065142598" lon="9.220838132542887"><ele>1068.3333333333333</ele><time>2026-04-28T07:24:30.999Z</time></trkpt><trkpt lat="40.010688492311054" lon="9.220583028548536"><ele>1062.6666666666665</ele><time>2026-04-28T07:24:31.999Z</time></trkpt><trkpt lat="40.01061043701883" lon="9.22032929105829"><ele>1057.0</ele><time>2026-04-28T07:24:32.999Z</time></trkpt><trkpt lat="40.010526339065834" lon="9.220106443743509"><ele>1057.0</ele><time>2026-04-28T07:24:33.999Z</time></trkpt><trkpt lat="40.01044137112831" lon="9.219920357784055"><ele>1057.0</ele><time>2026-04-28T07:24:34.999Z</time></trkpt><trkpt lat="40.01032173943411" lon="9.219780483223815"><ele>1057.0</ele><time>2026-04-28T07:24:35.999Z</time></trkpt><trkpt lat="40.01016026210915" lon="9.219692364687736"><ele>1051.6666666666665</ele><time>2026-04-28T07:24:36.999Z</time></trkpt><trkpt lat="40.00998065507058" lon="9.219651892071154"><ele>1046.3333333333333</ele><time>2026-04-28T07:24:37.999Z</time></trkpt><trkpt lat="40.00981386396881" lon="9.219628864885825"><ele>1041.0</ele><time>2026-04-28T07:24:38.999Z</time></trkpt><trkpt lat="40.00967788845997" lon="9.219549641204074"><ele>1041.0</ele><time>2026-04-28T07:24:39.999Z</time></trkpt><trkpt lat="40.00954068632093" lon="9.219149894327385"><ele>1041.0</ele><time>2026-04-28T07:24:41.999Z</time></trkpt><trkpt lat="40.00951840993962" lon="9.218909397378155"><ele>1041.0</ele><time>2026-04-28T07:24:42.998Z</time></trkpt><trkpt lat="40.009521612029566" lon="9.218663051252838"><ele>1041.0</ele><time>2026-04-28T07:24:43.998Z</time></trkpt><trkpt lat="40.009499374781285" lon="9.21843443232347"><ele>1041.0</ele><time>2026-04-28T07:24:44.998Z</time></trkpt><trkpt lat="40.00945889936455" lon="9.218218761127131"><ele>1042.3333333333333</ele><time>2026-04-28T07:24:45.998Z</time></trkpt><trkpt lat="40.00940230048682" lon="9.217994909776332"><ele>1043.6666666666665</ele><time>2026-04-28T07:24:46.998Z</time></trkpt><trkpt lat="40.009316990554254" lon="9.21777290865714"><ele>1045.0</ele><time>2026-04-28T07:24:47.998Z</time></trkpt><trkpt lat="40.00923439098388" lon="9.217539752330254"><ele>1039.6666666666665</ele><time>2026-04-28T07:24:48.998Z</time></trkpt><trkpt lat="40.009151976499574" lon="9.217306482470093"><ele>1034.3333333333333</ele><time>2026-04-28T07:24:49.998Z</time></trkpt><trkpt lat="40.00906392566061" lon="9.217081963121062"><ele>1029.0</ele><time>2026-04-28T07:24:50.998Z</time></trkpt><trkpt lat="40.00897161760281" lon="9.216853694669437"><ele>1029.0</ele><time>2026-04-28T07:24:51.998Z</time></trkpt><trkpt lat="40.008880812061406" lon="9.21664000239395"><ele>1029.0</ele><time>2026-04-28T07:24:52.998Z</time></trkpt><trkpt lat="40.008769911218685" lon="9.216452744103913"><ele>1029.0</ele><time>2026-04-28T07:24:53.998Z</time></trkpt><trkpt lat="40.00862093921033" lon="9.216304548419602"><ele>1027.0</ele><time>2026-04-28T07:24:54.998Z</time></trkpt><trkpt lat="40.0084417889808" lon="9.216199226555691"><ele>1025.0</ele><time>2026-04-28T07:24:55.998Z</time></trkpt><trkpt lat="40.008269998478326" lon="9.216052885740362"><ele>1023.0</ele><time>2026-04-28T07:24:56.998Z</time></trkpt><trkpt lat="40.00814084808309" lon="9.215863262459491"><ele>1023.0</ele><time>2026-04-28T07:24:57.998Z</time></trkpt><trkpt lat="40.00800452186152" lon="9.215677526448381"><ele>1023.0</ele><time>2026-04-28T07:24:58.998Z</time></trkpt><trkpt lat="40.00785327573492" lon="9.215525957848763"><ele>1023.0</ele><time>2026-04-28T07:24:59.998Z</time></trkpt><trkpt lat="40.00768111128272" lon="9.215419993594981"><ele>1032.3333333333333</ele><time>2026-04-28T07:25:00.998Z</time></trkpt><trkpt lat="40.00748796239338" lon="9.215375925274056"><ele>1041.6666666666665</ele><time>2026-04-28T07:25:01.998Z</time></trkpt><trkpt lat="40.00729714947921" lon="9.215330955862761"><ele>1051.0</ele><time>2026-04-28T07:25:02.998Z</time></trkpt><trkpt lat="40.00710324303638" lon="9.215306047622272"><ele>1051.0</ele><time>2026-04-28T07:25:03.998Z</time></trkpt><trkpt lat="40.00690536171418" lon="9.215283182331"><ele>1051.0</ele><time>2026-04-28T07:25:04.998Z</time></trkpt><trkpt lat="40.00671474096102" lon="9.215259397449731"><ele>1051.0</ele><time>2026-04-28T07:25:05.998Z</time></trkpt><trkpt lat="40.00656245424824" lon="9.215254223709712"><ele>1052.0</ele><time>2026-04-28T07:25:06.998Z</time></trkpt><trkpt lat="40.00643405139655" lon="9.215257168004866"><ele>1053.0</ele><time>2026-04-28T07:25:07.998Z</time></trkpt><trkpt lat="40.00633155828768" lon="9.215275979567073"><ele>1054.0</ele><time>2026-04-28T07:25:08.998Z</time></trkpt><trkpt lat="40.00625783886541" lon="9.215327418987023"><ele>1055.0</ele><time>2026-04-28T07:25:09.998Z</time></trkpt><trkpt lat="40.006214918725455" lon="9.21543095402064"><ele>1056.0</ele><time>2026-04-28T07:25:11Z</time></trkpt><trkpt lat="40.00622401465106" lon="9.2155609022141"><ele>1056.0</ele><time>2026-04-28T07:25:12Z</time></trkpt><trkpt lat="40.0063069790531" lon="9.215663874937084"><ele>1056.0</ele><time>2026-04-28T07:25:13Z</time></trkpt><trkpt lat="40.00643053400649" lon="9.215684914966188"><ele>1056.0</ele><time>2026-04-28T07:25:13.999Z</time></trkpt><trkpt lat="40.0065683070221" lon="9.21563248255815"><ele>1056.0</ele><time>2026-04-28T07:25:14.999Z</time></trkpt><trkpt lat="40.00669739088672" lon="9.215590429138965"><ele>1054.75</ele><time>2026-04-28T07:25:15.999Z</time></trkpt><trkpt lat="40.006827471731825" lon="9.215581547966043"><ele>1053.5</ele><time>2026-04-28T07:25:17Z</time></trkpt><trkpt lat="40.0069742943313" lon="9.215602664064633"><ele>1052.25</ele><time>2026-04-28T07:25:17.999Z</time></trkpt><trkpt lat="40.007127239283044" lon="9.215646481746147"><ele>1051.0</ele><time>2026-04-28T07:25:18.999Z</time></trkpt><trkpt lat="40.00728816378944" lon="9.215694083582521"><ele>1041.6666666666665</ele><time>2026-04-28T07:25:20Z</time></trkpt><trkpt lat="40.00744748324955" lon="9.215739431139811"><ele>1032.3333333333333</ele><time>2026-04-28T07:25:21Z</time></trkpt><trkpt lat="40.00760619814301" lon="9.215811322127738"><ele>1023.0</ele><time>2026-04-28T07:25:22Z</time></trkpt><trkpt lat="40.00774166625938" lon="9.215934162063947"><ele>1023.0</ele><time>2026-04-28T07:25:23Z</time></trkpt><trkpt lat="40.007852470189476" lon="9.216117852374717"><ele>1023.0</ele><time>2026-04-28T07:25:24Z</time></trkpt><trkpt lat="40.00794031900614" lon="9.216328867154216"><ele>1023.0</ele><time>2026-04-28T07:25:25Z</time></trkpt><trkpt lat="40.008004771714894" lon="9.216557733703029"><ele>1014.0</ele><time>2026-04-28T07:25:25.999Z</time></trkpt><trkpt lat="40.00802710037501" lon="9.216796889902659"><ele>1005.0</ele><time>2026-04-28T07:25:26.999Z</time></trkpt><trkpt lat="40.00802827881777" lon="9.21702875591686"><ele>996.0</ele><time>2026-04-28T07:25:27.999Z</time></trkpt><trkpt lat="40.00807167808194" lon="9.217238869445449"><ele>990.6666666666667</ele><time>2026-04-28T07:25:28.999Z</time></trkpt><trkpt lat="40.00815458868355" lon="9.217429921160754"><ele>985.3333333333334</ele><time>2026-04-28T07:25:29.999Z</time></trkpt><trkpt lat="40.00827538708208" lon="9.217598184210726"><ele>980.0</ele><time>2026-04-28T07:25:30.999Z</time></trkpt><trkpt lat="40.00840011902001" lon="9.217759902868291"><ele>988.0</ele><time>2026-04-28T07:25:31.999Z</time></trkpt><trkpt lat="40.008453093751484" lon="9.21794156584541"><ele>996.0</ele><time>2026-04-28T07:25:32.999Z</time></trkpt><trkpt lat="40.00846334758811" lon="9.218186268473403"><ele>1004.0</ele><time>2026-04-28T07:25:33.999Z</time></trkpt><trkpt lat="40.008440059043124" lon="9.21839877417854"><ele>1004.0</ele><time>2026-04-28T07:25:34.999Z</time></trkpt><trkpt lat="40.008390536902" lon="9.218634800294016"><ele>1004.0</ele><time>2026-04-28T07:25:35.999Z</time></trkpt><trkpt lat="40.008319746216245" lon="9.218845787387513"><ele>1004.0</ele><time>2026-04-28T07:25:36.999Z</time></trkpt><trkpt lat="40.008231379204354" lon="9.219055624587494"><ele>991.3333333333334</ele><time>2026-04-28T07:25:37.999Z</time></trkpt><trkpt lat="40.00814410386954" lon="9.219255547359175"><ele>978.6666666666667</ele><time>2026-04-28T07:25:38.999Z</time></trkpt><trkpt lat="40.008091522499655" lon="9.21946370438508"><ele>966.0</ele><time>2026-04-28T07:25:39.999Z</time></trkpt><trkpt lat="40.008078390021595" lon="9.219682324131332"><ele>963.3333333333333</ele><time>2026-04-28T07:25:40.999Z</time></trkpt><trkpt lat="40.00809601191116" lon="9.219914611275913"><ele>960.6666666666666</ele><time>2026-04-28T07:25:41.999Z</time></trkpt><trkpt lat="40.00812486904386" lon="9.220136886594965"><ele>958.0</ele><time>2026-04-28T07:25:42.999Z</time></trkpt><trkpt lat="40.008154057872694" lon="9.220363542129887"><ele>958.0</ele><time>2026-04-28T07:25:43.999Z</time></trkpt><trkpt lat="40.00817960127854" lon="9.220570997946334"><ele>958.0</ele><time>2026-04-28T07:25:44.999Z</time></trkpt><trkpt lat="40.00821398560329" lon="9.220745991427696"><ele>958.0</ele><time>2026-04-28T07:25:45.999Z</time></trkpt><trkpt lat="40.00829240783735" lon="9.220883620320551"><ele>958.0</ele><time>2026-04-28T07:25:46.999Z</time></trkpt><trkpt lat="40.00843071550228" lon="9.220977105467425"><ele>967.0</ele><time>2026-04-28T07:25:47.999Z</time></trkpt><trkpt lat="40.008600620887" lon="9.22101968277014"><ele>976.0</ele><time>2026-04-28T07:25:48.999Z</time></trkpt><trkpt lat="40.008778385835114" lon="9.221035788219517"><ele>985.0</ele><time>2026-04-28T07:25:49.999Z</time></trkpt><trkpt lat="40.00891789891346" lon="9.221113235474078"><ele>985.0</ele><time>2026-04-28T07:25:50.999Z</time></trkpt><trkpt lat="40.00901744186039" lon="9.221225545901957"><ele>985.0</ele><time>2026-04-28T07:25:51.999Z</time></trkpt><trkpt lat="40.009075897201384" lon="9.221387114449428"><ele>985.0</ele><time>2026-04-28T07:25:52.999Z</time></trkpt><trkpt lat="40.00909525551537" lon="9.221606049866049"><ele>985.0</ele><time>2026-04-28T07:25:53.999Z</time></trkpt><trkpt lat="40.009114717648124" lon="9.221818186764498"><ele>974.6666666666666</ele><time>2026-04-28T07:25:54.999Z</time></trkpt><trkpt lat="40.009143709578865" lon="9.222026591622438"><ele>964.3333333333333</ele><time>2026-04-28T07:25:55.999Z</time></trkpt><trkpt lat="40.0091488488664" lon="9.222253001448998"><ele>954.0</ele><time>2026-04-28T07:25:56.999Z</time></trkpt><trkpt lat="40.0091461831341" lon="9.222469403837755"><ele>950.0</ele><time>2026-04-28T07:25:57.999Z</time></trkpt><trkpt lat="40.00913824473491" lon="9.222680042124566"><ele>946.0</ele><time>2026-04-28T07:25:58.999Z</time></trkpt><trkpt lat="40.00915029378597" lon="9.222860741900828"><ele>942.0</ele><time>2026-04-28T07:25:59.999Z</time></trkpt><trkpt lat="40.009187418634696" lon="9.223031809525775"><ele>938.0</ele><time>2026-04-28T07:26:00.999Z</time></trkpt><trkpt lat="40.00924081315848" lon="9.223177132602522"><ele>946.0</ele><time>2026-04-28T07:26:01.999Z</time></trkpt><trkpt lat="40.00927983327609" lon="9.223320978162187"><ele>954.0</ele><time>2026-04-28T07:26:02.999Z</time></trkpt><trkpt lat="40.00931305851174" lon="9.223463223953285"><ele>962.0</ele><time>2026-04-28T07:26:03.999Z</time></trkpt><trkpt lat="40.00934313838898" lon="9.223597858223384"><ele>970.0</ele><time>2026-04-28T07:26:04.999Z</time></trkpt><trkpt lat="40.009375197289735" lon="9.223739631369849"><ele>970.0</ele><time>2026-04-28T07:26:05.999Z</time></trkpt><trkpt lat="40.00938126362707" lon="9.223873581359907"><ele>970.0</ele><time>2026-04-28T07:26:06.999Z</time></trkpt><trkpt lat="40.00940146989102" lon="9.22400067998547"><ele>970.0</ele><time>2026-04-28T07:26:07.999Z</time></trkpt><trkpt lat="40.00941468145119" lon="9.224132849857755"><ele>970.0</ele><time>2026-04-28T07:26:08.999Z</time></trkpt><trkpt lat="40.00942257326781" lon="9.224267213185948"><ele>970.0</ele><time>2026-04-28T07:26:09.999Z</time></trkpt><trkpt lat="40.00943493599532" lon="9.224403381883764"><ele>968.2</ele><time>2026-04-28T07:26:10.999Z</time></trkpt><trkpt lat="40.00945163769204" lon="9.224537173339405"><ele>966.4</ele><time>2026-04-28T07:26:11.999Z</time></trkpt><trkpt lat="40.0094622112722" lon="9.224678089952349"><ele>964.5999999999999</ele><time>2026-04-28T07:26:12.999Z</time></trkpt><trkpt lat="40.00946197867757" lon="9.224822146989663"><ele>962.8</ele><time>2026-04-28T07:26:13.999Z</time></trkpt><trkpt lat="40.00947483878295" lon="9.224965921055537"><ele>961.0</ele><time>2026-04-28T07:26:14.999Z</time></trkpt><trkpt lat="40.00952348790935" lon="9.225104569160054"><ele>958.75</ele><time>2026-04-28T07:26:15.999Z</time></trkpt><trkpt lat="40.00960368894867" lon="9.225224970704398"><ele>956.5</ele><time>2026-04-28T07:26:16.999Z</time></trkpt><trkpt lat="40.00970015490919" lon="9.22532381007211"><ele>954.25</ele><time>2026-04-28T07:26:17.999Z</time></trkpt><trkpt lat="40.00979988748287" lon="9.225402227555339"><ele>952.0</ele><time>2026-04-28T07:26:18.999Z</time></trkpt><trkpt lat="40.00990611798405" lon="9.225486528816313"><ele>953.25</ele><time>2026-04-28T07:26:19.999Z</time></trkpt><trkpt lat="40.01001795952053" lon="9.225583339854312"><ele>954.5</ele><time>2026-04-28T07:26:20.999Z</time></trkpt><trkpt lat="40.01012583343157" lon="9.225678889419374"><ele>955.75</ele><time>2026-04-28T07:26:21.999Z</time></trkpt><trkpt lat="40.010230788945776" lon="9.225774126323625"><ele>957.0</ele><time>2026-04-28T07:26:22.999Z</time></trkpt><trkpt lat="40.010340980651584" lon="9.225872431383031"><ele>957.0</ele><time>2026-04-28T07:26:23.999Z</time></trkpt><trkpt lat="40.010449564678105" lon="9.225970472615266"><ele>957.0</ele><time>2026-04-28T07:26:24.999Z</time></trkpt><trkpt lat="40.010557023247394" lon="9.2260694666566"><ele>957.0</ele><time>2026-04-28T07:26:25.999Z</time></trkpt><trkpt lat="40.01066698720888" lon="9.226166468882166"><ele>957.0</ele><time>2026-04-28T07:26:26.999Z</time></trkpt><trkpt lat="40.010768102405244" lon="9.226262948603226"><ele>956.75</ele><time>2026-04-28T07:26:27.999Z</time></trkpt><trkpt lat="40.010859681094665" lon="9.226361928589453"><ele>956.5</ele><time>2026-04-28T07:26:28.999Z</time></trkpt><trkpt lat="40.010936546976005" lon="9.226476933270545"><ele>956.25</ele><time>2026-04-28T07:26:29.999Z</time></trkpt><trkpt lat="40.0110004383142" lon="9.226600118506248"><ele>956.0</ele><time>2026-04-28T07:26:30.999Z</time></trkpt><trkpt lat="40.011046518644925" lon="9.226744751028457"><ele>956.0</ele><time>2026-04-28T07:26:31.999Z</time></trkpt><trkpt lat="40.011098280646884" lon="9.226884403547574"><ele>955.9999999999999</ele><time>2026-04-28T07:26:32.998Z</time></trkpt><trkpt lat="40.011152834225136" lon="9.227016656786791"><ele>955.9999999999999</ele><time>2026-04-28T07:26:33.998Z</time></trkpt><trkpt lat="40.011204344167254" lon="9.227138190821517"><ele>956.0</ele><time>2026-04-28T07:26:34.998Z</time></trkpt><trkpt lat="40.011256737204306" lon="9.227246334845196"><ele>956.0</ele><time>2026-04-28T07:26:35.998Z</time></trkpt><trkpt lat="40.01132864492622" lon="9.227342560004097"><ele>955.5999999999999</ele><time>2026-04-28T07:26:36.998Z</time></trkpt><trkpt lat="40.011426097075145" lon="9.227411522924566"><ele>955.1999999999999</ele><time>2026-04-28T07:26:37.998Z</time></trkpt><trkpt lat="40.01151901501392" lon="9.22746255792554"><ele>954.8000000000001</ele><time>2026-04-28T07:26:38.998Z</time></trkpt><trkpt lat="40.011612118486376" lon="9.227505571129713"><ele>954.4000000000001</ele><time>2026-04-28T07:26:39.998Z</time></trkpt><trkpt lat="40.0117172814186" lon="9.227556353989295"><ele>954.0</ele><time>2026-04-28T07:26:40.998Z</time></trkpt><trkpt lat="40.011816815184886" lon="9.227595663162436"><ele>954.0</ele><time>2026-04-28T07:26:41.998Z</time></trkpt><trkpt lat="40.01192378888907" lon="9.227627715356581"><ele>954.0</ele><time>2026-04-28T07:26:42.998Z</time></trkpt><trkpt lat="40.01206867755274" lon="9.227740091082211"><ele>954.0</ele><time>2026-04-28T07:26:43.998Z</time></trkpt><trkpt lat="40.012175605534345" lon="9.227800419166112"><ele>954.0</ele><time>2026-04-28T07:26:44.998Z</time></trkpt><trkpt lat="40.012292391080194" lon="9.227849108744858"><ele>954.0</ele><time>2026-04-28T07:26:45.998Z</time></trkpt><trkpt lat="40.012404196180405" lon="9.227900602281048"><ele>954.0</ele><time>2026-04-28T07:26:46.998Z</time></trkpt><trkpt lat="40.01252242215202" lon="9.22794741239858"><ele>954.0</ele><time>2026-04-28T07:26:47.998Z</time></trkpt><trkpt lat="40.012646937226926" lon="9.22799473105926"><ele>954.0</ele><time>2026-04-28T07:26:48.998Z</time></trkpt><trkpt lat="40.01276850913437" lon="9.228044939630104"><ele>958.25</ele><time>2026-04-28T07:26:49.998Z</time></trkpt><trkpt lat="40.012884049199705" lon="9.228120188299162"><ele>962.5</ele><time>2026-04-28T07:26:50.998Z</time></trkpt><trkpt lat="40.01299161528387" lon="9.228213049951533"><ele>966.75</ele><time>2026-04-28T07:26:51.998Z</time></trkpt><trkpt lat="40.01309245122186" lon="9.228310192761482"><ele>971.0</ele><time>2026-04-28T07:26:52.998Z</time></trkpt><trkpt lat="40.01319809249266" lon="9.228401250780472"><ele>965.5</ele><time>2026-04-28T07:26:53.998Z</time></trkpt><trkpt lat="40.01329894165303" lon="9.228495316008246"><ele>960.0</ele><time>2026-04-28T07:26:54.998Z</time></trkpt><trkpt lat="40.01340387534891" lon="9.228575555074551"><ele>954.5</ele><time>2026-04-28T07:26:55.998Z</time></trkpt><trkpt lat="40.0135110962347" lon="9.228648865011802"><ele>949.0</ele><time>2026-04-28T07:26:56.998Z</time></trkpt><trkpt lat="40.01361313911273" lon="9.228718146880793"><ele>949.0</ele><time>2026-04-28T07:26:57.998Z</time></trkpt><trkpt lat="40.01371726392384" lon="9.228780055055685"><ele>949.0</ele><time>2026-04-28T07:26:58.998Z</time></trkpt><trkpt lat="40.013818729714835" lon="9.228837142766043"><ele>949.0</ele><time>2026-04-28T07:26:59.998Z</time></trkpt><trkpt lat="40.01391814006837" lon="9.228921060902135"><ele>949.0</ele><time>2026-04-28T07:27:00.998Z</time></trkpt><trkpt lat="40.01401574781097" lon="9.228989908791027"><ele>946.25</ele><time>2026-04-28T07:27:01.998Z</time></trkpt><trkpt lat="40.014114353135476" lon="9.22907106236817"><ele>943.5</ele><time>2026-04-28T07:27:02.998Z</time></trkpt><trkpt lat="40.014204334602084" lon="9.229157086724646"><ele>940.75</ele><time>2026-04-28T07:27:03.998Z</time></trkpt><trkpt lat="40.01429486846181" lon="9.229257887533702"><ele>938.0</ele><time>2026-04-28T07:27:04.998Z</time></trkpt><trkpt lat="40.0143798211395" lon="9.229360457454735"><ele>938.0</ele><time>2026-04-28T07:27:05.998Z</time></trkpt><trkpt lat="40.014460996134034" lon="9.22946105812414"><ele>938.0</ele><time>2026-04-28T07:27:06.998Z</time></trkpt><trkpt lat="40.014553495109666" lon="9.229549802642701"><ele>938.0</ele><time>2026-04-28T07:27:07.998Z</time></trkpt><trkpt lat="40.0146520905421" lon="9.229629059761182"><ele>938.0</ele><time>2026-04-28T07:27:08.998Z</time></trkpt><trkpt lat="40.014752493502726" lon="9.229686145013012"><ele>938.0</ele><time>2026-04-28T07:27:09.998Z</time></trkpt><trkpt lat="40.014860732978605" lon="9.229743382856347"><ele>938.0</ele><time>2026-04-28T07:27:10.998Z</time></trkpt><trkpt lat="40.014958933396585" lon="9.229815320277785"><ele>938.0</ele><time>2026-04-28T07:27:11.998Z</time></trkpt><trkpt lat="40.01500905248819" lon="9.229926115486393"><ele>938.0</ele><time>2026-04-28T07:27:12.998Z</time></trkpt><trkpt lat="40.015028825076044" lon="9.230077414260611"><ele>938.0</ele><time>2026-04-28T07:27:13.998Z</time></trkpt><trkpt lat="40.01503973938245" lon="9.230226134322526"><ele>937.25</ele><time>2026-04-28T07:27:14.998Z</time></trkpt><trkpt lat="40.01506979920959" lon="9.23036673021753"><ele>936.5</ele><time>2026-04-28T07:27:15.998Z</time></trkpt><trkpt lat="40.015149446847246" lon="9.230480092426424"><ele>935.75</ele><time>2026-04-28T07:27:17Z</time></trkpt><trkpt lat="40.015257269036894" lon="9.230565861053847"><ele>935.0</ele><time>2026-04-28T07:27:17.999Z</time></trkpt><trkpt lat="40.01535596671967" lon="9.230650898231614"><ele>929.75</ele><time>2026-04-28T07:27:18.999Z</time></trkpt><trkpt lat="40.01544030070071" lon="9.23076995620993"><ele>924.5</ele><time>2026-04-28T07:27:20Z</time></trkpt><trkpt lat="40.01549473785803" lon="9.230914866948101"><ele>919.25</ele><time>2026-04-28T07:27:21Z</time></trkpt><trkpt lat="40.015535176937185" lon="9.23107717731405"><ele>914.0</ele><time>2026-04-28T07:27:22Z</time></trkpt><trkpt lat="40.01558195680364" lon="9.23122292670846"><ele>914.0</ele><time>2026-04-28T07:27:23Z</time></trkpt><trkpt lat="40.015646908967916" lon="9.231359763603804"><ele>914.0</ele><time>2026-04-28T07:27:24Z</time></trkpt><trkpt lat="40.01571249293167" lon="9.23149732318792"><ele>914.0</ele><time>2026-04-28T07:27:25Z</time></trkpt><trkpt lat="40.01577625305466" lon="9.231634042150594"><ele>914.0</ele><time>2026-04-28T07:27:26Z</time></trkpt><trkpt lat="40.01584684230642" lon="9.231772705458075"><ele>913.0</ele><time>2026-04-28T07:27:26.999Z</time></trkpt><trkpt lat="40.01591469582542" lon="9.231914219062503"><ele>912.0</ele><time>2026-04-28T07:27:27.999Z</time></trkpt><trkpt lat="40.01598452934861" lon="9.232051694476363"><ele>911.0</ele><time>2026-04-28T07:27:29Z</time></trkpt><trkpt lat="40.01605580554329" lon="9.232191442141676"><ele>910.0</ele><time>2026-04-28T07:27:30Z</time></trkpt><trkpt lat="40.016127382164704" lon="9.232329917924032"><ele>910.0</ele><time>2026-04-28T07:27:31Z</time></trkpt><trkpt lat="40.01619285489981" lon="9.232471374383547"><ele>910.0</ele><time>2026-04-28T07:27:32Z</time></trkpt><trkpt lat="40.016259739025614" lon="9.23260515950799"><ele>910.0</ele><time>2026-04-28T07:27:33Z</time></trkpt><trkpt lat="40.01631552838658" lon="9.23273735283243"><ele>910.0</ele><time>2026-04-28T07:27:34Z</time></trkpt><trkpt lat="40.016374423349596" lon="9.232866853812768"><ele>910.0</ele><time>2026-04-28T07:27:35Z</time></trkpt><trkpt lat="40.01639328018104" lon="9.233020820690358"><ele>910.0</ele><time>2026-04-28T07:27:36Z</time></trkpt><trkpt lat="40.01637410256692" lon="9.233181526049274"><ele>910.0</ele><time>2026-04-28T07:27:37Z</time></trkpt><trkpt lat="40.01632380759502" lon="9.23332536358183"><ele>910.0</ele><time>2026-04-28T07:27:38Z</time></trkpt><trkpt lat="40.01627621799919" lon="9.233448567335817"><ele>908.0</ele><time>2026-04-28T07:27:39Z</time></trkpt><trkpt lat="40.01620231714094" lon="9.23352617612747"><ele>906.0</ele><time>2026-04-28T07:27:40Z</time></trkpt><trkpt lat="40.01599712351542" lon="9.233716617731634"><ele>904.0</ele><time>2026-04-28T07:27:41Z</time></trkpt><trkpt lat="40.01586671054917" lon="9.23364669391781"><ele>904.0</ele><time>2026-04-28T07:27:42Z</time></trkpt><trkpt lat="40.01579024333551" lon="9.233428714923116"><ele>904.0</ele><time>2026-04-28T07:27:43Z</time></trkpt><trkpt lat="40.0159507016339" lon="9.233210079209018"><ele>904.0</ele><time>2026-04-28T07:27:44Z</time></trkpt><trkpt lat="40.016005584177954" lon="9.233084750691873"><ele>905.2</ele><time>2026-04-28T07:27:45Z</time></trkpt><trkpt lat="40.01605916604022" lon="9.232968125271249"><ele>906.4000000000001</ele><time>2026-04-28T07:27:46Z</time></trkpt><trkpt lat="40.016085818985005" lon="9.23283429413524"><ele>907.6</ele><time>2026-04-28T07:27:47Z</time></trkpt><trkpt lat="40.01608077926273" lon="9.232697396718633"><ele>908.8</ele><time>2026-04-28T07:27:48Z</time></trkpt><trkpt lat="40.016048781034115" lon="9.232580179368275"><ele>910.0</ele><time>2026-04-28T07:27:49Z</time></trkpt><trkpt lat="40.015971514946344" lon="9.232463204451147"><ele>910.0</ele><time>2026-04-28T07:27:50Z</time></trkpt><trkpt lat="40.01590113617878" lon="9.232355323933463"><ele>910.0</ele><time>2026-04-28T07:27:51Z</time></trkpt><trkpt lat="40.015839185910274" lon="9.232238995676642"><ele>910.0</ele><time>2026-04-28T07:27:52Z</time></trkpt><trkpt lat="40.01576921114513" lon="9.232121154740923"><ele>910.0</ele><time>2026-04-28T07:27:53Z</time></trkpt><trkpt lat="40.01570106885574" lon="9.232004193433273"><ele>910.0</ele><time>2026-04-28T07:27:53.999Z</time></trkpt><trkpt lat="40.01563672941778" lon="9.231888100753682"><ele>910.8</ele><time>2026-04-28T07:27:54.999Z</time></trkpt><trkpt lat="40.01557175360662" lon="9.231771490810345"><ele>911.6</ele><time>2026-04-28T07:27:55.999Z</time></trkpt><trkpt lat="40.01549803626467" lon="9.231676490952767"><ele>912.4000000000001</ele><time>2026-04-28T07:27:56.999Z</time></trkpt><trkpt lat="40.015434903722394" lon="9.231569995122099"><ele>913.2</ele><time>2026-04-28T07:27:57.999Z</time></trkpt><trkpt lat="40.01538150709326" lon="9.231457861558626"><ele>914.0</ele><time>2026-04-28T07:27:58.999Z</time></trkpt><trkpt lat="40.01532557905994" lon="9.231338446709408"><ele>914.0</ele><time>2026-04-28T07:27:59.999Z</time></trkpt><trkpt lat="40.01527554812833" lon="9.23121052410238"><ele>914.0000000000001</ele><time>2026-04-28T07:28:00.999Z</time></trkpt><trkpt lat="40.01521329557832" lon="9.231087907997235"><ele>914.0000000000001</ele><time>2026-04-28T07:28:01.999Z</time></trkpt><trkpt lat="40.015132459991094" lon="9.230997246476718"><ele>914.0</ele><time>2026-04-28T07:28:02.999Z</time></trkpt><trkpt lat="40.01502604622207" lon="9.230942331745219"><ele>914.0</ele><time>2026-04-28T07:28:03.999Z</time></trkpt><trkpt lat="40.01490974434323" lon="9.230924405560744"><ele>909.5</ele><time>2026-04-28T07:28:04.999Z</time></trkpt><trkpt lat="40.01479946881572" lon="9.23089969555645"><ele>905.0</ele><time>2026-04-28T07:28:05.999Z</time></trkpt><trkpt lat="40.014674000670546" lon="9.230882047158685"><ele>900.5</ele><time>2026-04-28T07:28:06.999Z</time></trkpt><trkpt lat="40.01456818162172" lon="9.230825928624528"><ele>896.0</ele><time>2026-04-28T07:28:07.999Z</time></trkpt><trkpt lat="40.0144738749857" lon="9.230757278312039"><ele>896.0</ele><time>2026-04-28T07:28:08.999Z</time></trkpt><trkpt lat="40.01437985125437" lon="9.230682239124505"><ele>895.9999999999999</ele><time>2026-04-28T07:28:09.999Z</time></trkpt><trkpt lat="40.01428280656241" lon="9.230643313894365"><ele>895.9999999999999</ele><time>2026-04-28T07:28:10.999Z</time></trkpt><trkpt lat="40.014173120914556" lon="9.230626470227799"><ele>896.0</ele><time>2026-04-28T07:28:11.999Z</time></trkpt><trkpt lat="40.01407267226796" lon="9.230623362963232"><ele>896.0</ele><time>2026-04-28T07:28:12.999Z</time></trkpt><trkpt lat="40.01395797285003" lon="9.230591330083795"><ele>898.0</ele><time>2026-04-28T07:28:13.999Z</time></trkpt><trkpt lat="40.01385064826916" lon="9.230586957677694"><ele>899.9999999999999</ele><time>2026-04-28T07:28:14.999Z</time></trkpt><trkpt lat="40.01374511982228" lon="9.230579031598696"><ele>901.9999999999999</ele><time>2026-04-28T07:28:15.999Z</time></trkpt><trkpt lat="40.013650733852316" lon="9.230552464734828"><ele>904.0</ele><time>2026-04-28T07:28:16.999Z</time></trkpt><trkpt lat="40.01355512723493" lon="9.230505771933212"><ele>906.0</ele><time>2026-04-28T07:28:17.999Z</time></trkpt><trkpt lat="40.013479898541846" lon="9.230426418295247"><ele>906.0</ele><time>2026-04-28T07:28:18.999Z</time></trkpt><trkpt lat="40.01340087034309" lon="9.230340580406061"><ele>905.9999999999999</ele><time>2026-04-28T07:28:19.999Z</time></trkpt><trkpt lat="40.01331877562801" lon="9.23029129797713"><ele>905.9999999999999</ele><time>2026-04-28T07:28:20.999Z</time></trkpt><trkpt lat="40.01323456268976" lon="9.230256497041418"><ele>906.0</ele><time>2026-04-28T07:28:21.999Z</time></trkpt><trkpt lat="40.01315519989618" lon="9.230218567706192"><ele>906.0</ele><time>2026-04-28T07:28:22.999Z</time></trkpt><trkpt lat="40.01307338879472" lon="9.230147402012808"><ele>905.5999999999999</ele><time>2026-04-28T07:28:23.999Z</time></trkpt><trkpt lat="40.01299394711858" lon="9.23007040378631"><ele>905.1999999999999</ele><time>2026-04-28T07:28:24.999Z</time></trkpt><trkpt lat="40.01291521496366" lon="9.230009655072175"><ele>904.8000000000001</ele><time>2026-04-28T07:28:25.999Z</time></trkpt><trkpt lat="40.01284076884787" lon="9.229931842758191"><ele>904.4000000000001</ele><time>2026-04-28T07:28:26.999Z</time></trkpt><trkpt lat="40.012790319472714" lon="9.229843144257075"><ele>904.0</ele><time>2026-04-28T07:28:27.999Z</time></trkpt><trkpt lat="40.012751491135575" lon="9.229749355969112"><ele>904.0</ele><time>2026-04-28T07:28:28.999Z</time></trkpt><trkpt lat="40.01270451755818" lon="9.229644602111783"><ele>904.0000000000001</ele><time>2026-04-28T07:28:29.999Z</time></trkpt><trkpt lat="40.012644741626055" lon="9.229551365732688"><ele>904.0000000000001</ele><time>2026-04-28T07:28:30.999Z</time></trkpt><trkpt lat="40.0125709769394" lon="9.22947857688963"><ele>904.0</ele><time>2026-04-28T07:28:31.999Z</time></trkpt><trkpt lat="40.01249480754964" lon="9.229413119519801"><ele>904.0</ele><time>2026-04-28T07:28:32.999Z</time></trkpt><trkpt lat="40.0124091052777" lon="9.22935183740967"><ele>900.8000000000001</ele><time>2026-04-28T07:28:33.999Z</time></trkpt><trkpt lat="40.0123195192295" lon="9.22930223088505"><ele>897.6000000000001</ele><time>2026-04-28T07:28:34.999Z</time></trkpt><trkpt lat="40.01224079333565" lon="9.229238647291732"><ele>894.4</ele><time>2026-04-28T07:28:35.999Z</time></trkpt><trkpt lat="40.01214576548305" lon="9.229183130425218"><ele>891.2</ele><time>2026-04-28T07:28:36.999Z</time></trkpt><trkpt lat="40.01205822016536" lon="9.22913629648179"><ele>888.0</ele><time>2026-04-28T07:28:37.999Z</time></trkpt><trkpt lat="40.011956573204266" lon="9.229084462036173"><ele>888.0</ele><time>2026-04-28T07:28:39.999Z</time></trkpt><trkpt lat="40.01187891870862" lon="9.229038837046064"><ele>888.0</ele><time>2026-04-28T07:28:41.999Z</time></trkpt><trkpt lat="40.01181495356928" lon="9.22901459303911"><ele>888.0</ele><time>2026-04-28T07:28:42.999Z</time></trkpt><trkpt lat="40.01174943549233" lon="9.2289882857652"><ele>888.0</ele><time>2026-04-28T07:28:43.999Z</time></trkpt><trkpt lat="40.0116617565846" lon="9.22897150818708"><ele>888.0</ele><time>2026-04-28T07:28:44.999Z</time></trkpt><trkpt lat="40.01157954745798" lon="9.228948099292062"><ele>888.0</ele><time>2026-04-28T07:28:45.999Z</time></trkpt><trkpt lat="40.011490044525296" lon="9.228940112862468"><ele>890.1666666666666</ele><time>2026-04-28T07:28:46.999Z</time></trkpt><trkpt lat="40.01141215784712" lon="9.228920434664587"><ele>892.3333333333333</ele><time>2026-04-28T07:28:47.999Z</time></trkpt><trkpt lat="40.01132747591238" lon="9.228893705908774"><ele>894.5</ele><time>2026-04-28T07:28:48.999Z</time></trkpt><trkpt lat="40.01122583467279" lon="9.228864569503473"><ele>896.6666666666666</ele><time>2026-04-28T07:28:49.999Z</time></trkpt><trkpt lat="40.01114888424585" lon="9.228807212021778"><ele>898.8333333333333</ele><time>2026-04-28T07:28:50.999Z</time></trkpt><trkpt lat="40.01106974628239" lon="9.228751701848276"><ele>901.0</ele><time>2026-04-28T07:28:51.999Z</time></trkpt><trkpt lat="40.010993728918436" lon="9.22869463620364"><ele>901.0</ele><time>2026-04-28T07:28:52.999Z</time></trkpt><trkpt lat="40.01091547419886" lon="9.228624939234074"><ele>900.9999999999999</ele><time>2026-04-28T07:28:53.999Z</time></trkpt><trkpt lat="40.01084435727845" lon="9.228545755306147"><ele>900.9999999999999</ele><time>2026-04-28T07:28:54.999Z</time></trkpt><trkpt lat="40.01077359689718" lon="9.228466204638018"><ele>901.0</ele><time>2026-04-28T07:28:55.999Z</time></trkpt><trkpt lat="40.010694356540114" lon="9.228393299530582"><ele>901.0</ele><time>2026-04-28T07:28:56.999Z</time></trkpt><trkpt lat="40.010626670706074" lon="9.22829730241034"><ele>900.1999999999999</ele><time>2026-04-28T07:28:57.999Z</time></trkpt><trkpt lat="40.01055838297704" lon="9.22821805927229"><ele>899.3999999999999</ele><time>2026-04-28T07:28:58.999Z</time></trkpt><trkpt lat="40.01048360753779" lon="9.228149857784468"><ele>898.6</ele><time>2026-04-28T07:28:59.998Z</time></trkpt><trkpt lat="40.01041057786888" lon="9.228079456032559"><ele>897.8</ele><time>2026-04-28T07:29:00.998Z</time></trkpt><trkpt lat="40.01033020509946" lon="9.228018725278204"><ele>897.0</ele><time>2026-04-28T07:29:01.998Z</time></trkpt><trkpt lat="40.01025238623674" lon="9.227948850607326"><ele>897.0</ele><time>2026-04-28T07:29:02.998Z</time></trkpt><trkpt lat="40.010166044059574" lon="9.227887324878173"><ele>897.0</ele><time>2026-04-28T07:29:03.998Z</time></trkpt><trkpt lat="40.01009709283434" lon="9.2278193649794"><ele>897.0</ele><time>2026-04-28T07:29:04.998Z</time></trkpt><trkpt lat="40.010037608729135" lon="9.22772750561405"><ele>897.0</ele><time>2026-04-28T07:29:05.998Z</time></trkpt><trkpt lat="40.00999274803885" lon="9.227631133643447"><ele>897.0</ele><time>2026-04-28T07:29:06.998Z</time></trkpt><trkpt lat="40.00993064209627" lon="9.227555379933289"><ele>897.0</ele><time>2026-04-28T07:29:07.998Z</time></trkpt><trkpt lat="40.009865095119416" lon="9.227481921314132"><ele>895.6666666666666</ele><time>2026-04-28T07:29:08.998Z</time></trkpt><trkpt lat="40.009789967726576" lon="9.227423050677451"><ele>894.3333333333333</ele><time>2026-04-28T07:29:09.998Z</time></trkpt><trkpt lat="40.009701780903114" lon="9.227382489415582"><ele>893.0</ele><time>2026-04-28T07:29:10.998Z</time></trkpt><trkpt lat="40.00960633672915" lon="9.22738129852248"><ele>891.6666666666666</ele><time>2026-04-28T07:29:11.998Z</time></trkpt><trkpt lat="40.00952547804138" lon="9.22736879729396"><ele>890.3333333333333</ele><time>2026-04-28T07:29:12.998Z</time></trkpt><trkpt lat="40.00945220917666" lon="9.227348767778086"><ele>889.0</ele><time>2026-04-28T07:29:13.998Z</time></trkpt><trkpt lat="40.009368947149184" lon="9.227323551271791"><ele>888.9999999999999</ele><time>2026-04-28T07:29:14.998Z</time></trkpt><trkpt lat="40.00928003157465" lon="9.227321777349738"><ele>889.0</ele><time>2026-04-28T07:29:15.998Z</time></trkpt><trkpt lat="40.00919113397196" lon="9.227317750566096"><ele>889.0</ele><time>2026-04-28T07:29:16.998Z</time></trkpt><trkpt lat="40.009103426406966" lon="9.227328149119034"><ele>889.0</ele><time>2026-04-28T07:29:17.998Z</time></trkpt><trkpt lat="40.009016399848214" lon="9.2273373969685"><ele>888.9999999999999</ele><time>2026-04-28T07:29:18.998Z</time></trkpt><trkpt lat="40.00892386684366" lon="9.227354717397912"><ele>889.0</ele><time>2026-04-28T07:29:19.998Z</time></trkpt><trkpt lat="40.00884513204763" lon="9.227339299331579"><ele>887.0</ele><time>2026-04-28T07:29:20.998Z</time></trkpt><trkpt lat="40.00874899183261" lon="9.227358652934303"><ele>885.0000000000001</ele><time>2026-04-28T07:29:21.998Z</time></trkpt><trkpt lat="40.00865831059201" lon="9.227365263468675"><ele>883.0000000000001</ele><time>2026-04-28T07:29:23Z</time></trkpt><trkpt lat="40.00855632457689" lon="9.227311683289663"><ele>881.0</ele><time>2026-04-28T07:29:23.999Z</time></trkpt><trkpt lat="40.00846011943325" lon="9.227263658414245"><ele>879.0</ele><time>2026-04-28T07:29:24.999Z</time></trkpt><trkpt lat="40.008371794307536" lon="9.227208031571003"><ele>878.8000000000001</ele><time>2026-04-28T07:29:26Z</time></trkpt><trkpt lat="40.008285862558466" lon="9.227130322728291"><ele>878.6000000000001</ele><time>2026-04-28T07:29:26.999Z</time></trkpt><trkpt lat="40.00819457549755" lon="9.227064790916268"><ele>878.4</ele><time>2026-04-28T07:29:27.999Z</time></trkpt><trkpt lat="40.0081021862274" lon="9.227015049984452"><ele>878.2</ele><time>2026-04-28T07:29:29Z</time></trkpt><trkpt lat="40.008020777588946" lon="9.226953121110006"><ele>878.0</ele><time>2026-04-28T07:29:29.999Z</time></trkpt><trkpt lat="40.00793992479342" lon="9.2268953468433"><ele>878.0</ele><time>2026-04-28T07:29:30.999Z</time></trkpt><trkpt lat="40.00784366978482" lon="9.226861210995356"><ele>878.0</ele><time>2026-04-28T07:29:31.999Z</time></trkpt><trkpt lat="40.0077646607792" lon="9.226814539505112"><ele>878.0</ele><time>2026-04-28T07:29:33Z</time></trkpt><trkpt lat="40.00769510925716" lon="9.226724666693046"><ele>878.0</ele><time>2026-04-28T07:29:34Z</time></trkpt><trkpt lat="40.00766026776327" lon="9.22661801095689"><ele>878.0</ele><time>2026-04-28T07:29:35Z</time></trkpt><trkpt lat="40.00762881773116" lon="9.226506991405115"><ele>878.5999999999999</ele><time>2026-04-28T07:29:35.999Z</time></trkpt><trkpt lat="40.00761931954315" lon="9.226377671819531"><ele>879.1999999999999</ele><time>2026-04-28T07:29:36.999Z</time></trkpt><trkpt lat="40.00760153515488" lon="9.226237217024506"><ele>879.8</ele><time>2026-04-28T07:29:37.999Z</time></trkpt><trkpt lat="40.00759346415348" lon="9.226111749233358"><ele>880.4</ele><time>2026-04-28T07:29:38.999Z</time></trkpt><trkpt lat="40.00758077645381" lon="9.225989651209522"><ele>881.0</ele><time>2026-04-28T07:29:39.999Z</time></trkpt><trkpt lat="40.007558239398186" lon="9.225865602951629"><ele>881.0</ele><time>2026-04-28T07:29:40.999Z</time></trkpt><trkpt lat="40.00752227316978" lon="9.225749412462292"><ele>880.9999999999999</ele><time>2026-04-28T07:29:41.999Z</time></trkpt><trkpt lat="40.00745882666144" lon="9.225655534332288"><ele>880.9999999999999</ele><time>2026-04-28T07:29:42.999Z</time></trkpt><trkpt lat="40.00738254687952" lon="9.225567339982929"><ele>881.0</ele><time>2026-04-28T07:29:43.999Z</time></trkpt><trkpt lat="40.00731892719771" lon="9.225477252264255"><ele>881.0</ele><time>2026-04-28T07:29:44.999Z</time></trkpt><trkpt lat="40.007267200181545" lon="9.225367559922942"><ele>879.1999999999999</ele><time>2026-04-28T07:29:45.999Z</time></trkpt><trkpt lat="40.007225465790455" lon="9.225245601618543"><ele>877.3999999999999</ele><time>2026-04-28T07:29:46.999Z</time></trkpt><trkpt lat="40.0072223960597" lon="9.225120204860984"><ele>875.6</ele><time>2026-04-28T07:29:47.999Z</time></trkpt><trkpt lat="40.007213601994096" lon="9.22499684243589"><ele>873.8</ele><time>2026-04-28T07:29:48.999Z</time></trkpt><trkpt lat="40.007229818206845" lon="9.224859716873988"><ele>872.0</ele><time>2026-04-28T07:29:49.999Z</time></trkpt><trkpt lat="40.00722212840903" lon="9.224733538849632"><ele>872.0</ele><time>2026-04-28T07:29:50.999Z</time></trkpt><trkpt lat="40.00719187532716" lon="9.224624035127153"><ele>872.0</ele><time>2026-04-28T07:29:51.999Z</time></trkpt><trkpt lat="40.00704890014114" lon="9.224483765830948"><ele>872.0</ele><time>2026-04-28T07:29:53.999Z</time></trkpt><trkpt lat="40.006951941743864" lon="9.224457782444082"><ele>872.0</ele><time>2026-04-28T07:29:54.999Z</time></trkpt><trkpt lat="40.00684897496435" lon="9.224443426134947"><ele>872.0</ele><time>2026-04-28T07:29:55.999Z</time></trkpt><trkpt lat="40.00675111118591" lon="9.2244104893502"><ele>872.0</ele><time>2026-04-28T07:29:56.999Z</time></trkpt><trkpt lat="40.00665632080553" lon="9.224352425329448"><ele>872.0</ele><time>2026-04-28T07:29:57.999Z</time></trkpt><trkpt lat="40.0065686425461" lon="9.224264824536176"><ele>872.0</ele><time>2026-04-28T07:29:58.999Z</time></trkpt><trkpt lat="40.00648758523346" lon="9.224177075952364"><ele>872.0</ele><time>2026-04-28T07:29:59.999Z</time></trkpt><trkpt lat="40.006412785141805" lon="9.224072524545678"><ele>868.8</ele><time>2026-04-28T07:30:00.999Z</time></trkpt><trkpt lat="40.00633516508575" lon="9.223974865975459"><ele>865.6</ele><time>2026-04-28T07:30:01.999Z</time></trkpt><trkpt lat="40.00624860780642" lon="9.223889524716528"><ele>862.3999999999999</ele><time>2026-04-28T07:30:02.999Z</time></trkpt><trkpt lat="40.00617300338259" lon="9.223778218024806"><ele>859.1999999999999</ele><time>2026-04-28T07:30:03.999Z</time></trkpt><trkpt lat="40.00610038556303" lon="9.223672141933488"><ele>856.0</ele><time>2026-04-28T07:30:04.999Z</time></trkpt><trkpt lat="40.006083216415945" lon="9.223542772104606"><ele>856.0</ele><time>2026-04-28T07:30:05.999Z</time></trkpt><trkpt lat="40.006117695796945" lon="9.223414354521555"><ele>855.9999999999999</ele><time>2026-04-28T07:30:06.999Z</time></trkpt><trkpt lat="40.00619066897821" lon="9.223300448766453"><ele>855.9999999999999</ele><time>2026-04-28T07:30:07.999Z</time></trkpt><trkpt lat="40.00626504768245" lon="9.223199756654976"><ele>856.0</ele><time>2026-04-28T07:30:08.999Z</time></trkpt><trkpt lat="40.00633776566333" lon="9.22310252839152"><ele>856.0</ele><time>2026-04-28T07:30:09.999Z</time></trkpt><trkpt lat="40.00638306011052" lon="9.222994911147486"><ele>854.8</ele><time>2026-04-28T07:30:10.999Z</time></trkpt><trkpt lat="40.00639021017156" lon="9.222871965697735"><ele>853.5999999999999</ele><time>2026-04-28T07:30:11.999Z</time></trkpt><trkpt lat="40.00636603505198" lon="9.222736376163526"><ele>852.4</ele><time>2026-04-28T07:30:12.999Z</time></trkpt><trkpt lat="40.006327274255625" lon="9.222594555750126"><ele>851.2</ele><time>2026-04-28T07:30:13.999Z</time></trkpt><trkpt lat="40.00629771031765" lon="9.22246409451441"><ele>850.0</ele><time>2026-04-28T07:30:14.999Z</time></trkpt><trkpt lat="40.006264056819944" lon="9.22234212283843"><ele>851.6</ele><time>2026-04-28T07:30:15.999Z</time></trkpt><trkpt lat="40.0062118473006" lon="9.222225713345285"><ele>853.2</ele><time>2026-04-28T07:30:16.999Z</time></trkpt><trkpt lat="40.006164781837626" lon="9.222108601274988"><ele>854.8</ele><time>2026-04-28T07:30:17.999Z</time></trkpt><trkpt lat="40.00611485885627" lon="9.221975446231058"><ele>856.4</ele><time>2026-04-28T07:30:18.999Z</time></trkpt><trkpt lat="40.00606443825895" lon="9.221857838931578"><ele>858.0</ele><time>2026-04-28T07:30:19.999Z</time></trkpt><trkpt lat="40.00601287284597" lon="9.221740501071563"><ele>858.0</ele><time>2026-04-28T07:30:20.998Z</time></trkpt><trkpt lat="40.00594751170576" lon="9.221616283462108"><ele>858.0</ele><time>2026-04-28T07:30:21.998Z</time></trkpt><trkpt lat="40.00588113196507" lon="9.221497207004115"><ele>858.0</ele><time>2026-04-28T07:30:22.998Z</time></trkpt><trkpt lat="40.00580338049394" lon="9.22140517338052"><ele>858.0</ele><time>2026-04-28T07:30:23.998Z</time></trkpt><trkpt lat="40.005729752767955" lon="9.221313621037893"><ele>858.0</ele><time>2026-04-28T07:30:24.998Z</time></trkpt><trkpt lat="40.00564904966275" lon="9.221226836272391"><ele>856.0</ele><time>2026-04-28T07:30:25.998Z</time></trkpt><trkpt lat="40.00556444420234" lon="9.221138758590051"><ele>854.0</ele><time>2026-04-28T07:30:26.998Z</time></trkpt><trkpt lat="40.00548536788414" lon="9.221059764985265"><ele>852.0</ele><time>2026-04-28T07:30:27.998Z</time></trkpt><trkpt lat="40.005398648080806" lon="9.220980340442647"><ele>850.0</ele><time>2026-04-28T07:30:28.998Z</time></trkpt><trkpt lat="40.00530788968099" lon="9.220925815614532"><ele>848.0</ele><time>2026-04-28T07:30:29.998Z</time></trkpt><trkpt lat="40.00522014377072" lon="9.220860180892616"><ele>848.0</ele><time>2026-04-28T07:30:30.998Z</time></trkpt><trkpt lat="40.00514184665371" lon="9.220795890146581"><ele>848.0</ele><time>2026-04-28T07:30:31.998Z</time></trkpt><trkpt lat="40.005071734302696" lon="9.220729476488714"><ele>848.0</ele><time>2026-04-28T07:30:32.998Z</time></trkpt><trkpt lat="40.00501639845399" lon="9.2206311389676"><ele>848.0</ele><time>2026-04-28T07:30:33.998Z</time></trkpt><trkpt lat="40.004970130477965" lon="9.220533484147765"><ele>848.0</ele><time>2026-04-28T07:30:34.998Z</time></trkpt><trkpt lat="40.004932148090894" lon="9.220420596463185"><ele>847.5000000000001</ele><time>2026-04-28T07:30:35.998Z</time></trkpt><trkpt lat="40.00488392481253" lon="9.220325745150049"><ele>847.0</ele><time>2026-04-28T07:30:36.998Z</time></trkpt><trkpt lat="40.00483308959459" lon="9.220235672929059"><ele>846.5</ele><time>2026-04-28T07:30:37.998Z</time></trkpt><trkpt lat="40.00478168674362" lon="9.220149056614517"><ele>846.0</ele><time>2026-04-28T07:30:38.998Z</time></trkpt><trkpt lat="40.00472644967768" lon="9.220061307541611"><ele>845.5000000000001</ele><time>2026-04-28T07:30:39.998Z</time></trkpt><trkpt lat="40.00466644919832" lon="9.21998539022688"><ele>845.0</ele><time>2026-04-28T07:30:40.998Z</time></trkpt><trkpt lat="40.00459613331666" lon="9.219914501013335"><ele>845.0000000000001</ele><time>2026-04-28T07:30:41.998Z</time></trkpt><trkpt lat="40.00451750737753" lon="9.21985443196467"><ele>845.0</ele><time>2026-04-28T07:30:42.998Z</time></trkpt><trkpt lat="40.00442378591483" lon="9.219824381766275"><ele>845.0</ele><time>2026-04-28T07:30:43.998Z</time></trkpt><trkpt lat="40.00433519947776" lon="9.219816761042393"><ele>845.0</ele><time>2026-04-28T07:30:44.998Z</time></trkpt><trkpt lat="40.0042540290357" lon="9.219823514826412"><ele>845.0000000000001</ele><time>2026-04-28T07:30:45.998Z</time></trkpt><trkpt lat="40.004164310452026" lon="9.2198311111091"><ele>845.0</ele><time>2026-04-28T07:30:46.998Z</time></trkpt><trkpt lat="40.004064207591036" lon="9.219849141282433"><ele>844.6</ele><time>2026-04-28T07:30:47.998Z</time></trkpt><trkpt lat="40.003970091195406" lon="9.219867978317628"><ele>844.2</ele><time>2026-04-28T07:30:48.998Z</time></trkpt><trkpt lat="40.00388046310188" lon="9.219880558253163"><ele>843.8</ele><time>2026-04-28T07:30:49.998Z</time></trkpt><trkpt lat="40.003786288189765" lon="9.219890531661854"><ele>843.4</ele><time>2026-04-28T07:30:50.998Z</time></trkpt><trkpt lat="40.003690985274126" lon="9.219890316295116"><ele>843.0</ele><time>2026-04-28T07:30:51.998Z</time></trkpt><trkpt lat="40.00359570422175" lon="9.219893932723766"><ele>843.0</ele><time>2026-04-28T07:30:52.998Z</time></trkpt><trkpt lat="40.00350373203663" lon="9.219916027902826"><ele>843.0</ele><time>2026-04-28T07:30:53.998Z</time></trkpt><trkpt lat="40.00339910521943" lon="9.219940446146282"><ele>843.0</ele><time>2026-04-28T07:30:54.998Z</time></trkpt><trkpt lat="40.003295708460904" lon="9.219960565666561"><ele>843.0</ele><time>2026-04-28T07:30:55.998Z</time></trkpt><trkpt lat="40.00319158266415" lon="9.219964573510984"><ele>843.0</ele><time>2026-04-28T07:30:56.998Z</time></trkpt><trkpt lat="40.003086072179585" lon="9.21996964103637"><ele>841.4</ele><time>2026-04-28T07:30:57.998Z</time></trkpt><trkpt lat="40.002989728590315" lon="9.219968493663503"><ele>839.8</ele><time>2026-04-28T07:30:58.998Z</time></trkpt><trkpt lat="40.00290029544402" lon="9.219924713576175"><ele>838.2</ele><time>2026-04-28T07:30:59.998Z</time></trkpt><trkpt lat="40.00282728895941" lon="9.219844936244035"><ele>836.6</ele><time>2026-04-28T07:31:00.998Z</time></trkpt><trkpt lat="40.00276245902582" lon="9.219746123440174"><ele>835.0</ele><time>2026-04-28T07:31:01.998Z</time></trkpt><trkpt lat="40.00269367847127" lon="9.219654253434634"><ele>838.0</ele><time>2026-04-28T07:31:02.998Z</time></trkpt><trkpt lat="40.00261897344754" lon="9.21958735682728"><ele>841.0</ele><time>2026-04-28T07:31:03.998Z</time></trkpt><trkpt lat="40.00253007160018" lon="9.219583398402023"><ele>844.0</ele><time>2026-04-28T07:31:04.998Z</time></trkpt><trkpt lat="40.002440271308366" lon="9.219598793201062"><ele>847.0</ele><time>2026-04-28T07:31:05.998Z</time></trkpt><trkpt lat="40.00233902866454" lon="9.219604943469893"><ele>850.0</ele><time>2026-04-28T07:31:06.998Z</time></trkpt><trkpt lat="40.00222763120375" lon="9.219602432022588"><ele>850.0</ele><time>2026-04-28T07:31:07.998Z</time></trkpt><trkpt lat="40.00211113878164" lon="9.219596527437476"><ele>850.0</ele><time>2026-04-28T07:31:08.998Z</time></trkpt><trkpt lat="40.00199457936678" lon="9.219583559800245"><ele>850.0</ele><time>2026-04-28T07:31:09.998Z</time></trkpt><trkpt lat="40.001885362390915" lon="9.219568786069303"><ele>850.0</ele><time>2026-04-28T07:31:10.998Z</time></trkpt><trkpt lat="40.00177692132822" lon="9.219527143104907"><ele>850.0</ele><time>2026-04-28T07:31:11.998Z</time></trkpt><trkpt lat="40.00168011169877" lon="9.219457991215345"><ele>850.0</ele><time>2026-04-28T07:31:12.998Z</time></trkpt><trkpt lat="40.00158172755253" lon="9.219377971177684"><ele>850.0</ele><time>2026-04-28T07:31:13.998Z</time></trkpt><trkpt lat="40.00148719420574" lon="9.219298976557507"><ele>850.0</ele><time>2026-04-28T07:31:14.998Z</time></trkpt><trkpt lat="40.001378880101505" lon="9.219238267271487"><ele>843.0</ele><time>2026-04-28T07:31:15.998Z</time></trkpt><trkpt lat="40.00126751268363" lon="9.219188750962386"><ele>836.0</ele><time>2026-04-28T07:31:16.998Z</time></trkpt><trkpt lat="40.00115423827524" lon="9.219168627448589"><ele>829.0</ele><time>2026-04-28T07:31:17.998Z</time></trkpt><trkpt lat="40.001039223758795" lon="9.219138165840834"><ele>822.0</ele><time>2026-04-28T07:31:18.998Z</time></trkpt><trkpt lat="40.000942735008266" lon="9.21906944917944"><ele>824.25</ele><time>2026-04-28T07:31:19.998Z</time></trkpt><trkpt lat="40.00086061793263" lon="9.218960771896988"><ele>826.5</ele><time>2026-04-28T07:31:20.998Z</time></trkpt><trkpt lat="40.00079350184467" lon="9.218833468135573"><ele>828.75</ele><time>2026-04-28T07:31:21.998Z</time></trkpt><trkpt lat="40.00075188004699" lon="9.218695875645796"><ele>831.0</ele><time>2026-04-28T07:31:22.998Z</time></trkpt><trkpt lat="40.000699431195756" lon="9.218570668483263"><ele>831.0</ele><time>2026-04-28T07:31:23.998Z</time></trkpt><trkpt lat="40.00062918110116" lon="9.218480666525435"><ele>831.0</ele><time>2026-04-28T07:31:24.998Z</time></trkpt><trkpt lat="40.00053841695573" lon="9.218425000164777"><ele>831.0</ele><time>2026-04-28T07:31:25.998Z</time></trkpt><trkpt lat="40.000425453368265" lon="9.218424079596442"><ele>831.0</ele><time>2026-04-28T07:31:26.998Z</time></trkpt><trkpt lat="40.000299917800454" lon="9.218471300342301"><ele>831.0</ele><time>2026-04-28T07:31:27.997Z</time></trkpt><trkpt lat="40.0001908163255" lon="9.218533467594398"><ele>831.0</ele><time>2026-04-28T07:31:28.999Z</time></trkpt><trkpt lat="40.000069527424515" lon="9.218565644406368"><ele>831.0</ele><time>2026-04-28T07:31:29.999Z</time></trkpt><trkpt lat="39.99994473100975" lon="9.218571258607728"><ele>831.0</ele><time>2026-04-28T07:31:30.999Z</time></trkpt><trkpt lat="39.999824325341976" lon="9.218571977079145"><ele>831.0</ele><time>2026-04-28T07:31:31.999Z</time></trkpt><trkpt lat="39.99971511845034" lon="9.21856626505526"><ele>831.0</ele><time>2026-04-28T07:31:33Z</time></trkpt><trkpt lat="39.99961072003596" lon="9.218530840164934"><ele>831.0</ele><time>2026-04-28T07:31:34Z</time></trkpt><trkpt lat="39.99951500053271" lon="9.218475233604472"><ele>831.0</ele><time>2026-04-28T07:31:34.999Z</time></trkpt><trkpt lat="39.99943337471055" lon="9.218383675864965"><ele>831.0</ele><time>2026-04-28T07:31:36Z</time></trkpt><trkpt lat="39.99937185903974" lon="9.218254565684255"><ele>831.0</ele><time>2026-04-28T07:31:37Z</time></trkpt><trkpt lat="39.99931355828662" lon="9.218127550020682"><ele>828.75</ele><time>2026-04-28T07:31:38Z</time></trkpt><trkpt lat="39.99925267466776" lon="9.217984193255877"><ele>826.5</ele><time>2026-04-28T07:31:38.999Z</time></trkpt><trkpt lat="39.99919281283457" lon="9.21783058673412"><ele>824.25</ele><time>2026-04-28T07:31:39.999Z</time></trkpt><trkpt lat="39.99913810318625" lon="9.217676936683766"><ele>822.0</ele><time>2026-04-28T07:31:41Z</time></trkpt><trkpt lat="39.99910242977717" lon="9.217524731934153"><ele>822.0</ele><time>2026-04-28T07:31:41.999Z</time></trkpt><trkpt lat="39.99905797288669" lon="9.217360943699674"><ele>822.0</ele><time>2026-04-28T07:31:42.999Z</time></trkpt><trkpt lat="39.999000445497" lon="9.217195722535365"><ele>822.0</ele><time>2026-04-28T07:31:43.999Z</time></trkpt><trkpt lat="39.99892562682553" lon="9.217065510670729"><ele>822.0</ele><time>2026-04-28T07:31:44.999Z</time></trkpt><trkpt lat="39.99882639731852" lon="9.216934207546295"><ele>827.0</ele><time>2026-04-28T07:31:45.999Z</time></trkpt><trkpt lat="39.99873294609287" lon="9.216804229271732"><ele>832.0</ele><time>2026-04-28T07:31:46.999Z</time></trkpt><trkpt lat="39.99862958686196" lon="9.216672354527544"><ele>837.0</ele><time>2026-04-28T07:31:47.999Z</time></trkpt><trkpt lat="39.99854630709003" lon="9.21653149626262"><ele>842.0</ele><time>2026-04-28T07:31:48.999Z</time></trkpt><trkpt lat="39.998486553369155" lon="9.21636705990824"><ele>846.0</ele><time>2026-04-28T07:31:49.999Z</time></trkpt><trkpt lat="39.99846420096282" lon="9.216179938037312"><ele>850.0</ele><time>2026-04-28T07:31:50.999Z</time></trkpt><trkpt lat="39.998442671950095" lon="9.215999457127419"><ele>854.0</ele><time>2026-04-28T07:31:51.999Z</time></trkpt><trkpt lat="39.99841198128134" lon="9.215831164193137"><ele>858.0</ele><time>2026-04-28T07:31:52.999Z</time></trkpt><trkpt lat="39.99835266258823" lon="9.21568285705989"><ele>850.6666666666667</ele><time>2026-04-28T07:31:53.999Z</time></trkpt><trkpt lat="39.998241756039526" lon="9.21554383555078"><ele>843.3333333333334</ele><time>2026-04-28T07:31:54.999Z</time></trkpt><trkpt lat="39.99811188105503" lon="9.215430041111388"><ele>836.0</ele><time>2026-04-28T07:31:55.999Z</time></trkpt><trkpt lat="39.997982186445725" lon="9.215329143888527"><ele>836.0</ele><time>2026-04-28T07:31:56.999Z</time></trkpt><trkpt lat="39.99785967757902" lon="9.215221208236631"><ele>836.0</ele><time>2026-04-28T07:31:57.999Z</time></trkpt><trkpt lat="39.997748449302385" lon="9.215112077074522"><ele>836.0</ele><time>2026-04-28T07:31:58.999Z</time></trkpt><trkpt lat="39.99762161925856" lon="9.215044419219376"><ele>836.0</ele><time>2026-04-28T07:31:59.999Z</time></trkpt><trkpt lat="39.99747976666551" lon="9.215026016971864"><ele>829.5</ele><time>2026-04-28T07:32:00.999Z</time></trkpt><trkpt lat="39.997325806497535" lon="9.215035189548923"><ele>823.0</ele><time>2026-04-28T07:32:01.999Z</time></trkpt><trkpt lat="39.997183779487685" lon="9.215002466425007"><ele>816.5</ele><time>2026-04-28T07:32:02.999Z</time></trkpt><trkpt lat="39.99704837917584" lon="9.21496181100385"><ele>810.0</ele><time>2026-04-28T07:32:03.999Z</time></trkpt><trkpt lat="39.99692109126009" lon="9.214990979730514"><ele>810.0</ele><time>2026-04-28T07:32:04.999Z</time></trkpt><trkpt lat="39.99679732090763" lon="9.21507877429844"><ele>810.0</ele><time>2026-04-28T07:32:05.999Z</time></trkpt><trkpt lat="39.996684280928434" lon="9.215195143067973"><ele>810.0</ele><time>2026-04-28T07:32:06.999Z</time></trkpt><trkpt lat="39.99656170234442" lon="9.215251462498072"><ele>810.0</ele><time>2026-04-28T07:32:07.999Z</time></trkpt><trkpt lat="39.99642855767827" lon="9.215246516203242"><ele>807.5</ele><time>2026-04-28T07:32:08.999Z</time></trkpt><trkpt lat="39.99631820905381" lon="9.215177443913229"><ele>805.0</ele><time>2026-04-28T07:32:09.999Z</time></trkpt><trkpt lat="39.99623563898602" lon="9.21504916290782"><ele>802.5</ele><time>2026-04-28T07:32:10.999Z</time></trkpt><trkpt lat="39.99617255882283" lon="9.21487005800179"><ele>800.0</ele><time>2026-04-28T07:32:11.999Z</time></trkpt><trkpt lat="39.99612113923061" lon="9.214673663880367"><ele>810.0</ele><time>2026-04-28T07:32:12.999Z</time></trkpt><trkpt lat="39.99605482837419" lon="9.214485130135996"><ele>820.0</ele><time>2026-04-28T07:32:13.999Z</time></trkpt><trkpt lat="39.99595844983517" lon="9.214322790776574"><ele>830.0</ele><time>2026-04-28T07:32:14.999Z</time></trkpt><trkpt lat="39.99585114033842" lon="9.21418489293134"><ele>826.0</ele><time>2026-04-28T07:32:15.999Z</time></trkpt><trkpt lat="39.99574311994441" lon="9.214053978250725"><ele>822.0</ele><time>2026-04-28T07:32:16.999Z</time></trkpt><trkpt lat="39.99563730066781" lon="9.213959083249893"><ele>818.0</ele><time>2026-04-28T07:32:17.999Z</time></trkpt><trkpt lat="39.99551642627533" lon="9.213915859868935"><ele>814.0</ele><time>2026-04-28T07:32:18.999Z</time></trkpt><trkpt lat="39.99540039479704" lon="9.213921845764323"><ele>814.0</ele><time>2026-04-28T07:32:19.999Z</time></trkpt><trkpt lat="39.995286574721725" lon="9.213986915256664"><ele>814.0</ele><time>2026-04-28T07:32:20.999Z</time></trkpt><trkpt lat="39.995165203696544" lon="9.21403689954951"><ele>814.0</ele><time>2026-04-28T07:32:21.999Z</time></trkpt><trkpt lat="39.99504155585886" lon="9.214013266326017"><ele>814.0</ele><time>2026-04-28T07:32:22.999Z</time></trkpt><trkpt lat="39.994926349298076" lon="9.213938217573993"><ele>806.0</ele><time>2026-04-28T07:32:23.999Z</time></trkpt><trkpt lat="39.99483663801435" lon="9.213807850137762"><ele>798.0</ele><time>2026-04-28T07:32:24.999Z</time></trkpt><trkpt lat="39.994790563962134" lon="9.213639835458103"><ele>790.0</ele><time>2026-04-28T07:32:25.998Z</time></trkpt><trkpt lat="39.99479797206489" lon="9.213468842205844"><ele>782.0</ele><time>2026-04-28T07:32:26.998Z</time></trkpt><trkpt lat="39.99483610383966" lon="9.213283843677996"><ele>780.5</ele><time>2026-04-28T07:32:27.998Z</time></trkpt><trkpt lat="39.994889553022695" lon="9.213106102364787"><ele>779.0</ele><time>2026-04-28T07:32:28.998Z</time></trkpt><trkpt lat="39.994915724129" lon="9.212916950994815"><ele>777.5</ele><time>2026-04-28T07:32:29.998Z</time></trkpt><trkpt lat="39.99494874460011" lon="9.212722252349167"><ele>776.0</ele><time>2026-04-28T07:32:30.998Z</time></trkpt><trkpt lat="39.994989239927975" lon="9.212544477694184"><ele>786.75</ele><time>2026-04-28T07:32:31.998Z</time></trkpt><trkpt lat="39.99505157824629" lon="9.2123796697444"><ele>797.5</ele><time>2026-04-28T07:32:32.998Z</time></trkpt><trkpt lat="39.99510448054807" lon="9.212225804001406"><ele>808.25</ele><time>2026-04-28T07:32:33.998Z</time></trkpt><trkpt lat="39.99513220133572" lon="9.212059277216516"><ele>819.0</ele><time>2026-04-28T07:32:34.998Z</time></trkpt><trkpt lat="39.995087690949184" lon="9.211899704638771"><ele>813.25</ele><time>2026-04-28T07:32:35.998Z</time></trkpt><trkpt lat="39.99499600414791" lon="9.211764529369884"><ele>807.5</ele><time>2026-04-28T07:32:36.998Z</time></trkpt><trkpt lat="39.99486681526152" lon="9.21167110020932"><ele>801.75</ele><time>2026-04-28T07:32:37.998Z</time></trkpt><trkpt lat="39.99473726148923" lon="9.211574460619065"><ele>796.0</ele><time>2026-04-28T07:32:38.998Z</time></trkpt><trkpt lat="39.99462653111759" lon="9.211432476225928"><ele>796.0</ele><time>2026-04-28T07:32:39.998Z</time></trkpt><trkpt lat="39.99454164596786" lon="9.211280827423716"><ele>796.0</ele><time>2026-04-28T07:32:40.998Z</time></trkpt><trkpt lat="39.99448325357598" lon="9.21112522869333"><ele>796.0</ele><time>2026-04-28T07:32:41.998Z</time></trkpt><trkpt lat="39.994422451539926" lon="9.210976950822568"><ele>796.0</ele><time>2026-04-28T07:32:42.998Z</time></trkpt><trkpt lat="39.99435543229577" lon="9.210812638831804"><ele>793.0</ele><time>2026-04-28T07:32:43.998Z</time></trkpt><trkpt lat="39.99428539566454" lon="9.210649921376493"><ele>790.0</ele><time>2026-04-28T07:32:44.998Z</time></trkpt><trkpt lat="39.99422239028893" lon="9.210469142882285"><ele>787.0</ele><time>2026-04-28T07:32:45.998Z</time></trkpt><trkpt lat="39.99416948211745" lon="9.210304196800573"><ele>784.0</ele><time>2026-04-28T07:32:46.998Z</time></trkpt><trkpt lat="39.99413503781633" lon="9.210135373755246"><ele>778.25</ele><time>2026-04-28T07:32:47.998Z</time></trkpt><trkpt lat="39.994141278078864" lon="9.209961503462035"><ele>772.5</ele><time>2026-04-28T07:32:48.998Z</time></trkpt><trkpt lat="39.994192186236056" lon="9.20979626664969"><ele>766.75</ele><time>2026-04-28T07:32:49.998Z</time></trkpt><trkpt lat="39.994280646494346" lon="9.20967396947712"><ele>761.0</ele><time>2026-04-28T07:32:50.998Z</time></trkpt><trkpt lat="39.99440410194734" lon="9.209579623333626"><ele>761.0</ele><time>2026-04-28T07:32:51.998Z</time></trkpt><trkpt lat="39.99453511847197" lon="9.209490738109348"><ele>761.0</ele><time>2026-04-28T07:32:52.998Z</time></trkpt><trkpt lat="39.994665198912124" lon="9.209384442288009"><ele>761.0</ele><time>2026-04-28T07:32:53.998Z</time></trkpt><trkpt lat="39.994775260606225" lon="9.209251479262672"><ele>761.0</ele><time>2026-04-28T07:32:54.998Z</time></trkpt><trkpt lat="39.994861647821956" lon="9.209088973762379"><ele>761.0</ele><time>2026-04-28T07:32:55.998Z</time></trkpt><trkpt lat="39.99492327651861" lon="9.208921674655699"><ele>761.0</ele><time>2026-04-28T07:32:56.998Z</time></trkpt><trkpt lat="39.99494341536041" lon="9.208756095311147"><ele>761.0</ele><time>2026-04-28T07:32:57.998Z</time></trkpt><trkpt lat="39.9949135318022" lon="9.208596748323664"><ele>758.75</ele><time>2026-04-28T07:32:58.998Z</time></trkpt><trkpt lat="39.99486739888921" lon="9.208425366500252"><ele>756.5</ele><time>2026-04-28T07:32:59.998Z</time></trkpt><trkpt lat="39.994854399842374" lon="9.208248832978274"><ele>754.25</ele><time>2026-04-28T07:33:00.998Z</time></trkpt><trkpt lat="39.99488194492463" lon="9.208068233324115"><ele>752.0</ele><time>2026-04-28T07:33:01.998Z</time></trkpt><trkpt lat="39.994927007648926" lon="9.207892709958216"><ele>750.5</ele><time>2026-04-28T07:33:02.998Z</time></trkpt><trkpt lat="39.99499970588284" lon="9.207733671561376"><ele>749.0</ele><time>2026-04-28T07:33:03.998Z</time></trkpt><trkpt lat="39.995075809607236" lon="9.207589698302526"><ele>747.5</ele><time>2026-04-28T07:33:04.998Z</time></trkpt><trkpt lat="39.99514068529855" lon="9.207454334303069"><ele>746.0</ele><time>2026-04-28T07:33:05.998Z</time></trkpt><trkpt lat="39.995178498405124" lon="9.207328479549528"><ele>746.1999999999999</ele><time>2026-04-28T07:33:06.998Z</time></trkpt><trkpt lat="39.995167549059154" lon="9.207204628857566"><ele>746.4</ele><time>2026-04-28T07:33:07.998Z</time></trkpt><trkpt lat="39.995116456779535" lon="9.207105877245715"><ele>746.6</ele><time>2026-04-28T07:33:08.998Z</time></trkpt><trkpt lat="39.99503932021866" lon="9.207049356789705"><ele>746.8</ele><time>2026-04-28T07:33:09.998Z</time></trkpt><trkpt lat="39.99495148476048" lon="9.207059218598605"><ele>747.0</ele><time>2026-04-28T07:33:10.998Z</time></trkpt><trkpt lat="39.994878552425604" lon="9.207136067386337"><ele>746.75</ele><time>2026-04-28T07:33:11.998Z</time></trkpt><trkpt lat="39.9948144919179" lon="9.207250477811103"><ele>746.5</ele><time>2026-04-28T07:33:12.998Z</time></trkpt><trkpt lat="39.99475629185977" lon="9.20737842546685"><ele>746.25</ele><time>2026-04-28T07:33:13.998Z</time></trkpt><trkpt lat="39.994696671641705" lon="9.207511804417036"><ele>746.0</ele><time>2026-04-28T07:33:14.998Z</time></trkpt><trkpt lat="39.9946397276229" lon="9.207656872362412"><ele>746.0</ele><time>2026-04-28T07:33:15.998Z</time></trkpt><trkpt lat="39.99460092931806" lon="9.207829992122484"><ele>746.0</ele><time>2026-04-28T07:33:16.998Z</time></trkpt><trkpt lat="39.99457277636068" lon="9.208012736012218"><ele>746.0</ele><time>2026-04-28T07:33:17.998Z</time></trkpt><trkpt lat="39.99454887862444" lon="9.20819391186064"><ele>746.0</ele><time>2026-04-28T07:33:18.998Z</time></trkpt><trkpt lat="39.994544234758045" lon="9.208375203755878"><ele>747.5</ele><time>2026-04-28T07:33:19.998Z</time></trkpt><trkpt lat="39.994555866844664" lon="9.208544448654179"><ele>749.0</ele><time>2026-04-28T07:33:20.998Z</time></trkpt><trkpt lat="39.99458890322943" lon="9.208703726877285"><ele>750.5</ele><time>2026-04-28T07:33:21.998Z</time></trkpt><trkpt lat="39.99460727547643" lon="9.208842033976282"><ele>752.0</ele><time>2026-04-28T07:33:22.998Z</time></trkpt><trkpt lat="39.99458749797294" lon="9.208966991914211"><ele>753.8</ele><time>2026-04-28T07:33:23.998Z</time></trkpt><trkpt lat="39.99453080102114" lon="9.209060157034179"><ele>755.6</ele><time>2026-04-28T07:33:24.998Z</time></trkpt><trkpt lat="39.99443374165418" lon="9.209111983441106"><ele>757.4</ele><time>2026-04-28T07:33:25.998Z</time></trkpt><trkpt lat="39.99431733917254" lon="9.209151857068388"><ele>759.1999999999999</ele><time>2026-04-28T07:33:26.998Z</time></trkpt><trkpt lat="39.99420115698774" lon="9.209203191953218"><ele>761.0</ele><time>2026-04-28T07:33:27.998Z</time></trkpt><trkpt lat="39.99407975823147" lon="9.20926391039215"><ele>754.25</ele><time>2026-04-28T07:33:28.998Z</time></trkpt><trkpt lat="39.993970366314734" lon="9.209351757497263"><ele>747.5</ele><time>2026-04-28T07:33:29.998Z</time></trkpt><trkpt lat="39.993868548588495" lon="9.209475871250309"><ele>740.75</ele><time>2026-04-28T07:33:30.998Z</time></trkpt><trkpt lat="39.99378488380481" lon="9.209623690572318"><ele>734.0</ele><time>2026-04-28T07:33:31.997Z</time></trkpt><trkpt lat="39.99372078191305" lon="9.20979699333066"><ele>740.6666666666666</ele><time>2026-04-28T07:33:32.997Z</time></trkpt><trkpt lat="39.99367303871985" lon="9.209991111781342"><ele>747.3333333333334</ele><time>2026-04-28T07:33:33.997Z</time></trkpt><trkpt lat="39.99363404766772" lon="9.21019210613444"><ele>754.0</ele><time>2026-04-28T07:33:35Z</time></trkpt><trkpt lat="39.99361861202258" lon="9.210395479122173"><ele>754.0</ele><time>2026-04-28T07:33:36Z</time></trkpt><trkpt lat="39.9936299692232" lon="9.21060634845553"><ele>754.0</ele><time>2026-04-28T07:33:37Z</time></trkpt><trkpt lat="39.99366736627139" lon="9.210815597700428"><ele>754.0</ele><time>2026-04-28T07:33:37.999Z</time></trkpt><trkpt lat="39.993730390130715" lon="9.21102137390295"><ele>754.6666666666667</ele><time>2026-04-28T07:33:38.999Z</time></trkpt><trkpt lat="39.99380381891625" lon="9.211223628108025"><ele>755.3333333333334</ele><time>2026-04-28T07:33:39.999Z</time></trkpt><trkpt lat="39.993881014498015" lon="9.211413352386035"><ele>756.0</ele><time>2026-04-28T07:33:40.999Z</time></trkpt><trkpt lat="39.993929127754456" lon="9.211610518583193"><ele>752.8</ele><time>2026-04-28T07:33:41.999Z</time></trkpt><trkpt lat="39.99393750373472" lon="9.211796669743693"><ele>749.5999999999999</ele><time>2026-04-28T07:33:42.999Z</time></trkpt><trkpt lat="39.993940760135416" lon="9.21195072416694"><ele>746.4</ele><time>2026-04-28T07:33:43.999Z</time></trkpt><trkpt lat="39.99391027895038" lon="9.212061075827071"><ele>743.2</ele><time>2026-04-28T07:33:44.999Z</time></trkpt><trkpt lat="39.99383733652118" lon="9.212122464049559"><ele>740.0</ele><time>2026-04-28T07:33:45.999Z</time></trkpt><trkpt lat="39.99372525358405" lon="9.212101604866417"><ele>740.0</ele><time>2026-04-28T07:33:46.999Z</time></trkpt><trkpt lat="39.99363576735518" lon="9.212026349124434"><ele>740.0</ele><time>2026-04-28T07:33:48Z</time></trkpt><trkpt lat="39.993612310147796" lon="9.211867971214376"><ele>740.0</ele><time>2026-04-28T07:33:49Z</time></trkpt><trkpt lat="39.993635637606815" lon="9.21173901444609"><ele>740.0</ele><time>2026-04-28T07:33:50Z</time></trkpt><trkpt lat="39.99367751261039" lon="9.211605812929657"><ele>740.0</ele><time>2026-04-28T07:33:51Z</time></trkpt><trkpt lat="39.99368458842906" lon="9.211457187300212"><ele>744.0</ele><time>2026-04-28T07:33:52Z</time></trkpt><trkpt lat="39.99366206913232" lon="9.2113028799695"><ele>748.0</ele><time>2026-04-28T07:33:53Z</time></trkpt><trkpt lat="39.99361180102515" lon="9.211154295803189"><ele>752.0</ele><time>2026-04-28T07:33:54Z</time></trkpt><trkpt lat="39.99355156512729" lon="9.211015735978362"><ele>756.0</ele><time>2026-04-28T07:33:54.999Z</time></trkpt><trkpt lat="39.99347374707385" lon="9.210863394507045"><ele>756.0</ele><time>2026-04-28T07:33:55.999Z</time></trkpt><trkpt lat="39.993395072951465" lon="9.210707241717742"><ele>756.0</ele><time>2026-04-28T07:33:56.999Z</time></trkpt><trkpt lat="39.9933479223327" lon="9.210530972793997"><ele>756.0</ele><time>2026-04-28T07:33:57.999Z</time></trkpt><trkpt lat="39.9933352017993" lon="9.210342181308954"><ele>756.0</ele><time>2026-04-28T07:33:58.999Z</time></trkpt><trkpt lat="39.993336869337" lon="9.210152175942216"><ele>755.5</ele><time>2026-04-28T07:33:59.999Z</time></trkpt><trkpt lat="39.99334775108074" lon="9.209963243940175"><ele>755.0</ele><time>2026-04-28T07:34:00.999Z</time></trkpt><trkpt lat="39.993365425071815" lon="9.209775141393884"><ele>754.5</ele><time>2026-04-28T07:34:01.999Z</time></trkpt><trkpt lat="39.99339038150709" lon="9.20958818783756"><ele>754.0</ele><time>2026-04-28T07:34:02.999Z</time></trkpt><trkpt lat="39.99341568783975" lon="9.20940897615154"><ele>749.0</ele><time>2026-04-28T07:34:03.999Z</time></trkpt><trkpt lat="39.99345351018624" lon="9.20923589591003"><ele>744.0</ele><time>2026-04-28T07:34:04.999Z</time></trkpt><trkpt lat="39.99351580026488" lon="9.20908182789828"><ele>739.0</ele><time>2026-04-28T07:34:05.999Z</time></trkpt><trkpt lat="39.993604321932544" lon="9.20894553045751"><ele>734.0</ele><time>2026-04-28T07:34:06.999Z</time></trkpt><trkpt lat="39.993697051891836" lon="9.20882159476948"><ele>731.5</ele><time>2026-04-28T07:34:07.999Z</time></trkpt><trkpt lat="39.99378068319885" lon="9.208700839142944"><ele>729.0</ele><time>2026-04-28T07:34:08.999Z</time></trkpt><trkpt lat="39.993816723643256" lon="9.20855714211074"><ele>726.5</ele><time>2026-04-28T07:34:09.999Z</time></trkpt><trkpt lat="39.99380160431672" lon="9.2084034707314"><ele>724.0</ele><time>2026-04-28T07:34:10.999Z</time></trkpt><trkpt lat="39.9937376776648" lon="9.208251999048786"><ele>723.75</ele><time>2026-04-28T07:34:11.999Z</time></trkpt><trkpt lat="39.9936502859731" lon="9.208112261929038"><ele>723.5</ele><time>2026-04-28T07:34:12.999Z</time></trkpt><trkpt lat="39.993590976426795" lon="9.207937411205387"><ele>723.25</ele><time>2026-04-28T07:34:13.999Z</time></trkpt><trkpt lat="39.99356541834448" lon="9.207745178150994"><ele>723.0</ele><time>2026-04-28T07:34:14.999Z</time></trkpt><trkpt lat="39.99353523742535" lon="9.207555453807833"><ele>723.0</ele><time>2026-04-28T07:34:15.999Z</time></trkpt><trkpt lat="39.993490401636" lon="9.207362946153046"><ele>723.0</ele><time>2026-04-28T07:34:16.999Z</time></trkpt><trkpt lat="39.993446186100016" lon="9.207178034919783"><ele>723.0</ele><time>2026-04-28T07:34:17.999Z</time></trkpt><trkpt lat="39.9934289464597" lon="9.206990422385944"><ele>723.0</ele><time>2026-04-28T07:34:18.999Z</time></trkpt><trkpt lat="39.99344243110934" lon="9.20679185577053"><ele>718.0</ele><time>2026-04-28T07:34:19.999Z</time></trkpt><trkpt lat="39.99346734818949" lon="9.20660425441119"><ele>713.0</ele><time>2026-04-28T07:34:20.999Z</time></trkpt><trkpt lat="39.99353445271049" lon="9.20642683242419"><ele>708.0</ele><time>2026-04-28T07:34:21.999Z</time></trkpt><trkpt lat="39.99363635754409" lon="9.206276933353369"><ele>702.0</ele><time>2026-04-28T07:34:22.999Z</time></trkpt><trkpt lat="39.993753351039956" lon="9.206145880932048"><ele>696.0</ele><time>2026-04-28T07:34:23.999Z</time></trkpt><trkpt lat="39.99388820606079" lon="9.206042503943559"><ele>690.0</ele><time>2026-04-28T07:34:24.999Z</time></trkpt><trkpt lat="39.99402693868096" lon="9.205961622868315"><ele>690.0</ele><time>2026-04-28T07:34:25.999Z</time></trkpt><trkpt lat="39.99414151445083" lon="9.205858939050797"><ele>690.0</ele><time>2026-04-28T07:34:26.999Z</time></trkpt><trkpt lat="39.994225445029834" lon="9.205713067730695"><ele>690.0</ele><time>2026-04-28T07:34:27.999Z</time></trkpt><trkpt lat="39.99429500420337" lon="9.205545912370628"><ele>690.0</ele><time>2026-04-28T07:34:28.999Z</time></trkpt><trkpt lat="39.994361368675804" lon="9.205365694271881"><ele>686.0</ele><time>2026-04-28T07:34:29.999Z</time></trkpt><trkpt lat="39.99446395266731" lon="9.205227677666496"><ele>682.0</ele><time>2026-04-28T07:34:30.999Z</time></trkpt><trkpt lat="39.994593244771295" lon="9.205140082465224"><ele>678.0</ele><time>2026-04-28T07:34:31.999Z</time></trkpt><trkpt lat="39.99473173727333" lon="9.205104945889282"><ele>674.0</ele><time>2026-04-28T07:34:32.999Z</time></trkpt><trkpt lat="39.99488066985669" lon="9.205113890709848"><ele>676.6666666666666</ele><time>2026-04-28T07:34:33.999Z</time></trkpt><trkpt lat="39.99502904302628" lon="9.2051036038336"><ele>679.3333333333334</ele><time>2026-04-28T07:34:34.999Z</time></trkpt><trkpt lat="39.995179286853215" lon="9.205068303239788"><ele>682.0</ele><time>2026-04-28T07:34:35.999Z</time></trkpt><trkpt lat="39.995333523715836" lon="9.20502441524763"><ele>682.0</ele><time>2026-04-28T07:34:36.999Z</time></trkpt><trkpt lat="39.99549442585783" lon="9.204978976067203"><ele>682.0</ele><time>2026-04-28T07:34:37.999Z</time></trkpt><trkpt lat="39.995645330510776" lon="9.204915053705772"><ele>682.0</ele><time>2026-04-28T07:34:38.999Z</time></trkpt><trkpt lat="39.995788901559" lon="9.20482880617646"><ele>683.75</ele><time>2026-04-28T07:34:39.999Z</time></trkpt><trkpt lat="39.99592945859576" lon="9.204736725815694"><ele>685.5</ele><time>2026-04-28T07:34:40.999Z</time></trkpt><trkpt lat="39.996063783496524" lon="9.204650799713466"><ele>687.25</ele><time>2026-04-28T07:34:41.999Z</time></trkpt><trkpt lat="39.996189972380854" lon="9.204569619814057"><ele>689.0</ele><time>2026-04-28T07:34:42.999Z</time></trkpt><trkpt lat="39.9962904303095" lon="9.20447538514983"><ele>689.0</ele><time>2026-04-28T07:34:43.999Z</time></trkpt><trkpt lat="39.99635627921471" lon="9.204350202824992"><ele>689.0</ele><time>2026-04-28T07:34:44.999Z</time></trkpt><trkpt lat="39.996374077203285" lon="9.204201824847793"><ele>689.0</ele><time>2026-04-28T07:34:45.999Z</time></trkpt><trkpt lat="39.996340473588305" lon="9.204055000461853"><ele>689.0</ele><time>2026-04-28T07:34:46.999Z</time></trkpt><trkpt lat="39.9962470895041" lon="9.203957256236677"><ele>694.0</ele><time>2026-04-28T07:34:47.999Z</time></trkpt><trkpt lat="39.99613408562561" lon="9.20390338311156"><ele>699.0</ele><time>2026-04-28T07:34:48.999Z</time></trkpt><trkpt lat="39.99600647324375" lon="9.203892072363155"><ele>704.0</ele><time>2026-04-28T07:34:49.999Z</time></trkpt><trkpt lat="39.99587413624712" lon="9.203905168640413"><ele>709.0</ele><time>2026-04-28T07:34:50.999Z</time></trkpt><trkpt lat="39.995744095089975" lon="9.203923372026063"><ele>709.0</ele><time>2026-04-28T07:34:51.999Z</time></trkpt><trkpt lat="39.99560612198352" lon="9.203931816855963"><ele>709.0</ele><time>2026-04-28T07:34:52.999Z</time></trkpt><trkpt lat="39.99546737291763" lon="9.203908470959682"><ele>709.0</ele><time>2026-04-28T07:34:53.999Z</time></trkpt><trkpt lat="39.995333855144885" lon="9.203847602740073"><ele>709.0</ele><time>2026-04-28T07:34:54.999Z</time></trkpt><trkpt lat="39.99519845199586" lon="9.203770913889715"><ele>709.0</ele><time>2026-04-28T07:34:55.999Z</time></trkpt><trkpt lat="39.99505947628048" lon="9.203715166163063"><ele>709.0</ele><time>2026-04-28T07:34:56.999Z</time></trkpt><trkpt lat="39.99491813268494" lon="9.203655589694192"><ele>709.0</ele><time>2026-04-28T07:34:57.999Z</time></trkpt><trkpt lat="39.99478479606466" lon="9.203556971004167"><ele>709.0</ele><time>2026-04-28T07:34:58.999Z</time></trkpt><trkpt lat="39.99465988400547" lon="9.203440602023793"><ele>711.6666666666667</ele><time>2026-04-28T07:34:59.999Z</time></trkpt><trkpt lat="39.99454980715572" lon="9.203306779398801"><ele>714.3333333333334</ele><time>2026-04-28T07:35:00.999Z</time></trkpt><trkpt lat="39.99445626463193" lon="9.203156604549145"><ele>717.0</ele><time>2026-04-28T07:35:01.998Z</time></trkpt><trkpt lat="39.99438523515528" lon="9.202982909899097"><ele>717.0</ele><time>2026-04-28T07:35:02.998Z</time></trkpt><trkpt lat="39.99433231799892" lon="9.202789480475982"><ele>717.0</ele><time>2026-04-28T07:35:03.998Z</time></trkpt><trkpt lat="39.99426992638341" lon="9.20259511532844"><ele>717.0</ele><time>2026-04-28T07:35:04.998Z</time></trkpt><trkpt lat="39.994206465648226" lon="9.202396282362502"><ele>704.3333333333334</ele><time>2026-04-28T07:35:05.998Z</time></trkpt><trkpt lat="39.99414958520401" lon="9.202185350264951"><ele>691.6666666666667</ele><time>2026-04-28T07:35:06.998Z</time></trkpt><trkpt lat="39.994098533286326" lon="9.20196074544983"><ele>679.0</ele><time>2026-04-28T07:35:07.998Z</time></trkpt><trkpt lat="39.99404981822092" lon="9.20173375848428"><ele>679.0</ele><time>2026-04-28T07:35:08.998Z</time></trkpt><trkpt lat="39.99401049424483" lon="9.201510021266317"><ele>679.0</ele><time>2026-04-28T07:35:09.998Z</time></trkpt><trkpt lat="39.993947711482505" lon="9.201298579433612"><ele>679.0</ele><time>2026-04-28T07:35:10.998Z</time></trkpt><trkpt lat="39.9938585406993" lon="9.201102095071972"><ele>681.6666666666667</ele><time>2026-04-28T07:35:11.998Z</time></trkpt><trkpt lat="39.993770111405965" lon="9.200895522231074"><ele>684.3333333333334</ele><time>2026-04-28T07:35:12.998Z</time></trkpt><trkpt lat="39.993698206408865" lon="9.20067000462041"><ele>687.0</ele><time>2026-04-28T07:35:13.998Z</time></trkpt><trkpt lat="39.993659177575786" lon="9.200439101151442"><ele>687.3333333333334</ele><time>2026-04-28T07:35:14.998Z</time></trkpt><trkpt lat="39.993627674558226" lon="9.200204590461697"><ele>687.6666666666667</ele><time>2026-04-28T07:35:15.998Z</time></trkpt><trkpt lat="39.993596143289615" lon="9.19996423841719"><ele>688.0</ele><time>2026-04-28T07:35:16.998Z</time></trkpt><trkpt lat="39.99358794056973" lon="9.19972960025975"><ele>684.0</ele><time>2026-04-28T07:35:17.998Z</time></trkpt><trkpt lat="39.993593018816945" lon="9.199486015783899"><ele>680.0</ele><time>2026-04-28T07:35:18.998Z</time></trkpt><trkpt lat="39.993630770504964" lon="9.199251851620327"><ele>676.0</ele><time>2026-04-28T07:35:19.998Z</time></trkpt><trkpt lat="39.99365636656693" lon="9.199036878720912"><ele>671.6666666666667</ele><time>2026-04-28T07:35:20.998Z</time></trkpt><trkpt lat="39.99363138075543" lon="9.19883153705769"><ele>667.3333333333334</ele><time>2026-04-28T07:35:21.998Z</time></trkpt><trkpt lat="39.99355163138334" lon="9.198652286884755"><ele>663.0</ele><time>2026-04-28T07:35:22.998Z</time></trkpt><trkpt lat="39.99348212532109" lon="9.198506464157475"><ele>663.0</ele><time>2026-04-28T07:35:23.998Z</time></trkpt><trkpt lat="39.99348210762173" lon="9.19834375719233"><ele>663.0</ele><time>2026-04-28T07:35:24.998Z</time></trkpt><trkpt lat="39.99355007393872" lon="9.198201134876754"><ele>663.0</ele><time>2026-04-28T07:35:25.998Z</time></trkpt><trkpt lat="39.99367582715628" lon="9.198097808345276"><ele>663.0</ele><time>2026-04-28T07:35:26.998Z</time></trkpt><trkpt lat="39.99381582265542" lon="9.198016422845859"><ele>661.6666666666666</ele><time>2026-04-28T07:35:27.998Z</time></trkpt><trkpt lat="39.99394529521191" lon="9.197891574315687"><ele>660.3333333333333</ele><time>2026-04-28T07:35:28.998Z</time></trkpt><trkpt lat="39.99408566436619" lon="9.197758478104992"><ele>659.0</ele><time>2026-04-28T07:35:29.998Z</time></trkpt><trkpt lat="39.994234585435144" lon="9.19765568380544"><ele>659.0</ele><time>2026-04-28T07:35:30.998Z</time></trkpt><trkpt lat="39.994402819550984" lon="9.197600041872883"><ele>659.0</ele><time>2026-04-28T07:35:31.998Z</time></trkpt><trkpt lat="39.99458445047164" lon="9.197608023679232"><ele>659.0</ele><time>2026-04-28T07:35:32.998Z</time></trkpt><trkpt lat="39.994747218885564" lon="9.197655226841517"><ele>659.0</ele><time>2026-04-28T07:35:33.998Z</time></trkpt><trkpt lat="39.99488509518101" lon="9.197701889806796"><ele>659.0</ele><time>2026-04-28T07:35:34.998Z</time></trkpt><trkpt lat="39.99500987731816" lon="9.197741359710324"><ele>659.0</ele><time>2026-04-28T07:35:35.998Z</time></trkpt><trkpt lat="39.99511243440364" lon="9.19769770159235"><ele>659.0</ele><time>2026-04-28T07:35:36.998Z</time></trkpt><trkpt lat="39.995190501419806" lon="9.197571872164369"><ele>662.25</ele><time>2026-04-28T07:35:37.998Z</time></trkpt><trkpt lat="39.99519293142546" lon="9.197394929894049"><ele>665.5</ele><time>2026-04-28T07:35:38.998Z</time></trkpt><trkpt lat="39.99511487355862" lon="9.197238388903008"><ele>668.75</ele><time>2026-04-28T07:35:39.998Z</time></trkpt><trkpt lat="39.99500253166798" lon="9.197121731539415"><ele>672.0</ele><time>2026-04-28T07:35:40.999Z</time></trkpt><trkpt lat="39.994877080859105" lon="9.196989982100478"><ele>672.0</ele><time>2026-04-28T07:35:41.999Z</time></trkpt><trkpt lat="39.99475212493172" lon="9.196850811084587"><ele>672.0</ele><time>2026-04-28T07:35:42.999Z</time></trkpt><trkpt lat="39.99465211242212" lon="9.196667773652448"><ele>672.0</ele><time>2026-04-28T07:35:43.999Z</time></trkpt><trkpt lat="39.994568335945935" lon="9.196456713208704"><ele>678.6666666666666</ele><time>2026-04-28T07:35:44.999Z</time></trkpt><trkpt lat="39.99451624842762" lon="9.196259012259244"><ele>685.3333333333333</ele><time>2026-04-28T07:35:45.999Z</time></trkpt><trkpt lat="39.9944174985566" lon="9.196076248084896"><ele>692.0</ele><time>2026-04-28T07:35:47Z</time></trkpt><trkpt lat="39.994291772571515" lon="9.19590832115553"><ele>692.0</ele><time>2026-04-28T07:35:47.999Z</time></trkpt><trkpt lat="39.994187962871834" lon="9.19574693801823"><ele>692.0</ele><time>2026-04-28T07:35:48.999Z</time></trkpt><trkpt lat="39.99414345031845" lon="9.19556865728363"><ele>692.0</ele><time>2026-04-28T07:35:49.999Z</time></trkpt><trkpt lat="39.99415726151727" lon="9.195366888413696"><ele>694.0</ele><time>2026-04-28T07:35:50.999Z</time></trkpt><trkpt lat="39.99420164053078" lon="9.195175227784347"><ele>696.0</ele><time>2026-04-28T07:35:51.999Z</time></trkpt><trkpt lat="39.99418869372041" lon="9.194991012821736"><ele>698.0</ele><time>2026-04-28T07:35:53Z</time></trkpt><trkpt lat="39.99411066527557" lon="9.194823898953219"><ele>700.0</ele><time>2026-04-28T07:35:53.999Z</time></trkpt><trkpt lat="39.994017988113065" lon="9.194652017871297"><ele>688.3333333333334</ele><time>2026-04-28T07:35:54.999Z</time></trkpt><trkpt lat="39.993926986217176" lon="9.19447558524801"><ele>676.6666666666666</ele><time>2026-04-28T07:35:55.999Z</time></trkpt><trkpt lat="39.993823130558354" lon="9.19431486735679"><ele>665.0</ele><time>2026-04-28T07:35:56.999Z</time></trkpt><trkpt lat="39.993692086451716" lon="9.194191731368955"><ele>665.0</ele><time>2026-04-28T07:35:57.999Z</time></trkpt><trkpt lat="39.99356996449947" lon="9.194087238559744"><ele>665.0</ele><time>2026-04-28T07:35:58.999Z</time></trkpt><trkpt lat="39.99348216227734" lon="9.19393544645495"><ele>665.0</ele><time>2026-04-28T07:35:59.999Z</time></trkpt><trkpt lat="39.99344097562556" lon="9.193734205668198"><ele>669.3333333333333</ele><time>2026-04-28T07:36:00.999Z</time></trkpt><trkpt lat="39.99342967183876" lon="9.193521358397355"><ele>673.6666666666666</ele><time>2026-04-28T07:36:01.999Z</time></trkpt><trkpt lat="39.99341489786297" lon="9.193308198413312"><ele>678.0</ele><time>2026-04-28T07:36:02.999Z</time></trkpt><trkpt lat="39.993370699023785" lon="9.193139285953498"><ele>678.5</ele><time>2026-04-28T07:36:03.999Z</time></trkpt><trkpt lat="39.99327338329406" lon="9.193021055461564"><ele>679.0</ele><time>2026-04-28T07:36:04.999Z</time></trkpt><trkpt lat="39.99313880132791" lon="9.192960550725566"><ele>679.5</ele><time>2026-04-28T07:36:05.999Z</time></trkpt><trkpt lat="39.99299168593014" lon="9.192907239313687"><ele>680.0</ele><time>2026-04-28T07:36:06.999Z</time></trkpt><trkpt lat="39.99283902388478" lon="9.192823974116775"><ele>680.0</ele><time>2026-04-28T07:36:07.999Z</time></trkpt><trkpt lat="39.99270252915489" lon="9.192680041539594"><ele>680.0</ele><time>2026-04-28T07:36:08.999Z</time></trkpt><trkpt lat="39.992613413123806" lon="9.192497699907682"><ele>680.0</ele><time>2026-04-28T07:36:09.999Z</time></trkpt><trkpt lat="39.9925380863319" lon="9.192317471032904"><ele>672.6666666666666</ele><time>2026-04-28T07:36:10.999Z</time></trkpt><trkpt lat="39.99248897233974" lon="9.192126063603062"><ele>665.3333333333334</ele><time>2026-04-28T07:36:11.999Z</time></trkpt><trkpt lat="39.992473646832785" lon="9.19192622489667"><ele>658.0</ele><time>2026-04-28T07:36:12.999Z</time></trkpt><trkpt lat="39.992474060480205" lon="9.191724939046177"><ele>658.0</ele><time>2026-04-28T07:36:13.999Z</time></trkpt><trkpt lat="39.99243829612979" lon="9.19153405564493"><ele>658.0</ele><time>2026-04-28T07:36:14.999Z</time></trkpt><trkpt lat="39.992345754210234" lon="9.191360824914163"><ele>658.0</ele><time>2026-04-28T07:36:15.999Z</time></trkpt><trkpt lat="39.99223571984697" lon="9.191219486940403"><ele>664.6666666666667</ele><time>2026-04-28T07:36:16.999Z</time></trkpt><trkpt lat="39.992112630241415" lon="9.191082403347393"><ele>671.3333333333334</ele><time>2026-04-28T07:36:17.999Z</time></trkpt><trkpt lat="39.99196858115572" lon="9.190961394203486"><ele>678.0</ele><time>2026-04-28T07:36:18.999Z</time></trkpt><trkpt lat="39.99182247845214" lon="9.19085456817338"><ele>678.0</ele><time>2026-04-28T07:36:19.999Z</time></trkpt><trkpt lat="39.99169136035645" lon="9.190749692470636"><ele>678.0</ele><time>2026-04-28T07:36:20.999Z</time></trkpt><trkpt lat="39.99156912841211" lon="9.190652451581235"><ele>678.0</ele><time>2026-04-28T07:36:21.999Z</time></trkpt><trkpt lat="39.99145165631635" lon="9.190573439099325"><ele>678.0</ele><time>2026-04-28T07:36:22.999Z</time></trkpt><trkpt lat="39.99133344211984" lon="9.190516213373922"><ele>675.25</ele><time>2026-04-28T07:36:23.999Z</time></trkpt><trkpt lat="39.9912089546717" lon="9.190449634207342"><ele>672.5</ele><time>2026-04-28T07:36:24.999Z</time></trkpt><trkpt lat="39.991117135974534" lon="9.190344999215812"><ele>669.75</ele><time>2026-04-28T07:36:25.999Z</time></trkpt><trkpt lat="39.99104349349623" lon="9.190212665857553"><ele>667.0</ele><time>2026-04-28T07:36:26.999Z</time></trkpt><trkpt lat="39.99101390178875" lon="9.190065484853301"><ele>667.0000000000001</ele><time>2026-04-28T07:36:27.999Z</time></trkpt><trkpt lat="39.991008941083045" lon="9.18995596673541"><ele>667.0</ele><time>2026-04-28T07:36:28.999Z</time></trkpt><trkpt lat="39.99101522787233" lon="9.189871751654197"><ele>667.0</ele><time>2026-04-28T07:36:29.999Z</time></trkpt><trkpt lat="39.9909804108065" lon="9.18977777533978"><ele>667.0</ele><time>2026-04-28T07:36:53.998Z</time></trkpt><trkpt lat="39.99094826528464" lon="9.18970317525575"><ele>667.0</ele><time>2026-04-28T07:36:54.998Z</time></trkpt><trkpt lat="39.99089354585548" lon="9.189627059028112"><ele>667.0000000000001</ele><time>2026-04-28T07:36:55.998Z</time></trkpt><trkpt lat="39.99084026702262" lon="9.189560960893663"><ele>667.0</ele><time>2026-04-28T07:36:56.998Z</time></trkpt><trkpt lat="39.99078688158067" lon="9.189508623423047"><ele>664.2</ele><time>2026-04-28T07:36:57.998Z</time></trkpt><trkpt lat="39.990714253865754" lon="9.18941669688033"><ele>661.4000000000001</ele><time>2026-04-28T07:36:59.998Z</time></trkpt><trkpt lat="39.99061461736446" lon="9.189293725910892"><ele>658.5999999999999</ele><time>2026-04-28T07:37:01.998Z</time></trkpt><trkpt lat="39.99056209078235" lon="9.189238916395635"><ele>655.8</ele><time>2026-04-28T07:37:02.998Z</time></trkpt><trkpt lat="39.99050855652273" lon="9.18919425435302"><ele>653.0</ele><time>2026-04-28T07:37:03.998Z</time></trkpt><trkpt lat="39.99042553103212" lon="9.18914694966394"><ele>653.0</ele><time>2026-04-28T07:37:05.998Z</time></trkpt><trkpt lat="39.99032589344013" lon="9.18909371328207"><ele>653.0</ele><time>2026-04-28T07:37:07.998Z</time></trkpt><trkpt lat="39.990232729446646" lon="9.189031481479647"><ele>653.0</ele><time>2026-04-28T07:37:09.998Z</time></trkpt><trkpt lat="39.990147347844726" lon="9.188983267739971"><ele>653.0</ele><time>2026-04-28T07:37:11.998Z</time></trkpt><trkpt lat="39.990033631556194" lon="9.188926502920294"><ele>653.0</ele><time>2026-04-28T07:37:13.998Z</time></trkpt><trkpt lat="39.98997058464027" lon="9.18888693179478"><ele>652.3333333333333</ele><time>2026-04-28T07:37:14.998Z</time></trkpt><trkpt lat="39.989899360595906" lon="9.18883174190903"><ele>651.6666666666666</ele><time>2026-04-28T07:37:15.998Z</time></trkpt><trkpt lat="39.989833538471366" lon="9.188764425535107"><ele>651.0</ele><time>2026-04-28T07:37:16.998Z</time></trkpt><trkpt lat="39.98976917890558" lon="9.188684139840058"><ele>650.3333333333334</ele><time>2026-04-28T07:37:17.998Z</time></trkpt><trkpt lat="39.989706860613005" lon="9.188613310639683"><ele>649.6666666666667</ele><time>2026-04-28T07:37:18.998Z</time></trkpt><trkpt lat="39.98963865996351" lon="9.188548403442754"><ele>649.0</ele><time>2026-04-28T07:37:19.998Z</time></trkpt><trkpt lat="39.98957377131191" lon="9.188478600105036"><ele>649.0</ele><time>2026-04-28T07:37:20.998Z</time></trkpt><trkpt lat="39.98950700609753" lon="9.188417761797393"><ele>649.0</ele><time>2026-04-28T07:37:21.998Z</time></trkpt><trkpt lat="39.98944326341189" lon="9.188365709773413"><ele>649.0</ele><time>2026-04-28T07:37:22.998Z</time></trkpt><trkpt lat="39.98937142827732" lon="9.188321325917958"><ele>649.0</ele><time>2026-04-28T07:37:23.998Z</time></trkpt><trkpt lat="39.989291768805934" lon="9.188293891363886"><ele>649.0</ele><time>2026-04-28T07:37:24.998Z</time></trkpt><trkpt lat="39.98919954926053" lon="9.18827393033091"><ele>649.0</ele><time>2026-04-28T07:37:25.998Z</time></trkpt><trkpt lat="39.989102797994825" lon="9.188257932419095"><ele>646.4000000000001</ele><time>2026-04-28T07:37:26.998Z</time></trkpt><trkpt lat="39.98899890436384" lon="9.188236161214544"><ele>643.8000000000001</ele><time>2026-04-28T07:37:27.998Z</time></trkpt><trkpt lat="39.988895988219554" lon="9.188211120157487"><ele>641.2</ele><time>2026-04-28T07:37:28.998Z</time></trkpt><trkpt lat="39.988788710791965" lon="9.188155213584562"><ele>638.6</ele><time>2026-04-28T07:37:29.998Z</time></trkpt><trkpt lat="39.988684003483655" lon="9.188092412581891"><ele>636.0</ele><time>2026-04-28T07:37:30.998Z</time></trkpt><trkpt lat="39.98857687479408" lon="9.188010103191873"><ele>636.0</ele><time>2026-04-28T07:37:31.998Z</time></trkpt><trkpt lat="39.988485130758264" lon="9.18791762693996"><ele>636.0</ele><time>2026-04-28T07:37:32.998Z</time></trkpt><trkpt lat="39.98840092193461" lon="9.187812701338887"><ele>636.0</ele><time>2026-04-28T07:37:33.998Z</time></trkpt><trkpt lat="39.98833655693325" lon="9.187694961784183"><ele>636.0</ele><time>2026-04-28T07:37:34.998Z</time></trkpt><trkpt lat="39.98829378218213" lon="9.18756996133464"><ele>636.0</ele><time>2026-04-28T07:37:35.998Z</time></trkpt><trkpt lat="39.988283606258726" lon="9.187447016415877"><ele>632.25</ele><time>2026-04-28T07:37:36.998Z</time></trkpt><trkpt lat="39.98832227506293" lon="9.187307834880626"><ele>628.5</ele><time>2026-04-28T07:37:37.998Z</time></trkpt><trkpt lat="39.98838975270601" lon="9.187195824369654"><ele>624.75</ele><time>2026-04-28T07:37:38.998Z</time></trkpt><trkpt lat="39.98849318627868" lon="9.18711374353033"><ele>621.0</ele><time>2026-04-28T07:37:39.998Z</time></trkpt><trkpt lat="39.98860641733337" lon="9.187040963978447"><ele>621.0</ele><time>2026-04-28T07:37:40.998Z</time></trkpt><trkpt lat="39.988711311309736" lon="9.186943209170169"><ele>621.0</ele><time>2026-04-28T07:37:41.998Z</time></trkpt><trkpt lat="39.98881612071766" lon="9.186827542269615"><ele>621.0</ele><time>2026-04-28T07:37:42.998Z</time></trkpt><trkpt lat="39.98891077013385" lon="9.186713741368251"><ele>621.0</ele><time>2026-04-28T07:37:43.998Z</time></trkpt><trkpt lat="39.98899670379019" lon="9.18658135278331"><ele>617.5</ele><time>2026-04-28T07:37:44.998Z</time></trkpt><trkpt lat="39.9890752773256" lon="9.18644401082885"><ele>614.0</ele><time>2026-04-28T07:37:45.998Z</time></trkpt><trkpt lat="39.9891706474792" lon="9.186312802739431"><ele>610.5</ele><time>2026-04-28T07:37:47Z</time></trkpt><trkpt lat="39.989278215934974" lon="9.186197970267727"><ele>607.0</ele><time>2026-04-28T07:37:47.999Z</time></trkpt><trkpt lat="39.98939178124019" lon="9.186096004183925"><ele>607.0</ele><time>2026-04-28T07:37:48.999Z</time></trkpt><trkpt lat="39.9894998093294" lon="9.185997839164186"><ele>607.0</ele><time>2026-04-28T07:37:49.999Z</time></trkpt><trkpt lat="39.98960999651552" lon="9.185943451298472"><ele>607.0</ele><time>2026-04-28T07:37:51Z</time></trkpt><trkpt lat="39.98973769922669" lon="9.185931937663753"><ele>607.0</ele><time>2026-04-28T07:37:52Z</time></trkpt><trkpt lat="39.989873480644256" lon="9.18597478986206"><ele>607.0</ele><time>2026-04-28T07:37:52.999Z</time></trkpt><trkpt lat="39.98999760423722" lon="9.18601537284236"><ele>607.0</ele><time>2026-04-28T07:37:53.999Z</time></trkpt><trkpt lat="39.990119008404335" lon="9.186035199336814"><ele>607.0</ele><time>2026-04-28T07:37:54.999Z</time></trkpt><trkpt lat="39.99023799228909" lon="9.185997502155285"><ele>607.0</ele><time>2026-04-28T07:37:56Z</time></trkpt><trkpt lat="39.99033713634882" lon="9.185895635092757"><ele>606.25</ele><time>2026-04-28T07:37:56.999Z</time></trkpt><trkpt lat="39.9904005965962" lon="9.185748090348616"><ele>605.5</ele><time>2026-04-28T07:37:57.999Z</time></trkpt><trkpt lat="39.99045184097754" lon="9.185597428999175"><ele>604.75</ele><time>2026-04-28T07:37:58.999Z</time></trkpt><trkpt lat="39.990522499634814" lon="9.185463775384662"><ele>604.0</ele><time>2026-04-28T07:37:59.999Z</time></trkpt><trkpt lat="39.990615004855236" lon="9.185361896314088"><ele>604.0</ele><time>2026-04-28T07:38:00.999Z</time></trkpt><trkpt lat="39.99072079195591" lon="9.185288100166519"><ele>604.0</ele><time>2026-04-28T07:38:01.999Z</time></trkpt><trkpt lat="39.990812549199454" lon="9.18522727088364"><ele>604.0</ele><time>2026-04-28T07:38:02.999Z</time></trkpt><trkpt lat="39.99090096530837" lon="9.18516538919916"><ele>604.0</ele><time>2026-04-28T07:38:03.999Z</time></trkpt><trkpt lat="39.99095734018896" lon="9.185055458601228"><ele>604.0</ele><time>2026-04-28T07:38:04.999Z</time></trkpt><trkpt lat="39.99096798533833" lon="9.184895107719733"><ele>604.75</ele><time>2026-04-28T07:38:05.999Z</time></trkpt><trkpt lat="39.990967171322396" lon="9.1847171206618"><ele>605.5</ele><time>2026-04-28T07:38:06.999Z</time></trkpt><trkpt lat="39.9909776215234" lon="9.184555556780257"><ele>606.25</ele><time>2026-04-28T07:38:07.999Z</time></trkpt><trkpt lat="39.99099574360803" lon="9.184389593476523"><ele>607.0</ele><time>2026-04-28T07:38:08.999Z</time></trkpt><trkpt lat="39.991030459340855" lon="9.18422394976965"><ele>607.0</ele><time>2026-04-28T07:38:09.999Z</time></trkpt><trkpt lat="39.991098143077856" lon="9.184066929572312"><ele>607.0</ele><time>2026-04-28T07:38:10.999Z</time></trkpt><trkpt lat="39.99118322781163" lon="9.183928483706731"><ele>607.0</ele><time>2026-04-28T07:38:11.999Z</time></trkpt><trkpt lat="39.99127869754987" lon="9.183805416522414"><ele>607.0</ele><time>2026-04-28T07:38:12.998Z</time></trkpt><trkpt lat="39.99136976610951" lon="9.183681969107143"><ele>605.0</ele><time>2026-04-28T07:38:13.998Z</time></trkpt><trkpt lat="39.99145716759584" lon="9.183570894427909"><ele>603.0</ele><time>2026-04-28T07:38:14.998Z</time></trkpt><trkpt lat="39.99154922791931" lon="9.183493444290189"><ele>601.0</ele><time>2026-04-28T07:38:15.998Z</time></trkpt><trkpt lat="39.99167318130422" lon="9.183470501360363"><ele>599.0</ele><time>2026-04-28T07:38:16.998Z</time></trkpt><trkpt lat="39.99181062901293" lon="9.18350489471029"><ele>599.0</ele><time>2026-04-28T07:38:17.998Z</time></trkpt><trkpt lat="39.99192325113831" lon="9.183595787011427"><ele>599.0</ele><time>2026-04-28T07:38:18.998Z</time></trkpt><trkpt lat="39.99200537440005" lon="9.183720491846996"><ele>599.0</ele><time>2026-04-28T07:38:19.998Z</time></trkpt><trkpt lat="39.99208389730958" lon="9.183810512782582"><ele>599.0</ele><time>2026-04-28T07:38:20.998Z</time></trkpt><trkpt lat="39.99218209393398" lon="9.183826630094226"><ele>599.0</ele><time>2026-04-28T07:38:21.998Z</time></trkpt><trkpt lat="39.99226833904896" lon="9.183769426957827"><ele>599.0</ele><time>2026-04-28T07:38:22.998Z</time></trkpt><trkpt lat="39.992339260131125" lon="9.183655962112214"><ele>599.0</ele><time>2026-04-28T07:38:23.998Z</time></trkpt><trkpt lat="39.99237702255972" lon="9.183502083108712"><ele>599.0</ele><time>2026-04-28T07:38:24.998Z</time></trkpt><trkpt lat="39.992394729168936" lon="9.183346753317029"><ele>599.0</ele><time>2026-04-28T07:38:25.998Z</time></trkpt><trkpt lat="39.992421284400976" lon="9.183206718437427"><ele>599.0</ele><time>2026-04-28T07:38:26.998Z</time></trkpt><trkpt lat="39.99245017381082" lon="9.183050140764728"><ele>599.0</ele><time>2026-04-28T07:38:27.998Z</time></trkpt><trkpt lat="39.992484353422164" lon="9.18290525817243"><ele>599.0</ele><time>2026-04-28T07:38:28.998Z</time></trkpt><trkpt lat="39.99252399184409" lon="9.182762459522413"><ele>600.4</ele><time>2026-04-28T07:38:29.998Z</time></trkpt><trkpt lat="39.99256233406199" lon="9.182613076515256"><ele>601.8</ele><time>2026-04-28T07:38:30.998Z</time></trkpt><trkpt lat="39.992604373929126" lon="9.182480285185294"><ele>603.2</ele><time>2026-04-28T07:38:31.998Z</time></trkpt><trkpt lat="39.99263197122577" lon="9.182367984762804"><ele>604.6</ele><time>2026-04-28T07:38:32.998Z</time></trkpt><trkpt lat="39.992662271536666" lon="9.182293572129321"><ele>606.0</ele><time>2026-04-28T07:38:33.998Z</time></trkpt><trkpt lat="39.9926616944437" lon="9.182197979463094"><ele>602.4</ele><time>2026-04-28T07:38:37.998Z</time></trkpt><trkpt lat="39.992541448719244" lon="9.1821922969991"><ele>598.8</ele><time>2026-04-28T07:38:39.998Z</time></trkpt><trkpt lat="39.992452571988125" lon="9.18226340892661"><ele>595.1999999999999</ele><time>2026-04-28T07:38:40.998Z</time></trkpt><trkpt lat="39.99237796433843" lon="9.182349072025318"><ele>591.6</ele><time>2026-04-28T07:38:41.998Z</time></trkpt><trkpt lat="39.99231930143479" lon="9.182454402085682"><ele>588.0</ele><time>2026-04-28T07:38:42.998Z</time></trkpt><trkpt lat="39.992278192176144" lon="9.182581692387021"><ele>588.0</ele><time>2026-04-28T07:38:43.998Z</time></trkpt><trkpt lat="39.992254609534086" lon="9.182720922042172"><ele>588.0</ele><time>2026-04-28T07:38:44.998Z</time></trkpt><trkpt lat="39.99223870998082" lon="9.182855345797398"><ele>588.0</ele><time>2026-04-28T07:38:45.998Z</time></trkpt><trkpt lat="39.99223915751982" lon="9.183007550959346"><ele>588.0</ele><time>2026-04-28T07:38:46.998Z</time></trkpt><trkpt lat="39.9922164813293" lon="9.183124457794666"><ele>588.0</ele><time>2026-04-28T07:38:47.998Z</time></trkpt><trkpt lat="39.99217905672817" lon="9.183231167955682"><ele>588.0</ele><time>2026-04-28T07:38:48.998Z</time></trkpt><trkpt lat="39.992109315896265" lon="9.183294069848827"><ele>588.0</ele><time>2026-04-28T07:38:49.998Z</time></trkpt><trkpt lat="39.992026192217665" lon="9.183296088411112"><ele>588.0</ele><time>2026-04-28T07:38:50.998Z</time></trkpt><trkpt lat="39.991947882197124" lon="9.183242002592662"><ele>588.0</ele><time>2026-04-28T07:38:51.998Z</time></trkpt><trkpt lat="39.991876564723924" lon="9.183175601918965"><ele>588.0</ele><time>2026-04-28T07:38:52.998Z</time></trkpt><trkpt lat="39.991812853090615" lon="9.183112459470351"><ele>588.0</ele><time>2026-04-28T07:38:53.998Z</time></trkpt><trkpt lat="39.99174649987438" lon="9.183056638880728"><ele>588.0</ele><time>2026-04-28T07:38:54.998Z</time></trkpt><trkpt lat="39.99168367276407" lon="9.183004364956318"><ele>588.0</ele><time>2026-04-28T07:38:55.998Z</time></trkpt><trkpt lat="39.99162678793912" lon="9.18294737839059"><ele>588.0</ele><time>2026-04-28T07:38:56.998Z</time></trkpt><trkpt lat="39.99155735453078" lon="9.182896487257274"><ele>588.0</ele><time>2026-04-28T07:38:57.998Z</time></trkpt><trkpt lat="39.991480879568115" lon="9.18285049318601"><ele>588.0</ele><time>2026-04-28T07:38:58.998Z</time></trkpt><trkpt lat="39.991394176155794" lon="9.182822412128077"><ele>588.0</ele><time>2026-04-28T07:38:59.998Z</time></trkpt><trkpt lat="39.99129554636941" lon="9.182811578555595"><ele>584.5</ele><time>2026-04-28T07:39:00.998Z</time></trkpt><trkpt lat="39.991182870812146" lon="9.182840996492057"><ele>581.0</ele><time>2026-04-28T07:39:01.998Z</time></trkpt><trkpt lat="39.99106500048634" lon="9.182894392137564"><ele>577.5</ele><time>2026-04-28T07:39:02.998Z</time></trkpt><trkpt lat="39.99095453238273" lon="9.182965493689291"><ele>574.0</ele><time>2026-04-28T07:39:03.998Z</time></trkpt><trkpt lat="39.99084572312322" lon="9.18304068486648"><ele>575.6</ele><time>2026-04-28T07:39:04.998Z</time></trkpt><trkpt lat="39.990731309478996" lon="9.183089200633193"><ele>577.2</ele><time>2026-04-28T07:39:05.998Z</time></trkpt><trkpt lat="39.99062547829177" lon="9.183128954528605"><ele>578.8000000000001</ele><time>2026-04-28T07:39:06.998Z</time></trkpt><trkpt lat="39.9905257751277" lon="9.183154645768324"><ele>580.4</ele><time>2026-04-28T07:39:07.998Z</time></trkpt><trkpt lat="39.99042899290544" lon="9.183224253214425"><ele>582.0</ele><time>2026-04-28T07:39:08.998Z</time></trkpt><trkpt lat="39.99034310804766" lon="9.183330646367125"><ele>582.0</ele><time>2026-04-28T07:39:09.998Z</time></trkpt><trkpt lat="39.990275609840886" lon="9.183457748967264"><ele>582.0</ele><time>2026-04-28T07:39:10.998Z</time></trkpt><trkpt lat="39.990208653025476" lon="9.183589219840886"><ele>582.0</ele><time>2026-04-28T07:39:11.998Z</time></trkpt><trkpt lat="39.99014713109298" lon="9.183720675539591"><ele>582.0</ele><time>2026-04-28T07:39:12.998Z</time></trkpt><trkpt lat="39.99007474674555" lon="9.183822994473394"><ele>577.75</ele><time>2026-04-28T07:39:13.998Z</time></trkpt><trkpt lat="39.98996269682112" lon="9.18386309888671"><ele>573.5</ele><time>2026-04-28T07:39:14.998Z</time></trkpt><trkpt lat="39.98983037332461" lon="9.183875401378714"><ele>569.25</ele><time>2026-04-28T07:39:15.998Z</time></trkpt><trkpt lat="39.989663699201266" lon="9.183888696787958"><ele>565.0</ele><time>2026-04-28T07:39:16.998Z</time></trkpt><trkpt lat="39.989478482474574" lon="9.18392432152195"><ele>565.0</ele><time>2026-04-28T07:39:17.998Z</time></trkpt><trkpt lat="39.98929512605159" lon="9.183969798507134"><ele>565.0</ele><time>2026-04-28T07:39:18.998Z</time></trkpt><trkpt lat="39.98913198897023" lon="9.183954027196888"><ele>565.0</ele><time>2026-04-28T07:39:19.997Z</time></trkpt><trkpt lat="39.98897590198114" lon="9.18392303514023"><ele>565.75</ele><time>2026-04-28T07:39:20.997Z</time></trkpt><trkpt lat="39.988839536805465" lon="9.183926425086286"><ele>566.5</ele><time>2026-04-28T07:39:21.997Z</time></trkpt><trkpt lat="39.988700855718825" lon="9.183994588273944"><ele>567.25</ele><time>2026-04-28T07:39:22.997Z</time></trkpt><trkpt lat="39.98856514166385" lon="9.18410059378988"><ele>568.0</ele><time>2026-04-28T07:39:23.997Z</time></trkpt><trkpt lat="39.988416607177996" lon="9.184244036770998"><ele>564.6666666666667</ele><time>2026-04-28T07:39:24.997Z</time></trkpt><trkpt lat="39.98825436985195" lon="9.184385456727494"><ele>561.3333333333334</ele><time>2026-04-28T07:39:25.997Z</time></trkpt><trkpt lat="39.988086003763804" lon="9.184529615614853"><ele>558.0</ele><time>2026-04-28T07:39:26.997Z</time></trkpt><trkpt lat="39.98792440226635" lon="9.18467884851802"><ele>556.6666666666666</ele><time>2026-04-28T07:39:27.997Z</time></trkpt><trkpt lat="39.987779409994786" lon="9.18485375728939"><ele>555.3333333333333</ele><time>2026-04-28T07:39:28.997Z</time></trkpt><trkpt lat="39.98763542849842" lon="9.185034219954757"><ele>554.0</ele><time>2026-04-28T07:39:29.997Z</time></trkpt><trkpt lat="39.98748655368825" lon="9.185186482193203"><ele>554.0</ele><time>2026-04-28T07:39:30.997Z</time></trkpt><trkpt lat="39.98733322991727" lon="9.185303967792645"><ele>554.0</ele><time>2026-04-28T07:39:31.997Z</time></trkpt><trkpt lat="39.987201313193445" lon="9.185435405732445"><ele>554.0</ele><time>2026-04-28T07:39:32.997Z</time></trkpt><trkpt lat="39.98708886542882" lon="9.185603730122404"><ele>558.0</ele><time>2026-04-28T07:39:33.997Z</time></trkpt><trkpt lat="39.986980676526684" lon="9.185795857095007"><ele>562.0</ele><time>2026-04-28T07:39:34.997Z</time></trkpt><trkpt lat="39.98689102370473" lon="9.185995501397926"><ele>566.0</ele><time>2026-04-28T07:39:35.997Z</time></trkpt><trkpt lat="39.986827898687395" lon="9.186186586886315"><ele>566.0</ele><time>2026-04-28T07:39:36.997Z</time></trkpt><trkpt lat="39.98679867988991" lon="9.186373232627972"><ele>566.0</ele><time>2026-04-28T07:39:37.997Z</time></trkpt><trkpt lat="39.986781634417305" lon="9.186539604119893"><ele>566.0</ele><time>2026-04-28T07:39:38.997Z</time></trkpt><trkpt lat="39.986733340475226" lon="9.186665980076661"><ele>566.0</ele><time>2026-04-28T07:39:39.997Z</time></trkpt><trkpt lat="39.98665007091979" lon="9.186729689034637"><ele>564.0</ele><time>2026-04-28T07:39:40.997Z</time></trkpt><trkpt lat="39.98655779670956" lon="9.186746143721074"><ele>562.0</ele><time>2026-04-28T07:39:41.997Z</time></trkpt><trkpt lat="39.98646751122088" lon="9.186761351857282"><ele>560.0</ele><time>2026-04-28T07:39:42.997Z</time></trkpt><trkpt lat="39.98638734706526" lon="9.186683335888075"><ele>558.0</ele><time>2026-04-28T07:39:43.997Z</time></trkpt><trkpt lat="39.986317283981585" lon="9.186554873495465"><ele>556.0</ele><time>2026-04-28T07:39:44.997Z</time></trkpt><trkpt lat="39.98625686133069" lon="9.186391223237528"><ele>554.5</ele><time>2026-04-28T07:39:45.997Z</time></trkpt><trkpt lat="39.986186092103694" lon="9.186229551741352"><ele>553.0</ele><time>2026-04-28T07:39:46.997Z</time></trkpt><trkpt lat="39.986120228368186" lon="9.186065790854673"><ele>551.5</ele><time>2026-04-28T07:39:47.997Z</time></trkpt><trkpt lat="39.98605523485635" lon="9.185904102230866"><ele>550.0</ele><time>2026-04-28T07:39:48.997Z</time></trkpt><trkpt lat="39.98597914451121" lon="9.185731427852698"><ele>549.3333333333334</ele><time>2026-04-28T07:39:49.997Z</time></trkpt><trkpt lat="39.98590380574383" lon="9.185559832497773"><ele>548.6666666666666</ele><time>2026-04-28T07:39:50.997Z</time></trkpt><trkpt lat="39.98581471819849" lon="9.185411996359585"><ele>548.0</ele><time>2026-04-28T07:39:51.999Z</time></trkpt><trkpt lat="39.985684060741136" lon="9.18528830897902"><ele>548.0</ele><time>2026-04-28T07:39:52.999Z</time></trkpt><trkpt lat="39.98553476683009" lon="9.185186257416518"><ele>548.0</ele><time>2026-04-28T07:39:53.999Z</time></trkpt><trkpt lat="39.985373780796756" lon="9.185096403382907"><ele>548.0</ele><time>2026-04-28T07:39:55Z</time></trkpt><trkpt lat="39.9851990203123" lon="9.185031678911786"><ele>548.0</ele><time>2026-04-28T07:39:55.999Z</time></trkpt><trkpt lat="39.985016295044524" lon="9.185014012123627"><ele>548.0</ele><time>2026-04-28T07:39:56.999Z</time></trkpt><trkpt lat="39.984842860473016" lon="9.184991982523579"><ele>548.0</ele><time>2026-04-28T07:39:57.999Z</time></trkpt><trkpt lat="39.98465678750619" lon="9.184988622937523"><ele>550.3333333333333</ele><time>2026-04-28T07:39:58.999Z</time></trkpt><trkpt lat="39.98447121983607" lon="9.18499057401886"><ele>552.6666666666666</ele><time>2026-04-28T07:39:59.999Z</time></trkpt><trkpt lat="39.98428345406503" lon="9.184973656289356"><ele>555.0</ele><time>2026-04-28T07:40:00.999Z</time></trkpt><trkpt lat="39.98410226142038" lon="9.184967269085027"><ele>555.0</ele><time>2026-04-28T07:40:01.999Z</time></trkpt><trkpt lat="39.98392129429279" lon="9.184964327497235"><ele>555.0</ele><time>2026-04-28T07:40:02.999Z</time></trkpt><trkpt lat="39.98373324526158" lon="9.184956801981276"><ele>555.0</ele><time>2026-04-28T07:40:03.999Z</time></trkpt><trkpt lat="39.983549809021916" lon="9.184970303665038"><ele>555.0</ele><time>2026-04-28T07:40:04.999Z</time></trkpt><trkpt lat="39.983375217704136" lon="9.185050645495005"><ele>555.0</ele><time>2026-04-28T07:40:05.999Z</time></trkpt><trkpt lat="39.98322337172967" lon="9.185184232041752"><ele>555.0</ele><time>2026-04-28T07:40:06.999Z</time></trkpt><trkpt lat="39.98308046142765" lon="9.185332680107738"><ele>554.0</ele><time>2026-04-28T07:40:07.999Z</time></trkpt><trkpt lat="39.982926449237176" lon="9.185447058467773"><ele>553.0</ele><time>2026-04-28T07:40:08.999Z</time></trkpt><trkpt lat="39.98276751524971" lon="9.185467450651235"><ele>552.0</ele><time>2026-04-28T07:40:09.999Z</time></trkpt><trkpt lat="39.982634237782" lon="9.185392584162788"><ele>552.0</ele><time>2026-04-28T07:40:10.999Z</time></trkpt><trkpt lat="39.98248679380639" lon="9.185325359593367"><ele>552.0</ele><time>2026-04-28T07:40:11.999Z</time></trkpt><trkpt lat="39.98233399844503" lon="9.185316990754028"><ele>552.0</ele><time>2026-04-28T07:40:12.999Z</time></trkpt><trkpt lat="39.982173593993906" lon="9.1853720384033"><ele>552.0</ele><time>2026-04-28T07:40:13.999Z</time></trkpt><trkpt lat="39.98202382578854" lon="9.185449547652885"><ele>552.0</ele><time>2026-04-28T07:40:14.999Z</time></trkpt><trkpt lat="39.981858335969996" lon="9.185491658846132"><ele>552.0</ele><time>2026-04-28T07:40:15.999Z</time></trkpt><trkpt lat="39.98168309510325" lon="9.185522744034504"><ele>552.3333333333334</ele><time>2026-04-28T07:40:16.999Z</time></trkpt><trkpt lat="39.98149382083777" lon="9.185522068124516"><ele>552.6666666666667</ele><time>2026-04-28T07:40:17.999Z</time></trkpt><trkpt lat="39.98130448513634" lon="9.1855144022075"><ele>553.0</ele><time>2026-04-28T07:40:18.999Z</time></trkpt><trkpt lat="39.98111550080835" lon="9.185484055609265"><ele>553.0</ele><time>2026-04-28T07:40:19.999Z</time></trkpt><trkpt lat="39.98094522952266" lon="9.18540264837744"><ele>553.0</ele><time>2026-04-28T07:40:20.999Z</time></trkpt><trkpt lat="39.980786200716395" lon="9.185316758716617"><ele>553.0</ele><time>2026-04-28T07:40:21.999Z</time></trkpt><trkpt lat="39.98065038008288" lon="9.185263810386571"><ele>553.75</ele><time>2026-04-28T07:40:22.999Z</time></trkpt><trkpt lat="39.980515731409824" lon="9.185313688707895"><ele>554.5</ele><time>2026-04-28T07:40:23.999Z</time></trkpt><trkpt lat="39.980396337728834" lon="9.185414314454315"><ele>555.25</ele><time>2026-04-28T07:40:24.999Z</time></trkpt><trkpt lat="39.980271337513415" lon="9.185552138264582"><ele>556.0</ele><time>2026-04-28T07:40:25.999Z</time></trkpt><trkpt lat="39.98013376156007" lon="9.18570360042773"><ele>559.0</ele><time>2026-04-28T07:40:26.999Z</time></trkpt><trkpt lat="39.97998113885796" lon="9.185867928736723"><ele>562.0</ele><time>2026-04-28T07:40:27.999Z</time></trkpt><trkpt lat="39.97983413766142" lon="9.186020742759807"><ele>565.0</ele><time>2026-04-28T07:40:28.999Z</time></trkpt><trkpt lat="39.97969182507871" lon="9.186186878668003"><ele>565.0</ele><time>2026-04-28T07:40:29.999Z</time></trkpt><trkpt lat="39.97953472728285" lon="9.186349249497392"><ele>565.0</ele><time>2026-04-28T07:40:30.999Z</time></trkpt><trkpt lat="39.979375985079564" lon="9.186509666145408"><ele>565.0</ele><time>2026-04-28T07:40:31.999Z</time></trkpt><trkpt lat="39.97922359851352" lon="9.186660613071618"><ele>566.0</ele><time>2026-04-28T07:40:32.999Z</time></trkpt><trkpt lat="39.97908155290795" lon="9.186810102531599"><ele>567.0</ele><time>2026-04-28T07:40:33.999Z</time></trkpt><trkpt lat="39.978973981945124" lon="9.18697968397098"><ele>568.0</ele><time>2026-04-28T07:40:34.999Z</time></trkpt><trkpt lat="39.9789035049783" lon="9.187179439220792"><ele>571.6666666666667</ele><time>2026-04-28T07:40:35.999Z</time></trkpt><trkpt lat="39.9788689455685" lon="9.187402486049592"><ele>575.3333333333334</ele><time>2026-04-28T07:40:36.999Z</time></trkpt><trkpt lat="39.97885612202716" lon="9.187624883511454"><ele>579.0</ele><time>2026-04-28T07:40:37.999Z</time></trkpt><trkpt lat="39.978885584346024" lon="9.1878533525061"><ele>579.0</ele><time>2026-04-28T07:40:38.999Z</time></trkpt><trkpt lat="39.978928832419385" lon="9.18807063639395"><ele>579.0</ele><time>2026-04-28T07:40:39.999Z</time></trkpt><trkpt lat="39.97892323634637" lon="9.188272937101745"><ele>579.0</ele><time>2026-04-28T07:40:40.999Z</time></trkpt><trkpt lat="39.978871132017936" lon="9.188462428478383"><ele>582.0</ele><time>2026-04-28T07:40:41.999Z</time></trkpt><trkpt lat="39.97879854326522" lon="9.188616560250972"><ele>585.0</ele><time>2026-04-28T07:40:42.999Z</time></trkpt><trkpt lat="39.97870425070382" lon="9.188706449101455"><ele>588.0</ele><time>2026-04-28T07:40:43.999Z</time></trkpt><trkpt lat="39.97858736873599" lon="9.188719597418759"><ele>591.0</ele><time>2026-04-28T07:40:44.999Z</time></trkpt><trkpt lat="39.97845838451469" lon="9.188682636574477"><ele>584.6666666666666</ele><time>2026-04-28T07:40:45.999Z</time></trkpt><trkpt lat="39.97831769946253" lon="9.188647731473434"><ele>578.3333333333333</ele><time>2026-04-28T07:40:46.999Z</time></trkpt><trkpt lat="39.97816854575768" lon="9.188593853280313"><ele>572.0</ele><time>2026-04-28T07:40:47.999Z</time></trkpt><trkpt lat="39.97802483608003" lon="9.18848783825368"><ele>572.0</ele><time>2026-04-28T07:40:48.999Z</time></trkpt><trkpt lat="39.977895584789884" lon="9.188337009032182"><ele>572.0</ele><time>2026-04-28T07:40:49.999Z</time></trkpt><trkpt lat="39.97779185001022" lon="9.188183210314646"><ele>572.0</ele><time>2026-04-28T07:40:50.999Z</time></trkpt><trkpt lat="39.977728149984344" lon="9.18799055095293"><ele>570.0</ele><time>2026-04-28T07:40:51.999Z</time></trkpt><trkpt lat="39.97771393867344" lon="9.187782646481933"><ele>568.0</ele><time>2026-04-28T07:40:52.999Z</time></trkpt><trkpt lat="39.97772075188504" lon="9.187558616918578"><ele>566.0</ele><time>2026-04-28T07:40:53.999Z</time></trkpt><trkpt lat="39.97776877140624" lon="9.187333243504565"><ele>565.5</ele><time>2026-04-28T07:40:54.999Z</time></trkpt><trkpt lat="39.97783888934085" lon="9.187157244622796"><ele>565.0</ele><time>2026-04-28T07:40:55.998Z</time></trkpt><trkpt lat="39.97786969989447" lon="9.186968844368742"><ele>564.5</ele><time>2026-04-28T07:40:56.998Z</time></trkpt><trkpt lat="39.9778081232827" lon="9.186836782250662"><ele>564.0</ele><time>2026-04-28T07:40:57.998Z</time></trkpt><trkpt lat="39.97769554483847" lon="9.18676401895854"><ele>564.0</ele><time>2026-04-28T07:40:58.998Z</time></trkpt><trkpt lat="39.977571937959894" lon="9.186782102482509"><ele>564.0</ele><time>2026-04-28T07:40:59.998Z</time></trkpt><trkpt lat="39.97744927699039" lon="9.186867154037747"><ele>564.0</ele><time>2026-04-28T07:41:00.998Z</time></trkpt><trkpt lat="39.97731258623354" lon="9.186901135801259"><ele>564.0</ele><time>2026-04-28T07:41:01.998Z</time></trkpt><trkpt lat="39.97715779121209" lon="9.186896784473921"><ele>567.6666666666666</ele><time>2026-04-28T07:41:02.998Z</time></trkpt><trkpt lat="39.97697231137572" lon="9.186830752476075"><ele>571.3333333333333</ele><time>2026-04-28T07:41:03.998Z</time></trkpt><trkpt lat="39.97679181198736" lon="9.186757779288559"><ele>575.0</ele><time>2026-04-28T07:41:04.998Z</time></trkpt><trkpt lat="39.97662136070907" lon="9.186700363336511"><ele>577.3333333333333</ele><time>2026-04-28T07:41:05.998Z</time></trkpt><trkpt lat="39.976449216332" lon="9.186680714326798"><ele>579.6666666666666</ele><time>2026-04-28T07:41:06.998Z</time></trkpt><trkpt lat="39.97628647827061" lon="9.18669856998443"><ele>582.0</ele><time>2026-04-28T07:41:07.998Z</time></trkpt><trkpt lat="39.97610147047385" lon="9.186729034536153"><ele>582.0</ele><time>2026-04-28T07:41:08.998Z</time></trkpt><trkpt lat="39.97592551743758" lon="9.186707970154085"><ele>582.0</ele><time>2026-04-28T07:41:09.998Z</time></trkpt><trkpt lat="39.975738801191255" lon="9.186651069682805"><ele>582.0</ele><time>2026-04-28T07:41:10.998Z</time></trkpt><trkpt lat="39.9755541952995" lon="9.186555453164592"><ele>578.6666666666666</ele><time>2026-04-28T07:41:11.998Z</time></trkpt><trkpt lat="39.97538308231165" lon="9.186457019790923"><ele>575.3333333333333</ele><time>2026-04-28T07:41:12.998Z</time></trkpt><trkpt lat="39.97520040890394" lon="9.186407678713154"><ele>572.0</ele><time>2026-04-28T07:41:13.998Z</time></trkpt><trkpt lat="39.97502076169012" lon="9.186374362283486"><ele>572.0</ele><time>2026-04-28T07:41:14.998Z</time></trkpt><trkpt lat="39.97485368191678" lon="9.186353243581822"><ele>572.0</ele><time>2026-04-28T07:41:15.998Z</time></trkpt><trkpt lat="39.97468372494051" lon="9.186362881388577"><ele>572.0</ele><time>2026-04-28T07:41:16.998Z</time></trkpt><trkpt lat="39.97453073951771" lon="9.18639537113862"><ele>572.0</ele><time>2026-04-28T07:41:17.998Z</time></trkpt><trkpt lat="39.974381108176246" lon="9.186454355538157"><ele>572.0</ele><time>2026-04-28T07:41:18.998Z</time></trkpt><trkpt lat="39.97424246707577" lon="9.186522384413916"><ele>572.0</ele><time>2026-04-28T07:41:19.998Z</time></trkpt><trkpt lat="39.974116965899185" lon="9.186595427883901"><ele>572.0</ele><time>2026-04-28T07:41:20.998Z</time></trkpt><trkpt lat="39.97399859340024" lon="9.186656936164674"><ele>575.6</ele><time>2026-04-28T07:41:21.998Z</time></trkpt><trkpt lat="39.97388920446482" lon="9.186693629907984"><ele>579.2</ele><time>2026-04-28T07:41:22.998Z</time></trkpt><trkpt lat="39.97381115464147" lon="9.186779436460812"><ele>582.8</ele><time>2026-04-28T07:41:23.998Z</time></trkpt><trkpt lat="39.97374858112059" lon="9.186877329927711"><ele>586.4</ele><time>2026-04-28T07:41:24.998Z</time></trkpt><trkpt lat="39.97372503689925" lon="9.186972228540734"><ele>590.0</ele><time>2026-04-28T07:41:25.998Z</time></trkpt><trkpt lat="39.973704525216604" lon="9.187074010421059"><ele>590.0</ele><time>2026-04-28T07:41:26.998Z</time></trkpt><trkpt lat="39.9736673995962" lon="9.187189639395594"><ele>590.0</ele><time>2026-04-28T07:41:27.998Z</time></trkpt><trkpt lat="39.97357911961356" lon="9.187275184774462"><ele>590.0</ele><time>2026-04-28T07:41:28.998Z</time></trkpt><trkpt lat="39.973478683775475" lon="9.187279528086489"><ele>590.0</ele><time>2026-04-28T07:41:29.998Z</time></trkpt><trkpt lat="39.97338745191343" lon="9.187197061732848"><ele>590.0</ele><time>2026-04-28T07:41:30.998Z</time></trkpt><trkpt lat="39.973292117155964" lon="9.187096016023355"><ele>589.0</ele><time>2026-04-28T07:41:31.998Z</time></trkpt><trkpt lat="39.97316120271129" lon="9.187056441281419"><ele>588.0</ele><time>2026-04-28T07:41:32.998Z</time></trkpt><trkpt lat="39.97301135583198" lon="9.187054025510962"><ele>587.0</ele><time>2026-04-28T07:41:33.998Z</time></trkpt><trkpt lat="39.972857236842266" lon="9.187087090017961"><ele>586.0</ele><time>2026-04-28T07:41:34.998Z</time></trkpt><trkpt lat="39.972709807573345" lon="9.18714147524783"><ele>586.0</ele><time>2026-04-28T07:41:35.998Z</time></trkpt><trkpt lat="39.97256348976003" lon="9.18723815957742"><ele>586.0</ele><time>2026-04-28T07:41:36.998Z</time></trkpt><trkpt lat="39.97241014386516" lon="9.18733990198588"><ele>586.0</ele><time>2026-04-28T07:41:37.998Z</time></trkpt><trkpt lat="39.97224995552645" lon="9.187446261148729"><ele>592.0</ele><time>2026-04-28T07:41:38.998Z</time></trkpt><trkpt lat="39.972081642523776" lon="9.187550808763365"><ele>598.0</ele><time>2026-04-28T07:41:39.998Z</time></trkpt><trkpt lat="39.97191664085982" lon="9.187650343473425"><ele>604.0</ele><time>2026-04-28T07:41:40.998Z</time></trkpt><trkpt lat="39.971771714801214" lon="9.187757796576228"><ele>604.6666666666667</ele><time>2026-04-28T07:41:41.998Z</time></trkpt><trkpt lat="39.971654321729844" lon="9.187892826230685"><ele>605.3333333333334</ele><time>2026-04-28T07:41:42.998Z</time></trkpt><trkpt lat="39.97156977606409" lon="9.188069469396904"><ele>606.0</ele><time>2026-04-28T07:41:43.998Z</time></trkpt><trkpt lat="39.97151427751644" lon="9.188270161438547"><ele>606.0</ele><time>2026-04-28T07:41:44.998Z</time></trkpt><trkpt lat="39.97149782502336" lon="9.188498843194672"><ele>606.0</ele><time>2026-04-28T07:41:45.998Z</time></trkpt><trkpt lat="39.97149964360836" lon="9.188739749670418"><ele>606.0</ele><time>2026-04-28T07:41:46.998Z</time></trkpt><trkpt lat="39.97149992028742" lon="9.188972572954922"><ele>608.75</ele><time>2026-04-28T07:41:47.998Z</time></trkpt><trkpt lat="39.97150487948665" lon="9.189169992590777"><ele>611.5</ele><time>2026-04-28T07:41:48.998Z</time></trkpt><trkpt lat="39.971484544229" lon="9.189312118270943"><ele>614.25</ele><time>2026-04-28T07:41:49.998Z</time></trkpt><trkpt lat="39.97141274375806" lon="9.189396655041934"><ele>617.0</ele><time>2026-04-28T07:41:50.998Z</time></trkpt><trkpt lat="39.97130548966984" lon="9.189407462583835"><ele>617.0</ele><time>2026-04-28T07:41:51.998Z</time></trkpt><trkpt lat="39.971197010532016" lon="9.189324651596793"><ele>617.0</ele><time>2026-04-28T07:41:52.998Z</time></trkpt><trkpt lat="39.9711028963547" lon="9.189181135592438"><ele>617.0</ele><time>2026-04-28T07:41:53.998Z</time></trkpt><trkpt lat="39.97101898265642" lon="9.189033049434938"><ele>617.0</ele><time>2026-04-28T07:41:54.998Z</time></trkpt><trkpt lat="39.97091149759468" lon="9.188917291193956"><ele>616.0</ele><time>2026-04-28T07:41:55.998Z</time></trkpt><trkpt lat="39.970784742144296" lon="9.188887256077667"><ele>615.0</ele><time>2026-04-28T07:41:56.998Z</time></trkpt><trkpt lat="39.97064455034402" lon="9.18894137606456"><ele>614.0</ele><time>2026-04-28T07:41:57.999Z</time></trkpt><trkpt lat="39.97051140765835" lon="9.189041929945262"><ele>613.0</ele><time>2026-04-28T07:41:58.999Z</time></trkpt><trkpt lat="39.97036774222969" lon="9.18913914781431"><ele>613.0</ele><time>2026-04-28T07:41:59.999Z</time></trkpt><trkpt lat="39.97021179294307" lon="9.189231607885352"><ele>613.0</ele><time>2026-04-28T07:42:00.999Z</time></trkpt><trkpt lat="39.97005365373229" lon="9.18929161053406"><ele>613.0</ele><time>2026-04-28T07:42:01.999Z</time></trkpt><trkpt lat="39.969879933433134" lon="9.18929544738517"><ele>612.6666666666667</ele><time>2026-04-28T07:42:02.999Z</time></trkpt><trkpt lat="39.96969642362359" lon="9.189252295289341"><ele>612.3333333333334</ele><time>2026-04-28T07:42:03.999Z</time></trkpt><trkpt lat="39.96952024810099" lon="9.189214991817147"><ele>612.0</ele><time>2026-04-28T07:42:04.999Z</time></trkpt><trkpt lat="39.969346093461105" lon="9.18920156953116"><ele>612.3333333333334</ele><time>2026-04-28T07:42:05.999Z</time></trkpt><trkpt lat="39.96917535089727" lon="9.189234262616456"><ele>612.6666666666667</ele><time>2026-04-28T07:42:06.999Z</time></trkpt><trkpt lat="39.969008941864146" lon="9.189322581468959"><ele>613.0</ele><time>2026-04-28T07:42:07.999Z</time></trkpt><trkpt lat="39.968855692415666" lon="9.189431312349106"><ele>613.0</ele><time>2026-04-28T07:42:08.999Z</time></trkpt><trkpt lat="39.96871607672818" lon="9.189579218748293"><ele>613.0</ele><time>2026-04-28T07:42:09.999Z</time></trkpt><trkpt lat="39.968581241559406" lon="9.189743002547115"><ele>613.0</ele><time>2026-04-28T07:42:10.999Z</time></trkpt><trkpt lat="39.968456631932476" lon="9.189920316122603"><ele>613.6666666666667</ele><time>2026-04-28T07:42:11.999Z</time></trkpt><trkpt lat="39.96834260157731" lon="9.19010017847109"><ele>614.3333333333334</ele><time>2026-04-28T07:42:12.999Z</time></trkpt><trkpt lat="39.96825830763948" lon="9.190287236438046"><ele>615.0</ele><time>2026-04-28T07:42:13.999Z</time></trkpt><trkpt lat="39.96820055193353" lon="9.190454607531755"><ele>615.0</ele><time>2026-04-28T07:42:14.999Z</time></trkpt><trkpt lat="39.96811577562912" lon="9.190575850596963"><ele>615.0</ele><time>2026-04-28T07:42:15.999Z</time></trkpt><trkpt lat="39.967997255137064" lon="9.190618590516083"><ele>615.0</ele><time>2026-04-28T07:42:16.999Z</time></trkpt><trkpt lat="39.967872565673176" lon="9.19057061631862"><ele>615.0</ele><time>2026-04-28T07:42:17.999Z</time></trkpt><trkpt lat="39.967762600565294" lon="9.190459179669213"><ele>615.0</ele><time>2026-04-28T07:42:18.999Z</time></trkpt><trkpt lat="39.9676580380672" lon="9.190315780537302"><ele>615.0</ele><time>2026-04-28T07:42:19.999Z</time></trkpt><trkpt lat="39.96753527509536" lon="9.190179314710571"><ele>615.0</ele><time>2026-04-28T07:42:20.999Z</time></trkpt><trkpt lat="39.96740581839335" lon="9.190082633523048"><ele>616.6666666666666</ele><time>2026-04-28T07:42:21.999Z</time></trkpt><trkpt lat="39.96724622028847" lon="9.190039701041497"><ele>618.3333333333333</ele><time>2026-04-28T07:42:22.999Z</time></trkpt><trkpt lat="39.9670795177576" lon="9.190016929914034"><ele>620.0</ele><time>2026-04-28T07:42:23.999Z</time></trkpt><trkpt lat="39.96692635662545" lon="9.189953098545306"><ele>617.6666666666666</ele><time>2026-04-28T07:42:24.999Z</time></trkpt><trkpt lat="39.966789049469014" lon="9.189822605459748"><ele>615.3333333333334</ele><time>2026-04-28T07:42:25.999Z</time></trkpt><trkpt lat="39.96665708693665" lon="9.189679280197062"><ele>613.0</ele><time>2026-04-28T07:42:26.999Z</time></trkpt><trkpt lat="39.96649453653798" lon="9.189599869284994"><ele>618.0</ele><time>2026-04-28T07:42:27.999Z</time></trkpt><trkpt lat="39.966321129158565" lon="9.189573662046966"><ele>623.0</ele><time>2026-04-28T07:42:28.999Z</time></trkpt><trkpt lat="39.966164819093954" lon="9.189561584202165"><ele>628.0</ele><time>2026-04-28T07:42:29.999Z</time></trkpt><trkpt lat="39.96603236047058" lon="9.18954677612695"><ele>628.0</ele><time>2026-04-28T07:42:30.999Z</time></trkpt><trkpt lat="39.96593704443538" lon="9.189501821569712"><ele>628.0</ele><time>2026-04-28T07:42:31.999Z</time></trkpt><trkpt lat="39.965880050613094" lon="9.189402479646276"><ele>628.0</ele><time>2026-04-28T07:42:32.999Z</time></trkpt><trkpt lat="39.96589091349909" lon="9.189285662553417"><ele>628.0</ele><time>2026-04-28T07:42:33.999Z</time></trkpt><trkpt lat="39.96596153892097" lon="9.189190564491563"><ele>628.0</ele><time>2026-04-28T07:42:34.999Z</time></trkpt><trkpt lat="39.96607519506273" lon="9.189110514673631"><ele>628.0</ele><time>2026-04-28T07:42:35.999Z</time></trkpt><trkpt lat="39.9662001970904" lon="9.189040348486865"><ele>628.0</ele><time>2026-04-28T07:42:36.999Z</time></trkpt><trkpt lat="39.96634228277478" lon="9.188991352831579"><ele>628.0</ele><time>2026-04-28T07:42:37.999Z</time></trkpt><trkpt lat="39.966493855925734" lon="9.188960203028127"><ele>628.0</ele><time>2026-04-28T07:42:38.999Z</time></trkpt><trkpt lat="39.9666362915607" lon="9.188911112272816"><ele>627.25</ele><time>2026-04-28T07:42:39.999Z</time></trkpt><trkpt lat="39.96674955144921" lon="9.188823421152055"><ele>626.5</ele><time>2026-04-28T07:42:40.999Z</time></trkpt><trkpt lat="39.966831539210496" lon="9.18866886420376"><ele>625.75</ele><time>2026-04-28T07:42:41.999Z</time></trkpt><trkpt lat="39.96688296113429" lon="9.18848222739633"><ele>625.0</ele><time>2026-04-28T07:42:42.999Z</time></trkpt><trkpt lat="39.966960949451035" lon="9.188295085079462"><ele>629.3333333333334</ele><time>2026-04-28T07:42:43.999Z</time></trkpt><trkpt lat="39.9670919238821" lon="9.188163992433712"><ele>633.6666666666666</ele><time>2026-04-28T07:42:44.999Z</time></trkpt><trkpt lat="39.96723458579631" lon="9.18805659592345"><ele>638.0</ele><time>2026-04-28T07:42:45.999Z</time></trkpt><trkpt lat="39.967389114740406" lon="9.187950178734274"><ele>638.0</ele><time>2026-04-28T07:42:46.999Z</time></trkpt><trkpt lat="39.96751499062802" lon="9.187805873769436"><ele>638.0</ele><time>2026-04-28T07:42:47.999Z</time></trkpt><trkpt lat="39.967609386401755" lon="9.187617405071022"><ele>638.0</ele><time>2026-04-28T07:42:48.999Z</time></trkpt><trkpt lat="39.96768187145099" lon="9.18740500286931"><ele>631.6666666666666</ele><time>2026-04-28T07:42:49.999Z</time></trkpt><trkpt lat="39.967738484122826" lon="9.187197997348015"><ele>625.3333333333334</ele><time>2026-04-28T07:42:50.999Z</time></trkpt><trkpt lat="39.967762950418674" lon="9.187009334043559"><ele>619.0</ele><time>2026-04-28T07:42:51.999Z</time></trkpt><trkpt lat="39.967735979849955" lon="9.186815033446052"><ele>619.0</ele><time>2026-04-28T07:42:52.999Z</time></trkpt><trkpt lat="39.9676397827685" lon="9.186649185854705"><ele>619.0</ele><time>2026-04-28T07:42:53.999Z</time></trkpt><trkpt lat="39.96749998702584" lon="9.18655846628768"><ele>619.0</ele><time>2026-04-28T07:42:54.999Z</time></trkpt><trkpt lat="39.967369586069964" lon="9.18658256090242"><ele>619.0</ele><time>2026-04-28T07:42:55.999Z</time></trkpt><trkpt lat="39.96724128880379" lon="9.186622787580323"><ele>621.4</ele><time>2026-04-28T07:42:56.999Z</time></trkpt><trkpt lat="39.967132996787186" lon="9.186669089418302"><ele>623.8</ele><time>2026-04-28T07:42:57.999Z</time></trkpt><trkpt lat="39.96700779882028" lon="9.186669434072181"><ele>626.2</ele><time>2026-04-28T07:42:58.999Z</time></trkpt><trkpt lat="39.96692197959124" lon="9.186612056638262"><ele>628.6</ele><time>2026-04-28T07:42:59.999Z</time></trkpt><trkpt lat="39.9668627479719" lon="9.186504445878917"><ele>631.0</ele><time>2026-04-28T07:43:00.999Z</time></trkpt><trkpt lat="39.96685225300195" lon="9.186372926108277"><ele>631.0</ele><time>2026-04-28T07:43:01.999Z</time></trkpt><trkpt lat="39.966898011175466" lon="9.186269073849251"><ele>631.0</ele><time>2026-04-28T07:43:02.999Z</time></trkpt><trkpt lat="39.96691238662465" lon="9.186140948700917"><ele>631.0</ele><time>2026-04-28T07:43:03.999Z</time></trkpt><trkpt lat="39.96689829702953" lon="9.186024418409325"><ele>631.0</ele><time>2026-04-28T07:43:04.999Z</time></trkpt><trkpt lat="39.966873040153985" lon="9.185931873889908"><ele>631.0</ele><time>2026-04-28T07:43:05.999Z</time></trkpt><trkpt lat="39.96681837255713" lon="9.18583668568532"><ele>631.0</ele><time>2026-04-28T07:43:06.999Z</time></trkpt><trkpt lat="39.96674044773518" lon="9.18575431199051"><ele>633.8</ele><time>2026-04-28T07:43:07.999Z</time></trkpt><trkpt lat="39.966666636785135" lon="9.185666871686264"><ele>636.6</ele><time>2026-04-28T07:43:08.999Z</time></trkpt><trkpt lat="39.9666230652407" lon="9.185538099152392"><ele>639.4</ele><time>2026-04-28T07:43:09.999Z</time></trkpt><trkpt lat="39.96660448057109" lon="9.185396190998866"><ele>642.2</ele><time>2026-04-28T07:43:10.999Z</time></trkpt><trkpt lat="39.96656976517658" lon="9.185255443581175"><ele>645.0</ele><time>2026-04-28T07:43:11.998Z</time></trkpt><trkpt lat="39.966521014213015" lon="9.185120329416788"><ele>645.0</ele><time>2026-04-28T07:43:12.998Z</time></trkpt><trkpt lat="39.96645537848375" lon="9.18499248293826"><ele>645.0</ele><time>2026-04-28T07:43:13.998Z</time></trkpt><trkpt lat="39.9663943525919" lon="9.184862828865326"><ele>645.0</ele><time>2026-04-28T07:43:14.998Z</time></trkpt><trkpt lat="39.96633166472013" lon="9.184738308698314"><ele>645.0</ele><time>2026-04-28T07:43:15.998Z</time></trkpt><trkpt lat="39.96626022812174" lon="9.18462806299746"><ele>645.0</ele><time>2026-04-28T07:43:16.998Z</time></trkpt><trkpt lat="39.96617951191521" lon="9.184533542940127"><ele>645.0</ele><time>2026-04-28T07:43:17.998Z</time></trkpt><trkpt lat="39.966086021722084" lon="9.184455247166735"><ele>645.0</ele><time>2026-04-28T07:43:18.998Z</time></trkpt><trkpt lat="39.96598983113412" lon="9.18438422513552"><ele>645.0</ele><time>2026-04-28T07:43:19.998Z</time></trkpt><trkpt lat="39.96589216401094" lon="9.184315064375197"><ele>645.0</ele><time>2026-04-28T07:43:20.998Z</time></trkpt><trkpt lat="39.965790282726104" lon="9.184258616166074"><ele>645.0</ele><time>2026-04-28T07:43:21.998Z</time></trkpt><trkpt lat="39.96568433049173" lon="9.184205560079022"><ele>645.0</ele><time>2026-04-28T07:43:22.998Z</time></trkpt><trkpt lat="39.96557179618692" lon="9.18417996193404"><ele>645.0</ele><time>2026-04-28T07:43:23.998Z</time></trkpt><trkpt lat="39.965453183695004" lon="9.184196000807518"><ele>645.0</ele><time>2026-04-28T07:43:24.998Z</time></trkpt><trkpt lat="39.96534236135608" lon="9.184232586019842"><ele>645.0</ele><time>2026-04-28T07:43:25.998Z</time></trkpt><trkpt lat="39.965227103135184" lon="9.184274355670219"><ele>645.0</ele><time>2026-04-28T07:43:26.998Z</time></trkpt><trkpt lat="39.9651039818277" lon="9.184301679776308"><ele>645.0</ele><time>2026-04-28T07:43:27.998Z</time></trkpt><trkpt lat="39.96498968892288" lon="9.184318404915668"><ele>645.0</ele><time>2026-04-28T07:43:28.998Z</time></trkpt><trkpt lat="39.964874489935994" lon="9.184308763300134"><ele>646.2</ele><time>2026-04-28T07:43:29.998Z</time></trkpt><trkpt lat="39.96477033895751" lon="9.184273421996815"><ele>647.4</ele><time>2026-04-28T07:43:30.998Z</time></trkpt><trkpt lat="39.96465779495814" lon="9.184234564153728"><ele>648.5999999999999</ele><time>2026-04-28T07:43:31.998Z</time></trkpt><trkpt lat="39.96455864427312" lon="9.184232922494898"><ele>649.8</ele><time>2026-04-28T07:43:32.998Z</time></trkpt><trkpt lat="39.964454703287466" lon="9.184282520970688"><ele>651.0</ele><time>2026-04-28T07:43:33.998Z</time></trkpt><trkpt lat="39.96435689604385" lon="9.184339686981904"><ele>651.0</ele><time>2026-04-28T07:43:34.998Z</time></trkpt><trkpt lat="39.96425769152087" lon="9.18436633365026"><ele>651.0</ele><time>2026-04-28T07:43:35.998Z</time></trkpt><trkpt lat="39.96415369443446" lon="9.184355393388126"><ele>651.0</ele><time>2026-04-28T07:43:36.998Z</time></trkpt><trkpt lat="39.96405259290367" lon="9.184318420235662"><ele>651.0</ele><time>2026-04-28T07:43:37.998Z</time></trkpt><trkpt lat="39.963963195071194" lon="9.184280994130782"><ele>651.0</ele><time>2026-04-28T07:43:38.998Z</time></trkpt><trkpt lat="39.96387935312235" lon="9.184252362374595"><ele>652.0</ele><time>2026-04-28T07:43:39.998Z</time></trkpt><trkpt lat="39.96381297841619" lon="9.184264935271253"><ele>652.0</ele><time>2026-04-28T07:43:40.998Z</time></trkpt><trkpt lat="39.96371642069886" lon="9.184292070065347"><ele>652.0</ele><time>2026-04-28T07:43:42.998Z</time></trkpt><trkpt lat="39.96363939583138" lon="9.1842771687745"><ele>652.0</ele><time>2026-04-28T07:43:44.998Z</time></trkpt><trkpt lat="39.963569247900764" lon="9.18427844479726"><ele>652.0</ele><time>2026-04-28T07:43:47.998Z</time></trkpt></trkseg><trkseg><trkpt lat="39.96360285777526" lon="9.184328627128572"><ele>652.0</ele><time>2026-04-28T08:12:18.997Z</time></trkpt><trkpt lat="39.96348582684541" lon="9.184347409310115"><ele>652.0</ele><time>2026-04-28T08:12:30.998Z</time></trkpt><trkpt lat="39.9633663470515" lon="9.184351819175205"><ele>652.0</ele><time>2026-04-28T08:12:32.998Z</time></trkpt><trkpt lat="39.963286044492996" lon="9.18435153812796"><ele>652.0</ele><time>2026-04-28T08:12:33.997Z</time></trkpt><trkpt lat="39.963160894665904" lon="9.18441149411378"><ele>651.6</ele><time>2026-04-28T08:12:35.997Z</time></trkpt><trkpt lat="39.96308510905027" lon="9.184485560632778"><ele>651.2</ele><time>2026-04-28T08:12:36.997Z</time></trkpt><trkpt lat="39.96301819594937" lon="9.184564988041531"><ele>650.8</ele><time>2026-04-28T08:12:37.997Z</time></trkpt><trkpt lat="39.96295892759322" lon="9.184656727099783"><ele>650.4</ele><time>2026-04-28T08:12:38.997Z</time></trkpt><trkpt lat="39.962884791718174" lon="9.184741315042633"><ele>650.0</ele><time>2026-04-28T08:12:39.997Z</time></trkpt><trkpt lat="39.962810444453666" lon="9.184817110580578"><ele>653.2</ele><time>2026-04-28T08:12:40.997Z</time></trkpt><trkpt lat="39.96271562878186" lon="9.184864013591412"><ele>656.4</ele><time>2026-04-28T08:12:41.997Z</time></trkpt><trkpt lat="39.962626113002564" lon="9.184905053224789"><ele>659.5999999999999</ele><time>2026-04-28T08:12:42.997Z</time></trkpt><trkpt lat="39.962528274741246" lon="9.184934561530103"><ele>662.8</ele><time>2026-04-28T08:12:43.997Z</time></trkpt><trkpt lat="39.96242139550318" lon="9.184957278210755"><ele>666.0</ele><time>2026-04-28T08:12:44.997Z</time></trkpt><trkpt lat="39.96231226766877" lon="9.184965507397816"><ele>666.0</ele><time>2026-04-28T08:12:45.997Z</time></trkpt><trkpt lat="39.96221249293333" lon="9.184959677022857"><ele>666.0</ele><time>2026-04-28T08:12:46.997Z</time></trkpt><trkpt lat="39.96211249613609" lon="9.184954263960087"><ele>666.0</ele><time>2026-04-28T08:12:47.997Z</time></trkpt><trkpt lat="39.96201164449119" lon="9.18496607095736"><ele>666.0</ele><time>2026-04-28T08:12:48.997Z</time></trkpt><trkpt lat="39.96191812089855" lon="9.184967568889514"><ele>666.0</ele><time>2026-04-28T08:12:49.997Z</time></trkpt><trkpt lat="39.961820152069436" lon="9.184959805846972"><ele>666.0</ele><time>2026-04-28T08:12:50.997Z</time></trkpt><trkpt lat="39.96171704971598" lon="9.184947701154782"><ele>666.0</ele><time>2026-04-28T08:12:51.997Z</time></trkpt><trkpt lat="39.96163250315824" lon="9.184935617966383"><ele>666.0</ele><time>2026-04-28T08:12:52.997Z</time></trkpt><trkpt lat="39.961569705824274" lon="9.184902943691554"><ele>666.0</ele><time>2026-04-28T08:12:53.997Z</time></trkpt><trkpt lat="39.961505954315314" lon="9.184849127746258"><ele>666.0</ele><time>2026-04-28T08:12:54.997Z</time></trkpt><trkpt lat="39.96143878780313" lon="9.184814551511693"><ele>666.0</ele><time>2026-04-28T08:12:55.997Z</time></trkpt><trkpt lat="39.96133712579602" lon="9.184749811863426"><ele>663.5</ele><time>2026-04-28T08:12:57.997Z</time></trkpt><trkpt lat="39.96126243694196" lon="9.184711435973936"><ele>661.0</ele><time>2026-04-28T08:12:59.997Z</time></trkpt><trkpt lat="39.96118827278907" lon="9.184708583469112"><ele>658.5</ele><time>2026-04-28T08:13:05.997Z</time></trkpt><trkpt lat="39.96114194073949" lon="9.184643994365288"><ele>656.0</ele><time>2026-04-28T08:13:11.997Z</time></trkpt><trkpt lat="39.96108248481711" lon="9.184597356840007"><ele>653.5</ele><time>2026-04-28T08:13:12.997Z</time></trkpt><trkpt lat="39.96099519163112" lon="9.184543907725262"><ele>651.0</ele><time>2026-04-28T08:13:14.997Z</time></trkpt><trkpt lat="39.9609370961372" lon="9.184509912344279"><ele>653.1999999999999</ele><time>2026-04-28T08:13:18.997Z</time></trkpt><trkpt lat="39.960838586934415" lon="9.1844455442135"><ele>655.4</ele><time>2026-04-28T08:13:22.997Z</time></trkpt><trkpt lat="39.960745525328356" lon="9.18439487765993"><ele>657.6</ele><time>2026-04-28T08:13:24.997Z</time></trkpt><trkpt lat="39.9606406297047" lon="9.184364017207015"><ele>659.8</ele><time>2026-04-28T08:13:26.997Z</time></trkpt><trkpt lat="39.96052713193056" lon="9.18433232160943"><ele>662.0</ele><time>2026-04-28T08:13:28.997Z</time></trkpt><trkpt lat="39.9604143234185" lon="9.184329304400222"><ele>662.0</ele><time>2026-04-28T08:13:30.997Z</time></trkpt><trkpt lat="39.960291038210684" lon="9.184294811997384"><ele>662.0</ele><time>2026-04-28T08:13:32.997Z</time></trkpt><trkpt lat="39.96023081701309" lon="9.184259595736066"><ele>662.0</ele><time>2026-04-28T08:13:33.997Z</time></trkpt><trkpt lat="39.96015559808076" lon="9.184194225417334"><ele>662.0</ele><time>2026-04-28T08:13:35.997Z</time></trkpt><trkpt lat="39.960113369781276" lon="9.184066848645765"><ele>662.0</ele><time>2026-04-28T08:13:37.997Z</time></trkpt><trkpt lat="39.96003328599797" lon="9.183955674884492"><ele>661.8333333333333</ele><time>2026-04-28T08:13:39.997Z</time></trkpt><trkpt lat="39.95996107564876" lon="9.183846608551603"><ele>661.6666666666666</ele><time>2026-04-28T08:13:41.996Z</time></trkpt><trkpt lat="39.95991553429743" lon="9.18378800250246"><ele>661.5</ele><time>2026-04-28T08:13:42.996Z</time></trkpt><trkpt lat="39.95981919061907" lon="9.183707186065272"><ele>661.3333333333334</ele><time>2026-04-28T08:13:44.996Z</time></trkpt><trkpt lat="39.95975014263301" lon="9.18367272144944"><ele>661.1666666666667</ele><time>2026-04-28T08:13:45.996Z</time></trkpt><trkpt lat="39.9596766578451" lon="9.183636706518117"><ele>661.0</ele><time>2026-04-28T08:13:46.996Z</time></trkpt><trkpt lat="39.95961128149781" lon="9.18360412654387"><ele>661.0</ele><time>2026-04-28T08:13:47.996Z</time></trkpt><trkpt lat="39.95954093769631" lon="9.183573969896655"><ele>661.0</ele><time>2026-04-28T08:13:48.996Z</time></trkpt><trkpt lat="39.959461948302746" lon="9.183541083303554"><ele>661.0</ele><time>2026-04-28T08:13:49.996Z</time></trkpt><trkpt lat="39.959386833134005" lon="9.183503965533943"><ele>661.0</ele><time>2026-04-28T08:13:50.996Z</time></trkpt><trkpt lat="39.95931517985244" lon="9.183453012042532"><ele>661.0</ele><time>2026-04-28T08:13:51.996Z</time></trkpt><trkpt lat="39.95924847458547" lon="9.183407383608749"><ele>661.0</ele><time>2026-04-28T08:13:52.996Z</time></trkpt><trkpt lat="39.95917121577279" lon="9.183364874536352"><ele>663.3333333333334</ele><time>2026-04-28T08:13:53.996Z</time></trkpt><trkpt lat="39.95909443982962" lon="9.183331967353752"><ele>665.6666666666667</ele><time>2026-04-28T08:13:54.996Z</time></trkpt><trkpt lat="39.95901010492557" lon="9.183320614725812"><ele>668.0</ele><time>2026-04-28T08:13:55.996Z</time></trkpt><trkpt lat="39.958917564076984" lon="9.18332565672105"><ele>670.3333333333334</ele><time>2026-04-28T08:13:56.996Z</time></trkpt><trkpt lat="39.95882712373419" lon="9.18332891935857"><ele>672.6666666666666</ele><time>2026-04-28T08:13:57.996Z</time></trkpt><trkpt lat="39.95873909442413" lon="9.183322210131355"><ele>675.0</ele><time>2026-04-28T08:13:58.996Z</time></trkpt><trkpt lat="39.95864683857838" lon="9.183293939274519"><ele>675.0</ele><time>2026-04-28T08:13:59.996Z</time></trkpt><trkpt lat="39.95855803134104" lon="9.183264628884274"><ele>675.0</ele><time>2026-04-28T08:14:00.996Z</time></trkpt><trkpt lat="39.95847414213705" lon="9.183226885597149"><ele>675.0</ele><time>2026-04-28T08:14:01.996Z</time></trkpt><trkpt lat="39.958388819331546" lon="9.183188696691413"><ele>675.0</ele><time>2026-04-28T08:14:02.996Z</time></trkpt><trkpt lat="39.9583003486541" lon="9.18313506827354"><ele>675.0</ele><time>2026-04-28T08:14:03.996Z</time></trkpt><trkpt lat="39.95822160233119" lon="9.18305975497033"><ele>674.6</ele><time>2026-04-28T08:14:04.996Z</time></trkpt><trkpt lat="39.95815618081384" lon="9.182965338470606"><ele>674.2</ele><time>2026-04-28T08:14:05.996Z</time></trkpt><trkpt lat="39.95809521362657" lon="9.1828610570013"><ele>673.8</ele><time>2026-04-28T08:14:06.996Z</time></trkpt><trkpt lat="39.958025714228974" lon="9.182780301500019"><ele>673.4</ele><time>2026-04-28T08:14:07.996Z</time></trkpt><trkpt lat="39.95794140987264" lon="9.182721216198587"><ele>673.0</ele><time>2026-04-28T08:14:08.996Z</time></trkpt><trkpt lat="39.95784740687868" lon="9.182652207706454"><ele>673.0</ele><time>2026-04-28T08:14:09.996Z</time></trkpt><trkpt lat="39.95776976502754" lon="9.182573520803901"><ele>673.0</ele><time>2026-04-28T08:14:10.996Z</time></trkpt><trkpt lat="39.957704718889794" lon="9.182475398388735"><ele>673.0</ele><time>2026-04-28T08:14:11.996Z</time></trkpt><trkpt lat="39.95765561521446" lon="9.182374227981345"><ele>673.0</ele><time>2026-04-28T08:14:12.996Z</time></trkpt><trkpt lat="39.95762354978337" lon="9.1822453908782"><ele>673.0</ele><time>2026-04-28T08:14:13.997Z</time></trkpt><trkpt lat="39.9575816916504" lon="9.182131250658815"><ele>670.8</ele><time>2026-04-28T08:14:14.997Z</time></trkpt><trkpt lat="39.95754739355355" lon="9.182010523818109"><ele>668.5999999999999</ele><time>2026-04-28T08:14:15.997Z</time></trkpt><trkpt lat="39.957477145275746" lon="9.181917996205724"><ele>666.4000000000001</ele><time>2026-04-28T08:14:16.997Z</time></trkpt><trkpt lat="39.957397221160925" lon="9.181840817593015"><ele>664.2</ele><time>2026-04-28T08:14:17.997Z</time></trkpt><trkpt lat="39.957305828036944" lon="9.181789299790225"><ele>662.0</ele><time>2026-04-28T08:14:18.997Z</time></trkpt><trkpt lat="39.95720730914756" lon="9.181786627778237"><ele>667.0</ele><time>2026-04-28T08:14:19.997Z</time></trkpt><trkpt lat="39.957111087591954" lon="9.181826883404483"><ele>672.0</ele><time>2026-04-28T08:14:20.997Z</time></trkpt><trkpt lat="39.95702297526593" lon="9.181893521545174"><ele>677.0</ele><time>2026-04-28T08:14:21.997Z</time></trkpt><trkpt lat="39.9569407350323" lon="9.18196991243137"><ele>682.0</ele><time>2026-04-28T08:14:22.996Z</time></trkpt><trkpt lat="39.95684871360751" lon="9.182042451982587"><ele>687.0</ele><time>2026-04-28T08:14:23.996Z</time></trkpt><trkpt lat="39.95674969162967" lon="9.182132561277033"><ele>686.5</ele><time>2026-04-28T08:14:24.996Z</time></trkpt><trkpt lat="39.956649225112066" lon="9.182217562823887"><ele>686.0</ele><time>2026-04-28T08:14:25.997Z</time></trkpt><trkpt lat="39.956546829769536" lon="9.182303536395269"><ele>685.5</ele><time>2026-04-28T08:14:26.997Z</time></trkpt><trkpt lat="39.95645699701201" lon="9.182413558996998"><ele>685.0</ele><time>2026-04-28T08:14:27.996Z</time></trkpt><trkpt lat="39.956398885671284" lon="9.182578151646009"><ele>688.5</ele><time>2026-04-28T08:14:28.996Z</time></trkpt><trkpt lat="39.95637924479331" lon="9.18275099624413"><ele>692.0</ele><time>2026-04-28T08:14:29.996Z</time></trkpt><trkpt lat="39.95644678116009" lon="9.18293184410271"><ele>695.5</ele><time>2026-04-28T08:14:30.996Z</time></trkpt><trkpt lat="39.9565237231506" lon="9.183106220174633"><ele>699.0</ele><time>2026-04-28T08:14:31.996Z</time></trkpt><trkpt lat="39.95655044929066" lon="9.183321009303816"><ele>701.6666666666666</ele><time>2026-04-28T08:14:32.996Z</time></trkpt><trkpt lat="39.95653702281474" lon="9.183543229329503"><ele>704.3333333333333</ele><time>2026-04-28T08:14:33.996Z</time></trkpt><trkpt lat="39.95648517625756" lon="9.183734411105013"><ele>707.0</ele><time>2026-04-28T08:14:34.996Z</time></trkpt><trkpt lat="39.95639107329154" lon="9.183903553113584"><ele>711.0</ele><time>2026-04-28T08:14:35.996Z</time></trkpt><trkpt lat="39.956254970920874" lon="9.184025172478444"><ele>715.0</ele><time>2026-04-28T08:14:36.996Z</time></trkpt><trkpt lat="39.95610620682723" lon="9.184121532856324"><ele>719.0</ele><time>2026-04-28T08:14:37.996Z</time></trkpt><trkpt lat="39.95599114194173" lon="9.184257309373386"><ele>719.0</ele><time>2026-04-28T08:14:38.996Z</time></trkpt><trkpt lat="39.95590910769852" lon="9.184464593395472"><ele>719.0</ele><time>2026-04-28T08:14:39.996Z</time></trkpt><trkpt lat="39.95587354792204" lon="9.18468938254013"><ele>719.0</ele><time>2026-04-28T08:14:40.996Z</time></trkpt><trkpt lat="39.955909757567234" lon="9.184918661438829"><ele>723.6666666666666</ele><time>2026-04-28T08:14:41.996Z</time></trkpt><trkpt lat="39.95597747611909" lon="9.185143216810063"><ele>728.3333333333334</ele><time>2026-04-28T08:14:42.996Z</time></trkpt><trkpt lat="39.95600452364788" lon="9.185376290531389"><ele>733.0</ele><time>2026-04-28T08:14:43.996Z</time></trkpt><trkpt lat="39.9560042927635" lon="9.185611326203789"><ele>735.3333333333334</ele><time>2026-04-28T08:14:44.996Z</time></trkpt><trkpt lat="39.95604867854303" lon="9.185838982270672"><ele>737.6666666666666</ele><time>2026-04-28T08:14:45.996Z</time></trkpt><trkpt lat="39.95613744755829" lon="9.18602913169375"><ele>740.0</ele><time>2026-04-28T08:14:46.996Z</time></trkpt><trkpt lat="39.95617203761586" lon="9.186202110469898"><ele>740.0</ele><time>2026-04-28T08:14:47.996Z</time></trkpt><trkpt lat="39.95613332181175" lon="9.18640801067575"><ele>740.0</ele><time>2026-04-28T08:14:48.996Z</time></trkpt><trkpt lat="39.956055151215246" lon="9.18659297210557"><ele>740.0</ele><time>2026-04-28T08:14:49.996Z</time></trkpt><trkpt lat="39.955998983811114" lon="9.186787362916888"><ele>740.6666666666666</ele><time>2026-04-28T08:14:50.996Z</time></trkpt><trkpt lat="39.95597217813848" lon="9.186993971633225"><ele>741.3333333333334</ele><time>2026-04-28T08:14:51.996Z</time></trkpt><trkpt lat="39.95598840807561" lon="9.18721189229682"><ele>742.0</ele><time>2026-04-28T08:14:52.996Z</time></trkpt><trkpt lat="39.9560603936078" lon="9.18742873292265"><ele>742.6666666666667</ele><time>2026-04-28T08:14:53.996Z</time></trkpt><trkpt lat="39.95612755147175" lon="9.18762763171645"><ele>743.3333333333334</ele><time>2026-04-28T08:14:54.996Z</time></trkpt><trkpt lat="39.95619294687352" lon="9.187836842318701"><ele>744.0</ele><time>2026-04-28T08:14:55.996Z</time></trkpt><trkpt lat="39.95624175125377" lon="9.188053327488547"><ele>744.0</ele><time>2026-04-28T08:14:56.996Z</time></trkpt><trkpt lat="39.95627349413598" lon="9.188282234674476"><ele>744.0</ele><time>2026-04-28T08:14:57.996Z</time></trkpt><trkpt lat="39.95629008892634" lon="9.188515420539684"><ele>744.0</ele><time>2026-04-28T08:14:58.996Z</time></trkpt><trkpt lat="39.956299924723744" lon="9.188746029922392"><ele>744.0</ele><time>2026-04-28T08:14:59.996Z</time></trkpt><trkpt lat="39.95630507051519" lon="9.188976065391193"><ele>744.0</ele><time>2026-04-28T08:15:00.996Z</time></trkpt><trkpt lat="39.956308388245084" lon="9.189207251727648"><ele>744.0</ele><time>2026-04-28T08:15:01.996Z</time></trkpt><trkpt lat="39.956309346401454" lon="9.189431138989193"><ele>744.0</ele><time>2026-04-28T08:15:02.996Z</time></trkpt><trkpt lat="39.956326557203475" lon="9.189649890486663"><ele>744.0</ele><time>2026-04-28T08:15:03.996Z</time></trkpt><trkpt lat="39.95636599952513" lon="9.189866075190103"><ele>744.0</ele><time>2026-04-28T08:15:04.996Z</time></trkpt><trkpt lat="39.95644137980825" lon="9.190066730477994"><ele>744.0</ele><time>2026-04-28T08:15:05.996Z</time></trkpt><trkpt lat="39.956470316754775" lon="9.190277646191406"><ele>744.0</ele><time>2026-04-28T08:15:06.996Z</time></trkpt><trkpt lat="39.95648932567258" lon="9.190465336028629"><ele>744.0</ele><time>2026-04-28T08:15:07.996Z</time></trkpt><trkpt lat="39.95654726023579" lon="9.190615598671688"><ele>744.0</ele><time>2026-04-28T08:15:08.996Z</time></trkpt><trkpt lat="39.95665245841632" lon="9.190738523464464"><ele>742.75</ele><time>2026-04-28T08:15:09.996Z</time></trkpt><trkpt lat="39.9566935665217" lon="9.190866528405673"><ele>741.5</ele><time>2026-04-28T08:15:10.996Z</time></trkpt><trkpt lat="39.95665079552721" lon="9.191021177788967"><ele>740.25</ele><time>2026-04-28T08:15:11.996Z</time></trkpt><trkpt lat="39.95657425725295" lon="9.19116410729355"><ele>739.0</ele><time>2026-04-28T08:15:12.996Z</time></trkpt><trkpt lat="39.95653799046494" lon="9.191335829007016"><ele>738.0</ele><time>2026-04-28T08:15:13.996Z</time></trkpt><trkpt lat="39.95656261554604" lon="9.191515182270951"><ele>737.0</ele><time>2026-04-28T08:15:14.996Z</time></trkpt><trkpt lat="39.95664685963263" lon="9.191660311709544"><ele>736.0</ele><time>2026-04-28T08:15:15.996Z</time></trkpt><trkpt lat="39.956786773287625" lon="9.191754263755461"><ele>735.0</ele><time>2026-04-28T08:15:16.996Z</time></trkpt><trkpt lat="39.95695874485309" lon="9.191795523352578"><ele>743.6666666666666</ele><time>2026-04-28T08:15:17.996Z</time></trkpt><trkpt lat="39.957086013003924" lon="9.191890129970146"><ele>752.3333333333333</ele><time>2026-04-28T08:15:18.996Z</time></trkpt><trkpt lat="39.95719432264372" lon="9.192057030318812"><ele>761.0</ele><time>2026-04-28T08:15:19.996Z</time></trkpt><trkpt lat="39.95726213549095" lon="9.192251695384353"><ele>758.6666666666666</ele><time>2026-04-28T08:15:20.996Z</time></trkpt><trkpt lat="39.95731660557759" lon="9.19245503567346"><ele>756.3333333333334</ele><time>2026-04-28T08:15:21.996Z</time></trkpt><trkpt lat="39.957370752365456" lon="9.192656501218835"><ele>754.0</ele><time>2026-04-28T08:15:22.996Z</time></trkpt><trkpt lat="39.95743764238562" lon="9.19284886205197"><ele>754.0</ele><time>2026-04-28T08:15:23.996Z</time></trkpt><trkpt lat="39.9575170227345" lon="9.193044912814887"><ele>754.0</ele><time>2026-04-28T08:15:24.996Z</time></trkpt><trkpt lat="39.957619918836265" lon="9.193220330415805"><ele>754.0</ele><time>2026-04-28T08:15:25.996Z</time></trkpt><trkpt lat="39.95774580541341" lon="9.193360496394304"><ele>760.3333333333334</ele><time>2026-04-28T08:15:26.996Z</time></trkpt><trkpt lat="39.95789022094351" lon="9.193490933436674"><ele>766.6666666666667</ele><time>2026-04-28T08:15:27.996Z</time></trkpt><trkpt lat="39.958034593740216" lon="9.193621210520634"><ele>773.0</ele><time>2026-04-28T08:15:28.996Z</time></trkpt><trkpt lat="39.95816547498162" lon="9.193766858767487"><ele>773.0</ele><time>2026-04-28T08:15:29.996Z</time></trkpt><trkpt lat="39.95829369931525" lon="9.193916709884578"><ele>773.0</ele><time>2026-04-28T08:15:30.996Z</time></trkpt><trkpt lat="39.95843223158684" lon="9.194061460975853"><ele>773.0</ele><time>2026-04-28T08:15:31.996Z</time></trkpt><trkpt lat="39.958562862562886" lon="9.194201592566863"><ele>776.0</ele><time>2026-04-28T08:15:32.996Z</time></trkpt><trkpt lat="39.95867926105039" lon="9.194331033096793"><ele>779.0</ele><time>2026-04-28T08:15:33.996Z</time></trkpt><trkpt lat="39.958787027495404" lon="9.194465047887126"><ele>782.0</ele><time>2026-04-28T08:15:34.995Z</time></trkpt><trkpt lat="39.958896110024845" lon="9.194597190606943"><ele>782.0</ele><time>2026-04-28T08:15:35.995Z</time></trkpt><trkpt lat="39.95900473758593" lon="9.194735225309076"><ele>782.0</ele><time>2026-04-28T08:15:36.995Z</time></trkpt><trkpt lat="39.95909478622467" lon="9.194878198644918"><ele>782.0</ele><time>2026-04-28T08:15:37.995Z</time></trkpt><trkpt lat="39.959166356180496" lon="9.195029756749747"><ele>782.0</ele><time>2026-04-28T08:15:38.995Z</time></trkpt><trkpt lat="39.95924275916626" lon="9.19516424043921"><ele>784.0</ele><time>2026-04-28T08:15:39.995Z</time></trkpt><trkpt lat="39.95933053849442" lon="9.195285314434555"><ele>786.0</ele><time>2026-04-28T08:15:40.995Z</time></trkpt><trkpt lat="39.95942379678025" lon="9.195398076312106"><ele>788.0</ele><time>2026-04-28T08:15:41.995Z</time></trkpt><trkpt lat="39.959513132429926" lon="9.195528168273308"><ele>790.0</ele><time>2026-04-28T08:15:42.995Z</time></trkpt><trkpt lat="39.95959454880149" lon="9.195665304926376"><ele>789.0</ele><time>2026-04-28T08:15:43.995Z</time></trkpt><trkpt lat="39.95966367554823" lon="9.195821683256714"><ele>788.0</ele><time>2026-04-28T08:15:44.995Z</time></trkpt><trkpt lat="39.9597040230608" lon="9.195988538406393"><ele>787.0</ele><time>2026-04-28T08:15:45.995Z</time></trkpt><trkpt lat="39.959701999006576" lon="9.196162609747542"><ele>786.0</ele><time>2026-04-28T08:15:46.995Z</time></trkpt><trkpt lat="39.959660624885224" lon="9.1963321035404"><ele>786.0</ele><time>2026-04-28T08:15:47.995Z</time></trkpt><trkpt lat="39.9595794070988" lon="9.19647631332008"><ele>786.0</ele><time>2026-04-28T08:15:48.995Z</time></trkpt><trkpt lat="39.959499440039664" lon="9.19661471801736"><ele>786.0</ele><time>2026-04-28T08:15:49.995Z</time></trkpt><trkpt lat="39.95941879316575" lon="9.196756203446888"><ele>786.0</ele><time>2026-04-28T08:15:50.995Z</time></trkpt><trkpt lat="39.95934562848702" lon="9.196898676252358"><ele>786.5</ele><time>2026-04-28T08:15:51.995Z</time></trkpt><trkpt lat="39.959272550543396" lon="9.197035044464739"><ele>787.0</ele><time>2026-04-28T08:15:52.995Z</time></trkpt><trkpt lat="39.95919492147334" lon="9.197167920396023"><ele>787.5</ele><time>2026-04-28T08:15:53.995Z</time></trkpt><trkpt lat="39.95912126161305" lon="9.197285191752245"><ele>788.0</ele><time>2026-04-28T08:15:54.995Z</time></trkpt><trkpt lat="39.959046050912015" lon="9.197385262728375"><ele>788.0</ele><time>2026-04-28T08:15:55.995Z</time></trkpt><trkpt lat="39.958967073516035" lon="9.197459230090791"><ele>788.0</ele><time>2026-04-28T08:15:56.995Z</time></trkpt><trkpt lat="39.958885371383104" lon="9.197505485649113"><ele>788.0</ele><time>2026-04-28T08:15:57.995Z</time></trkpt><trkpt lat="39.95879247026917" lon="9.197513110646405"><ele>788.0</ele><time>2026-04-28T08:15:58.995Z</time></trkpt><trkpt lat="39.95869711637981" lon="9.197487490149763"><ele>788.0</ele><time>2026-04-28T08:15:59.995Z</time></trkpt><trkpt lat="39.958612884952316" lon="9.197427583992086"><ele>788.0000000000001</ele><time>2026-04-28T08:16:00.995Z</time></trkpt><trkpt lat="39.958533631719206" lon="9.19733889271426"><ele>788.0</ele><time>2026-04-28T08:16:01.995Z</time></trkpt><trkpt lat="39.958463647737474" lon="9.19723769043889"><ele>788.0</ele><time>2026-04-28T08:16:02.995Z</time></trkpt><trkpt lat="39.95840094790589" lon="9.197164118695527"><ele>788.0</ele><time>2026-04-28T08:16:03.995Z</time></trkpt><trkpt lat="39.95836752767693" lon="9.197080128626858"><ele>788.0000000000001</ele><time>2026-04-28T08:16:05.995Z</time></trkpt><trkpt lat="39.95830097662989" lon="9.197044931374595"><ele>788.0</ele><time>2026-04-28T08:16:10.995Z</time></trkpt><trkpt lat="39.9582154946853" lon="9.197002042103954"><ele>786.8333333333334</ele><time>2026-04-28T08:16:15.995Z</time></trkpt><trkpt lat="39.9581664919912" lon="9.196938425073824"><ele>785.6666666666667</ele><time>2026-04-28T08:16:16.995Z</time></trkpt><trkpt lat="39.95810975814868" lon="9.19686907543863"><ele>784.5</ele><time>2026-04-28T08:16:17.995Z</time></trkpt><trkpt lat="39.95804138749159" lon="9.196793402275489"><ele>783.3333333333333</ele><time>2026-04-28T08:16:18.995Z</time></trkpt><trkpt lat="39.95797053878914" lon="9.196721857947825"><ele>782.1666666666666</ele><time>2026-04-28T08:16:19.996Z</time></trkpt><trkpt lat="39.95790772063314" lon="9.196668036680762"><ele>781.0</ele><time>2026-04-28T08:16:20.996Z</time></trkpt><trkpt lat="39.95783706633262" lon="9.196611637644864"><ele>780.9999999999999</ele><time>2026-04-28T08:16:21.996Z</time></trkpt><trkpt lat="39.95776447580704" lon="9.196565257577516"><ele>781.0</ele><time>2026-04-28T08:16:22.996Z</time></trkpt><trkpt lat="39.95768550385136" lon="9.19652653242382"><ele>781.0</ele><time>2026-04-28T08:16:23.995Z</time></trkpt><trkpt lat="39.95760531256527" lon="9.196510636986655"><ele>781.0</ele><time>2026-04-28T08:16:24.995Z</time></trkpt><trkpt lat="39.957539643413874" lon="9.196513427708846"><ele>780.9999999999999</ele><time>2026-04-28T08:16:25.996Z</time></trkpt><trkpt lat="39.957475156777726" lon="9.196543174495348"><ele>781.0</ele><time>2026-04-28T08:16:26.996Z</time></trkpt><trkpt lat="39.95740185952656" lon="9.196561568545949"><ele>783.6666666666666</ele><time>2026-04-28T08:16:27.996Z</time></trkpt><trkpt lat="39.95733137745595" lon="9.196580866999193"><ele>786.3333333333333</ele><time>2026-04-28T08:16:28.996Z</time></trkpt><trkpt lat="39.95726080907273" lon="9.196605675094485"><ele>789.0</ele><time>2026-04-28T08:16:29.995Z</time></trkpt><trkpt lat="39.957144248054085" lon="9.196592735830345"><ele>791.6666666666667</ele><time>2026-04-28T08:16:31.996Z</time></trkpt><trkpt lat="39.95708389348688" lon="9.196566498957528"><ele>794.3333333333334</ele><time>2026-04-28T08:16:32.995Z</time></trkpt><trkpt lat="39.9570095282087" lon="9.19654271986022"><ele>797.0</ele><time>2026-04-28T08:16:34.995Z</time></trkpt><trkpt lat="39.95694399174334" lon="9.19650617690538"><ele>798.2</ele><time>2026-04-28T08:16:55.995Z</time></trkpt><trkpt lat="39.95685695532976" lon="9.196501464675872"><ele>799.4000000000001</ele><time>2026-04-28T08:16:57.995Z</time></trkpt><trkpt lat="39.95672847139717" lon="9.196473494100514"><ele>800.5999999999999</ele><time>2026-04-28T08:16:59.995Z</time></trkpt><trkpt lat="39.95665282243503" lon="9.19647497861164"><ele>801.8</ele><time>2026-04-28T08:17:00.995Z</time></trkpt><trkpt lat="39.95657031214727" lon="9.196487247328509"><ele>803.0</ele><time>2026-04-28T08:17:01.995Z</time></trkpt><trkpt lat="39.956481506472066" lon="9.196508992692635"><ele>803.0</ele><time>2026-04-28T08:17:02.995Z</time></trkpt><trkpt lat="39.95639210322663" lon="9.196538244966094"><ele>803.0</ele><time>2026-04-28T08:17:03.995Z</time></trkpt><trkpt lat="39.95630352985638" lon="9.19656664002605"><ele>803.0</ele><time>2026-04-28T08:17:04.995Z</time></trkpt><trkpt lat="39.956218357399315" lon="9.196585020157583"><ele>803.0</ele><time>2026-04-28T08:17:05.995Z</time></trkpt><trkpt lat="39.95614792751522" lon="9.196602041039005"><ele>803.0</ele><time>2026-04-28T08:17:06.995Z</time></trkpt><trkpt lat="39.95602920219221" lon="9.196651954581084"><ele>803.0000000000001</ele><time>2026-04-28T08:17:08.995Z</time></trkpt><trkpt lat="39.95593008797248" lon="9.196712693076224"><ele>803.0</ele><time>2026-04-28T08:17:10.995Z</time></trkpt><trkpt lat="39.955867729915184" lon="9.196753451191578"><ele>803.0</ele><time>2026-04-28T08:17:12.995Z</time></trkpt><trkpt lat="39.95580509414203" lon="9.19676457772183"><ele>803.0</ele><time>2026-04-28T08:17:18.995Z</time></trkpt><trkpt lat="39.95572703073364" lon="9.196815296222173"><ele>803.0000000000001</ele><time>2026-04-28T08:17:20.995Z</time></trkpt><trkpt lat="39.955653135063336" lon="9.196853708478546"><ele>803.0</ele><time>2026-04-28T08:17:22.995Z</time></trkpt><trkpt lat="39.95558626810378" lon="9.196879786753692"><ele>802.5000000000001</ele><time>2026-04-28T08:17:24.995Z</time></trkpt><trkpt lat="39.955521034377895" lon="9.196895736561247"><ele>802.0</ele><time>2026-04-28T08:17:26.995Z</time></trkpt><trkpt lat="39.955443640746466" lon="9.196926318865977"><ele>801.5</ele><time>2026-04-28T08:17:28.995Z</time></trkpt><trkpt lat="39.95538228666891" lon="9.197003584850556"><ele>801.0</ele><time>2026-04-28T08:17:30.995Z</time></trkpt><trkpt lat="39.955302056872334" lon="9.197068771245922"><ele>800.5000000000001</ele><time>2026-04-28T08:17:33.995Z</time></trkpt><trkpt lat="39.955232479755765" lon="9.197143837925355"><ele>800.0</ele><time>2026-04-28T08:17:35.995Z</time></trkpt><trkpt lat="39.95517012698757" lon="9.197216285339508"><ele>800.0</ele><time>2026-04-28T08:17:37.994Z</time></trkpt><trkpt lat="39.95511693742189" lon="9.197289492477"><ele>800.0</ele><time>2026-04-28T08:17:39.994Z</time></trkpt><trkpt lat="39.955047864374386" lon="9.197371084389326"><ele>800.0</ele><time>2026-04-28T08:17:41.994Z</time></trkpt><trkpt lat="39.95497484027473" lon="9.197455149908091"><ele>800.0</ele><time>2026-04-28T08:17:43.994Z</time></trkpt><trkpt lat="39.95491665896514" lon="9.197573578247018"><ele>800.0</ele><time>2026-04-28T08:17:45.994Z</time></trkpt><trkpt lat="39.95483918273509" lon="9.197690871188048"><ele>802.4</ele><time>2026-04-28T08:17:47.994Z</time></trkpt><trkpt lat="39.954774289176086" lon="9.19782027698002"><ele>804.8</ele><time>2026-04-28T08:17:49.994Z</time></trkpt><trkpt lat="39.954718771320174" lon="9.197952960146152"><ele>807.2</ele><time>2026-04-28T08:17:51.994Z</time></trkpt><trkpt lat="39.95467581131612" lon="9.198073278973977"><ele>809.6</ele><time>2026-04-28T08:17:53.994Z</time></trkpt><trkpt lat="39.954622002132275" lon="9.198190109484367"><ele>812.0</ele><time>2026-04-28T08:17:55.994Z</time></trkpt><trkpt lat="39.95456345172204" lon="9.198311066959887"><ele>812.1428571428571</ele><time>2026-04-28T08:17:57.994Z</time></trkpt><trkpt lat="39.954515327864605" lon="9.198413314674578"><ele>812.2857142857142</ele><time>2026-04-28T08:18:00.994Z</time></trkpt><trkpt lat="39.95446269494495" lon="9.198461693851796"><ele>812.4285714285714</ele><time>2026-04-28T08:18:01.994Z</time></trkpt><trkpt lat="39.954398050950765" lon="9.198505356159972"><ele>812.5714285714286</ele><time>2026-04-28T08:18:02.994Z</time></trkpt><trkpt lat="39.954327127803644" lon="9.198516576669975"><ele>812.7142857142857</ele><time>2026-04-28T08:18:03.994Z</time></trkpt><trkpt lat="39.954253984123824" lon="9.19850471710891"><ele>812.8571428571429</ele><time>2026-04-28T08:18:04.994Z</time></trkpt><trkpt lat="39.95419539388154" lon="9.198456513054433"><ele>813.0</ele><time>2026-04-28T08:18:05.994Z</time></trkpt><trkpt lat="39.95416253490884" lon="9.198343356554478"><ele>813.0</ele><time>2026-04-28T08:18:06.994Z</time></trkpt><trkpt lat="39.95412426070588" lon="9.198251611990434"><ele>813.0</ele><time>2026-04-28T08:18:07.994Z</time></trkpt><trkpt lat="39.95406214604791" lon="9.198161811360093"><ele>813.0</ele><time>2026-04-28T08:18:08.994Z</time></trkpt><trkpt lat="39.9540061982201" lon="9.198063811624086"><ele>813.0</ele><time>2026-04-28T08:18:09.994Z</time></trkpt><trkpt lat="39.95393180406797" lon="9.197982058529567"><ele>813.0</ele><time>2026-04-28T08:18:10.994Z</time></trkpt><trkpt lat="39.95385430241761" lon="9.1979089991232"><ele>810.8</ele><time>2026-04-28T08:18:11.994Z</time></trkpt><trkpt lat="39.95377510064756" lon="9.197833818917243"><ele>808.5999999999999</ele><time>2026-04-28T08:18:12.994Z</time></trkpt><trkpt lat="39.95370317807656" lon="9.197740111181497"><ele>806.4000000000001</ele><time>2026-04-28T08:18:13.994Z</time></trkpt><trkpt lat="39.953625476069725" lon="9.197654620731848"><ele>804.2</ele><time>2026-04-28T08:18:14.994Z</time></trkpt><trkpt lat="39.95355089083429" lon="9.197567240064961"><ele>802.0</ele><time>2026-04-28T08:18:15.994Z</time></trkpt><trkpt lat="39.953476804290766" lon="9.197481122329608"><ele>802.0</ele><time>2026-04-28T08:18:16.994Z</time></trkpt><trkpt lat="39.953396973721894" lon="9.197397055747944"><ele>802.0</ele><time>2026-04-28T08:18:17.994Z</time></trkpt><trkpt lat="39.95331250462555" lon="9.197320430932448"><ele>802.0</ele><time>2026-04-28T08:18:18.994Z</time></trkpt><trkpt lat="39.95322509406637" lon="9.197245796569232"><ele>802.0</ele><time>2026-04-28T08:18:19.994Z</time></trkpt><trkpt lat="39.9531334730317" lon="9.197175687307675"><ele>802.0</ele><time>2026-04-28T08:18:20.994Z</time></trkpt><trkpt lat="39.95304556164386" lon="9.197108198382013"><ele>802.4000000000001</ele><time>2026-04-28T08:18:21.994Z</time></trkpt><trkpt lat="39.952973782106405" lon="9.19702213531664"><ele>802.8000000000001</ele><time>2026-04-28T08:18:22.994Z</time></trkpt><trkpt lat="39.95294158644373" lon="9.19690291004681"><ele>803.2</ele><time>2026-04-28T08:18:23.994Z</time></trkpt><trkpt lat="39.952940672905775" lon="9.196780952895129"><ele>803.6</ele><time>2026-04-28T08:18:24.995Z</time></trkpt><trkpt lat="39.95295463541211" lon="9.196655632491494"><ele>804.0</ele><time>2026-04-28T08:18:25.995Z</time></trkpt><trkpt lat="39.9529665026989" lon="9.196535828166859"><ele>803.4000000000001</ele><time>2026-04-28T08:18:26.995Z</time></trkpt><trkpt lat="39.95296016697129" lon="9.19641802794552"><ele>802.8</ele><time>2026-04-28T08:18:27.995Z</time></trkpt><trkpt lat="39.952926740444354" lon="9.196307324345565"><ele>802.2</ele><time>2026-04-28T08:18:28.995Z</time></trkpt><trkpt lat="39.95289245885298" lon="9.196189689989914"><ele>801.5999999999999</ele><time>2026-04-28T08:18:29.995Z</time></trkpt><trkpt lat="39.95285073484286" lon="9.19606693745856"><ele>801.0</ele><time>2026-04-28T08:18:30.995Z</time></trkpt><trkpt lat="39.95283215518436" lon="9.195937689400294"><ele>801.0</ele><time>2026-04-28T08:18:31.995Z</time></trkpt><trkpt lat="39.952845015574475" lon="9.195810656910487"><ele>801.0</ele><time>2026-04-28T08:18:32.995Z</time></trkpt><trkpt lat="39.95287939376772" lon="9.195694457176064"><ele>801.0</ele><time>2026-04-28T08:18:33.996Z</time></trkpt><trkpt lat="39.95289997051722" lon="9.195580942656145"><ele>801.0</ele><time>2026-04-28T08:18:34.995Z</time></trkpt><trkpt lat="39.952897199952396" lon="9.195461357201728"><ele>801.0</ele><time>2026-04-28T08:18:35.995Z</time></trkpt><trkpt lat="39.95286734929214" lon="9.195329920058715"><ele>800.4</ele><time>2026-04-28T08:18:36.995Z</time></trkpt><trkpt lat="39.952816463819225" lon="9.195208565571852"><ele>799.8</ele><time>2026-04-28T08:18:37.995Z</time></trkpt><trkpt lat="39.95274236944711" lon="9.19511157705074"><ele>799.1999999999999</ele><time>2026-04-28T08:18:38.995Z</time></trkpt><trkpt lat="39.952654971849675" lon="9.195031960094495"><ele>798.5999999999999</ele><time>2026-04-28T08:18:39.995Z</time></trkpt><trkpt lat="39.95257380055582" lon="9.194972090618878"><ele>798.0</ele><time>2026-04-28T08:18:40.995Z</time></trkpt><trkpt lat="39.95249885407718" lon="9.194921899745363"><ele>800.5</ele><time>2026-04-28T08:18:41.995Z</time></trkpt><trkpt lat="39.95243146623919" lon="9.194875123149638"><ele>803.0</ele><time>2026-04-28T08:18:42.995Z</time></trkpt><trkpt lat="39.952370508103165" lon="9.194827058544314"><ele>805.5</ele><time>2026-04-28T08:18:43.995Z</time></trkpt><trkpt lat="39.95231795138804" lon="9.194760693504163"><ele>808.0</ele><time>2026-04-28T08:18:44.995Z</time></trkpt><trkpt lat="39.95228271957938" lon="9.194671680840605"><ele>810.5</ele><time>2026-04-28T08:18:45.995Z</time></trkpt><trkpt lat="39.952267443046146" lon="9.194568473509616"><ele>813.0</ele><time>2026-04-28T08:18:46.995Z</time></trkpt><trkpt lat="39.95226749340494" lon="9.19446007609508"><ele>813.0</ele><time>2026-04-28T08:18:47.995Z</time></trkpt><trkpt lat="39.95226506539923" lon="9.19433660997082"><ele>813.0</ele><time>2026-04-28T08:18:48.995Z</time></trkpt><trkpt lat="39.95225907940211" lon="9.194202067057615"><ele>813.0</ele><time>2026-04-28T08:18:49.995Z</time></trkpt><trkpt lat="39.95225648453164" lon="9.194065657205472"><ele>813.0</ele><time>2026-04-28T08:18:50.995Z</time></trkpt><trkpt lat="39.95223788361732" lon="9.19391819785044"><ele>813.0</ele><time>2026-04-28T08:18:51.995Z</time></trkpt><trkpt lat="39.95222050623903" lon="9.19377575181439"><ele>812.8</ele><time>2026-04-28T08:18:52.995Z</time></trkpt><trkpt lat="39.952206078904375" lon="9.193629757884802"><ele>812.5999999999999</ele><time>2026-04-28T08:18:53.995Z</time></trkpt><trkpt lat="39.95219706737132" lon="9.19348744559031"><ele>812.4000000000001</ele><time>2026-04-28T08:18:54.995Z</time></trkpt><trkpt lat="39.9521922543896" lon="9.193359380817403"><ele>812.2</ele><time>2026-04-28T08:18:55.995Z</time></trkpt><trkpt lat="39.9521895667584" lon="9.193225675836008"><ele>812.0</ele><time>2026-04-28T08:18:56.995Z</time></trkpt><trkpt lat="39.952186390105204" lon="9.193096381811333"><ele>811.4000000000001</ele><time>2026-04-28T08:18:57.995Z</time></trkpt><trkpt lat="39.95216139474007" lon="9.192969177490905"><ele>810.8000000000001</ele><time>2026-04-28T08:18:58.995Z</time></trkpt><trkpt lat="39.95211358814725" lon="9.19285322627036"><ele>810.2</ele><time>2026-04-28T08:18:59.995Z</time></trkpt><trkpt lat="39.95205663130957" lon="9.192752224672102"><ele>809.6</ele><time>2026-04-28T08:19:00.995Z</time></trkpt><trkpt lat="39.95199092242537" lon="9.192658539592411"><ele>809.0</ele><time>2026-04-28T08:19:01.995Z</time></trkpt><trkpt lat="39.95193691121033" lon="9.192565668447413"><ele>809.0</ele><time>2026-04-28T08:19:02.995Z</time></trkpt><trkpt lat="39.95188975531698" lon="9.192479010691267"><ele>809.0</ele><time>2026-04-28T08:19:03.995Z</time></trkpt><trkpt lat="39.951855988299656" lon="9.192401056676985"><ele>809.0</ele><time>2026-04-28T08:19:04.995Z</time></trkpt><trkpt lat="39.95180431450512" lon="9.192303271948731"><ele>809.0</ele><time>2026-04-28T08:19:06.995Z</time></trkpt><trkpt lat="39.95173094646262" lon="9.192160176076797"><ele>809.0</ele><time>2026-04-28T08:19:08.995Z</time></trkpt><trkpt lat="39.95166708952194" lon="9.192065191258843"><ele>811.8000000000001</ele><time>2026-04-28T08:19:09.995Z</time></trkpt><trkpt lat="39.951588376811905" lon="9.191983621808177"><ele>814.6</ele><time>2026-04-28T08:19:10.995Z</time></trkpt><trkpt lat="39.95150260920789" lon="9.191901973179673"><ele>817.4</ele><time>2026-04-28T08:19:11.995Z</time></trkpt><trkpt lat="39.95140838712207" lon="9.191809397570495"><ele>820.2</ele><time>2026-04-28T08:19:12.995Z</time></trkpt><trkpt lat="39.95131748988554" lon="9.191711080655393"><ele>823.0</ele><time>2026-04-28T08:19:13.995Z</time></trkpt><trkpt lat="39.95122172415616" lon="9.191607141122697"><ele>821.5</ele><time>2026-04-28T08:19:14.995Z</time></trkpt><trkpt lat="39.951127503558475" lon="9.191505789036476"><ele>820.0</ele><time>2026-04-28T08:19:15.995Z</time></trkpt><trkpt lat="39.95102736302073" lon="9.19140120387137"><ele>818.5</ele><time>2026-04-28T08:19:16.995Z</time></trkpt><trkpt lat="39.950920065918694" lon="9.191289114389972"><ele>817.0</ele><time>2026-04-28T08:19:17.995Z</time></trkpt><trkpt lat="39.95081525810601" lon="9.191175062319637"><ele>817.25</ele><time>2026-04-28T08:19:18.995Z</time></trkpt><trkpt lat="39.95070853337084" lon="9.19105099742487"><ele>817.5</ele><time>2026-04-28T08:19:19.995Z</time></trkpt><trkpt lat="39.950617150225895" lon="9.190910229236431"><ele>817.75</ele><time>2026-04-28T08:19:20.995Z</time></trkpt><trkpt lat="39.95053742132086" lon="9.190752840348342"><ele>818.0</ele><time>2026-04-28T08:19:21.995Z</time></trkpt><trkpt lat="39.950475106213645" lon="9.190583267346273"><ele>818.0</ele><time>2026-04-28T08:19:22.995Z</time></trkpt><trkpt lat="39.9503954646643" lon="9.190420849255675"><ele>818.0</ele><time>2026-04-28T08:19:23.995Z</time></trkpt><trkpt lat="39.95027390352437" lon="9.190304816387034"><ele>818.0</ele><time>2026-04-28T08:19:24.995Z</time></trkpt><trkpt lat="39.95013783458848" lon="9.190204683929602"><ele>821.6666666666667</ele><time>2026-04-28T08:19:25.995Z</time></trkpt><trkpt lat="39.95001050124698" lon="9.190087402038557"><ele>825.3333333333333</ele><time>2026-04-28T08:19:26.995Z</time></trkpt><trkpt lat="39.94989956063202" lon="9.18995266520491"><ele>829.0</ele><time>2026-04-28T08:19:27.994Z</time></trkpt><trkpt lat="39.949789813613116" lon="9.189799059437123"><ele>829.0</ele><time>2026-04-28T08:19:28.994Z</time></trkpt><trkpt lat="39.94968128629397" lon="9.1896379619892"><ele>829.0</ele><time>2026-04-28T08:19:29.994Z</time></trkpt><trkpt lat="39.949577486411584" lon="9.189479801979074"><ele>829.0</ele><time>2026-04-28T08:19:30.994Z</time></trkpt><trkpt lat="39.9494866077961" lon="9.189319385350231"><ele>829.0</ele><time>2026-04-28T08:19:31.994Z</time></trkpt><trkpt lat="39.94942486676827" lon="9.189156543194787"><ele>829.0</ele><time>2026-04-28T08:19:32.994Z</time></trkpt><trkpt lat="39.94938385485177" lon="9.188994473155182"><ele>829.0</ele><time>2026-04-28T08:19:33.994Z</time></trkpt><trkpt lat="39.94935758472609" lon="9.188833081132062"><ele>829.0</ele><time>2026-04-28T08:19:34.994Z</time></trkpt><trkpt lat="39.94933615278351" lon="9.188666741358194"><ele>828.0</ele><time>2026-04-28T08:19:35.994Z</time></trkpt><trkpt lat="39.94930410008752" lon="9.188504360556731"><ele>827.0</ele><time>2026-04-28T08:19:36.994Z</time></trkpt><trkpt lat="39.94924358275644" lon="9.188353392842295"><ele>826.0</ele><time>2026-04-28T08:19:37.994Z</time></trkpt><trkpt lat="39.94917280437761" lon="9.188213547589681"><ele>825.0</ele><time>2026-04-28T08:19:38.994Z</time></trkpt><trkpt lat="39.949116080977255" lon="9.188080820221225"><ele>827.75</ele><time>2026-04-28T08:19:39.994Z</time></trkpt><trkpt lat="39.94906957535777" lon="9.187947893899334"><ele>830.5</ele><time>2026-04-28T08:19:40.994Z</time></trkpt><trkpt lat="39.94902144342074" lon="9.187814766180386"><ele>833.25</ele><time>2026-04-28T08:19:41.994Z</time></trkpt><trkpt lat="39.948953989783874" lon="9.18768590384553"><ele>836.0</ele><time>2026-04-28T08:19:42.994Z</time></trkpt><trkpt lat="39.94885454742558" lon="9.18757733087962"><ele>836.0</ele><time>2026-04-28T08:19:43.994Z</time></trkpt><trkpt lat="39.9487421822203" lon="9.187473922025136"><ele>836.0</ele><time>2026-04-28T08:19:44.994Z</time></trkpt><trkpt lat="39.94862748432767" lon="9.187373131670185"><ele>836.0</ele><time>2026-04-28T08:19:45.994Z</time></trkpt><trkpt lat="39.94850522505046" lon="9.187278963481528"><ele>836.0</ele><time>2026-04-28T08:19:46.994Z</time></trkpt><trkpt lat="39.94838785694774" lon="9.187184656648478"><ele>836.75</ele><time>2026-04-28T08:19:47.994Z</time></trkpt><trkpt lat="39.94826633180872" lon="9.18709634739515"><ele>837.5</ele><time>2026-04-28T08:19:48.994Z</time></trkpt><trkpt lat="39.948160520887114" lon="9.18702662977972"><ele>838.25</ele><time>2026-04-28T08:19:49.994Z</time></trkpt><trkpt lat="39.94805745817597" lon="9.186963515124239"><ele>839.0</ele><time>2026-04-28T08:19:50.994Z</time></trkpt><trkpt lat="39.94796223776778" lon="9.186897776521215"><ele>839.0</ele><time>2026-04-28T08:19:51.994Z</time></trkpt><trkpt lat="39.94786746558363" lon="9.186820164929173"><ele>839.0</ele><time>2026-04-28T08:19:52.994Z</time></trkpt><trkpt lat="39.94778272273722" lon="9.186725678031092"><ele>839.0</ele><time>2026-04-28T08:19:53.994Z</time></trkpt><trkpt lat="39.947713635154294" lon="9.186614331164481"><ele>839.0</ele><time>2026-04-28T08:19:54.994Z</time></trkpt><trkpt lat="39.94767263809541" lon="9.18648513669797"><ele>839.0</ele><time>2026-04-28T08:19:55.994Z</time></trkpt><trkpt lat="39.94765696565042" lon="9.186348730323829"><ele>839.8000000000001</ele><time>2026-04-28T08:19:56.994Z</time></trkpt><trkpt lat="39.94764341376596" lon="9.186216187366844"><ele>840.6</ele><time>2026-04-28T08:19:57.994Z</time></trkpt><trkpt lat="39.94760967289016" lon="9.186094613365224"><ele>841.4</ele><time>2026-04-28T08:19:58.994Z</time></trkpt><trkpt lat="39.947540978474485" lon="9.185995342026597"><ele>842.2</ele><time>2026-04-28T08:19:59.994Z</time></trkpt><trkpt lat="39.947442873269324" lon="9.185950004670971"><ele>843.0</ele><time>2026-04-28T08:20:00.994Z</time></trkpt><trkpt lat="39.947338677290794" lon="9.185956311195486"><ele>843.0</ele><time>2026-04-28T08:20:01.994Z</time></trkpt><trkpt lat="39.9472106783052" lon="9.186012657196375"><ele>843.0</ele><time>2026-04-28T08:20:02.994Z</time></trkpt><trkpt lat="39.94706825216428" lon="9.18608355032711"><ele>843.0</ele><time>2026-04-28T08:20:03.994Z</time></trkpt><trkpt lat="39.94692046962971" lon="9.186145814544645"><ele>843.0</ele><time>2026-04-28T08:20:04.994Z</time></trkpt><trkpt lat="39.946775330723916" lon="9.186193879109698"><ele>843.75</ele><time>2026-04-28T08:20:05.994Z</time></trkpt><trkpt lat="39.9466371533153" lon="9.186180767580543"><ele>844.5</ele><time>2026-04-28T08:20:06.994Z</time></trkpt><trkpt lat="39.946520817048594" lon="9.186120246971175"><ele>845.25</ele><time>2026-04-28T08:20:07.994Z</time></trkpt><trkpt lat="39.946413693315066" lon="9.186029706570293"><ele>846.0</ele><time>2026-04-28T08:20:08.994Z</time></trkpt><trkpt lat="39.946317492889726" lon="9.185944417501243"><ele>846.0</ele><time>2026-04-28T08:20:09.994Z</time></trkpt><trkpt lat="39.946211155081535" lon="9.185880551303772"><ele>846.0</ele><time>2026-04-28T08:20:10.994Z</time></trkpt><trkpt lat="39.946098339521136" lon="9.185861365265392"><ele>846.0</ele><time>2026-04-28T08:20:11.994Z</time></trkpt><trkpt lat="39.94598192773241" lon="9.185871906560804"><ele>846.0</ele><time>2026-04-28T08:20:12.994Z</time></trkpt><trkpt lat="39.945865830968984" lon="9.185879149386192"><ele>845.5</ele><time>2026-04-28T08:20:13.994Z</time></trkpt><trkpt lat="39.94574458791233" lon="9.185848271207664"><ele>845.0</ele><time>2026-04-28T08:20:14.994Z</time></trkpt><trkpt lat="39.94562447435209" lon="9.185784117192584"><ele>844.5</ele><time>2026-04-28T08:20:15.994Z</time></trkpt><trkpt lat="39.945529919103755" lon="9.185662888341772"><ele>844.0</ele><time>2026-04-28T08:20:16.994Z</time></trkpt><trkpt lat="39.945448182794244" lon="9.18552071744678"><ele>844.0</ele><time>2026-04-28T08:20:17.994Z</time></trkpt><trkpt lat="39.94538101280857" lon="9.185369547754192"><ele>844.0</ele><time>2026-04-28T08:20:18.994Z</time></trkpt><trkpt lat="39.9453054188776" lon="9.185237217475443"><ele>844.0</ele><time>2026-04-28T08:20:19.994Z</time></trkpt><trkpt lat="39.94520332793499" lon="9.185129464480465"><ele>844.0</ele><time>2026-04-28T08:20:20.994Z</time></trkpt><trkpt lat="39.94507028980935" lon="9.185044755370807"><ele>844.6666666666666</ele><time>2026-04-28T08:20:21.994Z</time></trkpt><trkpt lat="39.94491714176945" lon="9.184964999947855"><ele>845.3333333333333</ele><time>2026-04-28T08:20:22.994Z</time></trkpt><trkpt lat="39.9447435273027" lon="9.184884478025161"><ele>846.0</ele><time>2026-04-28T08:20:23.994Z</time></trkpt><trkpt lat="39.94457297070425" lon="9.184793911347649"><ele>846.0</ele><time>2026-04-28T08:20:24.994Z</time></trkpt><trkpt lat="39.944425244637856" lon="9.184690480829536"><ele>846.0</ele><time>2026-04-28T08:20:25.994Z</time></trkpt><trkpt lat="39.94430378365618" lon="9.184542109507474"><ele>846.0</ele><time>2026-04-28T08:20:26.994Z</time></trkpt><trkpt lat="39.94422264263155" lon="9.184339998731224"><ele>850.3333333333333</ele><time>2026-04-28T08:20:27.994Z</time></trkpt><trkpt lat="39.944169764021574" lon="9.184120536894852"><ele>854.6666666666666</ele><time>2026-04-28T08:20:28.994Z</time></trkpt><trkpt lat="39.944118596922124" lon="9.183895780082834"><ele>859.0</ele><time>2026-04-28T08:20:29.994Z</time></trkpt><trkpt lat="39.944067232246944" lon="9.183678791496966"><ele>859.0</ele><time>2026-04-28T08:20:30.994Z</time></trkpt><trkpt lat="39.944019275530884" lon="9.183463482480471"><ele>859.0</ele><time>2026-04-28T08:20:31.995Z</time></trkpt><trkpt lat="39.94400963010489" lon="9.18323322367153"><ele>859.0</ele><time>2026-04-28T08:20:32.995Z</time></trkpt><trkpt lat="39.94403048729465" lon="9.182997760809307"><ele>857.3333333333333</ele><time>2026-04-28T08:20:33.995Z</time></trkpt><trkpt lat="39.94405129668491" lon="9.182786721087036"><ele>855.6666666666667</ele><time>2026-04-28T08:20:34.995Z</time></trkpt><trkpt lat="39.94403237824288" lon="9.18259529600118"><ele>854.0</ele><time>2026-04-28T08:20:35.995Z</time></trkpt><trkpt lat="39.94396894380558" lon="9.182423038416095"><ele>850.3333333333334</ele><time>2026-04-28T08:20:36.994Z</time></trkpt><trkpt lat="39.9438724848313" lon="9.18226649941254"><ele>846.6666666666667</ele><time>2026-04-28T08:20:37.995Z</time></trkpt><trkpt lat="39.943756325653524" lon="9.182124024518945"><ele>843.0</ele><time>2026-04-28T08:20:38.995Z</time></trkpt><trkpt lat="39.943633355440355" lon="9.181984104268746"><ele>843.0</ele><time>2026-04-28T08:20:39.994Z</time></trkpt><trkpt lat="39.94350950980788" lon="9.181837209808428"><ele>843.0</ele><time>2026-04-28T08:20:40.994Z</time></trkpt><trkpt lat="39.94338565395138" lon="9.181691079469012"><ele>843.0</ele><time>2026-04-28T08:20:41.994Z</time></trkpt><trkpt lat="39.94325970354399" lon="9.181551422186672"><ele>847.0</ele><time>2026-04-28T08:20:42.995Z</time></trkpt><trkpt lat="39.943142876498584" lon="9.181402917817211"><ele>851.0</ele><time>2026-04-28T08:20:43.994Z</time></trkpt><trkpt lat="39.94304180316667" lon="9.181227283567221"><ele>855.0</ele><time>2026-04-28T08:20:44.994Z</time></trkpt><trkpt lat="39.9429703917398" lon="9.181025162064955"><ele>855.0</ele><time>2026-04-28T08:20:45.994Z</time></trkpt><trkpt lat="39.942925356448036" lon="9.180801529082704"><ele>855.0</ele><time>2026-04-28T08:20:46.994Z</time></trkpt><trkpt lat="39.942883092964685" lon="9.180579107212312"><ele>855.0</ele><time>2026-04-28T08:20:47.994Z</time></trkpt><trkpt lat="39.94284324643632" lon="9.180354619297603"><ele>853.3333333333333</ele><time>2026-04-28T08:20:48.994Z</time></trkpt><trkpt lat="39.94279996572485" lon="9.1801261074814"><ele>851.6666666666666</ele><time>2026-04-28T08:20:49.994Z</time></trkpt><trkpt lat="39.942755817670175" lon="9.179897021543153"><ele>850.0</ele><time>2026-04-28T08:20:50.994Z</time></trkpt><trkpt lat="39.94270887120839" lon="9.179676299373735"><ele>850.0</ele><time>2026-04-28T08:20:51.994Z</time></trkpt><trkpt lat="39.94265096929676" lon="9.179460381563468"><ele>850.0</ele><time>2026-04-28T08:20:52.994Z</time></trkpt><trkpt lat="39.942610705926896" lon="9.179237052060005"><ele>850.0</ele><time>2026-04-28T08:20:53.994Z</time></trkpt><trkpt lat="39.94260329932057" lon="9.179017795017783"><ele>850.3333333333333</ele><time>2026-04-28T08:20:54.994Z</time></trkpt><trkpt lat="39.94262997734447" lon="9.17878877436573"><ele>850.6666666666667</ele><time>2026-04-28T08:20:55.994Z</time></trkpt><trkpt lat="39.942680961871034" lon="9.178560166952561"><ele>851.0</ele><time>2026-04-28T08:20:56.994Z</time></trkpt><trkpt lat="39.94274151266093" lon="9.178343204260273"><ele>851.3333333333334</ele><time>2026-04-28T08:20:57.994Z</time></trkpt><trkpt lat="39.94279371036066" lon="9.178122222614068"><ele>851.6666666666667</ele><time>2026-04-28T08:20:58.994Z</time></trkpt><trkpt lat="39.94279554754174" lon="9.177881123443276"><ele>852.0</ele><time>2026-04-28T08:20:59.994Z</time></trkpt><trkpt lat="39.9427768326396" lon="9.17765268680053"><ele>852.0</ele><time>2026-04-28T08:21:00.994Z</time></trkpt><trkpt lat="39.94272596586546" lon="9.177437083623913"><ele>852.0</ele><time>2026-04-28T08:21:01.994Z</time></trkpt><trkpt lat="39.94265018492343" lon="9.177228331264516"><ele>852.0</ele><time>2026-04-28T08:21:02.994Z</time></trkpt><trkpt lat="39.94256716412413" lon="9.177018195537075"><ele>860.3333333333333</ele><time>2026-04-28T08:21:03.994Z</time></trkpt><trkpt lat="39.942486019782905" lon="9.176803054935718"><ele>868.6666666666666</ele><time>2026-04-28T08:21:04.994Z</time></trkpt><trkpt lat="39.942416138679825" lon="9.17657828696722"><ele>877.0</ele><time>2026-04-28T08:21:05.994Z</time></trkpt><trkpt lat="39.94236681904067" lon="9.176367691043952"><ele>877.0</ele><time>2026-04-28T08:21:06.994Z</time></trkpt><trkpt lat="39.942322706769296" lon="9.17618105401246"><ele>877.0</ele><time>2026-04-28T08:21:07.994Z</time></trkpt><trkpt lat="39.94228138391023" lon="9.175985604642232"><ele>877.0</ele><time>2026-04-28T08:21:08.994Z</time></trkpt><trkpt lat="39.94224906075313" lon="9.175780147578415"><ele>878.6666666666666</ele><time>2026-04-28T08:21:09.994Z</time></trkpt><trkpt lat="39.942204128544645" lon="9.175565948372089"><ele>880.3333333333333</ele><time>2026-04-28T08:21:10.993Z</time></trkpt><trkpt lat="39.94217530493476" lon="9.175354609596257"><ele>882.0</ele><time>2026-04-28T08:21:11.993Z</time></trkpt><trkpt lat="39.94217545373542" lon="9.175143309526963"><ele>882.0</ele><time>2026-04-28T08:21:12.993Z</time></trkpt><trkpt lat="39.94220602619529" lon="9.17493974093948"><ele>882.0</ele><time>2026-04-28T08:21:13.993Z</time></trkpt><trkpt lat="39.94226214106821" lon="9.174741851991394"><ele>882.0</ele><time>2026-04-28T08:21:14.993Z</time></trkpt><trkpt lat="39.942331310806516" lon="9.17454960623206"><ele>885.5</ele><time>2026-04-28T08:21:15.993Z</time></trkpt><trkpt lat="39.94239978687905" lon="9.174366560820522"><ele>889.0</ele><time>2026-04-28T08:21:16.993Z</time></trkpt><trkpt lat="39.94246016852441" lon="9.1741932989051"><ele>892.5</ele><time>2026-04-28T08:21:17.993Z</time></trkpt><trkpt lat="39.94253417111542" lon="9.174034849005867"><ele>896.0</ele><time>2026-04-28T08:21:18.993Z</time></trkpt><trkpt lat="39.94264043200134" lon="9.173928569460465"><ele>897.75</ele><time>2026-04-28T08:21:19.993Z</time></trkpt><trkpt lat="39.9427548310794" lon="9.173846112949745"><ele>899.5</ele><time>2026-04-28T08:21:20.993Z</time></trkpt><trkpt lat="39.94286931108808" lon="9.173775841337966"><ele>901.25</ele><time>2026-04-28T08:21:21.993Z</time></trkpt><trkpt lat="39.94298692286615" lon="9.17370638128978"><ele>903.0</ele><time>2026-04-28T08:21:22.993Z</time></trkpt><trkpt lat="39.943111840477805" lon="9.173644182857625"><ele>903.0</ele><time>2026-04-28T08:21:23.993Z</time></trkpt><trkpt lat="39.943232979841135" lon="9.173571956760174"><ele>903.0</ele><time>2026-04-28T08:21:24.993Z</time></trkpt><trkpt lat="39.94335545767373" lon="9.173495901696384"><ele>903.0</ele><time>2026-04-28T08:21:25.993Z</time></trkpt><trkpt lat="39.94347207588646" lon="9.173399771351653"><ele>903.0</ele><time>2026-04-28T08:21:26.993Z</time></trkpt><trkpt lat="39.94360051798198" lon="9.173293682903706"><ele>897.3333333333333</ele><time>2026-04-28T08:21:27.993Z</time></trkpt><trkpt lat="39.94372015890628" lon="9.17317090501665"><ele>891.6666666666666</ele><time>2026-04-28T08:21:28.993Z</time></trkpt><trkpt lat="39.94379812190797" lon="9.173000866283676"><ele>886.0</ele><time>2026-04-28T08:21:29.993Z</time></trkpt><trkpt lat="39.94380217082122" lon="9.172785864235179"><ele>886.0</ele><time>2026-04-28T08:21:30.993Z</time></trkpt><trkpt lat="39.94378796678579" lon="9.172565222047263"><ele>886.0</ele><time>2026-04-28T08:21:31.993Z</time></trkpt><trkpt lat="39.94373002555044" lon="9.1723469587631"><ele>886.0</ele><time>2026-04-28T08:21:32.993Z</time></trkpt><trkpt lat="39.94355147286994" lon="9.1719075127213"><ele>883.3333333333333</ele><time>2026-04-28T08:21:34.993Z</time></trkpt><trkpt lat="39.94343306555571" lon="9.171691062002145"><ele>880.6666666666667</ele><time>2026-04-28T08:21:35.993Z</time></trkpt><trkpt lat="39.9433213838172" lon="9.171468593559075"><ele>878.0</ele><time>2026-04-28T08:21:36.993Z</time></trkpt><trkpt lat="39.94320983207595" lon="9.17124604654682"><ele>887.0</ele><time>2026-04-28T08:21:37.993Z</time></trkpt><trkpt lat="39.94310856216461" lon="9.171021913826662"><ele>896.0</ele><time>2026-04-28T08:21:38.993Z</time></trkpt><trkpt lat="39.943006716483026" lon="9.1707920840725"><ele>905.0</ele><time>2026-04-28T08:21:39.993Z</time></trkpt><trkpt lat="39.942900324779885" lon="9.170559817165513"><ele>906.3333333333334</ele><time>2026-04-28T08:21:40.993Z</time></trkpt><trkpt lat="39.94279570039397" lon="9.170321255682868"><ele>907.6666666666667</ele><time>2026-04-28T08:21:41.993Z</time></trkpt><trkpt lat="39.94271286432598" lon="9.170065806124052"><ele>909.0</ele><time>2026-04-28T08:21:42.993Z</time></trkpt><trkpt lat="39.94265536237922" lon="9.16978678644153"><ele>911.0</ele><time>2026-04-28T08:21:43.993Z</time></trkpt><trkpt lat="39.94260224311775" lon="9.169495475414713"><ele>913.0</ele><time>2026-04-28T08:21:44.993Z</time></trkpt><trkpt lat="39.942542034966316" lon="9.169199630329"><ele>919.5</ele><time>2026-04-28T08:21:45.993Z</time></trkpt><trkpt lat="39.94246773762834" lon="9.168910489693621"><ele>926.0</ele><time>2026-04-28T08:21:46.993Z</time></trkpt><trkpt lat="39.94238305097937" lon="9.168619602139103"><ele>926.0</ele><time>2026-04-28T08:21:47.993Z</time></trkpt><trkpt lat="39.94229656752712" lon="9.168336392964244"><ele>926.0</ele><time>2026-04-28T08:21:48.993Z</time></trkpt><trkpt lat="39.9422228837763" lon="9.168041815849277"><ele>932.0</ele><time>2026-04-28T08:21:49.993Z</time></trkpt><trkpt lat="39.942152213175916" lon="9.167751713344067"><ele>938.0</ele><time>2026-04-28T08:21:50.993Z</time></trkpt><trkpt lat="39.94206559194045" lon="9.167468789901482"><ele>941.3333333333334</ele><time>2026-04-28T08:21:51.993Z</time></trkpt><trkpt lat="39.94196536197842" lon="9.167205263733196"><ele>944.6666666666667</ele><time>2026-04-28T08:21:52.993Z</time></trkpt><trkpt lat="39.94187083293781" lon="9.166966352896173"><ele>948.0</ele><time>2026-04-28T08:21:53.993Z</time></trkpt><trkpt lat="39.941792154794456" lon="9.16677554310605"><ele>943.5</ele><time>2026-04-28T08:21:54.993Z</time></trkpt><trkpt lat="39.94170170202144" lon="9.166645602849133"><ele>939.0</ele><time>2026-04-28T08:21:55.993Z</time></trkpt><trkpt lat="39.94157912425756" lon="9.16657611128607"><ele>934.5</ele><time>2026-04-28T08:21:56.993Z</time></trkpt><trkpt lat="39.94141744324298" lon="9.166584507400545"><ele>930.0</ele><time>2026-04-28T08:21:57.993Z</time></trkpt><trkpt lat="39.94122960742983" lon="9.166624398428121"><ele>930.0</ele><time>2026-04-28T08:21:58.993Z</time></trkpt><trkpt lat="39.94103779044938" lon="9.166683263736443"><ele>930.0</ele><time>2026-04-28T08:21:59.993Z</time></trkpt><trkpt lat="39.9408496304615" lon="9.166779561669147"><ele>930.0</ele><time>2026-04-28T08:22:00.993Z</time></trkpt><trkpt lat="39.94065557486051" lon="9.166871815420414"><ele>930.6666666666667</ele><time>2026-04-28T08:22:01.993Z</time></trkpt><trkpt lat="39.940466866130016" lon="9.166981025768346"><ele>931.3333333333334</ele><time>2026-04-28T08:22:02.993Z</time></trkpt><trkpt lat="39.940304888065036" lon="9.167137762451823"><ele>932.0</ele><time>2026-04-28T08:22:03.993Z</time></trkpt><trkpt lat="39.940172418570484" lon="9.167320640454184"><ele>931.3333333333334</ele><time>2026-04-28T08:22:04.993Z</time></trkpt><trkpt lat="39.94006168372294" lon="9.167484470156744"><ele>930.6666666666667</ele><time>2026-04-28T08:22:05.993Z</time></trkpt><trkpt lat="39.939946851281846" lon="9.167600059119138"><ele>930.0</ele><time>2026-04-28T08:22:06.993Z</time></trkpt><trkpt lat="39.93981134155127" lon="9.167631437196583"><ele>930.0</ele><time>2026-04-28T08:22:07.993Z</time></trkpt><trkpt lat="39.939662247027165" lon="9.167565420189007"><ele>930.0</ele><time>2026-04-28T08:22:08.993Z</time></trkpt><trkpt lat="39.93949332601961" lon="9.16746573072556"><ele>930.0</ele><time>2026-04-28T08:22:09.993Z</time></trkpt><trkpt lat="39.93931799082489" lon="9.167349405749684"><ele>937.0</ele><time>2026-04-28T08:22:10.993Z</time></trkpt><trkpt lat="39.93914675687994" lon="9.167218136098525"><ele>944.0</ele><time>2026-04-28T08:22:11.993Z</time></trkpt><trkpt lat="39.938968797203515" lon="9.167080978751464"><ele>951.0</ele><time>2026-04-28T08:22:12.993Z</time></trkpt><trkpt lat="39.93879219351438" lon="9.166937844997468"><ele>951.0</ele><time>2026-04-28T08:22:13.993Z</time></trkpt><trkpt lat="39.93860411143565" lon="9.166806602897818"><ele>951.0</ele><time>2026-04-28T08:22:14.993Z</time></trkpt><trkpt lat="39.93840205568529" lon="9.166716701816371"><ele>951.0</ele><time>2026-04-28T08:22:15.993Z</time></trkpt><trkpt lat="39.93819226305437" lon="9.166680815341403"><ele>948.3333333333333</ele><time>2026-04-28T08:22:16.992Z</time></trkpt><trkpt lat="39.93798472418915" lon="9.166644382730748"><ele>945.6666666666666</ele><time>2026-04-28T08:22:17.992Z</time></trkpt><trkpt lat="39.93777462711461" lon="9.16660612561285"><ele>943.0</ele><time>2026-04-28T08:22:18.992Z</time></trkpt><trkpt lat="39.93758419310454" lon="9.166570812053568"><ele>945.3333333333333</ele><time>2026-04-28T08:22:19.992Z</time></trkpt><trkpt lat="39.937437217810526" lon="9.166506498963438"><ele>947.6666666666667</ele><time>2026-04-28T08:22:20.992Z</time></trkpt><trkpt lat="39.937354145009515" lon="9.16635707390254"><ele>950.0</ele><time>2026-04-28T08:22:21.992Z</time></trkpt><trkpt lat="39.93732946315865" lon="9.166133912804119"><ele>950.0</ele><time>2026-04-28T08:22:22.992Z</time></trkpt><trkpt lat="39.93734500488707" lon="9.165899679146282"><ele>950.0</ele><time>2026-04-28T08:22:23.992Z</time></trkpt><trkpt lat="39.93735079671209" lon="9.165645644206425"><ele>950.0</ele><time>2026-04-28T08:22:24.992Z</time></trkpt><trkpt lat="39.93732416957087" lon="9.16538396442197"><ele>955.0</ele><time>2026-04-28T08:22:25.992Z</time></trkpt><trkpt lat="39.937251039021845" lon="9.165108793713115"><ele>960.0</ele><time>2026-04-28T08:22:26.992Z</time></trkpt><trkpt lat="39.93714703705865" lon="9.164855379757494"><ele>965.0</ele><time>2026-04-28T08:22:27.992Z</time></trkpt><trkpt lat="39.93705278731196" lon="9.164619546278448"><ele>970.3333333333334</ele><time>2026-04-28T08:22:28.992Z</time></trkpt><trkpt lat="39.93697310136235" lon="9.1643566628715"><ele>975.6666666666667</ele><time>2026-04-28T08:22:29.992Z</time></trkpt><trkpt lat="39.93691657938197" lon="9.164075785856841"><ele>981.0</ele><time>2026-04-28T08:22:30.992Z</time></trkpt><trkpt lat="39.93687555539872" lon="9.163787635909701"><ele>983.5</ele><time>2026-04-28T08:22:31.992Z</time></trkpt><trkpt lat="39.93685629254068" lon="9.163489898280748"><ele>986.0</ele><time>2026-04-28T08:22:32.992Z</time></trkpt><trkpt lat="39.93685464405269" lon="9.163192344393611"><ele>989.5</ele><time>2026-04-28T08:22:33.992Z</time></trkpt><trkpt lat="39.93686176767407" lon="9.162896372928824"><ele>993.0</ele><time>2026-04-28T08:22:34.992Z</time></trkpt><trkpt lat="39.93686029771446" lon="9.162600857037312"><ele>994.6666666666667</ele><time>2026-04-28T08:22:35.992Z</time></trkpt><trkpt lat="39.93683232128098" lon="9.162313316136336"><ele>996.3333333333334</ele><time>2026-04-28T08:22:36.994Z</time></trkpt><trkpt lat="39.936753697361816" lon="9.16204378864196"><ele>998.0</ele><time>2026-04-28T08:22:37.994Z</time></trkpt><trkpt lat="39.93662028016546" lon="9.16182766606028"><ele>997.6666666666667</ele><time>2026-04-28T08:22:38.994Z</time></trkpt><trkpt lat="39.93645266917767" lon="9.16166816497148"><ele>997.3333333333333</ele><time>2026-04-28T08:22:39.994Z</time></trkpt><trkpt lat="39.936276907314245" lon="9.161531925332108"><ele>997.0</ele><time>2026-04-28T08:22:40.993Z</time></trkpt><trkpt lat="39.93612243986177" lon="9.161346699367307"><ele>997.0</ele><time>2026-04-28T08:22:41.993Z</time></trkpt><trkpt lat="39.935997235478595" lon="9.161114566503633"><ele>997.0</ele><time>2026-04-28T08:22:42.994Z</time></trkpt><trkpt lat="39.93591036473114" lon="9.160854592823627"><ele>997.0</ele><time>2026-04-28T08:22:43.994Z</time></trkpt><trkpt lat="39.93584297457592" lon="9.16059126341206"><ele>994.0</ele><time>2026-04-28T08:22:44.994Z</time></trkpt><trkpt lat="39.93573144770583" lon="9.160360477240104"><ele>991.0</ele><time>2026-04-28T08:22:45.994Z</time></trkpt><trkpt lat="39.93556636887626" lon="9.160180989501809"><ele>988.0</ele><time>2026-04-28T08:22:46.994Z</time></trkpt><trkpt lat="39.935390376259775" lon="9.16000116023611"><ele>987.6666666666666</ele><time>2026-04-28T08:22:47.994Z</time></trkpt><trkpt lat="39.935224371559315" lon="9.159810893887672"><ele>987.3333333333333</ele><time>2026-04-28T08:22:48.995Z</time></trkpt><trkpt lat="39.935092919634876" lon="9.159602083092071"><ele>987.0</ele><time>2026-04-28T08:22:49.993Z</time></trkpt><trkpt lat="39.93502204653558" lon="9.159375919837375"><ele>987.0</ele><time>2026-04-28T08:22:50.993Z</time></trkpt><trkpt lat="39.93494329888453" lon="9.159193748645755"><ele>987.0</ele><time>2026-04-28T08:22:51.993Z</time></trkpt><trkpt lat="39.93479587235568" lon="9.159073032552616"><ele>987.0</ele><time>2026-04-28T08:22:52.993Z</time></trkpt><trkpt lat="39.934603681192485" lon="9.15903714147764"><ele>992.0</ele><time>2026-04-28T08:22:53.993Z</time></trkpt><trkpt lat="39.93440048732722" lon="9.15899756056946"><ele>997.0</ele><time>2026-04-28T08:22:54.993Z</time></trkpt><trkpt lat="39.9341979002005" lon="9.158941270237241"><ele>1002.0</ele><time>2026-04-28T08:22:55.993Z</time></trkpt><trkpt lat="39.93399776181722" lon="9.158874450901541"><ele>1002.0</ele><time>2026-04-28T08:22:56.993Z</time></trkpt><trkpt lat="39.93380943287271" lon="9.158783724546824"><ele>1002.0</ele><time>2026-04-28T08:22:57.993Z</time></trkpt><trkpt lat="39.93365203069044" lon="9.158645660836035"><ele>1002.0</ele><time>2026-04-28T08:22:58.993Z</time></trkpt><trkpt lat="39.93352605142283" lon="9.158436035055631"><ele>1002.0</ele><time>2026-04-28T08:22:59.993Z</time></trkpt><trkpt lat="39.933426811559166" lon="9.158206221879277"><ele>1002.0</ele><time>2026-04-28T08:23:00.993Z</time></trkpt><trkpt lat="39.933314237150384" lon="9.157994930932622"><ele>1002.0</ele><time>2026-04-28T08:23:01.993Z</time></trkpt><trkpt lat="39.93317558304519" lon="9.15780800138673"><ele>1000.0</ele><time>2026-04-28T08:23:02.993Z</time></trkpt><trkpt lat="39.93303111399451" lon="9.157620163032373"><ele>998.0</ele><time>2026-04-28T08:23:03.993Z</time></trkpt><trkpt lat="39.93290024990896" lon="9.157433422422235"><ele>996.0</ele><time>2026-04-28T08:23:04.993Z</time></trkpt><trkpt lat="39.932835930072336" lon="9.157212581403273"><ele>992.6666666666667</ele><time>2026-04-28T08:23:05.993Z</time></trkpt><trkpt lat="39.93284686842664" lon="9.156957816176618"><ele>989.3333333333334</ele><time>2026-04-28T08:23:06.993Z</time></trkpt><trkpt lat="39.93288337346764" lon="9.156698677282511"><ele>986.0</ele><time>2026-04-28T08:23:07.993Z</time></trkpt><trkpt lat="39.93288411354884" lon="9.156415834136464"><ele>982.6666666666667</ele><time>2026-04-28T08:23:08.993Z</time></trkpt><trkpt lat="39.932887338864845" lon="9.15612882283168"><ele>979.3333333333333</ele><time>2026-04-28T08:23:09.993Z</time></trkpt><trkpt lat="39.93288957158776" lon="9.15585722762411"><ele>976.0</ele><time>2026-04-28T08:23:10.993Z</time></trkpt><trkpt lat="39.932931244829234" lon="9.155604087707763"><ele>976.0</ele><time>2026-04-28T08:23:11.993Z</time></trkpt><trkpt lat="39.93302519493251" lon="9.155373391282689"><ele>976.0</ele><time>2026-04-28T08:23:12.993Z</time></trkpt><trkpt lat="39.9331014841329" lon="9.155145955649399"><ele>976.0</ele><time>2026-04-28T08:23:13.993Z</time></trkpt><trkpt lat="39.93315439573753" lon="9.15487984979772"><ele>976.3333333333333</ele><time>2026-04-28T08:23:14.993Z</time></trkpt><trkpt lat="39.9331908630597" lon="9.154608734298426"><ele>976.6666666666667</ele><time>2026-04-28T08:23:15.993Z</time></trkpt><trkpt lat="39.933207148992324" lon="9.15433982899157"><ele>977.0</ele><time>2026-04-28T08:23:16.993Z</time></trkpt><trkpt lat="39.93318222602498" lon="9.154070067878937"><ele>972.6666666666667</ele><time>2026-04-28T08:23:17.993Z</time></trkpt><trkpt lat="39.93308691427417" lon="9.153820597028412"><ele>968.3333333333333</ele><time>2026-04-28T08:23:18.993Z</time></trkpt><trkpt lat="39.93297222297451" lon="9.15358889883617"><ele>964.0</ele><time>2026-04-28T08:23:19.993Z</time></trkpt><trkpt lat="39.93291123919222" lon="9.153329857071686"><ele>964.0</ele><time>2026-04-28T08:23:20.993Z</time></trkpt><trkpt lat="39.932913490956835" lon="9.15305741013906"><ele>964.0</ele><time>2026-04-28T08:23:21.993Z</time></trkpt><trkpt lat="39.93294524436295" lon="9.15278672400724"><ele>964.0</ele><time>2026-04-28T08:23:22.993Z</time></trkpt><trkpt lat="39.932955831621975" lon="9.152516416800857"><ele>964.0</ele><time>2026-04-28T08:23:23.993Z</time></trkpt><trkpt lat="39.932966370206856" lon="9.152252577912535"><ele>964.0</ele><time>2026-04-28T08:23:24.993Z</time></trkpt><trkpt lat="39.93297890307624" lon="9.152005092602238"><ele>964.0</ele><time>2026-04-28T08:23:25.993Z</time></trkpt><trkpt lat="39.93296635456938" lon="9.151786489489607"><ele>964.0</ele><time>2026-04-28T08:23:26.993Z</time></trkpt><trkpt lat="39.93287099031058" lon="9.151602804561698"><ele>964.0</ele><time>2026-04-28T08:23:27.993Z</time></trkpt><trkpt lat="39.93272366633974" lon="9.151458182701408"><ele>964.0</ele><time>2026-04-28T08:23:28.993Z</time></trkpt><trkpt lat="39.93256557109944" lon="9.151308366439569"><ele>965.3333333333333</ele><time>2026-04-28T08:23:29.993Z</time></trkpt><trkpt lat="39.932403684522626" lon="9.151147172343261"><ele>966.6666666666667</ele><time>2026-04-28T08:23:30.993Z</time></trkpt><trkpt lat="39.93225337678036" lon="9.150992080491095"><ele>968.0</ele><time>2026-04-28T08:23:31.993Z</time></trkpt><trkpt lat="39.93209423585398" lon="9.150895375246616"><ele>968.0</ele><time>2026-04-28T08:23:32.993Z</time></trkpt><trkpt lat="39.93191501361408" lon="9.150864537122834"><ele>968.0</ele><time>2026-04-28T08:23:33.993Z</time></trkpt><trkpt lat="39.93173157131689" lon="9.150845312634326"><ele>968.0</ele><time>2026-04-28T08:23:34.993Z</time></trkpt><trkpt lat="39.9315567191409" lon="9.150775746180432"><ele>962.6666666666667</ele><time>2026-04-28T08:23:35.993Z</time></trkpt><trkpt lat="39.93139739025103" lon="9.1506618582236"><ele>957.3333333333333</ele><time>2026-04-28T08:23:36.993Z</time></trkpt><trkpt lat="39.93124620967193" lon="9.150517634037472"><ele>952.0</ele><time>2026-04-28T08:23:37.993Z</time></trkpt><trkpt lat="39.93109938243628" lon="9.150354440499102"><ele>952.0</ele><time>2026-04-28T08:23:38.993Z</time></trkpt><trkpt lat="39.93096742205909" lon="9.150190035284915"><ele>952.0</ele><time>2026-04-28T08:23:39.993Z</time></trkpt><trkpt lat="39.930879084962854" lon="9.149996381276212"><ele>952.0</ele><time>2026-04-28T08:23:40.993Z</time></trkpt><trkpt lat="39.930831184460935" lon="9.149773708013907"><ele>958.6666666666666</ele><time>2026-04-28T08:23:41.993Z</time></trkpt><trkpt lat="39.93081048585189" lon="9.149541352196676"><ele>965.3333333333333</ele><time>2026-04-28T08:23:42.993Z</time></trkpt><trkpt lat="39.93079045852128" lon="9.14931835776887"><ele>972.0</ele><time>2026-04-28T08:23:43.993Z</time></trkpt><trkpt lat="39.9307332377425" lon="9.149136182174582"><ele>965.6666666666667</ele><time>2026-04-28T08:23:44.993Z</time></trkpt><trkpt lat="39.930604547363714" lon="9.149024851234067"><ele>959.3333333333334</ele><time>2026-04-28T08:23:45.993Z</time></trkpt><trkpt lat="39.93042903285095" lon="9.149007609644043"><ele>953.0</ele><time>2026-04-28T08:23:46.993Z</time></trkpt><trkpt lat="39.93023609586148" lon="9.149021186801546"><ele>956.3333333333334</ele><time>2026-04-28T08:23:47.993Z</time></trkpt><trkpt lat="39.93005692869853" lon="9.148984929011744"><ele>959.6666666666667</ele><time>2026-04-28T08:23:48.993Z</time></trkpt><trkpt lat="39.92988365679697" lon="9.148892092128346"><ele>963.0</ele><time>2026-04-28T08:23:49.993Z</time></trkpt><trkpt lat="39.929727373622974" lon="9.148747001307765"><ele>963.0</ele><time>2026-04-28T08:23:50.992Z</time></trkpt><trkpt lat="39.92958013845458" lon="9.148572344419534"><ele>963.0</ele><time>2026-04-28T08:23:51.992Z</time></trkpt><trkpt lat="39.92940365986485" lon="9.148428331607297"><ele>963.0</ele><time>2026-04-28T08:23:52.992Z</time></trkpt><trkpt lat="39.92920323156837" lon="9.148300518038367"><ele>960.3333333333333</ele><time>2026-04-28T08:23:53.992Z</time></trkpt><trkpt lat="39.928995020827166" lon="9.148179919187685"><ele>957.6666666666666</ele><time>2026-04-28T08:23:54.992Z</time></trkpt><trkpt lat="39.92879118137115" lon="9.14806902762975"><ele>955.0</ele><time>2026-04-28T08:23:55.992Z</time></trkpt><trkpt lat="39.92857071966775" lon="9.147970718193672"><ele>960.3333333333333</ele><time>2026-04-28T08:23:56.992Z</time></trkpt><trkpt lat="39.92838196057629" lon="9.147855770193859"><ele>965.6666666666667</ele><time>2026-04-28T08:23:57.992Z</time></trkpt><trkpt lat="39.928222991320396" lon="9.147721733276788"><ele>971.0</ele><time>2026-04-28T08:23:58.992Z</time></trkpt><trkpt lat="39.928056466530386" lon="9.147572165659769"><ele>971.0</ele><time>2026-04-28T08:23:59.992Z</time></trkpt><trkpt lat="39.927885391504205" lon="9.147442398403097"><ele>971.0</ele><time>2026-04-28T08:24:00.992Z</time></trkpt><trkpt lat="39.92772579155483" lon="9.147318703066482"><ele>971.0</ele><time>2026-04-28T08:24:01.992Z</time></trkpt><trkpt lat="39.92759711688868" lon="9.147207022646919"><ele>972.5</ele><time>2026-04-28T08:24:02.992Z</time></trkpt><trkpt lat="39.92752939007772" lon="9.147069788718774"><ele>974.0</ele><time>2026-04-28T08:24:03.992Z</time></trkpt><trkpt lat="39.92752867090173" lon="9.146896238968857"><ele>975.5</ele><time>2026-04-28T08:24:04.992Z</time></trkpt><trkpt lat="39.92761327078215" lon="9.146716338941207"><ele>977.0</ele><time>2026-04-28T08:24:05.992Z</time></trkpt><trkpt lat="39.92771383658481" lon="9.146530513551102"><ele>967.6666666666667</ele><time>2026-04-28T08:24:06.992Z</time></trkpt><trkpt lat="39.92776404491559" lon="9.14630398458684"><ele>958.3333333333333</ele><time>2026-04-28T08:24:07.992Z</time></trkpt><trkpt lat="39.92772546352835" lon="9.146064159683533"><ele>949.0</ele><time>2026-04-28T08:24:08.992Z</time></trkpt><trkpt lat="39.927646606077325" lon="9.1458480391583"><ele>955.3333333333333</ele><time>2026-04-28T08:24:09.992Z</time></trkpt><trkpt lat="39.927546836431056" lon="9.145632698862789"><ele>961.6666666666667</ele><time>2026-04-28T08:24:10.992Z</time></trkpt><trkpt lat="39.92743213087005" lon="9.145427781310703"><ele>968.0</ele><time>2026-04-28T08:24:11.992Z</time></trkpt><trkpt lat="39.927314287752864" lon="9.145223625358145"><ele>968.0</ele><time>2026-04-28T08:24:12.992Z</time></trkpt><trkpt lat="39.92719967362259" lon="9.14501560836527"><ele>968.0</ele><time>2026-04-28T08:24:13.992Z</time></trkpt><trkpt lat="39.92709355429674" lon="9.144806288799117"><ele>968.0</ele><time>2026-04-28T08:24:14.992Z</time></trkpt><trkpt lat="39.927006517351096" lon="9.144583935706907"><ele>965.3333333333334</ele><time>2026-04-28T08:24:15.992Z</time></trkpt><trkpt lat="39.926953954494394" lon="9.14434392062399"><ele>962.6666666666667</ele><time>2026-04-28T08:24:16.992Z</time></trkpt><trkpt lat="39.92694317356222" lon="9.144086753385926"><ele>960.0</ele><time>2026-04-28T08:24:17.992Z</time></trkpt><trkpt lat="39.9269253851331" lon="9.14383557906658"><ele>958.6666666666667</ele><time>2026-04-28T08:24:18.992Z</time></trkpt><trkpt lat="39.92687966491902" lon="9.143583886244576"><ele>957.3333333333334</ele><time>2026-04-28T08:24:19.992Z</time></trkpt><trkpt lat="39.926826731103446" lon="9.143332002281324"><ele>956.0</ele><time>2026-04-28T08:24:20.992Z</time></trkpt><trkpt lat="39.92677623226467" lon="9.143081317683054"><ele>963.0</ele><time>2026-04-28T08:24:21.992Z</time></trkpt><trkpt lat="39.926716586126034" lon="9.142834582310375"><ele>970.0</ele><time>2026-04-28T08:24:22.992Z</time></trkpt><trkpt lat="39.926653564098004" lon="9.142592515431462"><ele>977.0</ele><time>2026-04-28T08:24:23.992Z</time></trkpt><trkpt lat="39.926623045683606" lon="9.142362548847984"><ele>977.6666666666667</ele><time>2026-04-28T08:24:24.992Z</time></trkpt><trkpt lat="39.92664789260843" lon="9.142125619313637"><ele>978.3333333333333</ele><time>2026-04-28T08:24:25.992Z</time></trkpt><trkpt lat="39.92673373765374" lon="9.141891646976115"><ele>979.0</ele><time>2026-04-28T08:24:26.992Z</time></trkpt><trkpt lat="39.92680550587671" lon="9.141652505184789"><ele>970.0</ele><time>2026-04-28T08:24:27.992Z</time></trkpt><trkpt lat="39.9268265466641" lon="9.14138784142118"><ele>961.0</ele><time>2026-04-28T08:24:28.992Z</time></trkpt><trkpt lat="39.92682834904314" lon="9.141126816359352"><ele>952.0</ele><time>2026-04-28T08:24:29.992Z</time></trkpt><trkpt lat="39.92680709451934" lon="9.140878246606544"><ele>953.0</ele><time>2026-04-28T08:24:30.992Z</time></trkpt><trkpt lat="39.92674693921169" lon="9.140674102605677"><ele>954.0</ele><time>2026-04-28T08:24:31.992Z</time></trkpt><trkpt lat="39.926634962877074" lon="9.140521606200547"><ele>955.0</ele><time>2026-04-28T08:24:32.992Z</time></trkpt><trkpt lat="39.92647543394584" lon="9.140393695685757"><ele>964.0</ele><time>2026-04-28T08:24:33.992Z</time></trkpt><trkpt lat="39.9263066964949" lon="9.140257097998859"><ele>973.0</ele><time>2026-04-28T08:24:34.992Z</time></trkpt><trkpt lat="39.92613127648074" lon="9.140136486438324"><ele>982.0</ele><time>2026-04-28T08:24:35.992Z</time></trkpt><trkpt lat="39.9259566708326" lon="9.140065760985209"><ele>985.0</ele><time>2026-04-28T08:24:36.992Z</time></trkpt><trkpt lat="39.92576879368087" lon="9.140055765116799"><ele>988.0</ele><time>2026-04-28T08:24:37.992Z</time></trkpt><trkpt lat="39.92557526211531" lon="9.140102715286341"><ele>991.0</ele><time>2026-04-28T08:24:38.992Z</time></trkpt><trkpt lat="39.92538227454838" lon="9.14020036548719"><ele>991.0</ele><time>2026-04-28T08:24:39.992Z</time></trkpt><trkpt lat="39.92518953126139" lon="9.14030261378029"><ele>991.0</ele><time>2026-04-28T08:24:40.992Z</time></trkpt><trkpt lat="39.92499847614279" lon="9.140413689829904"><ele>991.0</ele><time>2026-04-28T08:24:41.992Z</time></trkpt><trkpt lat="39.92479286910939" lon="9.140518668579519"><ele>992.3333333333333</ele><time>2026-04-28T08:24:42.994Z</time></trkpt><trkpt lat="39.924589465371945" lon="9.140622817769017"><ele>993.6666666666667</ele><time>2026-04-28T08:24:43.994Z</time></trkpt><trkpt lat="39.92437305805429" lon="9.140718411057362"><ele>995.0</ele><time>2026-04-28T08:24:44.994Z</time></trkpt><trkpt lat="39.92415517711848" lon="9.140777329951273"><ele>992.3333333333334</ele><time>2026-04-28T08:24:45.994Z</time></trkpt><trkpt lat="39.92396613971435" lon="9.14078908244608"><ele>989.6666666666667</ele><time>2026-04-28T08:24:46.994Z</time></trkpt><trkpt lat="39.923813120888916" lon="9.140738185439634"><ele>987.0</ele><time>2026-04-28T08:24:47.994Z</time></trkpt><trkpt lat="39.923698737725566" lon="9.140609000052837"><ele>992.3333333333333</ele><time>2026-04-28T08:24:48.994Z</time></trkpt><trkpt lat="39.923655514501085" lon="9.140417335275968"><ele>997.6666666666666</ele><time>2026-04-28T08:24:49.994Z</time></trkpt><trkpt lat="39.92363272658016" lon="9.140191181269687"><ele>1003.0</ele><time>2026-04-28T08:24:50.994Z</time></trkpt><trkpt lat="39.92360344714207" lon="9.139941688061521"><ele>1006.3333333333333</ele><time>2026-04-28T08:24:51.994Z</time></trkpt><trkpt lat="39.92356795328734" lon="9.139680556223688"><ele>1009.6666666666667</ele><time>2026-04-28T08:24:52.994Z</time></trkpt><trkpt lat="39.92355340815232" lon="9.13945457532512"><ele>1013.0</ele><time>2026-04-28T08:24:53.994Z</time></trkpt><trkpt lat="39.9234974718361" lon="9.139279502314192"><ele>1010.3333333333334</ele><time>2026-04-28T08:24:54.993Z</time></trkpt><trkpt lat="39.92336751877969" lon="9.139139060507867"><ele>1007.6666666666667</ele><time>2026-04-28T08:24:55.994Z</time></trkpt><trkpt lat="39.92319587079426" lon="9.139106575688276"><ele>1005.0</ele><time>2026-04-28T08:24:56.994Z</time></trkpt><trkpt lat="39.92301530201529" lon="9.139157383091831"><ele>1005.0</ele><time>2026-04-28T08:24:57.994Z</time></trkpt><trkpt lat="39.92284057083501" lon="9.139255821469975"><ele>1005.0</ele><time>2026-04-28T08:24:58.994Z</time></trkpt><trkpt lat="39.92266941867172" lon="9.139365418458697"><ele>1005.0</ele><time>2026-04-28T08:24:59.994Z</time></trkpt><trkpt lat="39.92252972764429" lon="9.139428375794951"><ele>1005.25</ele><time>2026-04-28T08:25:00.994Z</time></trkpt><trkpt lat="39.92239868575196" lon="9.139455868897436"><ele>1005.5</ele><time>2026-04-28T08:25:01.994Z</time></trkpt><trkpt lat="39.922278655013756" lon="9.139393227122172"><ele>1005.75</ele><time>2026-04-28T08:25:02.994Z</time></trkpt><trkpt lat="39.92218010963787" lon="9.139245708861734"><ele>1006.0</ele><time>2026-04-28T08:25:03.994Z</time></trkpt><trkpt lat="39.9221325246418" lon="9.139029399783057"><ele>1009.3333333333333</ele><time>2026-04-28T08:25:04.994Z</time></trkpt><trkpt lat="39.92214107259137" lon="9.138777514009004"><ele>1012.6666666666667</ele><time>2026-04-28T08:25:05.994Z</time></trkpt><trkpt lat="39.9221572598772" lon="9.138519127477968"><ele>1016.0</ele><time>2026-04-28T08:25:06.994Z</time></trkpt><trkpt lat="39.922201786561025" lon="9.138268045398618"><ele>1017.6666666666667</ele><time>2026-04-28T08:25:07.994Z</time></trkpt><trkpt lat="39.92226698212263" lon="9.138032294888683"><ele>1019.3333333333333</ele><time>2026-04-28T08:25:08.994Z</time></trkpt><trkpt lat="39.92232762794128" lon="9.137835899727499"><ele>1021.0</ele><time>2026-04-28T08:25:09.994Z</time></trkpt><trkpt lat="39.92234567744634" lon="9.137660899407637"><ele>1021.0</ele><time>2026-04-28T08:25:10.994Z</time></trkpt><trkpt lat="39.92228409628761" lon="9.137526551470042"><ele>1021.0</ele><time>2026-04-28T08:25:11.994Z</time></trkpt><trkpt lat="39.922161309108674" lon="9.137498191160557"><ele>1021.0</ele><time>2026-04-28T08:25:12.994Z</time></trkpt><trkpt lat="39.92200493879478" lon="9.137559762064758"><ele>1021.0</ele><time>2026-04-28T08:25:13.994Z</time></trkpt><trkpt lat="39.92184685962036" lon="9.13771898820688"><ele>1020.3333333333333</ele><time>2026-04-28T08:25:14.994Z</time></trkpt><trkpt lat="39.92166778930958" lon="9.13783353253701"><ele>1019.6666666666667</ele><time>2026-04-28T08:25:15.994Z</time></trkpt><trkpt lat="39.921497381944114" lon="9.137897905323651"><ele>1019.0</ele><time>2026-04-28T08:25:16.994Z</time></trkpt><trkpt lat="39.92135187159636" lon="9.137871722291289"><ele>1019.0</ele><time>2026-04-28T08:25:17.994Z</time></trkpt><trkpt lat="39.92123896394846" lon="9.137753780671323"><ele>1019.0</ele><time>2026-04-28T08:25:18.994Z</time></trkpt><trkpt lat="39.921201422442984" lon="9.137566172457355"><ele>1019.0</ele><time>2026-04-28T08:25:19.994Z</time></trkpt><trkpt lat="39.92120634387281" lon="9.137340773123702"><ele>1023.0</ele><time>2026-04-28T08:25:20.994Z</time></trkpt><trkpt lat="39.92121232145444" lon="9.137091194025482"><ele>1027.0</ele><time>2026-04-28T08:25:21.994Z</time></trkpt><trkpt lat="39.921181182967445" lon="9.136838010724615"><ele>1031.0</ele><time>2026-04-28T08:25:22.994Z</time></trkpt><trkpt lat="39.921091453984715" lon="9.136607697273565"><ele>1030.6666666666667</ele><time>2026-04-28T08:25:23.994Z</time></trkpt><trkpt lat="39.92097489397736" lon="9.136404052766334"><ele>1030.3333333333333</ele><time>2026-04-28T08:25:24.994Z</time></trkpt><trkpt lat="39.920871997192975" lon="9.136191906865166"><ele>1030.0</ele><time>2026-04-28T08:25:25.994Z</time></trkpt><trkpt lat="39.92079667132092" lon="9.135961279678325"><ele>1033.0</ele><time>2026-04-28T08:25:26.994Z</time></trkpt><trkpt lat="39.92072612993251" lon="9.135718074359666"><ele>1036.0</ele><time>2026-04-28T08:25:27.994Z</time></trkpt><trkpt lat="39.9206367169681" lon="9.135474060871537"><ele>1039.0</ele><time>2026-04-28T08:25:28.994Z</time></trkpt><trkpt lat="39.920544631392865" lon="9.135256875160968"><ele>1039.0</ele><time>2026-04-28T08:25:29.994Z</time></trkpt><trkpt lat="39.92040755645571" lon="9.135097883558398"><ele>1039.0</ele><time>2026-04-28T08:25:30.993Z</time></trkpt><trkpt lat="39.920227105909625" lon="9.135012901995738"><ele>1039.0</ele><time>2026-04-28T08:25:31.993Z</time></trkpt><trkpt lat="39.920032117764336" lon="9.134956864028135"><ele>1038.3333333333333</ele><time>2026-04-28T08:25:32.993Z</time></trkpt><trkpt lat="39.919824995104634" lon="9.13490160446621"><ele>1037.6666666666667</ele><time>2026-04-28T08:25:33.993Z</time></trkpt><trkpt lat="39.91961702869454" lon="9.13483036696835"><ele>1037.0</ele><time>2026-04-28T08:25:34.993Z</time></trkpt><trkpt lat="39.91940780990571" lon="9.134756396882421"><ele>1040.0</ele><time>2026-04-28T08:25:35.993Z</time></trkpt><trkpt lat="39.919200231962435" lon="9.134679797523155"><ele>1043.0</ele><time>2026-04-28T08:25:36.993Z</time></trkpt><trkpt lat="39.919000438960104" lon="9.134599994588605"><ele>1046.0</ele><time>2026-04-28T08:25:37.993Z</time></trkpt><trkpt lat="39.91880654685839" lon="9.134493992907972"><ele>1046.0</ele><time>2026-04-28T08:25:38.993Z</time></trkpt><trkpt lat="39.91864075181974" lon="9.134341382655695"><ele>1046.0</ele><time>2026-04-28T08:25:39.993Z</time></trkpt><trkpt lat="39.91849127454848" lon="9.134153001730853"><ele>1046.0</ele><time>2026-04-28T08:25:40.993Z</time></trkpt><trkpt lat="39.91835176008184" lon="9.133940936672248"><ele>1042.6666666666667</ele><time>2026-04-28T08:25:41.993Z</time></trkpt><trkpt lat="39.91822682117503" lon="9.133720073813057"><ele>1039.3333333333333</ele><time>2026-04-28T08:25:42.993Z</time></trkpt><trkpt lat="39.91813060887054" lon="9.13347198400351"><ele>1036.0</ele><time>2026-04-28T08:25:43.993Z</time></trkpt><trkpt lat="39.918070728785224" lon="9.133215831988759"><ele>1035.0</ele><time>2026-04-28T08:25:44.993Z</time></trkpt><trkpt lat="39.91804508910701" lon="9.132977367360898"><ele>1034.0</ele><time>2026-04-28T08:25:45.993Z</time></trkpt><trkpt lat="39.91803221418355" lon="9.132763876009642"><ele>1033.0</ele><time>2026-04-28T08:25:46.993Z</time></trkpt><trkpt lat="39.91796998528607" lon="9.132589425668264"><ele>1033.0</ele><time>2026-04-28T08:25:47.993Z</time></trkpt><trkpt lat="39.91781709876356" lon="9.132483307655548"><ele>1033.0</ele><time>2026-04-28T08:25:48.993Z</time></trkpt><trkpt lat="39.91763383308476" lon="9.1324104147614"><ele>1033.0</ele><time>2026-04-28T08:25:49.993Z</time></trkpt><trkpt lat="39.91744693705683" lon="9.132323133996573"><ele>1029.3333333333333</ele><time>2026-04-28T08:25:50.993Z</time></trkpt><trkpt lat="39.91725538001695" lon="9.132253026300312"><ele>1025.6666666666667</ele><time>2026-04-28T08:25:51.993Z</time></trkpt><trkpt lat="39.91706212904398" lon="9.132211068083182"><ele>1022.0</ele><time>2026-04-28T08:25:52.993Z</time></trkpt><trkpt lat="39.916874700896166" lon="9.132231490969676"><ele>1020.0</ele><time>2026-04-28T08:25:53.993Z</time></trkpt><trkpt lat="39.91670600698994" lon="9.132329779213736"><ele>1018.0</ele><time>2026-04-28T08:25:54.993Z</time></trkpt><trkpt lat="39.91657327305887" lon="9.132496770404737"><ele>1016.0</ele><time>2026-04-28T08:25:55.993Z</time></trkpt><trkpt lat="39.91647878519203" lon="9.132701492048561"><ele>1016.0</ele><time>2026-04-28T08:25:56.993Z</time></trkpt><trkpt lat="39.91640369582749" lon="9.132931117288864"><ele>1016.0</ele><time>2026-04-28T08:25:57.993Z</time></trkpt><trkpt lat="39.916299038483075" lon="9.133138345332853"><ele>1016.0</ele><time>2026-04-28T08:25:58.993Z</time></trkpt><trkpt lat="39.91615811027409" lon="9.133315839551736"><ele>1016.6666666666667</ele><time>2026-04-28T08:25:59.993Z</time></trkpt><trkpt lat="39.915989721086895" lon="9.133437584798605"><ele>1017.3333333333333</ele><time>2026-04-28T08:26:00.993Z</time></trkpt><trkpt lat="39.91580121837998" lon="9.133474846480597"><ele>1018.0</ele><time>2026-04-28T08:26:01.993Z</time></trkpt><trkpt lat="39.91562784107132" lon="9.133504890695026"><ele>1018.0</ele><time>2026-04-28T08:26:02.993Z</time></trkpt><trkpt lat="39.91548973468806" lon="9.133615346374585"><ele>1018.0</ele><time>2026-04-28T08:26:03.993Z</time></trkpt><trkpt lat="39.915388572324424" lon="9.133794165161923"><ele>1018.0</ele><time>2026-04-28T08:26:04.993Z</time></trkpt><trkpt lat="39.91534517942011" lon="9.134013639434864"><ele>1017.6666666666666</ele><time>2026-04-28T08:26:05.993Z</time></trkpt><trkpt lat="39.915248018207826" lon="9.134204472389452"><ele>1017.3333333333333</ele><time>2026-04-28T08:26:06.993Z</time></trkpt><trkpt lat="39.915102962770305" lon="9.13434085960858"><ele>1017.0</ele><time>2026-04-28T08:26:07.993Z</time></trkpt><trkpt lat="39.914946603049444" lon="9.134461667874703"><ele>1017.0</ele><time>2026-04-28T08:26:08.993Z</time></trkpt><trkpt lat="39.91475962334363" lon="9.134519327837163"><ele>1017.0</ele><time>2026-04-28T08:26:09.993Z</time></trkpt><trkpt lat="39.91456704963475" lon="9.134494411848852"><ele>1017.0</ele><time>2026-04-28T08:26:10.993Z</time></trkpt><trkpt lat="39.91437354700576" lon="9.134486899571753"><ele>1019.0</ele><time>2026-04-28T08:26:11.993Z</time></trkpt><trkpt lat="39.91419852953621" lon="9.134546139071222"><ele>1021.0</ele><time>2026-04-28T08:26:12.993Z</time></trkpt><trkpt lat="39.914030108242656" lon="9.134615038848281"><ele>1023.0</ele><time>2026-04-28T08:26:13.993Z</time></trkpt><trkpt lat="39.91383573869228" lon="9.13457705280241"><ele>1023.0</ele><time>2026-04-28T08:26:14.993Z</time></trkpt><trkpt lat="39.913642804480546" lon="9.13448950045175"><ele>1023.0</ele><time>2026-04-28T08:26:15.993Z</time></trkpt><trkpt lat="39.91347388970913" lon="9.134468241524564"><ele>1023.0</ele><time>2026-04-28T08:26:16.993Z</time></trkpt><trkpt lat="39.91334506749023" lon="9.134556880099312"><ele>1021.6666666666667</ele><time>2026-04-28T08:26:17.993Z</time></trkpt><trkpt lat="39.91324245120403" lon="9.134734479329094"><ele>1020.3333333333334</ele><time>2026-04-28T08:26:18.993Z</time></trkpt><trkpt lat="39.91318805036454" lon="9.134955526795615"><ele>1019.0</ele><time>2026-04-28T08:26:19.993Z</time></trkpt><trkpt lat="39.91313825218018" lon="9.13516804588753"><ele>1016.6666666666667</ele><time>2026-04-28T08:26:20.993Z</time></trkpt><trkpt lat="39.913019826184765" lon="9.135307105841525"><ele>1014.3333333333333</ele><time>2026-04-28T08:26:21.993Z</time></trkpt><trkpt lat="39.9128454040233" lon="9.135362460259513"><ele>1012.0</ele><time>2026-04-28T08:26:22.993Z</time></trkpt><trkpt lat="39.912656988002645" lon="9.1353922667574"><ele>1013.3333333333333</ele><time>2026-04-28T08:26:23.993Z</time></trkpt><trkpt lat="39.91248443140081" lon="9.135474549043359"><ele>1014.6666666666667</ele><time>2026-04-28T08:26:24.993Z</time></trkpt><trkpt lat="39.91231529362354" lon="9.135519075172562"><ele>1016.0</ele><time>2026-04-28T08:26:25.993Z</time></trkpt><trkpt lat="39.91214165614324" lon="9.135477259619071"><ele>1016.0</ele><time>2026-04-28T08:26:26.993Z</time></trkpt><trkpt lat="39.91199549418211" lon="9.135390898520935"><ele>1016.0</ele><time>2026-04-28T08:26:27.993Z</time></trkpt><trkpt lat="39.91186148556041" lon="9.135367083177842"><ele>1016.0</ele><time>2026-04-28T08:26:28.993Z</time></trkpt><trkpt lat="39.91173914406735" lon="9.135459060708516"><ele>1016.0</ele><time>2026-04-28T08:26:29.993Z</time></trkpt><trkpt lat="39.91165867831026" lon="9.135654948599647"><ele>1011.6666666666667</ele><time>2026-04-28T08:26:30.993Z</time></trkpt><trkpt lat="39.911572596766106" lon="9.135862587976193"><ele>1007.3333333333333</ele><time>2026-04-28T08:26:31.993Z</time></trkpt><trkpt lat="39.911446492236266" lon="9.135976873001503"><ele>1003.0</ele><time>2026-04-28T08:26:32.993Z</time></trkpt><trkpt lat="39.91127774989541" lon="9.135983149878129"><ele>1003.0</ele><time>2026-04-28T08:26:33.993Z</time></trkpt><trkpt lat="39.91108301478825" lon="9.135911717869092"><ele>1003.0</ele><time>2026-04-28T08:26:34.993Z</time></trkpt><trkpt lat="39.91088778128666" lon="9.13585324691075"><ele>1003.0</ele><time>2026-04-28T08:26:35.993Z</time></trkpt><trkpt lat="39.9107139994128" lon="9.135805580825572"><ele>1003.0</ele><time>2026-04-28T08:26:36.993Z</time></trkpt><trkpt lat="39.91054972599878" lon="9.135829119209781"><ele>1003.0</ele><time>2026-04-28T08:26:37.992Z</time></trkpt><trkpt lat="39.91041228254236" lon="9.135959744765673"><ele>1003.0</ele><time>2026-04-28T08:26:38.992Z</time></trkpt><trkpt lat="39.91029295133389" lon="9.136128126981832"><ele>1003.0</ele><time>2026-04-28T08:26:39.992Z</time></trkpt><trkpt lat="39.910189077161206" lon="9.136281659544652"><ele>1003.0</ele><time>2026-04-28T08:26:40.992Z</time></trkpt><trkpt lat="39.91007694315476" lon="9.136418795634528"><ele>1003.0</ele><time>2026-04-28T08:26:41.992Z</time></trkpt><trkpt lat="39.90996198648749" lon="9.136516331677488"><ele>1003.0</ele><time>2026-04-28T08:26:42.992Z</time></trkpt><trkpt lat="39.90984863401971" lon="9.13655522445237"><ele>1000.4</ele><time>2026-04-28T08:26:43.992Z</time></trkpt><trkpt lat="39.90974390796526" lon="9.136574046461309"><ele>997.8</ele><time>2026-04-28T08:26:44.992Z</time></trkpt><trkpt lat="39.90964560365637" lon="9.13660361560684"><ele>995.2</ele><time>2026-04-28T08:26:45.992Z</time></trkpt><trkpt lat="39.90956145697325" lon="9.136650602175685"><ele>992.6</ele><time>2026-04-28T08:26:46.992Z</time></trkpt><trkpt lat="39.90947547065784" lon="9.136749812215188"><ele>990.0</ele><time>2026-04-28T08:26:47.992Z</time></trkpt><trkpt lat="39.909379706311384" lon="9.136942256099799"><ele>990.0</ele><time>2026-04-28T08:26:48.993Z</time></trkpt><trkpt lat="39.909272422976876" lon="9.137127859025895"><ele>990.0</ele><time>2026-04-28T08:26:49.993Z</time></trkpt><trkpt lat="39.90914944472019" lon="9.137284639344236"><ele>990.0</ele><time>2026-04-28T08:26:50.993Z</time></trkpt><trkpt lat="39.90898564776971" lon="9.13744598726851"><ele>987.3333333333333</ele><time>2026-04-28T08:26:51.994Z</time></trkpt><trkpt lat="39.90882520943438" lon="9.13758077238193"><ele>984.6666666666666</ele><time>2026-04-28T08:26:52.993Z</time></trkpt><trkpt lat="39.90865900946845" lon="9.137671597009476"><ele>982.0</ele><time>2026-04-28T08:26:53.993Z</time></trkpt><trkpt lat="39.90850483529347" lon="9.137759292214838"><ele>980.6666666666666</ele><time>2026-04-28T08:26:54.993Z</time></trkpt><trkpt lat="39.90838177467269" lon="9.137914445251408"><ele>979.3333333333333</ele><time>2026-04-28T08:26:55.993Z</time></trkpt><trkpt lat="39.908287754683194" lon="9.138149577274023"><ele>978.0</ele><time>2026-04-28T08:26:56.993Z</time></trkpt><trkpt lat="39.9082264409231" lon="9.138436532473785"><ele>978.0</ele><time>2026-04-28T08:26:57.993Z</time></trkpt><trkpt lat="39.90814641543097" lon="9.138652069321799"><ele>978.0</ele><time>2026-04-28T08:26:58.993Z</time></trkpt><trkpt lat="39.90805530005457" lon="9.138851373194319"><ele>978.0</ele><time>2026-04-28T08:26:59.993Z</time></trkpt><trkpt lat="39.90797032089867" lon="9.139037192324134"><ele>974.5</ele><time>2026-04-28T08:27:00.994Z</time></trkpt><trkpt lat="39.90789088473179" lon="9.139209909479305"><ele>971.0</ele><time>2026-04-28T08:27:01.993Z</time></trkpt><trkpt lat="39.90781209982691" lon="9.139375691879145"><ele>967.5</ele><time>2026-04-28T08:27:02.993Z</time></trkpt><trkpt lat="39.90773016101938" lon="9.139517352211298"><ele>964.0</ele><time>2026-04-28T08:27:03.993Z</time></trkpt><trkpt lat="39.907643439680534" lon="9.139656109167808"><ele>965.0</ele><time>2026-04-28T08:27:04.993Z</time></trkpt><trkpt lat="39.907553277117536" lon="9.139782118879216"><ele>966.0</ele><time>2026-04-28T08:27:05.993Z</time></trkpt><trkpt lat="39.907459990160966" lon="9.139890632425685"><ele>967.0</ele><time>2026-04-28T08:27:06.993Z</time></trkpt><trkpt lat="39.907351629207895" lon="9.139950439935562"><ele>968.0</ele><time>2026-04-28T08:27:07.993Z</time></trkpt><trkpt lat="39.9072388122209" lon="9.13994769812724"><ele>971.25</ele><time>2026-04-28T08:27:08.993Z</time></trkpt><trkpt lat="39.90714504879193" lon="9.139878418286827"><ele>974.5</ele><time>2026-04-28T08:27:09.993Z</time></trkpt><trkpt lat="39.907088989832076" lon="9.139744081248374"><ele>977.75</ele><time>2026-04-28T08:27:10.993Z</time></trkpt><trkpt lat="39.90703842232771" lon="9.139602181219763"><ele>981.0</ele><time>2026-04-28T08:27:11.993Z</time></trkpt><trkpt lat="39.906975634043825" lon="9.139458467359743"><ele>981.0</ele><time>2026-04-28T08:27:12.993Z</time></trkpt><trkpt lat="39.90691697838567" lon="9.139306906404464"><ele>981.0</ele><time>2026-04-28T08:27:13.993Z</time></trkpt><trkpt lat="39.90685046608177" lon="9.139148754482349"><ele>981.0</ele><time>2026-04-28T08:27:14.993Z</time></trkpt><trkpt lat="39.9067794408402" lon="9.138989514290136"><ele>981.0</ele><time>2026-04-28T08:27:15.993Z</time></trkpt><trkpt lat="39.906706248385696" lon="9.138822352294511"><ele>980.0</ele><time>2026-04-28T08:27:16.993Z</time></trkpt><trkpt lat="39.90662736512703" lon="9.138652822357024"><ele>979.0</ele><time>2026-04-28T08:27:17.993Z</time></trkpt><trkpt lat="39.90652694404945" lon="9.138513364537799"><ele>978.0</ele><time>2026-04-28T08:27:18.993Z</time></trkpt><trkpt lat="39.906395757921246" lon="9.138412074616127"><ele>978.0</ele><time>2026-04-28T08:27:19.993Z</time></trkpt><trkpt lat="39.90625406987259" lon="9.138334341680148"><ele>978.0</ele><time>2026-04-28T08:27:20.993Z</time></trkpt><trkpt lat="39.906113114313875" lon="9.138255755471695"><ele>978.0</ele><time>2026-04-28T08:27:21.993Z</time></trkpt><trkpt lat="39.90597540191797" lon="9.138168896169464"><ele>977.0</ele><time>2026-04-28T08:27:22.993Z</time></trkpt><trkpt lat="39.90584558628142" lon="9.138104482524945"><ele>976.0</ele><time>2026-04-28T08:27:23.993Z</time></trkpt><trkpt lat="39.90570871030812" lon="9.138082681654835"><ele>975.0</ele><time>2026-04-28T08:27:24.993Z</time></trkpt><trkpt lat="39.90557884268818" lon="9.138095438802331"><ele>974.0</ele><time>2026-04-28T08:27:25.993Z</time></trkpt><trkpt lat="39.905451663898795" lon="9.138140732467528"><ele>974.0</ele><time>2026-04-28T08:27:26.993Z</time></trkpt><trkpt lat="39.905315226940445" lon="9.138147645122105"><ele>974.0</ele><time>2026-04-28T08:27:27.993Z</time></trkpt><trkpt lat="39.90518350593886" lon="9.138061072647687"><ele>974.0</ele><time>2026-04-28T08:27:28.993Z</time></trkpt><trkpt lat="39.905076250538684" lon="9.137925246125047"><ele>974.0</ele><time>2026-04-28T08:27:29.993Z</time></trkpt><trkpt lat="39.90498922211648" lon="9.13775411113007"><ele>968.0</ele><time>2026-04-28T08:27:30.993Z</time></trkpt><trkpt lat="39.90493633604515" lon="9.137549167280564"><ele>962.0</ele><time>2026-04-28T08:27:31.993Z</time></trkpt><trkpt lat="39.90492767271466" lon="9.137319343432624"><ele>956.0</ele><time>2026-04-28T08:27:32.993Z</time></trkpt><trkpt lat="39.904935851933935" lon="9.137081420465735"><ele>955.0</ele><time>2026-04-28T08:27:33.993Z</time></trkpt><trkpt lat="39.90496932144275" lon="9.136836935843338"><ele>954.0</ele><time>2026-04-28T08:27:34.993Z</time></trkpt><trkpt lat="39.90503071626668" lon="9.136596609104094"><ele>953.0</ele><time>2026-04-28T08:27:35.993Z</time></trkpt><trkpt lat="39.905116899275264" lon="9.136371434538118"><ele>958.6666666666667</ele><time>2026-04-28T08:27:36.993Z</time></trkpt><trkpt lat="39.905212169043715" lon="9.13616622138654"><ele>964.3333333333333</ele><time>2026-04-28T08:27:37.992Z</time></trkpt><trkpt lat="39.90528927887276" lon="9.13597453491358"><ele>970.0</ele><time>2026-04-28T08:27:38.992Z</time></trkpt><trkpt lat="39.90530892717954" lon="9.135777056751769"><ele>969.0</ele><time>2026-04-28T08:27:39.992Z</time></trkpt><trkpt lat="39.9052448337717" lon="9.135569851529844"><ele>968.0</ele><time>2026-04-28T08:27:40.992Z</time></trkpt><trkpt lat="39.90513845487281" lon="9.135385616901681"><ele>967.0</ele><time>2026-04-28T08:27:41.992Z</time></trkpt><trkpt lat="39.90501660133719" lon="9.135193420113195"><ele>959.6666666666666</ele><time>2026-04-28T08:27:42.992Z</time></trkpt><trkpt lat="39.90494560930859" lon="9.134965871543226"><ele>952.3333333333333</ele><time>2026-04-28T08:27:43.992Z</time></trkpt><trkpt lat="39.90492319145174" lon="9.134720067333893"><ele>945.0</ele><time>2026-04-28T08:27:44.992Z</time></trkpt><trkpt lat="39.904952135815414" lon="9.134476772109517"><ele>942.6666666666667</ele><time>2026-04-28T08:27:45.992Z</time></trkpt><trkpt lat="39.90501821992208" lon="9.134238236015703"><ele>940.3333333333334</ele><time>2026-04-28T08:27:46.992Z</time></trkpt><trkpt lat="39.90512483656897" lon="9.134020080339047"><ele>938.0</ele><time>2026-04-28T08:27:47.992Z</time></trkpt><trkpt lat="39.90526525828921" lon="9.133838933916751"><ele>935.0</ele><time>2026-04-28T08:27:48.992Z</time></trkpt><trkpt lat="39.90544028987642" lon="9.133703836177856"><ele>932.0</ele><time>2026-04-28T08:27:49.992Z</time></trkpt><trkpt lat="39.905621313760854" lon="9.133580213441409"><ele>929.0</ele><time>2026-04-28T08:27:50.992Z</time></trkpt><trkpt lat="39.90580496135455" lon="9.133458125749884"><ele>925.3333333333334</ele><time>2026-04-28T08:27:51.992Z</time></trkpt><trkpt lat="39.90599387199265" lon="9.1333377933657"><ele>921.6666666666667</ele><time>2026-04-28T08:27:52.992Z</time></trkpt><trkpt lat="39.90619136741211" lon="9.133229371493103"><ele>918.0</ele><time>2026-04-28T08:27:53.992Z</time></trkpt><trkpt lat="39.906392720545526" lon="9.133128659501727"><ele>918.0</ele><time>2026-04-28T08:27:54.992Z</time></trkpt><trkpt lat="39.90658884547115" lon="9.133004550908408"><ele>918.0</ele><time>2026-04-28T08:27:55.992Z</time></trkpt><trkpt lat="39.90677514052167" lon="9.132856721820948"><ele>918.0</ele><time>2026-04-28T08:27:56.992Z</time></trkpt><trkpt lat="39.90695173320632" lon="9.13268556019419"><ele>914.6666666666667</ele><time>2026-04-28T08:27:57.992Z</time></trkpt><trkpt lat="39.90712183411549" lon="9.132517991647429"><ele>911.3333333333334</ele><time>2026-04-28T08:27:58.992Z</time></trkpt><trkpt lat="39.90728090552219" lon="9.132364211268198"><ele>908.0</ele><time>2026-04-28T08:27:59.992Z</time></trkpt><trkpt lat="39.90744559664577" lon="9.132260382798021"><ele>908.6666666666667</ele><time>2026-04-28T08:28:00.992Z</time></trkpt><trkpt lat="39.907635382911295" lon="9.132241407523768"><ele>909.3333333333333</ele><time>2026-04-28T08:28:01.992Z</time></trkpt><trkpt lat="39.90781902788769" lon="9.13228417037886"><ele>910.0</ele><time>2026-04-28T08:28:02.992Z</time></trkpt><trkpt lat="39.90797559744761" lon="9.132371660938269"><ele>910.0</ele><time>2026-04-28T08:28:03.992Z</time></trkpt><trkpt lat="39.90811428258271" lon="9.1324118586958"><ele>910.0</ele><time>2026-04-28T08:28:04.992Z</time></trkpt><trkpt lat="39.90823167720106" lon="9.13236457889692"><ele>910.0</ele><time>2026-04-28T08:28:05.992Z</time></trkpt><trkpt lat="39.90831862880816" lon="9.13219975906478"><ele>910.0</ele><time>2026-04-28T08:28:06.992Z</time></trkpt><trkpt lat="39.90836149715684" lon="9.131975822604327"><ele>910.0</ele><time>2026-04-28T08:28:07.992Z</time></trkpt><trkpt lat="39.90844657617945" lon="9.131746376541184"><ele>910.0</ele><time>2026-04-28T08:28:08.992Z</time></trkpt><trkpt lat="39.908558795163344" lon="9.131541064414783"><ele>910.0</ele><time>2026-04-28T08:28:09.992Z</time></trkpt><trkpt lat="39.908701966114776" lon="9.131377068946083"><ele>910.0</ele><time>2026-04-28T08:28:10.992Z</time></trkpt><trkpt lat="39.90887041937849" lon="9.131244606098344"><ele>910.0</ele><time>2026-04-28T08:28:11.992Z</time></trkpt><trkpt lat="39.909043488659655" lon="9.131117379761829"><ele>910.0</ele><time>2026-04-28T08:28:12.992Z</time></trkpt><trkpt lat="39.90917730924257" lon="9.130938809971205"><ele>914.3333333333333</ele><time>2026-04-28T08:28:13.992Z</time></trkpt><trkpt lat="39.909263906489386" lon="9.130713238794483"><ele>918.6666666666667</ele><time>2026-04-28T08:28:14.992Z</time></trkpt><trkpt lat="39.909335259970824" lon="9.130482009968903"><ele>923.0</ele><time>2026-04-28T08:28:15.992Z</time></trkpt><trkpt lat="39.90939927684658" lon="9.1302614092504"><ele>923.0</ele><time>2026-04-28T08:28:16.992Z</time></trkpt><trkpt lat="39.909409143365544" lon="9.13003462682716"><ele>923.0</ele><time>2026-04-28T08:28:17.992Z</time></trkpt><trkpt lat="39.90937848486162" lon="9.129779795775685"><ele>923.0</ele><time>2026-04-28T08:28:18.992Z</time></trkpt><trkpt lat="39.90931801248688" lon="9.12954513633368"><ele>918.5</ele><time>2026-04-28T08:28:19.992Z</time></trkpt><trkpt lat="39.90924757321755" lon="9.1293547793485"><ele>914.0</ele><time>2026-04-28T08:28:20.992Z</time></trkpt><trkpt lat="39.90920569035529" lon="9.12919895853739"><ele>909.5</ele><time>2026-04-28T08:28:21.992Z</time></trkpt><trkpt lat="39.909253465442106" lon="9.12906458877716"><ele>905.0</ele><time>2026-04-28T08:28:22.992Z</time></trkpt><trkpt lat="39.909371065511884" lon="9.128973781711792"><ele>899.6666666666667</ele><time>2026-04-28T08:28:23.992Z</time></trkpt><trkpt lat="39.90953499998369" lon="9.128957393654579"><ele>894.3333333333333</ele><time>2026-04-28T08:28:24.992Z</time></trkpt><trkpt lat="39.9097380211161" lon="9.128994169995352"><ele>889.0</ele><time>2026-04-28T08:28:25.992Z</time></trkpt><trkpt lat="39.90993989652399" lon="9.129027784155147"><ele>899.3333333333333</ele><time>2026-04-28T08:28:26.992Z</time></trkpt><trkpt lat="39.91012129090866" lon="9.129052413067221"><ele>909.6666666666667</ele><time>2026-04-28T08:28:27.992Z</time></trkpt><trkpt lat="39.910290581432236" lon="9.129052838198199"><ele>920.0</ele><time>2026-04-28T08:28:28.992Z</time></trkpt><trkpt lat="39.91041707957533" lon="9.1289903737525"><ele>920.0</ele><time>2026-04-28T08:28:29.992Z</time></trkpt><trkpt lat="39.91048524195899" lon="9.128856707800491"><ele>920.0</ele><time>2026-04-28T08:28:30.992Z</time></trkpt><trkpt lat="39.91049167372753" lon="9.128688648576434"><ele>920.0</ele><time>2026-04-28T08:28:31.992Z</time></trkpt><trkpt lat="39.910410255668424" lon="9.128524956680938"><ele>920.0</ele><time>2026-04-28T08:28:32.992Z</time></trkpt><trkpt lat="39.910261406424766" lon="9.128398685150795"><ele>920.0</ele><time>2026-04-28T08:28:33.992Z</time></trkpt><trkpt lat="39.91014494535379" lon="9.128264220531959"><ele>920.0</ele><time>2026-04-28T08:28:34.992Z</time></trkpt><trkpt lat="39.91011072407844" lon="9.128081805060143"><ele>920.0</ele><time>2026-04-28T08:28:35.992Z</time></trkpt><trkpt lat="39.91014748903569" lon="9.127858291769508"><ele>922.3333333333334</ele><time>2026-04-28T08:28:36.992Z</time></trkpt><trkpt lat="39.91016907627799" lon="9.127626119046528"><ele>924.6666666666667</ele><time>2026-04-28T08:28:37.992Z</time></trkpt><trkpt lat="39.91014410459613" lon="9.127409288267968"><ele>927.0</ele><time>2026-04-28T08:28:38.992Z</time></trkpt><trkpt lat="39.91007453719123" lon="9.12724557406599"><ele>920.25</ele><time>2026-04-28T08:28:39.992Z</time></trkpt><trkpt lat="39.909975831032476" lon="9.12718058403756"><ele>913.5</ele><time>2026-04-28T08:28:40.992Z</time></trkpt><trkpt lat="39.909852640446175" lon="9.127165417485896"><ele>906.75</ele><time>2026-04-28T08:28:41.992Z</time></trkpt><trkpt lat="39.90976144459336" lon="9.127043639080837"><ele>900.0</ele><time>2026-04-28T08:28:42.992Z</time></trkpt><trkpt lat="39.90974112188859" lon="9.126851712955812"><ele>900.0</ele><time>2026-04-28T08:28:43.992Z</time></trkpt><trkpt lat="39.9097051174631" lon="9.126616974469604"><ele>900.0</ele><time>2026-04-28T08:28:44.991Z</time></trkpt><trkpt lat="39.909435777262715" lon="9.126191720405597"><ele>901.0</ele><time>2026-04-28T08:28:45.991Z</time></trkpt><trkpt lat="39.909387280835865" lon="9.125923611947947"><ele>902.0</ele><time>2026-04-28T08:28:46.991Z</time></trkpt><trkpt lat="39.90934879867142" lon="9.125682844324855"><ele>903.0</ele><time>2026-04-28T08:28:47.991Z</time></trkpt><trkpt lat="39.9093619416087" lon="9.125465933717816"><ele>899.6666666666667</ele><time>2026-04-28T08:28:48.991Z</time></trkpt><trkpt lat="39.909451999144125" lon="9.125292281933554"><ele>896.3333333333334</ele><time>2026-04-28T08:28:49.991Z</time></trkpt><trkpt lat="39.9095367608849" lon="9.125093883825816"><ele>893.0</ele><time>2026-04-28T08:28:50.991Z</time></trkpt><trkpt lat="39.90958149971386" lon="9.124857556672282"><ele>887.6666666666667</ele><time>2026-04-28T08:28:51.991Z</time></trkpt><trkpt lat="39.909615983957515" lon="9.124620928061946"><ele>882.3333333333333</ele><time>2026-04-28T08:28:52.991Z</time></trkpt><trkpt lat="39.90962894116519" lon="9.124385375535237"><ele>877.0</ele><time>2026-04-28T08:28:53.991Z</time></trkpt><trkpt lat="39.9097397622078" lon="9.124178110992418"><ele>876.6666666666666</ele><time>2026-04-28T08:28:54.993Z</time></trkpt><trkpt lat="39.90988559424836" lon="9.124005928729758"><ele>876.3333333333333</ele><time>2026-04-28T08:28:55.993Z</time></trkpt><trkpt lat="39.91002053841455" lon="9.12381899911504"><ele>876.0</ele><time>2026-04-28T08:28:56.993Z</time></trkpt><trkpt lat="39.91013437160737" lon="9.12360388299831"><ele>876.0</ele><time>2026-04-28T08:28:57.993Z</time></trkpt><trkpt lat="39.910245555638205" lon="9.123380147937732"><ele>876.0</ele><time>2026-04-28T08:28:58.993Z</time></trkpt><trkpt lat="39.91041356049004" lon="9.123210079202144"><ele>876.0</ele><time>2026-04-28T08:28:59.993Z</time></trkpt><trkpt lat="39.910598357707876" lon="9.123084894549587"><ele>872.3333333333333</ele><time>2026-04-28T08:29:00.993Z</time></trkpt><trkpt lat="39.910768075066514" lon="9.12293741989345"><ele>868.6666666666666</ele><time>2026-04-28T08:29:01.993Z</time></trkpt><trkpt lat="39.91092762359676" lon="9.122778600579569"><ele>865.0</ele><time>2026-04-28T08:29:02.992Z</time></trkpt><trkpt lat="39.91108573855987" lon="9.12260290717514"><ele>865.0</ele><time>2026-04-28T08:29:03.993Z</time></trkpt><trkpt lat="39.91124568018714" lon="9.122429309015631"><ele>865.0</ele><time>2026-04-28T08:29:04.992Z</time></trkpt><trkpt lat="39.911422861259496" lon="9.122284802050121"><ele>865.0</ele><time>2026-04-28T08:29:05.992Z</time></trkpt><trkpt lat="39.9116150812408" lon="9.122182315692735"><ele>857.6666666666666</ele><time>2026-04-28T08:29:06.993Z</time></trkpt><trkpt lat="39.9118109441898" lon="9.12210106826181"><ele>850.3333333333333</ele><time>2026-04-28T08:29:07.993Z</time></trkpt><trkpt lat="39.91202729000068" lon="9.122130596502078"><ele>843.0</ele><time>2026-04-28T08:29:08.993Z</time></trkpt><trkpt lat="39.912195881248934" lon="9.122154507502623"><ele>843.0</ele><time>2026-04-28T08:29:09.993Z</time></trkpt><trkpt lat="39.91233064239848" lon="9.12221043913297"><ele>843.0</ele><time>2026-04-28T08:29:10.993Z</time></trkpt><trkpt lat="39.91243274642165" lon="9.122232536651323"><ele>843.0</ele><time>2026-04-28T08:29:11.993Z</time></trkpt><trkpt lat="39.9125061745139" lon="9.122148038518299"><ele>843.0</ele><time>2026-04-28T08:29:12.993Z</time></trkpt><trkpt lat="39.91252307500574" lon="9.121992343773943"><ele>843.0</ele><time>2026-04-28T08:29:13.993Z</time></trkpt><trkpt lat="39.91244753070417" lon="9.121825486445097"><ele>843.0</ele><time>2026-04-28T08:29:14.993Z</time></trkpt><trkpt lat="39.91231635077448" lon="9.121725262724206"><ele>843.0</ele><time>2026-04-28T08:29:15.993Z</time></trkpt><trkpt lat="39.91213095410921" lon="9.121728809440105"><ele>843.0</ele><time>2026-04-28T08:29:16.993Z</time></trkpt><trkpt lat="39.91194171864738" lon="9.12174255891513"><ele>843.0</ele><time>2026-04-28T08:29:17.993Z</time></trkpt><trkpt lat="39.91175494243812" lon="9.121744957129621"><ele>843.0</ele><time>2026-04-28T08:29:18.993Z</time></trkpt><trkpt lat="39.91156804197686" lon="9.121775417339471"><ele>845.0</ele><time>2026-04-28T08:29:19.993Z</time></trkpt><trkpt lat="39.91138802495013" lon="9.121832610126845"><ele>847.0</ele><time>2026-04-28T08:29:20.993Z</time></trkpt><trkpt lat="39.911211351151124" lon="9.121934697769731"><ele>849.0</ele><time>2026-04-28T08:29:21.993Z</time></trkpt><trkpt lat="39.91105449831571" lon="9.122076559500327"><ele>845.6666666666667</ele><time>2026-04-28T08:29:22.993Z</time></trkpt><trkpt lat="39.91088951695206" lon="9.122215416352331"><ele>842.3333333333334</ele><time>2026-04-28T08:29:23.993Z</time></trkpt><trkpt lat="39.9107111702037" lon="9.12230240196899"><ele>839.0</ele><time>2026-04-28T08:29:24.993Z</time></trkpt><trkpt lat="39.910531964643745" lon="9.122335796496857"><ele>839.0</ele><time>2026-04-28T08:29:25.993Z</time></trkpt><trkpt lat="39.91037123189547" lon="9.122304120311242"><ele>839.0</ele><time>2026-04-28T08:29:26.993Z</time></trkpt><trkpt lat="39.91022878108765" lon="9.12220187770981"><ele>839.0</ele><time>2026-04-28T08:29:27.993Z</time></trkpt><trkpt lat="39.91012463849665" lon="9.122028208684743"><ele>839.0</ele><time>2026-04-28T08:29:28.993Z</time></trkpt><trkpt lat="39.91008294122802" lon="9.121824358992292"><ele>839.0</ele><time>2026-04-28T08:29:29.993Z</time></trkpt><trkpt lat="39.91006565111735" lon="9.121640464797547"><ele>839.0</ele><time>2026-04-28T08:29:30.993Z</time></trkpt><trkpt lat="39.90999269299751" lon="9.121519972250514"><ele>839.0</ele><time>2026-04-28T08:29:31.993Z</time></trkpt><trkpt lat="39.90985099062004" lon="9.121531222853614"><ele>839.3333333333334</ele><time>2026-04-28T08:29:32.993Z</time></trkpt><trkpt lat="39.909713599423974" lon="9.121641989425589"><ele>839.6666666666667</ele><time>2026-04-28T08:29:33.993Z</time></trkpt><trkpt lat="39.90961226948178" lon="9.121886279298192"><ele>840.0</ele><time>2026-04-28T08:29:34.993Z</time></trkpt><trkpt lat="39.909548044491345" lon="9.122144098066093"><ele>840.0</ele><time>2026-04-28T08:29:35.993Z</time></trkpt><trkpt lat="39.90947862277068" lon="9.122383562022575"><ele>840.0</ele><time>2026-04-28T08:29:36.992Z</time></trkpt><trkpt lat="39.90940551747545" lon="9.122616501059015"><ele>840.0</ele><time>2026-04-28T08:29:37.992Z</time></trkpt><trkpt lat="39.909328512428395" lon="9.122825608216402"><ele>838.75</ele><time>2026-04-28T08:29:38.992Z</time></trkpt><trkpt lat="39.909237869229685" lon="9.122925606485335"><ele>837.5</ele><time>2026-04-28T08:29:39.992Z</time></trkpt><trkpt lat="39.90907745632136" lon="9.12292160915949"><ele>836.25</ele><time>2026-04-28T08:29:40.992Z</time></trkpt><trkpt lat="39.90893459873945" lon="9.12283576873791"><ele>835.0</ele><time>2026-04-28T08:29:41.992Z</time></trkpt><trkpt lat="39.90878638263914" lon="9.122795757408067"><ele>835.0</ele><time>2026-04-28T08:29:42.992Z</time></trkpt><trkpt lat="39.90861261493292" lon="9.122849641397993"><ele>835.0</ele><time>2026-04-28T08:29:43.992Z</time></trkpt><trkpt lat="39.9084731025924" lon="9.122988481070664"><ele>835.0</ele><time>2026-04-28T08:29:44.992Z</time></trkpt><trkpt lat="39.90842225856742" lon="9.123214664560694"><ele>839.0</ele><time>2026-04-28T08:29:45.992Z</time></trkpt><trkpt lat="39.90847170661879" lon="9.123471607270645"><ele>843.0</ele><time>2026-04-28T08:29:46.992Z</time></trkpt><trkpt lat="39.908514981362636" lon="9.123694310386634"><ele>847.0</ele><time>2026-04-28T08:29:47.992Z</time></trkpt><trkpt lat="39.90845114396382" lon="9.12388304950392"><ele>843.3333333333333</ele><time>2026-04-28T08:29:48.992Z</time></trkpt><trkpt lat="39.90832751688064" lon="9.124019254318537"><ele>839.6666666666667</ele><time>2026-04-28T08:29:49.992Z</time></trkpt><trkpt lat="39.908153316786695" lon="9.124156213930378"><ele>836.0</ele><time>2026-04-28T08:29:50.992Z</time></trkpt><trkpt lat="39.90794556995491" lon="9.124239927108906"><ele>836.0</ele><time>2026-04-28T08:29:51.992Z</time></trkpt><trkpt lat="39.907745117324545" lon="9.124380298736115"><ele>836.0</ele><time>2026-04-28T08:29:52.992Z</time></trkpt><trkpt lat="39.907571200658545" lon="9.124508514538144"><ele>836.0</ele><time>2026-04-28T08:29:53.992Z</time></trkpt><trkpt lat="39.90740879265958" lon="9.124610511547987"><ele>830.6666666666667</ele><time>2026-04-28T08:29:54.992Z</time></trkpt><trkpt lat="39.907230573440096" lon="9.124672578667838"><ele>825.3333333333333</ele><time>2026-04-28T08:29:55.992Z</time></trkpt><trkpt lat="39.90707056715937" lon="9.124585988575976"><ele>820.0</ele><time>2026-04-28T08:29:56.992Z</time></trkpt><trkpt lat="39.90692802273712" lon="9.124435560295508"><ele>820.0</ele><time>2026-04-28T08:29:57.992Z</time></trkpt><trkpt lat="39.906822112160604" lon="9.124219001471353"><ele>820.0</ele><time>2026-04-28T08:29:58.992Z</time></trkpt><trkpt lat="39.90675237396972" lon="9.123931477345424"><ele>820.0</ele><time>2026-04-28T08:29:59.992Z</time></trkpt><trkpt lat="39.906715337872086" lon="9.123656027222667"><ele>817.6666666666666</ele><time>2026-04-28T08:30:00.992Z</time></trkpt><trkpt lat="39.90665925755" lon="9.12341150332915"><ele>815.3333333333333</ele><time>2026-04-28T08:30:01.992Z</time></trkpt><trkpt lat="39.90659738872627" lon="9.123187775486203"><ele>813.0</ele><time>2026-04-28T08:30:02.992Z</time></trkpt><trkpt lat="39.9064841732763" lon="9.123062468277098"><ele>813.0</ele><time>2026-04-28T08:30:03.992Z</time></trkpt><trkpt lat="39.906344799966945" lon="9.12309606231688"><ele>813.0</ele><time>2026-04-28T08:30:04.992Z</time></trkpt><trkpt lat="39.906189843441865" lon="9.12320977391332"><ele>813.0</ele><time>2026-04-28T08:30:05.992Z</time></trkpt><trkpt lat="39.906065120005934" lon="9.123378237587582"><ele>813.0</ele><time>2026-04-28T08:30:06.992Z</time></trkpt><trkpt lat="39.90592960379099" lon="9.123614932017844"><ele>813.0</ele><time>2026-04-28T08:30:07.992Z</time></trkpt><trkpt lat="39.90577260951745" lon="9.123805668072109"><ele>813.0</ele><time>2026-04-28T08:30:08.992Z</time></trkpt><trkpt lat="39.905615883859426" lon="9.123957835320821"><ele>814.6666666666667</ele><time>2026-04-28T08:30:09.992Z</time></trkpt><trkpt lat="39.90544136022174" lon="9.124063833182888"><ele>816.3333333333334</ele><time>2026-04-28T08:30:10.992Z</time></trkpt><trkpt lat="39.90527870615858" lon="9.124184471448332"><ele>818.0</ele><time>2026-04-28T08:30:11.992Z</time></trkpt><trkpt lat="39.90512437297247" lon="9.12433413968462"><ele>815.0</ele><time>2026-04-28T08:30:12.992Z</time></trkpt><trkpt lat="39.90498122808594" lon="9.12449605554966"><ele>812.0</ele><time>2026-04-28T08:30:13.992Z</time></trkpt><trkpt lat="39.90485398020939" lon="9.12464943769312"><ele>809.0</ele><time>2026-04-28T08:30:14.992Z</time></trkpt><trkpt lat="39.90471566469152" lon="9.124732683824691"><ele>809.0</ele><time>2026-04-28T08:30:15.992Z</time></trkpt><trkpt lat="39.9045715459318" lon="9.124699294814734"><ele>809.0</ele><time>2026-04-28T08:30:16.992Z</time></trkpt><trkpt lat="39.90443379517238" lon="9.12453696327199"><ele>809.0</ele><time>2026-04-28T08:30:17.992Z</time></trkpt><trkpt lat="39.90431851023694" lon="9.124304291339511"><ele>810.0</ele><time>2026-04-28T08:30:18.992Z</time></trkpt><trkpt lat="39.904230048487655" lon="9.124074471116051"><ele>811.0</ele><time>2026-04-28T08:30:19.992Z</time></trkpt><trkpt lat="39.90415483298357" lon="9.123849173936778"><ele>812.0</ele><time>2026-04-28T08:30:20.992Z</time></trkpt><trkpt lat="39.904091969073136" lon="9.123621720281758"><ele>809.0</ele><time>2026-04-28T08:30:21.992Z</time></trkpt><trkpt lat="39.90405676192308" lon="9.123371145998325"><ele>806.0</ele><time>2026-04-28T08:30:22.992Z</time></trkpt><trkpt lat="39.9040562001412" lon="9.123127868493953"><ele>803.0</ele><time>2026-04-28T08:30:23.992Z</time></trkpt><trkpt lat="39.904050634429524" lon="9.122916580623167"><ele>802.25</ele><time>2026-04-28T08:30:24.992Z</time></trkpt><trkpt lat="39.90396058431298" lon="9.12275799412092"><ele>801.5</ele><time>2026-04-28T08:30:25.992Z</time></trkpt><trkpt lat="39.90384454885746" lon="9.122658140195806"><ele>800.75</ele><time>2026-04-28T08:30:26.992Z</time></trkpt><trkpt lat="39.903748614691125" lon="9.122565307271032"><ele>800.0</ele><time>2026-04-28T08:30:27.992Z</time></trkpt><trkpt lat="39.90369129666877" lon="9.122469782162185"><ele>800.0000000000001</ele><time>2026-04-28T08:30:28.992Z</time></trkpt><trkpt lat="39.903655987565635" lon="9.122400671679886"><ele>800.0</ele><time>2026-04-28T08:30:29.992Z</time></trkpt><trkpt lat="39.9035960268886" lon="9.122366052004482"><ele>800.0</ele><time>2026-04-28T08:30:36.992Z</time></trkpt><trkpt lat="39.90347708040262" lon="9.122358369608841"><ele>800.0</ele><time>2026-04-28T08:30:38.992Z</time></trkpt><trkpt lat="39.90339094097976" lon="9.1223774489972"><ele>800.0000000000001</ele><time>2026-04-28T08:30:39.992Z</time></trkpt><trkpt lat="39.90328765480519" lon="9.122404755260577"><ele>800.0</ele><time>2026-04-28T08:30:40.992Z</time></trkpt><trkpt lat="39.90317849983245" lon="9.122426932154347"><ele>801.5</ele><time>2026-04-28T08:30:41.992Z</time></trkpt><trkpt lat="39.9030600858382" lon="9.122430192235313"><ele>803.0</ele><time>2026-04-28T08:30:42.992Z</time></trkpt><trkpt lat="39.90293348154837" lon="9.12239892304243"><ele>804.5</ele><time>2026-04-28T08:30:43.991Z</time></trkpt><trkpt lat="39.902811184960576" lon="9.12231578205538"><ele>806.0</ele><time>2026-04-28T08:30:44.991Z</time></trkpt><trkpt lat="39.90270605971615" lon="9.122193874835702"><ele>804.0</ele><time>2026-04-28T08:30:45.991Z</time></trkpt><trkpt lat="39.90260119377774" lon="9.122051219676074"><ele>802.0</ele><time>2026-04-28T08:30:46.991Z</time></trkpt><trkpt lat="39.902484583559385" lon="9.121924897482673"><ele>800.0</ele><time>2026-04-28T08:30:47.991Z</time></trkpt><trkpt lat="39.902363007789894" lon="9.121803446413535"><ele>800.0</ele><time>2026-04-28T08:30:48.991Z</time></trkpt><trkpt lat="39.902230081801115" lon="9.12167769742356"><ele>800.0</ele><time>2026-04-28T08:30:49.991Z</time></trkpt><trkpt lat="39.902091293240176" lon="9.121547713597177"><ele>800.0</ele><time>2026-04-28T08:30:50.991Z</time></trkpt><trkpt lat="39.901943161075906" lon="9.121405176731265"><ele>800.0</ele><time>2026-04-28T08:30:51.991Z</time></trkpt><trkpt lat="39.90179814969576" lon="9.121256705070872"><ele>800.0</ele><time>2026-04-28T08:30:52.991Z</time></trkpt><trkpt lat="39.90165405352509" lon="9.12110178475647"><ele>800.0</ele><time>2026-04-28T08:30:53.991Z</time></trkpt><trkpt lat="39.901504472281154" lon="9.120943959095444"><ele>800.0</ele><time>2026-04-28T08:30:54.991Z</time></trkpt><trkpt lat="39.901349820552774" lon="9.12078931414137"><ele>800.0</ele><time>2026-04-28T08:30:55.991Z</time></trkpt><trkpt lat="39.90119957295388" lon="9.120637287705819"><ele>800.0</ele><time>2026-04-28T08:30:56.991Z</time></trkpt><trkpt lat="39.901044483839776" lon="9.12048650671955"><ele>801.0</ele><time>2026-04-28T08:30:57.991Z</time></trkpt><trkpt lat="39.90088620069321" lon="9.12033127045319"><ele>802.0</ele><time>2026-04-28T08:30:58.991Z</time></trkpt><trkpt lat="39.90073568096829" lon="9.120166767559578"><ele>803.0</ele><time>2026-04-28T08:30:59.993Z</time></trkpt><trkpt lat="39.90058496653155" lon="9.120006588651856"><ele>804.3333333333334</ele><time>2026-04-28T08:31:00.993Z</time></trkpt><trkpt lat="39.90042609089594" lon="9.119848046139428"><ele>805.6666666666667</ele><time>2026-04-28T08:31:01.993Z</time></trkpt><trkpt lat="39.90026246626033" lon="9.11969160748122"><ele>807.0</ele><time>2026-04-28T08:31:02.993Z</time></trkpt><trkpt lat="39.90009410520202" lon="9.119530588449622"><ele>806.3333333333333</ele><time>2026-04-28T08:31:03.993Z</time></trkpt><trkpt lat="39.89993053144351" lon="9.119355363575227"><ele>805.6666666666666</ele><time>2026-04-28T08:31:04.993Z</time></trkpt><trkpt lat="39.89976794312531" lon="9.119178157110534"><ele>805.0</ele><time>2026-04-28T08:31:05.993Z</time></trkpt><trkpt lat="39.89960438303606" lon="9.119013907977086"><ele>807.6666666666666</ele><time>2026-04-28T08:31:06.993Z</time></trkpt><trkpt lat="39.89944181154963" lon="9.118850829488307"><ele>810.3333333333333</ele><time>2026-04-28T08:31:07.993Z</time></trkpt><trkpt lat="39.899284154743" lon="9.118694132140405"><ele>813.0</ele><time>2026-04-28T08:31:08.993Z</time></trkpt><trkpt lat="39.89912035939115" lon="9.118568768393901"><ele>813.0</ele><time>2026-04-28T08:31:09.992Z</time></trkpt><trkpt lat="39.898937692273435" lon="9.118503514514934"><ele>813.0</ele><time>2026-04-28T08:31:10.992Z</time></trkpt><trkpt lat="39.89873591188982" lon="9.118489830704979"><ele>813.0</ele><time>2026-04-28T08:31:11.993Z</time></trkpt><trkpt lat="39.89853782805352" lon="9.118491754606206"><ele>814.0</ele><time>2026-04-28T08:31:12.993Z</time></trkpt><trkpt lat="39.898334480092885" lon="9.118479124107564"><ele>815.0</ele><time>2026-04-28T08:31:13.993Z</time></trkpt><trkpt lat="39.89812920568334" lon="9.118463351154404"><ele>816.0</ele><time>2026-04-28T08:31:14.993Z</time></trkpt><trkpt lat="39.897928193377446" lon="9.118445019050236"><ele>816.0</ele><time>2026-04-28T08:31:15.993Z</time></trkpt><trkpt lat="39.897730411240545" lon="9.118428336441813"><ele>816.0</ele><time>2026-04-28T08:31:16.993Z</time></trkpt><trkpt lat="39.897523723996244" lon="9.118411394723609"><ele>816.0</ele><time>2026-04-28T08:31:17.993Z</time></trkpt><trkpt lat="39.897316671381205" lon="9.118398740394477"><ele>818.0</ele><time>2026-04-28T08:31:18.993Z</time></trkpt><trkpt lat="39.89710706068861" lon="9.118377023958395"><ele>820.0</ele><time>2026-04-28T08:31:19.993Z</time></trkpt><trkpt lat="39.89689552936935" lon="9.118361798777107"><ele>822.0</ele><time>2026-04-28T08:31:20.993Z</time></trkpt><trkpt lat="39.896685322696456" lon="9.118347276372264"><ele>822.6666666666667</ele><time>2026-04-28T08:31:21.993Z</time></trkpt><trkpt lat="39.89647903611484" lon="9.118333220610152"><ele>823.3333333333334</ele><time>2026-04-28T08:31:22.993Z</time></trkpt><trkpt lat="39.89627056313625" lon="9.118314845331506"><ele>824.0</ele><time>2026-04-28T08:31:23.993Z</time></trkpt><trkpt lat="39.89606208915349" lon="9.11829382879882"><ele>825.0</ele><time>2026-04-28T08:31:24.993Z</time></trkpt><trkpt lat="39.89585795537758" lon="9.118278215148438"><ele>826.0</ele><time>2026-04-28T08:31:25.993Z</time></trkpt><trkpt lat="39.89565698004908" lon="9.118271011670902"><ele>827.0</ele><time>2026-04-28T08:31:26.993Z</time></trkpt><trkpt lat="39.89545049842213" lon="9.11828046730551"><ele>827.0</ele><time>2026-04-28T08:31:27.993Z</time></trkpt><trkpt lat="39.89524319306512" lon="9.118307806582353"><ele>827.0</ele><time>2026-04-28T08:31:28.993Z</time></trkpt><trkpt lat="39.895032500836656" lon="9.118340340620993"><ele>827.0</ele><time>2026-04-28T08:31:29.993Z</time></trkpt><trkpt lat="39.89482204506364" lon="9.118370133879552"><ele>828.0</ele><time>2026-04-28T08:31:30.993Z</time></trkpt><trkpt lat="39.89461475122593" lon="9.118401017876579"><ele>829.0</ele><time>2026-04-28T08:31:31.993Z</time></trkpt><trkpt lat="39.89440408202596" lon="9.118429055555172"><ele>830.0</ele><time>2026-04-28T08:31:32.993Z</time></trkpt><trkpt lat="39.89419373679384" lon="9.118457335788015"><ele>831.3333333333334</ele><time>2026-04-28T08:31:33.993Z</time></trkpt><trkpt lat="39.89398271443193" lon="9.11847712771076"><ele>832.6666666666667</ele><time>2026-04-28T08:31:34.993Z</time></trkpt><trkpt lat="39.893773254520305" lon="9.118498040702294"><ele>834.0</ele><time>2026-04-28T08:31:35.993Z</time></trkpt><trkpt lat="39.89356884531639" lon="9.118527992100173"><ele>835.0</ele><time>2026-04-28T08:31:36.993Z</time></trkpt><trkpt lat="39.89336937047188" lon="9.118560798859093"><ele>836.0</ele><time>2026-04-28T08:31:37.993Z</time></trkpt><trkpt lat="39.89316827379133" lon="9.118590773233747"><ele>837.0</ele><time>2026-04-28T08:31:38.992Z</time></trkpt><trkpt lat="39.89296558023329" lon="9.118615244631966"><ele>837.0</ele><time>2026-04-28T08:31:39.992Z</time></trkpt><trkpt lat="39.89276336718614" lon="9.118634471175492"><ele>837.0</ele><time>2026-04-28T08:31:40.992Z</time></trkpt><trkpt lat="39.89257093687421" lon="9.118661550158821"><ele>837.0</ele><time>2026-04-28T08:31:41.992Z</time></trkpt><trkpt lat="39.892378768156085" lon="9.118684574460428"><ele>837.3333333333333</ele><time>2026-04-28T08:31:42.992Z</time></trkpt><trkpt lat="39.892203332212816" lon="9.118710336583424"><ele>837.6666666666666</ele><time>2026-04-28T08:31:43.992Z</time></trkpt><trkpt lat="39.89204297576989" lon="9.118740466599242"><ele>838.0</ele><time>2026-04-28T08:31:44.992Z</time></trkpt><trkpt lat="39.89188636803952" lon="9.11876136108081"><ele>838.0</ele><time>2026-04-28T08:31:45.992Z</time></trkpt><trkpt lat="39.891740952783294" lon="9.118775220704133"><ele>838.0</ele><time>2026-04-28T08:31:46.992Z</time></trkpt><trkpt lat="39.89161385490572" lon="9.118791313237713"><ele>838.0</ele><time>2026-04-28T08:31:47.992Z</time></trkpt><trkpt lat="39.89149240984268" lon="9.118804652134674"><ele>838.0</ele><time>2026-04-28T08:31:48.992Z</time></trkpt><trkpt lat="39.891382649871744" lon="9.11882468058925"><ele>837.9999999999999</ele><time>2026-04-28T08:31:49.992Z</time></trkpt><trkpt lat="39.89128654854567" lon="9.118837589212614"><ele>838.0</ele><time>2026-04-28T08:31:50.992Z</time></trkpt><trkpt lat="39.89120086250822" lon="9.118852537434455"><ele>838.0</ele><time>2026-04-28T08:31:51.992Z</time></trkpt><trkpt lat="39.89112658374805" lon="9.118881342111266"><ele>838.0</ele><time>2026-04-28T08:31:52.992Z</time></trkpt><trkpt lat="39.89108237530853" lon="9.118985117187268"><ele>837.9999999999999</ele><time>2026-04-28T08:31:53.992Z</time></trkpt><trkpt lat="39.89106735116679" lon="9.11910348395266"><ele>838.0</ele><time>2026-04-28T08:31:54.992Z</time></trkpt><trkpt lat="39.89106496674912" lon="9.119236851479299"><ele>838.75</ele><time>2026-04-28T08:31:55.992Z</time></trkpt><trkpt lat="39.89104512453703" lon="9.119374096485766"><ele>839.5</ele><time>2026-04-28T08:31:56.992Z</time></trkpt><trkpt lat="39.89100169740551" lon="9.119510747767572"><ele>840.25</ele><time>2026-04-28T08:31:57.992Z</time></trkpt><trkpt lat="39.89093222207536" lon="9.11963598797594"><ele>841.0</ele><time>2026-04-28T08:31:58.992Z</time></trkpt><trkpt lat="39.89084373597934" lon="9.11975685171231"><ele>841.25</ele><time>2026-04-28T08:31:59.992Z</time></trkpt><trkpt lat="39.8907454107984" lon="9.119884201422604"><ele>841.5</ele><time>2026-04-28T08:32:00.992Z</time></trkpt><trkpt lat="39.890653846817585" lon="9.1200173119285"><ele>841.75</ele><time>2026-04-28T08:32:01.992Z</time></trkpt><trkpt lat="39.890553167712376" lon="9.120161230292279"><ele>842.0</ele><time>2026-04-28T08:32:02.992Z</time></trkpt><trkpt lat="39.89045830672861" lon="9.120292862568528"><ele>843.25</ele><time>2026-04-28T08:32:03.992Z</time></trkpt><trkpt lat="39.89036316389496" lon="9.120421288652963"><ele>844.5</ele><time>2026-04-28T08:32:04.992Z</time></trkpt><trkpt lat="39.8902700187322" lon="9.120555326858204"><ele>845.75</ele><time>2026-04-28T08:32:05.992Z</time></trkpt><trkpt lat="39.89017456945917" lon="9.120705323310263"><ele>847.0</ele><time>2026-04-28T08:32:06.992Z</time></trkpt><trkpt lat="39.89006761558141" lon="9.120853568998768"><ele>849.6666666666666</ele><time>2026-04-28T08:32:07.992Z</time></trkpt><trkpt lat="39.889957846869784" lon="9.12101014323975"><ele>852.3333333333333</ele><time>2026-04-28T08:32:08.992Z</time></trkpt><trkpt lat="39.88983853101372" lon="9.12116864421079"><ele>855.0</ele><time>2026-04-28T08:32:09.992Z</time></trkpt><trkpt lat="39.88971649319523" lon="9.121317323529011"><ele>855.0</ele><time>2026-04-28T08:32:10.992Z</time></trkpt><trkpt lat="39.88957605480723" lon="9.121456258826289"><ele>855.0</ele><time>2026-04-28T08:32:11.992Z</time></trkpt><trkpt lat="39.88942130907467" lon="9.121578298736287"><ele>855.0</ele><time>2026-04-28T08:32:12.992Z</time></trkpt><trkpt lat="39.88926102089842" lon="9.121683862190027"><ele>856.6666666666667</ele><time>2026-04-28T08:32:13.992Z</time></trkpt><trkpt lat="39.889105033163425" lon="9.121764322947836"><ele>858.3333333333334</ele><time>2026-04-28T08:32:14.992Z</time></trkpt><trkpt lat="39.888931587486475" lon="9.121833889880534"><ele>860.0</ele><time>2026-04-28T08:32:15.992Z</time></trkpt><trkpt lat="39.888748086915044" lon="9.121894788812488"><ele>860.0</ele><time>2026-04-28T08:32:16.992Z</time></trkpt><trkpt lat="39.88855884519142" lon="9.12195293931487"><ele>860.0</ele><time>2026-04-28T08:32:17.992Z</time></trkpt><trkpt lat="39.88836591959666" lon="9.122015510296437"><ele>860.0</ele><time>2026-04-28T08:32:18.992Z</time></trkpt><trkpt lat="39.888162728718555" lon="9.122085563518548"><ele>858.6666666666667</ele><time>2026-04-28T08:32:19.992Z</time></trkpt><trkpt lat="39.88796859156613" lon="9.122159573022236"><ele>857.3333333333333</ele><time>2026-04-28T08:32:20.992Z</time></trkpt><trkpt lat="39.88778034175075" lon="9.122229816153988"><ele>856.0</ele><time>2026-04-28T08:32:21.992Z</time></trkpt><trkpt lat="39.887578420322455" lon="9.122298204906908"><ele>855.3333333333333</ele><time>2026-04-28T08:32:22.992Z</time></trkpt><trkpt lat="39.8873668249832" lon="9.122372523654178"><ele>854.6666666666667</ele><time>2026-04-28T08:32:23.992Z</time></trkpt><trkpt lat="39.887151965540376" lon="9.12245229538808"><ele>854.0</ele><time>2026-04-28T08:32:24.992Z</time></trkpt><trkpt lat="39.88693491843249" lon="9.122533012194568"><ele>852.0</ele><time>2026-04-28T08:32:25.992Z</time></trkpt><trkpt lat="39.886709581889974" lon="9.122610637444696"><ele>850.0</ele><time>2026-04-28T08:32:26.992Z</time></trkpt><trkpt lat="39.886478625096395" lon="9.122691975810385"><ele>850.0</ele><time>2026-04-28T08:32:27.992Z</time></trkpt><trkpt lat="39.88624352251087" lon="9.122774351056751"><ele>850.0</ele><time>2026-04-28T08:32:28.992Z</time></trkpt><trkpt lat="39.886001896550106" lon="9.122855735060911"><ele>848.5</ele><time>2026-04-28T08:32:29.992Z</time></trkpt><trkpt lat="39.88575828421444" lon="9.122939237645642"><ele>847.0</ele><time>2026-04-28T08:32:30.992Z</time></trkpt><trkpt lat="39.88550699618134" lon="9.123025356487867"><ele>847.0</ele><time>2026-04-28T08:32:31.992Z</time></trkpt><trkpt lat="39.88525353432473" lon="9.123110417398518"><ele>847.0</ele><time>2026-04-28T08:32:32.992Z</time></trkpt><trkpt lat="39.885004608874716" lon="9.123198363955602"><ele>844.5</ele><time>2026-04-28T08:32:33.992Z</time></trkpt><trkpt lat="39.88476238195354" lon="9.12328575515768"><ele>842.0</ele><time>2026-04-28T08:32:34.992Z</time></trkpt><trkpt lat="39.884519246367525" lon="9.123362161605165"><ele>842.0</ele><time>2026-04-28T08:32:35.992Z</time></trkpt><trkpt lat="39.88428199230151" lon="9.123442628752807"><ele>842.0</ele><time>2026-04-28T08:32:36.992Z</time></trkpt><trkpt lat="39.884044904353104" lon="9.1235238667654"><ele>841.0</ele><time>2026-04-28T08:32:37.992Z</time></trkpt><trkpt lat="39.88380924896349" lon="9.123607424762522"><ele>840.0</ele><time>2026-04-28T08:32:38.992Z</time></trkpt><trkpt lat="39.883574819101035" lon="9.123687954005533"><ele>840.0</ele><time>2026-04-28T08:32:39.992Z</time></trkpt><trkpt lat="39.88334187434354" lon="9.123773303871243"><ele>840.0</ele><time>2026-04-28T08:32:40.992Z</time></trkpt><trkpt lat="39.88310681200403" lon="9.12385837329887"><ele>840.0</ele><time>2026-04-28T08:32:41.992Z</time></trkpt><trkpt lat="39.88287139107731" lon="9.12394056429242"><ele>840.0</ele><time>2026-04-28T08:32:42.992Z</time></trkpt><trkpt lat="39.88263973456191" lon="9.124026205009756"><ele>839.5</ele><time>2026-04-28T08:32:43.992Z</time></trkpt><trkpt lat="39.88240792861176" lon="9.124111638070973"><ele>839.0</ele><time>2026-04-28T08:32:44.992Z</time></trkpt><trkpt lat="39.88217282305833" lon="9.124193470161387"><ele>839.0</ele><time>2026-04-28T08:32:45.991Z</time></trkpt><trkpt lat="39.8819384094837" lon="9.124277506738698"><ele>839.0</ele><time>2026-04-28T08:32:46.991Z</time></trkpt><trkpt lat="39.881702586333965" lon="9.124359208760223"><ele>838.0</ele><time>2026-04-28T08:32:47.991Z</time></trkpt><trkpt lat="39.881466068533406" lon="9.124442725332539"><ele>837.0</ele><time>2026-04-28T08:32:48.991Z</time></trkpt><trkpt lat="39.88123066390113" lon="9.124526228858056"><ele>837.0</ele><time>2026-04-28T08:32:49.991Z</time></trkpt><trkpt lat="39.88099434307033" lon="9.124607576029263"><ele>837.0</ele><time>2026-04-28T08:32:50.991Z</time></trkpt><trkpt lat="39.88075585914454" lon="9.124684447437684"><ele>836.5</ele><time>2026-04-28T08:32:51.991Z</time></trkpt><trkpt lat="39.88051600124687" lon="9.124761375871874"><ele>836.0</ele><time>2026-04-28T08:32:52.991Z</time></trkpt><trkpt lat="39.88027685079161" lon="9.124843402585418"><ele>836.0</ele><time>2026-04-28T08:32:53.991Z</time></trkpt><trkpt lat="39.880035547916115" lon="9.124927883760185"><ele>836.0</ele><time>2026-04-28T08:32:54.991Z</time></trkpt><trkpt lat="39.87979922155011" lon="9.125026356066725"><ele>836.0</ele><time>2026-04-28T08:32:55.991Z</time></trkpt><trkpt lat="39.8795677960034" lon="9.125148287668429"><ele>836.0</ele><time>2026-04-28T08:32:56.991Z</time></trkpt><trkpt lat="39.87935899928447" lon="9.125305913470932"><ele>833.5</ele><time>2026-04-28T08:32:57.991Z</time></trkpt><trkpt lat="39.879161117664665" lon="9.12547774142731"><ele>831.0</ele><time>2026-04-28T08:32:58.991Z</time></trkpt><trkpt lat="39.8789688321183" lon="9.125657193634087"><ele>832.0</ele><time>2026-04-28T08:32:59.991Z</time></trkpt><trkpt lat="39.87877536493556" lon="9.125840749433685"><ele>833.0</ele><time>2026-04-28T08:33:00.991Z</time></trkpt><trkpt lat="39.878580418054575" lon="9.126029157214727"><ele>830.5</ele><time>2026-04-28T08:33:01.991Z</time></trkpt><trkpt lat="39.87838428939229" lon="9.126225231655186"><ele>828.0</ele><time>2026-04-28T08:33:02.991Z</time></trkpt><trkpt lat="39.87818785484632" lon="9.126421511603931"><ele>829.5</ele><time>2026-04-28T08:33:03.991Z</time></trkpt><trkpt lat="39.87798673665786" lon="9.126620274723024"><ele>831.0</ele><time>2026-04-28T08:33:04.991Z</time></trkpt><trkpt lat="39.87778239287002" lon="9.126815757924668"><ele>828.5</ele><time>2026-04-28T08:33:05.992Z</time></trkpt><trkpt lat="39.87758162816707" lon="9.127012821893596"><ele>826.0</ele><time>2026-04-28T08:33:06.992Z</time></trkpt><trkpt lat="39.87737976482646" lon="9.127208973902441"><ele>827.0</ele><time>2026-04-28T08:33:07.992Z</time></trkpt><trkpt lat="39.87717787515163" lon="9.127406015722435"><ele>828.0</ele><time>2026-04-28T08:33:08.992Z</time></trkpt><trkpt lat="39.87697187347669" lon="9.127600693896024"><ele>825.5</ele><time>2026-04-28T08:33:09.992Z</time></trkpt><trkpt lat="39.87676919395667" lon="9.127794816354308"><ele>823.0</ele><time>2026-04-28T08:33:10.992Z</time></trkpt><trkpt lat="39.87656256525112" lon="9.127993033318026"><ele>823.0</ele><time>2026-04-28T08:33:11.992Z</time></trkpt><trkpt lat="39.87636005122798" lon="9.128184676674003"><ele>823.0</ele><time>2026-04-28T08:33:12.992Z</time></trkpt><trkpt lat="39.876163330783925" lon="9.12837101700762"><ele>823.5</ele><time>2026-04-28T08:33:13.992Z</time></trkpt><trkpt lat="39.875971074539905" lon="9.128552982692218"><ele>824.0</ele><time>2026-04-28T08:33:14.992Z</time></trkpt><trkpt lat="39.87577927387223" lon="9.128735026810975"><ele>824.5</ele><time>2026-04-28T08:33:15.993Z</time></trkpt><trkpt lat="39.87558917340179" lon="9.128913319921672"><ele>825.0</ele><time>2026-04-28T08:33:16.993Z</time></trkpt><trkpt lat="39.87540508557738" lon="9.129091297546115"><ele>825.0</ele><time>2026-04-28T08:33:17.992Z</time></trkpt><trkpt lat="39.875222250064766" lon="9.12926964688763"><ele>825.0</ele><time>2026-04-28T08:33:18.992Z</time></trkpt><trkpt lat="39.87504135343398" lon="9.129456012926681"><ele>824.5</ele><time>2026-04-28T08:33:19.992Z</time></trkpt><trkpt lat="39.87485420200445" lon="9.12963734734106"><ele>824.0</ele><time>2026-04-28T08:33:20.992Z</time></trkpt><trkpt lat="39.87466774823911" lon="9.129816257188377"><ele>824.5</ele><time>2026-04-28T08:33:21.992Z</time></trkpt><trkpt lat="39.874480388155504" lon="9.130000688721196"><ele>825.0</ele><time>2026-04-28T08:33:22.992Z</time></trkpt><trkpt lat="39.87429016058009" lon="9.130187648439158"><ele>823.5</ele><time>2026-04-28T08:33:23.992Z</time></trkpt><trkpt lat="39.87409788252681" lon="9.130369889456416"><ele>822.0</ele><time>2026-04-28T08:33:24.992Z</time></trkpt><trkpt lat="39.87390107355186" lon="9.13054456134179"><ele>822.0</ele><time>2026-04-28T08:33:25.992Z</time></trkpt><trkpt lat="39.87369336428745" lon="9.130698024064083"><ele>822.0</ele><time>2026-04-28T08:33:26.992Z</time></trkpt><trkpt lat="39.87347269680154" lon="9.130811726127819"><ele>822.0</ele><time>2026-04-28T08:33:27.992Z</time></trkpt><trkpt lat="39.87324700442644" lon="9.130895542309895"><ele>822.0</ele><time>2026-04-28T08:33:28.992Z</time></trkpt><trkpt lat="39.87301369743518" lon="9.130939118929238"><ele>822.0</ele><time>2026-04-28T08:33:29.992Z</time></trkpt><trkpt lat="39.872775417636596" lon="9.130948053082754"><ele>822.0</ele><time>2026-04-28T08:33:30.992Z</time></trkpt><trkpt lat="39.87253653537523" lon="9.130941378400012"><ele>820.5</ele><time>2026-04-28T08:33:31.992Z</time></trkpt><trkpt lat="39.87229135894734" lon="9.130937329388924"><ele>819.0</ele><time>2026-04-28T08:33:32.992Z</time></trkpt><trkpt lat="39.87204529144502" lon="9.130940745516416"><ele>819.0</ele><time>2026-04-28T08:33:33.992Z</time></trkpt><trkpt lat="39.87179564944745" lon="9.130945602849307"><ele>819.0</ele><time>2026-04-28T08:33:34.992Z</time></trkpt><trkpt lat="39.87154861846562" lon="9.130949974307054"><ele>818.0</ele><time>2026-04-28T08:33:35.992Z</time></trkpt><trkpt lat="39.871299282428524" lon="9.13095080812175"><ele>817.0</ele><time>2026-04-28T08:33:36.992Z</time></trkpt><trkpt lat="39.8710487896524" lon="9.130956391716559"><ele>815.5</ele><time>2026-04-28T08:33:37.992Z</time></trkpt><trkpt lat="39.87079847545194" lon="9.130962521117437"><ele>814.0</ele><time>2026-04-28T08:33:38.992Z</time></trkpt><trkpt lat="39.870549278650195" lon="9.130971345262628"><ele>814.0</ele><time>2026-04-28T08:33:39.992Z</time></trkpt><trkpt lat="39.870300587262406" lon="9.130976600592486"><ele>814.0</ele><time>2026-04-28T08:33:40.992Z</time></trkpt><trkpt lat="39.87005218082468" lon="9.130978318982205"><ele>813.5</ele><time>2026-04-28T08:33:41.992Z</time></trkpt><trkpt lat="39.869806789167676" lon="9.130982441602223"><ele>813.0</ele><time>2026-04-28T08:33:42.992Z</time></trkpt><trkpt lat="39.86956804201099" lon="9.130985167023958"><ele>813.0</ele><time>2026-04-28T08:33:43.992Z</time></trkpt><trkpt lat="39.869333899772926" lon="9.130975930774424"><ele>813.0</ele><time>2026-04-28T08:33:44.992Z</time></trkpt><trkpt lat="39.869100969514335" lon="9.130939993006681"><ele>814.0</ele><time>2026-04-28T08:33:45.992Z</time></trkpt><trkpt lat="39.86886776467594" lon="9.130881730897048"><ele>815.0</ele><time>2026-04-28T08:33:46.992Z</time></trkpt><trkpt lat="39.86863686089814" lon="9.130802030574985"><ele>812.5</ele><time>2026-04-28T08:33:47.992Z</time></trkpt><trkpt lat="39.86841100302189" lon="9.13068425583483"><ele>810.0</ele><time>2026-04-28T08:33:48.992Z</time></trkpt><trkpt lat="39.86818955605208" lon="9.130551285542717"><ele>810.0</ele><time>2026-04-28T08:33:49.992Z</time></trkpt><trkpt lat="39.86797646136158" lon="9.130393088331266"><ele>810.0</ele><time>2026-04-28T08:33:50.992Z</time></trkpt><trkpt lat="39.86777057425583" lon="9.130208609568239"><ele>810.0</ele><time>2026-04-28T08:33:51.992Z</time></trkpt><trkpt lat="39.86758638057607" lon="9.12998649867891"><ele>810.0</ele><time>2026-04-28T08:33:52.992Z</time></trkpt><trkpt lat="39.867418282129854" lon="9.129750275707533"><ele>810.0</ele><time>2026-04-28T08:33:53.992Z</time></trkpt><trkpt lat="39.867264993988016" lon="9.12950102257926"><ele>810.0</ele><time>2026-04-28T08:33:54.992Z</time></trkpt><trkpt lat="39.867110699989546" lon="9.129240606590587"><ele>809.0</ele><time>2026-04-28T08:33:55.992Z</time></trkpt><trkpt lat="39.866961160313366" lon="9.12896881068138"><ele>808.0</ele><time>2026-04-28T08:33:56.992Z</time></trkpt><trkpt lat="39.86680535595866" lon="9.128699610596184"><ele>807.5</ele><time>2026-04-28T08:33:57.992Z</time></trkpt><trkpt lat="39.86664325020486" lon="9.128436929174878"><ele>807.0</ele><time>2026-04-28T08:33:58.992Z</time></trkpt><trkpt lat="39.866486255963686" lon="9.128166053672455"><ele>806.0</ele><time>2026-04-28T08:33:59.992Z</time></trkpt><trkpt lat="39.86633210583302" lon="9.127903227730977"><ele>805.0</ele><time>2026-04-28T08:34:00.992Z</time></trkpt><trkpt lat="39.86617363738066" lon="9.127636235642669"><ele>802.5</ele><time>2026-04-28T08:34:01.992Z</time></trkpt><trkpt lat="39.86601933190513" lon="9.127372055980272"><ele>800.0</ele><time>2026-04-28T08:34:02.992Z</time></trkpt><trkpt lat="39.86586480381013" lon="9.127104677137801"><ele>799.0</ele><time>2026-04-28T08:34:03.992Z</time></trkpt><trkpt lat="39.865706570103626" lon="9.12683854316883"><ele>798.0</ele><time>2026-04-28T08:34:04.992Z</time></trkpt><trkpt lat="39.86554903998314" lon="9.126576267352483"><ele>795.0</ele><time>2026-04-28T08:34:05.992Z</time></trkpt><trkpt lat="39.8653911914297" lon="9.126316727749666"><ele>792.0</ele><time>2026-04-28T08:34:06.992Z</time></trkpt><trkpt lat="39.865235328502926" lon="9.126051337767645"><ele>791.0</ele><time>2026-04-28T08:34:07.992Z</time></trkpt><trkpt lat="39.86508253739699" lon="9.125786066847747"><ele>790.0</ele><time>2026-04-28T08:34:08.992Z</time></trkpt><trkpt lat="39.86492849937366" lon="9.125517661456236"><ele>786.0</ele><time>2026-04-28T08:34:09.992Z</time></trkpt><trkpt lat="39.86477324158727" lon="9.125255653969974"><ele>782.0</ele><time>2026-04-28T08:34:10.992Z</time></trkpt><trkpt lat="39.864620019347264" lon="9.124992453921354"><ele>779.0</ele><time>2026-04-28T08:34:11.992Z</time></trkpt><trkpt lat="39.8644657579769" lon="9.124731807076783"><ele>776.0</ele><time>2026-04-28T08:34:12.992Z</time></trkpt><trkpt lat="39.864314979944446" lon="9.124482098181634"><ele>776.5</ele><time>2026-04-28T08:34:13.992Z</time></trkpt><trkpt lat="39.864171680890216" lon="9.12424594094297"><ele>777.0</ele><time>2026-04-28T08:34:14.992Z</time></trkpt><trkpt lat="39.864037356429726" lon="9.124007616247187"><ele>775.6666666666667</ele><time>2026-04-28T08:34:15.992Z</time></trkpt><trkpt lat="39.86390852391053" lon="9.123769939616169"><ele>774.3333333333334</ele><time>2026-04-28T08:34:16.992Z</time></trkpt><trkpt lat="39.86378142377605" lon="9.123535327556672"><ele>773.0</ele><time>2026-04-28T08:34:17.992Z</time></trkpt><trkpt lat="39.863654476039315" lon="9.123293320538421"><ele>771.5</ele><time>2026-04-28T08:34:18.992Z</time></trkpt><trkpt lat="39.863507269603" lon="9.12304931294678"><ele>770.0</ele><time>2026-04-28T08:34:19.992Z</time></trkpt><trkpt lat="39.86335628325543" lon="9.122820679597114"><ele>770.0</ele><time>2026-04-28T08:34:20.992Z</time></trkpt><trkpt lat="39.86320919172479" lon="9.122596899711066"><ele>770.0</ele><time>2026-04-28T08:34:21.991Z</time></trkpt><trkpt lat="39.863065264862655" lon="9.122366457505281"><ele>769.6666666666667</ele><time>2026-04-28T08:34:22.991Z</time></trkpt><trkpt lat="39.86293268613063" lon="9.122127117263297"><ele>769.3333333333333</ele><time>2026-04-28T08:34:23.991Z</time></trkpt><trkpt lat="39.86280093819496" lon="9.121894244989564"><ele>769.0</ele><time>2026-04-28T08:34:24.991Z</time></trkpt><trkpt lat="39.86266966877281" lon="9.121667972927181"><ele>770.3333333333333</ele><time>2026-04-28T08:34:25.991Z</time></trkpt><trkpt lat="39.8625505664576" lon="9.121452626464805"><ele>771.6666666666667</ele><time>2026-04-28T08:34:26.991Z</time></trkpt><trkpt lat="39.86243521841421" lon="9.121267069817566"><ele>773.0</ele><time>2026-04-28T08:34:27.991Z</time></trkpt><trkpt lat="39.86233410291736" lon="9.121099239478763"><ele>773.0</ele><time>2026-04-28T08:34:28.991Z</time></trkpt><trkpt lat="39.86223861917401" lon="9.120951165617397"><ele>773.0</ele><time>2026-04-28T08:34:29.991Z</time></trkpt><trkpt lat="39.8621570790418" lon="9.120815279626088"><ele>773.0</ele><time>2026-04-28T08:34:30.991Z</time></trkpt><trkpt lat="39.862084497479316" lon="9.120694246214947"><ele>773.0</ele><time>2026-04-28T08:34:31.991Z</time></trkpt><trkpt lat="39.86202439675429" lon="9.120594356965247"><ele>773.1666666666667</ele><time>2026-04-28T08:34:32.991Z</time></trkpt><trkpt lat="39.86196134670674" lon="9.120515935499732"><ele>773.3333333333334</ele><time>2026-04-28T08:34:33.991Z</time></trkpt><trkpt lat="39.861879475711724" lon="9.120492725011813"><ele>773.5</ele><time>2026-04-28T08:34:34.991Z</time></trkpt><trkpt lat="39.86180019438326" lon="9.120520902415276"><ele>773.6666666666667</ele><time>2026-04-28T08:34:35.991Z</time></trkpt><trkpt lat="39.86172390353106" lon="9.120597662245979"><ele>773.8333333333334</ele><time>2026-04-28T08:34:36.991Z</time></trkpt><trkpt lat="39.861645429245506" lon="9.120678084275802"><ele>774.0</ele><time>2026-04-28T08:34:37.991Z</time></trkpt><trkpt lat="39.86155898215898" lon="9.120769714738168"><ele>774.0</ele><time>2026-04-28T08:34:38.991Z</time></trkpt><trkpt lat="39.86146767534133" lon="9.120867851448356"><ele>774.0</ele><time>2026-04-28T08:34:39.991Z</time></trkpt><trkpt lat="39.86136676253471" lon="9.120969506239572"><ele>774.0</ele><time>2026-04-28T08:34:40.991Z</time></trkpt><trkpt lat="39.86125644467051" lon="9.121077049978718"><ele>774.0</ele><time>2026-04-28T08:34:41.991Z</time></trkpt><trkpt lat="39.86114158416253" lon="9.121181373665648"><ele>774.0</ele><time>2026-04-28T08:34:42.991Z</time></trkpt><trkpt lat="39.861030998151584" lon="9.121285573733989"><ele>774.0</ele><time>2026-04-28T08:34:43.991Z</time></trkpt><trkpt lat="39.860916589860764" lon="9.121394936685986"><ele>774.0</ele><time>2026-04-28T08:34:44.991Z</time></trkpt><trkpt lat="39.86079834748784" lon="9.121509785801614"><ele>774.0</ele><time>2026-04-28T08:34:45.991Z</time></trkpt><trkpt lat="39.86067546620386" lon="9.121626702718851"><ele>774.3333333333333</ele><time>2026-04-28T08:34:46.991Z</time></trkpt><trkpt lat="39.86054473253932" lon="9.121750094646684"><ele>774.6666666666666</ele><time>2026-04-28T08:34:47.991Z</time></trkpt><trkpt lat="39.86040950624347" lon="9.12187981950512"><ele>775.0</ele><time>2026-04-28T08:34:48.991Z</time></trkpt><trkpt lat="39.86026958012804" lon="9.122007995566713"><ele>775.0</ele><time>2026-04-28T08:34:49.991Z</time></trkpt><trkpt lat="39.860143441992854" lon="9.12213331252743"><ele>775.0</ele><time>2026-04-28T08:34:50.991Z</time></trkpt><trkpt lat="39.86001848702224" lon="9.122258427396003"><ele>775.0</ele><time>2026-04-28T08:34:51.991Z</time></trkpt><trkpt lat="39.85988800416745" lon="9.122382843537823"><ele>775.0</ele><time>2026-04-28T08:34:52.991Z</time></trkpt><trkpt lat="39.8597550251949" lon="9.122507882624529"><ele>775.0</ele><time>2026-04-28T08:34:53.991Z</time></trkpt><trkpt lat="39.85961487864297" lon="9.122633448872145"><ele>775.0</ele><time>2026-04-28T08:34:54.991Z</time></trkpt><trkpt lat="39.859473212362175" lon="9.122767685753642"><ele>775.0</ele><time>2026-04-28T08:34:55.991Z</time></trkpt><trkpt lat="39.85933005424303" lon="9.12290693552079"><ele>775.0</ele><time>2026-04-28T08:34:56.991Z</time></trkpt><trkpt lat="39.85918476661165" lon="9.123051772560244"><ele>775.0</ele><time>2026-04-28T08:34:57.991Z</time></trkpt><trkpt lat="39.85903529377537" lon="9.123199162023168"><ele>775.3333333333333</ele><time>2026-04-28T08:34:58.991Z</time></trkpt><trkpt lat="39.858883324129906" lon="9.123346299627654"><ele>775.6666666666667</ele><time>2026-04-28T08:34:59.991Z</time></trkpt><trkpt lat="39.858728212506854" lon="9.123487403608657"><ele>776.0</ele><time>2026-04-28T08:35:00.991Z</time></trkpt><trkpt lat="39.858579835440665" lon="9.123629325281534"><ele>775.0</ele><time>2026-04-28T08:35:01.991Z</time></trkpt><trkpt lat="39.858430554887484" lon="9.123773094369362"><ele>774.0</ele><time>2026-04-28T08:35:02.991Z</time></trkpt><trkpt lat="39.8582774863422" lon="9.123916442541246"><ele>773.0</ele><time>2026-04-28T08:35:03.991Z</time></trkpt><trkpt lat="39.85812393735787" lon="9.124062148927164"><ele>773.3333333333334</ele><time>2026-04-28T08:35:04.991Z</time></trkpt><trkpt lat="39.85796870073754" lon="9.124212713303123"><ele>773.6666666666667</ele><time>2026-04-28T08:35:05.991Z</time></trkpt><trkpt lat="39.85781276490599" lon="9.124369066550994"><ele>774.0</ele><time>2026-04-28T08:35:06.991Z</time></trkpt><trkpt lat="39.85765526083969" lon="9.124523035583476"><ele>773.3333333333333</ele><time>2026-04-28T08:35:07.991Z</time></trkpt><trkpt lat="39.85749485794043" lon="9.124680028055048"><ele>772.6666666666666</ele><time>2026-04-28T08:35:08.991Z</time></trkpt><trkpt lat="39.857331476280216" lon="9.124835629850276"><ele>772.0</ele><time>2026-04-28T08:35:09.991Z</time></trkpt><trkpt lat="39.8571685592626" lon="9.124994056524152"><ele>772.0</ele><time>2026-04-28T08:35:10.991Z</time></trkpt><trkpt lat="39.85699747245059" lon="9.125153077860178"><ele>772.0</ele><time>2026-04-28T08:35:11.992Z</time></trkpt><trkpt lat="39.85682473892724" lon="9.125318623898279"><ele>772.0</ele><time>2026-04-28T08:35:12.992Z</time></trkpt><trkpt lat="39.85664936020441" lon="9.125490331799057"><ele>771.0</ele><time>2026-04-28T08:35:13.992Z</time></trkpt><trkpt lat="39.85646938993469" lon="9.125659919942425"><ele>770.0</ele><time>2026-04-28T08:35:14.993Z</time></trkpt><trkpt lat="39.85628968464409" lon="9.125830975225641"><ele>769.0</ele><time>2026-04-28T08:35:15.992Z</time></trkpt><trkpt lat="39.85610641660582" lon="9.125986092749601"><ele>767.6666666666666</ele><time>2026-04-28T08:35:16.992Z</time></trkpt><trkpt lat="39.8559216080362" lon="9.1261332357874"><ele>766.3333333333333</ele><time>2026-04-28T08:35:17.993Z</time></trkpt><trkpt lat="39.855726872772706" lon="9.126262632854218"><ele>765.0</ele><time>2026-04-28T08:35:18.992Z</time></trkpt><trkpt lat="39.855521789129774" lon="9.126372498467923"><ele>765.0</ele><time>2026-04-28T08:35:19.992Z</time></trkpt><trkpt lat="39.85531334700208" lon="9.126467108907551"><ele>765.0</ele><time>2026-04-28T08:35:20.992Z</time></trkpt><trkpt lat="39.855105122780664" lon="9.126550921048"><ele>765.0</ele><time>2026-04-28T08:35:21.992Z</time></trkpt><trkpt lat="39.854890180063514" lon="9.126615036529094"><ele>764.6666666666666</ele><time>2026-04-28T08:35:22.992Z</time></trkpt><trkpt lat="39.8546720377054" lon="9.126662616577262"><ele>764.3333333333333</ele><time>2026-04-28T08:35:23.992Z</time></trkpt><trkpt lat="39.85445308889706" lon="9.126694229290464"><ele>764.0</ele><time>2026-04-28T08:35:24.992Z</time></trkpt><trkpt lat="39.85422874425483" lon="9.126711306358999"><ele>764.0</ele><time>2026-04-28T08:35:25.992Z</time></trkpt><trkpt lat="39.85400024490279" lon="9.126710759106542"><ele>764.0</ele><time>2026-04-28T08:35:26.992Z</time></trkpt><trkpt lat="39.85376956648764" lon="9.126697396847911"><ele>764.0</ele><time>2026-04-28T08:35:27.992Z</time></trkpt><trkpt lat="39.85353630409603" lon="9.126665976192719"><ele>764.0</ele><time>2026-04-28T08:35:28.992Z</time></trkpt><trkpt lat="39.85330033245271" lon="9.12663730032631"><ele>763.5</ele><time>2026-04-28T08:35:29.992Z</time></trkpt><trkpt lat="39.85305966877914" lon="9.126608956144366"><ele>763.0</ele><time>2026-04-28T08:35:30.992Z</time></trkpt><trkpt lat="39.85281370002347" lon="9.126588483440326"><ele>763.5</ele><time>2026-04-28T08:35:31.992Z</time></trkpt><trkpt lat="39.852563500200866" lon="9.126570819755239"><ele>764.0</ele><time>2026-04-28T08:35:32.992Z</time></trkpt><trkpt lat="39.85230680613545" lon="9.126545837134552"><ele>765.0</ele><time>2026-04-28T08:35:33.992Z</time></trkpt><trkpt lat="39.85204850708438" lon="9.126517526801678"><ele>766.0</ele><time>2026-04-28T08:35:34.992Z</time></trkpt><trkpt lat="39.85178899620073" lon="9.126487650398554"><ele>767.0</ele><time>2026-04-28T08:35:35.992Z</time></trkpt><trkpt lat="39.85152758133956" lon="9.126456044434294"><ele>768.0</ele><time>2026-04-28T08:35:36.992Z</time></trkpt><trkpt lat="39.85126282446042" lon="9.12643319362169"><ele>768.0</ele><time>2026-04-28T08:35:37.992Z</time></trkpt><trkpt lat="39.85100085634" lon="9.126407233194968"><ele>768.0</ele><time>2026-04-28T08:35:38.992Z</time></trkpt><trkpt lat="39.85073624721102" lon="9.126385790816105"><ele>766.5</ele><time>2026-04-28T08:35:39.992Z</time></trkpt><trkpt lat="39.850472204363584" lon="9.126363515455205"><ele>765.0</ele><time>2026-04-28T08:35:40.992Z</time></trkpt><trkpt lat="39.85020714643204" lon="9.126344092680748"><ele>764.0</ele><time>2026-04-28T08:35:41.992Z</time></trkpt><trkpt lat="39.84994126424971" lon="9.126331049113867"><ele>763.0</ele><time>2026-04-28T08:35:42.992Z</time></trkpt><trkpt lat="39.84967670909881" lon="9.126322058357035"><ele>763.0</ele><time>2026-04-28T08:35:43.992Z</time></trkpt><trkpt lat="39.84941370105539" lon="9.126321878120125"><ele>763.0</ele><time>2026-04-28T08:35:44.992Z</time></trkpt><trkpt lat="39.84915715775463" lon="9.126321350957195"><ele>760.5</ele><time>2026-04-28T08:35:45.992Z</time></trkpt><trkpt lat="39.8488984798098" lon="9.126323134922982"><ele>758.0</ele><time>2026-04-28T08:35:46.992Z</time></trkpt><trkpt lat="39.8486404136236" lon="9.12631819143369"><ele>756.5</ele><time>2026-04-28T08:35:47.992Z</time></trkpt><trkpt lat="39.848382444998855" lon="9.126309386284234"><ele>755.0</ele><time>2026-04-28T08:35:48.992Z</time></trkpt><trkpt lat="39.84812786349645" lon="9.12629996654818"><ele>755.0</ele><time>2026-04-28T08:35:49.991Z</time></trkpt><trkpt lat="39.84787256684128" lon="9.126297007915724"><ele>755.0</ele><time>2026-04-28T08:35:50.991Z</time></trkpt><trkpt lat="39.847617064644844" lon="9.126291814529054"><ele>755.5</ele><time>2026-04-28T08:35:51.991Z</time></trkpt><trkpt lat="39.84736444007816" lon="9.126262229934651"><ele>756.0</ele><time>2026-04-28T08:35:52.991Z</time></trkpt><trkpt lat="39.84711480382251" lon="9.12620455073884"><ele>756.0</ele><time>2026-04-28T08:35:53.991Z</time></trkpt><trkpt lat="39.84686733055537" lon="9.126117978263256"><ele>756.0</ele><time>2026-04-28T08:35:54.991Z</time></trkpt><trkpt lat="39.84662025927958" lon="9.126011686305786"><ele>757.0</ele><time>2026-04-28T08:35:55.991Z</time></trkpt><trkpt lat="39.84636963960869" lon="9.125894566377106"><ele>758.0</ele><time>2026-04-28T08:35:56.991Z</time></trkpt><trkpt lat="39.846116849943506" lon="9.125783331513254"><ele>757.0</ele><time>2026-04-28T08:35:57.991Z</time></trkpt><trkpt lat="39.845866822848045" lon="9.125684290236238"><ele>756.0</ele><time>2026-04-28T08:35:58.991Z</time></trkpt><trkpt lat="39.845624300860884" lon="9.125592715823306"><ele>756.0</ele><time>2026-04-28T08:35:59.991Z</time></trkpt><trkpt lat="39.84538480493516" lon="9.12553487253011"><ele>756.0</ele><time>2026-04-28T08:36:00.991Z</time></trkpt><trkpt lat="39.845140335487805" lon="9.125527701437754"><ele>755.5</ele><time>2026-04-28T08:36:01.991Z</time></trkpt><trkpt lat="39.844892480038375" lon="9.125558717429518"><ele>755.0</ele><time>2026-04-28T08:36:02.991Z</time></trkpt><trkpt lat="39.844644864136505" lon="9.125613532693674"><ele>755.0</ele><time>2026-04-28T08:36:03.991Z</time></trkpt><trkpt lat="39.84439435858766" lon="9.125671278645084"><ele>755.0</ele><time>2026-04-28T08:36:04.991Z</time></trkpt><trkpt lat="39.844140252502115" lon="9.125729382594825"><ele>755.5</ele><time>2026-04-28T08:36:05.991Z</time></trkpt><trkpt lat="39.84388427873232" lon="9.125784976688685"><ele>756.0</ele><time>2026-04-28T08:36:06.991Z</time></trkpt><trkpt lat="39.84363157107641" lon="9.125838153180098"><ele>756.0</ele><time>2026-04-28T08:36:07.991Z</time></trkpt><trkpt lat="39.84337399245975" lon="9.125891106226634"><ele>756.0</ele><time>2026-04-28T08:36:08.991Z</time></trkpt><trkpt lat="39.84311698533328" lon="9.12593839183425"><ele>756.0</ele><time>2026-04-28T08:36:09.991Z</time></trkpt><trkpt lat="39.84286271280537" lon="9.125986145850652"><ele>756.0</ele><time>2026-04-28T08:36:10.991Z</time></trkpt><trkpt lat="39.84261471125422" lon="9.126036469306195"><ele>756.0</ele><time>2026-04-28T08:36:11.991Z</time></trkpt><trkpt lat="39.8423718211797" lon="9.12610081074432"><ele>756.0</ele><time>2026-04-28T08:36:12.991Z</time></trkpt><trkpt lat="39.842132844816554" lon="9.126188903803486"><ele>756.0</ele><time>2026-04-28T08:36:13.991Z</time></trkpt><trkpt lat="39.84189667150658" lon="9.126302926765677"><ele>756.0</ele><time>2026-04-28T08:36:14.991Z</time></trkpt><trkpt lat="39.8416617963674" lon="9.126435752064893"><ele>754.0</ele><time>2026-04-28T08:36:15.991Z</time></trkpt><trkpt lat="39.841430603589075" lon="9.126589512244909"><ele>752.0</ele><time>2026-04-28T08:36:16.991Z</time></trkpt><trkpt lat="39.84120391909565" lon="9.12676280825259"><ele>752.0</ele><time>2026-04-28T08:36:17.991Z</time></trkpt><trkpt lat="39.84098153612804" lon="9.12694746942589"><ele>752.0</ele><time>2026-04-28T08:36:18.991Z</time></trkpt><trkpt lat="39.84076201398019" lon="9.127137509599157"><ele>752.0</ele><time>2026-04-28T08:36:19.991Z</time></trkpt><trkpt lat="39.84054264528535" lon="9.127333139999967"><ele>752.0</ele><time>2026-04-28T08:36:20.991Z</time></trkpt><trkpt lat="39.84032396162837" lon="9.12752543903304"><ele>750.0</ele><time>2026-04-28T08:36:21.991Z</time></trkpt><trkpt lat="39.84010552295343" lon="9.127717379986569"><ele>748.0</ele><time>2026-04-28T08:36:22.991Z</time></trkpt><trkpt lat="39.839889151899875" lon="9.127911937245447"><ele>748.0</ele><time>2026-04-28T08:36:23.991Z</time></trkpt><trkpt lat="39.83967198812555" lon="9.128102298476128"><ele>748.0</ele><time>2026-04-28T08:36:24.991Z</time></trkpt><trkpt lat="39.839457127274244" lon="9.128289911342424"><ele>750.0</ele><time>2026-04-28T08:36:25.991Z</time></trkpt><trkpt lat="39.83924349424644" lon="9.128476140924107"><ele>752.0</ele><time>2026-04-28T08:36:26.991Z</time></trkpt><trkpt lat="39.83903347834946" lon="9.128661080545992"><ele>752.0</ele><time>2026-04-28T08:36:27.991Z</time></trkpt><trkpt lat="39.83882401402481" lon="9.128841804173359"><ele>752.0</ele><time>2026-04-28T08:36:28.991Z</time></trkpt><trkpt lat="39.83861797721416" lon="9.129021905481011"><ele>751.0</ele><time>2026-04-28T08:36:29.991Z</time></trkpt><trkpt lat="39.838416485851575" lon="9.129219266043588"><ele>750.0</ele><time>2026-04-28T08:36:30.991Z</time></trkpt><trkpt lat="39.83822933487382" lon="9.129435001885868"><ele>750.0</ele><time>2026-04-28T08:36:31.991Z</time></trkpt><trkpt lat="39.83806255868126" lon="9.129675724324875"><ele>750.0</ele><time>2026-04-28T08:36:32.991Z</time></trkpt><trkpt lat="39.83790863264152" lon="9.129941459188776"><ele>751.0</ele><time>2026-04-28T08:36:33.991Z</time></trkpt><trkpt lat="39.837765137962194" lon="9.130221368273144"><ele>752.0</ele><time>2026-04-28T08:36:34.991Z</time></trkpt><trkpt lat="39.83762288590539" lon="9.130503875436453"><ele>748.5</ele><time>2026-04-28T08:36:35.991Z</time></trkpt><trkpt lat="39.8374815064518" lon="9.130789579945858"><ele>745.0</ele><time>2026-04-28T08:36:36.991Z</time></trkpt><trkpt lat="39.83734085836793" lon="9.13106991621029"><ele>745.0</ele><time>2026-04-28T08:36:37.991Z</time></trkpt><trkpt lat="39.83720170639836" lon="9.131341950592628"><ele>745.0</ele><time>2026-04-28T08:36:38.991Z</time></trkpt><trkpt lat="39.83706005537118" lon="9.131597812842648"><ele>744.5</ele><time>2026-04-28T08:36:39.991Z</time></trkpt><trkpt lat="39.83690841471517" lon="9.131827809824417"><ele>744.0</ele><time>2026-04-28T08:36:40.991Z</time></trkpt><trkpt lat="39.83673768476175" lon="9.132037574277467"><ele>738.0</ele><time>2026-04-28T08:36:41.991Z</time></trkpt><trkpt lat="39.836549332429875" lon="9.132219261408682"><ele>732.0</ele><time>2026-04-28T08:36:42.991Z</time></trkpt><trkpt lat="39.83634179140781" lon="9.132372451258695"><ele>734.0</ele><time>2026-04-28T08:36:43.991Z</time></trkpt><trkpt lat="39.83611494277644" lon="9.132498421786858"><ele>736.0</ele><time>2026-04-28T08:36:44.991Z</time></trkpt><trkpt lat="39.83587837651717" lon="9.132602206749798"><ele>731.0</ele><time>2026-04-28T08:36:45.991Z</time></trkpt><trkpt lat="39.835633836076084" lon="9.132679645739048"><ele>726.0</ele><time>2026-04-28T08:36:46.991Z</time></trkpt><trkpt lat="39.83538996768799" lon="9.13274334419889"><ele>726.0</ele><time>2026-04-28T08:36:47.991Z</time></trkpt><trkpt lat="39.83515058656299" lon="9.132801421997879"><ele>726.0</ele><time>2026-04-28T08:36:48.991Z</time></trkpt><trkpt lat="39.83491106740909" lon="9.132869294668108"><ele>722.0</ele><time>2026-04-28T08:36:49.991Z</time></trkpt><trkpt lat="39.834671918282964" lon="9.132944633591535"><ele>718.0</ele><time>2026-04-28T08:36:50.991Z</time></trkpt><trkpt lat="39.834429520812655" lon="9.133015763483675"><ele>716.0</ele><time>2026-04-28T08:36:51.991Z</time></trkpt><trkpt lat="39.834185353925974" lon="9.13308207672954"><ele>714.0</ele><time>2026-04-28T08:36:52.991Z</time></trkpt><trkpt lat="39.83393948863781" lon="9.133150281703044"><ele>714.0</ele><time>2026-04-28T08:36:53.991Z</time></trkpt><trkpt lat="39.83368859416471" lon="9.133219014165784"><ele>714.0</ele><time>2026-04-28T08:36:54.991Z</time></trkpt><trkpt lat="39.83344071209448" lon="9.133292061555155"><ele>713.0</ele><time>2026-04-28T08:36:55.99Z</time></trkpt><trkpt lat="39.83319108194255" lon="9.13336223031355"><ele>712.0</ele><time>2026-04-28T08:36:56.99Z</time></trkpt><trkpt lat="39.83294530280601" lon="9.133428288441404"><ele>712.0</ele><time>2026-04-28T08:36:57.99Z</time></trkpt><trkpt lat="39.83269871908802" lon="9.133495785983687"><ele>712.0</ele><time>2026-04-28T08:36:58.99Z</time></trkpt><trkpt lat="39.8324528995109" lon="9.13356086396502"><ele>712.0</ele><time>2026-04-28T08:36:59.99Z</time></trkpt><trkpt lat="39.832205428641544" lon="9.133630343670173"><ele>712.0</ele><time>2026-04-28T08:37:00.99Z</time></trkpt><trkpt lat="39.831957208577094" lon="9.13369876422734"><ele>710.5</ele><time>2026-04-28T08:37:01.99Z</time></trkpt><trkpt lat="39.831707954505994" lon="9.133767748767031"><ele>709.0</ele><time>2026-04-28T08:37:02.99Z</time></trkpt><trkpt lat="39.831456541309535" lon="9.133838077804473"><ele>709.0</ele><time>2026-04-28T08:37:03.99Z</time></trkpt><trkpt lat="39.831202687458344" lon="9.133909500034525"><ele>709.0</ele><time>2026-04-28T08:37:04.99Z</time></trkpt><trkpt lat="39.83095327288558" lon="9.133983241324469"><ele>707.0</ele><time>2026-04-28T08:37:05.99Z</time></trkpt><trkpt lat="39.83070300778878" lon="9.134057387123223"><ele>705.0</ele><time>2026-04-28T08:37:06.99Z</time></trkpt><trkpt lat="39.83045154478402" lon="9.134130939980944"><ele>705.0</ele><time>2026-04-28T08:37:07.99Z</time></trkpt><trkpt lat="39.830196038624315" lon="9.134194698534571"><ele>705.0</ele><time>2026-04-28T08:37:08.99Z</time></trkpt><trkpt lat="39.829944244978456" lon="9.134265763755009"><ele>703.0</ele><time>2026-04-28T08:37:09.99Z</time></trkpt><trkpt lat="39.8296920793167" lon="9.134330481723694"><ele>701.0</ele><time>2026-04-28T08:37:10.99Z</time></trkpt><trkpt lat="39.82943973396993" lon="9.134370209713456"><ele>699.5</ele><time>2026-04-28T08:37:11.99Z</time></trkpt><trkpt lat="39.82918556156215" lon="9.134388333272893"><ele>698.0</ele><time>2026-04-28T08:37:12.99Z</time></trkpt><trkpt lat="39.82892931428006" lon="9.134384467748827"><ele>698.0</ele><time>2026-04-28T08:37:13.99Z</time></trkpt><trkpt lat="39.82867535119675" lon="9.13437007978824"><ele>698.0</ele><time>2026-04-28T08:37:14.99Z</time></trkpt><trkpt lat="39.82842074170213" lon="9.134339581896821"><ele>696.5</ele><time>2026-04-28T08:37:15.99Z</time></trkpt><trkpt lat="39.828167044850254" lon="9.134290863159926"><ele>695.0</ele><time>2026-04-28T08:37:16.992Z</time></trkpt><trkpt lat="39.8279128093835" lon="9.134232049869372"><ele>695.0</ele><time>2026-04-28T08:37:17.991Z</time></trkpt><trkpt lat="39.82765948702188" lon="9.13417145967072"><ele>695.0</ele><time>2026-04-28T08:37:18.991Z</time></trkpt><trkpt lat="39.8274030589185" lon="9.134110233884744"><ele>692.5</ele><time>2026-04-28T08:37:19.992Z</time></trkpt><trkpt lat="39.827148268772426" lon="9.13405587595308"><ele>690.0</ele><time>2026-04-28T08:37:20.992Z</time></trkpt><trkpt lat="39.82689593684418" lon="9.134004218569771"><ele>686.0</ele><time>2026-04-28T08:37:21.992Z</time></trkpt><trkpt lat="39.82664439861643" lon="9.133948382667343"><ele>682.0</ele><time>2026-04-28T08:37:22.992Z</time></trkpt><trkpt lat="39.8263933797381" lon="9.133895875606592"><ele>682.0</ele><time>2026-04-28T08:37:23.992Z</time></trkpt><trkpt lat="39.826146939363234" lon="9.13383227211115"><ele>682.0</ele><time>2026-04-28T08:37:24.992Z</time></trkpt><trkpt lat="39.82590571361245" lon="9.13377127133058"><ele>681.0</ele><time>2026-04-28T08:37:25.992Z</time></trkpt><trkpt lat="39.82566624077001" lon="9.133714231801752"><ele>680.0</ele><time>2026-04-28T08:37:26.992Z</time></trkpt><trkpt lat="39.82542799373609" lon="9.133659337413357"><ele>680.0</ele><time>2026-04-28T08:37:27.992Z</time></trkpt><trkpt lat="39.825187436749815" lon="9.133603189118158"><ele>680.0</ele><time>2026-04-28T08:37:28.992Z</time></trkpt><trkpt lat="39.82494793979921" lon="9.133550138560352"><ele>682.5</ele><time>2026-04-28T08:37:29.992Z</time></trkpt><trkpt lat="39.82470783504989" lon="9.133494230165436"><ele>685.0</ele><time>2026-04-28T08:37:30.992Z</time></trkpt><trkpt lat="39.824473480023386" lon="9.133447675706822"><ele>684.5</ele><time>2026-04-28T08:37:31.992Z</time></trkpt><trkpt lat="39.82423966579179" lon="9.133422395090331"><ele>684.0</ele><time>2026-04-28T08:37:32.992Z</time></trkpt><trkpt lat="39.824005274855146" lon="9.133441300675276"><ele>684.0</ele><time>2026-04-28T08:37:33.992Z</time></trkpt><trkpt lat="39.82377381900111" lon="9.133505522567894"><ele>684.0</ele><time>2026-04-28T08:37:34.991Z</time></trkpt><trkpt lat="39.82354758489259" lon="9.133598587766045"><ele>683.5</ele><time>2026-04-28T08:37:35.991Z</time></trkpt><trkpt lat="39.82333027473757" lon="9.133733982468865"><ele>683.0</ele><time>2026-04-28T08:37:36.991Z</time></trkpt><trkpt lat="39.82311834438934" lon="9.133898584481408"><ele>683.5</ele><time>2026-04-28T08:37:37.991Z</time></trkpt><trkpt lat="39.822921474994736" lon="9.134095641629253"><ele>684.0</ele><time>2026-04-28T08:37:38.991Z</time></trkpt><trkpt lat="39.82273332826887" lon="9.134308465855245"><ele>683.5</ele><time>2026-04-28T08:37:39.991Z</time></trkpt><trkpt lat="39.82254235069472" lon="9.134525599283814"><ele>683.0</ele><time>2026-04-28T08:37:40.991Z</time></trkpt><trkpt lat="39.822347816401525" lon="9.134742278625758"><ele>683.0</ele><time>2026-04-28T08:37:41.991Z</time></trkpt><trkpt lat="39.822153019426594" lon="9.134958545847475"><ele>683.0</ele><time>2026-04-28T08:37:42.991Z</time></trkpt><trkpt lat="39.8219581384308" lon="9.135173808192167"><ele>683.0</ele><time>2026-04-28T08:37:43.991Z</time></trkpt><trkpt lat="39.82176183676651" lon="9.13538775912985"><ele>683.0</ele><time>2026-04-28T08:37:44.991Z</time></trkpt><trkpt lat="39.821564656434624" lon="9.135605693325006"><ele>682.5</ele><time>2026-04-28T08:37:45.991Z</time></trkpt><trkpt lat="39.821371784055835" lon="9.135818342160954"><ele>682.0</ele><time>2026-04-28T08:37:46.991Z</time></trkpt><trkpt lat="39.8211827296895" lon="9.136036498559662"><ele>682.0</ele><time>2026-04-28T08:37:47.991Z</time></trkpt><trkpt lat="39.82099665739929" lon="9.13625457038031"><ele>682.0</ele><time>2026-04-28T08:37:48.991Z</time></trkpt><trkpt lat="39.82081308115796" lon="9.136476222117777"><ele>681.0</ele><time>2026-04-28T08:37:49.991Z</time></trkpt><trkpt lat="39.820648653686085" lon="9.136723842948152"><ele>680.0</ele><time>2026-04-28T08:37:50.991Z</time></trkpt><trkpt lat="39.820499786920266" lon="9.136991286307339"><ele>680.0</ele><time>2026-04-28T08:37:51.991Z</time></trkpt><trkpt lat="39.82037113455426" lon="9.137271092994752"><ele>680.0</ele><time>2026-04-28T08:37:52.991Z</time></trkpt><trkpt lat="39.82025270697554" lon="9.137560983403528"><ele>681.5</ele><time>2026-04-28T08:37:53.991Z</time></trkpt><trkpt lat="39.82014669853586" lon="9.13786975091965"><ele>683.0</ele><time>2026-04-28T08:37:54.991Z</time></trkpt><trkpt lat="39.8200408541749" lon="9.13818042203274"><ele>683.5</ele><time>2026-04-28T08:37:55.991Z</time></trkpt><trkpt lat="39.81993266607509" lon="9.138489127094584"><ele>684.0</ele><time>2026-04-28T08:37:56.991Z</time></trkpt><trkpt lat="39.81982478182326" lon="9.138794013513893"><ele>684.5</ele><time>2026-04-28T08:37:57.991Z</time></trkpt><trkpt lat="39.81971997148572" lon="9.139097029746518"><ele>685.0</ele><time>2026-04-28T08:37:58.991Z</time></trkpt><trkpt lat="39.81960936248536" lon="9.139400311374096"><ele>685.0</ele><time>2026-04-28T08:37:59.991Z</time></trkpt><trkpt lat="39.81950153283616" lon="9.139704585225054"><ele>685.0</ele><time>2026-04-28T08:38:00.991Z</time></trkpt><trkpt lat="39.81939379691197" lon="9.140008665831449"><ele>684.5</ele><time>2026-04-28T08:38:01.991Z</time></trkpt><trkpt lat="39.819284237655026" lon="9.140313003279497"><ele>684.0</ele><time>2026-04-28T08:38:02.991Z</time></trkpt><trkpt lat="39.81917129292854" lon="9.14061718977247"><ele>684.5</ele><time>2026-04-28T08:38:03.991Z</time></trkpt><trkpt lat="39.81906537548984" lon="9.140914881505466"><ele>685.0</ele><time>2026-04-28T08:38:04.991Z</time></trkpt><trkpt lat="39.81895545944317" lon="9.14121921654446"><ele>685.0</ele><time>2026-04-28T08:38:05.991Z</time></trkpt><trkpt lat="39.81884901755947" lon="9.141524465305856"><ele>685.0</ele><time>2026-04-28T08:38:06.991Z</time></trkpt><trkpt lat="39.81874026902742" lon="9.1418282385706"><ele>687.0</ele><time>2026-04-28T08:38:07.991Z</time></trkpt><trkpt lat="39.818624864806516" lon="9.142137841132167"><ele>689.0</ele><time>2026-04-28T08:38:08.991Z</time></trkpt><trkpt lat="39.81851384322746" lon="9.142454335749612"><ele>689.0</ele><time>2026-04-28T08:38:09.991Z</time></trkpt><trkpt lat="39.81840542197766" lon="9.142766452463528"><ele>689.0</ele><time>2026-04-28T08:38:10.991Z</time></trkpt><trkpt lat="39.818292590068424" lon="9.143078217837425"><ele>690.0</ele><time>2026-04-28T08:38:11.991Z</time></trkpt><trkpt lat="39.81818011039833" lon="9.143393633779516"><ele>691.0</ele><time>2026-04-28T08:38:12.991Z</time></trkpt><trkpt lat="39.8180649644785" lon="9.143714201330933"><ele>691.0</ele><time>2026-04-28T08:38:13.991Z</time></trkpt><trkpt lat="39.817952936814144" lon="9.14402058514697"><ele>691.0</ele><time>2026-04-28T08:38:14.991Z</time></trkpt><trkpt lat="39.81784378563093" lon="9.144334552726084"><ele>692.5</ele><time>2026-04-28T08:38:15.991Z</time></trkpt><trkpt lat="39.817729873638065" lon="9.14464579383066"><ele>694.0</ele><time>2026-04-28T08:38:16.991Z</time></trkpt><trkpt lat="39.817613070067004" lon="9.144960760089855"><ele>695.0</ele><time>2026-04-28T08:38:17.991Z</time></trkpt><trkpt lat="39.81749880746693" lon="9.145277600433893"><ele>696.0</ele><time>2026-04-28T08:38:18.991Z</time></trkpt><trkpt lat="39.817380650736695" lon="9.145591762399944"><ele>696.5</ele><time>2026-04-28T08:38:19.991Z</time></trkpt><trkpt lat="39.8172651403028" lon="9.145904604674351"><ele>697.0</ele><time>2026-04-28T08:38:20.991Z</time></trkpt><trkpt lat="39.81715404486839" lon="9.146217831946489"><ele>697.0</ele><time>2026-04-28T08:38:21.991Z</time></trkpt><trkpt lat="39.81704167902652" lon="9.14653430557827"><ele>697.0</ele><time>2026-04-28T08:38:22.991Z</time></trkpt><trkpt lat="39.816925686262834" lon="9.146850396817003"><ele>697.5</ele><time>2026-04-28T08:38:23.991Z</time></trkpt><trkpt lat="39.81681099029468" lon="9.14716696271172"><ele>698.0</ele><time>2026-04-28T08:38:24.991Z</time></trkpt><trkpt lat="39.8166994565874" lon="9.147484683724507"><ele>699.0</ele><time>2026-04-28T08:38:25.991Z</time></trkpt><trkpt lat="39.8165907004571" lon="9.147796952790662"><ele>700.0</ele><time>2026-04-28T08:38:26.991Z</time></trkpt><trkpt lat="39.816479804002675" lon="9.148106262450293"><ele>701.0</ele><time>2026-04-28T08:38:27.991Z</time></trkpt><trkpt lat="39.816366152469136" lon="9.14841627879188"><ele>702.0</ele><time>2026-04-28T08:38:28.991Z</time></trkpt><trkpt lat="39.81625150296409" lon="9.148722777210093"><ele>702.0</ele><time>2026-04-28T08:38:29.991Z</time></trkpt><trkpt lat="39.81612618277694" lon="9.149020443522108"><ele>702.0</ele><time>2026-04-28T08:38:30.991Z</time></trkpt><trkpt lat="39.8159903279519" lon="9.149322116799482"><ele>701.5</ele><time>2026-04-28T08:38:31.991Z</time></trkpt><trkpt lat="39.8158409327608" lon="9.149619011703326"><ele>701.0</ele><time>2026-04-28T08:38:32.991Z</time></trkpt><trkpt lat="39.81568825936797" lon="9.149906277182131"><ele>702.5</ele><time>2026-04-28T08:38:33.991Z</time></trkpt><trkpt lat="39.81553815129422" lon="9.150198527398016"><ele>704.0</ele><time>2026-04-28T08:38:34.991Z</time></trkpt><trkpt lat="39.81537350699014" lon="9.150485449226219"><ele>704.5</ele><time>2026-04-28T08:38:35.991Z</time></trkpt><trkpt lat="39.81521343999914" lon="9.150771255747946"><ele>705.0</ele><time>2026-04-28T08:38:36.991Z</time></trkpt><trkpt lat="39.815055744912705" lon="9.15105801047866"><ele>703.5</ele><time>2026-04-28T08:38:37.991Z</time></trkpt><trkpt lat="39.8148972391698" lon="9.15134026149782"><ele>702.0</ele><time>2026-04-28T08:38:38.991Z</time></trkpt><trkpt lat="39.81474589046143" lon="9.151615216285009"><ele>702.0</ele><time>2026-04-28T08:38:39.991Z</time></trkpt><trkpt lat="39.81460171733569" lon="9.151880208396415"><ele>702.0</ele><time>2026-04-28T08:38:40.991Z</time></trkpt><trkpt lat="39.81444486960876" lon="9.152139782256237"><ele>701.0</ele><time>2026-04-28T08:38:41.99Z</time></trkpt><trkpt lat="39.81430234305475" lon="9.152411497887947"><ele>700.0</ele><time>2026-04-28T08:38:42.99Z</time></trkpt><trkpt lat="39.814154523537134" lon="9.152679093234356"><ele>700.0</ele><time>2026-04-28T08:38:43.99Z</time></trkpt><trkpt lat="39.81401493464867" lon="9.152940558186886"><ele>700.0</ele><time>2026-04-28T08:38:44.99Z</time></trkpt><trkpt lat="39.81387734112001" lon="9.153180044873269"><ele>701.0</ele><time>2026-04-28T08:38:45.99Z</time></trkpt><trkpt lat="39.813731994107805" lon="9.153428819572396"><ele>702.0</ele><time>2026-04-28T08:38:46.99Z</time></trkpt><trkpt lat="39.81357411327328" lon="9.153682511929068"><ele>701.5</ele><time>2026-04-28T08:38:47.99Z</time></trkpt><trkpt lat="39.813412892752915" lon="9.153930700604764"><ele>701.0</ele><time>2026-04-28T08:38:48.99Z</time></trkpt><trkpt lat="39.813233975521406" lon="9.15416378396816"><ele>702.0</ele><time>2026-04-28T08:38:49.99Z</time></trkpt><trkpt lat="39.81304056646895" lon="9.154395054361547"><ele>703.0</ele><time>2026-04-28T08:38:50.99Z</time></trkpt><trkpt lat="39.8128498074434" lon="9.154616471024667"><ele>703.0</ele><time>2026-04-28T08:38:51.99Z</time></trkpt><trkpt lat="39.81265948866616" lon="9.154841005264228"><ele>703.0</ele><time>2026-04-28T08:38:52.99Z</time></trkpt><trkpt lat="39.81246391963496" lon="9.155068658658605"><ele>704.0</ele><time>2026-04-28T08:38:53.99Z</time></trkpt><trkpt lat="39.812268025019534" lon="9.155295862429824"><ele>705.0</ele><time>2026-04-28T08:38:54.99Z</time></trkpt><trkpt lat="39.81208199280792" lon="9.155520932168114"><ele>704.5</ele><time>2026-04-28T08:38:55.99Z</time></trkpt><trkpt lat="39.81189785670961" lon="9.15574661599849"><ele>704.0</ele><time>2026-04-28T08:38:56.99Z</time></trkpt><trkpt lat="39.81171267207452" lon="9.155965025651989"><ele>704.0</ele><time>2026-04-28T08:38:57.99Z</time></trkpt><trkpt lat="39.81153415111018" lon="9.156186586899302"><ele>704.0</ele><time>2026-04-28T08:38:58.99Z</time></trkpt><trkpt lat="39.811357203931344" lon="9.156416170925372"><ele>705.5</ele><time>2026-04-28T08:38:59.99Z</time></trkpt><trkpt lat="39.81119873222869" lon="9.156650308266961"><ele>707.0</ele><time>2026-04-28T08:39:00.99Z</time></trkpt><trkpt lat="39.81105607255019" lon="9.156895578024752"><ele>707.6666666666666</ele><time>2026-04-28T08:39:01.99Z</time></trkpt><trkpt lat="39.81093694049878" lon="9.157130188335204"><ele>708.3333333333334</ele><time>2026-04-28T08:39:02.99Z</time></trkpt><trkpt lat="39.81082140641391" lon="9.157352312465461"><ele>709.0</ele><time>2026-04-28T08:39:03.99Z</time></trkpt><trkpt lat="39.8107186356247" lon="9.157552469746818"><ele>709.0</ele><time>2026-04-28T08:39:04.99Z</time></trkpt><trkpt lat="39.8106195842772" lon="9.157737615567491"><ele>709.0</ele><time>2026-04-28T08:39:05.99Z</time></trkpt><trkpt lat="39.81052575416724" lon="9.157908097076998"><ele>709.0</ele><time>2026-04-28T08:39:06.99Z</time></trkpt><trkpt lat="39.8104200302776" lon="9.158051131611403"><ele>709.0</ele><time>2026-04-28T08:39:07.99Z</time></trkpt><trkpt lat="39.810302410328624" lon="9.158180411100238"><ele>709.0</ele><time>2026-04-28T08:39:08.99Z</time></trkpt><trkpt lat="39.81018145780664" lon="9.15828653369729"><ele>709.0</ele><time>2026-04-28T08:39:09.99Z</time></trkpt><trkpt lat="39.8100565494814" lon="9.158376874323945"><ele>709.0</ele><time>2026-04-28T08:39:10.99Z</time></trkpt><trkpt lat="39.80993186661493" lon="9.158466698925071"><ele>709.25</ele><time>2026-04-28T08:39:11.99Z</time></trkpt><trkpt lat="39.80980198033921" lon="9.158557728061634"><ele>709.5</ele><time>2026-04-28T08:39:12.99Z</time></trkpt><trkpt lat="39.809676614471066" lon="9.158652677529426"><ele>709.75</ele><time>2026-04-28T08:39:13.99Z</time></trkpt><trkpt lat="39.809547782402134" lon="9.158749197659949"><ele>710.0</ele><time>2026-04-28T08:39:14.99Z</time></trkpt><trkpt lat="39.809419569634144" lon="9.158849275094"><ele>710.0</ele><time>2026-04-28T08:39:15.99Z</time></trkpt><trkpt lat="39.809280980421136" lon="9.15894163594523"><ele>710.0</ele><time>2026-04-28T08:39:16.99Z</time></trkpt><trkpt lat="39.809130903464634" lon="9.159011029659892"><ele>710.0</ele><time>2026-04-28T08:39:17.99Z</time></trkpt><trkpt lat="39.808974158376344" lon="9.159068623001446"><ele>710.0</ele><time>2026-04-28T08:39:18.99Z</time></trkpt><trkpt lat="39.8088028130422" lon="9.159111227822235"><ele>710.0</ele><time>2026-04-28T08:39:19.99Z</time></trkpt><trkpt lat="39.80863125753626" lon="9.159152255245713"><ele>710.0</ele><time>2026-04-28T08:39:20.99Z</time></trkpt><trkpt lat="39.80845218485297" lon="9.159206571119022"><ele>710.0</ele><time>2026-04-28T08:39:21.99Z</time></trkpt><trkpt lat="39.808265459937786" lon="9.159289328213776"><ele>710.0</ele><time>2026-04-28T08:39:22.992Z</time></trkpt><trkpt lat="39.80807487400788" lon="9.159399917500961"><ele>710.0</ele><time>2026-04-28T08:39:23.992Z</time></trkpt><trkpt lat="39.807882014445106" lon="9.159520752948227"><ele>710.0</ele><time>2026-04-28T08:39:24.992Z</time></trkpt><trkpt lat="39.80767597951004" lon="9.159633675658553"><ele>710.0</ele><time>2026-04-28T08:39:25.992Z</time></trkpt><trkpt lat="39.80746990228045" lon="9.159748533024436"><ele>710.0</ele><time>2026-04-28T08:39:26.992Z</time></trkpt><trkpt lat="39.80726892071681" lon="9.159867134768895"><ele>709.0</ele><time>2026-04-28T08:39:27.992Z</time></trkpt><trkpt lat="39.80706426375214" lon="9.159986518518366"><ele>708.0</ele><time>2026-04-28T08:39:28.992Z</time></trkpt><trkpt lat="39.80685480557524" lon="9.160100197576762"><ele>706.5</ele><time>2026-04-28T08:39:29.992Z</time></trkpt><trkpt lat="39.8066355968013" lon="9.160191708029355"><ele>705.0</ele><time>2026-04-28T08:39:30.992Z</time></trkpt><trkpt lat="39.80641175899814" lon="9.160285598124906"><ele>705.0</ele><time>2026-04-28T08:39:31.992Z</time></trkpt><trkpt lat="39.80618449981266" lon="9.160371193495736"><ele>705.0</ele><time>2026-04-28T08:39:32.992Z</time></trkpt><trkpt lat="39.80595420532839" lon="9.160456465456255"><ele>703.5</ele><time>2026-04-28T08:39:33.992Z</time></trkpt><trkpt lat="39.805723275399444" lon="9.160543319372623"><ele>702.0</ele><time>2026-04-28T08:39:34.992Z</time></trkpt><trkpt lat="39.80548699002517" lon="9.160639483373425"><ele>701.5</ele><time>2026-04-28T08:39:35.991Z</time></trkpt><trkpt lat="39.80525111954322" lon="9.160736177569252"><ele>701.0</ele><time>2026-04-28T08:39:36.991Z</time></trkpt><trkpt lat="39.80501571613932" lon="9.160830303080763"><ele>701.0</ele><time>2026-04-28T08:39:37.991Z</time></trkpt><trkpt lat="39.80477595249988" lon="9.16092739963587"><ele>701.0</ele><time>2026-04-28T08:39:38.991Z</time></trkpt><trkpt lat="39.80453574270393" lon="9.161021104892216"><ele>701.0</ele><time>2026-04-28T08:39:39.991Z</time></trkpt><trkpt lat="39.80429404397635" lon="9.161113882443528"><ele>701.0</ele><time>2026-04-28T08:39:40.991Z</time></trkpt><trkpt lat="39.80405070897914" lon="9.16118637881489"><ele>701.0</ele><time>2026-04-28T08:39:41.991Z</time></trkpt><trkpt lat="39.803802556354675" lon="9.161239034211206"><ele>701.0</ele><time>2026-04-28T08:39:42.991Z</time></trkpt><trkpt lat="39.803551303105195" lon="9.161278478124023"><ele>699.5</ele><time>2026-04-28T08:39:43.991Z</time></trkpt><trkpt lat="39.80329770117867" lon="9.16130904757869"><ele>698.0</ele><time>2026-04-28T08:39:44.991Z</time></trkpt><trkpt lat="39.803039678691285" lon="9.161333091392555"><ele>698.0</ele><time>2026-04-28T08:39:45.991Z</time></trkpt><trkpt lat="39.80278652776056" lon="9.161358255601408"><ele>698.0</ele><time>2026-04-28T08:39:46.991Z</time></trkpt><trkpt lat="39.802536651446964" lon="9.161382566054977"><ele>695.5</ele><time>2026-04-28T08:39:47.991Z</time></trkpt><trkpt lat="39.802285163331376" lon="9.161406272431181"><ele>693.0</ele><time>2026-04-28T08:39:48.991Z</time></trkpt><trkpt lat="39.80204433581288" lon="9.161429996585811"><ele>693.0</ele><time>2026-04-28T08:39:49.991Z</time></trkpt><trkpt lat="39.80179563272826" lon="9.161448757204688"><ele>693.0</ele><time>2026-04-28T08:39:50.991Z</time></trkpt><trkpt lat="39.801552652956445" lon="9.161454589820586"><ele>693.0</ele><time>2026-04-28T08:39:51.991Z</time></trkpt><trkpt lat="39.801303877766905" lon="9.161430647627169"><ele>693.0</ele><time>2026-04-28T08:39:52.991Z</time></trkpt><trkpt lat="39.80105809353011" lon="9.161383649314894"><ele>695.0</ele><time>2026-04-28T08:39:53.991Z</time></trkpt><trkpt lat="39.800814320041866" lon="9.161306649365937"><ele>697.0</ele><time>2026-04-28T08:39:54.991Z</time></trkpt><trkpt lat="39.800577204776715" lon="9.161199253340838"><ele>697.0</ele><time>2026-04-28T08:39:55.991Z</time></trkpt><trkpt lat="39.800349141922396" lon="9.161065384799791"><ele>697.0</ele><time>2026-04-28T08:39:56.991Z</time></trkpt><trkpt lat="39.800124712602816" lon="9.160912293024232"><ele>695.5</ele><time>2026-04-28T08:39:57.991Z</time></trkpt><trkpt lat="39.799900470103864" lon="9.160758808301614"><ele>694.0</ele><time>2026-04-28T08:39:58.991Z</time></trkpt><trkpt lat="39.79967076191418" lon="9.160612896465524"><ele>693.0</ele><time>2026-04-28T08:39:59.991Z</time></trkpt><trkpt lat="39.79943476538933" lon="9.160484545181605"><ele>692.0</ele><time>2026-04-28T08:40:00.991Z</time></trkpt><trkpt lat="39.799195206468305" lon="9.160378157012127"><ele>690.5</ele><time>2026-04-28T08:40:01.991Z</time></trkpt><trkpt lat="39.798944734125854" lon="9.160292696570991"><ele>689.0</ele><time>2026-04-28T08:40:02.991Z</time></trkpt><trkpt lat="39.79869384309018" lon="9.16022507370617"><ele>688.5</ele><time>2026-04-28T08:40:03.991Z</time></trkpt><trkpt lat="39.79843902710573" lon="9.160190244380283"><ele>688.0</ele><time>2026-04-28T08:40:04.991Z</time></trkpt><trkpt lat="39.798181679105944" lon="9.160172448613084"><ele>688.0</ele><time>2026-04-28T08:40:05.991Z</time></trkpt><trkpt lat="39.79792423257773" lon="9.160163404818674"><ele>688.0</ele><time>2026-04-28T08:40:06.991Z</time></trkpt><trkpt lat="39.797663308412304" lon="9.16015472551595"><ele>687.5</ele><time>2026-04-28T08:40:07.991Z</time></trkpt><trkpt lat="39.79740337887673" lon="9.160141038929682"><ele>687.0</ele><time>2026-04-28T08:40:08.991Z</time></trkpt><trkpt lat="39.79714442796283" lon="9.160118493674332"><ele>687.0</ele><time>2026-04-28T08:40:09.991Z</time></trkpt><trkpt lat="39.79688779732532" lon="9.160100777741391"><ele>687.0</ele><time>2026-04-28T08:40:10.991Z</time></trkpt><trkpt lat="39.796630970629565" lon="9.160084882841328"><ele>687.0</ele><time>2026-04-28T08:40:11.991Z</time></trkpt><trkpt lat="39.79637605007586" lon="9.160069150681496"><ele>687.0</ele><time>2026-04-28T08:40:12.991Z</time></trkpt><trkpt lat="39.796120374602914" lon="9.160055341732749"><ele>686.0</ele><time>2026-04-28T08:40:13.991Z</time></trkpt><trkpt lat="39.7958626764083" lon="9.160036374192076"><ele>685.0</ele><time>2026-04-28T08:40:14.991Z</time></trkpt><trkpt lat="39.79560388464947" lon="9.16002144099783"><ele>685.0</ele><time>2026-04-28T08:40:15.991Z</time></trkpt><trkpt lat="39.79534684230646" lon="9.160005799706605"><ele>685.0</ele><time>2026-04-28T08:40:16.991Z</time></trkpt><trkpt lat="39.79508984089271" lon="9.159989038374414"><ele>683.5</ele><time>2026-04-28T08:40:17.991Z</time></trkpt><trkpt lat="39.794832761329474" lon="9.159986123249004"><ele>682.0</ele><time>2026-04-28T08:40:18.991Z</time></trkpt><trkpt lat="39.79457929033279" lon="9.15999514898644"><ele>679.0</ele><time>2026-04-28T08:40:19.991Z</time></trkpt><trkpt lat="39.794327844256344" lon="9.160032031068875"><ele>676.0</ele><time>2026-04-28T08:40:20.991Z</time></trkpt><trkpt lat="39.79407795696287" lon="9.16009889798641"><ele>676.0</ele><time>2026-04-28T08:40:21.991Z</time></trkpt><trkpt lat="39.79383220224638" lon="9.160188994374918"><ele>676.0</ele><time>2026-04-28T08:40:22.991Z</time></trkpt><trkpt lat="39.79359237099039" lon="9.160301386713511"><ele>672.0</ele><time>2026-04-28T08:40:23.99Z</time></trkpt><trkpt lat="39.7933554474615" lon="9.160426217702984"><ele>668.0</ele><time>2026-04-28T08:40:24.99Z</time></trkpt><trkpt lat="39.793117506441185" lon="9.160557093321383"><ele>668.0</ele><time>2026-04-28T08:40:25.99Z</time></trkpt><trkpt lat="39.79288048739466" lon="9.160681733772444"><ele>668.0</ele><time>2026-04-28T08:40:26.99Z</time></trkpt><trkpt lat="39.79263880857656" lon="9.160788551293392"><ele>665.5</ele><time>2026-04-28T08:40:27.99Z</time></trkpt><trkpt lat="39.792395381387394" lon="9.160870407791684"><ele>663.0</ele><time>2026-04-28T08:40:28.99Z</time></trkpt><trkpt lat="39.79214523442041" lon="9.160899345562473"><ele>663.0</ele><time>2026-04-28T08:40:29.99Z</time></trkpt><trkpt lat="39.791899068366696" lon="9.160879683406009"><ele>663.0</ele><time>2026-04-28T08:40:30.99Z</time></trkpt><trkpt lat="39.791661317937006" lon="9.160810544994273"><ele>663.0</ele><time>2026-04-28T08:40:31.99Z</time></trkpt><trkpt lat="39.791426888435666" lon="9.160715660062193"><ele>663.0</ele><time>2026-04-28T08:40:32.99Z</time></trkpt><trkpt lat="39.79119936297542" lon="9.16058898680875"><ele>660.0</ele><time>2026-04-28T08:40:33.99Z</time></trkpt><trkpt lat="39.79097320186036" lon="9.160441948727934"><ele>657.0</ele><time>2026-04-28T08:40:34.99Z</time></trkpt><trkpt lat="39.79074246357209" lon="9.160285698362976"><ele>657.0</ele><time>2026-04-28T08:40:35.99Z</time></trkpt><trkpt lat="39.79051170408472" lon="9.160125512506783"><ele>657.0</ele><time>2026-04-28T08:40:36.99Z</time></trkpt><trkpt lat="39.79027957273219" lon="9.159965394431829"><ele>654.0</ele><time>2026-04-28T08:40:37.99Z</time></trkpt><trkpt lat="39.790051086688564" lon="9.159814734349919"><ele>651.0</ele><time>2026-04-28T08:40:38.99Z</time></trkpt><trkpt lat="39.7898271452966" lon="9.159663501233918"><ele>651.0</ele><time>2026-04-28T08:40:39.99Z</time></trkpt><trkpt lat="39.78961050054047" lon="9.159501113334823"><ele>651.0</ele><time>2026-04-28T08:40:40.99Z</time></trkpt><trkpt lat="39.78940371151863" lon="9.159313656776463"><ele>647.5</ele><time>2026-04-28T08:40:41.99Z</time></trkpt><trkpt lat="39.78921425159242" lon="9.159097586547064"><ele>644.0</ele><time>2026-04-28T08:40:42.99Z</time></trkpt><trkpt lat="39.78903996797059" lon="9.158860747019387"><ele>643.0</ele><time>2026-04-28T08:40:43.99Z</time></trkpt><trkpt lat="39.78887782240552" lon="9.158605088105176"><ele>642.0</ele><time>2026-04-28T08:40:44.99Z</time></trkpt><trkpt lat="39.78873242089555" lon="9.158332795637136"><ele>638.5</ele><time>2026-04-28T08:40:45.99Z</time></trkpt><trkpt lat="39.788609826095396" lon="9.158038761649161"><ele>635.0</ele><time>2026-04-28T08:40:46.99Z</time></trkpt><trkpt lat="39.78850355658618" lon="9.157736580749356"><ele>632.5</ele><time>2026-04-28T08:40:47.99Z</time></trkpt><trkpt lat="39.78841300281897" lon="9.157426257095725"><ele>630.0</ele><time>2026-04-28T08:40:48.99Z</time></trkpt><trkpt lat="39.78831747673882" lon="9.157113186656893"><ele>627.0</ele><time>2026-04-28T08:40:49.99Z</time></trkpt><trkpt lat="39.788227465102246" lon="9.15679918305621"><ele>624.0</ele><time>2026-04-28T08:40:50.99Z</time></trkpt><trkpt lat="39.788136885265544" lon="9.156482303222967"><ele>621.0</ele><time>2026-04-28T08:40:51.99Z</time></trkpt><trkpt lat="39.78803937320367" lon="9.156164398995413"><ele>618.0</ele><time>2026-04-28T08:40:52.99Z</time></trkpt><trkpt lat="39.78794383502037" lon="9.155845355397707"><ele>615.5</ele><time>2026-04-28T08:40:53.99Z</time></trkpt><trkpt lat="39.78784651493741" lon="9.15551927398862"><ele>613.0</ele><time>2026-04-28T08:40:54.99Z</time></trkpt><trkpt lat="39.78775107787725" lon="9.155197506046624"><ele>612.0</ele><time>2026-04-28T08:40:55.99Z</time></trkpt><trkpt lat="39.78765401165878" lon="9.154871326787505"><ele>611.0</ele><time>2026-04-28T08:40:56.99Z</time></trkpt><trkpt lat="39.7875625070924" lon="9.154538950943158"><ele>610.0</ele><time>2026-04-28T08:40:57.99Z</time></trkpt><trkpt lat="39.78746641748083" lon="9.154213926967529"><ele>609.0</ele><time>2026-04-28T08:40:58.99Z</time></trkpt><trkpt lat="39.7873750151316" lon="9.15389251968688"><ele>608.0</ele><time>2026-04-28T08:40:59.99Z</time></trkpt><trkpt lat="39.78728676125794" lon="9.153574325847863"><ele>607.0</ele><time>2026-04-28T08:41:00.99Z</time></trkpt><trkpt lat="39.787197936368216" lon="9.153259999889073"><ele>604.5</ele><time>2026-04-28T08:41:01.99Z</time></trkpt><trkpt lat="39.787107867470894" lon="9.15294566666555"><ele>602.0</ele><time>2026-04-28T08:41:02.99Z</time></trkpt><trkpt lat="39.78701339749204" lon="9.152631977941187"><ele>601.5</ele><time>2026-04-28T08:41:03.99Z</time></trkpt><trkpt lat="39.786923310329094" lon="9.15231957208012"><ele>601.0</ele><time>2026-04-28T08:41:04.99Z</time></trkpt><trkpt lat="39.78682752244534" lon="9.152008779901175"><ele>597.5</ele><time>2026-04-28T08:41:05.99Z</time></trkpt><trkpt lat="39.78673360581956" lon="9.151694586467318"><ele>594.0</ele><time>2026-04-28T08:41:06.99Z</time></trkpt><trkpt lat="39.786639295453746" lon="9.151384172792435"><ele>593.0</ele><time>2026-04-28T08:41:07.99Z</time></trkpt><trkpt lat="39.786546337728595" lon="9.151068505205387"><ele>592.0</ele><time>2026-04-28T08:41:08.99Z</time></trkpt><trkpt lat="39.78646231956403" lon="9.150748940686134"><ele>590.0</ele><time>2026-04-28T08:41:09.99Z</time></trkpt><trkpt lat="39.78639350139286" lon="9.150420244852468"><ele>588.0</ele><time>2026-04-28T08:41:10.99Z</time></trkpt><trkpt lat="39.78634604507055" lon="9.150085096073262"><ele>586.5</ele><time>2026-04-28T08:41:11.99Z</time></trkpt><trkpt lat="39.78632116299527" lon="9.14975186631034"><ele>585.0</ele><time>2026-04-28T08:41:12.99Z</time></trkpt><trkpt lat="39.78631341090769" lon="9.149413667731363"><ele>585.0</ele><time>2026-04-28T08:41:13.99Z</time></trkpt><trkpt lat="39.78632054591194" lon="9.149075599176788"><ele>585.0</ele><time>2026-04-28T08:41:14.99Z</time></trkpt><trkpt lat="39.78634009309006" lon="9.148740935414564"><ele>581.5</ele><time>2026-04-28T08:41:15.99Z</time></trkpt><trkpt lat="39.7863790006576" lon="9.148409391701351"><ele>578.0</ele><time>2026-04-28T08:41:16.99Z</time></trkpt><trkpt lat="39.78643600931174" lon="9.1480858285694"><ele>574.5</ele><time>2026-04-28T08:41:17.99Z</time></trkpt><trkpt lat="39.78651158764047" lon="9.147772133323802"><ele>571.0</ele><time>2026-04-28T08:41:18.99Z</time></trkpt><trkpt lat="39.786606942301354" lon="9.147462408089998"><ele>568.0</ele><time>2026-04-28T08:41:19.99Z</time></trkpt><trkpt lat="39.786716984940135" lon="9.147166983319462"><ele>565.0</ele><time>2026-04-28T08:41:20.99Z</time></trkpt><trkpt lat="39.786841340760034" lon="9.146885713077628"><ele>567.0</ele><time>2026-04-28T08:41:21.99Z</time></trkpt><trkpt lat="39.786983604105544" lon="9.1466172106307"><ele>569.0</ele><time>2026-04-28T08:41:22.99Z</time></trkpt><trkpt lat="39.787133359669696" lon="9.146354385086337"><ele>569.0</ele><time>2026-04-28T08:41:23.99Z</time></trkpt><trkpt lat="39.787294666480065" lon="9.14609565699416"><ele>569.0</ele><time>2026-04-28T08:41:24.99Z</time></trkpt><trkpt lat="39.78745383190986" lon="9.145828255505302"><ele>570.5</ele><time>2026-04-28T08:41:25.99Z</time></trkpt><trkpt lat="39.7876048171586" lon="9.145559528250919"><ele>572.0</ele><time>2026-04-28T08:41:26.99Z</time></trkpt><trkpt lat="39.7877599870733" lon="9.145288221150548"><ele>572.0</ele><time>2026-04-28T08:41:27.99Z</time></trkpt><trkpt lat="39.78791442428333" lon="9.145016029837521"><ele>572.0</ele><time>2026-04-28T08:41:28.992Z</time></trkpt><trkpt lat="39.78806565887469" lon="9.144739382171213"><ele>568.0</ele><time>2026-04-28T08:41:29.992Z</time></trkpt><trkpt lat="39.78820845106303" lon="9.144450243130676"><ele>564.0</ele><time>2026-04-28T08:41:30.992Z</time></trkpt><trkpt lat="39.78833691337898" lon="9.14415280395843"><ele>561.5</ele><time>2026-04-28T08:41:31.992Z</time></trkpt><trkpt lat="39.788459437308525" lon="9.14384827382695"><ele>559.0</ele><time>2026-04-28T08:41:32.991Z</time></trkpt><trkpt lat="39.78857135418993" lon="9.143535806401239"><ele>554.5</ele><time>2026-04-28T08:41:33.991Z</time></trkpt><trkpt lat="39.78867432867909" lon="9.143213584408926"><ele>550.0</ele><time>2026-04-28T08:41:34.992Z</time></trkpt><trkpt lat="39.78876365337358" lon="9.142890369658035"><ele>550.0</ele><time>2026-04-28T08:41:35.992Z</time></trkpt><trkpt lat="39.788836734446946" lon="9.142557373169227"><ele>550.0</ele><time>2026-04-28T08:41:36.992Z</time></trkpt><trkpt lat="39.788898534039056" lon="9.142224485162165"><ele>546.5</ele><time>2026-04-28T08:41:37.992Z</time></trkpt><trkpt lat="39.78894902469929" lon="9.14189454866849"><ele>543.0</ele><time>2026-04-28T08:41:38.991Z</time></trkpt><trkpt lat="39.78899310263235" lon="9.141562617411306"><ele>541.0</ele><time>2026-04-28T08:41:39.991Z</time></trkpt><trkpt lat="39.78904344785228" lon="9.1412325532935"><ele>539.0</ele><time>2026-04-28T08:41:40.992Z</time></trkpt><trkpt lat="39.7890902756026" lon="9.140911768859551"><ele>536.0</ele><time>2026-04-28T08:41:41.991Z</time></trkpt><trkpt lat="39.78913612771613" lon="9.140591527418335"><ele>533.0</ele><time>2026-04-28T08:41:42.991Z</time></trkpt><trkpt lat="39.78918155671573" lon="9.140267642032038"><ele>533.0</ele><time>2026-04-28T08:41:43.991Z</time></trkpt><trkpt lat="39.78922734363157" lon="9.139938435143511"><ele>533.0</ele><time>2026-04-28T08:41:44.991Z</time></trkpt><trkpt lat="39.78927534186485" lon="9.139609963522513"><ele>530.0</ele><time>2026-04-28T08:41:45.991Z</time></trkpt><trkpt lat="39.78932286210349" lon="9.139284303529902"><ele>527.0</ele><time>2026-04-28T08:41:46.991Z</time></trkpt><trkpt lat="39.78937121816333" lon="9.138954380476234"><ele>525.0</ele><time>2026-04-28T08:41:47.991Z</time></trkpt><trkpt lat="39.78941966217778" lon="9.138626182989956"><ele>523.0</ele><time>2026-04-28T08:41:48.991Z</time></trkpt><trkpt lat="39.7894668276303" lon="9.138298624368286"><ele>520.5</ele><time>2026-04-28T08:41:49.991Z</time></trkpt><trkpt lat="39.789513399385164" lon="9.137968494894643"><ele>518.0</ele><time>2026-04-28T08:41:50.991Z</time></trkpt><trkpt lat="39.789560975088385" lon="9.137634793225207"><ele>515.5</ele><time>2026-04-28T08:41:51.991Z</time></trkpt><trkpt lat="39.789607887341916" lon="9.13730361530429"><ele>513.0</ele><time>2026-04-28T08:41:52.991Z</time></trkpt><trkpt lat="39.78965439765335" lon="9.136971242831171"><ele>513.0</ele><time>2026-04-28T08:41:53.991Z</time></trkpt><trkpt lat="39.7897022089198" lon="9.136633008504225"><ele>513.0</ele><time>2026-04-28T08:41:54.991Z</time></trkpt><trkpt lat="39.789750065154415" lon="9.136296167292853"><ele>512.0</ele><time>2026-04-28T08:41:55.991Z</time></trkpt><trkpt lat="39.78979903082569" lon="9.135962339337576"><ele>511.0</ele><time>2026-04-28T08:41:56.991Z</time></trkpt><trkpt lat="39.78984499801275" lon="9.135627686299461"><ele>511.0</ele><time>2026-04-28T08:41:57.991Z</time></trkpt><trkpt lat="39.78988813462226" lon="9.135296211191243"><ele>511.0</ele><time>2026-04-28T08:41:58.991Z</time></trkpt><trkpt lat="39.78994169710731" lon="9.134975508143494"><ele>511.5</ele><time>2026-04-28T08:41:59.991Z</time></trkpt><trkpt lat="39.7899925080801" lon="9.134664922941251"><ele>512.0</ele><time>2026-04-28T08:42:00.991Z</time></trkpt><trkpt lat="39.79003683991885" lon="9.13436091257154"><ele>512.0</ele><time>2026-04-28T08:42:01.991Z</time></trkpt><trkpt lat="39.79007937004769" lon="9.134063358009543"><ele>512.0</ele><time>2026-04-28T08:42:02.991Z</time></trkpt><trkpt lat="39.790122204047606" lon="9.133777096490682"><ele>512.3333333333333</ele><time>2026-04-28T08:42:03.991Z</time></trkpt><trkpt lat="39.79016176762011" lon="9.133509288550936"><ele>512.6666666666666</ele><time>2026-04-28T08:42:04.991Z</time></trkpt><trkpt lat="39.7901944753467" lon="9.133249389641058"><ele>513.0</ele><time>2026-04-28T08:42:05.991Z</time></trkpt><trkpt lat="39.79022816920693" lon="9.13299810567362"><ele>512.6666666666666</ele><time>2026-04-28T08:42:06.991Z</time></trkpt><trkpt lat="39.79026291377631" lon="9.132766549391318"><ele>512.3333333333333</ele><time>2026-04-28T08:42:07.991Z</time></trkpt><trkpt lat="39.79029731290029" lon="9.132534368487569"><ele>512.0</ele><time>2026-04-28T08:42:08.991Z</time></trkpt><trkpt lat="39.79033188321312" lon="9.13230059683054"><ele>512.0</ele><time>2026-04-28T08:42:09.991Z</time></trkpt><trkpt lat="39.79036627812759" lon="9.132067464023008"><ele>512.0</ele><time>2026-04-28T08:42:10.991Z</time></trkpt><trkpt lat="39.79039933413297" lon="9.131844428344868"><ele>512.0</ele><time>2026-04-28T08:42:11.991Z</time></trkpt><trkpt lat="39.790436294642674" lon="9.131624191310589"><ele>511.3333333333333</ele><time>2026-04-28T08:42:12.991Z</time></trkpt><trkpt lat="39.790472783355256" lon="9.131413228706654"><ele>510.66666666666663</ele><time>2026-04-28T08:42:13.991Z</time></trkpt><trkpt lat="39.790506636339785" lon="9.131201562932548"><ele>510.0</ele><time>2026-04-28T08:42:14.991Z</time></trkpt><trkpt lat="39.79053459515901" lon="9.130989406973164"><ele>510.0</ele><time>2026-04-28T08:42:15.991Z</time></trkpt><trkpt lat="39.79056455474482" lon="9.130773241421192"><ele>510.0</ele><time>2026-04-28T08:42:16.991Z</time></trkpt><trkpt lat="39.79058268196022" lon="9.130541360926241"><ele>510.0</ele><time>2026-04-28T08:42:17.991Z</time></trkpt><trkpt lat="39.7906095728734" lon="9.13029981282109"><ele>510.0</ele><time>2026-04-28T08:42:18.991Z</time></trkpt><trkpt lat="39.790649965021274" lon="9.130060242254064"><ele>510.0</ele><time>2026-04-28T08:42:19.99Z</time></trkpt><trkpt lat="39.79069363922945" lon="9.129811879042496"><ele>510.0</ele><time>2026-04-28T08:42:20.99Z</time></trkpt><trkpt lat="39.79073693356925" lon="9.129560191384742"><ele>509.66666666666663</ele><time>2026-04-28T08:42:21.99Z</time></trkpt><trkpt lat="39.79077271764829" lon="9.12930668783456"><ele>509.3333333333333</ele><time>2026-04-28T08:42:22.99Z</time></trkpt><trkpt lat="39.79080329143495" lon="9.12905037745717"><ele>509.0</ele><time>2026-04-28T08:42:23.99Z</time></trkpt><trkpt lat="39.79083516458688" lon="9.128798841880077"><ele>508.0</ele><time>2026-04-28T08:42:24.99Z</time></trkpt><trkpt lat="39.79087392682113" lon="9.12855391560627"><ele>507.0</ele><time>2026-04-28T08:42:25.99Z</time></trkpt><trkpt lat="39.79091332996332" lon="9.128318851102136"><ele>506.0</ele><time>2026-04-28T08:42:26.99Z</time></trkpt><trkpt lat="39.79094088465245" lon="9.12810297177234"><ele>506.0</ele><time>2026-04-28T08:42:27.99Z</time></trkpt><trkpt lat="39.790930148510306" lon="9.127910481886715"><ele>506.0</ele><time>2026-04-28T08:42:28.99Z</time></trkpt><trkpt lat="39.79085673149977" lon="9.127751624329964"><ele>506.0</ele><time>2026-04-28T08:42:29.99Z</time></trkpt><trkpt lat="39.790745912399764" lon="9.127627306680536"><ele>506.0</ele><time>2026-04-28T08:42:30.99Z</time></trkpt><trkpt lat="39.79060057067903" lon="9.127556305171948"><ele>506.0</ele><time>2026-04-28T08:42:31.99Z</time></trkpt><trkpt lat="39.79042876906202" lon="9.12754602790602"><ele>506.0</ele><time>2026-04-28T08:42:32.99Z</time></trkpt><trkpt lat="39.79026196863234" lon="9.127514002467258"><ele>506.0</ele><time>2026-04-28T08:42:33.99Z</time></trkpt><trkpt lat="39.79008364534081" lon="9.127469607418574"><ele>505.66666666666663</ele><time>2026-04-28T08:42:34.99Z</time></trkpt><trkpt lat="39.78989710854763" lon="9.127423076461184"><ele>505.33333333333337</ele><time>2026-04-28T08:42:35.99Z</time></trkpt><trkpt lat="39.78970479924686" lon="9.127378177394185"><ele>505.0</ele><time>2026-04-28T08:42:36.99Z</time></trkpt><trkpt lat="39.789511563948714" lon="9.127333540139581"><ele>505.33333333333337</ele><time>2026-04-28T08:42:37.99Z</time></trkpt><trkpt lat="39.78931222633912" lon="9.127285800584323"><ele>505.66666666666663</ele><time>2026-04-28T08:42:38.99Z</time></trkpt><trkpt lat="39.789115671095935" lon="9.127235619056895"><ele>506.0</ele><time>2026-04-28T08:42:39.99Z</time></trkpt><trkpt lat="39.788932053439794" lon="9.127190824784119"><ele>506.0</ele><time>2026-04-28T08:42:40.99Z</time></trkpt><trkpt lat="39.78874247903501" lon="9.127149582751537"><ele>506.0</ele><time>2026-04-28T08:42:41.99Z</time></trkpt><trkpt lat="39.78855191599544" lon="9.127112122054061"><ele>506.0</ele><time>2026-04-28T08:42:42.99Z</time></trkpt><trkpt lat="39.788358190677144" lon="9.127070545181232"><ele>506.0</ele><time>2026-04-28T08:42:43.99Z</time></trkpt><trkpt lat="39.78816029942297" lon="9.127022705897124"><ele>506.0</ele><time>2026-04-28T08:42:44.99Z</time></trkpt><trkpt lat="39.787960413690804" lon="9.12697493293082"><ele>506.0</ele><time>2026-04-28T08:42:45.99Z</time></trkpt><trkpt lat="39.787756022233076" lon="9.126927670236517"><ele>505.0</ele><time>2026-04-28T08:42:46.99Z</time></trkpt><trkpt lat="39.78754735592974" lon="9.126883705395556"><ele>504.0</ele><time>2026-04-28T08:42:47.99Z</time></trkpt><trkpt lat="39.78733748819373" lon="9.126838240487386"><ele>503.0</ele><time>2026-04-28T08:42:48.99Z</time></trkpt><trkpt lat="39.787130053980974" lon="9.126793158461092"><ele>503.0</ele><time>2026-04-28T08:42:49.99Z</time></trkpt><trkpt lat="39.78692133333848" lon="9.126745898064419"><ele>503.0</ele><time>2026-04-28T08:42:50.99Z</time></trkpt><trkpt lat="39.78671130851052" lon="9.126698903371327"><ele>503.0</ele><time>2026-04-28T08:42:51.99Z</time></trkpt><trkpt lat="39.786500791942814" lon="9.126652880368098"><ele>503.0</ele><time>2026-04-28T08:42:52.99Z</time></trkpt><trkpt lat="39.78628722516635" lon="9.12660837977331"><ele>503.0</ele><time>2026-04-28T08:42:53.99Z</time></trkpt><trkpt lat="39.78607169529326" lon="9.12656023399804"><ele>503.0</ele><time>2026-04-28T08:42:54.99Z</time></trkpt><trkpt lat="39.78585231052162" lon="9.126510402681296"><ele>503.0</ele><time>2026-04-28T08:42:55.99Z</time></trkpt><trkpt lat="39.78563449788536" lon="9.126461995822877"><ele>503.0</ele><time>2026-04-28T08:42:56.99Z</time></trkpt><trkpt lat="39.78541893308844" lon="9.126409653293932"><ele>503.0</ele><time>2026-04-28T08:42:57.99Z</time></trkpt><trkpt lat="39.78519951529731" lon="9.12636094660482"><ele>503.3333333333333</ele><time>2026-04-28T08:42:58.99Z</time></trkpt><trkpt lat="39.7849807532027" lon="9.126315042702872"><ele>503.66666666666663</ele><time>2026-04-28T08:42:59.99Z</time></trkpt><trkpt lat="39.7847647442589" lon="9.126264610855177"><ele>504.0</ele><time>2026-04-28T08:43:00.99Z</time></trkpt><trkpt lat="39.78454335522249" lon="9.12620662434843"><ele>504.0</ele><time>2026-04-28T08:43:01.99Z</time></trkpt><trkpt lat="39.784320175184774" lon="9.126149310898569"><ele>504.0</ele><time>2026-04-28T08:43:02.99Z</time></trkpt><trkpt lat="39.78409537005239" lon="9.126103869486784"><ele>504.0</ele><time>2026-04-28T08:43:03.99Z</time></trkpt><trkpt lat="39.7838686711638" lon="9.126068098429863"><ele>504.0</ele><time>2026-04-28T08:43:04.99Z</time></trkpt><trkpt lat="39.783636952489715" lon="9.126027171809502"><ele>502.0</ele><time>2026-04-28T08:43:05.99Z</time></trkpt><trkpt lat="39.78340577031362" lon="9.125977553563184"><ele>500.0</ele><time>2026-04-28T08:43:06.99Z</time></trkpt><trkpt lat="39.78317730293666" lon="9.125920307076862"><ele>500.0</ele><time>2026-04-28T08:43:07.99Z</time></trkpt><trkpt lat="39.78295122132648" lon="9.12586432462605"><ele>500.0</ele><time>2026-04-28T08:43:08.99Z</time></trkpt><trkpt lat="39.78272524115744" lon="9.125805756538577"><ele>498.5</ele><time>2026-04-28T08:43:09.99Z</time></trkpt><trkpt lat="39.78249584251925" lon="9.12574523766138"><ele>497.0</ele><time>2026-04-28T08:43:10.99Z</time></trkpt><trkpt lat="39.782265076794666" lon="9.125686667575222"><ele>494.5</ele><time>2026-04-28T08:43:11.99Z</time></trkpt><trkpt lat="39.78203496426817" lon="9.125628242152379"><ele>492.0</ele><time>2026-04-28T08:43:12.99Z</time></trkpt><trkpt lat="39.78181244070274" lon="9.125571474347144"><ele>491.0</ele><time>2026-04-28T08:43:13.99Z</time></trkpt><trkpt lat="39.781595539472924" lon="9.125511736413113"><ele>490.0</ele><time>2026-04-28T08:43:14.99Z</time></trkpt><trkpt lat="39.781376466018685" lon="9.125460746973118"><ele>489.0</ele><time>2026-04-28T08:43:15.99Z</time></trkpt><trkpt lat="39.78115620674139" lon="9.125413607967467"><ele>488.0</ele><time>2026-04-28T08:43:16.99Z</time></trkpt><trkpt lat="39.78093264287415" lon="9.125371875643344"><ele>487.0</ele><time>2026-04-28T08:43:17.99Z</time></trkpt><trkpt lat="39.780710590400474" lon="9.125327469158746"><ele>487.0</ele><time>2026-04-28T08:43:18.99Z</time></trkpt><trkpt lat="39.78049671599472" lon="9.12528779176974"><ele>487.0</ele><time>2026-04-28T08:43:19.99Z</time></trkpt><trkpt lat="39.780301118834764" lon="9.125242829467012"><ele>487.0</ele><time>2026-04-28T08:43:20.99Z</time></trkpt><trkpt lat="39.78012911668261" lon="9.125194168657105"><ele>487.40000000000003</ele><time>2026-04-28T08:43:21.99Z</time></trkpt><trkpt lat="39.779979104054476" lon="9.125146436495141"><ele>487.80000000000007</ele><time>2026-04-28T08:43:22.99Z</time></trkpt><trkpt lat="39.77985672860994" lon="9.125100019109002"><ele>488.2</ele><time>2026-04-28T08:43:23.99Z</time></trkpt><trkpt lat="39.77976953087251" lon="9.125058124587346"><ele>488.6</ele><time>2026-04-28T08:43:24.99Z</time></trkpt><trkpt lat="39.77970265329402" lon="9.125048032482006"><ele>489.0</ele><time>2026-04-28T08:43:25.99Z</time></trkpt><trkpt lat="39.77960921731508" lon="9.125117813303651"><ele>489.0</ele><time>2026-04-28T08:43:27.989Z</time></trkpt><trkpt lat="39.77958904634185" lon="9.125211741686634"><ele>489.0</ele><time>2026-04-28T08:43:28.989Z</time></trkpt><trkpt lat="39.77958677906673" lon="9.12533017606678"><ele>489.0</ele><time>2026-04-28T08:43:29.989Z</time></trkpt><trkpt lat="39.779584160539166" lon="9.12545446164313"><ele>489.0</ele><time>2026-04-28T08:43:30.989Z</time></trkpt><trkpt lat="39.77957505820276" lon="9.12559018459305"><ele>489.0</ele><time>2026-04-28T08:43:31.989Z</time></trkpt><trkpt lat="39.77956259715678" lon="9.125731518946903"><ele>489.75</ele><time>2026-04-28T08:43:32.989Z</time></trkpt><trkpt lat="39.77954119066966" lon="9.125879531577462"><ele>490.5</ele><time>2026-04-28T08:43:33.989Z</time></trkpt><trkpt lat="39.779514052226574" lon="9.126032527283748"><ele>491.25</ele><time>2026-04-28T08:43:34.992Z</time></trkpt><trkpt lat="39.77948644849333" lon="9.126189179383479"><ele>492.0</ele><time>2026-04-28T08:43:35.992Z</time></trkpt><trkpt lat="39.779462179165016" lon="9.126348675186652"><ele>492.0</ele><time>2026-04-28T08:43:36.992Z</time></trkpt><trkpt lat="39.77944120880576" lon="9.126501973241608"><ele>492.0</ele><time>2026-04-28T08:43:37.992Z</time></trkpt><trkpt lat="39.77942358412763" lon="9.126653298131684"><ele>492.0</ele><time>2026-04-28T08:43:38.992Z</time></trkpt><trkpt lat="39.77940319624264" lon="9.126815997880593"><ele>492.0</ele><time>2026-04-28T08:43:39.992Z</time></trkpt><trkpt lat="39.77937983798014" lon="9.126986015248146"><ele>492.25</ele><time>2026-04-28T08:43:40.991Z</time></trkpt><trkpt lat="39.77935566141116" lon="9.127154154899982"><ele>492.5</ele><time>2026-04-28T08:43:41.992Z</time></trkpt><trkpt lat="39.779329557601464" lon="9.12733158951197"><ele>492.75</ele><time>2026-04-28T08:43:42.992Z</time></trkpt><trkpt lat="39.77930391994041" lon="9.127508107063747"><ele>493.0</ele><time>2026-04-28T08:43:43.991Z</time></trkpt><trkpt lat="39.779278361803954" lon="9.12768818945855"><ele>493.25</ele><time>2026-04-28T08:43:44.991Z</time></trkpt><trkpt lat="39.779250874764486" lon="9.127867070131517"><ele>493.5</ele><time>2026-04-28T08:43:45.991Z</time></trkpt><trkpt lat="39.779225513190994" lon="9.128047103750003"><ele>493.75</ele><time>2026-04-28T08:43:46.991Z</time></trkpt><trkpt lat="39.77920173574666" lon="9.128227056200831"><ele>494.0</ele><time>2026-04-28T08:43:47.991Z</time></trkpt><trkpt lat="39.77917700878486" lon="9.128406866453105"><ele>494.0</ele><time>2026-04-28T08:43:48.991Z</time></trkpt><trkpt lat="39.779150957539365" lon="9.128588269105178"><ele>494.0</ele><time>2026-04-28T08:43:49.991Z</time></trkpt><trkpt lat="39.77912430368957" lon="9.128770582673521"><ele>494.0</ele><time>2026-04-28T08:43:50.991Z</time></trkpt><trkpt lat="39.77909886774924" lon="9.128958497665929"><ele>494.0</ele><time>2026-04-28T08:43:51.991Z</time></trkpt><trkpt lat="39.779076302251426" lon="9.129148902992805"><ele>494.3333333333333</ele><time>2026-04-28T08:43:52.991Z</time></trkpt><trkpt lat="39.77904895939044" lon="9.129339710110253"><ele>494.66666666666663</ele><time>2026-04-28T08:43:53.991Z</time></trkpt><trkpt lat="39.779017885987955" lon="9.129531292268995"><ele>495.0</ele><time>2026-04-28T08:43:54.991Z</time></trkpt><trkpt lat="39.77898719312553" lon="9.129724767703996"><ele>494.75</ele><time>2026-04-28T08:43:55.991Z</time></trkpt><trkpt lat="39.778962105401604" lon="9.129908859913584"><ele>494.5</ele><time>2026-04-28T08:43:56.991Z</time></trkpt><trkpt lat="39.77893955041316" lon="9.130080220615561"><ele>494.25</ele><time>2026-04-28T08:43:57.991Z</time></trkpt><trkpt lat="39.77891175126624" lon="9.130238687877762"><ele>494.0</ele><time>2026-04-28T08:43:58.991Z</time></trkpt><trkpt lat="39.77888345892162" lon="9.130392392736576"><ele>494.0</ele><time>2026-04-28T08:43:59.991Z</time></trkpt><trkpt lat="39.778861210836716" lon="9.130540084447818"><ele>494.0</ele><time>2026-04-28T08:44:00.991Z</time></trkpt><trkpt lat="39.778830003826386" lon="9.130673021589498"><ele>494.0</ele><time>2026-04-28T08:44:01.991Z</time></trkpt><trkpt lat="39.77878020246334" lon="9.130788850773436"><ele>494.0</ele><time>2026-04-28T08:44:02.991Z</time></trkpt><trkpt lat="39.778747445620915" lon="9.130898575294134"><ele>494.0</ele><time>2026-04-28T08:44:03.991Z</time></trkpt><trkpt lat="39.77875267608368" lon="9.130993931698317"><ele>493.99999999999994</ele><time>2026-04-28T08:44:04.991Z</time></trkpt><trkpt lat="39.77883433722023" lon="9.131059028373228"><ele>494.0</ele><time>2026-04-28T08:44:06.991Z</time></trkpt><trkpt lat="39.77890787528807" lon="9.131009611359916"><ele>494.0</ele><time>2026-04-28T08:44:08.991Z</time></trkpt><trkpt lat="39.77892072337749" lon="9.130921041059715"><ele>494.0</ele><time>2026-04-28T08:44:09.991Z</time></trkpt><trkpt lat="39.77890925155236" lon="9.13082544518874"><ele>493.99999999999994</ele><time>2026-04-28T08:44:10.991Z</time></trkpt><trkpt lat="39.778897270087256" lon="9.130735310953296"><ele>494.0</ele><time>2026-04-28T08:44:11.991Z</time></trkpt><trkpt lat="39.77889950607381" lon="9.130634663029088"><ele>494.0</ele><time>2026-04-28T08:44:12.991Z</time></trkpt><trkpt lat="39.77890570877588" lon="9.1305241690301"><ele>494.0</ele><time>2026-04-28T08:44:13.991Z</time></trkpt><trkpt lat="39.77891738874952" lon="9.130412580535252"><ele>494.0</ele><time>2026-04-28T08:44:14.991Z</time></trkpt><trkpt lat="39.77893042997738" lon="9.130296020444684"><ele>494.0</ele><time>2026-04-28T08:44:15.991Z</time></trkpt><trkpt lat="39.77894150539195" lon="9.130172932765804"><ele>494.0</ele><time>2026-04-28T08:44:16.991Z</time></trkpt><trkpt lat="39.77895828834143" lon="9.1300394672771"><ele>494.0</ele><time>2026-04-28T08:44:17.991Z</time></trkpt><trkpt lat="39.77898107679202" lon="9.129905476279239"><ele>494.0</ele><time>2026-04-28T08:44:18.991Z</time></trkpt><trkpt lat="39.77900937473311" lon="9.129760844376412"><ele>494.0</ele><time>2026-04-28T08:44:19.991Z</time></trkpt><trkpt lat="39.77903028167983" lon="9.129609481462408"><ele>494.0</ele><time>2026-04-28T08:44:20.991Z</time></trkpt><trkpt lat="39.779044729987994" lon="9.129447675601138"><ele>494.0</ele><time>2026-04-28T08:44:21.991Z</time></trkpt><trkpt lat="39.77906157299578" lon="9.129283460727205"><ele>494.0</ele><time>2026-04-28T08:44:22.991Z</time></trkpt><trkpt lat="39.77908477340739" lon="9.129110526734914"><ele>494.0</ele><time>2026-04-28T08:44:23.991Z</time></trkpt><trkpt lat="39.77911317924531" lon="9.128927487886168"><ele>494.0</ele><time>2026-04-28T08:44:24.991Z</time></trkpt><trkpt lat="39.77914186794277" lon="9.12873867251105"><ele>494.0</ele><time>2026-04-28T08:44:25.991Z</time></trkpt><trkpt lat="39.779170979154316" lon="9.128539059192182"><ele>494.0</ele><time>2026-04-28T08:44:26.991Z</time></trkpt><trkpt lat="39.77920475420587" lon="9.128333570731947"><ele>494.0</ele><time>2026-04-28T08:44:27.991Z</time></trkpt><trkpt lat="39.77923294334792" lon="9.128125192283532"><ele>494.0</ele><time>2026-04-28T08:44:28.991Z</time></trkpt><trkpt lat="39.77926336051327" lon="9.127910623716005"><ele>494.0</ele><time>2026-04-28T08:44:29.991Z</time></trkpt><trkpt lat="39.779293046633434" lon="9.127692588200928"><ele>494.0</ele><time>2026-04-28T08:44:30.991Z</time></trkpt><trkpt lat="39.77932259168776" lon="9.127473082899172"><ele>493.66666666666663</ele><time>2026-04-28T08:44:31.991Z</time></trkpt><trkpt lat="39.77935649060597" lon="9.127244144519999"><ele>493.33333333333337</ele><time>2026-04-28T08:44:32.991Z</time></trkpt><trkpt lat="39.77938957018221" lon="9.127014769755913"><ele>493.0</ele><time>2026-04-28T08:44:33.991Z</time></trkpt><trkpt lat="39.77942654279161" lon="9.126780906847358"><ele>492.6666666666667</ele><time>2026-04-28T08:44:34.991Z</time></trkpt><trkpt lat="39.77946066668339" lon="9.126546697858227"><ele>492.33333333333337</ele><time>2026-04-28T08:44:35.991Z</time></trkpt><trkpt lat="39.77949237568041" lon="9.126309838403568"><ele>492.0</ele><time>2026-04-28T08:44:36.991Z</time></trkpt><trkpt lat="39.77952376803957" lon="9.126084514978249"><ele>492.0</ele><time>2026-04-28T08:44:37.991Z</time></trkpt><trkpt lat="39.77955387713595" lon="9.125879877071831"><ele>492.0</ele><time>2026-04-28T08:44:38.991Z</time></trkpt><trkpt lat="39.779592147630176" lon="9.12568774796213"><ele>492.0</ele><time>2026-04-28T08:44:39.991Z</time></trkpt><trkpt lat="39.77963945827667" lon="9.125518936256286"><ele>491.40000000000003</ele><time>2026-04-28T08:44:40.991Z</time></trkpt><trkpt lat="39.779690366186905" lon="9.125376479056833"><ele>490.80000000000007</ele><time>2026-04-28T08:44:41.991Z</time></trkpt><trkpt lat="39.77973179408151" lon="9.125256196215565"><ele>490.2</ele><time>2026-04-28T08:44:42.99Z</time></trkpt><trkpt lat="39.77974957310953" lon="9.125162518057362"><ele>489.6</ele><time>2026-04-28T08:44:43.99Z</time></trkpt><trkpt lat="39.779717288402054" lon="9.12500086894563"><ele>489.0</ele><time>2026-04-28T08:44:45.99Z</time></trkpt><trkpt lat="39.77965794990241" lon="9.12491366811725"><ele>488.75</ele><time>2026-04-28T08:44:46.99Z</time></trkpt><trkpt lat="39.77957882854543" lon="9.124828348205442"><ele>488.5</ele><time>2026-04-28T08:44:47.99Z</time></trkpt><trkpt lat="39.779491869214695" lon="9.124732872947844"><ele>488.25</ele><time>2026-04-28T08:44:48.99Z</time></trkpt><trkpt lat="39.779402854360036" lon="9.124617768949296"><ele>488.0</ele><time>2026-04-28T08:44:49.99Z</time></trkpt><trkpt lat="39.77931323954569" lon="9.124489484278705"><ele>489.0</ele><time>2026-04-28T08:44:50.99Z</time></trkpt><trkpt lat="39.779214743399905" lon="9.124355257801673"><ele>490.0</ele><time>2026-04-28T08:44:51.99Z</time></trkpt><trkpt lat="39.77911157114141" lon="9.124242451991638"><ele>491.0</ele><time>2026-04-28T08:44:52.99Z</time></trkpt><trkpt lat="39.77899706080554" lon="9.124142065773121"><ele>492.0</ele><time>2026-04-28T08:44:53.99Z</time></trkpt><trkpt lat="39.77887119072765" lon="9.124039722631743"><ele>492.0</ele><time>2026-04-28T08:44:54.99Z</time></trkpt><trkpt lat="39.77875607365516" lon="9.123932564230248"><ele>492.0</ele><time>2026-04-28T08:44:55.99Z</time></trkpt><trkpt lat="39.77861387302294" lon="9.123702738862567"><ele>492.0</ele><time>2026-04-28T08:44:57.99Z</time></trkpt><trkpt lat="39.77858200481638" lon="9.123558406562438"><ele>492.0</ele><time>2026-04-28T08:44:58.99Z</time></trkpt><trkpt lat="39.77858931514743" lon="9.123397514749923"><ele>492.0</ele><time>2026-04-28T08:44:59.99Z</time></trkpt><trkpt lat="39.77861590668198" lon="9.12322586050006"><ele>492.0</ele><time>2026-04-28T08:45:00.99Z</time></trkpt><trkpt lat="39.77865392276761" lon="9.123035959814121"><ele>492.0</ele><time>2026-04-28T08:45:01.99Z</time></trkpt><trkpt lat="39.77869690245163" lon="9.122833010902244"><ele>490.33333333333337</ele><time>2026-04-28T08:45:02.99Z</time></trkpt><trkpt lat="39.7787563267275" lon="9.12262172386846"><ele>488.6666666666667</ele><time>2026-04-28T08:45:03.99Z</time></trkpt><trkpt lat="39.778827399380646" lon="9.12240251188611"><ele>487.0</ele><time>2026-04-28T08:45:04.99Z</time></trkpt><trkpt lat="39.77890349844412" lon="9.122174662871299"><ele>485.33333333333337</ele><time>2026-04-28T08:45:05.99Z</time></trkpt><trkpt lat="39.778972954496865" lon="9.121931253932889"><ele>483.66666666666663</ele><time>2026-04-28T08:45:06.99Z</time></trkpt><trkpt lat="39.77904680865506" lon="9.121663179030511"><ele>482.0</ele><time>2026-04-28T08:45:07.99Z</time></trkpt><trkpt lat="39.779119069280924" lon="9.121376871849751"><ele>481.0</ele><time>2026-04-28T08:45:08.99Z</time></trkpt><trkpt lat="39.77918955183333" lon="9.121087443897405"><ele>480.0</ele><time>2026-04-28T08:45:09.99Z</time></trkpt><trkpt lat="39.779249086111626" lon="9.12080714287611"><ele>478.5</ele><time>2026-04-28T08:45:10.99Z</time></trkpt><trkpt lat="39.779299014304684" lon="9.120517336206845"><ele>477.0</ele><time>2026-04-28T08:45:11.99Z</time></trkpt><trkpt lat="39.779343848107175" lon="9.12022354751639"><ele>476.0</ele><time>2026-04-28T08:45:12.99Z</time></trkpt><trkpt lat="39.77938048633716" lon="9.119930600622634"><ele>475.0</ele><time>2026-04-28T08:45:13.99Z</time></trkpt><trkpt lat="39.77940834124684" lon="9.11963754201989"><ele>474.0</ele><time>2026-04-28T08:45:14.99Z</time></trkpt><trkpt lat="39.77943926002808" lon="9.119334311035031"><ele>473.0</ele><time>2026-04-28T08:45:15.99Z</time></trkpt><trkpt lat="39.77947088714831" lon="9.119021996516425"><ele>467.5</ele><time>2026-04-28T08:45:16.99Z</time></trkpt><trkpt lat="39.7795095166259" lon="9.11870378321102"><ele>462.0</ele><time>2026-04-28T08:45:17.99Z</time></trkpt><trkpt lat="39.779550418839726" lon="9.118388111562568"><ele>459.5</ele><time>2026-04-28T08:45:18.99Z</time></trkpt><trkpt lat="39.77958735343492" lon="9.118069870472516"><ele>457.0</ele><time>2026-04-28T08:45:19.99Z</time></trkpt><trkpt lat="39.77962134875488" lon="9.117749234447269"><ele>457.0</ele><time>2026-04-28T08:45:20.99Z</time></trkpt><trkpt lat="39.779654576270396" lon="9.117430744823222"><ele>457.0</ele><time>2026-04-28T08:45:21.99Z</time></trkpt><trkpt lat="39.779690034278005" lon="9.1171187768508"><ele>459.5</ele><time>2026-04-28T08:45:22.99Z</time></trkpt><trkpt lat="39.77972609400528" lon="9.116807183583553"><ele>462.0</ele><time>2026-04-28T08:45:23.99Z</time></trkpt><trkpt lat="39.77975795891353" lon="9.116500519907463"><ele>466.0</ele><time>2026-04-28T08:45:24.99Z</time></trkpt><trkpt lat="39.77977894577407" lon="9.11620023239271"><ele>470.0</ele><time>2026-04-28T08:45:25.99Z</time></trkpt><trkpt lat="39.77978552653653" lon="9.115891564490974"><ele>473.0</ele><time>2026-04-28T08:45:26.99Z</time></trkpt><trkpt lat="39.7797723610847" lon="9.115580495193168"><ele>476.0</ele><time>2026-04-28T08:45:27.99Z</time></trkpt><trkpt lat="39.77973914821521" lon="9.11527124836628"><ele>476.0</ele><time>2026-04-28T08:45:28.99Z</time></trkpt><trkpt lat="39.77968436562284" lon="9.114967302878664"><ele>476.0</ele><time>2026-04-28T08:45:29.99Z</time></trkpt><trkpt lat="39.77961315321769" lon="9.114669601006627"><ele>479.0</ele><time>2026-04-28T08:45:30.99Z</time></trkpt><trkpt lat="39.779525415690166" lon="9.114377752629515"><ele>482.0</ele><time>2026-04-28T08:45:31.99Z</time></trkpt><trkpt lat="39.779416090955614" lon="9.11409243778697"><ele>480.0</ele><time>2026-04-28T08:45:32.99Z</time></trkpt><trkpt lat="39.77928881470432" lon="9.113816823380551"><ele>478.0</ele><time>2026-04-28T08:45:33.99Z</time></trkpt><trkpt lat="39.7791441997566" lon="9.113551933765589"><ele>478.0</ele><time>2026-04-28T08:45:34.99Z</time></trkpt><trkpt lat="39.77898372531153" lon="9.113303161379875"><ele>478.0</ele><time>2026-04-28T08:45:35.99Z</time></trkpt><trkpt lat="39.77880700343656" lon="9.11307047193655"><ele>479.5</ele><time>2026-04-28T08:45:36.99Z</time></trkpt><trkpt lat="39.77861669944685" lon="9.112849698336431"><ele>481.0</ele><time>2026-04-28T08:45:37.99Z</time></trkpt><trkpt lat="39.77841442748459" lon="9.112646085572395"><ele>481.0</ele><time>2026-04-28T08:45:38.99Z</time></trkpt><trkpt lat="39.77820760127657" lon="9.112444155352069"><ele>481.0</ele><time>2026-04-28T08:45:39.99Z</time></trkpt><trkpt lat="39.777998552995" lon="9.112247246018017"><ele>481.5</ele><time>2026-04-28T08:45:40.991Z</time></trkpt><trkpt lat="39.777795839591555" lon="9.112047049996077"><ele>482.0</ele><time>2026-04-28T08:45:41.991Z</time></trkpt><trkpt lat="39.77759294562544" lon="9.111844960865497"><ele>482.0</ele><time>2026-04-28T08:45:42.991Z</time></trkpt><trkpt lat="39.77738936746194" lon="9.111643229845763"><ele>482.0</ele><time>2026-04-28T08:45:43.992Z</time></trkpt><trkpt lat="39.77718617533618" lon="9.111437560234823"><ele>481.5</ele><time>2026-04-28T08:45:44.991Z</time></trkpt><trkpt lat="39.776983346248294" lon="9.111228910591144"><ele>481.0</ele><time>2026-04-28T08:45:45.991Z</time></trkpt><trkpt lat="39.77677404002043" lon="9.111016501734293"><ele>481.0</ele><time>2026-04-28T08:45:46.991Z</time></trkpt><trkpt lat="39.77657421538698" lon="9.110815836565088"><ele>481.0</ele><time>2026-04-28T08:45:47.992Z</time></trkpt><trkpt lat="39.77637054509971" lon="9.110599099345013"><ele>481.5</ele><time>2026-04-28T08:45:48.992Z</time></trkpt><trkpt lat="39.77617387589402" lon="9.110386469343123"><ele>482.0</ele><time>2026-04-28T08:45:49.991Z</time></trkpt><trkpt lat="39.77597198681274" lon="9.110164055038295"><ele>480.5</ele><time>2026-04-28T08:45:50.991Z</time></trkpt><trkpt lat="39.7757767392714" lon="9.109940460499102"><ele>479.0</ele><time>2026-04-28T08:45:51.991Z</time></trkpt><trkpt lat="39.77557974383615" lon="9.10971532662759"><ele>479.0</ele><time>2026-04-28T08:45:52.991Z</time></trkpt><trkpt lat="39.77537796278294" lon="9.109492930673715"><ele>479.0</ele><time>2026-04-28T08:45:53.991Z</time></trkpt><trkpt lat="39.77517282565567" lon="9.109272524423597"><ele>474.5</ele><time>2026-04-28T08:45:54.991Z</time></trkpt><trkpt lat="39.77496796995881" lon="9.109048553290206"><ele>470.0</ele><time>2026-04-28T08:45:55.991Z</time></trkpt><trkpt lat="39.77476694349659" lon="9.108822859363597"><ele>470.0</ele><time>2026-04-28T08:45:56.991Z</time></trkpt><trkpt lat="39.77456752584525" lon="9.108603029422495"><ele>470.0</ele><time>2026-04-28T08:45:57.991Z</time></trkpt><trkpt lat="39.77436972457793" lon="9.108383685797634"><ele>463.0</ele><time>2026-04-28T08:45:58.991Z</time></trkpt><trkpt lat="39.77417960272043" lon="9.108168685746849"><ele>456.0</ele><time>2026-04-28T08:45:59.991Z</time></trkpt><trkpt lat="39.7739993878606" lon="9.107936138242309"><ele>456.0</ele><time>2026-04-28T08:46:00.991Z</time></trkpt><trkpt lat="39.77383832591335" lon="9.107681648840686"><ele>456.0</ele><time>2026-04-28T08:46:01.991Z</time></trkpt><trkpt lat="39.773691344798834" lon="9.107408741840343"><ele>453.5</ele><time>2026-04-28T08:46:02.991Z</time></trkpt><trkpt lat="39.77356141927539" lon="9.107116158582789"><ele>451.0</ele><time>2026-04-28T08:46:03.991Z</time></trkpt><trkpt lat="39.77344499919762" lon="9.106812260218382"><ele>448.5</ele><time>2026-04-28T08:46:04.991Z</time></trkpt><trkpt lat="39.77334912063671" lon="9.106494910417904"><ele>446.0</ele><time>2026-04-28T08:46:05.991Z</time></trkpt><trkpt lat="39.773268767360555" lon="9.106170610984694"><ele>446.0</ele><time>2026-04-28T08:46:06.991Z</time></trkpt><trkpt lat="39.773202210974944" lon="9.105839764365083"><ele>446.0</ele><time>2026-04-28T08:46:07.991Z</time></trkpt><trkpt lat="39.773150528545166" lon="9.105506858828798"><ele>443.0</ele><time>2026-04-28T08:46:08.991Z</time></trkpt><trkpt lat="39.77309149417666" lon="9.105175839551537"><ele>440.0</ele><time>2026-04-28T08:46:09.991Z</time></trkpt><trkpt lat="39.773024209904115" lon="9.104845023796505"><ele>438.0</ele><time>2026-04-28T08:46:10.991Z</time></trkpt><trkpt lat="39.77295671773563" lon="9.10451735579848"><ele>436.0</ele><time>2026-04-28T08:46:11.991Z</time></trkpt><trkpt lat="39.77289027872862" lon="9.104186338821293"><ele>434.5</ele><time>2026-04-28T08:46:12.991Z</time></trkpt><trkpt lat="39.772824573339555" lon="9.103849048538446"><ele>433.0</ele><time>2026-04-28T08:46:13.991Z</time></trkpt><trkpt lat="39.77275783250793" lon="9.103514871282371"><ele>433.0</ele><time>2026-04-28T08:46:14.991Z</time></trkpt><trkpt lat="39.77269259860738" lon="9.103181209697777"><ele>433.0</ele><time>2026-04-28T08:46:15.991Z</time></trkpt><trkpt lat="39.77262675468753" lon="9.102852097352743"><ele>433.0</ele><time>2026-04-28T08:46:16.991Z</time></trkpt><trkpt lat="39.77256133036816" lon="9.102522155306938"><ele>433.0</ele><time>2026-04-28T08:46:17.991Z</time></trkpt><trkpt lat="39.772493341117354" lon="9.102191616033771"><ele>430.5</ele><time>2026-04-28T08:46:18.99Z</time></trkpt><trkpt lat="39.772425060443844" lon="9.101857826282531"><ele>428.0</ele><time>2026-04-28T08:46:19.99Z</time></trkpt><trkpt lat="39.77235467245652" lon="9.10152958343365"><ele>427.5</ele><time>2026-04-28T08:46:20.99Z</time></trkpt><trkpt lat="39.77228324752414" lon="9.101202623131158"><ele>427.0</ele><time>2026-04-28T08:46:21.99Z</time></trkpt><trkpt lat="39.77219883844676" lon="9.100882718335486"><ele>426.0</ele><time>2026-04-28T08:46:22.99Z</time></trkpt><trkpt lat="39.77208884473373" lon="9.100585519319415"><ele>425.0</ele><time>2026-04-28T08:46:23.99Z</time></trkpt><trkpt lat="39.77196234221138" lon="9.100304126443701"><ele>424.5</ele><time>2026-04-28T08:46:24.99Z</time></trkpt><trkpt lat="39.771824785878074" lon="9.100035448280307"><ele>424.0</ele><time>2026-04-28T08:46:25.99Z</time></trkpt><trkpt lat="39.771687444485615" lon="9.099777527307435"><ele>423.0</ele><time>2026-04-28T08:46:26.99Z</time></trkpt><trkpt lat="39.77155215306192" lon="9.099533530722532"><ele>422.0</ele><time>2026-04-28T08:46:27.99Z</time></trkpt><trkpt lat="39.77142437805419" lon="9.09931225412659"><ele>421.0</ele><time>2026-04-28T08:46:28.99Z</time></trkpt><trkpt lat="39.77131534001121" lon="9.099106356671243"><ele>420.75</ele><time>2026-04-28T08:46:29.99Z</time></trkpt><trkpt lat="39.771235970403296" lon="9.098920804921923"><ele>420.5</ele><time>2026-04-28T08:46:30.99Z</time></trkpt><trkpt lat="39.771181517302814" lon="9.09876093673209"><ele>420.25</ele><time>2026-04-28T08:46:31.99Z</time></trkpt><trkpt lat="39.77113392078272" lon="9.098625683196511"><ele>420.0</ele><time>2026-04-28T08:46:32.99Z</time></trkpt><trkpt lat="39.77108924934395" lon="9.098525742889203"><ele>420.0</ele><time>2026-04-28T08:46:33.99Z</time></trkpt><trkpt lat="39.771034378190706" lon="9.09847237972401"><ele>420.0</ele><time>2026-04-28T08:46:34.99Z</time></trkpt><trkpt lat="39.77094306534179" lon="9.098468064616664"><ele>420.0</ele><time>2026-04-28T08:46:36.99Z</time></trkpt><trkpt lat="39.770874562287716" lon="9.098513386362251"><ele>420.0</ele><time>2026-04-28T08:46:37.99Z</time></trkpt><trkpt lat="39.770793763591804" lon="9.098589499660566"><ele>420.0</ele><time>2026-04-28T08:46:38.99Z</time></trkpt><trkpt lat="39.770711373410315" lon="9.098696715111325"><ele>420.5</ele><time>2026-04-28T08:46:39.99Z</time></trkpt><trkpt lat="39.77062117728014" lon="9.098797245638378"><ele>421.0</ele><time>2026-04-28T08:46:40.99Z</time></trkpt><trkpt lat="39.770526336887414" lon="9.098901925517938"><ele>421.5</ele><time>2026-04-28T08:46:41.99Z</time></trkpt><trkpt lat="39.77042508951924" lon="9.09901629978477"><ele>422.0</ele><time>2026-04-28T08:46:42.99Z</time></trkpt><trkpt lat="39.77030972435476" lon="9.099132520600282"><ele>424.3333333333333</ele><time>2026-04-28T08:46:43.99Z</time></trkpt><trkpt lat="39.77018397445755" lon="9.099245319047272"><ele>426.66666666666663</ele><time>2026-04-28T08:46:44.99Z</time></trkpt><trkpt lat="39.77005358251909" lon="9.099365818663523"><ele>429.0</ele><time>2026-04-28T08:46:45.99Z</time></trkpt><trkpt lat="39.76991345929155" lon="9.09947988431718"><ele>429.0</ele><time>2026-04-28T08:46:46.99Z</time></trkpt><trkpt lat="39.769763142200325" lon="9.099594295553146"><ele>429.0</ele><time>2026-04-28T08:46:47.99Z</time></trkpt><trkpt lat="39.769601794032575" lon="9.099696900949954"><ele>429.0</ele><time>2026-04-28T08:46:48.99Z</time></trkpt><trkpt lat="39.76943187459104" lon="9.099785059031866"><ele>430.66666666666663</ele><time>2026-04-28T08:46:49.99Z</time></trkpt><trkpt lat="39.76925769757287" lon="9.099862412270983"><ele>432.3333333333333</ele><time>2026-04-28T08:46:50.99Z</time></trkpt><trkpt lat="39.76907248824217" lon="9.099935245322822"><ele>434.0</ele><time>2026-04-28T08:46:51.99Z</time></trkpt><trkpt lat="39.7688741115944" lon="9.100003107386977"><ele>434.0</ele><time>2026-04-28T08:46:52.99Z</time></trkpt><trkpt lat="39.76867555739862" lon="9.100069411970685"><ele>434.0</ele><time>2026-04-28T08:46:53.99Z</time></trkpt><trkpt lat="39.76847422152681" lon="9.100143323562783"><ele>434.0</ele><time>2026-04-28T08:46:54.99Z</time></trkpt><trkpt lat="39.76826922323558" lon="9.10022563277091"><ele>434.3333333333333</ele><time>2026-04-28T08:46:55.99Z</time></trkpt><trkpt lat="39.76806387645017" lon="9.100300885251835"><ele>434.66666666666663</ele><time>2026-04-28T08:46:56.99Z</time></trkpt><trkpt lat="39.767850871375146" lon="9.100375293689561"><ele>435.0</ele><time>2026-04-28T08:46:57.99Z</time></trkpt><trkpt lat="39.76763909219801" lon="9.100458585119677"><ele>435.0</ele><time>2026-04-28T08:46:58.99Z</time></trkpt><trkpt lat="39.76742550400953" lon="9.100561117130717"><ele>435.0</ele><time>2026-04-28T08:46:59.99Z</time></trkpt><trkpt lat="39.76721340815079" lon="9.100683306449415"><ele>435.0</ele><time>2026-04-28T08:47:00.99Z</time></trkpt><trkpt lat="39.7670036503645" lon="9.1008238055605"><ele>435.0</ele><time>2026-04-28T08:47:01.99Z</time></trkpt><trkpt lat="39.7667989814896" lon="9.100985916084861"><ele>434.0</ele><time>2026-04-28T08:47:02.99Z</time></trkpt><trkpt lat="39.76660386681656" lon="9.101173348037833"><ele>433.0</ele><time>2026-04-28T08:47:03.99Z</time></trkpt><trkpt lat="39.76641207081671" lon="9.101371677754374"><ele>435.0</ele><time>2026-04-28T08:47:04.99Z</time></trkpt><trkpt lat="39.76623158164938" lon="9.101586396474778"><ele>437.0</ele><time>2026-04-28T08:47:05.99Z</time></trkpt><trkpt lat="39.76606398763533" lon="9.10181977542416"><ele>437.5</ele><time>2026-04-28T08:47:06.99Z</time></trkpt><trkpt lat="39.765904817997594" lon="9.102062308334421"><ele>438.0</ele><time>2026-04-28T08:47:07.99Z</time></trkpt><trkpt lat="39.76575213045336" lon="9.102313835082784"><ele>438.5</ele><time>2026-04-28T08:47:08.99Z</time></trkpt><trkpt lat="39.76559735000394" lon="9.102570476346335"><ele>439.0</ele><time>2026-04-28T08:47:09.99Z</time></trkpt><trkpt lat="39.76543891665578" lon="9.102832374977293"><ele>439.0</ele><time>2026-04-28T08:47:10.99Z</time></trkpt><trkpt lat="39.76528161847127" lon="9.10309867760962"><ele>439.0</ele><time>2026-04-28T08:47:11.99Z</time></trkpt><trkpt lat="39.76512469745503" lon="9.103368048411525"><ele>438.5</ele><time>2026-04-28T08:47:12.99Z</time></trkpt><trkpt lat="39.7649556388281" lon="9.1036058837122"><ele>438.0</ele><time>2026-04-28T08:47:13.99Z</time></trkpt><trkpt lat="39.76480026603799" lon="9.103875586283182"><ele>437.5</ele><time>2026-04-28T08:47:14.99Z</time></trkpt><trkpt lat="39.76464810032303" lon="9.104136682824043"><ele>437.0</ele><time>2026-04-28T08:47:15.99Z</time></trkpt><trkpt lat="39.764493424289284" lon="9.104395735045975"><ele>435.5</ele><time>2026-04-28T08:47:16.99Z</time></trkpt><trkpt lat="39.76433793792089" lon="9.104654048323336"><ele>434.0</ele><time>2026-04-28T08:47:17.99Z</time></trkpt><trkpt lat="39.764183727525236" lon="9.104909235198548"><ele>434.5</ele><time>2026-04-28T08:47:18.99Z</time></trkpt><trkpt lat="39.76403780989457" lon="9.105168190401942"><ele>435.0</ele><time>2026-04-28T08:47:19.99Z</time></trkpt><trkpt lat="39.76390191924919" lon="9.105412119241592"><ele>435.0</ele><time>2026-04-28T08:47:20.99Z</time></trkpt><trkpt lat="39.76377717647281" lon="9.105640006797731"><ele>435.0</ele><time>2026-04-28T08:47:21.99Z</time></trkpt><trkpt lat="39.763655207286035" lon="9.105853483506156"><ele>435.0</ele><time>2026-04-28T08:47:22.99Z</time></trkpt><trkpt lat="39.76356092736247" lon="9.10606353549767"><ele>431.0</ele><time>2026-04-28T08:47:23.99Z</time></trkpt><trkpt lat="39.763476757306826" lon="9.106268438195068"><ele>427.0</ele><time>2026-04-28T08:47:24.99Z</time></trkpt><trkpt lat="39.76340028007991" lon="9.106474171881166"><ele>423.0</ele><time>2026-04-28T08:47:25.989Z</time></trkpt><trkpt lat="39.763332682278914" lon="9.106676068917526"><ele>423.0</ele><time>2026-04-28T08:47:26.989Z</time></trkpt><trkpt lat="39.76326315188624" lon="9.106865898560125"><ele>423.0</ele><time>2026-04-28T08:47:27.989Z</time></trkpt><trkpt lat="39.76319296926729" lon="9.107055163334168"><ele>423.0</ele><time>2026-04-28T08:47:28.989Z</time></trkpt><trkpt lat="39.763124853622585" lon="9.107239647781734"><ele>423.5</ele><time>2026-04-28T08:47:29.989Z</time></trkpt><trkpt lat="39.76305688077773" lon="9.107420024532104"><ele>424.0</ele><time>2026-04-28T08:47:30.989Z</time></trkpt><trkpt lat="39.76298868877026" lon="9.10759157388528"><ele>424.5</ele><time>2026-04-28T08:47:31.989Z</time></trkpt><trkpt lat="39.762918325593475" lon="9.107754388080298"><ele>425.0</ele><time>2026-04-28T08:47:32.989Z</time></trkpt><trkpt lat="39.76284594933467" lon="9.10792682455421"><ele>425.0</ele><time>2026-04-28T08:47:33.989Z</time></trkpt><trkpt lat="39.76277238081091" lon="9.10811431152045"><ele>425.0</ele><time>2026-04-28T08:47:34.989Z</time></trkpt><trkpt lat="39.762683430130366" lon="9.108307348327873"><ele>425.0</ele><time>2026-04-28T08:47:35.989Z</time></trkpt><trkpt lat="39.7625887751853" lon="9.108497816068217"><ele>422.66666666666663</ele><time>2026-04-28T08:47:36.989Z</time></trkpt><trkpt lat="39.76247025449722" lon="9.108692482034336"><ele>420.33333333333337</ele><time>2026-04-28T08:47:37.989Z</time></trkpt><trkpt lat="39.76233335634906" lon="9.108874338378008"><ele>418.0</ele><time>2026-04-28T08:47:38.989Z</time></trkpt><trkpt lat="39.76218180843159" lon="9.109052735440258"><ele>416.33333333333337</ele><time>2026-04-28T08:47:39.989Z</time></trkpt><trkpt lat="39.76203051852491" lon="9.109228453083904"><ele>414.66666666666663</ele><time>2026-04-28T08:47:40.989Z</time></trkpt><trkpt lat="39.761877804666604" lon="9.109397013017835"><ele>413.0</ele><time>2026-04-28T08:47:41.989Z</time></trkpt><trkpt lat="39.76171873035527" lon="9.109560192592252"><ele>413.0</ele><time>2026-04-28T08:47:42.989Z</time></trkpt><trkpt lat="39.761547324397" lon="9.109707298094534"><ele>413.0</ele><time>2026-04-28T08:47:43.989Z</time></trkpt><trkpt lat="39.76136625620896" lon="9.109849877487353"><ele>413.0</ele><time>2026-04-28T08:47:44.989Z</time></trkpt><trkpt lat="39.76118019483754" lon="9.109979375887148"><ele>413.0</ele><time>2026-04-28T08:47:45.989Z</time></trkpt><trkpt lat="39.760982288611395" lon="9.110088282094216"><ele>413.0</ele><time>2026-04-28T08:47:46.991Z</time></trkpt><trkpt lat="39.760776268800065" lon="9.110187716183384"><ele>413.0</ele><time>2026-04-28T08:47:47.991Z</time></trkpt><trkpt lat="39.760569869595635" lon="9.11028925685036"><ele>413.0</ele><time>2026-04-28T08:47:48.991Z</time></trkpt><trkpt lat="39.76037458499721" lon="9.110394408910244"><ele>413.0</ele><time>2026-04-28T08:47:49.991Z</time></trkpt><trkpt lat="39.760171999762434" lon="9.110494221190464"><ele>413.0</ele><time>2026-04-28T08:47:50.991Z</time></trkpt><trkpt lat="39.75996669283341" lon="9.110598102092023"><ele>417.5</ele><time>2026-04-28T08:47:51.991Z</time></trkpt><trkpt lat="39.75975873337066" lon="9.110710266069322"><ele>422.0</ele><time>2026-04-28T08:47:52.992Z</time></trkpt><trkpt lat="39.759547377796814" lon="9.110822329490833"><ele>418.0</ele><time>2026-04-28T08:47:53.991Z</time></trkpt><trkpt lat="39.7591246452704" lon="9.111076259083893"><ele>418.0</ele><time>2026-04-28T08:47:55.992Z</time></trkpt><trkpt lat="39.758918753067" lon="9.111227588387653"><ele>418.0</ele><time>2026-04-28T08:47:56.991Z</time></trkpt><trkpt lat="39.75873156803393" lon="9.111400692399863"><ele>419.5</ele><time>2026-04-28T08:47:57.991Z</time></trkpt><trkpt lat="39.758557034957505" lon="9.111595079633817"><ele>421.0</ele><time>2026-04-28T08:47:58.991Z</time></trkpt><trkpt lat="39.75839680022953" lon="9.111806409519328"><ele>425.5</ele><time>2026-04-28T08:47:59.991Z</time></trkpt><trkpt lat="39.7582457859268" lon="9.112025182742295"><ele>430.0</ele><time>2026-04-28T08:48:00.991Z</time></trkpt><trkpt lat="39.75809882495547" lon="9.112257000435172"><ele>426.5</ele><time>2026-04-28T08:48:01.991Z</time></trkpt><trkpt lat="39.757954754482874" lon="9.112490378471774"><ele>423.0</ele><time>2026-04-28T08:48:02.991Z</time></trkpt><trkpt lat="39.757803385822186" lon="9.112722628499089"><ele>435.0</ele><time>2026-04-28T08:48:03.991Z</time></trkpt><trkpt lat="39.757664481999655" lon="9.112972535360337"><ele>447.0</ele><time>2026-04-28T08:48:04.991Z</time></trkpt><trkpt lat="39.75756281261987" lon="9.113239438799866"><ele>447.0</ele><time>2026-04-28T08:48:05.991Z</time></trkpt><trkpt lat="39.757487822628896" lon="9.113525518101882"><ele>447.0</ele><time>2026-04-28T08:48:06.991Z</time></trkpt><trkpt lat="39.757424360192566" lon="9.113816311657589"><ele>443.33333333333337</ele><time>2026-04-28T08:48:07.991Z</time></trkpt><trkpt lat="39.75736234888229" lon="9.114100274675794"><ele>439.6666666666667</ele><time>2026-04-28T08:48:08.991Z</time></trkpt><trkpt lat="39.757296355571874" lon="9.114358302337891"><ele>436.0</ele><time>2026-04-28T08:48:09.991Z</time></trkpt><trkpt lat="39.75719174834922" lon="9.114590518877142"><ele>436.0</ele><time>2026-04-28T08:48:10.991Z</time></trkpt><trkpt lat="39.75706926790196" lon="9.114785878102346"><ele>436.0</ele><time>2026-04-28T08:48:11.991Z</time></trkpt><trkpt lat="39.75693115438178" lon="9.114918435650491"><ele>436.0</ele><time>2026-04-28T08:48:12.991Z</time></trkpt><trkpt lat="39.75677308031381" lon="9.114971843217425"><ele>436.33333333333337</ele><time>2026-04-28T08:48:13.991Z</time></trkpt><trkpt lat="39.75663190366944" lon="9.114958208250563"><ele>436.66666666666663</ele><time>2026-04-28T08:48:14.991Z</time></trkpt><trkpt lat="39.75647664788585" lon="9.114883711263014"><ele>437.0</ele><time>2026-04-28T08:48:15.991Z</time></trkpt><trkpt lat="39.7563154576989" lon="9.11481688416465"><ele>446.0</ele><time>2026-04-28T08:48:16.991Z</time></trkpt><trkpt lat="39.756148704802186" lon="9.114759429221886"><ele>455.0</ele><time>2026-04-28T08:48:17.991Z</time></trkpt><trkpt lat="39.75597228002856" lon="9.114730284880062"><ele>464.0</ele><time>2026-04-28T08:48:18.991Z</time></trkpt><trkpt lat="39.75578657706934" lon="9.114726126820184"><ele>466.3333333333333</ele><time>2026-04-28T08:48:19.991Z</time></trkpt><trkpt lat="39.75560081604401" lon="9.114731518469263"><ele>468.66666666666663</ele><time>2026-04-28T08:48:20.991Z</time></trkpt><trkpt lat="39.755415190654425" lon="9.114730438614142"><ele>471.0</ele><time>2026-04-28T08:48:21.991Z</time></trkpt><trkpt lat="39.7552347530465" lon="9.11471079680503"><ele>470.5</ele><time>2026-04-28T08:48:22.991Z</time></trkpt><trkpt lat="39.75509144537617" lon="9.114694664475303"><ele>470.0</ele><time>2026-04-28T08:48:23.991Z</time></trkpt><trkpt lat="39.75496359947116" lon="9.114760826646018"><ele>469.5</ele><time>2026-04-28T08:48:24.991Z</time></trkpt><trkpt lat="39.754862900816676" lon="9.114918319029957"><ele>469.0</ele><time>2026-04-28T08:48:25.991Z</time></trkpt><trkpt lat="39.7547565958359" lon="9.11509908660779"><ele>469.6666666666667</ele><time>2026-04-28T08:48:26.991Z</time></trkpt><trkpt lat="39.754634899479065" lon="9.115262904012994"><ele>470.33333333333337</ele><time>2026-04-28T08:48:27.991Z</time></trkpt><trkpt lat="39.754495482823565" lon="9.115404658668062"><ele>471.0</ele><time>2026-04-28T08:48:28.991Z</time></trkpt><trkpt lat="39.754346226035935" lon="9.115519036902187"><ele>471.0</ele><time>2026-04-28T08:48:29.991Z</time></trkpt><trkpt lat="39.75417597950168" lon="9.115573469241795"><ele>471.0</ele><time>2026-04-28T08:48:30.991Z</time></trkpt><trkpt lat="39.753998802270885" lon="9.115587729898692"><ele>471.0</ele><time>2026-04-28T08:48:31.991Z</time></trkpt><trkpt lat="39.75383598338265" lon="9.115639328496009"><ele>465.33333333333337</ele><time>2026-04-28T08:48:32.991Z</time></trkpt><trkpt lat="39.75371772227163" lon="9.115762123072365"><ele>459.6666666666667</ele><time>2026-04-28T08:48:33.991Z</time></trkpt><trkpt lat="39.753654232331506" lon="9.115953809608463"><ele>454.0</ele><time>2026-04-28T08:48:34.991Z</time></trkpt><trkpt lat="39.7536467427996" lon="9.11618184300052"><ele>454.0</ele><time>2026-04-28T08:48:35.991Z</time></trkpt><trkpt lat="39.753607505736255" lon="9.116375653702374"><ele>454.0</ele><time>2026-04-28T08:48:36.991Z</time></trkpt><trkpt lat="39.75349581106751" lon="9.116523697456154"><ele>454.0</ele><time>2026-04-28T08:48:37.991Z</time></trkpt><trkpt lat="39.7533421009334" lon="9.116621220210648"><ele>458.0</ele><time>2026-04-28T08:48:38.991Z</time></trkpt><trkpt lat="39.75315915885003" lon="9.116694617281508"><ele>462.0</ele><time>2026-04-28T08:48:39.991Z</time></trkpt><trkpt lat="39.752978145934286" lon="9.116789719443119"><ele>466.0</ele><time>2026-04-28T08:48:40.991Z</time></trkpt><trkpt lat="39.75281700365324" lon="9.116927209619346"><ele>468.0</ele><time>2026-04-28T08:48:41.99Z</time></trkpt><trkpt lat="39.75267891725321" lon="9.117099628651022"><ele>470.0</ele><time>2026-04-28T08:48:42.99Z</time></trkpt><trkpt lat="39.75254356737199" lon="9.11727755323281"><ele>472.0</ele><time>2026-04-28T08:48:43.99Z</time></trkpt><trkpt lat="39.752413346026024" lon="9.117453237647911"><ele>472.0</ele><time>2026-04-28T08:48:44.99Z</time></trkpt><trkpt lat="39.75228141736478" lon="9.117612659674766"><ele>472.0</ele><time>2026-04-28T08:48:45.99Z</time></trkpt><trkpt lat="39.752133428712" lon="9.11771970733413"><ele>472.0</ele><time>2026-04-28T08:48:46.99Z</time></trkpt><trkpt lat="39.7519652609999" lon="9.117782185760475"><ele>473.33333333333337</ele><time>2026-04-28T08:48:47.99Z</time></trkpt><trkpt lat="39.751782533131355" lon="9.117806077924396"><ele>474.66666666666663</ele><time>2026-04-28T08:48:48.99Z</time></trkpt><trkpt lat="39.751586800077774" lon="9.117777184822243"><ele>476.0</ele><time>2026-04-28T08:48:49.99Z</time></trkpt><trkpt lat="39.7513957593378" lon="9.117738015075803"><ele>476.0</ele><time>2026-04-28T08:48:50.99Z</time></trkpt><trkpt lat="39.75119806767845" lon="9.117709435448518"><ele>476.0</ele><time>2026-04-28T08:48:51.99Z</time></trkpt><trkpt lat="39.751002225959894" lon="9.117687218562805"><ele>476.0</ele><time>2026-04-28T08:48:52.99Z</time></trkpt><trkpt lat="39.75081531537233" lon="9.117659340505666"><ele>475.66666666666663</ele><time>2026-04-28T08:48:53.99Z</time></trkpt><trkpt lat="39.750642798015235" lon="9.11759243728381"><ele>475.33333333333337</ele><time>2026-04-28T08:48:54.99Z</time></trkpt><trkpt lat="39.75047966265568" lon="9.117474597335779"><ele>475.0</ele><time>2026-04-28T08:48:55.99Z</time></trkpt><trkpt lat="39.75032909779948" lon="9.11731458310714"><ele>473.33333333333337</ele><time>2026-04-28T08:48:56.99Z</time></trkpt><trkpt lat="39.75019743444275" lon="9.11712252325611"><ele>471.66666666666663</ele><time>2026-04-28T08:48:57.99Z</time></trkpt><trkpt lat="39.75009379960058" lon="9.116893730161932"><ele>470.0</ele><time>2026-04-28T08:48:58.99Z</time></trkpt><trkpt lat="39.75000615925484" lon="9.116671164789391"><ele>470.66666666666663</ele><time>2026-04-28T08:48:59.99Z</time></trkpt><trkpt lat="39.749950665611074" lon="9.116450193749477"><ele>471.33333333333337</ele><time>2026-04-28T08:49:00.99Z</time></trkpt><trkpt lat="39.74995708260126" lon="9.116222275375438"><ele>472.0</ele><time>2026-04-28T08:49:01.99Z</time></trkpt><trkpt lat="39.750017799064885" lon="9.116003146079613"><ele>472.0</ele><time>2026-04-28T08:49:02.99Z</time></trkpt><trkpt lat="39.75010540604045" lon="9.115785869761412"><ele>472.0</ele><time>2026-04-28T08:49:03.99Z</time></trkpt><trkpt lat="39.75020672618345" lon="9.115568313297251"><ele>472.0</ele><time>2026-04-28T08:49:04.99Z</time></trkpt><trkpt lat="39.75030217301524" lon="9.115336661594172"><ele>476.33333333333337</ele><time>2026-04-28T08:49:05.99Z</time></trkpt><trkpt lat="39.75037714276145" lon="9.11508289432901"><ele>480.66666666666663</ele><time>2026-04-28T08:49:06.99Z</time></trkpt><trkpt lat="39.750411198177325" lon="9.114813090039968"><ele>485.0</ele><time>2026-04-28T08:49:07.99Z</time></trkpt><trkpt lat="39.75043705665161" lon="9.11455440495695"><ele>485.3333333333333</ele><time>2026-04-28T08:49:08.99Z</time></trkpt><trkpt lat="39.750460881484685" lon="9.114285998480957"><ele>485.66666666666663</ele><time>2026-04-28T08:49:09.99Z</time></trkpt><trkpt lat="39.75049259547269" lon="9.114012780161564"><ele>486.0</ele><time>2026-04-28T08:49:10.99Z</time></trkpt><trkpt lat="39.75050349723427" lon="9.113734100089832"><ele>486.0</ele><time>2026-04-28T08:49:11.99Z</time></trkpt><trkpt lat="39.75050092564962" lon="9.1134608871993"><ele>486.0</ele><time>2026-04-28T08:49:12.99Z</time></trkpt><trkpt lat="39.750497797460206" lon="9.113197155180542"><ele>486.0</ele><time>2026-04-28T08:49:13.99Z</time></trkpt><trkpt lat="39.750482085081664" lon="9.112939510702576"><ele>487.33333333333337</ele><time>2026-04-28T08:49:14.99Z</time></trkpt><trkpt lat="39.75041270575805" lon="9.112698333464156"><ele>488.6666666666667</ele><time>2026-04-28T08:49:15.99Z</time></trkpt><trkpt lat="39.75029839676283" lon="9.112489732668905"><ele>490.0</ele><time>2026-04-28T08:49:16.99Z</time></trkpt><trkpt lat="39.75015062878663" lon="9.11232065224456"><ele>490.6666666666667</ele><time>2026-04-28T08:49:17.99Z</time></trkpt><trkpt lat="39.74997453003702" lon="9.112181085274308"><ele>491.33333333333337</ele><time>2026-04-28T08:49:18.99Z</time></trkpt><trkpt lat="39.74979246156219" lon="9.112038923413657"><ele>492.0</ele><time>2026-04-28T08:49:19.99Z</time></trkpt><trkpt lat="39.74962927044421" lon="9.11188185234134"><ele>492.0</ele><time>2026-04-28T08:49:20.99Z</time></trkpt><trkpt lat="39.749460274489834" lon="9.111718209772178"><ele>492.0</ele><time>2026-04-28T08:49:21.99Z</time></trkpt><trkpt lat="39.74929554137373" lon="9.111555014502756"><ele>492.0</ele><time>2026-04-28T08:49:22.99Z</time></trkpt><trkpt lat="39.74913034393457" lon="9.111398547632158"><ele>492.0</ele><time>2026-04-28T08:49:23.99Z</time></trkpt><trkpt lat="39.74896699271886" lon="9.111245531465501"><ele>492.0</ele><time>2026-04-28T08:49:24.99Z</time></trkpt><trkpt lat="39.74880500097773" lon="9.11109410732402"><ele>492.0</ele><time>2026-04-28T08:49:25.99Z</time></trkpt><trkpt lat="39.74864643032307" lon="9.11094231271572"><ele>492.33333333333337</ele><time>2026-04-28T08:49:26.99Z</time></trkpt><trkpt lat="39.7484858465226" lon="9.110786498763936"><ele>492.6666666666667</ele><time>2026-04-28T08:49:27.99Z</time></trkpt><trkpt lat="39.748325657965424" lon="9.110632256862187"><ele>493.0</ele><time>2026-04-28T08:49:28.99Z</time></trkpt><trkpt lat="39.74816744083408" lon="9.110482071441407"><ele>493.33333333333337</ele><time>2026-04-28T08:49:29.99Z</time></trkpt><trkpt lat="39.74800730685429" lon="9.110328251437604"><ele>493.66666666666663</ele><time>2026-04-28T08:49:30.99Z</time></trkpt><trkpt lat="39.7478478861128" lon="9.11017496821045"><ele>494.0</ele><time>2026-04-28T08:49:31.99Z</time></trkpt><trkpt lat="39.747689395851125" lon="9.110018856309484"><ele>494.66666666666663</ele><time>2026-04-28T08:49:32.99Z</time></trkpt><trkpt lat="39.74753480284208" lon="9.109869912385692"><ele>495.33333333333337</ele><time>2026-04-28T08:49:33.99Z</time></trkpt><trkpt lat="39.74737868601177" lon="9.109720291228317"><ele>496.0</ele><time>2026-04-28T08:49:34.99Z</time></trkpt><trkpt lat="39.747227426914385" lon="9.109573100190286"><ele>496.0</ele><time>2026-04-28T08:49:35.99Z</time></trkpt><trkpt lat="39.7470899034962" lon="9.109434621600398"><ele>496.0</ele><time>2026-04-28T08:49:36.99Z</time></trkpt><trkpt lat="39.74697101351948" lon="9.109315058038193"><ele>496.0</ele><time>2026-04-28T08:49:37.99Z</time></trkpt><trkpt lat="39.74686611282413" lon="9.109212932706505"><ele>496.8</ele><time>2026-04-28T08:49:38.99Z</time></trkpt><trkpt lat="39.74677563622597" lon="9.109112353393316"><ele>497.6</ele><time>2026-04-28T08:49:39.99Z</time></trkpt><trkpt lat="39.74670450705694" lon="9.109014482119107"><ele>498.4</ele><time>2026-04-28T08:49:40.99Z</time></trkpt><trkpt lat="39.74663825074835" lon="9.108919294095289"><ele>499.2</ele><time>2026-04-28T08:49:41.99Z</time></trkpt><trkpt lat="39.74658205836434" lon="9.108805649069714"><ele>500.0</ele><time>2026-04-28T08:49:42.99Z</time></trkpt><trkpt lat="39.7465494258597" lon="9.108666111957445"><ele>500.25</ele><time>2026-04-28T08:49:43.99Z</time></trkpt><trkpt lat="39.7465309153413" lon="9.108498507966921"><ele>500.5</ele><time>2026-04-28T08:49:44.99Z</time></trkpt><trkpt lat="39.74651267438075" lon="9.108318512588623"><ele>500.75</ele><time>2026-04-28T08:49:45.99Z</time></trkpt><trkpt lat="39.746492287139766" lon="9.108138027639932"><ele>501.0</ele><time>2026-04-28T08:49:46.99Z</time></trkpt><trkpt lat="39.74644243365619" lon="9.10796051498738"><ele>501.33333333333337</ele><time>2026-04-28T08:49:47.99Z</time></trkpt><trkpt lat="39.74637247471064" lon="9.10778381277542"><ele>501.6666666666667</ele><time>2026-04-28T08:49:48.989Z</time></trkpt><trkpt lat="39.746288306378084" lon="9.10760523811658"><ele>502.0</ele><time>2026-04-28T08:49:49.989Z</time></trkpt><trkpt lat="39.746187713289274" lon="9.107449691169476"><ele>502.0</ele><time>2026-04-28T08:49:50.989Z</time></trkpt><trkpt lat="39.74607882423815" lon="9.10730783273565"><ele>502.0</ele><time>2026-04-28T08:49:51.989Z</time></trkpt><trkpt lat="39.74594300994805" lon="9.107206351237634"><ele>502.0</ele><time>2026-04-28T08:49:52.991Z</time></trkpt><trkpt lat="39.745805885746236" lon="9.107133235774544"><ele>502.75</ele><time>2026-04-28T08:49:53.99Z</time></trkpt><trkpt lat="39.74566251175181" lon="9.107092997453805"><ele>503.5</ele><time>2026-04-28T08:49:54.99Z</time></trkpt><trkpt lat="39.745515139853644" lon="9.107069226338757"><ele>504.25</ele><time>2026-04-28T08:49:55.991Z</time></trkpt><trkpt lat="39.74537938182831" lon="9.107050311190095"><ele>505.0</ele><time>2026-04-28T08:49:56.991Z</time></trkpt><trkpt lat="39.745238077686494" lon="9.107029683126465"><ele>506.0</ele><time>2026-04-28T08:49:57.991Z</time></trkpt><trkpt lat="39.74509973680682" lon="9.10701285512231"><ele>507.0</ele><time>2026-04-28T08:49:58.991Z</time></trkpt><trkpt lat="39.74496710811718" lon="9.106989882744038"><ele>508.0</ele><time>2026-04-28T08:49:59.991Z</time></trkpt><trkpt lat="39.74483187143477" lon="9.106971984916736"><ele>509.0</ele><time>2026-04-28T08:50:00.99Z</time></trkpt><trkpt lat="39.744698876729" lon="9.10694984038643"><ele>509.0</ele><time>2026-04-28T08:50:01.991Z</time></trkpt><trkpt lat="39.744568194269235" lon="9.10693349535352"><ele>509.0</ele><time>2026-04-28T08:50:02.991Z</time></trkpt><trkpt lat="39.74443736982457" lon="9.106908266164236"><ele>509.0</ele><time>2026-04-28T08:50:03.991Z</time></trkpt><trkpt lat="39.74431081296867" lon="9.106889565911635"><ele>509.0</ele><time>2026-04-28T08:50:04.991Z</time></trkpt><trkpt lat="39.74418199781411" lon="9.106883812995429"><ele>509.4</ele><time>2026-04-28T08:50:05.99Z</time></trkpt><trkpt lat="39.744057557860515" lon="9.1068721842771"><ele>509.79999999999995</ele><time>2026-04-28T08:50:06.99Z</time></trkpt><trkpt lat="39.743950295702405" lon="9.106847853644625"><ele>510.20000000000005</ele><time>2026-04-28T08:50:07.99Z</time></trkpt><trkpt lat="39.74386668801669" lon="9.106832401695332"><ele>510.6</ele><time>2026-04-28T08:50:08.99Z</time></trkpt><trkpt lat="39.743799428731066" lon="9.10681646225708"><ele>511.0</ele><time>2026-04-28T08:50:09.99Z</time></trkpt><trkpt lat="39.74372023751232" lon="9.106785735329478"><ele>511.00000000000006</ele><time>2026-04-28T08:50:11.99Z</time></trkpt><trkpt lat="39.743625850150764" lon="9.10677928354034"><ele>511.0</ele><time>2026-04-28T08:50:13.99Z</time></trkpt><trkpt lat="39.74358587214235" lon="9.106905698458803"><ele>511.0</ele><time>2026-04-28T08:50:15.99Z</time></trkpt><trkpt lat="39.74354864245144" lon="9.10699018829427"><ele>511.0</ele><time>2026-04-28T08:50:16.99Z</time></trkpt><trkpt lat="39.74348924182349" lon="9.107056945933326"><ele>511.00000000000006</ele><time>2026-04-28T08:50:17.99Z</time></trkpt><trkpt lat="39.74344175562374" lon="9.107113985180446"><ele>511.0</ele><time>2026-04-28T08:50:18.99Z</time></trkpt><trkpt lat="39.74340272840478" lon="9.107187603488095"><ele>511.1666666666667</ele><time>2026-04-28T08:50:19.99Z</time></trkpt><trkpt lat="39.74334526262122" lon="9.107324978353645"><ele>511.33333333333337</ele><time>2026-04-28T08:50:21.99Z</time></trkpt><trkpt lat="39.743306162989676" lon="9.107392342700631"><ele>511.5</ele><time>2026-04-28T08:50:22.99Z</time></trkpt><trkpt lat="39.74325515709566" lon="9.107459397833365"><ele>511.66666666666663</ele><time>2026-04-28T08:50:23.99Z</time></trkpt><trkpt lat="39.743187618819164" lon="9.107511893218357"><ele>511.8333333333333</ele><time>2026-04-28T08:50:24.99Z</time></trkpt><trkpt lat="39.743113804359986" lon="9.107550043796373"><ele>512.0</ele><time>2026-04-28T08:50:25.99Z</time></trkpt><trkpt lat="39.743044023176616" lon="9.107601337085669"><ele>512.0</ele><time>2026-04-28T08:50:26.99Z</time></trkpt><trkpt lat="39.74297266820142" lon="9.107657534359019"><ele>512.0</ele><time>2026-04-28T08:50:27.99Z</time></trkpt><trkpt lat="39.742894641039115" lon="9.107711638594777"><ele>512.0</ele><time>2026-04-28T08:50:28.99Z</time></trkpt><trkpt lat="39.74281616748423" lon="9.107775884028102"><ele>512.0</ele><time>2026-04-28T08:50:29.99Z</time></trkpt><trkpt lat="39.74275042426321" lon="9.10786717731574"><ele>512.0</ele><time>2026-04-28T08:50:30.99Z</time></trkpt><trkpt lat="39.742689107746" lon="9.10795641112256"><ele>512.0</ele><time>2026-04-28T08:50:31.99Z</time></trkpt><trkpt lat="39.74263454365859" lon="9.108042635435016"><ele>512.0</ele><time>2026-04-28T08:50:32.99Z</time></trkpt><trkpt lat="39.74259073555663" lon="9.10811971332844"><ele>512.0</ele><time>2026-04-28T08:50:33.99Z</time></trkpt><trkpt lat="39.74251571209398" lon="9.108233113260829"><ele>512.0</ele><time>2026-04-28T08:50:35.99Z</time></trkpt><trkpt lat="39.742431459109845" lon="9.108331525345266"><ele>512.0</ele><time>2026-04-28T08:50:37.99Z</time></trkpt><trkpt lat="39.742393292944065" lon="9.108397374777319"><ele>512.0</ele><time>2026-04-28T08:50:38.99Z</time></trkpt><trkpt lat="39.74235069248806" lon="9.108467556400507"><ele>511.99999999999994</ele><time>2026-04-28T08:50:39.99Z</time></trkpt><trkpt lat="39.74231153859556" lon="9.10853627284071"><ele>512.0</ele><time>2026-04-28T08:50:40.99Z</time></trkpt><trkpt lat="39.74227227439418" lon="9.108605122499096"><ele>512.0</ele><time>2026-04-28T08:50:41.99Z</time></trkpt><trkpt lat="39.742235856531394" lon="9.108677418434905"><ele>511.99999999999994</ele><time>2026-04-28T08:50:42.99Z</time></trkpt><trkpt lat="39.742193655196004" lon="9.108741282497043"><ele>512.0</ele><time>2026-04-28T08:50:43.99Z</time></trkpt><trkpt lat="39.74214995511214" lon="9.108802980317853"><ele>512.0</ele><time>2026-04-28T08:50:44.99Z</time></trkpt><trkpt lat="39.74210890184479" lon="9.1088652925957"><ele>511.99999999999994</ele><time>2026-04-28T08:50:45.99Z</time></trkpt><trkpt lat="39.74205521119846" lon="9.108922907969802"><ele>512.0</ele><time>2026-04-28T08:50:48.99Z</time></trkpt><trkpt lat="39.742004488849766" lon="9.108976575724602"><ele>512.0</ele><time>2026-04-28T08:50:51.99Z</time></trkpt><trkpt lat="39.74190403567211" lon="9.109013759889933"><ele>512.0</ele><time>2026-04-28T08:50:53.99Z</time></trkpt><trkpt lat="39.74179009500418" lon="9.109056760862021"><ele>511.99999999999994</ele><time>2026-04-28T08:50:55.99Z</time></trkpt><trkpt lat="39.74172708793796" lon="9.109074643546524"><ele>512.0</ele><time>2026-04-28T08:50:56.99Z</time></trkpt><trkpt lat="39.7416661149865" lon="9.10909729691171"><ele>511.8</ele><time>2026-04-28T08:50:57.989Z</time></trkpt><trkpt lat="39.74158713738051" lon="9.109132304012473"><ele>511.6</ele><time>2026-04-28T08:50:59.989Z</time></trkpt><trkpt lat="39.74149839941597" lon="9.109153635090781"><ele>511.40000000000003</ele><time>2026-04-28T08:51:01.989Z</time></trkpt><trkpt lat="39.74136895594358" lon="9.109190214801032"><ele>511.20000000000005</ele><time>2026-04-28T08:51:03.989Z</time></trkpt><trkpt lat="39.741293768498565" lon="9.109206825547535"><ele>511.0</ele><time>2026-04-28T08:51:04.989Z</time></trkpt><trkpt lat="39.741206575930526" lon="9.109220690825447"><ele>511.0</ele><time>2026-04-28T08:51:05.989Z</time></trkpt><trkpt lat="39.741129003392444" lon="9.10923283825664"><ele>511.0</ele><time>2026-04-28T08:51:06.989Z</time></trkpt><trkpt lat="39.74103980322643" lon="9.109257695364912"><ele>511.0</ele><time>2026-04-28T08:51:07.989Z</time></trkpt><trkpt lat="39.74094117515389" lon="9.109280600877545"><ele>511.0</ele><time>2026-04-28T08:51:08.989Z</time></trkpt><trkpt lat="39.740846671126164" lon="9.109293315712588"><ele>511.0</ele><time>2026-04-28T08:51:09.989Z</time></trkpt><trkpt lat="39.74075361878409" lon="9.109310203623696"><ele>510.6666666666667</ele><time>2026-04-28T08:51:10.989Z</time></trkpt><trkpt lat="39.74065990788299" lon="9.109329490031001"><ele>510.33333333333337</ele><time>2026-04-28T08:51:11.989Z</time></trkpt><trkpt lat="39.7405685080887" lon="9.10934401356694"><ele>510.0</ele><time>2026-04-28T08:51:12.989Z</time></trkpt><trkpt lat="39.740484271506034" lon="9.109345505245352"><ele>509.66666666666663</ele><time>2026-04-28T08:51:13.989Z</time></trkpt><trkpt lat="39.74041175080651" lon="9.109343991441055"><ele>509.3333333333333</ele><time>2026-04-28T08:51:14.989Z</time></trkpt><trkpt lat="39.74032563470329" lon="9.109313487607839"><ele>509.0</ele><time>2026-04-28T08:51:16.989Z</time></trkpt><trkpt lat="39.74023320861483" lon="9.10934622897341"><ele>508.8333333333333</ele><time>2026-04-28T08:51:25.989Z</time></trkpt><trkpt lat="39.74019162348473" lon="9.109423905641297"><ele>508.66666666666663</ele><time>2026-04-28T08:51:26.989Z</time></trkpt><trkpt lat="39.74014631883783" lon="9.109512274576717"><ele>508.5</ele><time>2026-04-28T08:51:27.989Z</time></trkpt><trkpt lat="39.740101059825875" lon="9.109602245252814"><ele>508.33333333333337</ele><time>2026-04-28T08:51:28.989Z</time></trkpt><trkpt lat="39.74004948745225" lon="9.109696577792993"><ele>508.1666666666667</ele><time>2026-04-28T08:51:29.989Z</time></trkpt><trkpt lat="39.74000121738359" lon="9.109801031860487"><ele>508.0</ele><time>2026-04-28T08:51:30.989Z</time></trkpt><trkpt lat="39.739948544650744" lon="9.109908712583232"><ele>507.75</ele><time>2026-04-28T08:51:31.989Z</time></trkpt><trkpt lat="39.73989365645388" lon="9.110025502287282"><ele>507.5</ele><time>2026-04-28T08:51:32.989Z</time></trkpt><trkpt lat="39.739833743626924" lon="9.110147345683115"><ele>507.25</ele><time>2026-04-28T08:51:33.989Z</time></trkpt><trkpt lat="39.73977140219833" lon="9.11027715108243"><ele>507.0</ele><time>2026-04-28T08:51:34.989Z</time></trkpt><trkpt lat="39.7397020915716" lon="9.110400461119122"><ele>507.0</ele><time>2026-04-28T08:51:35.989Z</time></trkpt><trkpt lat="39.739633347172976" lon="9.110529855320058"><ele>507.0</ele><time>2026-04-28T08:51:36.989Z</time></trkpt><trkpt lat="39.7395652408491" lon="9.110661688009072"><ele>507.0</ele><time>2026-04-28T08:51:37.989Z</time></trkpt><trkpt lat="39.73949499827724" lon="9.110797983336838"><ele>507.0</ele><time>2026-04-28T08:51:38.989Z</time></trkpt><trkpt lat="39.7394265471791" lon="9.110941765782869"><ele>507.0</ele><time>2026-04-28T08:51:39.989Z</time></trkpt><trkpt lat="39.73936196514071" lon="9.111072828062765"><ele>507.00000000000006</ele><time>2026-04-28T08:51:40.989Z</time></trkpt><trkpt lat="39.739295694270474" lon="9.11120521704325"><ele>507.00000000000006</ele><time>2026-04-28T08:51:41.989Z</time></trkpt><trkpt lat="39.73924199099753" lon="9.111321858472762"><ele>507.0</ele><time>2026-04-28T08:51:42.989Z</time></trkpt><trkpt lat="39.73919461019415" lon="9.111429379502008"><ele>507.0</ele><time>2026-04-28T08:51:43.989Z</time></trkpt><trkpt lat="39.73915448316931" lon="9.111512186473382"><ele>506.8</ele><time>2026-04-28T08:51:44.989Z</time></trkpt><trkpt lat="39.73905193846596" lon="9.111591347077011"><ele>506.6</ele><time>2026-04-28T08:51:46.989Z</time></trkpt><trkpt lat="39.738967119182334" lon="9.111630138051177"><ele>506.40000000000003</ele><time>2026-04-28T08:51:48.989Z</time></trkpt><trkpt lat="39.73893709808581" lon="9.11171238735414"><ele>506.20000000000005</ele><time>2026-04-28T08:51:51.989Z</time></trkpt><trkpt lat="39.738893241785" lon="9.11182431909965"><ele>506.0</ele><time>2026-04-28T09:00:12.989Z</time></trkpt><trkpt lat="39.738869544500126" lon="9.11194079076209"><ele>505.99999999999994</ele><time>2026-04-28T09:00:14.989Z</time></trkpt><trkpt lat="39.73887431936693" lon="9.112048593033885"><ele>506.0</ele><time>2026-04-28T09:00:16.989Z</time></trkpt><trkpt lat="39.7388278256557" lon="9.112176209399264"><ele>506.0</ele><time>2026-04-28T09:00:18.989Z</time></trkpt><trkpt lat="39.73878850645309" lon="9.11225701986252"><ele>506.0</ele><time>2026-04-28T09:00:19.989Z</time></trkpt><trkpt lat="39.73873875741977" lon="9.112347374468019"><ele>505.99999999999994</ele><time>2026-04-28T09:00:20.989Z</time></trkpt><trkpt lat="39.73868711814587" lon="9.11244903477257"><ele>506.0</ele><time>2026-04-28T09:00:21.989Z</time></trkpt><trkpt lat="39.73863648053301" lon="9.112555030809371"><ele>505.75</ele><time>2026-04-28T09:00:22.99Z</time></trkpt><trkpt lat="39.738586555250045" lon="9.112659065981813"><ele>505.5</ele><time>2026-04-28T09:00:23.99Z</time></trkpt><trkpt lat="39.73852482003231" lon="9.112775499963918"><ele>505.25</ele><time>2026-04-28T09:00:24.99Z</time></trkpt><trkpt lat="39.73845381680893" lon="9.112908466754522"><ele>505.0</ele><time>2026-04-28T09:00:25.989Z</time></trkpt><trkpt lat="39.738384246831835" lon="9.113053319406792"><ele>505.0</ele><time>2026-04-28T09:00:26.989Z</time></trkpt><trkpt lat="39.73830075240055" lon="9.113209161162521"><ele>505.0</ele><time>2026-04-28T09:00:27.989Z</time></trkpt><trkpt lat="39.73821435023284" lon="9.1133703266029"><ele>505.0</ele><time>2026-04-28T09:00:28.99Z</time></trkpt><trkpt lat="39.738130892071545" lon="9.1135443217793"><ele>505.0</ele><time>2026-04-28T09:00:29.99Z</time></trkpt><trkpt lat="39.738044282669534" lon="9.11371794155659"><ele>505.0</ele><time>2026-04-28T09:00:30.99Z</time></trkpt><trkpt lat="39.7379475379524" lon="9.113899362492603"><ele>505.0</ele><time>2026-04-28T09:00:31.989Z</time></trkpt><trkpt lat="39.737848323174276" lon="9.114090695912507"><ele>504.33333333333337</ele><time>2026-04-28T09:00:32.99Z</time></trkpt><trkpt lat="39.73774548328763" lon="9.11428787842305"><ele>503.66666666666663</ele><time>2026-04-28T09:00:33.99Z</time></trkpt><trkpt lat="39.73764446068523" lon="9.114493048595058"><ele>503.0</ele><time>2026-04-28T09:00:34.99Z</time></trkpt><trkpt lat="39.737536131459905" lon="9.114705176967524"><ele>504.0</ele><time>2026-04-28T09:00:35.989Z</time></trkpt><trkpt lat="39.73742732271151" lon="9.114923317038233"><ele>505.0</ele><time>2026-04-28T09:00:36.989Z</time></trkpt><trkpt lat="39.7373158049505" lon="9.115149437410889"><ele>506.0</ele><time>2026-04-28T09:00:37.989Z</time></trkpt><trkpt lat="39.73721183321983" lon="9.115374706696645"><ele>506.0</ele><time>2026-04-28T09:00:38.989Z</time></trkpt><trkpt lat="39.737116900073744" lon="9.11561106914035"><ele>506.0</ele><time>2026-04-28T09:00:39.989Z</time></trkpt><trkpt lat="39.737036579382554" lon="9.11585739005906"><ele>506.0</ele><time>2026-04-28T09:00:40.989Z</time></trkpt><trkpt lat="39.73697154163216" lon="9.116118325029687"><ele>505.66666666666663</ele><time>2026-04-28T09:00:41.989Z</time></trkpt><trkpt lat="39.73692869456652" lon="9.116386201721484"><ele>505.33333333333337</ele><time>2026-04-28T09:00:42.989Z</time></trkpt><trkpt lat="39.73690189729914" lon="9.11666454530077"><ele>505.0</ele><time>2026-04-28T09:00:43.989Z</time></trkpt><trkpt lat="39.73688404002298" lon="9.11694989089131"><ele>505.0</ele><time>2026-04-28T09:00:44.989Z</time></trkpt><trkpt lat="39.736868281043456" lon="9.117240350634665"><ele>505.0</ele><time>2026-04-28T09:00:45.989Z</time></trkpt><trkpt lat="39.7368550796323" lon="9.117528860853083"><ele>505.0</ele><time>2026-04-28T09:00:46.989Z</time></trkpt><trkpt lat="39.73683492551772" lon="9.11782102338707"><ele>505.33333333333337</ele><time>2026-04-28T09:00:47.989Z</time></trkpt><trkpt lat="39.736824524752954" lon="9.118112375722264"><ele>505.66666666666663</ele><time>2026-04-28T09:00:48.989Z</time></trkpt><trkpt lat="39.736814047828936" lon="9.11840401984771"><ele>506.0</ele><time>2026-04-28T09:00:49.989Z</time></trkpt><trkpt lat="39.736795907705705" lon="9.118694646197724"><ele>506.0</ele><time>2026-04-28T09:00:50.989Z</time></trkpt><trkpt lat="39.736764288439716" lon="9.11898120011757"><ele>506.0</ele><time>2026-04-28T09:00:51.989Z</time></trkpt><trkpt lat="39.73671078994761" lon="9.119261343764192"><ele>506.0</ele><time>2026-04-28T09:00:52.989Z</time></trkpt><trkpt lat="39.73662902836746" lon="9.119522244782978"><ele>506.0</ele><time>2026-04-28T09:00:53.989Z</time></trkpt><trkpt lat="39.73652302524761" lon="9.119767576793256"><ele>506.0</ele><time>2026-04-28T09:00:54.989Z</time></trkpt><trkpt lat="39.73639521875554" lon="9.119994684703018"><ele>506.0</ele><time>2026-04-28T09:00:55.989Z</time></trkpt><trkpt lat="39.73625672703106" lon="9.120210487697126"><ele>506.0</ele><time>2026-04-28T09:00:56.989Z</time></trkpt><trkpt lat="39.736118994417225" lon="9.120424091111584"><ele>506.0</ele><time>2026-04-28T09:00:57.989Z</time></trkpt><trkpt lat="39.735980625420865" lon="9.120641604243621"><ele>506.0</ele><time>2026-04-28T09:00:58.989Z</time></trkpt><trkpt lat="39.73583157555074" lon="9.120844272162815"><ele>505.3333333333333</ele><time>2026-04-28T09:00:59.989Z</time></trkpt><trkpt lat="39.735671960951755" lon="9.121035949711212"><ele>504.66666666666663</ele><time>2026-04-28T09:01:00.989Z</time></trkpt><trkpt lat="39.73550187761145" lon="9.121216728334714"><ele>504.0</ele><time>2026-04-28T09:01:01.989Z</time></trkpt><trkpt lat="39.73532838033944" lon="9.12139333635254"><ele>504.0</ele><time>2026-04-28T09:01:02.989Z</time></trkpt><trkpt lat="39.73515705946633" lon="9.121568200939295"><ele>504.0</ele><time>2026-04-28T09:01:03.989Z</time></trkpt><trkpt lat="39.73498022012209" lon="9.121744523550857"><ele>504.0</ele><time>2026-04-28T09:01:04.989Z</time></trkpt><trkpt lat="39.734803306301885" lon="9.121920942597006"><ele>504.0</ele><time>2026-04-28T09:01:05.989Z</time></trkpt><trkpt lat="39.73463951732626" lon="9.122080875547805"><ele>504.0</ele><time>2026-04-28T09:01:06.989Z</time></trkpt><trkpt lat="39.734485187801575" lon="9.122232546279673"><ele>504.0</ele><time>2026-04-28T09:01:07.989Z</time></trkpt><trkpt lat="39.734341058939485" lon="9.122376254361392"><ele>503.33333333333337</ele><time>2026-04-28T09:01:08.989Z</time></trkpt><trkpt lat="39.7342049660685" lon="9.122514489344562"><ele>502.6666666666667</ele><time>2026-04-28T09:01:09.989Z</time></trkpt><trkpt lat="39.734068494146086" lon="9.122656881318536"><ele>502.0</ele><time>2026-04-28T09:01:10.989Z</time></trkpt><trkpt lat="39.733930615582246" lon="9.122804533005247"><ele>502.0</ele><time>2026-04-28T09:01:11.989Z</time></trkpt><trkpt lat="39.73378529280014" lon="9.122950473994617"><ele>502.0</ele><time>2026-04-28T09:01:12.989Z</time></trkpt><trkpt lat="39.73363674958272" lon="9.123105104239444"><ele>502.0</ele><time>2026-04-28T09:01:13.989Z</time></trkpt><trkpt lat="39.73348504789744" lon="9.123266502206292"><ele>501.33333333333337</ele><time>2026-04-28T09:01:14.989Z</time></trkpt><trkpt lat="39.73332584350699" lon="9.123434778618718"><ele>500.66666666666663</ele><time>2026-04-28T09:01:15.989Z</time></trkpt><trkpt lat="39.733163271793046" lon="9.123606083162485"><ele>500.0</ele><time>2026-04-28T09:01:16.989Z</time></trkpt><trkpt lat="39.7330016009089" lon="9.12377817444526"><ele>500.0</ele><time>2026-04-28T09:01:17.989Z</time></trkpt><trkpt lat="39.73283912575809" lon="9.123959516936097"><ele>500.0</ele><time>2026-04-28T09:01:18.989Z</time></trkpt><trkpt lat="39.73270313298858" lon="9.124150422045558"><ele>500.0</ele><time>2026-04-28T09:01:19.989Z</time></trkpt><trkpt lat="39.73260295376599" lon="9.124368492712684"><ele>500.3333333333333</ele><time>2026-04-28T09:01:20.989Z</time></trkpt><trkpt lat="39.73254105265501" lon="9.12460976139478"><ele>500.66666666666663</ele><time>2026-04-28T09:01:21.989Z</time></trkpt><trkpt lat="39.73249831565732" lon="9.124857825545364"><ele>501.0</ele><time>2026-04-28T09:01:22.989Z</time></trkpt><trkpt lat="39.73243654208322" lon="9.125063498944614"><ele>499.33333333333337</ele><time>2026-04-28T09:01:23.989Z</time></trkpt><trkpt lat="39.73233333383066" lon="9.125230031312322"><ele>497.6666666666667</ele><time>2026-04-28T09:01:24.989Z</time></trkpt><trkpt lat="39.73219968828539" lon="9.125345675692028"><ele>496.0</ele><time>2026-04-28T09:01:25.989Z</time></trkpt><trkpt lat="39.732038588592886" lon="9.125392012625909"><ele>496.6666666666667</ele><time>2026-04-28T09:01:26.988Z</time></trkpt><trkpt lat="39.731855959041525" lon="9.12540255371837"><ele>497.33333333333337</ele><time>2026-04-28T09:01:27.988Z</time></trkpt><trkpt lat="39.731665751008066" lon="9.125443709388707"><ele>498.0</ele><time>2026-04-28T09:01:28.988Z</time></trkpt><trkpt lat="39.73149618729281" lon="9.125535147609368"><ele>498.0</ele><time>2026-04-28T09:01:29.988Z</time></trkpt><trkpt lat="39.73138877702437" lon="9.125695814994696"><ele>498.0</ele><time>2026-04-28T09:01:30.988Z</time></trkpt><trkpt lat="39.73132823424969" lon="9.125897456505088"><ele>498.0</ele><time>2026-04-28T09:01:31.988Z</time></trkpt><trkpt lat="39.73133623746216" lon="9.126114576446316"><ele>496.0</ele><time>2026-04-28T09:01:32.988Z</time></trkpt><trkpt lat="39.73140598120612" lon="9.126319064132932"><ele>494.0</ele><time>2026-04-28T09:01:33.988Z</time></trkpt><trkpt lat="39.73153671953618" lon="9.12649214913111"><ele>492.0</ele><time>2026-04-28T09:01:34.988Z</time></trkpt><trkpt lat="39.7316765194727" lon="9.126680145687555"><ele>491.0</ele><time>2026-04-28T09:01:35.988Z</time></trkpt><trkpt lat="39.73182441607079" lon="9.126878698591725"><ele>490.0</ele><time>2026-04-28T09:01:36.988Z</time></trkpt><trkpt lat="39.731980777546646" lon="9.127074692246413"><ele>489.0</ele><time>2026-04-28T09:01:37.988Z</time></trkpt><trkpt lat="39.73214534909852" lon="9.127263477649697"><ele>487.66666666666663</ele><time>2026-04-28T09:01:38.988Z</time></trkpt><trkpt lat="39.73230001381615" lon="9.127434129329522"><ele>486.3333333333333</ele><time>2026-04-28T09:01:39.988Z</time></trkpt><trkpt lat="39.73247233359671" lon="9.127546172548263"><ele>485.0</ele><time>2026-04-28T09:01:40.988Z</time></trkpt><trkpt lat="39.73265496897341" lon="9.127581968409121"><ele>484.0</ele><time>2026-04-28T09:01:41.988Z</time></trkpt><trkpt lat="39.73283970443375" lon="9.127580923319575"><ele>483.0</ele><time>2026-04-28T09:01:42.988Z</time></trkpt><trkpt lat="39.73299649164171" lon="9.12759178231639"><ele>482.0</ele><time>2026-04-28T09:01:43.988Z</time></trkpt><trkpt lat="39.73311298150387" lon="9.127649477908752"><ele>482.0</ele><time>2026-04-28T09:01:44.988Z</time></trkpt><trkpt lat="39.733199048605236" lon="9.12779011189815"><ele>482.0</ele><time>2026-04-28T09:01:45.988Z</time></trkpt><trkpt lat="39.733224969428456" lon="9.127970595478626"><ele>482.0</ele><time>2026-04-28T09:01:46.988Z</time></trkpt><trkpt lat="39.73319366616079" lon="9.128167909147614"><ele>482.0</ele><time>2026-04-28T09:01:47.988Z</time></trkpt><trkpt lat="39.73314617607054" lon="9.128363298665644"><ele>481.66666666666663</ele><time>2026-04-28T09:01:48.988Z</time></trkpt><trkpt lat="39.73307314692171" lon="9.128585176216008"><ele>481.33333333333337</ele><time>2026-04-28T09:01:49.988Z</time></trkpt><trkpt lat="39.73300392102867" lon="9.128834524443763"><ele>481.0</ele><time>2026-04-28T09:01:50.988Z</time></trkpt><trkpt lat="39.7329361606333" lon="9.129085740166763"><ele>479.33333333333337</ele><time>2026-04-28T09:01:51.988Z</time></trkpt><trkpt lat="39.73286617641702" lon="9.129335439815321"><ele>477.66666666666663</ele><time>2026-04-28T09:01:52.988Z</time></trkpt><trkpt lat="39.732790037299985" lon="9.129599258467756"><ele>476.0</ele><time>2026-04-28T09:01:53.988Z</time></trkpt><trkpt lat="39.73273101267944" lon="9.129875435091204"><ele>477.3333333333333</ele><time>2026-04-28T09:01:54.988Z</time></trkpt><trkpt lat="39.73270275703121" lon="9.130151887349276"><ele>478.66666666666663</ele><time>2026-04-28T09:01:55.988Z</time></trkpt><trkpt lat="39.73268400362385" lon="9.130429151450993"><ele>480.0</ele><time>2026-04-28T09:01:56.988Z</time></trkpt><trkpt lat="39.732641853398185" lon="9.1306843501603"><ele>478.66666666666663</ele><time>2026-04-28T09:01:57.988Z</time></trkpt><trkpt lat="39.73256580897247" lon="9.130889665790333"><ele>477.3333333333333</ele><time>2026-04-28T09:01:58.988Z</time></trkpt><trkpt lat="39.732448186388055" lon="9.131032788226205"><ele>476.0</ele><time>2026-04-28T09:01:59.988Z</time></trkpt><trkpt lat="39.73233250919364" lon="9.131144290962036"><ele>476.0</ele><time>2026-04-28T09:02:00.988Z</time></trkpt><trkpt lat="39.73225382597156" lon="9.131303842484005"><ele>476.0</ele><time>2026-04-28T09:02:01.988Z</time></trkpt><trkpt lat="39.732230951103965" lon="9.131515440488664"><ele>476.0</ele><time>2026-04-28T09:02:02.988Z</time></trkpt><trkpt lat="39.73226297379429" lon="9.131746771236077"><ele>474.66666666666663</ele><time>2026-04-28T09:02:03.988Z</time></trkpt><trkpt lat="39.73234285829625" lon="9.132000408531955"><ele>473.33333333333337</ele><time>2026-04-28T09:02:04.988Z</time></trkpt><trkpt lat="39.732445718340266" lon="9.132240898667302"><ele>472.0</ele><time>2026-04-28T09:02:05.988Z</time></trkpt><trkpt lat="39.732589741394705" lon="9.132462981216507"><ele>471.33333333333337</ele><time>2026-04-28T09:02:06.988Z</time></trkpt><trkpt lat="39.73276206411462" lon="9.132642308441245"><ele>470.66666666666663</ele><time>2026-04-28T09:02:07.988Z</time></trkpt><trkpt lat="39.73289129968194" lon="9.132774027442537"><ele>470.0</ele><time>2026-04-28T09:02:08.988Z</time></trkpt><trkpt lat="39.73264755668037" lon="9.132905555488742"><ele>470.0</ele><time>2026-04-28T09:02:09.988Z</time></trkpt><trkpt lat="39.73270354506056" lon="9.133070168352452"><ele>470.0</ele><time>2026-04-28T09:02:10.988Z</time></trkpt><trkpt lat="39.73267627651928" lon="9.1332565729413"><ele>470.0</ele><time>2026-04-28T09:02:11.988Z</time></trkpt><trkpt lat="39.73256613074204" lon="9.133429478830083"><ele>469.0</ele><time>2026-04-28T09:02:12.988Z</time></trkpt><trkpt lat="39.73241909029116" lon="9.133571111130491"><ele>468.0</ele><time>2026-04-28T09:02:13.988Z</time></trkpt><trkpt lat="39.732262059899085" lon="9.133714126448"><ele>467.0</ele><time>2026-04-28T09:02:14.988Z</time></trkpt><trkpt lat="39.732099331366456" lon="9.133845254639736"><ele>467.0</ele><time>2026-04-28T09:02:15.988Z</time></trkpt><trkpt lat="39.73192799935059" lon="9.133974853804245"><ele>467.0</ele><time>2026-04-28T09:02:16.988Z</time></trkpt><trkpt lat="39.73176886364786" lon="9.134106210674132"><ele>467.0</ele><time>2026-04-28T09:02:17.988Z</time></trkpt><trkpt lat="39.731667271160724" lon="9.134274919215043"><ele>466.66666666666663</ele><time>2026-04-28T09:02:18.988Z</time></trkpt><trkpt lat="39.731636349695414" lon="9.13452360311097"><ele>466.33333333333337</ele><time>2026-04-28T09:02:19.988Z</time></trkpt><trkpt lat="39.7316395796556" lon="9.134776960423487"><ele>466.0</ele><time>2026-04-28T09:02:20.988Z</time></trkpt><trkpt lat="39.731663416037634" lon="9.134973632197562"><ele>466.0</ele><time>2026-04-28T09:02:21.988Z</time></trkpt><trkpt lat="39.73175872332526" lon="9.13512645670985"><ele>466.0</ele><time>2026-04-28T09:02:22.988Z</time></trkpt><trkpt lat="39.73191108208861" lon="9.135232922031705"><ele>466.0</ele><time>2026-04-28T09:02:23.988Z</time></trkpt><trkpt lat="39.732108296971106" lon="9.13529143934386"><ele>465.6666666666667</ele><time>2026-04-28T09:02:24.988Z</time></trkpt><trkpt lat="39.73228379593757" lon="9.13537848832851"><ele>465.33333333333337</ele><time>2026-04-28T09:02:25.988Z</time></trkpt><trkpt lat="39.7323848749175" lon="9.135534257799176"><ele>465.0</ele><time>2026-04-28T09:02:26.988Z</time></trkpt><trkpt lat="39.73240160513215" lon="9.135734758580773"><ele>465.66666666666663</ele><time>2026-04-28T09:02:27.988Z</time></trkpt><trkpt lat="39.73234171977762" lon="9.135970712150034"><ele>466.3333333333333</ele><time>2026-04-28T09:02:28.989Z</time></trkpt><trkpt lat="39.73224876743618" lon="9.136201852006938"><ele>467.0</ele><time>2026-04-28T09:02:29.989Z</time></trkpt><trkpt lat="39.73214227295103" lon="9.13643554611703"><ele>467.3333333333333</ele><time>2026-04-28T09:02:30.989Z</time></trkpt><trkpt lat="39.73200558275127" lon="9.136651969833835"><ele>467.66666666666663</ele><time>2026-04-28T09:02:31.989Z</time></trkpt><trkpt lat="39.731832643646264" lon="9.136840279315042"><ele>468.0</ele><time>2026-04-28T09:02:32.989Z</time></trkpt><trkpt lat="39.73162713635865" lon="9.13700523874612"><ele>468.5</ele><time>2026-04-28T09:02:33.989Z</time></trkpt><trkpt lat="39.73142020132968" lon="9.13717616366914"><ele>469.0</ele><time>2026-04-28T09:02:34.989Z</time></trkpt><trkpt lat="39.73120984486439" lon="9.137364462793869"><ele>469.0</ele><time>2026-04-28T09:02:35.989Z</time></trkpt><trkpt lat="39.73093394375734" lon="9.137597510280072"><ele>469.0</ele><time>2026-04-28T09:02:36.989Z</time></trkpt><trkpt lat="39.73071095563554" lon="9.137805879835232"><ele>469.0</ele><time>2026-04-28T09:02:37.989Z</time></trkpt><trkpt lat="39.73048836428861" lon="9.138014412058991"><ele>469.0</ele><time>2026-04-28T09:02:38.989Z</time></trkpt><trkpt lat="39.73025880775429" lon="9.138226438239991"><ele>468.5</ele><time>2026-04-28T09:02:39.989Z</time></trkpt><trkpt lat="39.73002448002485" lon="9.138444355182893"><ele>468.0</ele><time>2026-04-28T09:02:40.989Z</time></trkpt><trkpt lat="39.72979344003256" lon="9.138657574203691"><ele>468.0</ele><time>2026-04-28T09:02:41.989Z</time></trkpt><trkpt lat="39.729564059000005" lon="9.138873809959058"><ele>468.0</ele><time>2026-04-28T09:02:42.989Z</time></trkpt><trkpt lat="39.72933900839415" lon="9.139089390474417"><ele>467.5</ele><time>2026-04-28T09:02:43.989Z</time></trkpt><trkpt lat="39.72911554382632" lon="9.139292799468432"><ele>467.0</ele><time>2026-04-28T09:02:44.989Z</time></trkpt><trkpt lat="39.72888850665011" lon="9.139504890728912"><ele>467.0</ele><time>2026-04-28T09:02:45.989Z</time></trkpt><trkpt lat="39.72866577623187" lon="9.139720420266203"><ele>467.0</ele><time>2026-04-28T09:02:46.989Z</time></trkpt><trkpt lat="39.728448305726566" lon="9.139934718998584"><ele>467.5</ele><time>2026-04-28T09:02:47.989Z</time></trkpt><trkpt lat="39.728224428845735" lon="9.140141405204215"><ele>468.0</ele><time>2026-04-28T09:02:48.989Z</time></trkpt><trkpt lat="39.72799782760756" lon="9.14033389848141"><ele>468.0</ele><time>2026-04-28T09:02:49.989Z</time></trkpt><trkpt lat="39.727773039806785" lon="9.140536147648465"><ele>468.0</ele><time>2026-04-28T09:02:50.989Z</time></trkpt><trkpt lat="39.727556117555714" lon="9.14073959445819"><ele>467.5</ele><time>2026-04-28T09:02:51.989Z</time></trkpt><trkpt lat="39.7273406659411" lon="9.140947646111245"><ele>467.0</ele><time>2026-04-28T09:02:52.989Z</time></trkpt><trkpt lat="39.727128023951316" lon="9.141154872028258"><ele>467.0</ele><time>2026-04-28T09:02:53.989Z</time></trkpt><trkpt lat="39.72691872383419" lon="9.141355378577696"><ele>467.0</ele><time>2026-04-28T09:02:54.989Z</time></trkpt><trkpt lat="39.7267071875636" lon="9.14154888298739"><ele>468.5</ele><time>2026-04-28T09:02:55.989Z</time></trkpt><trkpt lat="39.72649208666049" lon="9.141744029265935"><ele>470.0</ele><time>2026-04-28T09:02:56.989Z</time></trkpt><trkpt lat="39.72627597189359" lon="9.141946192284303"><ele>470.0</ele><time>2026-04-28T09:02:57.989Z</time></trkpt><trkpt lat="39.7260630263608" lon="9.142150066078006"><ele>470.0</ele><time>2026-04-28T09:02:58.989Z</time></trkpt><trkpt lat="39.72584255845578" lon="9.14235465132352"><ele>471.0</ele><time>2026-04-28T09:02:59.989Z</time></trkpt><trkpt lat="39.725622830719196" lon="9.142562667623238"><ele>472.0</ele><time>2026-04-28T09:03:00.989Z</time></trkpt><trkpt lat="39.72539818552499" lon="9.142770498693345"><ele>475.0</ele><time>2026-04-28T09:03:01.989Z</time></trkpt><trkpt lat="39.72517585788087" lon="9.142978891204722"><ele>478.0</ele><time>2026-04-28T09:03:02.989Z</time></trkpt><trkpt lat="39.72495496090503" lon="9.143191594387742"><ele>475.0</ele><time>2026-04-28T09:03:03.989Z</time></trkpt><trkpt lat="39.72473418912148" lon="9.143404936117516"><ele>472.0</ele><time>2026-04-28T09:03:04.989Z</time></trkpt><trkpt lat="39.724509280118575" lon="9.14361384055826"><ele>474.5</ele><time>2026-04-28T09:03:05.989Z</time></trkpt><trkpt lat="39.724279884655274" lon="9.143818870305157"><ele>477.0</ele><time>2026-04-28T09:03:06.989Z</time></trkpt><trkpt lat="39.72404450607597" lon="9.14401053897873"><ele>478.0</ele><time>2026-04-28T09:03:07.989Z</time></trkpt><trkpt lat="39.72379929850627" lon="9.144182113913567"><ele>479.0</ele><time>2026-04-28T09:03:08.989Z</time></trkpt><trkpt lat="39.72354797391379" lon="9.14433161171943"><ele>479.0</ele><time>2026-04-28T09:03:09.989Z</time></trkpt><trkpt lat="39.72328624287586" lon="9.144450399173687"><ele>479.0</ele><time>2026-04-28T09:03:10.989Z</time></trkpt><trkpt lat="39.72301724324881" lon="9.144536799578184"><ele>479.0</ele><time>2026-04-28T09:03:11.989Z</time></trkpt><trkpt lat="39.72274199515147" lon="9.144616894001357"><ele>479.0</ele><time>2026-04-28T09:03:12.989Z</time></trkpt><trkpt lat="39.722468301081214" lon="9.144698232552201"><ele>480.0</ele><time>2026-04-28T09:03:13.989Z</time></trkpt><trkpt lat="39.72219052106559" lon="9.144786450402322"><ele>481.0</ele><time>2026-04-28T09:03:14.989Z</time></trkpt><trkpt lat="39.72190948612708" lon="9.144879681028279"><ele>481.5</ele><time>2026-04-28T09:03:15.989Z</time></trkpt><trkpt lat="39.72162850060574" lon="9.14497465880359"><ele>482.0</ele><time>2026-04-28T09:03:16.989Z</time></trkpt><trkpt lat="39.72134029814416" lon="9.145071983128984"><ele>482.5</ele><time>2026-04-28T09:03:17.989Z</time></trkpt><trkpt lat="39.72105919909445" lon="9.145169497327041"><ele>483.0</ele><time>2026-04-28T09:03:18.989Z</time></trkpt><trkpt lat="39.72077366610251" lon="9.145267509859778"><ele>483.0</ele><time>2026-04-28T09:03:19.989Z</time></trkpt><trkpt lat="39.72048384084286" lon="9.145363475304485"><ele>483.0</ele><time>2026-04-28T09:03:20.989Z</time></trkpt><trkpt lat="39.72019229565688" lon="9.145457413010286"><ele>484.0</ele><time>2026-04-28T09:03:21.989Z</time></trkpt><trkpt lat="39.719907094973685" lon="9.145548819273184"><ele>485.0</ele><time>2026-04-28T09:03:22.989Z</time></trkpt><trkpt lat="39.719629818744785" lon="9.145642269740682"><ele>484.5</ele><time>2026-04-28T09:03:23.989Z</time></trkpt><trkpt lat="39.719352830543336" lon="9.145733449350578"><ele>484.0</ele><time>2026-04-28T09:03:24.988Z</time></trkpt><trkpt lat="39.71907526275821" lon="9.145799289551155"><ele>484.0</ele><time>2026-04-28T09:03:25.988Z</time></trkpt><trkpt lat="39.71879624068775" lon="9.14580927695211"><ele>484.0</ele><time>2026-04-28T09:03:26.988Z</time></trkpt><trkpt lat="39.71851731315784" lon="9.14579123695838"><ele>485.0</ele><time>2026-04-28T09:03:27.988Z</time></trkpt><trkpt lat="39.71825560520083" lon="9.14577181712736"><ele>486.0</ele><time>2026-04-28T09:03:28.988Z</time></trkpt><trkpt lat="39.71801720568133" lon="9.14572798367669"><ele>488.5</ele><time>2026-04-28T09:03:29.988Z</time></trkpt><trkpt lat="39.71778856347891" lon="9.145618615644256"><ele>491.0</ele><time>2026-04-28T09:03:30.988Z</time></trkpt><trkpt lat="39.717553504934706" lon="9.145506532822619"><ele>491.0</ele><time>2026-04-28T09:03:31.988Z</time></trkpt><trkpt lat="39.717302715048206" lon="9.145464007069863"><ele>491.0</ele><time>2026-04-28T09:03:32.988Z</time></trkpt><trkpt lat="39.717045954747704" lon="9.145490155365083"><ele>492.0</ele><time>2026-04-28T09:03:33.988Z</time></trkpt><trkpt lat="39.71677718398492" lon="9.145561158104892"><ele>493.0</ele><time>2026-04-28T09:03:34.988Z</time></trkpt><trkpt lat="39.71652214250546" lon="9.145647965235245"><ele>492.6666666666667</ele><time>2026-04-28T09:03:35.988Z</time></trkpt><trkpt lat="39.71629237493438" lon="9.145734143549156"><ele>492.33333333333337</ele><time>2026-04-28T09:03:36.988Z</time></trkpt><trkpt lat="39.71608485197584" lon="9.145768569323073"><ele>492.0</ele><time>2026-04-28T09:03:37.988Z</time></trkpt><trkpt lat="39.71589110713804" lon="9.14572761930143"><ele>493.33333333333337</ele><time>2026-04-28T09:03:38.988Z</time></trkpt><trkpt lat="39.715713917766415" lon="9.145575445699848"><ele>494.6666666666667</ele><time>2026-04-28T09:03:39.988Z</time></trkpt><trkpt lat="39.71553560194311" lon="9.145391407639252"><ele>496.0</ele><time>2026-04-28T09:03:40.988Z</time></trkpt><trkpt lat="39.715343582347714" lon="9.145268452471772"><ele>496.5</ele><time>2026-04-28T09:03:41.988Z</time></trkpt><trkpt lat="39.71511213636667" lon="9.145286221687012"><ele>497.0</ele><time>2026-04-28T09:03:42.988Z</time></trkpt><trkpt lat="39.714860992924365" lon="9.145371522475642"><ele>497.0</ele><time>2026-04-28T09:03:43.988Z</time></trkpt><trkpt lat="39.714606621115614" lon="9.145476532531447"><ele>497.0</ele><time>2026-04-28T09:03:44.988Z</time></trkpt><trkpt lat="39.7143465153296" lon="9.145599077621725"><ele>497.5</ele><time>2026-04-28T09:03:45.988Z</time></trkpt><trkpt lat="39.71410238035093" lon="9.145748746005236"><ele>498.0</ele><time>2026-04-28T09:03:46.988Z</time></trkpt><trkpt lat="39.713870808902485" lon="9.145912186855726"><ele>498.0</ele><time>2026-04-28T09:03:47.988Z</time></trkpt><trkpt lat="39.713635076008146" lon="9.146030293331712"><ele>498.0</ele><time>2026-04-28T09:03:48.988Z</time></trkpt><trkpt lat="39.71338038459126" lon="9.146090189520555"><ele>498.0</ele><time>2026-04-28T09:03:49.988Z</time></trkpt><trkpt lat="39.713119921707026" lon="9.146095389027051"><ele>498.0</ele><time>2026-04-28T09:03:50.988Z</time></trkpt><trkpt lat="39.71286319244037" lon="9.146055629510025"><ele>500.5</ele><time>2026-04-28T09:03:51.988Z</time></trkpt><trkpt lat="39.71261523345675" lon="9.146057786568791"><ele>503.0</ele><time>2026-04-28T09:03:52.988Z</time></trkpt><trkpt lat="39.712373371310306" lon="9.146143867035086"><ele>503.0</ele><time>2026-04-28T09:03:53.988Z</time></trkpt><trkpt lat="39.7121401666012" lon="9.146279131197305"><ele>503.0</ele><time>2026-04-28T09:03:54.988Z</time></trkpt><trkpt lat="39.71191917752085" lon="9.146451470483983"><ele>504.5</ele><time>2026-04-28T09:03:55.988Z</time></trkpt><trkpt lat="39.71170760220597" lon="9.146649207162767"><ele>506.0</ele><time>2026-04-28T09:03:56.988Z</time></trkpt><trkpt lat="39.71151336210016" lon="9.146861660096372"><ele>506.0</ele><time>2026-04-28T09:03:57.988Z</time></trkpt><trkpt lat="39.711357667477735" lon="9.147091903909464"><ele>506.0</ele><time>2026-04-28T09:03:58.988Z</time></trkpt><trkpt lat="39.71124839892804" lon="9.147348946491114"><ele>505.5</ele><time>2026-04-28T09:03:59.988Z</time></trkpt><trkpt lat="39.71117464909558" lon="9.147646811852407"><ele>505.0</ele><time>2026-04-28T09:04:00.988Z</time></trkpt><trkpt lat="39.711165725906056" lon="9.14796270033401"><ele>506.0</ele><time>2026-04-28T09:04:01.988Z</time></trkpt><trkpt lat="39.71119562839227" lon="9.148275065975653"><ele>507.0</ele><time>2026-04-28T09:04:02.988Z</time></trkpt><trkpt lat="39.711243432758316" lon="9.14857816044526"><ele>507.0</ele><time>2026-04-28T09:04:03.988Z</time></trkpt><trkpt lat="39.711240165747846" lon="9.148883258728722"><ele>507.0</ele><time>2026-04-28T09:04:04.988Z</time></trkpt><trkpt lat="39.71116949622613" lon="9.149186405197343"><ele>510.0</ele><time>2026-04-28T09:04:05.988Z</time></trkpt><trkpt lat="39.711039812131425" lon="9.14945436461809"><ele>513.0</ele><time>2026-04-28T09:04:06.988Z</time></trkpt><trkpt lat="39.71086952587241" lon="9.14968748096326"><ele>513.5</ele><time>2026-04-28T09:04:07.988Z</time></trkpt><trkpt lat="39.71067357368858" lon="9.149889826268941"><ele>514.0</ele><time>2026-04-28T09:04:08.988Z</time></trkpt><trkpt lat="39.710462703077" lon="9.150085252613351"><ele>514.0</ele><time>2026-04-28T09:04:09.988Z</time></trkpt><trkpt lat="39.710258109205185" lon="9.15029213789771"><ele>514.0</ele><time>2026-04-28T09:04:10.988Z</time></trkpt><trkpt lat="39.71006124869068" lon="9.150514571319105"><ele>513.5</ele><time>2026-04-28T09:04:11.988Z</time></trkpt><trkpt lat="39.70985851589143" lon="9.150734995077999"><ele>513.0</ele><time>2026-04-28T09:04:12.988Z</time></trkpt><trkpt lat="39.7096458896374" lon="9.150936620915344"><ele>513.0</ele><time>2026-04-28T09:04:13.988Z</time></trkpt><trkpt lat="39.709411362955294" lon="9.151093788805209"><ele>513.0</ele><time>2026-04-28T09:04:14.988Z</time></trkpt><trkpt lat="39.70915845821398" lon="9.151209352701926"><ele>514.5</ele><time>2026-04-28T09:04:15.988Z</time></trkpt><trkpt lat="39.70889440202253" lon="9.151292827667328"><ele>516.0</ele><time>2026-04-28T09:04:16.988Z</time></trkpt><trkpt lat="39.70863319863237" lon="9.15139219255263"><ele>516.5</ele><time>2026-04-28T09:04:17.988Z</time></trkpt><trkpt lat="39.70837211481583" lon="9.151498229117621"><ele>517.0</ele><time>2026-04-28T09:04:18.988Z</time></trkpt><trkpt lat="39.708105461859425" lon="9.151599448643866"><ele>517.0</ele><time>2026-04-28T09:04:19.988Z</time></trkpt><trkpt lat="39.70783393717534" lon="9.151688981100481"><ele>517.0</ele><time>2026-04-28T09:04:20.988Z</time></trkpt><trkpt lat="39.70756294427396" lon="9.151749323639391"><ele>518.5</ele><time>2026-04-28T09:04:21.988Z</time></trkpt><trkpt lat="39.70728482032362" lon="9.151785390061608"><ele>520.0</ele><time>2026-04-28T09:04:22.988Z</time></trkpt><trkpt lat="39.70700920888865" lon="9.151808720524807"><ele>523.5</ele><time>2026-04-28T09:04:23.988Z</time></trkpt><trkpt lat="39.70673461012191" lon="9.151860400297481"><ele>527.0</ele><time>2026-04-28T09:04:24.988Z</time></trkpt><trkpt lat="39.706468609195014" lon="9.151962499085865"><ele>527.0</ele><time>2026-04-28T09:04:25.988Z</time></trkpt><trkpt lat="39.70621034563726" lon="9.152098355425895"><ele>527.0</ele><time>2026-04-28T09:04:26.988Z</time></trkpt><trkpt lat="39.7059664671594" lon="9.152268142520725"><ele>526.0</ele><time>2026-04-28T09:04:27.988Z</time></trkpt><trkpt lat="39.70573901593451" lon="9.152469721091972"><ele>525.0</ele><time>2026-04-28T09:04:28.988Z</time></trkpt><trkpt lat="39.70554051920142" lon="9.152716092467351"><ele>525.0</ele><time>2026-04-28T09:04:29.988Z</time></trkpt><trkpt lat="39.70535731737096" lon="9.152992704869888"><ele>525.0</ele><time>2026-04-28T09:04:30.988Z</time></trkpt><trkpt lat="39.70514776279883" lon="9.153225084834169"><ele>525.5</ele><time>2026-04-28T09:04:31.987Z</time></trkpt><trkpt lat="39.70491742635466" lon="9.153408047876775"><ele>526.0</ele><time>2026-04-28T09:04:32.987Z</time></trkpt><trkpt lat="39.70467506213378" lon="9.15357196346512"><ele>526.0</ele><time>2026-04-28T09:04:33.987Z</time></trkpt><trkpt lat="39.70443262366891" lon="9.153716878576988"><ele>526.0</ele><time>2026-04-28T09:04:34.989Z</time></trkpt><trkpt lat="39.70419965268822" lon="9.153803074845575"><ele>529.0</ele><time>2026-04-28T09:04:35.988Z</time></trkpt><trkpt lat="39.703954132510695" lon="9.15384055118004"><ele>532.0</ele><time>2026-04-28T09:04:36.988Z</time></trkpt><trkpt lat="39.70371900823595" lon="9.153815761608964"><ele>535.0</ele><time>2026-04-28T09:04:37.989Z</time></trkpt><trkpt lat="39.70347768640507" lon="9.15373274299888"><ele>538.0</ele><time>2026-04-28T09:04:38.989Z</time></trkpt><trkpt lat="39.70323712997052" lon="9.153596264574556"><ele>538.0</ele><time>2026-04-28T09:04:39.989Z</time></trkpt><trkpt lat="39.702987489502455" lon="9.153494038366233"><ele>538.0</ele><time>2026-04-28T09:04:40.988Z</time></trkpt><trkpt lat="39.70272736798937" lon="9.153441459917774"><ele>540.5</ele><time>2026-04-28T09:04:41.989Z</time></trkpt><trkpt lat="39.702464347776065" lon="9.153453463112859"><ele>543.0</ele><time>2026-04-28T09:04:42.989Z</time></trkpt><trkpt lat="39.70220088879161" lon="9.153488684564739"><ele>543.0</ele><time>2026-04-28T09:04:43.988Z</time></trkpt><trkpt lat="39.701942545266256" lon="9.153572287404016"><ele>543.0</ele><time>2026-04-28T09:04:44.988Z</time></trkpt><trkpt lat="39.70168807332004" lon="9.15369009533407"><ele>545.5</ele><time>2026-04-28T09:04:45.988Z</time></trkpt><trkpt lat="39.70143035780134" lon="9.153807564407769"><ele>548.0</ele><time>2026-04-28T09:04:46.988Z</time></trkpt><trkpt lat="39.70118426470015" lon="9.153938324210865"><ele>547.0</ele><time>2026-04-28T09:04:47.988Z</time></trkpt><trkpt lat="39.70094655640591" lon="9.154074321143787"><ele>546.0</ele><time>2026-04-28T09:04:48.988Z</time></trkpt><trkpt lat="39.700710243717026" lon="9.154241948062301"><ele>546.0</ele><time>2026-04-28T09:04:49.988Z</time></trkpt><trkpt lat="39.70049223488037" lon="9.154436714940198"><ele>546.0</ele><time>2026-04-28T09:04:50.988Z</time></trkpt><trkpt lat="39.700285257958654" lon="9.154617846467467"><ele>545.5</ele><time>2026-04-28T09:04:51.988Z</time></trkpt><trkpt lat="39.70007802983815" lon="9.154768552164398"><ele>545.0</ele><time>2026-04-28T09:04:52.988Z</time></trkpt><trkpt lat="39.69985048615293" lon="9.154888457784907"><ele>545.0</ele><time>2026-04-28T09:04:53.988Z</time></trkpt><trkpt lat="39.699601753479186" lon="9.15498782242159"><ele>545.0</ele><time>2026-04-28T09:04:54.988Z</time></trkpt><trkpt lat="39.699343839041596" lon="9.155066529755313"><ele>548.0</ele><time>2026-04-28T09:04:55.988Z</time></trkpt><trkpt lat="39.69908796582944" lon="9.155139480602628"><ele>551.0</ele><time>2026-04-28T09:04:56.988Z</time></trkpt><trkpt lat="39.69883166092411" lon="9.155219610473699"><ele>551.0</ele><time>2026-04-28T09:04:57.988Z</time></trkpt><trkpt lat="39.698591713685474" lon="9.15528763374947"><ele>551.0</ele><time>2026-04-28T09:04:58.988Z</time></trkpt><trkpt lat="39.69836667776375" lon="9.155337692742949"><ele>551.6666666666666</ele><time>2026-04-28T09:04:59.988Z</time></trkpt><trkpt lat="39.698151480144915" lon="9.155370682326327"><ele>552.3333333333334</ele><time>2026-04-28T09:05:00.988Z</time></trkpt><trkpt lat="39.69797575655029" lon="9.155364723870766"><ele>553.0</ele><time>2026-04-28T09:05:01.988Z</time></trkpt><trkpt lat="39.697819494547886" lon="9.155299874340765"><ele>552.6666666666667</ele><time>2026-04-28T09:05:02.988Z</time></trkpt><trkpt lat="39.697662409219035" lon="9.15515735509426"><ele>552.3333333333334</ele><time>2026-04-28T09:05:03.988Z</time></trkpt><trkpt lat="39.697497159855125" lon="9.15499221906063"><ele>552.0</ele><time>2026-04-28T09:05:04.988Z</time></trkpt><trkpt lat="39.69732644099164" lon="9.154811133349371"><ele>554.3333333333334</ele><time>2026-04-28T09:05:05.988Z</time></trkpt><trkpt lat="39.697166015382436" lon="9.154621034937158"><ele>556.6666666666667</ele><time>2026-04-28T09:05:06.988Z</time></trkpt><trkpt lat="39.697031083901535" lon="9.154424925515087"><ele>559.0</ele><time>2026-04-28T09:05:07.988Z</time></trkpt><trkpt lat="39.696949405176476" lon="9.154217300431478"><ele>559.0</ele><time>2026-04-28T09:05:08.988Z</time></trkpt><trkpt lat="39.696902233185575" lon="9.154001479324545"><ele>559.0</ele><time>2026-04-28T09:05:09.988Z</time></trkpt><trkpt lat="39.69688269969409" lon="9.153810029915364"><ele>559.0</ele><time>2026-04-28T09:05:10.988Z</time></trkpt><trkpt lat="39.69686853260843" lon="9.153653301784098"><ele>559.0</ele><time>2026-04-28T09:05:11.988Z</time></trkpt><trkpt lat="39.69686420137015" lon="9.15354059987476"><ele>559.0</ele><time>2026-04-28T09:05:12.988Z</time></trkpt><trkpt lat="39.69686514096679" lon="9.15338495530574"><ele>559.0</ele><time>2026-04-28T09:05:14.988Z</time></trkpt><trkpt lat="39.696851695919534" lon="9.153211745161357"><ele>559.0</ele><time>2026-04-28T09:05:16.988Z</time></trkpt><trkpt lat="39.69682488096904" lon="9.153110037875157"><ele>559.0</ele><time>2026-04-28T09:05:17.988Z</time></trkpt><trkpt lat="39.69678542423052" lon="9.153004601999843"><ele>559.0</ele><time>2026-04-28T09:05:18.988Z</time></trkpt><trkpt lat="39.69672773461861" lon="9.15290399712316"><ele>560.4</ele><time>2026-04-28T09:05:19.988Z</time></trkpt><trkpt lat="39.696647312934495" lon="9.15283478039499"><ele>561.8</ele><time>2026-04-28T09:05:20.988Z</time></trkpt><trkpt lat="39.696557528041126" lon="9.15279639996856"><ele>563.2</ele><time>2026-04-28T09:05:21.988Z</time></trkpt><trkpt lat="39.69646511559918" lon="9.15275804387488"><ele>564.6</ele><time>2026-04-28T09:05:22.988Z</time></trkpt><trkpt lat="39.696369469883955" lon="9.15272479956644"><ele>566.0</ele><time>2026-04-28T09:05:23.988Z</time></trkpt><trkpt lat="39.69627786912321" lon="9.152705545348507"><ele>566.0</ele><time>2026-04-28T09:05:24.988Z</time></trkpt><trkpt lat="39.69617871810683" lon="9.152685826681479"><ele>566.0</ele><time>2026-04-28T09:05:25.988Z</time></trkpt><trkpt lat="39.696086948595024" lon="9.152667062236903"><ele>566.0</ele><time>2026-04-28T09:05:26.988Z</time></trkpt><trkpt lat="39.69599547995571" lon="9.152659324862643"><ele>566.0</ele><time>2026-04-28T09:05:27.988Z</time></trkpt><trkpt lat="39.695903438545685" lon="9.152654625051108"><ele>566.0</ele><time>2026-04-28T09:05:28.988Z</time></trkpt><trkpt lat="39.69581255539094" lon="9.15266079602163"><ele>566.0</ele><time>2026-04-28T09:05:29.988Z</time></trkpt><trkpt lat="39.695725325201" lon="9.15266419029065"><ele>566.0</ele><time>2026-04-28T09:05:30.988Z</time></trkpt><trkpt lat="39.69564056800066" lon="9.152661627004111"><ele>566.0</ele><time>2026-04-28T09:05:31.988Z</time></trkpt><trkpt lat="39.69556072232733" lon="9.152673871333418"><ele>566.0</ele><time>2026-04-28T09:05:32.988Z</time></trkpt><trkpt lat="39.695478833145245" lon="9.152694061411108"><ele>566.0</ele><time>2026-04-28T09:05:33.988Z</time></trkpt><trkpt lat="39.69539493542592" lon="9.152710300165674"><ele>566.0</ele><time>2026-04-28T09:05:34.988Z</time></trkpt><trkpt lat="39.69531110980547" lon="9.152719802476005"><ele>566.4</ele><time>2026-04-28T09:05:35.988Z</time></trkpt><trkpt lat="39.69522779972427" lon="9.152743014011369"><ele>566.8</ele><time>2026-04-28T09:05:36.988Z</time></trkpt><trkpt lat="39.695138371763385" lon="9.152764956466255"><ele>567.1999999999999</ele><time>2026-04-28T09:05:37.988Z</time></trkpt><trkpt lat="39.695045010026426" lon="9.152783567700224"><ele>567.6</ele><time>2026-04-28T09:05:38.988Z</time></trkpt><trkpt lat="39.694915872220264" lon="9.152797713411854"><ele>568.0</ele><time>2026-04-28T09:05:39.988Z</time></trkpt><trkpt lat="39.6947473026422" lon="9.152769833194485"><ele>568.0</ele><time>2026-04-28T09:05:40.988Z</time></trkpt><trkpt lat="39.69455442900027" lon="9.152682466353129"><ele>568.0</ele><time>2026-04-28T09:05:41.988Z</time></trkpt><trkpt lat="39.69435267776056" lon="9.152570541798948"><ele>568.0</ele><time>2026-04-28T09:05:42.988Z</time></trkpt><trkpt lat="39.69414655548152" lon="9.152443640649993"><ele>572.5</ele><time>2026-04-28T09:05:43.988Z</time></trkpt><trkpt lat="39.693951763674846" lon="9.152279568816983"><ele>577.0</ele><time>2026-04-28T09:05:44.988Z</time></trkpt><trkpt lat="39.693797311749194" lon="9.152080536181412"><ele>577.0</ele><time>2026-04-28T09:05:45.988Z</time></trkpt><trkpt lat="39.69367908607175" lon="9.151845959862525"><ele>577.0</ele><time>2026-04-28T09:05:46.988Z</time></trkpt><trkpt lat="39.69358019695802" lon="9.151569865315588"><ele>577.5</ele><time>2026-04-28T09:05:47.988Z</time></trkpt><trkpt lat="39.6934737334511" lon="9.151286915706185"><ele>578.0</ele><time>2026-04-28T09:05:48.988Z</time></trkpt><trkpt lat="39.69333917603379" lon="9.151053088221142"><ele>578.0</ele><time>2026-04-28T09:05:49.987Z</time></trkpt><trkpt lat="39.693161656166026" lon="9.15086379499123"><ele>578.0</ele><time>2026-04-28T09:05:50.987Z</time></trkpt><trkpt lat="39.692962272786815" lon="9.150673881660214"><ele>579.0</ele><time>2026-04-28T09:05:51.987Z</time></trkpt><trkpt lat="39.692768467476306" lon="9.150454162335016"><ele>580.0</ele><time>2026-04-28T09:05:52.987Z</time></trkpt><trkpt lat="39.69255604038185" lon="9.150254707188495"><ele>580.0</ele><time>2026-04-28T09:05:53.987Z</time></trkpt><trkpt lat="39.69232670460309" lon="9.150089077111657"><ele>580.0</ele><time>2026-04-28T09:05:54.987Z</time></trkpt><trkpt lat="39.6920866832623" lon="9.149953048777904"><ele>583.0</ele><time>2026-04-28T09:05:55.987Z</time></trkpt><trkpt lat="39.69183725101298" lon="9.149848584639603"><ele>586.0</ele><time>2026-04-28T09:05:56.987Z</time></trkpt><trkpt lat="39.691580694090085" lon="9.149779758731926"><ele>586.0</ele><time>2026-04-28T09:05:57.987Z</time></trkpt><trkpt lat="39.69133369291431" lon="9.149765751224981"><ele>586.0</ele><time>2026-04-28T09:05:58.987Z</time></trkpt><trkpt lat="39.69110644333162" lon="9.14977149115394"><ele>584.6666666666667</ele><time>2026-04-28T09:05:59.987Z</time></trkpt><trkpt lat="39.69089823870275" lon="9.149717591942157"><ele>583.3333333333334</ele><time>2026-04-28T09:06:00.987Z</time></trkpt><trkpt lat="39.69069842176068" lon="9.149637786501167"><ele>582.0</ele><time>2026-04-28T09:06:01.987Z</time></trkpt><trkpt lat="39.69049235207846" lon="9.149553779679794"><ele>582.0</ele><time>2026-04-28T09:06:02.987Z</time></trkpt><trkpt lat="39.6902829411609" lon="9.14946815924676"><ele>582.0</ele><time>2026-04-28T09:06:03.987Z</time></trkpt><trkpt lat="39.69006273832944" lon="9.14937739428911"><ele>580.0</ele><time>2026-04-28T09:06:04.987Z</time></trkpt><trkpt lat="39.689826400913155" lon="9.149298478950042"><ele>578.0</ele><time>2026-04-28T09:06:05.987Z</time></trkpt><trkpt lat="39.6895967949345" lon="9.149244725317052"><ele>578.5</ele><time>2026-04-28T09:06:06.987Z</time></trkpt><trkpt lat="39.689341264683605" lon="9.149156590890993"><ele>579.0</ele><time>2026-04-28T09:06:07.987Z</time></trkpt><trkpt lat="39.68908652584308" lon="9.149056031034345"><ele>575.0</ele><time>2026-04-28T09:06:08.987Z</time></trkpt><trkpt lat="39.68883293123912" lon="9.148954566825354"><ele>571.0</ele><time>2026-04-28T09:06:09.987Z</time></trkpt><trkpt lat="39.68858587609878" lon="9.14885179333068"><ele>571.0</ele><time>2026-04-28T09:06:10.987Z</time></trkpt><trkpt lat="39.6883514277768" lon="9.148732243220563"><ele>571.0</ele><time>2026-04-28T09:06:11.987Z</time></trkpt><trkpt lat="39.688136711473135" lon="9.148600072164134"><ele>571.0</ele><time>2026-04-28T09:06:12.987Z</time></trkpt><trkpt lat="39.68795855512422" lon="9.148444902618625"><ele>571.0</ele><time>2026-04-28T09:06:13.987Z</time></trkpt><trkpt lat="39.687829925954695" lon="9.148250849841848"><ele>571.0</ele><time>2026-04-28T09:06:14.987Z</time></trkpt><trkpt lat="39.68776009167114" lon="9.148019546058604"><ele>572.6666666666667</ele><time>2026-04-28T09:06:15.987Z</time></trkpt><trkpt lat="39.687745463493634" lon="9.147736118590473"><ele>574.3333333333334</ele><time>2026-04-28T09:06:16.987Z</time></trkpt><trkpt lat="39.68769528678588" lon="9.14746523718059"><ele>576.0</ele><time>2026-04-28T09:06:17.987Z</time></trkpt><trkpt lat="39.68756410125779" lon="9.14724036476402"><ele>570.5</ele><time>2026-04-28T09:06:18.987Z</time></trkpt><trkpt lat="39.68735859095781" lon="9.147047963889948"><ele>565.0</ele><time>2026-04-28T09:06:19.987Z</time></trkpt><trkpt lat="39.68712024863038" lon="9.146891157957176"><ele>569.0</ele><time>2026-04-28T09:06:20.987Z</time></trkpt><trkpt lat="39.686865264415125" lon="9.146762828177167"><ele>573.0</ele><time>2026-04-28T09:06:21.987Z</time></trkpt><trkpt lat="39.6865981629064" lon="9.14665633341405"><ele>564.5</ele><time>2026-04-28T09:06:22.987Z</time></trkpt><trkpt lat="39.68633945266131" lon="9.146541868359277"><ele>556.0</ele><time>2026-04-28T09:06:23.987Z</time></trkpt><trkpt lat="39.68610578253425" lon="9.146403468528188"><ele>559.0</ele><time>2026-04-28T09:06:24.987Z</time></trkpt><trkpt lat="39.68590218592479" lon="9.146250334600358"><ele>562.0</ele><time>2026-04-28T09:06:25.987Z</time></trkpt><trkpt lat="39.685688388715505" lon="9.146172126673367"><ele>562.0</ele><time>2026-04-28T09:06:26.987Z</time></trkpt><trkpt lat="39.685450031933826" lon="9.146168824541919"><ele>562.0</ele><time>2026-04-28T09:06:27.987Z</time></trkpt><trkpt lat="39.685228911292306" lon="9.14624973683301"><ele>561.6666666666667</ele><time>2026-04-28T09:06:28.987Z</time></trkpt><trkpt lat="39.68503547172984" lon="9.14635242356466"><ele>561.3333333333334</ele><time>2026-04-28T09:06:29.987Z</time></trkpt><trkpt lat="39.68486257364816" lon="9.14639210083512"><ele>561.0</ele><time>2026-04-28T09:06:30.987Z</time></trkpt><trkpt lat="39.68468126187027" lon="9.14630532534276"><ele>561.0</ele><time>2026-04-28T09:06:31.987Z</time></trkpt><trkpt lat="39.68450982149783" lon="9.1461109680708"><ele>561.0</ele><time>2026-04-28T09:06:32.987Z</time></trkpt><trkpt lat="39.6843347387546" lon="9.145893630168256"><ele>558.5</ele><time>2026-04-28T09:06:33.987Z</time></trkpt><trkpt lat="39.68411577109332" lon="9.14573813907283"><ele>556.0</ele><time>2026-04-28T09:06:34.987Z</time></trkpt><trkpt lat="39.68387667327338" lon="9.14563639483124"><ele>556.0</ele><time>2026-04-28T09:06:35.987Z</time></trkpt><trkpt lat="39.6836310966632" lon="9.145600363230278"><ele>556.0</ele><time>2026-04-28T09:06:36.987Z</time></trkpt><trkpt lat="39.68340318066653" lon="9.145652651852213"><ele>561.0</ele><time>2026-04-28T09:06:37.987Z</time></trkpt><trkpt lat="39.68318102548878" lon="9.145776325231747"><ele>566.0</ele><time>2026-04-28T09:06:38.987Z</time></trkpt><trkpt lat="39.682976113834464" lon="9.145960113329231"><ele>566.0</ele><time>2026-04-28T09:06:39.987Z</time></trkpt><trkpt lat="39.6828260342989" lon="9.146254778760348"><ele>566.0</ele><time>2026-04-28T09:06:40.988Z</time></trkpt><trkpt lat="39.682667210395756" lon="9.146424327775946"><ele>564.3333333333333</ele><time>2026-04-28T09:06:41.988Z</time></trkpt><trkpt lat="39.68250935299893" lon="9.14650212078185"><ele>562.6666666666666</ele><time>2026-04-28T09:06:42.988Z</time></trkpt><trkpt lat="39.682367117001064" lon="9.146469544738137"><ele>561.0</ele><time>2026-04-28T09:06:43.988Z</time></trkpt><trkpt lat="39.68224422851986" lon="9.146306281922755"><ele>561.0</ele><time>2026-04-28T09:06:44.988Z</time></trkpt><trkpt lat="39.682168434569746" lon="9.146069437826105"><ele>561.0</ele><time>2026-04-28T09:06:45.988Z</time></trkpt><trkpt lat="39.68211814635671" lon="9.145794971291755"><ele>561.0</ele><time>2026-04-28T09:06:46.988Z</time></trkpt><trkpt lat="39.68201676145349" lon="9.145549472330591"><ele>559.0</ele><time>2026-04-28T09:06:47.989Z</time></trkpt><trkpt lat="39.6818333135885" lon="9.145363573818004"><ele>557.0</ele><time>2026-04-28T09:06:48.988Z</time></trkpt><trkpt lat="39.68160150647377" lon="9.145221536285232"><ele>557.0</ele><time>2026-04-28T09:06:49.988Z</time></trkpt><trkpt lat="39.68136262595585" lon="9.145093272832831"><ele>557.0</ele><time>2026-04-28T09:06:50.988Z</time></trkpt><trkpt lat="39.68110641255039" lon="9.14499514793595"><ele>556.5</ele><time>2026-04-28T09:06:51.988Z</time></trkpt><trkpt lat="39.680826883967434" lon="9.144921551298971"><ele>556.0</ele><time>2026-04-28T09:06:52.988Z</time></trkpt><trkpt lat="39.68057949836297" lon="9.144833610484548"><ele>551.0</ele><time>2026-04-28T09:06:53.988Z</time></trkpt><trkpt lat="39.680361440392" lon="9.144743936196422"><ele>546.0</ele><time>2026-04-28T09:06:54.988Z</time></trkpt><trkpt lat="39.68013107261718" lon="9.144694291266593"><ele>543.5</ele><time>2026-04-28T09:06:55.988Z</time></trkpt><trkpt lat="39.679897411453766" lon="9.14472100710752"><ele>541.0</ele><time>2026-04-28T09:06:56.988Z</time></trkpt><trkpt lat="39.67967648024093" lon="9.144834345657019"><ele>543.3333333333334</ele><time>2026-04-28T09:06:57.988Z</time></trkpt><trkpt lat="39.6794915196102" lon="9.144979821379033"><ele>545.6666666666666</ele><time>2026-04-28T09:06:58.988Z</time></trkpt><trkpt lat="39.67935004739567" lon="9.145105246205123"><ele>548.0</ele><time>2026-04-28T09:06:59.988Z</time></trkpt><trkpt lat="39.67921716824814" lon="9.145140909132259"><ele>548.0</ele><time>2026-04-28T09:07:00.988Z</time></trkpt><trkpt lat="39.679081006570975" lon="9.145080314519218"><ele>548.0</ele><time>2026-04-28T09:07:01.988Z</time></trkpt><trkpt lat="39.67895419413654" lon="9.144899550618385"><ele>548.0</ele><time>2026-04-28T09:07:02.988Z</time></trkpt><trkpt lat="39.67886836446091" lon="9.14465750522893"><ele>544.6666666666666</ele><time>2026-04-28T09:07:03.988Z</time></trkpt><trkpt lat="39.67877166799863" lon="9.144439036418555"><ele>541.3333333333334</ele><time>2026-04-28T09:07:04.988Z</time></trkpt><trkpt lat="39.67862878150073" lon="9.14431372748466"><ele>538.0</ele><time>2026-04-28T09:07:05.988Z</time></trkpt><trkpt lat="39.67845763999896" lon="9.144299074869513"><ele>537.6666666666667</ele><time>2026-04-28T09:07:06.988Z</time></trkpt><trkpt lat="39.678285120851584" lon="9.144406105796953"><ele>537.3333333333334</ele><time>2026-04-28T09:07:07.988Z</time></trkpt><trkpt lat="39.67812068762022" lon="9.14457041452683"><ele>537.0</ele><time>2026-04-28T09:07:08.988Z</time></trkpt><trkpt lat="39.67795022111041" lon="9.144766586113244"><ele>537.3333333333334</ele><time>2026-04-28T09:07:09.988Z</time></trkpt><trkpt lat="39.67776862415442" lon="9.144943028720553"><ele>537.6666666666667</ele><time>2026-04-28T09:07:10.988Z</time></trkpt><trkpt lat="39.67761089037453" lon="9.145065213883498"><ele>538.0</ele><time>2026-04-28T09:07:11.987Z</time></trkpt><trkpt lat="39.67746885678318" lon="9.145104653032725"><ele>538.0</ele><time>2026-04-28T09:07:12.987Z</time></trkpt><trkpt lat="39.677323118888935" lon="9.145055116500263"><ele>538.0</ele><time>2026-04-28T09:07:13.987Z</time></trkpt><trkpt lat="39.6771753491572" lon="9.144889995336676"><ele>538.0</ele><time>2026-04-28T09:07:14.987Z</time></trkpt><trkpt lat="39.67707343650912" lon="9.144636016723657"><ele>535.3333333333334</ele><time>2026-04-28T09:07:15.987Z</time></trkpt><trkpt lat="39.67695618402039" lon="9.14439755860597"><ele>532.6666666666666</ele><time>2026-04-28T09:07:16.987Z</time></trkpt><trkpt lat="39.6767909582143" lon="9.144219383677195"><ele>530.0</ele><time>2026-04-28T09:07:17.987Z</time></trkpt><trkpt lat="39.67659816636502" lon="9.14410878251298"><ele>530.0</ele><time>2026-04-28T09:07:18.987Z</time></trkpt><trkpt lat="39.67638354770752" lon="9.144068593504771"><ele>530.0</ele><time>2026-04-28T09:07:19.987Z</time></trkpt><trkpt lat="39.67617165804779" lon="9.144076804306804"><ele>530.0</ele><time>2026-04-28T09:07:20.987Z</time></trkpt><trkpt lat="39.67598739379499" lon="9.144072551446834"><ele>526.6666666666666</ele><time>2026-04-28T09:07:21.987Z</time></trkpt><trkpt lat="39.67581516078395" lon="9.143977680048527"><ele>523.3333333333334</ele><time>2026-04-28T09:07:22.987Z</time></trkpt><trkpt lat="39.67566676303746" lon="9.1437881433402"><ele>520.0</ele><time>2026-04-28T09:07:23.987Z</time></trkpt><trkpt lat="39.67554831304511" lon="9.143540841017934"><ele>520.0</ele><time>2026-04-28T09:07:24.987Z</time></trkpt><trkpt lat="39.67543987573698" lon="9.143292529387317"><ele>520.0</ele><time>2026-04-28T09:07:25.987Z</time></trkpt><trkpt lat="39.675333805613455" lon="9.143053045256313"><ele>520.0</ele><time>2026-04-28T09:07:26.987Z</time></trkpt><trkpt lat="39.675200241382974" lon="9.142886903053395"><ele>517.6666666666667</ele><time>2026-04-28T09:07:27.987Z</time></trkpt><trkpt lat="39.67501902277965" lon="9.142828013051089"><ele>515.3333333333334</ele><time>2026-04-28T09:07:28.987Z</time></trkpt><trkpt lat="39.67480345035058" lon="9.142850142405447"><ele>513.0</ele><time>2026-04-28T09:07:29.987Z</time></trkpt><trkpt lat="39.67459010566572" lon="9.142832018348315"><ele>512.6666666666666</ele><time>2026-04-28T09:07:30.987Z</time></trkpt><trkpt lat="39.674383002918646" lon="9.14273665668814"><ele>512.3333333333333</ele><time>2026-04-28T09:07:31.987Z</time></trkpt><trkpt lat="39.67420624294523" lon="9.142572035508598"><ele>512.0</ele><time>2026-04-28T09:07:32.987Z</time></trkpt><trkpt lat="39.67404758984636" lon="9.14236349389412"><ele>511.0</ele><time>2026-04-28T09:07:33.987Z</time></trkpt><trkpt lat="39.673892301475874" lon="9.142157974050116"><ele>510.0</ele><time>2026-04-28T09:07:34.987Z</time></trkpt><trkpt lat="39.673738493381045" lon="9.141956283480587"><ele>509.0</ele><time>2026-04-28T09:07:35.987Z</time></trkpt><trkpt lat="39.673582024172866" lon="9.141751037324457"><ele>508.66666666666663</ele><time>2026-04-28T09:07:36.987Z</time></trkpt><trkpt lat="39.6734270979137" lon="9.14156946726379"><ele>508.33333333333337</ele><time>2026-04-28T09:07:37.987Z</time></trkpt><trkpt lat="39.67327614602705" lon="9.141419831148063"><ele>508.0</ele><time>2026-04-28T09:07:38.987Z</time></trkpt><trkpt lat="39.6731304596772" lon="9.141284811971222"><ele>507.75</ele><time>2026-04-28T09:07:39.987Z</time></trkpt><trkpt lat="39.672999540436194" lon="9.14115878059606"><ele>507.5</ele><time>2026-04-28T09:07:40.987Z</time></trkpt><trkpt lat="39.67289196917301" lon="9.141053055697759"><ele>507.25</ele><time>2026-04-28T09:07:41.987Z</time></trkpt><trkpt lat="39.672794561209" lon="9.140969751528834"><ele>507.0</ele><time>2026-04-28T09:07:42.987Z</time></trkpt><trkpt lat="39.67271281205351" lon="9.140918860910425"><ele>507.0</ele><time>2026-04-28T09:07:43.987Z</time></trkpt><trkpt lat="39.672643688233144" lon="9.140892042454327"><ele>507.0</ele><time>2026-04-28T09:07:44.987Z</time></trkpt><trkpt lat="39.672576008921055" lon="9.140880306121645"><ele>507.0</ele><time>2026-04-28T09:07:45.987Z</time></trkpt><trkpt lat="39.672507631112815" lon="9.140856285998847"><ele>507.0</ele><time>2026-04-28T09:07:46.987Z</time></trkpt><trkpt lat="39.6724485114412" lon="9.14080320466502"><ele>507.0</ele><time>2026-04-28T09:07:47.987Z</time></trkpt><trkpt lat="39.67238181300773" lon="9.140711175890464"><ele>507.0</ele><time>2026-04-28T09:07:48.987Z</time></trkpt><trkpt lat="39.6723102506525" lon="9.140581917751787"><ele>507.0</ele><time>2026-04-28T09:07:49.987Z</time></trkpt><trkpt lat="39.67223536836991" lon="9.140446900656181"><ele>507.0</ele><time>2026-04-28T09:07:50.987Z</time></trkpt><trkpt lat="39.672134435181675" lon="9.140338222805621"><ele>507.0</ele><time>2026-04-28T09:07:51.987Z</time></trkpt><trkpt lat="39.67201564263314" lon="9.14023496454485"><ele>507.0</ele><time>2026-04-28T09:07:52.987Z</time></trkpt><trkpt lat="39.67188574458112" lon="9.140111565387535"><ele>506.66666666666663</ele><time>2026-04-28T09:07:53.987Z</time></trkpt><trkpt lat="39.67175008075201" lon="9.13998202916914"><ele>506.3333333333333</ele><time>2026-04-28T09:07:54.987Z</time></trkpt><trkpt lat="39.67161785599949" lon="9.1398526373669"><ele>506.0</ele><time>2026-04-28T09:07:55.987Z</time></trkpt><trkpt lat="39.67148137869982" lon="9.139720694849467"><ele>506.0</ele><time>2026-04-28T09:07:56.987Z</time></trkpt><trkpt lat="39.671331769176874" lon="9.139582297781267"><ele>506.0</ele><time>2026-04-28T09:07:57.987Z</time></trkpt><trkpt lat="39.67117858340817" lon="9.139437036085509"><ele>506.0</ele><time>2026-04-28T09:07:58.987Z</time></trkpt><trkpt lat="39.671011398506785" lon="9.139295084148769"><ele>505.3333333333333</ele><time>2026-04-28T09:07:59.987Z</time></trkpt><trkpt lat="39.67083734453932" lon="9.139169739401074"><ele>504.66666666666663</ele><time>2026-04-28T09:08:00.987Z</time></trkpt><trkpt lat="39.67064500634815" lon="9.139058773915954"><ele>504.0</ele><time>2026-04-28T09:08:01.987Z</time></trkpt><trkpt lat="39.670426783703896" lon="9.138973914448439"><ele>502.0</ele><time>2026-04-28T09:08:02.987Z</time></trkpt><trkpt lat="39.67019776357292" lon="9.138892391007966"><ele>500.0</ele><time>2026-04-28T09:08:03.987Z</time></trkpt><trkpt lat="39.66996727239525" lon="9.138804019589172"><ele>500.0</ele><time>2026-04-28T09:08:04.987Z</time></trkpt><trkpt lat="39.66973109210547" lon="9.138716183715689"><ele>500.0</ele><time>2026-04-28T09:08:05.987Z</time></trkpt><trkpt lat="39.66948657648616" lon="9.13862309893808"><ele>501.5</ele><time>2026-04-28T09:08:06.987Z</time></trkpt><trkpt lat="39.66923748698873" lon="9.13852543498346"><ele>503.0</ele><time>2026-04-28T09:08:07.987Z</time></trkpt><trkpt lat="39.668988063737245" lon="9.138433327150985"><ele>503.0</ele><time>2026-04-28T09:08:08.987Z</time></trkpt><trkpt lat="39.66873080946114" lon="9.138340298830808"><ele>503.0</ele><time>2026-04-28T09:08:09.987Z</time></trkpt><trkpt lat="39.668468985248275" lon="9.138244607179697"><ele>503.5</ele><time>2026-04-28T09:08:10.987Z</time></trkpt><trkpt lat="39.66820118903795" lon="9.13814593459357"><ele>504.0</ele><time>2026-04-28T09:08:11.987Z</time></trkpt><trkpt lat="39.66793312223684" lon="9.13805030401481"><ele>504.5</ele><time>2026-04-28T09:08:12.987Z</time></trkpt><trkpt lat="39.66766037031877" lon="9.137955849367543"><ele>505.0</ele><time>2026-04-28T09:08:13.987Z</time></trkpt><trkpt lat="39.667388057159116" lon="9.137862855497447"><ele>505.0</ele><time>2026-04-28T09:08:14.987Z</time></trkpt><trkpt lat="39.667121224275654" lon="9.13776771716178"><ele>505.0</ele><time>2026-04-28T09:08:15.987Z</time></trkpt><trkpt lat="39.666860158542384" lon="9.137668441453004"><ele>504.5</ele><time>2026-04-28T09:08:16.987Z</time></trkpt><trkpt lat="39.666606537799595" lon="9.137560572811507"><ele>504.0</ele><time>2026-04-28T09:08:17.987Z</time></trkpt><trkpt lat="39.66637826679081" lon="9.137388190253791"><ele>502.5</ele><time>2026-04-28T09:08:18.986Z</time></trkpt><trkpt lat="39.66616542474884" lon="9.137173417967718"><ele>501.0</ele><time>2026-04-28T09:08:19.986Z</time></trkpt><trkpt lat="39.665982996609024" lon="9.13690949465688"><ele>501.0</ele><time>2026-04-28T09:08:20.986Z</time></trkpt><trkpt lat="39.66581837647184" lon="9.136631010600603"><ele>501.0</ele><time>2026-04-28T09:08:21.986Z</time></trkpt><trkpt lat="39.665639273199524" lon="9.136370766012652"><ele>500.5</ele><time>2026-04-28T09:08:22.986Z</time></trkpt><trkpt lat="39.665433585228264" lon="9.136176250652909"><ele>500.0</ele><time>2026-04-28T09:08:23.986Z</time></trkpt><trkpt lat="39.66521476447814" lon="9.136053701907377"><ele>500.0</ele><time>2026-04-28T09:08:24.986Z</time></trkpt><trkpt lat="39.66500010104692" lon="9.135976764219556"><ele>500.0</ele><time>2026-04-28T09:08:25.986Z</time></trkpt><trkpt lat="39.66480584936264" lon="9.135873975573539"><ele>500.0</ele><time>2026-04-28T09:08:26.986Z</time></trkpt><trkpt lat="39.66463538910133" lon="9.13571224421929"><ele>500.5</ele><time>2026-04-28T09:08:27.986Z</time></trkpt><trkpt lat="39.66448425595216" lon="9.135487762228674"><ele>501.0</ele><time>2026-04-28T09:08:28.986Z</time></trkpt><trkpt lat="39.66435222536715" lon="9.1352193512164"><ele>501.0</ele><time>2026-04-28T09:08:29.986Z</time></trkpt><trkpt lat="39.664202406852276" lon="9.134958420148529"><ele>501.0</ele><time>2026-04-28T09:08:30.986Z</time></trkpt><trkpt lat="39.664017268016686" lon="9.134718663819049"><ele>500.5</ele><time>2026-04-28T09:08:31.986Z</time></trkpt><trkpt lat="39.6638147798995" lon="9.13448590783666"><ele>500.0</ele><time>2026-04-28T09:08:32.986Z</time></trkpt><trkpt lat="39.6636033624516" lon="9.134254762767421"><ele>496.5</ele><time>2026-04-28T09:08:33.986Z</time></trkpt><trkpt lat="39.663391722878735" lon="9.13403362948858"><ele>493.0</ele><time>2026-04-28T09:08:34.986Z</time></trkpt><trkpt lat="39.66318183967394" lon="9.133836391813395"><ele>493.0</ele><time>2026-04-28T09:08:35.986Z</time></trkpt><trkpt lat="39.66297284261678" lon="9.133675969107697"><ele>493.0</ele><time>2026-04-28T09:08:36.986Z</time></trkpt><trkpt lat="39.66277014762439" lon="9.133542626684443"><ele>494.0</ele><time>2026-04-28T09:08:37.986Z</time></trkpt><trkpt lat="39.662574048337845" lon="9.13343093133045"><ele>495.0</ele><time>2026-04-28T09:08:38.986Z</time></trkpt><trkpt lat="39.66238987896789" lon="9.13333160990497"><ele>496.0</ele><time>2026-04-28T09:08:39.986Z</time></trkpt><trkpt lat="39.66222443581384" lon="9.133223474497639"><ele>496.0</ele><time>2026-04-28T09:08:40.986Z</time></trkpt><trkpt lat="39.66210149974958" lon="9.13309224712817"><ele>496.0</ele><time>2026-04-28T09:08:41.986Z</time></trkpt><trkpt lat="39.66199998899303" lon="9.132945425772991"><ele>496.0</ele><time>2026-04-28T09:08:42.986Z</time></trkpt><trkpt lat="39.66191935811337" lon="9.132795936872055"><ele>496.0</ele><time>2026-04-28T09:08:43.986Z</time></trkpt><trkpt lat="39.661860744643754" lon="9.132635597492154"><ele>496.0</ele><time>2026-04-28T09:08:44.986Z</time></trkpt><trkpt lat="39.66182246005352" lon="9.132457889801096"><ele>496.0</ele><time>2026-04-28T09:08:45.986Z</time></trkpt><trkpt lat="39.66177443540533" lon="9.132319148808016"><ele>496.0</ele><time>2026-04-28T09:08:46.987Z</time></trkpt><trkpt lat="39.661735278249644" lon="9.132204459668774"><ele>495.20000000000005</ele><time>2026-04-28T09:08:47.988Z</time></trkpt><trkpt lat="39.66170045544737" lon="9.132116106340108"><ele>494.40000000000003</ele><time>2026-04-28T09:08:48.988Z</time></trkpt><trkpt lat="39.661658424694785" lon="9.131981662455146"><ele>493.6</ele><time>2026-04-28T09:08:50.988Z</time></trkpt><trkpt lat="39.661595960550926" lon="9.131919881310035"><ele>492.8</ele><time>2026-04-28T09:08:51.988Z</time></trkpt><trkpt lat="39.66148993522069" lon="9.131894133337383"><ele>492.0</ele><time>2026-04-28T09:08:52.987Z</time></trkpt><trkpt lat="39.66136740484279" lon="9.131865752794992"><ele>492.0</ele><time>2026-04-28T09:08:53.988Z</time></trkpt><trkpt lat="39.66125034672341" lon="9.13183501001654"><ele>492.0</ele><time>2026-04-28T09:08:54.988Z</time></trkpt><trkpt lat="39.66112529168262" lon="9.131808459565852"><ele>492.0</ele><time>2026-04-28T09:08:55.987Z</time></trkpt><trkpt lat="39.66099441416133" lon="9.131773858914272"><ele>492.0</ele><time>2026-04-28T09:08:56.988Z</time></trkpt><trkpt lat="39.66086210046359" lon="9.131735736305608"><ele>492.0</ele><time>2026-04-28T09:08:57.988Z</time></trkpt><trkpt lat="39.6607266333415" lon="9.131703367725132"><ele>492.0</ele><time>2026-04-28T09:08:58.988Z</time></trkpt><trkpt lat="39.660577203242234" lon="9.131669517177093"><ele>492.0</ele><time>2026-04-28T09:08:59.987Z</time></trkpt><trkpt lat="39.66043049801955" lon="9.131639546798644"><ele>492.0</ele><time>2026-04-28T09:09:00.987Z</time></trkpt><trkpt lat="39.660287819709026" lon="9.131602878850456"><ele>491.75</ele><time>2026-04-28T09:09:01.987Z</time></trkpt><trkpt lat="39.660167172798836" lon="9.131553972196176"><ele>491.5</ele><time>2026-04-28T09:09:02.987Z</time></trkpt><trkpt lat="39.66004607896516" lon="9.131481860933878"><ele>491.25</ele><time>2026-04-28T09:09:03.987Z</time></trkpt><trkpt lat="39.65993342478345" lon="9.131383838860403"><ele>491.0</ele><time>2026-04-28T09:09:04.987Z</time></trkpt><trkpt lat="39.659828406533826" lon="9.13126674745643"><ele>491.0</ele><time>2026-04-28T09:09:05.987Z</time></trkpt><trkpt lat="39.65972545926762" lon="9.131145839488077"><ele>491.0</ele><time>2026-04-28T09:09:06.987Z</time></trkpt><trkpt lat="39.65962026554867" lon="9.131021477908945"><ele>491.0</ele><time>2026-04-28T09:09:07.987Z</time></trkpt><trkpt lat="39.659512741002764" lon="9.130894269586983"><ele>491.0</ele><time>2026-04-28T09:09:08.987Z</time></trkpt><trkpt lat="39.65940278432365" lon="9.130763968497362"><ele>490.75</ele><time>2026-04-28T09:09:09.987Z</time></trkpt><trkpt lat="39.659296827595824" lon="9.130639610029101"><ele>490.5</ele><time>2026-04-28T09:09:10.987Z</time></trkpt><trkpt lat="39.65918858326369" lon="9.130519312246872"><ele>490.25</ele><time>2026-04-28T09:09:11.987Z</time></trkpt><trkpt lat="39.65906691859948" lon="9.130421483630137"><ele>490.0</ele><time>2026-04-28T09:09:12.987Z</time></trkpt><trkpt lat="39.65893777818828" lon="9.130348198935616"><ele>490.0</ele><time>2026-04-28T09:09:13.987Z</time></trkpt><trkpt lat="39.658800780363016" lon="9.130280215027796"><ele>490.0</ele><time>2026-04-28T09:09:14.987Z</time></trkpt><trkpt lat="39.65866381455727" lon="9.130232911068095"><ele>490.0</ele><time>2026-04-28T09:09:15.987Z</time></trkpt><trkpt lat="39.6585304886182" lon="9.130185402469833"><ele>490.0</ele><time>2026-04-28T09:09:16.987Z</time></trkpt><trkpt lat="39.65839626152801" lon="9.130137408382636"><ele>489.5</ele><time>2026-04-28T09:09:17.987Z</time></trkpt><trkpt lat="39.65825963683873" lon="9.130089213140687"><ele>489.0</ele><time>2026-04-28T09:09:18.987Z</time></trkpt><trkpt lat="39.65812426284839" lon="9.130040313509365"><ele>488.5</ele><time>2026-04-28T09:09:19.987Z</time></trkpt><trkpt lat="39.65799639981323" lon="9.129991888394065"><ele>488.0</ele><time>2026-04-28T09:09:20.987Z</time></trkpt><trkpt lat="39.65786757209243" lon="9.129940936730181"><ele>488.25</ele><time>2026-04-28T09:09:21.987Z</time></trkpt><trkpt lat="39.657739158453396" lon="9.129891184788233"><ele>488.5</ele><time>2026-04-28T09:09:22.987Z</time></trkpt><trkpt lat="39.657612905549136" lon="9.129838800642721"><ele>488.75</ele><time>2026-04-28T09:09:23.987Z</time></trkpt><trkpt lat="39.657492877057315" lon="9.129794588305733"><ele>489.0</ele><time>2026-04-28T09:09:24.987Z</time></trkpt><trkpt lat="39.6573815831997" lon="9.129751017655233"><ele>489.0</ele><time>2026-04-28T09:09:25.987Z</time></trkpt><trkpt lat="39.65727332591735" lon="9.129704560355405"><ele>489.0</ele><time>2026-04-28T09:09:26.987Z</time></trkpt><trkpt lat="39.65716955505043" lon="9.12965706864998"><ele>489.0</ele><time>2026-04-28T09:09:27.987Z</time></trkpt><trkpt lat="39.65706518757549" lon="9.129622688649167"><ele>489.0</ele><time>2026-04-28T09:09:28.987Z</time></trkpt><trkpt lat="39.65696132415969" lon="9.12958629802694"><ele>489.0</ele><time>2026-04-28T09:09:29.987Z</time></trkpt><trkpt lat="39.656859760648246" lon="9.129556363445186"><ele>488.2</ele><time>2026-04-28T09:09:30.987Z</time></trkpt><trkpt lat="39.65676145524708" lon="9.129526749924352"><ele>487.4</ele><time>2026-04-28T09:09:31.987Z</time></trkpt><trkpt lat="39.65665574638315" lon="9.129486788345769"><ele>486.6</ele><time>2026-04-28T09:09:32.987Z</time></trkpt><trkpt lat="39.65655241967936" lon="9.129466731564547"><ele>485.8</ele><time>2026-04-28T09:09:33.987Z</time></trkpt><trkpt lat="39.6564451905588" lon="9.129438213294524"><ele>485.0</ele><time>2026-04-28T09:09:34.987Z</time></trkpt><trkpt lat="39.6563359455723" lon="9.129399834309348"><ele>485.0</ele><time>2026-04-28T09:09:35.987Z</time></trkpt><trkpt lat="39.65622165515032" lon="9.129367860228268"><ele>485.0</ele><time>2026-04-28T09:09:36.987Z</time></trkpt><trkpt lat="39.65610741790613" lon="9.12932408925701"><ele>485.0</ele><time>2026-04-28T09:09:37.987Z</time></trkpt><trkpt lat="39.65599027832109" lon="9.129292359380466"><ele>485.0</ele><time>2026-04-28T09:09:38.987Z</time></trkpt><trkpt lat="39.6558849320758" lon="9.129258442377942"><ele>484.4</ele><time>2026-04-28T09:09:39.987Z</time></trkpt><trkpt lat="39.655781861642886" lon="9.129240664807172"><ele>483.8</ele><time>2026-04-28T09:09:40.987Z</time></trkpt><trkpt lat="39.65567818754249" lon="9.129233130076017"><ele>483.20000000000005</ele><time>2026-04-28T09:09:41.987Z</time></trkpt><trkpt lat="39.65558588169884" lon="9.129217284375615"><ele>482.6</ele><time>2026-04-28T09:09:42.987Z</time></trkpt><trkpt lat="39.65549288157561" lon="9.129194021013666"><ele>482.0</ele><time>2026-04-28T09:09:43.987Z</time></trkpt><trkpt lat="39.655398376568854" lon="9.129181540634061"><ele>481.99999999999994</ele><time>2026-04-28T09:09:44.987Z</time></trkpt><trkpt lat="39.65531107876858" lon="9.12918265642323"><ele>482.0</ele><time>2026-04-28T09:09:45.987Z</time></trkpt><trkpt lat="39.65522638778618" lon="9.12918089494925"><ele>482.0</ele><time>2026-04-28T09:09:46.987Z</time></trkpt><trkpt lat="39.65514089719142" lon="9.129190609585189"><ele>482.0</ele><time>2026-04-28T09:09:47.987Z</time></trkpt><trkpt lat="39.65507284317943" lon="9.129234695154423"><ele>481.99999999999994</ele><time>2026-04-28T09:09:48.987Z</time></trkpt><trkpt lat="39.65500728826753" lon="9.129273061973826"><ele>482.0</ele><time>2026-04-28T09:09:49.987Z</time></trkpt><trkpt lat="39.65494798242118" lon="9.12933129722738"><ele>481.66666666666663</ele><time>2026-04-28T09:09:50.987Z</time></trkpt><trkpt lat="39.654891516736576" lon="9.129388394853692"><ele>481.3333333333333</ele><time>2026-04-28T09:09:51.987Z</time></trkpt><trkpt lat="39.65484002727894" lon="9.129444836711633"><ele>481.0</ele><time>2026-04-28T09:09:52.987Z</time></trkpt><trkpt lat="39.65476949505585" lon="9.129504465593303"><ele>480.66666666666663</ele><time>2026-04-28T09:09:53.987Z</time></trkpt><trkpt lat="39.65470190846641" lon="9.129560952826502"><ele>480.3333333333333</ele><time>2026-04-28T09:09:54.987Z</time></trkpt><trkpt lat="39.65461239733046" lon="9.129590752382951"><ele>480.0</ele><time>2026-04-28T09:09:55.987Z</time></trkpt><trkpt lat="39.65451308699865" lon="9.129626913562618"><ele>479.6</ele><time>2026-04-28T09:09:56.987Z</time></trkpt><trkpt lat="39.65442309914478" lon="9.129671282824988"><ele>479.2</ele><time>2026-04-28T09:09:57.987Z</time></trkpt><trkpt lat="39.65434033988608" lon="9.129730355001916"><ele>478.79999999999995</ele><time>2026-04-28T09:09:58.987Z</time></trkpt><trkpt lat="39.6542600199349" lon="9.12979398654102"><ele>478.4</ele><time>2026-04-28T09:09:59.987Z</time></trkpt><trkpt lat="39.65417862630591" lon="9.129847090708678"><ele>478.0</ele><time>2026-04-28T09:10:00.987Z</time></trkpt><trkpt lat="39.65410233028319" lon="9.129893409652635"><ele>478.00000000000006</ele><time>2026-04-28T09:10:01.987Z</time></trkpt><trkpt lat="39.65402368810601" lon="9.12992477225057"><ele>478.0</ele><time>2026-04-28T09:10:02.986Z</time></trkpt><trkpt lat="39.65394376262345" lon="9.129978940099774"><ele>478.0</ele><time>2026-04-28T09:10:03.986Z</time></trkpt><trkpt lat="39.65386250563944" lon="9.129995247723258"><ele>478.0</ele><time>2026-04-28T09:10:04.986Z</time></trkpt><trkpt lat="39.65376970383656" lon="9.130010984475987"><ele>478.00000000000006</ele><time>2026-04-28T09:10:05.986Z</time></trkpt><trkpt lat="39.6536792573984" lon="9.130030716169527"><ele>478.0</ele><time>2026-04-28T09:10:06.986Z</time></trkpt><trkpt lat="39.653592721570284" lon="9.130059114263798"><ele>476.79999999999995</ele><time>2026-04-28T09:10:07.986Z</time></trkpt><trkpt lat="39.65350826246643" lon="9.130119662452485"><ele>475.59999999999997</ele><time>2026-04-28T09:10:08.986Z</time></trkpt><trkpt lat="39.653444183863236" lon="9.13021474245008"><ele>474.40000000000003</ele><time>2026-04-28T09:10:09.986Z</time></trkpt><trkpt lat="39.653380286768694" lon="9.13029972285915"><ele>473.20000000000005</ele><time>2026-04-28T09:10:10.986Z</time></trkpt><trkpt lat="39.65331473546745" lon="9.13038902521702"><ele>472.0</ele><time>2026-04-28T09:10:11.986Z</time></trkpt><trkpt lat="39.653243252187565" lon="9.130456715946247"><ele>472.0</ele><time>2026-04-28T09:10:12.986Z</time></trkpt><trkpt lat="39.65317794011413" lon="9.130528896278319"><ele>472.00000000000006</ele><time>2026-04-28T09:10:13.986Z</time></trkpt><trkpt lat="39.65310317294083" lon="9.130597708417517"><ele>472.00000000000006</ele><time>2026-04-28T09:10:14.986Z</time></trkpt><trkpt lat="39.65303466911718" lon="9.13067504062582"><ele>472.0</ele><time>2026-04-28T09:10:15.986Z</time></trkpt><trkpt lat="39.652966096251774" lon="9.130738190834123"><ele>472.0</ele><time>2026-04-28T09:10:16.986Z</time></trkpt><trkpt lat="39.652870200994045" lon="9.130806055819944"><ele>471.20000000000005</ele><time>2026-04-28T09:10:17.986Z</time></trkpt><trkpt lat="39.65276898797199" lon="9.130851393515883"><ele>470.40000000000003</ele><time>2026-04-28T09:10:18.986Z</time></trkpt><trkpt lat="39.65266857527189" lon="9.130862226504"><ele>469.59999999999997</ele><time>2026-04-28T09:10:19.986Z</time></trkpt><trkpt lat="39.65257490120641" lon="9.130857287849512"><ele>468.79999999999995</ele><time>2026-04-28T09:10:20.986Z</time></trkpt><trkpt lat="39.65248445732065" lon="9.130833531223864"><ele>468.0</ele><time>2026-04-28T09:10:21.986Z</time></trkpt><trkpt lat="39.652381685196474" lon="9.130819139563757"><ele>468.0</ele><time>2026-04-28T09:10:22.986Z</time></trkpt><trkpt lat="39.652284347786726" lon="9.130772973536724"><ele>467.99999999999994</ele><time>2026-04-28T09:10:23.986Z</time></trkpt><trkpt lat="39.6521720632153" lon="9.130754630498206"><ele>467.99999999999994</ele><time>2026-04-28T09:10:24.986Z</time></trkpt><trkpt lat="39.65206533774079" lon="9.130748328907526"><ele>468.0</ele><time>2026-04-28T09:10:25.986Z</time></trkpt><trkpt lat="39.65194865354852" lon="9.130771688625114"><ele>468.0</ele><time>2026-04-28T09:10:26.986Z</time></trkpt><trkpt lat="39.65182136306218" lon="9.130804624778744"><ele>467.0</ele><time>2026-04-28T09:10:27.986Z</time></trkpt><trkpt lat="39.65169273603956" lon="9.130851273431336"><ele>466.0</ele><time>2026-04-28T09:10:28.986Z</time></trkpt><trkpt lat="39.65155837526269" lon="9.130897322254148"><ele>465.0</ele><time>2026-04-28T09:10:29.986Z</time></trkpt><trkpt lat="39.6514070977386" lon="9.130928896440071"><ele>464.0</ele><time>2026-04-28T09:10:30.986Z</time></trkpt><trkpt lat="39.651250267058956" lon="9.130968957821649"><ele>462.66666666666663</ele><time>2026-04-28T09:10:31.986Z</time></trkpt><trkpt lat="39.651104898081044" lon="9.13100925623496"><ele>461.33333333333337</ele><time>2026-04-28T09:10:32.986Z</time></trkpt><trkpt lat="39.650947338136994" lon="9.131059171946598"><ele>460.0</ele><time>2026-04-28T09:10:33.986Z</time></trkpt><trkpt lat="39.65078158687468" lon="9.131116097128203"><ele>460.0</ele><time>2026-04-28T09:10:34.986Z</time></trkpt><trkpt lat="39.65060489007293" lon="9.131172588087622"><ele>460.0</ele><time>2026-04-28T09:10:35.986Z</time></trkpt><trkpt lat="39.65043436603688" lon="9.131232913575586"><ele>460.0</ele><time>2026-04-28T09:10:36.986Z</time></trkpt><trkpt lat="39.65025828112828" lon="9.131292242049353"><ele>457.6666666666667</ele><time>2026-04-28T09:10:37.986Z</time></trkpt><trkpt lat="39.650074171214435" lon="9.131356018030036"><ele>455.33333333333337</ele><time>2026-04-28T09:10:38.986Z</time></trkpt><trkpt lat="39.64987926395069" lon="9.13142143276359"><ele>453.0</ele><time>2026-04-28T09:10:39.986Z</time></trkpt><trkpt lat="39.64968290477595" lon="9.131485781723374"><ele>453.0</ele><time>2026-04-28T09:10:40.986Z</time></trkpt><trkpt lat="39.64949394634465" lon="9.131552365051675"><ele>453.0</ele><time>2026-04-28T09:10:41.986Z</time></trkpt><trkpt lat="39.64930639949549" lon="9.131619603831112"><ele>453.0</ele><time>2026-04-28T09:10:42.986Z</time></trkpt><trkpt lat="39.64911817648556" lon="9.131682961153443"><ele>451.33333333333337</ele><time>2026-04-28T09:10:43.986Z</time></trkpt><trkpt lat="39.64892244030551" lon="9.131757375560303"><ele>449.6666666666667</ele><time>2026-04-28T09:10:44.986Z</time></trkpt><trkpt lat="39.64871384803141" lon="9.131828151841177"><ele>448.0</ele><time>2026-04-28T09:10:45.986Z</time></trkpt><trkpt lat="39.64848493808762" lon="9.131884249446287"><ele>444.5</ele><time>2026-04-28T09:10:46.986Z</time></trkpt><trkpt lat="39.648240881744115" lon="9.131919926784681"><ele>441.0</ele><time>2026-04-28T09:10:47.986Z</time></trkpt><trkpt lat="39.64800127379958" lon="9.131950618739511"><ele>439.0</ele><time>2026-04-28T09:10:48.986Z</time></trkpt><trkpt lat="39.64777426535166" lon="9.13198225063509"><ele>437.0</ele><time>2026-04-28T09:10:49.986Z</time></trkpt><trkpt lat="39.647557444787424" lon="9.132022764929014"><ele>435.0</ele><time>2026-04-28T09:10:50.986Z</time></trkpt><trkpt lat="39.647351390916725" lon="9.132114300288105"><ele>435.0</ele><time>2026-04-28T09:10:51.986Z</time></trkpt><trkpt lat="39.64716199600916" lon="9.132291270085922"><ele>435.0</ele><time>2026-04-28T09:10:52.987Z</time></trkpt><trkpt lat="39.64698382897999" lon="9.132505521992769"><ele>433.5</ele><time>2026-04-28T09:10:53.987Z</time></trkpt><trkpt lat="39.64679702584268" lon="9.132717010011008"><ele>432.0</ele><time>2026-04-28T09:10:54.987Z</time></trkpt><trkpt lat="39.64661302223679" lon="9.132908762285432"><ele>432.0</ele><time>2026-04-28T09:10:55.987Z</time></trkpt><trkpt lat="39.646445277794086" lon="9.133087056006092"><ele>432.0</ele><time>2026-04-28T09:10:56.987Z</time></trkpt><trkpt lat="39.6462833818055" lon="9.13324048243138"><ele>432.0</ele><time>2026-04-28T09:10:57.987Z</time></trkpt><trkpt lat="39.64611597854066" lon="9.133354982221048"><ele>431.0</ele><time>2026-04-28T09:10:58.987Z</time></trkpt><trkpt lat="39.64592805166283" lon="9.1334256494275"><ele>430.0</ele><time>2026-04-28T09:10:59.987Z</time></trkpt><trkpt lat="39.6457366863519" lon="9.133432663647222"><ele>429.0</ele><time>2026-04-28T09:11:00.987Z</time></trkpt><trkpt lat="39.6455507603422" lon="9.133387985082528"><ele>429.0</ele><time>2026-04-28T09:11:01.987Z</time></trkpt><trkpt lat="39.6453474452113" lon="9.133381176923217"><ele>429.0</ele><time>2026-04-28T09:11:02.986Z</time></trkpt><trkpt lat="39.645149860202984" lon="9.133442322121361"><ele>429.0</ele><time>2026-04-28T09:11:03.986Z</time></trkpt><trkpt lat="39.64496180436247" lon="9.133530340366839"><ele>429.0</ele><time>2026-04-28T09:11:04.988Z</time></trkpt><trkpt lat="39.64477866521143" lon="9.133608937140913"><ele>429.0</ele><time>2026-04-28T09:11:05.987Z</time></trkpt><trkpt lat="39.64458424626324" lon="9.133664904541376"><ele>429.0</ele><time>2026-04-28T09:11:06.987Z</time></trkpt><trkpt lat="39.644378625351706" lon="9.133706357267176"><ele>428.66666666666663</ele><time>2026-04-28T09:11:07.987Z</time></trkpt><trkpt lat="39.64416512485259" lon="9.133722972181811"><ele>428.3333333333333</ele><time>2026-04-28T09:11:08.987Z</time></trkpt><trkpt lat="39.643944124503165" lon="9.133748081072104"><ele>428.0</ele><time>2026-04-28T09:11:09.987Z</time></trkpt><trkpt lat="39.643713391684706" lon="9.133807274372293"><ele>427.0</ele><time>2026-04-28T09:11:10.987Z</time></trkpt><trkpt lat="39.64347921928546" lon="9.133905467752648"><ele>426.0</ele><time>2026-04-28T09:11:11.987Z</time></trkpt><trkpt lat="39.64323619036404" lon="9.134008310749339"><ele>428.5</ele><time>2026-04-28T09:11:12.987Z</time></trkpt><trkpt lat="39.64297020503585" lon="9.134135432606927"><ele>431.0</ele><time>2026-04-28T09:11:13.987Z</time></trkpt><trkpt lat="39.642685584920976" lon="9.134262111632488"><ele>431.0</ele><time>2026-04-28T09:11:14.987Z</time></trkpt><trkpt lat="39.642393910341234" lon="9.134393098176375"><ele>431.0</ele><time>2026-04-28T09:11:15.987Z</time></trkpt><trkpt lat="39.642102866158105" lon="9.134524438466709"><ele>430.0</ele><time>2026-04-28T09:11:16.987Z</time></trkpt><trkpt lat="39.64182026820244" lon="9.134644796544997"><ele>429.0</ele><time>2026-04-28T09:11:17.987Z</time></trkpt><trkpt lat="39.641537152956595" lon="9.134761324423877"><ele>429.0</ele><time>2026-04-28T09:11:18.987Z</time></trkpt><trkpt lat="39.641251379140826" lon="9.134886078300868"><ele>429.0</ele><time>2026-04-28T09:11:19.987Z</time></trkpt><trkpt lat="39.64096519487945" lon="9.135012710309331"><ele>429.0</ele><time>2026-04-28T09:11:20.987Z</time></trkpt><trkpt lat="39.64068100024982" lon="9.1351371046348"><ele>429.0</ele><time>2026-04-28T09:11:21.987Z</time></trkpt><trkpt lat="39.64039636034148" lon="9.135265668273265"><ele>427.0</ele><time>2026-04-28T09:11:22.987Z</time></trkpt><trkpt lat="39.64010313922372" lon="9.135398561125104"><ele>425.0</ele><time>2026-04-28T09:11:23.987Z</time></trkpt><trkpt lat="39.639805044841324" lon="9.135523796546341"><ele>425.0</ele><time>2026-04-28T09:11:24.987Z</time></trkpt><trkpt lat="39.63951220667496" lon="9.13565052111089"><ele>425.0</ele><time>2026-04-28T09:11:25.987Z</time></trkpt><trkpt lat="39.639221747020564" lon="9.135785026693927"><ele>422.5</ele><time>2026-04-28T09:11:26.987Z</time></trkpt><trkpt lat="39.6389334964792" lon="9.135911688671783"><ele>420.0</ele><time>2026-04-28T09:11:27.987Z</time></trkpt><trkpt lat="39.63864709637309" lon="9.136040668514536"><ele>417.5</ele><time>2026-04-28T09:11:28.987Z</time></trkpt><trkpt lat="39.63835946085268" lon="9.13617297240193"><ele>415.0</ele><time>2026-04-28T09:11:29.987Z</time></trkpt><trkpt lat="39.63807234659604" lon="9.136298463670053"><ele>413.0</ele><time>2026-04-28T09:11:30.987Z</time></trkpt><trkpt lat="39.637789289368214" lon="9.13642954699884"><ele>411.0</ele><time>2026-04-28T09:11:31.987Z</time></trkpt><trkpt lat="39.63750474009388" lon="9.136553503937877"><ele>410.5</ele><time>2026-04-28T09:11:32.987Z</time></trkpt><trkpt lat="39.63722139232461" lon="9.136674807486257"><ele>410.0</ele><time>2026-04-28T09:11:33.987Z</time></trkpt><trkpt lat="39.636938720544585" lon="9.136801478349149"><ele>407.5</ele><time>2026-04-28T09:11:34.987Z</time></trkpt><trkpt lat="39.63665830755016" lon="9.136928416762094"><ele>405.0</ele><time>2026-04-28T09:11:35.987Z</time></trkpt><trkpt lat="39.636378544161445" lon="9.13705692028076"><ele>404.0</ele><time>2026-04-28T09:11:36.986Z</time></trkpt><trkpt lat="39.6360952065006" lon="9.137183134052579"><ele>403.0</ele><time>2026-04-28T09:11:37.986Z</time></trkpt><trkpt lat="39.635817748247206" lon="9.137309011016624"><ele>402.0</ele><time>2026-04-28T09:11:38.986Z</time></trkpt><trkpt lat="39.63553594661122" lon="9.137435208617129"><ele>401.0</ele><time>2026-04-28T09:11:39.986Z</time></trkpt><trkpt lat="39.63525167097717" lon="9.137559804788884"><ele>400.0</ele><time>2026-04-28T09:11:40.986Z</time></trkpt><trkpt lat="39.63496777005954" lon="9.137689531039726"><ele>399.0</ele><time>2026-04-28T09:11:41.986Z</time></trkpt><trkpt lat="39.63468404725468" lon="9.137819119269414"><ele>398.5</ele><time>2026-04-28T09:11:42.986Z</time></trkpt><trkpt lat="39.634408500247545" lon="9.1379409626992"><ele>398.0</ele><time>2026-04-28T09:11:43.986Z</time></trkpt><trkpt lat="39.6341416546569" lon="9.138058025252809"><ele>398.0</ele><time>2026-04-28T09:11:44.986Z</time></trkpt><trkpt lat="39.63388798410535" lon="9.138156881488145"><ele>398.0</ele><time>2026-04-28T09:11:45.986Z</time></trkpt><trkpt lat="39.63363926770647" lon="9.138219786171598"><ele>396.0</ele><time>2026-04-28T09:11:46.986Z</time></trkpt><trkpt lat="39.63339169514572" lon="9.138263041969822"><ele>394.0</ele><time>2026-04-28T09:11:47.986Z</time></trkpt><trkpt lat="39.63312739389347" lon="9.138316535210782"><ele>394.0</ele><time>2026-04-28T09:11:48.986Z</time></trkpt><trkpt lat="39.63285132988966" lon="9.138367587151873"><ele>394.0</ele><time>2026-04-28T09:11:49.986Z</time></trkpt><trkpt lat="39.63256252304255" lon="9.138408947794511"><ele>392.5</ele><time>2026-04-28T09:11:50.986Z</time></trkpt><trkpt lat="39.632278942058534" lon="9.138496538532337"><ele>391.0</ele><time>2026-04-28T09:11:51.986Z</time></trkpt><trkpt lat="39.63200620418826" lon="9.138633294652818"><ele>389.5</ele><time>2026-04-28T09:11:52.986Z</time></trkpt><trkpt lat="39.63174381362541" lon="9.138785404385157"><ele>388.0</ele><time>2026-04-28T09:11:53.986Z</time></trkpt><trkpt lat="39.6314748640242" lon="9.138902220008443"><ele>388.0</ele><time>2026-04-28T09:11:54.986Z</time></trkpt><trkpt lat="39.63119067999975" lon="9.138971851737528"><ele>388.0</ele><time>2026-04-28T09:11:55.986Z</time></trkpt><trkpt lat="39.63089842041462" lon="9.139027695681643"><ele>387.5</ele><time>2026-04-28T09:11:56.986Z</time></trkpt><trkpt lat="39.63061999486631" lon="9.139073971991875"><ele>387.0</ele><time>2026-04-28T09:11:57.986Z</time></trkpt><trkpt lat="39.63036697862469" lon="9.139093236301965"><ele>386.33333333333337</ele><time>2026-04-28T09:11:58.986Z</time></trkpt><trkpt lat="39.63015664331009" lon="9.139086788053577"><ele>385.6666666666667</ele><time>2026-04-28T09:11:59.986Z</time></trkpt><trkpt lat="39.62999208312091" lon="9.139092251647313"><ele>385.0</ele><time>2026-04-28T09:12:00.986Z</time></trkpt><trkpt lat="39.629876128681325" lon="9.139192839513386"><ele>385.0</ele><time>2026-04-28T09:12:01.986Z</time></trkpt><trkpt lat="39.629779663951076" lon="9.1393548871112"><ele>385.0</ele><time>2026-04-28T09:12:02.986Z</time></trkpt><trkpt lat="39.629693746886005" lon="9.13954370080548"><ele>385.0</ele><time>2026-04-28T09:12:03.986Z</time></trkpt><trkpt lat="39.62958968049342" lon="9.13967562564943"><ele>385.25</ele><time>2026-04-28T09:12:04.986Z</time></trkpt><trkpt lat="39.629466111435896" lon="9.139731106718337"><ele>385.5</ele><time>2026-04-28T09:12:05.986Z</time></trkpt><trkpt lat="39.6293320928668" lon="9.139697557986176"><ele>385.75</ele><time>2026-04-28T09:12:06.986Z</time></trkpt><trkpt lat="39.629196087479244" lon="9.139573027799889"><ele>386.0</ele><time>2026-04-28T09:12:07.986Z</time></trkpt><trkpt lat="39.62907937919599" lon="9.139407215470884"><ele>386.0</ele><time>2026-04-28T09:12:08.986Z</time></trkpt><trkpt lat="39.62897165320957" lon="9.13919116306578"><ele>386.0</ele><time>2026-04-28T09:12:09.986Z</time></trkpt><trkpt lat="39.62884551579862" lon="9.13898058803428"><ele>386.0</ele><time>2026-04-28T09:12:10.986Z</time></trkpt><trkpt lat="39.62869666919618" lon="9.138784345480587"><ele>385.66666666666663</ele><time>2026-04-28T09:12:11.986Z</time></trkpt><trkpt lat="39.62854562602693" lon="9.13862870852438"><ele>385.33333333333337</ele><time>2026-04-28T09:12:12.986Z</time></trkpt><trkpt lat="39.62837663164955" lon="9.13851466380026"><ele>385.0</ele><time>2026-04-28T09:12:13.986Z</time></trkpt><trkpt lat="39.628181954342786" lon="9.138465721308417"><ele>385.0</ele><time>2026-04-28T09:12:14.986Z</time></trkpt><trkpt lat="39.62799475462003" lon="9.138448780713121"><ele>385.0</ele><time>2026-04-28T09:12:15.986Z</time></trkpt><trkpt lat="39.627827527725366" lon="9.138503037639827"><ele>385.0</ele><time>2026-04-28T09:12:16.986Z</time></trkpt><trkpt lat="39.62767823899632" lon="9.138617844422576"><ele>385.0</ele><time>2026-04-28T09:12:17.986Z</time></trkpt><trkpt lat="39.62753610058699" lon="9.138787010157445"><ele>385.0</ele><time>2026-04-28T09:12:18.986Z</time></trkpt><trkpt lat="39.62740129189474" lon="9.138988965618987"><ele>385.0</ele><time>2026-04-28T09:12:19.986Z</time></trkpt><trkpt lat="39.62727739271453" lon="9.139208278327176"><ele>388.33333333333337</ele><time>2026-04-28T09:12:20.986Z</time></trkpt><trkpt lat="39.627174864705815" lon="9.139444961286145"><ele>391.66666666666663</ele><time>2026-04-28T09:12:21.986Z</time></trkpt><trkpt lat="39.62710683412071" lon="9.139678300234566"><ele>395.0</ele><time>2026-04-28T09:12:22.986Z</time></trkpt><trkpt lat="39.62705617170819" lon="9.1398958243621"><ele>395.75</ele><time>2026-04-28T09:12:23.986Z</time></trkpt><trkpt lat="39.62700876700129" lon="9.1400580864169"><ele>396.5</ele><time>2026-04-28T09:12:24.986Z</time></trkpt><trkpt lat="39.62692195619855" lon="9.140168088228506"><ele>397.25</ele><time>2026-04-28T09:12:25.986Z</time></trkpt><trkpt lat="39.626809787632546" lon="9.140224137058352"><ele>398.0</ele><time>2026-04-28T09:12:26.986Z</time></trkpt><trkpt lat="39.626696493420106" lon="9.140224756573906"><ele>398.0</ele><time>2026-04-28T09:12:27.986Z</time></trkpt><trkpt lat="39.62657694470638" lon="9.140160464657777"><ele>398.0</ele><time>2026-04-28T09:12:28.986Z</time></trkpt><trkpt lat="39.62646491525665" lon="9.140038936730127"><ele>398.0</ele><time>2026-04-28T09:12:29.986Z</time></trkpt><trkpt lat="39.62635795600166" lon="9.139891070169256"><ele>398.0</ele><time>2026-04-28T09:12:30.986Z</time></trkpt><trkpt lat="39.6262601109746" lon="9.139725326045033"><ele>395.66666666666663</ele><time>2026-04-28T09:12:31.986Z</time></trkpt><trkpt lat="39.62617680205593" lon="9.139537918642331"><ele>393.33333333333337</ele><time>2026-04-28T09:12:32.986Z</time></trkpt><trkpt lat="39.626109137765674" lon="9.139325790070146"><ele>391.0</ele><time>2026-04-28T09:12:33.986Z</time></trkpt><trkpt lat="39.62604170526147" lon="9.139100584830198"><ele>392.0</ele><time>2026-04-28T09:12:34.986Z</time></trkpt><trkpt lat="39.62597064279011" lon="9.138892524766709"><ele>393.0</ele><time>2026-04-28T09:12:35.986Z</time></trkpt><trkpt lat="39.62587898833885" lon="9.138726020808358"><ele>394.0</ele><time>2026-04-28T09:12:36.986Z</time></trkpt><trkpt lat="39.625754816794704" lon="9.138642076565263"><ele>394.0</ele><time>2026-04-28T09:12:37.986Z</time></trkpt><trkpt lat="39.625617488637076" lon="9.138628644582237"><ele>394.0</ele><time>2026-04-28T09:12:38.986Z</time></trkpt><trkpt lat="39.62547575262897" lon="9.138703698364452"><ele>394.0</ele><time>2026-04-28T09:12:39.986Z</time></trkpt><trkpt lat="39.62534839757339" lon="9.138840988814097"><ele>393.33333333333337</ele><time>2026-04-28T09:12:40.986Z</time></trkpt><trkpt lat="39.62522631702132" lon="9.138999593459344"><ele>392.66666666666663</ele><time>2026-04-28T09:12:41.986Z</time></trkpt><trkpt lat="39.625092178130075" lon="9.139141750758576"><ele>392.0</ele><time>2026-04-28T09:12:42.986Z</time></trkpt><trkpt lat="39.62494133266306" lon="9.139223537088725"><ele>396.66666666666663</ele><time>2026-04-28T09:12:43.985Z</time></trkpt><trkpt lat="39.624773415921084" lon="9.139239080450196"><ele>401.33333333333337</ele><time>2026-04-28T09:12:44.985Z</time></trkpt><trkpt lat="39.6246024657882" lon="9.139234284678595"><ele>406.0</ele><time>2026-04-28T09:12:45.985Z</time></trkpt><trkpt lat="39.62445075247332" lon="9.139221526150383"><ele>405.0</ele><time>2026-04-28T09:12:46.985Z</time></trkpt><trkpt lat="39.62432723475097" lon="9.139172325601788"><ele>404.0</ele><time>2026-04-28T09:12:47.985Z</time></trkpt><trkpt lat="39.624227983845124" lon="9.139053484919442"><ele>403.0</ele><time>2026-04-28T09:12:48.985Z</time></trkpt><trkpt lat="39.62416581194304" lon="9.138867454234552"><ele>402.0</ele><time>2026-04-28T09:12:49.985Z</time></trkpt><trkpt lat="39.624124070261956" lon="9.138641376180303"><ele>402.0</ele><time>2026-04-28T09:12:50.985Z</time></trkpt><trkpt lat="39.624047413290484" lon="9.138426667962388"><ele>402.0</ele><time>2026-04-28T09:12:51.985Z</time></trkpt><trkpt lat="39.62391439720831" lon="9.138237619193434"><ele>402.0</ele><time>2026-04-28T09:12:52.985Z</time></trkpt><trkpt lat="39.6237459138085" lon="9.138080291077529"><ele>402.66666666666663</ele><time>2026-04-28T09:12:53.985Z</time></trkpt><trkpt lat="39.62356490978509" lon="9.137947170046889"><ele>403.3333333333333</ele><time>2026-04-28T09:12:54.985Z</time></trkpt><trkpt lat="39.62336995677607" lon="9.137854667800068"><ele>404.0</ele><time>2026-04-28T09:12:55.985Z</time></trkpt><trkpt lat="39.62316439667012" lon="9.137804835656771"><ele>404.0</ele><time>2026-04-28T09:12:56.985Z</time></trkpt><trkpt lat="39.622965195648355" lon="9.137796285029086"><ele>404.0</ele><time>2026-04-28T09:12:57.985Z</time></trkpt><trkpt lat="39.62275617685693" lon="9.137848638694518"><ele>404.0</ele><time>2026-04-28T09:12:58.986Z</time></trkpt><trkpt lat="39.6225467750763" lon="9.137898555150738"><ele>404.0</ele><time>2026-04-28T09:12:59.987Z</time></trkpt><trkpt lat="39.622330905059464" lon="9.137913273408541"><ele>404.0</ele><time>2026-04-28T09:13:00.987Z</time></trkpt><trkpt lat="39.62212110336905" lon="9.13789542556382"><ele>404.0</ele><time>2026-04-28T09:13:01.987Z</time></trkpt><trkpt lat="39.62190516233513" lon="9.137866332867665"><ele>405.3333333333333</ele><time>2026-04-28T09:13:02.987Z</time></trkpt><trkpt lat="39.6217055137752" lon="9.137829824928268"><ele>406.66666666666663</ele><time>2026-04-28T09:13:03.987Z</time></trkpt><trkpt lat="39.62152314616017" lon="9.137826492636298"><ele>408.0</ele><time>2026-04-28T09:13:04.987Z</time></trkpt><trkpt lat="39.62134287027586" lon="9.13788020327269"><ele>408.0</ele><time>2026-04-28T09:13:05.987Z</time></trkpt><trkpt lat="39.621162634869854" lon="9.138001043254613"><ele>408.0</ele><time>2026-04-28T09:13:06.987Z</time></trkpt><trkpt lat="39.621001734533735" lon="9.138176093002683"><ele>408.0</ele><time>2026-04-28T09:13:07.986Z</time></trkpt><trkpt lat="39.620850996128205" lon="9.138373989788294"><ele>408.66666666666663</ele><time>2026-04-28T09:13:08.987Z</time></trkpt><trkpt lat="39.62069683437549" lon="9.13854638846911"><ele>409.3333333333333</ele><time>2026-04-28T09:13:09.987Z</time></trkpt><trkpt lat="39.62055455228633" lon="9.138696118778817"><ele>410.0</ele><time>2026-04-28T09:13:10.986Z</time></trkpt><trkpt lat="39.62042938503447" lon="9.138840416996977"><ele>410.5</ele><time>2026-04-28T09:13:11.986Z</time></trkpt><trkpt lat="39.62030224800621" lon="9.138960491011701"><ele>411.0</ele><time>2026-04-28T09:13:12.986Z</time></trkpt><trkpt lat="39.62018923721877" lon="9.139074753526552"><ele>411.5</ele><time>2026-04-28T09:13:13.986Z</time></trkpt><trkpt lat="39.620088635415534" lon="9.139179607798146"><ele>412.0</ele><time>2026-04-28T09:13:14.986Z</time></trkpt><trkpt lat="39.61999593670648" lon="9.139272333140271"><ele>412.0</ele><time>2026-04-28T09:13:15.986Z</time></trkpt><trkpt lat="39.61990630096819" lon="9.139346023098467"><ele>412.0</ele><time>2026-04-28T09:13:16.986Z</time></trkpt><trkpt lat="39.61982545897899" lon="9.139402847027633"><ele>412.0</ele><time>2026-04-28T09:13:17.986Z</time></trkpt><trkpt lat="39.61975866833058" lon="9.139447427119377"><ele>412.0</ele><time>2026-04-28T09:13:18.986Z</time></trkpt><trkpt lat="39.619669668852936" lon="9.13948945154613"><ele>412.0</ele><time>2026-04-28T09:13:20.986Z</time></trkpt><trkpt lat="39.619580429633196" lon="9.139526828521301"><ele>412.0</ele><time>2026-04-28T09:13:34.986Z</time></trkpt><trkpt lat="39.61951493910277" lon="9.139543121113514"><ele>412.0</ele><time>2026-04-28T09:13:35.986Z</time></trkpt><trkpt lat="39.619432452339844" lon="9.1395629665617"><ele>412.0</ele><time>2026-04-28T09:13:36.986Z</time></trkpt><trkpt lat="39.619326625718436" lon="9.139582828407388"><ele>412.0</ele><time>2026-04-28T09:13:37.986Z</time></trkpt><trkpt lat="39.6192051059171" lon="9.139591022051425"><ele>412.0</ele><time>2026-04-28T09:13:38.986Z</time></trkpt><trkpt lat="39.61908677050838" lon="9.139593337218596"><ele>411.6666666666667</ele><time>2026-04-28T09:13:39.986Z</time></trkpt><trkpt lat="39.618955204205676" lon="9.139593327458284"><ele>411.33333333333337</ele><time>2026-04-28T09:13:40.986Z</time></trkpt><trkpt lat="39.618804580275636" lon="9.13959039023727"><ele>411.0</ele><time>2026-04-28T09:13:41.986Z</time></trkpt><trkpt lat="39.61863660610285" lon="9.139588202199924"><ele>410.66666666666663</ele><time>2026-04-28T09:13:42.985Z</time></trkpt><trkpt lat="39.61846774158636" lon="9.139583622049798"><ele>410.3333333333333</ele><time>2026-04-28T09:13:43.985Z</time></trkpt><trkpt lat="39.61829009354923" lon="9.139578874472301"><ele>410.0</ele><time>2026-04-28T09:13:44.985Z</time></trkpt><trkpt lat="39.618095571468196" lon="9.139576513748334"><ele>410.0</ele><time>2026-04-28T09:13:45.985Z</time></trkpt><trkpt lat="39.61789190008901" lon="9.13956262904579"><ele>410.0</ele><time>2026-04-28T09:13:46.985Z</time></trkpt><trkpt lat="39.617684835782065" lon="9.139513700882883"><ele>410.0</ele><time>2026-04-28T09:13:47.985Z</time></trkpt><trkpt lat="39.61747579993419" lon="9.139421885694082"><ele>410.0</ele><time>2026-04-28T09:13:48.985Z</time></trkpt><trkpt lat="39.617265395817505" lon="9.139304764915432"><ele>410.0</ele><time>2026-04-28T09:13:49.985Z</time></trkpt><trkpt lat="39.6170510423143" lon="9.139176226712102"><ele>406.5</ele><time>2026-04-28T09:13:50.985Z</time></trkpt><trkpt lat="39.61683532549218" lon="9.139046340916828"><ele>403.0</ele><time>2026-04-28T09:13:51.985Z</time></trkpt><trkpt lat="39.61660512716518" lon="9.138922905167396"><ele>403.0</ele><time>2026-04-28T09:13:52.985Z</time></trkpt><trkpt lat="39.61637255147091" lon="9.138791375160585"><ele>403.0</ele><time>2026-04-28T09:13:53.985Z</time></trkpt><trkpt lat="39.616139199724714" lon="9.138656738384324"><ele>403.5</ele><time>2026-04-28T09:13:54.985Z</time></trkpt><trkpt lat="39.61590097646949" lon="9.138531927186515"><ele>404.0</ele><time>2026-04-28T09:13:55.985Z</time></trkpt><trkpt lat="39.615660523483484" lon="9.138416080794846"><ele>404.0</ele><time>2026-04-28T09:13:56.985Z</time></trkpt><trkpt lat="39.615424313909365" lon="9.138313868685161"><ele>404.0</ele><time>2026-04-28T09:13:57.985Z</time></trkpt><trkpt lat="39.61517593740495" lon="9.13825385379153"><ele>404.0</ele><time>2026-04-28T09:13:58.985Z</time></trkpt><trkpt lat="39.61491655713858" lon="9.13826408165609"><ele>404.0</ele><time>2026-04-28T09:13:59.985Z</time></trkpt><trkpt lat="39.6146501194104" lon="9.138298232298538"><ele>402.5</ele><time>2026-04-28T09:14:00.985Z</time></trkpt><trkpt lat="39.614379807584186" lon="9.138322991881685"><ele>401.0</ele><time>2026-04-28T09:14:01.985Z</time></trkpt><trkpt lat="39.61410603242686" lon="9.138335807655306"><ele>401.0</ele><time>2026-04-28T09:14:02.985Z</time></trkpt><trkpt lat="39.61383364074208" lon="9.138351688583764"><ele>401.0</ele><time>2026-04-28T09:14:03.985Z</time></trkpt><trkpt lat="39.61356057808575" lon="9.138365367254565"><ele>401.0</ele><time>2026-04-28T09:14:04.985Z</time></trkpt><trkpt lat="39.61329451795802" lon="9.13838351312471"><ele>401.0</ele><time>2026-04-28T09:14:05.985Z</time></trkpt><trkpt lat="39.6130272403664" lon="9.138396671418551"><ele>399.5</ele><time>2026-04-28T09:14:06.985Z</time></trkpt><trkpt lat="39.61275942546692" lon="9.138378330530136"><ele>398.0</ele><time>2026-04-28T09:14:07.985Z</time></trkpt><trkpt lat="39.61249225875664" lon="9.138328539865698"><ele>398.0</ele><time>2026-04-28T09:14:08.985Z</time></trkpt><trkpt lat="39.6122191237729" lon="9.13825750738186"><ele>398.0</ele><time>2026-04-28T09:14:09.985Z</time></trkpt><trkpt lat="39.61194739093516" lon="9.138172406282116"><ele>397.0</ele><time>2026-04-28T09:14:10.985Z</time></trkpt><trkpt lat="39.61167921471874" lon="9.138076782003969"><ele>396.0</ele><time>2026-04-28T09:14:11.985Z</time></trkpt><trkpt lat="39.61140568002097" lon="9.137984590143281"><ele>393.5</ele><time>2026-04-28T09:14:12.985Z</time></trkpt><trkpt lat="39.6111312933514" lon="9.137903991064508"><ele>391.0</ele><time>2026-04-28T09:14:13.985Z</time></trkpt><trkpt lat="39.610848993495566" lon="9.137833578935775"><ele>391.0</ele><time>2026-04-28T09:14:14.985Z</time></trkpt><trkpt lat="39.61056429157062" lon="9.137784939019479"><ele>391.0</ele><time>2026-04-28T09:14:15.985Z</time></trkpt><trkpt lat="39.61027691986971" lon="9.137760649266548"><ele>390.0</ele><time>2026-04-28T09:14:16.985Z</time></trkpt><trkpt lat="39.60999003635435" lon="9.137742994354289"><ele>389.0</ele><time>2026-04-28T09:14:17.985Z</time></trkpt><trkpt lat="39.60969980032512" lon="9.137716646731976"><ele>387.5</ele><time>2026-04-28T09:14:18.985Z</time></trkpt><trkpt lat="39.609418216861535" lon="9.137693371347837"><ele>386.0</ele><time>2026-04-28T09:14:19.985Z</time></trkpt><trkpt lat="39.60914398090895" lon="9.137668500951987"><ele>386.0</ele><time>2026-04-28T09:14:20.985Z</time></trkpt><trkpt lat="39.60888228433276" lon="9.13764838601333"><ele>386.0</ele><time>2026-04-28T09:14:21.985Z</time></trkpt><trkpt lat="39.608634222535166" lon="9.137630477336211"><ele>385.0</ele><time>2026-04-28T09:14:22.985Z</time></trkpt><trkpt lat="39.60840130688651" lon="9.137606169925592"><ele>384.0</ele><time>2026-04-28T09:14:23.985Z</time></trkpt><trkpt lat="39.60819995867775" lon="9.137560299874483"><ele>383.0</ele><time>2026-04-28T09:14:24.985Z</time></trkpt><trkpt lat="39.60802501081106" lon="9.137460775839259"><ele>382.6666666666667</ele><time>2026-04-28T09:14:25.985Z</time></trkpt><trkpt lat="39.60787850110707" lon="9.137299929681236"><ele>382.3333333333333</ele><time>2026-04-28T09:14:26.985Z</time></trkpt><trkpt lat="39.60776279710266" lon="9.137096116209008"><ele>382.0</ele><time>2026-04-28T09:14:27.985Z</time></trkpt><trkpt lat="39.60766267961613" lon="9.136905015827224"><ele>381.75</ele><time>2026-04-28T09:14:28.985Z</time></trkpt><trkpt lat="39.607567171439904" lon="9.13674318291572"><ele>381.5</ele><time>2026-04-28T09:14:29.985Z</time></trkpt><trkpt lat="39.607478273487104" lon="9.136607843023015"><ele>381.25</ele><time>2026-04-28T09:14:30.985Z</time></trkpt><trkpt lat="39.607411998454516" lon="9.13648763861921"><ele>381.0</ele><time>2026-04-28T09:14:31.985Z</time></trkpt><trkpt lat="39.6073691567694" lon="9.136373779487696"><ele>380.0</ele><time>2026-04-28T09:14:32.985Z</time></trkpt><trkpt lat="39.607342724928344" lon="9.136255815190989"><ele>379.0</ele><time>2026-04-28T09:14:33.985Z</time></trkpt><trkpt lat="39.60731388653142" lon="9.136119735057601"><ele>378.0</ele><time>2026-04-28T09:14:34.985Z</time></trkpt><trkpt lat="39.60725092047371" lon="9.13598100515474"><ele>377.0</ele><time>2026-04-28T09:14:35.985Z</time></trkpt><trkpt lat="39.60715504160048" lon="9.135856236879597"><ele>377.0</ele><time>2026-04-28T09:14:36.985Z</time></trkpt><trkpt lat="39.60703513896428" lon="9.135736836948404"><ele>377.0</ele><time>2026-04-28T09:14:37.985Z</time></trkpt><trkpt lat="39.606894643040796" lon="9.135614291274782"><ele>377.0</ele><time>2026-04-28T09:14:38.985Z</time></trkpt><trkpt lat="39.606732984156054" lon="9.135480313894151"><ele>376.0</ele><time>2026-04-28T09:14:39.985Z</time></trkpt><trkpt lat="39.60656357374509" lon="9.135337636822781"><ele>375.0</ele><time>2026-04-28T09:14:40.985Z</time></trkpt><trkpt lat="39.60639736783392" lon="9.135190355044186"><ele>374.0</ele><time>2026-04-28T09:14:41.985Z</time></trkpt><trkpt lat="39.606214345475664" lon="9.135035317613724"><ele>374.0</ele><time>2026-04-28T09:14:42.985Z</time></trkpt><trkpt lat="39.60602499508256" lon="9.134878754881539"><ele>374.0</ele><time>2026-04-28T09:14:43.985Z</time></trkpt><trkpt lat="39.60583186824224" lon="9.134708150419982"><ele>374.0</ele><time>2026-04-28T09:14:44.985Z</time></trkpt><trkpt lat="39.605642067080844" lon="9.134540129987927"><ele>374.0</ele><time>2026-04-28T09:14:45.985Z</time></trkpt><trkpt lat="39.60543875498369" lon="9.13437192134437"><ele>374.0</ele><time>2026-04-28T09:14:46.985Z</time></trkpt><trkpt lat="39.60522777762241" lon="9.134193079339672"><ele>374.0</ele><time>2026-04-28T09:14:47.985Z</time></trkpt><trkpt lat="39.60501737404293" lon="9.134011426699415"><ele>373.0</ele><time>2026-04-28T09:14:48.984Z</time></trkpt><trkpt lat="39.60480840377337" lon="9.133834580016948"><ele>372.0</ele><time>2026-04-28T09:14:49.984Z</time></trkpt><trkpt lat="39.60459110020425" lon="9.133658778092796"><ele>373.0</ele><time>2026-04-28T09:14:50.984Z</time></trkpt><trkpt lat="39.60437243912271" lon="9.133476936756338"><ele>374.0</ele><time>2026-04-28T09:14:51.984Z</time></trkpt><trkpt lat="39.60415124909842" lon="9.133293155385"><ele>373.5</ele><time>2026-04-28T09:14:52.984Z</time></trkpt><trkpt lat="39.60392777718355" lon="9.133105396861767"><ele>373.0</ele><time>2026-04-28T09:14:53.984Z</time></trkpt><trkpt lat="39.603701317241224" lon="9.132912154060215"><ele>373.5</ele><time>2026-04-28T09:14:54.984Z</time></trkpt><trkpt lat="39.603487782331065" lon="9.132723021482109"><ele>374.0</ele><time>2026-04-28T09:14:55.984Z</time></trkpt><trkpt lat="39.603268177249205" lon="9.13254261359629"><ele>374.5</ele><time>2026-04-28T09:14:56.984Z</time></trkpt><trkpt lat="39.60304908365457" lon="9.132364421581771"><ele>375.0</ele><time>2026-04-28T09:14:57.984Z</time></trkpt><trkpt lat="39.60282931453953" lon="9.132180430747512"><ele>375.0</ele><time>2026-04-28T09:14:58.984Z</time></trkpt><trkpt lat="39.60260977083869" lon="9.131991690965181"><ele>375.0</ele><time>2026-04-28T09:14:59.984Z</time></trkpt><trkpt lat="39.60238976138697" lon="9.131802244694882"><ele>375.0</ele><time>2026-04-28T09:15:00.984Z</time></trkpt><trkpt lat="39.602164738071956" lon="9.131607585470457"><ele>375.0</ele><time>2026-04-28T09:15:01.984Z</time></trkpt><trkpt lat="39.601937154349464" lon="9.131412820776209"><ele>375.0</ele><time>2026-04-28T09:15:02.984Z</time></trkpt><trkpt lat="39.60170633394675" lon="9.13121583372527"><ele>375.0</ele><time>2026-04-28T09:15:03.984Z</time></trkpt><trkpt lat="39.60147474501925" lon="9.13102331007253"><ele>375.0</ele><time>2026-04-28T09:15:04.987Z</time></trkpt><trkpt lat="39.60123978435371" lon="9.13083356118065"><ele>375.0</ele><time>2026-04-28T09:15:05.985Z</time></trkpt><trkpt lat="39.60100109029932" lon="9.130645053432024"><ele>375.0</ele><time>2026-04-28T09:15:06.985Z</time></trkpt><trkpt lat="39.600758428058526" lon="9.13045739359263"><ele>375.0</ele><time>2026-04-28T09:15:07.986Z</time></trkpt><trkpt lat="39.60051491359825" lon="9.130272301892694"><ele>375.0</ele><time>2026-04-28T09:15:08.986Z</time></trkpt><trkpt lat="39.600270357505416" lon="9.130084902473309"><ele>375.0</ele><time>2026-04-28T09:15:09.986Z</time></trkpt><trkpt lat="39.60002620318394" lon="9.129891970866652"><ele>375.5</ele><time>2026-04-28T09:15:10.986Z</time></trkpt><trkpt lat="39.599784979186055" lon="9.12969838275467"><ele>376.0</ele><time>2026-04-28T09:15:11.986Z</time></trkpt><trkpt lat="39.59954109135787" lon="9.129505226930128"><ele>374.5</ele><time>2026-04-28T09:15:12.986Z</time></trkpt><trkpt lat="39.599293377602535" lon="9.129319899010767"><ele>373.0</ele><time>2026-04-28T09:15:13.986Z</time></trkpt><trkpt lat="39.599048911670984" lon="9.129129358319942"><ele>374.5</ele><time>2026-04-28T09:15:14.985Z</time></trkpt><trkpt lat="39.59880989723817" lon="9.128954454698665"><ele>376.0</ele><time>2026-04-28T09:15:15.985Z</time></trkpt><trkpt lat="39.598552957039445" lon="9.1288204927618"><ele>376.5</ele><time>2026-04-28T09:15:16.986Z</time></trkpt><trkpt lat="39.59828742578381" lon="9.128741097859617"><ele>377.0</ele><time>2026-04-28T09:15:17.986Z</time></trkpt><trkpt lat="39.598015319957604" lon="9.128701273651991"><ele>375.5</ele><time>2026-04-28T09:15:18.986Z</time></trkpt><trkpt lat="39.59773776853867" lon="9.128681652843438"><ele>374.0</ele><time>2026-04-28T09:15:19.986Z</time></trkpt><trkpt lat="39.597454840727686" lon="9.128664908658665"><ele>374.0</ele><time>2026-04-28T09:15:20.986Z</time></trkpt><trkpt lat="39.59717758709868" lon="9.128647211226523"><ele>374.0</ele><time>2026-04-28T09:15:21.986Z</time></trkpt><trkpt lat="39.59690336833009" lon="9.128631002765973"><ele>372.5</ele><time>2026-04-28T09:15:22.986Z</time></trkpt><trkpt lat="39.59663080647536" lon="9.128605996559811"><ele>371.0</ele><time>2026-04-28T09:15:23.986Z</time></trkpt><trkpt lat="39.59636322551128" lon="9.128562402169845"><ele>370.5</ele><time>2026-04-28T09:15:24.986Z</time></trkpt><trkpt lat="39.59610742567231" lon="9.128504298382277"><ele>370.0</ele><time>2026-04-28T09:15:25.986Z</time></trkpt><trkpt lat="39.59587320778962" lon="9.128449978828439"><ele>370.0</ele><time>2026-04-28T09:15:26.986Z</time></trkpt><trkpt lat="39.595650160164375" lon="9.128413436129753"><ele>370.0</ele><time>2026-04-28T09:15:27.986Z</time></trkpt><trkpt lat="39.59545254880398" lon="9.128407337964857"><ele>370.0</ele><time>2026-04-28T09:15:28.986Z</time></trkpt><trkpt lat="39.59527807558078" lon="9.128411034709316"><ele>369.5</ele><time>2026-04-28T09:15:29.986Z</time></trkpt><trkpt lat="39.59512884798643" lon="9.128415441506073"><ele>369.0</ele><time>2026-04-28T09:15:30.986Z</time></trkpt><trkpt lat="39.595011275506" lon="9.128417844464588"><ele>368.5</ele><time>2026-04-28T09:15:31.986Z</time></trkpt><trkpt lat="39.594903803565714" lon="9.128397268360152"><ele>368.0</ele><time>2026-04-28T09:15:32.986Z</time></trkpt><trkpt lat="39.59481192288669" lon="9.128324650693155"><ele>368.0</ele><time>2026-04-28T09:15:33.986Z</time></trkpt><trkpt lat="39.59470825673188" lon="9.128230572050773"><ele>368.0</ele><time>2026-04-28T09:15:34.986Z</time></trkpt><trkpt lat="39.59458105989203" lon="9.128176925712566"><ele>368.0</ele><time>2026-04-28T09:15:35.986Z</time></trkpt><trkpt lat="39.59444172504806" lon="9.128171211664927"><ele>368.0</ele><time>2026-04-28T09:15:36.986Z</time></trkpt><trkpt lat="39.59429488237272" lon="9.128166293561383"><ele>368.5</ele><time>2026-04-28T09:15:37.986Z</time></trkpt><trkpt lat="39.594005921944444" lon="9.128035477771707"><ele>369.0</ele><time>2026-04-28T09:15:39.986Z</time></trkpt><trkpt lat="39.59385851209407" lon="9.127961795615322"><ele>369.0</ele><time>2026-04-28T09:15:40.985Z</time></trkpt><trkpt lat="39.59370580648832" lon="9.127895615442728"><ele>369.0</ele><time>2026-04-28T09:15:41.985Z</time></trkpt><trkpt lat="39.593560473403166" lon="9.127850082577316"><ele>369.0</ele><time>2026-04-28T09:15:42.985Z</time></trkpt><trkpt lat="39.59341390148308" lon="9.127829435229128"><ele>366.6666666666667</ele><time>2026-04-28T09:15:43.985Z</time></trkpt><trkpt lat="39.59327227532747" lon="9.127824288880321"><ele>364.33333333333337</ele><time>2026-04-28T09:15:44.985Z</time></trkpt><trkpt lat="39.59312378101266" lon="9.127819824919198"><ele>362.0</ele><time>2026-04-28T09:15:45.985Z</time></trkpt><trkpt lat="39.59293187519718" lon="9.127830841678966"><ele>358.33333333333337</ele><time>2026-04-28T09:15:46.985Z</time></trkpt><trkpt lat="39.59271666091931" lon="9.127841646677174"><ele>354.6666666666667</ele><time>2026-04-28T09:15:47.985Z</time></trkpt><trkpt lat="39.59248490713518" lon="9.127850994313729"><ele>351.0</ele><time>2026-04-28T09:15:48.985Z</time></trkpt><trkpt lat="39.592246789789954" lon="9.127859508705058"><ele>347.5</ele><time>2026-04-28T09:15:49.985Z</time></trkpt><trkpt lat="39.59199489062469" lon="9.127866052950122"><ele>344.0</ele><time>2026-04-28T09:15:50.985Z</time></trkpt><trkpt lat="39.59173721213714" lon="9.12785607633227"><ele>344.0</ele><time>2026-04-28T09:15:51.985Z</time></trkpt><trkpt lat="39.59147399071897" lon="9.127838896203704"><ele>344.0</ele><time>2026-04-28T09:15:52.985Z</time></trkpt><trkpt lat="39.591197472286225" lon="9.1278095682769"><ele>341.5</ele><time>2026-04-28T09:15:53.985Z</time></trkpt><trkpt lat="39.5909204347694" lon="9.127765827745433"><ele>339.0</ele><time>2026-04-28T09:15:54.985Z</time></trkpt><trkpt lat="39.59064585598781" lon="9.127710506910502"><ele>339.0</ele><time>2026-04-28T09:15:55.985Z</time></trkpt><trkpt lat="39.59036405770737" lon="9.127621516806656"><ele>339.0</ele><time>2026-04-28T09:15:56.985Z</time></trkpt><trkpt lat="39.59008593603144" lon="9.127517846513667"><ele>337.5</ele><time>2026-04-28T09:15:57.985Z</time></trkpt><trkpt lat="39.58981125192603" lon="9.127390975599898"><ele>336.0</ele><time>2026-04-28T09:15:58.985Z</time></trkpt><trkpt lat="39.589538968565776" lon="9.127258152308226"><ele>333.5</ele><time>2026-04-28T09:15:59.985Z</time></trkpt><trkpt lat="39.589261170956526" lon="9.127125690543474"><ele>331.0</ele><time>2026-04-28T09:16:00.985Z</time></trkpt><trkpt lat="39.588979807078786" lon="9.126985520344014"><ele>331.0</ele><time>2026-04-28T09:16:01.985Z</time></trkpt><trkpt lat="39.588700933489356" lon="9.126848048882364"><ele>331.0</ele><time>2026-04-28T09:16:02.985Z</time></trkpt><trkpt lat="39.58841581352218" lon="9.126702145730933"><ele>331.0</ele><time>2026-04-28T09:16:03.985Z</time></trkpt><trkpt lat="39.58813328245211" lon="9.126555411157506"><ele>331.0</ele><time>2026-04-28T09:16:04.985Z</time></trkpt><trkpt lat="39.587849378786004" lon="9.126410754617469"><ele>329.5</ele><time>2026-04-28T09:16:05.985Z</time></trkpt><trkpt lat="39.587563799069045" lon="9.12627810410154"><ele>328.0</ele><time>2026-04-28T09:16:06.985Z</time></trkpt><trkpt lat="39.58728413368699" lon="9.12614909249514"><ele>328.5</ele><time>2026-04-28T09:16:07.985Z</time></trkpt><trkpt lat="39.587004928289794" lon="9.126020994425852"><ele>329.0</ele><time>2026-04-28T09:16:08.985Z</time></trkpt><trkpt lat="39.586726457617196" lon="9.125886407120207"><ele>329.0</ele><time>2026-04-28T09:16:09.985Z</time></trkpt><trkpt lat="39.58645003747612" lon="9.125745420916441"><ele>329.0</ele><time>2026-04-28T09:16:10.985Z</time></trkpt><trkpt lat="39.58617560611726" lon="9.125604713760438"><ele>327.5</ele><time>2026-04-28T09:16:11.985Z</time></trkpt><trkpt lat="39.58589983652727" lon="9.125458016287226"><ele>326.0</ele><time>2026-04-28T09:16:12.985Z</time></trkpt><trkpt lat="39.58562547470597" lon="9.125302019817289"><ele>326.0</ele><time>2026-04-28T09:16:13.985Z</time></trkpt><trkpt lat="39.58535067561722" lon="9.125128594520609"><ele>326.0</ele><time>2026-04-28T09:16:14.985Z</time></trkpt><trkpt lat="39.585086437081216" lon="9.124948937401104"><ele>321.0</ele><time>2026-04-28T09:16:15.985Z</time></trkpt><trkpt lat="39.58482445188021" lon="9.124746514615367"><ele>316.0</ele><time>2026-04-28T09:16:16.985Z</time></trkpt><trkpt lat="39.58457012914884" lon="9.12453111233641"><ele>312.5</ele><time>2026-04-28T09:16:17.985Z</time></trkpt><trkpt lat="39.584321306204835" lon="9.124311639257282"><ele>309.0</ele><time>2026-04-28T09:16:18.985Z</time></trkpt><trkpt lat="39.58406983058424" lon="9.124089276074848"><ele>306.5</ele><time>2026-04-28T09:16:19.985Z</time></trkpt><trkpt lat="39.58382483849171" lon="9.123870525914286"><ele>304.0</ele><time>2026-04-28T09:16:20.985Z</time></trkpt><trkpt lat="39.583575269137945" lon="9.12365738933571"><ele>302.5</ele><time>2026-04-28T09:16:21.985Z</time></trkpt><trkpt lat="39.583323084423455" lon="9.123446921783962"><ele>301.0</ele><time>2026-04-28T09:16:22.985Z</time></trkpt><trkpt lat="39.583068195157416" lon="9.12324585904378"><ele>303.0</ele><time>2026-04-28T09:16:23.985Z</time></trkpt><trkpt lat="39.58280820334976" lon="9.12305324948321"><ele>305.0</ele><time>2026-04-28T09:16:24.985Z</time></trkpt><trkpt lat="39.582549510018886" lon="9.122868484691375"><ele>305.0</ele><time>2026-04-28T09:16:25.985Z</time></trkpt><trkpt lat="39.582282581529405" lon="9.122696177690377"><ele>305.0</ele><time>2026-04-28T09:16:26.985Z</time></trkpt><trkpt lat="39.582012864624396" lon="9.122538568805863"><ele>306.0</ele><time>2026-04-28T09:16:27.985Z</time></trkpt><trkpt lat="39.581739753059885" lon="9.122390753417827"><ele>307.0</ele><time>2026-04-28T09:16:28.985Z</time></trkpt><trkpt lat="39.58146150196865" lon="9.122257886327349"><ele>303.0</ele><time>2026-04-28T09:16:29.985Z</time></trkpt><trkpt lat="39.581178781948566" lon="9.1221425199625"><ele>299.0</ele><time>2026-04-28T09:16:30.985Z</time></trkpt><trkpt lat="39.58088688971915" lon="9.122042197856853"><ele>299.0</ele><time>2026-04-28T09:16:31.985Z</time></trkpt><trkpt lat="39.58059770468645" lon="9.121953557703513"><ele>299.0</ele><time>2026-04-28T09:16:32.985Z</time></trkpt><trkpt lat="39.580302891407605" lon="9.121869767405942"><ele>295.0</ele><time>2026-04-28T09:16:33.985Z</time></trkpt><trkpt lat="39.58000983374774" lon="9.12179728636361"><ele>291.0</ele><time>2026-04-28T09:16:34.985Z</time></trkpt><trkpt lat="39.57971563308575" lon="9.121737121447246"><ele>288.0</ele><time>2026-04-28T09:16:35.985Z</time></trkpt><trkpt lat="39.57942070176008" lon="9.121677986478582"><ele>285.0</ele><time>2026-04-28T09:16:36.985Z</time></trkpt><trkpt lat="39.5791257680187" lon="9.121620622805644"><ele>285.0</ele><time>2026-04-28T09:16:37.985Z</time></trkpt><trkpt lat="39.578829480442494" lon="9.121571360099932"><ele>285.0</ele><time>2026-04-28T09:16:38.985Z</time></trkpt><trkpt lat="39.578530940414424" lon="9.12151114904899"><ele>284.0</ele><time>2026-04-28T09:16:39.985Z</time></trkpt><trkpt lat="39.57823599873636" lon="9.121453543137477"><ele>283.0</ele><time>2026-04-28T09:16:40.985Z</time></trkpt><trkpt lat="39.57793839501033" lon="9.121397721043596"><ele>280.5</ele><time>2026-04-28T09:16:41.985Z</time></trkpt><trkpt lat="39.57764560703482" lon="9.121345586482562"><ele>278.0</ele><time>2026-04-28T09:16:42.985Z</time></trkpt><trkpt lat="39.57735218503698" lon="9.121294034626697"><ele>278.0</ele><time>2026-04-28T09:16:43.985Z</time></trkpt><trkpt lat="39.577059024492925" lon="9.121236448471755"><ele>278.0</ele><time>2026-04-28T09:16:44.985Z</time></trkpt><trkpt lat="39.57676974167496" lon="9.121180066457804"><ele>276.5</ele><time>2026-04-28T09:16:45.985Z</time></trkpt><trkpt lat="39.576487815530115" lon="9.121118644577825"><ele>275.0</ele><time>2026-04-28T09:16:46.985Z</time></trkpt><trkpt lat="39.57619105552417" lon="9.121063217692956"><ele>275.0</ele><time>2026-04-28T09:16:47.984Z</time></trkpt><trkpt lat="39.57589386663035" lon="9.121011389401081"><ele>275.0</ele><time>2026-04-28T09:16:48.984Z</time></trkpt><trkpt lat="39.575594472891574" lon="9.120962295023801"><ele>275.5</ele><time>2026-04-28T09:16:49.984Z</time></trkpt><trkpt lat="39.57529662209474" lon="9.12092260726141"><ele>276.0</ele><time>2026-04-28T09:16:50.984Z</time></trkpt><trkpt lat="39.57499634255695" lon="9.120888990922372"><ele>276.0</ele><time>2026-04-28T09:16:51.984Z</time></trkpt><trkpt lat="39.57469284294859" lon="9.120876077983544"><ele>276.0</ele><time>2026-04-28T09:16:52.984Z</time></trkpt><trkpt lat="39.57438850647631" lon="9.120867891772887"><ele>273.5</ele><time>2026-04-28T09:16:53.984Z</time></trkpt><trkpt lat="39.574084302270784" lon="9.120871558358987"><ele>271.0</ele><time>2026-04-28T09:16:54.984Z</time></trkpt><trkpt lat="39.57377651272768" lon="9.120882281830967"><ele>268.5</ele><time>2026-04-28T09:16:55.984Z</time></trkpt><trkpt lat="39.57347583595962" lon="9.120906956135629"><ele>266.0</ele><time>2026-04-28T09:16:56.984Z</time></trkpt><trkpt lat="39.57317364769564" lon="9.120934824466838"><ele>266.0</ele><time>2026-04-28T09:16:57.984Z</time></trkpt><trkpt lat="39.57287208443631" lon="9.120963866357608"><ele>266.0</ele><time>2026-04-28T09:16:58.984Z</time></trkpt><trkpt lat="39.57257216034491" lon="9.120988937590361"><ele>264.0</ele><time>2026-04-28T09:16:59.984Z</time></trkpt><trkpt lat="39.57227503807753" lon="9.121014166669937"><ele>262.0</ele><time>2026-04-28T09:17:00.984Z</time></trkpt><trkpt lat="39.57197915118373" lon="9.121035875863393"><ele>261.0</ele><time>2026-04-28T09:17:01.984Z</time></trkpt><trkpt lat="39.571679464941056" lon="9.12105239273986"><ele>260.0</ele><time>2026-04-28T09:17:02.984Z</time></trkpt><trkpt lat="39.57138395102414" lon="9.12106230851099"><ele>259.0</ele><time>2026-04-28T09:17:03.984Z</time></trkpt><trkpt lat="39.57108645213472" lon="9.12105282686857"><ele>258.0</ele><time>2026-04-28T09:17:04.984Z</time></trkpt><trkpt lat="39.570789006913635" lon="9.121023789081317"><ele>258.0</ele><time>2026-04-28T09:17:05.984Z</time></trkpt><trkpt lat="39.570494530068856" lon="9.120982472461524"><ele>258.0</ele><time>2026-04-28T09:17:06.984Z</time></trkpt><trkpt lat="39.57020026291312" lon="9.120932886850115"><ele>259.0</ele><time>2026-04-28T09:17:07.984Z</time></trkpt><trkpt lat="39.56990819623357" lon="9.120871999215266"><ele>260.0</ele><time>2026-04-28T09:17:08.984Z</time></trkpt><trkpt lat="39.56962177071389" lon="9.120802645070102"><ele>259.0</ele><time>2026-04-28T09:17:09.984Z</time></trkpt><trkpt lat="39.569331620982894" lon="9.120720514409799"><ele>258.0</ele><time>2026-04-28T09:17:10.985Z</time></trkpt><trkpt lat="39.56904708549148" lon="9.120636469185177"><ele>258.0</ele><time>2026-04-28T09:17:11.985Z</time></trkpt><trkpt lat="39.568757535434926" lon="9.120548236409311"><ele>258.0</ele><time>2026-04-28T09:17:12.985Z</time></trkpt><trkpt lat="39.568467487207755" lon="9.120464468332164"><ele>256.5</ele><time>2026-04-28T09:17:13.986Z</time></trkpt><trkpt lat="39.56817639092005" lon="9.120386606711541"><ele>255.0</ele><time>2026-04-28T09:17:14.986Z</time></trkpt><trkpt lat="39.5678828437094" lon="9.120315757001103"><ele>253.5</ele><time>2026-04-28T09:17:15.986Z</time></trkpt><trkpt lat="39.567593408161436" lon="9.120255811429848"><ele>252.0</ele><time>2026-04-28T09:17:16.985Z</time></trkpt><trkpt lat="39.567305752494214" lon="9.120201348732335"><ele>251.5</ele><time>2026-04-28T09:17:17.985Z</time></trkpt><trkpt lat="39.567020934706214" lon="9.120155137421655"><ele>251.0</ele><time>2026-04-28T09:17:18.985Z</time></trkpt><trkpt lat="39.566749693784054" lon="9.120128901501348"><ele>251.0</ele><time>2026-04-28T09:17:19.986Z</time></trkpt><trkpt lat="39.566493153009" lon="9.120115990418666"><ele>251.0</ele><time>2026-04-28T09:17:20.985Z</time></trkpt><trkpt lat="39.566260273406385" lon="9.120119467355586"><ele>250.66666666666669</ele><time>2026-04-28T09:17:21.985Z</time></trkpt><trkpt lat="39.5660492134506" lon="9.120123308106557"><ele>250.33333333333331</ele><time>2026-04-28T09:17:22.986Z</time></trkpt><trkpt lat="39.565867717290715" lon="9.120118116039245"><ele>250.0</ele><time>2026-04-28T09:17:23.985Z</time></trkpt><trkpt lat="39.56572182083733" lon="9.120084790134356"><ele>250.0</ele><time>2026-04-28T09:17:24.985Z</time></trkpt><trkpt lat="39.565601596974766" lon="9.120022147606436"><ele>250.0</ele><time>2026-04-28T09:17:25.985Z</time></trkpt><trkpt lat="39.56550619535122" lon="9.119936052022872"><ele>250.0</ele><time>2026-04-28T09:17:26.985Z</time></trkpt><trkpt lat="39.565396719759306" lon="9.119873108519911"><ele>250.0</ele><time>2026-04-28T09:17:27.985Z</time></trkpt><trkpt lat="39.56527006537119" lon="9.119871691910392"><ele>249.25</ele><time>2026-04-28T09:17:28.985Z</time></trkpt><trkpt lat="39.56515621993417" lon="9.119918795945788"><ele>248.5</ele><time>2026-04-28T09:17:29.985Z</time></trkpt><trkpt lat="39.56506365458675" lon="9.12000457920527"><ele>247.75</ele><time>2026-04-28T09:17:30.985Z</time></trkpt><trkpt lat="39.564979489040624" lon="9.120099892840255"><ele>247.0</ele><time>2026-04-28T09:17:31.985Z</time></trkpt><trkpt lat="39.564869384069034" lon="9.120207442711449"><ele>247.0</ele><time>2026-04-28T09:17:32.985Z</time></trkpt><trkpt lat="39.56472599154318" lon="9.120286313978395"><ele>247.0</ele><time>2026-04-28T09:17:33.985Z</time></trkpt><trkpt lat="39.564559309889866" lon="9.120342361290984"><ele>247.0</ele><time>2026-04-28T09:17:34.985Z</time></trkpt><trkpt lat="39.56437274473156" lon="9.120382162388042"><ele>247.0</ele><time>2026-04-28T09:17:35.985Z</time></trkpt><trkpt lat="39.56417449075899" lon="9.120423295115618"><ele>247.0</ele><time>2026-04-28T09:17:36.985Z</time></trkpt><trkpt lat="39.56395850215369" lon="9.120471523453007"><ele>247.0</ele><time>2026-04-28T09:17:37.985Z</time></trkpt><trkpt lat="39.56372994813062" lon="9.120520393921414"><ele>246.5</ele><time>2026-04-28T09:17:38.985Z</time></trkpt><trkpt lat="39.56349137365226" lon="9.120573134265797"><ele>246.0</ele><time>2026-04-28T09:17:39.985Z</time></trkpt><trkpt lat="39.56324136461277" lon="9.120632511442986"><ele>246.0</ele><time>2026-04-28T09:17:40.985Z</time></trkpt><trkpt lat="39.562977341118035" lon="9.120686517752873"><ele>246.0</ele><time>2026-04-28T09:17:41.985Z</time></trkpt><trkpt lat="39.56270371931799" lon="9.120733999692883"><ele>243.5</ele><time>2026-04-28T09:17:42.985Z</time></trkpt><trkpt lat="39.56242313994238" lon="9.120776521648207"><ele>241.0</ele><time>2026-04-28T09:17:43.985Z</time></trkpt><trkpt lat="39.56213620649899" lon="9.12081583416586"><ele>240.5</ele><time>2026-04-28T09:17:44.985Z</time></trkpt><trkpt lat="39.561844946860425" lon="9.120845127045829"><ele>240.0</ele><time>2026-04-28T09:17:45.985Z</time></trkpt><trkpt lat="39.56155589480601" lon="9.1208561267045"><ele>240.0</ele><time>2026-04-28T09:17:46.985Z</time></trkpt><trkpt lat="39.56127389245113" lon="9.1208520614648"><ele>240.0</ele><time>2026-04-28T09:17:47.985Z</time></trkpt><trkpt lat="39.560991642590416" lon="9.120838633201034"><ele>240.0</ele><time>2026-04-28T09:17:48.985Z</time></trkpt><trkpt lat="39.56070890467567" lon="9.120815882622091"><ele>240.0</ele><time>2026-04-28T09:17:49.985Z</time></trkpt><trkpt lat="39.56042179293025" lon="9.120783847928301"><ele>239.5</ele><time>2026-04-28T09:17:50.985Z</time></trkpt><trkpt lat="39.560129903515886" lon="9.120739412689034"><ele>239.0</ele><time>2026-04-28T09:17:51.985Z</time></trkpt><trkpt lat="39.55983679209542" lon="9.120680767599065"><ele>239.0</ele><time>2026-04-28T09:17:52.985Z</time></trkpt><trkpt lat="39.55954755417722" lon="9.120603154465062"><ele>239.0</ele><time>2026-04-28T09:17:53.985Z</time></trkpt><trkpt lat="39.55926496161929" lon="9.120519214463547"><ele>232.0</ele><time>2026-04-28T09:17:54.985Z</time></trkpt><trkpt lat="39.55898654096295" lon="9.120416757376336"><ele>225.0</ele><time>2026-04-28T09:17:55.985Z</time></trkpt><trkpt lat="39.558709890858694" lon="9.12030508972516"><ele>219.0</ele><time>2026-04-28T09:17:56.985Z</time></trkpt><trkpt lat="39.558439473601446" lon="9.12018184019645"><ele>213.0</ele><time>2026-04-28T09:17:57.985Z</time></trkpt><trkpt lat="39.55816671730601" lon="9.120051855042266"><ele>213.0</ele><time>2026-04-28T09:17:58.985Z</time></trkpt><trkpt lat="39.55789742840523" lon="9.119915337447615"><ele>213.0</ele><time>2026-04-28T09:17:59.985Z</time></trkpt><trkpt lat="39.55762775229606" lon="9.119775490585665"><ele>208.5</ele><time>2026-04-28T09:18:00.985Z</time></trkpt><trkpt lat="39.55735869306974" lon="9.119639023556207"><ele>204.0</ele><time>2026-04-28T09:18:01.985Z</time></trkpt><trkpt lat="39.55709188362553" lon="9.119496002367049"><ele>202.0</ele><time>2026-04-28T09:18:02.985Z</time></trkpt><trkpt lat="39.556822375469295" lon="9.119349553375153"><ele>200.0</ele><time>2026-04-28T09:18:03.985Z</time></trkpt><trkpt lat="39.55655618109902" lon="9.119202015572743"><ele>200.0</ele><time>2026-04-28T09:18:04.985Z</time></trkpt><trkpt lat="39.556292166065035" lon="9.119053900344106"><ele>200.0</ele><time>2026-04-28T09:18:05.985Z</time></trkpt><trkpt lat="39.55602681999445" lon="9.118907282471046"><ele>197.5</ele><time>2026-04-28T09:18:06.985Z</time></trkpt><trkpt lat="39.555759109911875" lon="9.11876293362372"><ele>195.0</ele><time>2026-04-28T09:18:07.985Z</time></trkpt><trkpt lat="39.55548770248415" lon="9.118619702654788"><ele>195.0</ele><time>2026-04-28T09:18:08.984Z</time></trkpt><trkpt lat="39.555213845934375" lon="9.118471866518192"><ele>195.0</ele><time>2026-04-28T09:18:09.984Z</time></trkpt><trkpt lat="39.5549457025631" lon="9.118319406715361"><ele>195.0</ele><time>2026-04-28T09:18:10.984Z</time></trkpt><trkpt lat="39.55468357915437" lon="9.118169972846257"><ele>195.0</ele><time>2026-04-28T09:18:11.984Z</time></trkpt><trkpt lat="39.55442083988562" lon="9.118026922754398"><ele>194.5</ele><time>2026-04-28T09:18:12.984Z</time></trkpt><trkpt lat="39.55415835790124" lon="9.117884667967395"><ele>194.0</ele><time>2026-04-28T09:18:13.984Z</time></trkpt><trkpt lat="39.55389180462375" lon="9.1177427141766"><ele>194.0</ele><time>2026-04-28T09:18:14.984Z</time></trkpt><trkpt lat="39.553623755702915" lon="9.11760399130046"><ele>194.0</ele><time>2026-04-28T09:18:15.984Z</time></trkpt><trkpt lat="39.553349281971805" lon="9.11746324251444"><ele>194.0</ele><time>2026-04-28T09:18:16.984Z</time></trkpt><trkpt lat="39.5530762465839" lon="9.117318507623551"><ele>194.0</ele><time>2026-04-28T09:18:17.984Z</time></trkpt><trkpt lat="39.5528021007187" lon="9.117174619848775"><ele>193.5</ele><time>2026-04-28T09:18:18.984Z</time></trkpt><trkpt lat="39.552527538605" lon="9.11703897388956"><ele>193.0</ele><time>2026-04-28T09:18:19.984Z</time></trkpt><trkpt lat="39.55224500291084" lon="9.116908909587723"><ele>192.0</ele><time>2026-04-28T09:18:20.984Z</time></trkpt><trkpt lat="39.55195649798378" lon="9.116789335227535"><ele>191.0</ele><time>2026-04-28T09:18:21.984Z</time></trkpt><trkpt lat="39.55167545058936" lon="9.116683034606647"><ele>191.0</ele><time>2026-04-28T09:18:22.984Z</time></trkpt><trkpt lat="39.551397634829165" lon="9.116580797196209"><ele>191.0</ele><time>2026-04-28T09:18:23.984Z</time></trkpt><trkpt lat="39.5511160634262" lon="9.116493220794696"><ele>187.5</ele><time>2026-04-28T09:18:24.984Z</time></trkpt><trkpt lat="39.550830263222345" lon="9.116412453821674"><ele>184.0</ele><time>2026-04-28T09:18:25.984Z</time></trkpt><trkpt lat="39.55054926589526" lon="9.116342009378487"><ele>183.0</ele><time>2026-04-28T09:18:26.984Z</time></trkpt><trkpt lat="39.55026817848176" lon="9.11627184917148"><ele>182.0</ele><time>2026-04-28T09:18:27.984Z</time></trkpt><trkpt lat="39.549986896801855" lon="9.11621247967252"><ele>182.0</ele><time>2026-04-28T09:18:28.984Z</time></trkpt><trkpt lat="39.54970358519944" lon="9.11616367187166"><ele>182.0</ele><time>2026-04-28T09:18:29.984Z</time></trkpt><trkpt lat="39.549420971711186" lon="9.116124402188234"><ele>181.0</ele><time>2026-04-28T09:18:30.984Z</time></trkpt><trkpt lat="39.54914370222636" lon="9.116086006401474"><ele>180.0</ele><time>2026-04-28T09:18:31.984Z</time></trkpt><trkpt lat="39.54887554143606" lon="9.11605572542052"><ele>178.5</ele><time>2026-04-28T09:18:32.984Z</time></trkpt><trkpt lat="39.5486281575899" lon="9.116042780962564"><ele>177.0</ele><time>2026-04-28T09:18:33.984Z</time></trkpt><trkpt lat="39.54839928471734" lon="9.116031908915675"><ele>177.0</ele><time>2026-04-28T09:18:34.984Z</time></trkpt><trkpt lat="39.548192536262185" lon="9.11601496561097"><ele>177.0</ele><time>2026-04-28T09:18:35.984Z</time></trkpt><trkpt lat="39.54801147731794" lon="9.115994436832269"><ele>177.0</ele><time>2026-04-28T09:18:36.984Z</time></trkpt><trkpt lat="39.54786737644217" lon="9.11596745336931"><ele>176.8</ele><time>2026-04-28T09:18:37.984Z</time></trkpt><trkpt lat="39.54777292486582" lon="9.115932322492855"><ele>176.6</ele><time>2026-04-28T09:18:38.984Z</time></trkpt><trkpt lat="39.5476835391594" lon="9.115869204005236"><ele>176.4</ele><time>2026-04-28T09:18:39.984Z</time></trkpt><trkpt lat="39.54761090436246" lon="9.115776926154071"><ele>176.20000000000002</ele><time>2026-04-28T09:18:40.984Z</time></trkpt><trkpt lat="39.54755096471193" lon="9.115669456625584"><ele>176.0</ele><time>2026-04-28T09:18:41.984Z</time></trkpt><trkpt lat="39.547464437303745" lon="9.115579113391574"><ele>175.75</ele><time>2026-04-28T09:18:42.984Z</time></trkpt><trkpt lat="39.54735137340145" lon="9.115524926494835"><ele>175.5</ele><time>2026-04-28T09:18:43.984Z</time></trkpt><trkpt lat="39.547225060950275" lon="9.11554897112197"><ele>175.25</ele><time>2026-04-28T09:18:44.984Z</time></trkpt><trkpt lat="39.54711799200812" lon="9.115632286459416"><ele>175.0</ele><time>2026-04-28T09:18:45.984Z</time></trkpt><trkpt lat="39.54703636979708" lon="9.115751996049752"><ele>175.0</ele><time>2026-04-28T09:18:46.984Z</time></trkpt><trkpt lat="39.54700829736265" lon="9.115911275628884"><ele>175.0</ele><time>2026-04-28T09:18:47.984Z</time></trkpt><trkpt lat="39.54702417843232" lon="9.116081749832688"><ele>175.0</ele><time>2026-04-28T09:18:48.984Z</time></trkpt><trkpt lat="39.54705655203283" lon="9.116219858215493"><ele>175.0</ele><time>2026-04-28T09:18:49.984Z</time></trkpt><trkpt lat="39.547037481745676" lon="9.116363255071965"><ele>175.0</ele><time>2026-04-28T09:18:50.984Z</time></trkpt><trkpt lat="39.54695913936664" lon="9.116484490382549"><ele>175.0</ele><time>2026-04-28T09:18:51.984Z</time></trkpt><trkpt lat="39.54684202032222" lon="9.116551842586123"><ele>175.0</ele><time>2026-04-28T09:18:52.984Z</time></trkpt><trkpt lat="39.54670555762944" lon="9.116625590377483"><ele>175.0</ele><time>2026-04-28T09:18:53.984Z</time></trkpt><trkpt lat="39.546568558986976" lon="9.116733121752171"><ele>175.0</ele><time>2026-04-28T09:18:54.984Z</time></trkpt><trkpt lat="39.54642621278821" lon="9.116873927262523"><ele>175.0</ele><time>2026-04-28T09:18:55.984Z</time></trkpt><trkpt lat="39.54627317145809" lon="9.117033962227667"><ele>175.0</ele><time>2026-04-28T09:18:56.984Z</time></trkpt><trkpt lat="39.546114224086345" lon="9.117199337974458"><ele>175.0</ele><time>2026-04-28T09:18:57.984Z</time></trkpt><trkpt lat="39.545942745355234" lon="9.1173748425298"><ele>175.0</ele><time>2026-04-28T09:18:58.984Z</time></trkpt><trkpt lat="39.54576761323444" lon="9.117556316804547"><ele>175.0</ele><time>2026-04-28T09:18:59.984Z</time></trkpt><trkpt lat="39.54559020826052" lon="9.117744100263296"><ele>176.0</ele><time>2026-04-28T09:19:00.984Z</time></trkpt><trkpt lat="39.54540316642614" lon="9.11794111018265"><ele>177.0</ele><time>2026-04-28T09:19:01.984Z</time></trkpt><trkpt lat="39.54520916542983" lon="9.118144562737292"><ele>179.0</ele><time>2026-04-28T09:19:02.984Z</time></trkpt><trkpt lat="39.54501880860539" lon="9.118339154919187"><ele>181.0</ele><time>2026-04-28T09:19:03.984Z</time></trkpt><trkpt lat="39.5448213685734" lon="9.118541992947284"><ele>181.0</ele><time>2026-04-28T09:19:04.984Z</time></trkpt><trkpt lat="39.54462235931118" lon="9.118751350301162"><ele>181.0</ele><time>2026-04-28T09:19:05.984Z</time></trkpt><trkpt lat="39.54441838526546" lon="9.118964909105959"><ele>181.5</ele><time>2026-04-28T09:19:06.984Z</time></trkpt><trkpt lat="39.54421471373906" lon="9.119164635868819"><ele>182.0</ele><time>2026-04-28T09:19:07.984Z</time></trkpt><trkpt lat="39.544011591127415" lon="9.119369090387854"><ele>182.0</ele><time>2026-04-28T09:19:08.984Z</time></trkpt><trkpt lat="39.5438111535187" lon="9.119582712155399"><ele>182.0</ele><time>2026-04-28T09:19:09.984Z</time></trkpt><trkpt lat="39.543608234039176" lon="9.119802647289518"><ele>182.5</ele><time>2026-04-28T09:19:10.984Z</time></trkpt><trkpt lat="39.54340750318188" lon="9.120022002675082"><ele>183.0</ele><time>2026-04-28T09:19:11.984Z</time></trkpt><trkpt lat="39.54320046751563" lon="9.120232452644816"><ele>183.0</ele><time>2026-04-28T09:19:12.984Z</time></trkpt><trkpt lat="39.54298661270547" lon="9.120434269775906"><ele>183.0</ele><time>2026-04-28T09:19:13.984Z</time></trkpt><trkpt lat="39.542780865683625" lon="9.120635540267664"><ele>185.5</ele><time>2026-04-28T09:19:14.984Z</time></trkpt><trkpt lat="39.542577233609876" lon="9.120850211502486"><ele>188.0</ele><time>2026-04-28T09:19:15.983Z</time></trkpt><trkpt lat="39.54237271905663" lon="9.121063370185558"><ele>188.0</ele><time>2026-04-28T09:19:16.985Z</time></trkpt><trkpt lat="39.542169032761386" lon="9.121272201722409"><ele>188.0</ele><time>2026-04-28T09:19:17.985Z</time></trkpt><trkpt lat="39.54196268724022" lon="9.121483509355611"><ele>190.5</ele><time>2026-04-28T09:19:18.985Z</time></trkpt><trkpt lat="39.54176212184566" lon="9.121691206077733"><ele>193.0</ele><time>2026-04-28T09:19:19.985Z</time></trkpt><trkpt lat="39.541556395470195" lon="9.121899968500056"><ele>193.0</ele><time>2026-04-28T09:19:20.985Z</time></trkpt><trkpt lat="39.541350542070816" lon="9.122106815864786"><ele>193.0</ele><time>2026-04-28T09:19:21.985Z</time></trkpt><trkpt lat="39.54114687747515" lon="9.122317823438356"><ele>197.0</ele><time>2026-04-28T09:19:22.984Z</time></trkpt><trkpt lat="39.540943980838556" lon="9.122527931489259"><ele>201.0</ele><time>2026-04-28T09:19:23.984Z</time></trkpt><trkpt lat="39.54073815623791" lon="9.122739981602097"><ele>201.0</ele><time>2026-04-28T09:19:24.984Z</time></trkpt><trkpt lat="39.540527790566244" lon="9.12295205836401"><ele>201.0</ele><time>2026-04-28T09:19:25.984Z</time></trkpt><trkpt lat="39.54032463667743" lon="9.123159404346755"><ele>204.5</ele><time>2026-04-28T09:19:26.985Z</time></trkpt><trkpt lat="39.540119614489356" lon="9.123371414840866"><ele>208.0</ele><time>2026-04-28T09:19:27.985Z</time></trkpt><trkpt lat="39.53991195488139" lon="9.123592816782965"><ele>208.0</ele><time>2026-04-28T09:19:28.985Z</time></trkpt><trkpt lat="39.53970152567154" lon="9.123816722017244"><ele>208.0</ele><time>2026-04-28T09:19:29.985Z</time></trkpt><trkpt lat="39.5394834000651" lon="9.124032555975782"><ele>211.0</ele><time>2026-04-28T09:19:30.985Z</time></trkpt><trkpt lat="39.539273520391454" lon="9.124226601364215"><ele>214.0</ele><time>2026-04-28T09:19:31.985Z</time></trkpt><trkpt lat="39.539111926486235" lon="9.124436153820186"><ele>214.0</ele><time>2026-04-28T09:19:32.985Z</time></trkpt><trkpt lat="39.53895105884256" lon="9.124664960303381"><ele>214.0</ele><time>2026-04-28T09:19:33.985Z</time></trkpt><trkpt lat="39.538790121434616" lon="9.124913983297088"><ele>214.0</ele><time>2026-04-28T09:19:34.985Z</time></trkpt><trkpt lat="39.538621027132" lon="9.125145782564932"><ele>214.0</ele><time>2026-04-28T09:19:35.985Z</time></trkpt><trkpt lat="39.53845062385571" lon="9.12536012873415"><ele>214.0</ele><time>2026-04-28T09:19:36.985Z</time></trkpt><trkpt lat="39.53826954058907" lon="9.12554666253615"><ele>214.0</ele><time>2026-04-28T09:19:37.985Z</time></trkpt><trkpt lat="39.53809611613914" lon="9.125714300547743"><ele>214.0</ele><time>2026-04-28T09:19:38.985Z</time></trkpt><trkpt lat="39.537936054684835" lon="9.12587219475224"><ele>211.66666666666666</ele><time>2026-04-28T09:19:39.985Z</time></trkpt><trkpt lat="39.53778861826229" lon="9.126026138160347"><ele>209.33333333333331</ele><time>2026-04-28T09:19:40.985Z</time></trkpt><trkpt lat="39.537649126691896" lon="9.126158365635595"><ele>207.0</ele><time>2026-04-28T09:19:41.985Z</time></trkpt><trkpt lat="39.53753898126602" lon="9.12627810495708"><ele>207.0</ele><time>2026-04-28T09:19:42.984Z</time></trkpt><trkpt lat="39.537437036109715" lon="9.126384310864621"><ele>207.0</ele><time>2026-04-28T09:19:43.984Z</time></trkpt><trkpt lat="39.53733577163509" lon="9.126484710195115"><ele>207.0</ele><time>2026-04-28T09:19:44.984Z</time></trkpt><trkpt lat="39.53723382830441" lon="9.126580197989416"><ele>207.0</ele><time>2026-04-28T09:19:45.984Z</time></trkpt><trkpt lat="39.537135400444406" lon="9.12667560777244"><ele>206.8</ele><time>2026-04-28T09:19:46.984Z</time></trkpt><trkpt lat="39.537046366373104" lon="9.126766321900437"><ele>206.6</ele><time>2026-04-28T09:19:47.984Z</time></trkpt><trkpt lat="39.53696700852809" lon="9.126849520213677"><ele>206.4</ele><time>2026-04-28T09:19:48.984Z</time></trkpt><trkpt lat="39.53688757092973" lon="9.126927720232715"><ele>206.20000000000002</ele><time>2026-04-28T09:19:49.984Z</time></trkpt><trkpt lat="39.53680877321856" lon="9.12700578051888"><ele>206.0</ele><time>2026-04-28T09:19:50.984Z</time></trkpt><trkpt lat="39.53674125310228" lon="9.12707330353103"><ele>206.0</ele><time>2026-04-28T09:19:51.984Z</time></trkpt><trkpt lat="39.53668465745748" lon="9.127126851304972"><ele>206.0</ele><time>2026-04-28T09:19:52.984Z</time></trkpt><trkpt lat="39.53659744667544" lon="9.127208172060488"><ele>206.0</ele><time>2026-04-28T09:19:54.984Z</time></trkpt><trkpt lat="39.53650540268935" lon="9.127313071023712"><ele>206.0</ele><time>2026-04-28T09:19:56.984Z</time></trkpt><trkpt lat="39.5364491714791" lon="9.12738202181252"><ele>206.0</ele><time>2026-04-28T09:19:57.984Z</time></trkpt><trkpt lat="39.53639317279189" lon="9.127453943723628"><ele>206.00000000000003</ele><time>2026-04-28T09:19:58.984Z</time></trkpt><trkpt lat="39.536344874717514" lon="9.127545274131053"><ele>206.0</ele><time>2026-04-28T09:19:59.984Z</time></trkpt><trkpt lat="39.536307806807606" lon="9.127645871423047"><ele>206.0</ele><time>2026-04-28T09:20:00.984Z</time></trkpt><trkpt lat="39.53627926331618" lon="9.127751999197061"><ele>206.0</ele><time>2026-04-28T09:20:01.984Z</time></trkpt><trkpt lat="39.536259669297515" lon="9.127870068182897"><ele>206.00000000000003</ele><time>2026-04-28T09:20:02.984Z</time></trkpt><trkpt lat="39.536237520208424" lon="9.127987871981961"><ele>206.0</ele><time>2026-04-28T09:20:03.984Z</time></trkpt><trkpt lat="39.53621105333084" lon="9.128104425771438"><ele>205.60000000000002</ele><time>2026-04-28T09:20:04.984Z</time></trkpt><trkpt lat="39.536177761974194" lon="9.128223380171663"><ele>205.2</ele><time>2026-04-28T09:20:05.984Z</time></trkpt><trkpt lat="39.536133618818" lon="9.128341774248796"><ele>204.8</ele><time>2026-04-28T09:20:06.984Z</time></trkpt><trkpt lat="39.536080134050565" lon="9.128457924800273"><ele>204.39999999999998</ele><time>2026-04-28T09:20:07.984Z</time></trkpt><trkpt lat="39.536017291288296" lon="9.128562584169613"><ele>204.0</ele><time>2026-04-28T09:20:08.984Z</time></trkpt><trkpt lat="39.53593468077668" lon="9.128648547991872"><ele>204.0</ele><time>2026-04-28T09:20:09.984Z</time></trkpt><trkpt lat="39.535845939473866" lon="9.128713725060374"><ele>204.0</ele><time>2026-04-28T09:20:10.984Z</time></trkpt><trkpt lat="39.53576802984437" lon="9.128761387148202"><ele>204.0</ele><time>2026-04-28T09:20:11.984Z</time></trkpt><trkpt lat="39.53569250564815" lon="9.128810259089123"><ele>204.0</ele><time>2026-04-28T09:20:13.984Z</time></trkpt><trkpt lat="39.5355994295551" lon="9.128859539920596"><ele>204.0</ele><time>2026-04-28T09:20:16.984Z</time></trkpt><trkpt lat="39.53550388031355" lon="9.128912526579281"><ele>204.0</ele><time>2026-04-28T09:20:18.984Z</time></trkpt><trkpt lat="39.535396391303586" lon="9.128975697110441"><ele>204.0</ele><time>2026-04-28T09:20:20.984Z</time></trkpt><trkpt lat="39.535334360989474" lon="9.129010542207492"><ele>204.0</ele><time>2026-04-28T09:20:21.984Z</time></trkpt><trkpt lat="39.53527569179672" lon="9.129047400740784"><ele>204.0</ele><time>2026-04-28T09:20:22.984Z</time></trkpt><trkpt lat="39.53521226647501" lon="9.129078987453415"><ele>204.0</ele><time>2026-04-28T09:20:23.984Z</time></trkpt><trkpt lat="39.53514437076977" lon="9.129115890808878"><ele>204.0</ele><time>2026-04-28T09:20:24.984Z</time></trkpt><trkpt lat="39.53507970746792" lon="9.129154275772313"><ele>203.33333333333334</ele><time>2026-04-28T09:20:25.984Z</time></trkpt><trkpt lat="39.535018531336306" lon="9.129185755978474"><ele>202.66666666666669</ele><time>2026-04-28T09:20:26.984Z</time></trkpt><trkpt lat="39.534957074641284" lon="9.129218741999157"><ele>202.0</ele><time>2026-04-28T09:20:27.984Z</time></trkpt><trkpt lat="39.53489583440912" lon="9.129255539464202"><ele>201.33333333333334</ele><time>2026-04-28T09:20:28.984Z</time></trkpt><trkpt lat="39.53483216094769" lon="9.129291187061"><ele>200.66666666666669</ele><time>2026-04-28T09:20:29.984Z</time></trkpt><trkpt lat="39.534767224612956" lon="9.129321887945924"><ele>200.0</ele><time>2026-04-28T09:20:30.984Z</time></trkpt><trkpt lat="39.53465378192119" lon="9.129363132916172"><ele>200.00000000000003</ele><time>2026-04-28T09:20:32.984Z</time></trkpt><trkpt lat="39.53457659370125" lon="9.129324169650053"><ele>200.0</ele><time>2026-04-28T09:20:34.984Z</time></trkpt><trkpt lat="39.534533725313246" lon="9.129241076757348"><ele>200.0</ele><time>2026-04-28T09:20:36.984Z</time></trkpt><trkpt lat="39.53448700409768" lon="9.129152284880027"><ele>200.0</ele><time>2026-04-28T09:20:42.984Z</time></trkpt><trkpt lat="39.53442439272052" lon="9.129058333963853"><ele>200.00000000000003</ele><time>2026-04-28T09:20:44.984Z</time></trkpt><trkpt lat="39.534355249380106" lon="9.128957321965467"><ele>200.0</ele><time>2026-04-28T09:20:46.984Z</time></trkpt><trkpt lat="39.534296709371475" lon="9.128901197486456"><ele>198.2</ele><time>2026-04-28T09:20:52.983Z</time></trkpt><trkpt lat="39.5342246136962" lon="9.128871008479308"><ele>196.4</ele><time>2026-04-28T09:20:55.983Z</time></trkpt><trkpt lat="39.534151588839805" lon="9.12884881879909"><ele>194.60000000000002</ele><time>2026-04-28T09:20:58.983Z</time></trkpt><trkpt lat="39.53410032537218" lon="9.128684965103915"><ele>192.8</ele><time>2026-04-28T09:21:00.983Z</time></trkpt><trkpt lat="39.53405046028968" lon="9.12859430691073"><ele>191.0</ele><time>2026-04-28T09:21:01.983Z</time></trkpt><trkpt lat="39.53399510076179" lon="9.128509019991954"><ele>191.0</ele><time>2026-04-28T09:21:02.983Z</time></trkpt><trkpt lat="39.53394047601892" lon="9.128421248010223"><ele>191.0</ele><time>2026-04-28T09:21:03.983Z</time></trkpt><trkpt lat="39.53388691839871" lon="9.12832561965166"><ele>191.0</ele><time>2026-04-28T09:21:04.983Z</time></trkpt><trkpt lat="39.53383412838466" lon="9.128227935498886"><ele>191.0</ele><time>2026-04-28T09:21:05.983Z</time></trkpt><trkpt lat="39.533779314463935" lon="9.12813122524033"><ele>191.0</ele><time>2026-04-28T09:21:06.983Z</time></trkpt><trkpt lat="39.533737670653814" lon="9.128032961753693"><ele>191.0</ele><time>2026-04-28T09:21:07.983Z</time></trkpt><trkpt lat="39.53368692705683" lon="9.127949253384305"><ele>189.0</ele><time>2026-04-28T09:21:08.983Z</time></trkpt><trkpt lat="39.53364438328834" lon="9.12786285288184"><ele>187.0</ele><time>2026-04-28T09:21:09.983Z</time></trkpt><trkpt lat="39.53359592027998" lon="9.127737248746723"><ele>185.0</ele><time>2026-04-28T09:21:11.983Z</time></trkpt><trkpt lat="39.53356770481885" lon="9.127651671597707"><ele>183.0</ele><time>2026-04-28T09:21:13.983Z</time></trkpt><trkpt lat="39.53350158093287" lon="9.12762401509058"><ele>181.0</ele><time>2026-04-28T09:21:18.983Z</time></trkpt><trkpt lat="39.53341298159875" lon="9.127738388685916"><ele>181.0</ele><time>2026-04-28T09:21:20.983Z</time></trkpt><trkpt lat="39.533322694348335" lon="9.1278589097945"><ele>181.0</ele><time>2026-04-28T09:21:22.984Z</time></trkpt><trkpt lat="39.53326890154247" lon="9.127927745701342"><ele>181.0</ele><time>2026-04-28T09:21:23.984Z</time></trkpt><trkpt lat="39.533215139502026" lon="9.127998210262938"><ele>181.0</ele><time>2026-04-28T09:21:24.984Z</time></trkpt><trkpt lat="39.533156081150864" lon="9.12806917230706"><ele>181.0</ele><time>2026-04-28T09:21:25.985Z</time></trkpt><trkpt lat="39.53309428748447" lon="9.128145311154354"><ele>181.0</ele><time>2026-04-28T09:21:26.984Z</time></trkpt><trkpt lat="39.53304233161377" lon="9.12821334042594"><ele>182.0</ele><time>2026-04-28T09:21:27.984Z</time></trkpt><trkpt lat="39.532960684884074" lon="9.128312522845603"><ele>183.0</ele><time>2026-04-28T09:21:29.984Z</time></trkpt><trkpt lat="39.53287629295016" lon="9.128423793424618"><ele>184.0</ele><time>2026-04-28T09:21:31.983Z</time></trkpt><trkpt lat="39.53282563280085" lon="9.128491503864606"><ele>185.0</ele><time>2026-04-28T09:21:32.984Z</time></trkpt><trkpt lat="39.53277149933053" lon="9.128557529719"><ele>186.0</ele><time>2026-04-28T09:21:33.984Z</time></trkpt><trkpt lat="39.532719037901735" lon="9.128620827163022"><ele>186.0</ele><time>2026-04-28T09:21:34.984Z</time></trkpt><trkpt lat="39.53267233814962" lon="9.128680478976998"><ele>186.0</ele><time>2026-04-28T09:21:35.984Z</time></trkpt><trkpt lat="39.53256752792055" lon="9.128779620503"><ele>186.0</ele><time>2026-04-28T09:21:37.984Z</time></trkpt><trkpt lat="39.53250019960802" lon="9.12880057012017"><ele>186.0</ele><time>2026-04-28T09:21:38.984Z</time></trkpt><trkpt lat="39.53242604269854" lon="9.128801102668263"><ele>186.0</ele><time>2026-04-28T09:21:39.984Z</time></trkpt><trkpt lat="39.53235397257095" lon="9.128804236689984"><ele>186.0</ele><time>2026-04-28T09:21:40.984Z</time></trkpt><trkpt lat="39.53228137775837" lon="9.12881242593347"><ele>186.0</ele><time>2026-04-28T09:21:41.984Z</time></trkpt><trkpt lat="39.532205671752564" lon="9.12882449848563"><ele>186.0</ele><time>2026-04-28T09:21:42.984Z</time></trkpt><trkpt lat="39.53213597087676" lon="9.128835423957556"><ele>186.0</ele><time>2026-04-28T09:21:43.984Z</time></trkpt><trkpt lat="39.53202655268423" lon="9.128853195624236"><ele>186.0</ele><time>2026-04-28T09:21:45.983Z</time></trkpt><trkpt lat="39.531955849133176" lon="9.128831950591833"><ele>186.0</ele><time>2026-04-28T09:21:49.983Z</time></trkpt><trkpt lat="39.53191482699855" lon="9.128745900625201"><ele>186.0</ele><time>2026-04-28T09:21:52.983Z</time></trkpt><trkpt lat="39.53188775431932" lon="9.128605801571487"><ele>185.83333333333334</ele><time>2026-04-28T09:21:55.983Z</time></trkpt><trkpt lat="39.53190549263611" lon="9.128509584630985"><ele>185.66666666666666</ele><time>2026-04-28T09:21:56.983Z</time></trkpt><trkpt lat="39.53191928274484" lon="9.128415144562961"><ele>185.5</ele><time>2026-04-28T09:21:57.983Z</time></trkpt><trkpt lat="39.53192309253392" lon="9.12831679882538"><ele>185.33333333333331</ele><time>2026-04-28T09:21:58.983Z</time></trkpt><trkpt lat="39.53192394452212" lon="9.128232849902979"><ele>185.16666666666666</ele><time>2026-04-28T09:21:59.983Z</time></trkpt><trkpt lat="39.53192860128307" lon="9.128096953477856"><ele>185.0</ele><time>2026-04-28T09:22:01.983Z</time></trkpt><trkpt lat="39.53195431093657" lon="9.127999879831098"><ele>184.33333333333331</ele><time>2026-04-28T09:22:03.983Z</time></trkpt><trkpt lat="39.531959401066715" lon="9.127831902398539"><ele>183.66666666666666</ele><time>2026-04-28T09:22:05.983Z</time></trkpt><trkpt lat="39.53197007477747" lon="9.127729734241493"><ele>183.0</ele><time>2026-04-28T09:22:06.983Z</time></trkpt><trkpt lat="39.53199022852532" lon="9.127621133306775"><ele>182.33333333333334</ele><time>2026-04-28T09:22:07.983Z</time></trkpt><trkpt lat="39.5319997716849" lon="9.127516279686025"><ele>181.66666666666669</ele><time>2026-04-28T09:22:08.983Z</time></trkpt><trkpt lat="39.531986038033025" lon="9.127424008821475"><ele>181.0</ele><time>2026-04-28T09:22:09.983Z</time></trkpt><trkpt lat="39.53194845507112" lon="9.127340377295106"><ele>179.60000000000002</ele><time>2026-04-28T09:22:10.983Z</time></trkpt><trkpt lat="39.53188936355046" lon="9.12725949010357"><ele>178.2</ele><time>2026-04-28T09:22:11.983Z</time></trkpt><trkpt lat="39.53181329908826" lon="9.127179540234168"><ele>176.8</ele><time>2026-04-28T09:22:12.983Z</time></trkpt><trkpt lat="39.53172758156864" lon="9.127093297371283"><ele>175.39999999999998</ele><time>2026-04-28T09:22:13.983Z</time></trkpt><trkpt lat="39.531638853803244" lon="9.127010667462331"><ele>174.0</ele><time>2026-04-28T09:22:14.983Z</time></trkpt><trkpt lat="39.531552413106844" lon="9.126936548331694"><ele>174.0</ele><time>2026-04-28T09:22:15.983Z</time></trkpt><trkpt lat="39.53147453232614" lon="9.126865872364545"><ele>174.0</ele><time>2026-04-28T09:22:16.983Z</time></trkpt><trkpt lat="39.53140518593048" lon="9.126783003680565"><ele>174.0</ele><time>2026-04-28T09:22:17.983Z</time></trkpt><trkpt lat="39.531333214565734" lon="9.126709872234734"><ele>174.0</ele><time>2026-04-28T09:22:18.983Z</time></trkpt><trkpt lat="39.531258659956706" lon="9.126629201501338"><ele>174.0</ele><time>2026-04-28T09:22:19.983Z</time></trkpt><trkpt lat="39.53120057434918" lon="9.126531935729"><ele>173.0</ele><time>2026-04-28T09:22:20.983Z</time></trkpt><trkpt lat="39.531152318406065" lon="9.126429375375917"><ele>172.0</ele><time>2026-04-28T09:22:21.983Z</time></trkpt><trkpt lat="39.53110788081041" lon="9.12634433552826"><ele>171.0</ele><time>2026-04-28T09:22:22.983Z</time></trkpt><trkpt lat="39.53102977229314" lon="9.126269165579624"><ele>170.0</ele><time>2026-04-28T09:22:24.983Z</time></trkpt><trkpt lat="39.5310132205884" lon="9.12637909008771"><ele>169.0</ele><time>2026-04-28T09:22:26.983Z</time></trkpt><trkpt lat="39.53111390846721" lon="9.12649762858566"><ele>169.39999999999998</ele><time>2026-04-28T09:22:28.983Z</time></trkpt><trkpt lat="39.53118965438682" lon="9.126574930100329"><ele>169.8</ele><time>2026-04-28T09:22:29.983Z</time></trkpt><trkpt lat="39.53125659308522" lon="9.126662242592062"><ele>170.2</ele><time>2026-04-28T09:22:30.983Z</time></trkpt><trkpt lat="39.531321297515035" lon="9.126737518049419"><ele>170.60000000000002</ele><time>2026-04-28T09:22:31.983Z</time></trkpt><trkpt lat="39.531390979539104" lon="9.126809105441794"><ele>171.0</ele><time>2026-04-28T09:22:32.983Z</time></trkpt><trkpt lat="39.53147056593552" lon="9.126877518995014"><ele>171.60000000000002</ele><time>2026-04-28T09:22:33.983Z</time></trkpt><trkpt lat="39.531557087785764" lon="9.126960060553131"><ele>172.2</ele><time>2026-04-28T09:22:34.983Z</time></trkpt><trkpt lat="39.53164617700236" lon="9.127041254677101"><ele>172.8</ele><time>2026-04-28T09:22:35.983Z</time></trkpt><trkpt lat="39.53173065208048" lon="9.127119607786438"><ele>173.39999999999998</ele><time>2026-04-28T09:22:36.983Z</time></trkpt><trkpt lat="39.531810752181244" lon="9.127199618933753"><ele>174.0</ele><time>2026-04-28T09:22:37.983Z</time></trkpt><trkpt lat="39.531881143331354" lon="9.127275089968787"><ele>174.0</ele><time>2026-04-28T09:22:38.983Z</time></trkpt><trkpt lat="39.53192528774525" lon="9.12734680007967"><ele>174.0</ele><time>2026-04-28T09:22:39.983Z</time></trkpt><trkpt lat="39.53196593752813" lon="9.127453529639686"><ele>174.0</ele><time>2026-04-28T09:22:41.983Z</time></trkpt><trkpt lat="39.531960975654094" lon="9.12761304472706"><ele>174.0</ele><time>2026-04-28T09:22:43.983Z</time></trkpt><trkpt lat="39.53194821212663" lon="9.127718986019175"><ele>174.0</ele><time>2026-04-28T09:22:44.983Z</time></trkpt><trkpt lat="39.531936778534444" lon="9.127844220582967"><ele>175.39999999999998</ele><time>2026-04-28T09:22:45.983Z</time></trkpt><trkpt lat="39.53192778994114" lon="9.127976617120174"><ele>176.8</ele><time>2026-04-28T09:22:46.983Z</time></trkpt><trkpt lat="39.531913348852676" lon="9.128112529118338"><ele>178.2</ele><time>2026-04-28T09:22:47.983Z</time></trkpt><trkpt lat="39.53190285365783" lon="9.12825222278598"><ele>179.60000000000002</ele><time>2026-04-28T09:22:48.983Z</time></trkpt><trkpt lat="39.531903003868734" lon="9.128375344611674"><ele>181.0</ele><time>2026-04-28T09:22:49.983Z</time></trkpt><trkpt lat="39.53190020248852" lon="9.12848347661935"><ele>181.66666666666669</ele><time>2026-04-28T09:22:50.983Z</time></trkpt><trkpt lat="39.5318947803896" lon="9.128576467469431"><ele>182.33333333333334</ele><time>2026-04-28T09:22:51.983Z</time></trkpt><trkpt lat="39.53184717094338" lon="9.12867117220703"><ele>183.0</ele><time>2026-04-28T09:22:53.982Z</time></trkpt><trkpt lat="39.53176919091682" lon="9.128648964366715"><ele>183.66666666666666</ele><time>2026-04-28T09:22:58.982Z</time></trkpt><trkpt lat="39.53170597656832" lon="9.128607049455075"><ele>184.33333333333331</ele><time>2026-04-28T09:23:00.982Z</time></trkpt><trkpt lat="39.53163585715605" lon="9.128527855685599"><ele>185.0</ele><time>2026-04-28T09:23:02.982Z</time></trkpt><trkpt lat="39.53156029890116" lon="9.128451380757541"><ele>185.0</ele><time>2026-04-28T09:23:04.982Z</time></trkpt><trkpt lat="39.53147669774647" lon="9.128363558674907"><ele>185.0</ele><time>2026-04-28T09:23:06.982Z</time></trkpt><trkpt lat="39.53140779561002" lon="9.128311888025353"><ele>185.0</ele><time>2026-04-28T09:23:09.982Z</time></trkpt><trkpt lat="39.5313380794509" lon="9.128347711568951"><ele>185.0</ele><time>2026-04-28T09:23:12.982Z</time></trkpt><trkpt lat="39.53128499518091" lon="9.128428076127296"><ele>185.0</ele><time>2026-04-28T09:23:16.982Z</time></trkpt><trkpt lat="39.53122878846022" lon="9.128484553657524"><ele>185.0</ele><time>2026-04-28T09:23:24.982Z</time></trkpt><trkpt lat="39.5311753633427" lon="9.128552904088691"><ele>183.5</ele><time>2026-04-28T09:23:25.982Z</time></trkpt><trkpt lat="39.53110226893574" lon="9.12865089102245"><ele>182.0</ele><time>2026-04-28T09:23:26.982Z</time></trkpt><trkpt lat="39.53102940869634" lon="9.128762436431415"><ele>180.5</ele><time>2026-04-28T09:23:27.982Z</time></trkpt><trkpt lat="39.5309488122614" lon="9.128875234310472"><ele>179.0</ele><time>2026-04-28T09:23:28.983Z</time></trkpt><trkpt lat="39.53085847582176" lon="9.128994530060822"><ele>180.5</ele><time>2026-04-28T09:23:29.983Z</time></trkpt><trkpt lat="39.53076081269239" lon="9.12912217198723"><ele>182.0</ele><time>2026-04-28T09:23:30.983Z</time></trkpt><trkpt lat="39.530668402768896" lon="9.129255234928227"><ele>183.5</ele><time>2026-04-28T09:23:31.983Z</time></trkpt><trkpt lat="39.53057432197599" lon="9.129387178571715"><ele>185.0</ele><time>2026-04-28T09:23:32.983Z</time></trkpt><trkpt lat="39.53047701237253" lon="9.129520063188055"><ele>185.75</ele><time>2026-04-28T09:23:33.983Z</time></trkpt><trkpt lat="39.53037551666574" lon="9.129656908362499"><ele>186.5</ele><time>2026-04-28T09:23:34.983Z</time></trkpt><trkpt lat="39.53027160313457" lon="9.12980115039318"><ele>187.25</ele><time>2026-04-28T09:23:35.983Z</time></trkpt><trkpt lat="39.53017365916429" lon="9.12994154680114"><ele>188.0</ele><time>2026-04-28T09:23:36.983Z</time></trkpt><trkpt lat="39.530075954430274" lon="9.130074668388426"><ele>188.0</ele><time>2026-04-28T09:23:37.983Z</time></trkpt><trkpt lat="39.52997986830355" lon="9.130204218092388"><ele>188.0</ele><time>2026-04-28T09:23:38.983Z</time></trkpt><trkpt lat="39.52989282575382" lon="9.130324374192947"><ele>188.0</ele><time>2026-04-28T09:23:39.983Z</time></trkpt><trkpt lat="39.52980762208321" lon="9.130437367197136"><ele>188.0</ele><time>2026-04-28T09:23:40.983Z</time></trkpt><trkpt lat="39.5297146451627" lon="9.130524992178824"><ele>188.0</ele><time>2026-04-28T09:23:41.983Z</time></trkpt><trkpt lat="39.529600078735214" lon="9.130581455328532"><ele>188.0</ele><time>2026-04-28T09:23:42.983Z</time></trkpt><trkpt lat="39.529469545669976" lon="9.130618753526937"><ele>188.0</ele><time>2026-04-28T09:23:43.983Z</time></trkpt><trkpt lat="39.52932836082052" lon="9.130654462065745"><ele>188.0</ele><time>2026-04-28T09:23:44.983Z</time></trkpt><trkpt lat="39.52918450721652" lon="9.130709988306418"><ele>187.0</ele><time>2026-04-28T09:23:45.983Z</time></trkpt><trkpt lat="39.52903833316786" lon="9.130764968611961"><ele>186.0</ele><time>2026-04-28T09:23:46.983Z</time></trkpt><trkpt lat="39.52888619716924" lon="9.130823173400431"><ele>185.0</ele><time>2026-04-28T09:23:47.983Z</time></trkpt><trkpt lat="39.52872684792524" lon="9.130884973927124"><ele>185.66666666666666</ele><time>2026-04-28T09:23:48.983Z</time></trkpt><trkpt lat="39.52856203852143" lon="9.130949027491619"><ele>186.33333333333334</ele><time>2026-04-28T09:23:49.983Z</time></trkpt><trkpt lat="39.528393622054" lon="9.131008462729254"><ele>187.0</ele><time>2026-04-28T09:23:50.983Z</time></trkpt><trkpt lat="39.52822737330953" lon="9.131069585594854"><ele>187.0</ele><time>2026-04-28T09:23:51.983Z</time></trkpt><trkpt lat="39.528059807389184" lon="9.131132440281355"><ele>187.0</ele><time>2026-04-28T09:23:52.983Z</time></trkpt><trkpt lat="39.52789245485252" lon="9.131198241045299"><ele>187.0</ele><time>2026-04-28T09:23:53.983Z</time></trkpt><trkpt lat="39.527728505809364" lon="9.131253938823404"><ele>188.75</ele><time>2026-04-28T09:23:54.983Z</time></trkpt><trkpt lat="39.527576450484354" lon="9.131306638720597"><ele>190.5</ele><time>2026-04-28T09:23:55.983Z</time></trkpt><trkpt lat="39.5274399447297" lon="9.131348395439277"><ele>192.25</ele><time>2026-04-28T09:23:56.983Z</time></trkpt><trkpt lat="39.52733052960317" lon="9.131379703528356"><ele>194.0</ele><time>2026-04-28T09:23:57.983Z</time></trkpt><trkpt lat="39.52726101301655" lon="9.131406287490156"><ele>194.0</ele><time>2026-04-28T09:23:58.983Z</time></trkpt><trkpt lat="39.527201040975136" lon="9.131433378549339"><ele>194.0</ele><time>2026-04-28T09:24:00.983Z</time></trkpt><trkpt lat="39.52714358286368" lon="9.131531551796362"><ele>194.0</ele><time>2026-04-28T09:24:03.983Z</time></trkpt><trkpt lat="39.52712892824796" lon="9.131616960428335"><ele>194.0</ele><time>2026-04-28T09:24:04.983Z</time></trkpt><trkpt lat="39.52711531838396" lon="9.131701347454774"><ele>194.0</ele><time>2026-04-28T09:24:05.983Z</time></trkpt><trkpt lat="39.52709671453029" lon="9.131797075368373"><ele>194.0</ele><time>2026-04-28T09:24:06.983Z</time></trkpt><trkpt lat="39.52707644553602" lon="9.13188083813853"><ele>194.0</ele><time>2026-04-28T09:24:07.983Z</time></trkpt><trkpt lat="39.52706814476017" lon="9.131971237607667"><ele>193.50000000000003</ele><time>2026-04-28T09:24:08.983Z</time></trkpt><trkpt lat="39.527030141445124" lon="9.132048203354943"><ele>193.0</ele><time>2026-04-28T09:24:11.983Z</time></trkpt><trkpt lat="39.526916663239525" lon="9.132005724307213"><ele>192.5</ele><time>2026-04-28T09:24:13.983Z</time></trkpt><trkpt lat="39.52685065522169" lon="9.131946412906434"><ele>192.0</ele><time>2026-04-28T09:24:14.983Z</time></trkpt><trkpt lat="39.526779639564324" lon="9.131885029604135"><ele>191.5</ele><time>2026-04-28T09:24:15.983Z</time></trkpt><trkpt lat="39.52669995654636" lon="9.131826916480906"><ele>191.0</ele><time>2026-04-28T09:24:16.983Z</time></trkpt><trkpt lat="39.52661190075372" lon="9.131766580163516"><ele>191.0</ele><time>2026-04-28T09:24:17.983Z</time></trkpt><trkpt lat="39.526520605459616" lon="9.131697761908182"><ele>191.0</ele><time>2026-04-28T09:24:18.983Z</time></trkpt><trkpt lat="39.52641854106038" lon="9.131620683607272"><ele>191.0</ele><time>2026-04-28T09:24:19.983Z</time></trkpt><trkpt lat="39.526312850893135" lon="9.131542379095507"><ele>191.0</ele><time>2026-04-28T09:24:20.983Z</time></trkpt><trkpt lat="39.526217757607625" lon="9.131466534939301"><ele>188.8</ele><time>2026-04-28T09:24:21.983Z</time></trkpt><trkpt lat="39.52612624646829" lon="9.131388145172279"><ele>186.60000000000002</ele><time>2026-04-28T09:24:22.983Z</time></trkpt><trkpt lat="39.526048549001025" lon="9.131292410018688"><ele>184.4</ele><time>2026-04-28T09:24:23.983Z</time></trkpt><trkpt lat="39.52600654939227" lon="9.13118680479718"><ele>182.2</ele><time>2026-04-28T09:24:24.983Z</time></trkpt><trkpt lat="39.525964610502406" lon="9.131111640717803"><ele>180.0</ele><time>2026-04-28T09:24:25.983Z</time></trkpt><trkpt lat="39.5258501474037" lon="9.131128574822633"><ele>180.0</ele><time>2026-04-28T09:24:28.982Z</time></trkpt><trkpt lat="39.525860275835456" lon="9.13123470253228"><ele>180.0</ele><time>2026-04-28T09:24:30.982Z</time></trkpt><trkpt lat="39.525922014298146" lon="9.131302011247957"><ele>180.0</ele><time>2026-04-28T09:24:31.982Z</time></trkpt><trkpt lat="39.526011498623554" lon="9.131355386906204"><ele>180.0</ele><time>2026-04-28T09:24:32.982Z</time></trkpt><trkpt lat="39.5261094031741" lon="9.13143077057275"><ele>180.0</ele><time>2026-04-28T09:24:33.982Z</time></trkpt><trkpt lat="39.526216136953195" lon="9.131511379728705"><ele>182.75</ele><time>2026-04-28T09:24:34.982Z</time></trkpt><trkpt lat="39.526322758612324" lon="9.131584974981466"><ele>185.5</ele><time>2026-04-28T09:24:35.982Z</time></trkpt><trkpt lat="39.526436974641506" lon="9.131671547857865"><ele>188.25</ele><time>2026-04-28T09:24:36.982Z</time></trkpt><trkpt lat="39.52655685695686" lon="9.131760391361581"><ele>191.0</ele><time>2026-04-28T09:24:37.982Z</time></trkpt><trkpt lat="39.52667975060496" lon="9.131851054451683"><ele>191.0</ele><time>2026-04-28T09:24:38.982Z</time></trkpt><trkpt lat="39.52680387148988" lon="9.131939722832014"><ele>191.0</ele><time>2026-04-28T09:24:39.982Z</time></trkpt><trkpt lat="39.52693165084011" lon="9.132029858007103"><ele>191.0</ele><time>2026-04-28T09:24:40.982Z</time></trkpt><trkpt lat="39.527199516051" lon="9.132136878853812"><ele>191.5</ele><time>2026-04-28T09:24:42.982Z</time></trkpt><trkpt lat="39.527336210364226" lon="9.132164548456897"><ele>192.0</ele><time>2026-04-28T09:24:43.982Z</time></trkpt><trkpt lat="39.52746670887951" lon="9.132169248211712"><ele>192.5</ele><time>2026-04-28T09:24:44.982Z</time></trkpt><trkpt lat="39.527580495706644" lon="9.13216988138794"><ele>193.0</ele><time>2026-04-28T09:24:45.982Z</time></trkpt><trkpt lat="39.52768157190338" lon="9.132184139393107"><ele>192.99999999999997</ele><time>2026-04-28T09:24:46.982Z</time></trkpt><trkpt lat="39.52775922154385" lon="9.132207366094237"><ele>193.0</ele><time>2026-04-28T09:24:47.982Z</time></trkpt><trkpt lat="39.52782628450324" lon="9.132310963501427"><ele>193.0</ele><time>2026-04-28T09:24:49.982Z</time></trkpt><trkpt lat="39.52782063201373" lon="9.13241019545541"><ele>193.0</ele><time>2026-04-28T09:24:51.982Z</time></trkpt><trkpt lat="39.52776963288093" lon="9.132464335794568"><ele>192.99999999999997</ele><time>2026-04-28T09:24:53.982Z</time></trkpt><trkpt lat="39.527692056105444" lon="9.132515638752329"><ele>193.0</ele><time>2026-04-28T09:25:06.982Z</time></trkpt><trkpt lat="39.52757910106105" lon="9.132588833053587"><ele>193.0</ele><time>2026-04-28T09:25:08.982Z</time></trkpt><trkpt lat="39.527490987865136" lon="9.132634027165503"><ele>193.0</ele><time>2026-04-28T09:25:09.982Z</time></trkpt><trkpt lat="39.52739466494913" lon="9.132673364639569"><ele>193.0</ele><time>2026-04-28T09:25:10.982Z</time></trkpt><trkpt lat="39.52729044493986" lon="9.132719351006424"><ele>193.0</ele><time>2026-04-28T09:25:11.982Z</time></trkpt><trkpt lat="39.527181063916885" lon="9.132773352367757"><ele>193.0</ele><time>2026-04-28T09:25:12.982Z</time></trkpt><trkpt lat="39.527058701267585" lon="9.132837491548475"><ele>193.0</ele><time>2026-04-28T09:25:13.982Z</time></trkpt><trkpt lat="39.526928960670276" lon="9.132900339675563"><ele>193.0</ele><time>2026-04-28T09:25:14.982Z</time></trkpt><trkpt lat="39.526799999875955" lon="9.132959791514967"><ele>193.0</ele><time>2026-04-28T09:25:15.982Z</time></trkpt><trkpt lat="39.52666132605248" lon="9.133026947470567"><ele>193.0</ele><time>2026-04-28T09:25:16.982Z</time></trkpt><trkpt lat="39.52651446820358" lon="9.133100277286248"><ele>193.0</ele><time>2026-04-28T09:25:17.982Z</time></trkpt><trkpt lat="39.526360215084495" lon="9.13317778744473"><ele>193.0</ele><time>2026-04-28T09:25:18.982Z</time></trkpt><trkpt lat="39.526043063431764" lon="9.133319759039562"><ele>193.0</ele><time>2026-04-28T09:25:20.982Z</time></trkpt><trkpt lat="39.525872632687104" lon="9.133396160227836"><ele>193.0</ele><time>2026-04-28T09:25:21.982Z</time></trkpt><trkpt lat="39.525695761272964" lon="9.133476980794088"><ele>193.0</ele><time>2026-04-28T09:25:22.982Z</time></trkpt><trkpt lat="39.525518708698414" lon="9.133558479511034"><ele>193.0</ele><time>2026-04-28T09:25:23.982Z</time></trkpt><trkpt lat="39.52533907364026" lon="9.133637497227905"><ele>193.0</ele><time>2026-04-28T09:25:24.982Z</time></trkpt><trkpt lat="39.52516508551763" lon="9.133716127244712"><ele>193.0</ele><time>2026-04-28T09:25:25.982Z</time></trkpt><trkpt lat="39.52499063128066" lon="9.133799399789211"><ele>193.0</ele><time>2026-04-28T09:25:26.982Z</time></trkpt><trkpt lat="39.524814662607135" lon="9.13388119422293"><ele>193.0</ele><time>2026-04-28T09:25:27.982Z</time></trkpt><trkpt lat="39.52463335527202" lon="9.133965233796173"><ele>193.0</ele><time>2026-04-28T09:25:28.982Z</time></trkpt><trkpt lat="39.52445110161506" lon="9.134046366658293"><ele>192.0</ele><time>2026-04-28T09:25:29.982Z</time></trkpt><trkpt lat="39.52426492690907" lon="9.134128262548776"><ele>191.0</ele><time>2026-04-28T09:25:30.982Z</time></trkpt><trkpt lat="39.52408725655694" lon="9.134219535128365"><ele>190.0</ele><time>2026-04-28T09:25:31.982Z</time></trkpt><trkpt lat="39.52391699186823" lon="9.134302786728263"><ele>190.0</ele><time>2026-04-28T09:25:32.982Z</time></trkpt><trkpt lat="39.523766551411754" lon="9.134388915654567"><ele>190.0</ele><time>2026-04-28T09:25:33.982Z</time></trkpt><trkpt lat="39.523621239381974" lon="9.134465842017299"><ele>190.0</ele><time>2026-04-28T09:25:34.982Z</time></trkpt><trkpt lat="39.523463664484424" lon="9.134523580892482"><ele>189.75</ele><time>2026-04-28T09:25:35.982Z</time></trkpt><trkpt lat="39.52331607632444" lon="9.134581929902257"><ele>189.5</ele><time>2026-04-28T09:25:36.982Z</time></trkpt><trkpt lat="39.52318434353515" lon="9.134642384301115"><ele>189.25</ele><time>2026-04-28T09:25:37.983Z</time></trkpt><trkpt lat="39.523074665911416" lon="9.134716983792803"><ele>189.0</ele><time>2026-04-28T09:25:38.982Z</time></trkpt><trkpt lat="39.52297542474607" lon="9.134804744869585"><ele>188.25</ele><time>2026-04-28T09:25:39.982Z</time></trkpt><trkpt lat="39.52287392263324" lon="9.13488789087634"><ele>187.5</ele><time>2026-04-28T09:25:40.982Z</time></trkpt><trkpt lat="39.52276113685709" lon="9.134948773916472"><ele>186.75</ele><time>2026-04-28T09:25:41.982Z</time></trkpt><trkpt lat="39.522635534905056" lon="9.134972506536437"><ele>186.0</ele><time>2026-04-28T09:25:42.982Z</time></trkpt><trkpt lat="39.52248788961873" lon="9.134957821347838"><ele>186.0</ele><time>2026-04-28T09:25:43.982Z</time></trkpt><trkpt lat="39.52233624422443" lon="9.134927261783472"><ele>186.0</ele><time>2026-04-28T09:25:44.982Z</time></trkpt><trkpt lat="39.52217188852886" lon="9.134906852269035"><ele>186.0</ele><time>2026-04-28T09:25:45.982Z</time></trkpt><trkpt lat="39.52199610972561" lon="9.134887012608747"><ele>185.66666666666666</ele><time>2026-04-28T09:25:46.983Z</time></trkpt><trkpt lat="39.521809702284784" lon="9.134869870503422"><ele>185.33333333333331</ele><time>2026-04-28T09:25:47.981Z</time></trkpt><trkpt lat="39.5216170239621" lon="9.134851045819847"><ele>185.0</ele><time>2026-04-28T09:25:48.981Z</time></trkpt><trkpt lat="39.52142128406641" lon="9.134831797283047"><ele>184.66666666666666</ele><time>2026-04-28T09:25:49.981Z</time></trkpt><trkpt lat="39.521210886927236" lon="9.134811375038762"><ele>184.33333333333334</ele><time>2026-04-28T09:25:50.981Z</time></trkpt><trkpt lat="39.52099437846047" lon="9.134788771368372"><ele>184.0</ele><time>2026-04-28T09:25:51.981Z</time></trkpt><trkpt lat="39.52077184385061" lon="9.134762082029424"><ele>184.0</ele><time>2026-04-28T09:25:52.981Z</time></trkpt><trkpt lat="39.52054014029154" lon="9.134739566326305"><ele>184.0</ele><time>2026-04-28T09:25:53.981Z</time></trkpt><trkpt lat="39.52030071449314" lon="9.134719425257742"><ele>184.0</ele><time>2026-04-28T09:25:54.981Z</time></trkpt><trkpt lat="39.52005469089026" lon="9.134696291249178"><ele>184.0</ele><time>2026-04-28T09:25:55.981Z</time></trkpt><trkpt lat="39.519813156749365" lon="9.134673116023798"><ele>184.0</ele><time>2026-04-28T09:25:56.981Z</time></trkpt><trkpt lat="39.519572067360784" lon="9.134649035546847"><ele>184.0</ele><time>2026-04-28T09:25:57.981Z</time></trkpt><trkpt lat="39.519329583702586" lon="9.13462620046684"><ele>183.0</ele><time>2026-04-28T09:25:58.981Z</time></trkpt><trkpt lat="39.51908411503324" lon="9.134601650855199"><ele>182.0</ele><time>2026-04-28T09:25:59.981Z</time></trkpt><trkpt lat="39.518839801339894" lon="9.134573199862706"><ele>182.0</ele><time>2026-04-28T09:26:00.981Z</time></trkpt><trkpt lat="39.518592880022524" lon="9.134545716308175"><ele>182.0</ele><time>2026-04-28T09:26:01.981Z</time></trkpt><trkpt lat="39.51834737937179" lon="9.134522273547418"><ele>182.0</ele><time>2026-04-28T09:26:02.981Z</time></trkpt><trkpt lat="39.51810233236743" lon="9.134500399121016"><ele>182.0</ele><time>2026-04-28T09:26:03.981Z</time></trkpt><trkpt lat="39.51785524829588" lon="9.13447944540807"><ele>182.5</ele><time>2026-04-28T09:26:04.981Z</time></trkpt><trkpt lat="39.51760854019788" lon="9.134456900037035"><ele>183.0</ele><time>2026-04-28T09:26:05.981Z</time></trkpt><trkpt lat="39.51735944809873" lon="9.134432496600187"><ele>183.0</ele><time>2026-04-28T09:26:06.981Z</time></trkpt><trkpt lat="39.51710930377962" lon="9.13440327115025"><ele>183.0</ele><time>2026-04-28T09:26:07.981Z</time></trkpt><trkpt lat="39.51686219233041" lon="9.13438252901851"><ele>182.5</ele><time>2026-04-28T09:26:08.981Z</time></trkpt><trkpt lat="39.51661061671397" lon="9.134361604183685"><ele>182.0</ele><time>2026-04-28T09:26:09.981Z</time></trkpt><trkpt lat="39.51635780407071" lon="9.134339999509374"><ele>182.0</ele><time>2026-04-28T09:26:10.981Z</time></trkpt><trkpt lat="39.51610983572905" lon="9.134316916155896"><ele>182.0</ele><time>2026-04-28T09:26:11.981Z</time></trkpt><trkpt lat="39.51585994199551" lon="9.134289935475076"><ele>182.0</ele><time>2026-04-28T09:26:12.981Z</time></trkpt><trkpt lat="39.5156095400928" lon="9.134264525537418"><ele>182.0</ele><time>2026-04-28T09:26:13.981Z</time></trkpt><trkpt lat="39.51535967051162" lon="9.134239317772519"><ele>181.5</ele><time>2026-04-28T09:26:14.981Z</time></trkpt><trkpt lat="39.51510865901417" lon="9.134217646507347"><ele>181.0</ele><time>2026-04-28T09:26:15.981Z</time></trkpt><trkpt lat="39.51485674428992" lon="9.134190750149326"><ele>181.0</ele><time>2026-04-28T09:26:16.981Z</time></trkpt><trkpt lat="39.51460893375677" lon="9.134165751265517"><ele>181.0</ele><time>2026-04-28T09:26:17.981Z</time></trkpt><trkpt lat="39.5143651198994" lon="9.134139484117126"><ele>181.0</ele><time>2026-04-28T09:26:18.981Z</time></trkpt><trkpt lat="39.51411750616546" lon="9.134115241826658"><ele>181.0</ele><time>2026-04-28T09:26:19.981Z</time></trkpt><trkpt lat="39.513865757765956" lon="9.13408744104276"><ele>181.0</ele><time>2026-04-28T09:26:20.981Z</time></trkpt><trkpt lat="39.513610073593526" lon="9.134061242088487"><ele>181.0</ele><time>2026-04-28T09:26:21.981Z</time></trkpt><trkpt lat="39.51335411954474" lon="9.134037969784046"><ele>182.0</ele><time>2026-04-28T09:26:22.981Z</time></trkpt><trkpt lat="39.513102166944115" lon="9.134011591597856"><ele>183.0</ele><time>2026-04-28T09:26:23.981Z</time></trkpt><trkpt lat="39.51285192669555" lon="9.133984437996357"><ele>183.0</ele><time>2026-04-28T09:26:24.981Z</time></trkpt><trkpt lat="39.51259875460158" lon="9.13395928786305"><ele>183.0</ele><time>2026-04-28T09:26:25.981Z</time></trkpt><trkpt lat="39.51234444065185" lon="9.133938175961713"><ele>183.0</ele><time>2026-04-28T09:26:26.981Z</time></trkpt><trkpt lat="39.51207948549198" lon="9.133921806274044"><ele>183.0</ele><time>2026-04-28T09:26:27.981Z</time></trkpt><trkpt lat="39.51180820994787" lon="9.133919673941541"><ele>182.0</ele><time>2026-04-28T09:26:28.981Z</time></trkpt><trkpt lat="39.5115415577387" lon="9.133930243919462"><ele>181.0</ele><time>2026-04-28T09:26:29.981Z</time></trkpt><trkpt lat="39.51127976056402" lon="9.13394748907475"><ele>179.5</ele><time>2026-04-28T09:26:30.981Z</time></trkpt><trkpt lat="39.51101140991473" lon="9.133960218326111"><ele>178.0</ele><time>2026-04-28T09:26:31.981Z</time></trkpt><trkpt lat="39.51074333723533" lon="9.133971772481658"><ele>178.0</ele><time>2026-04-28T09:26:32.981Z</time></trkpt><trkpt lat="39.5104782794129" lon="9.13398025095005"><ele>178.0</ele><time>2026-04-28T09:26:33.981Z</time></trkpt><trkpt lat="39.51021132007054" lon="9.13399228422968"><ele>178.0</ele><time>2026-04-28T09:26:34.981Z</time></trkpt><trkpt lat="39.50994547317792" lon="9.134001263211609"><ele>178.0</ele><time>2026-04-28T09:26:35.981Z</time></trkpt><trkpt lat="39.50968668168769" lon="9.134011689856282"><ele>177.5</ele><time>2026-04-28T09:26:36.981Z</time></trkpt><trkpt lat="39.50943232293088" lon="9.134024317790217"><ele>177.0</ele><time>2026-04-28T09:26:37.981Z</time></trkpt><trkpt lat="39.50918394417657" lon="9.134036714179818"><ele>177.0</ele><time>2026-04-28T09:26:38.981Z</time></trkpt><trkpt lat="39.50893459083852" lon="9.134044812826657"><ele>177.0</ele><time>2026-04-28T09:26:39.981Z</time></trkpt><trkpt lat="39.50868156135505" lon="9.134057622956142"><ele>177.0</ele><time>2026-04-28T09:26:40.981Z</time></trkpt><trkpt lat="39.508428281351094" lon="9.134075361349346"><ele>177.0</ele><time>2026-04-28T09:26:41.981Z</time></trkpt><trkpt lat="39.50817742464555" lon="9.134089905077689"><ele>177.0</ele><time>2026-04-28T09:26:42.981Z</time></trkpt><trkpt lat="39.507933904146235" lon="9.134104348472595"><ele>177.0</ele><time>2026-04-28T09:26:43.981Z</time></trkpt><trkpt lat="39.50769030286579" lon="9.134116299890328"><ele>175.5</ele><time>2026-04-28T09:26:44.981Z</time></trkpt><trkpt lat="39.507446040227705" lon="9.13411852559845"><ele>174.0</ele><time>2026-04-28T09:26:45.981Z</time></trkpt><trkpt lat="39.50720810307586" lon="9.134126536812593"><ele>172.66666666666666</ele><time>2026-04-28T09:26:46.981Z</time></trkpt><trkpt lat="39.506983680666934" lon="9.134133807689517"><ele>171.33333333333331</ele><time>2026-04-28T09:26:47.981Z</time></trkpt><trkpt lat="39.50676462668134" lon="9.134135923941285"><ele>170.0</ele><time>2026-04-28T09:26:48.981Z</time></trkpt><trkpt lat="39.50656124084445" lon="9.134141683889613"><ele>170.0</ele><time>2026-04-28T09:26:49.981Z</time></trkpt><trkpt lat="39.50636821491157" lon="9.134143311489666"><ele>170.0</ele><time>2026-04-28T09:26:50.981Z</time></trkpt><trkpt lat="39.50618832834937" lon="9.134151830899361"><ele>170.0</ele><time>2026-04-28T09:26:51.981Z</time></trkpt><trkpt lat="39.50602160123992" lon="9.134158482660261"><ele>169.25</ele><time>2026-04-28T09:26:52.981Z</time></trkpt><trkpt lat="39.50586561471706" lon="9.134167382848098"><ele>168.5</ele><time>2026-04-28T09:26:53.98Z</time></trkpt><trkpt lat="39.50572491332251" lon="9.134199528874035"><ele>167.75</ele><time>2026-04-28T09:26:54.98Z</time></trkpt><trkpt lat="39.50560749635232" lon="9.13427517842867"><ele>167.0</ele><time>2026-04-28T09:26:55.98Z</time></trkpt><trkpt lat="39.50548602505465" lon="9.134396912170061"><ele>166.66666666666666</ele><time>2026-04-28T09:26:56.98Z</time></trkpt><trkpt lat="39.505374675871025" lon="9.134572259821697"><ele>166.33333333333334</ele><time>2026-04-28T09:26:57.98Z</time></trkpt><trkpt lat="39.505248481015904" lon="9.134772193846613"><ele>166.0</ele><time>2026-04-28T09:26:58.98Z</time></trkpt><trkpt lat="39.505105050543136" lon="9.134960373325676"><ele>165.66666666666669</ele><time>2026-04-28T09:26:59.98Z</time></trkpt><trkpt lat="39.50495150766614" lon="9.135141739005514"><ele>165.33333333333334</ele><time>2026-04-28T09:27:00.98Z</time></trkpt><trkpt lat="39.50482923822061" lon="9.135295166144724"><ele>165.0</ele><time>2026-04-28T09:27:01.98Z</time></trkpt><trkpt lat="39.50474039236208" lon="9.135427312090501"><ele>165.0</ele><time>2026-04-28T09:27:02.98Z</time></trkpt><trkpt lat="39.50469801658891" lon="9.135596117524777"><ele>165.0</ele><time>2026-04-28T09:27:03.98Z</time></trkpt><trkpt lat="39.504705829986534" lon="9.135811995754219"><ele>165.0</ele><time>2026-04-28T09:27:04.98Z</time></trkpt><trkpt lat="39.50474889521113" lon="9.136033535205733"><ele>165.33333333333334</ele><time>2026-04-28T09:27:05.98Z</time></trkpt><trkpt lat="39.50477092295782" lon="9.136264589630132"><ele>165.66666666666669</ele><time>2026-04-28T09:27:06.98Z</time></trkpt><trkpt lat="39.50474763039984" lon="9.136505288190717"><ele>166.0</ele><time>2026-04-28T09:27:07.98Z</time></trkpt><trkpt lat="39.50467926232805" lon="9.136733948540662"><ele>166.0</ele><time>2026-04-28T09:27:08.98Z</time></trkpt><trkpt lat="39.50460112512923" lon="9.136955014537964"><ele>166.0</ele><time>2026-04-28T09:27:09.98Z</time></trkpt><trkpt lat="39.504519253545304" lon="9.13716286768097"><ele>166.0</ele><time>2026-04-28T09:27:10.98Z</time></trkpt><trkpt lat="39.504437515042774" lon="9.137398731465499"><ele>168.66666666666669</ele><time>2026-04-28T09:27:11.98Z</time></trkpt><trkpt lat="39.50436094355499" lon="9.137654653555702"><ele>171.33333333333334</ele><time>2026-04-28T09:27:12.98Z</time></trkpt><trkpt lat="39.50429031024811" lon="9.1379243611185"><ele>174.0</ele><time>2026-04-28T09:27:13.98Z</time></trkpt><trkpt lat="39.504236108595855" lon="9.138208070273196"><ele>172.5</ele><time>2026-04-28T09:27:14.98Z</time></trkpt><trkpt lat="39.50418500032212" lon="9.138500343318364"><ele>171.0</ele><time>2026-04-28T09:27:15.98Z</time></trkpt><trkpt lat="39.50415047061635" lon="9.138790918994367"><ele>170.5</ele><time>2026-04-28T09:27:16.98Z</time></trkpt><trkpt lat="39.504131441308125" lon="9.139090525265958"><ele>170.0</ele><time>2026-04-28T09:27:17.98Z</time></trkpt><trkpt lat="39.504111084969" lon="9.13939450249707"><ele>170.0</ele><time>2026-04-28T09:27:18.98Z</time></trkpt><trkpt lat="39.50409606348023" lon="9.139699988538814"><ele>170.0</ele><time>2026-04-28T09:27:19.98Z</time></trkpt><trkpt lat="39.504077585930624" lon="9.140002221598799"><ele>171.0</ele><time>2026-04-28T09:27:20.98Z</time></trkpt><trkpt lat="39.50406077351834" lon="9.140293185405369"><ele>172.0</ele><time>2026-04-28T09:27:21.98Z</time></trkpt><trkpt lat="39.504023111401075" lon="9.140571892641406"><ele>173.0</ele><time>2026-04-28T09:27:22.98Z</time></trkpt><trkpt lat="39.503941240112674" lon="9.140836356288569"><ele>173.0</ele><time>2026-04-28T09:27:23.98Z</time></trkpt><trkpt lat="39.50383456080496" lon="9.141087684690204"><ele>173.0</ele><time>2026-04-28T09:27:24.98Z</time></trkpt><trkpt lat="39.50372636167583" lon="9.141309304542823"><ele>173.0</ele><time>2026-04-28T09:27:25.98Z</time></trkpt><trkpt lat="39.50359388975523" lon="9.141469920219931"><ele>175.0</ele><time>2026-04-28T09:27:26.98Z</time></trkpt><trkpt lat="39.50341709062436" lon="9.141569378353463"><ele>177.0</ele><time>2026-04-28T09:27:27.98Z</time></trkpt><trkpt lat="39.50321313207029" lon="9.141656579775583"><ele>179.0</ele><time>2026-04-28T09:27:28.98Z</time></trkpt><trkpt lat="39.50299947084031" lon="9.141743186749888"><ele>181.66666666666666</ele><time>2026-04-28T09:27:29.98Z</time></trkpt><trkpt lat="39.5027908015597" lon="9.141839345020445"><ele>184.33333333333334</ele><time>2026-04-28T09:27:30.98Z</time></trkpt><trkpt lat="39.50260721207989" lon="9.14196870723725"><ele>187.0</ele><time>2026-04-28T09:27:31.98Z</time></trkpt><trkpt lat="39.50244685067512" lon="9.142176152179582"><ele>187.0</ele><time>2026-04-28T09:27:32.98Z</time></trkpt><trkpt lat="39.50230623930323" lon="9.142363378034245"><ele>187.0</ele><time>2026-04-28T09:27:33.98Z</time></trkpt><trkpt lat="39.502116792258285" lon="9.14250510883379"><ele>187.0</ele><time>2026-04-28T09:27:34.98Z</time></trkpt><trkpt lat="39.50190956682694" lon="9.142636664392544"><ele>189.0</ele><time>2026-04-28T09:27:35.98Z</time></trkpt><trkpt lat="39.5016956429105" lon="9.14277236678526"><ele>191.0</ele><time>2026-04-28T09:27:36.98Z</time></trkpt><trkpt lat="39.501479215509676" lon="9.142905704986658"><ele>191.0</ele><time>2026-04-28T09:27:37.98Z</time></trkpt><trkpt lat="39.501253515915614" lon="9.14301886121019"><ele>191.0</ele><time>2026-04-28T09:27:38.98Z</time></trkpt><trkpt lat="39.501024618467056" lon="9.143121231996489"><ele>191.5</ele><time>2026-04-28T09:27:39.98Z</time></trkpt><trkpt lat="39.50080105140508" lon="9.14324293070971"><ele>192.0</ele><time>2026-04-28T09:27:40.981Z</time></trkpt><trkpt lat="39.500604877769476" lon="9.14342291684578"><ele>192.0</ele><time>2026-04-28T09:27:41.981Z</time></trkpt><trkpt lat="39.50044456740222" lon="9.143624590833943"><ele>192.0</ele><time>2026-04-28T09:27:42.981Z</time></trkpt><trkpt lat="39.50030207862269" lon="9.143808309035261"><ele>192.0</ele><time>2026-04-28T09:27:43.981Z</time></trkpt><trkpt lat="39.50012583822937" lon="9.143900733229248"><ele>193.0</ele><time>2026-04-28T09:27:44.981Z</time></trkpt><trkpt lat="39.49991653484315" lon="9.143936808689585"><ele>194.0</ele><time>2026-04-28T09:27:45.981Z</time></trkpt><trkpt lat="39.49970476182894" lon="9.144019331614643"><ele>195.0</ele><time>2026-04-28T09:27:46.982Z</time></trkpt><trkpt lat="39.49952005237933" lon="9.144165892317247"><ele>196.0</ele><time>2026-04-28T09:27:47.981Z</time></trkpt><trkpt lat="39.49934197071917" lon="9.144334580388945"><ele>197.0</ele><time>2026-04-28T09:27:48.981Z</time></trkpt><trkpt lat="39.499154714583696" lon="9.144485867297933"><ele>198.0</ele><time>2026-04-28T09:27:49.981Z</time></trkpt><trkpt lat="39.49896540891808" lon="9.14463883070084"><ele>198.0</ele><time>2026-04-28T09:27:50.981Z</time></trkpt><trkpt lat="39.49878421193299" lon="9.14480690165252"><ele>198.0</ele><time>2026-04-28T09:27:51.981Z</time></trkpt><trkpt lat="39.498594644740805" lon="9.144972956060421"><ele>200.66666666666669</ele><time>2026-04-28T09:27:52.98Z</time></trkpt><trkpt lat="39.498412507712736" lon="9.145120977143657"><ele>203.33333333333334</ele><time>2026-04-28T09:27:53.982Z</time></trkpt><trkpt lat="39.49823681444017" lon="9.145247062363248"><ele>206.0</ele><time>2026-04-28T09:27:54.981Z</time></trkpt><trkpt lat="39.49803638068444" lon="9.145313414091726"><ele>207.66666666666669</ele><time>2026-04-28T09:27:55.981Z</time></trkpt><trkpt lat="39.49784672456081" lon="9.145389313069375"><ele>209.33333333333331</ele><time>2026-04-28T09:27:56.981Z</time></trkpt><trkpt lat="39.497651004984085" lon="9.145434640034603"><ele>211.0</ele><time>2026-04-28T09:27:57.981Z</time></trkpt><trkpt lat="39.497463118708026" lon="9.145396497041697"><ele>211.0</ele><time>2026-04-28T09:27:58.981Z</time></trkpt><trkpt lat="39.49726169508143" lon="9.145323476164453"><ele>211.0</ele><time>2026-04-28T09:27:59.981Z</time></trkpt><trkpt lat="39.49709319775714" lon="9.145183595816352"><ele>211.0</ele><time>2026-04-28T09:28:00.981Z</time></trkpt><trkpt lat="39.496952292463504" lon="9.14499877973347"><ele>211.33333333333331</ele><time>2026-04-28T09:28:01.981Z</time></trkpt><trkpt lat="39.49682460952381" lon="9.144786193950848"><ele>211.66666666666669</ele><time>2026-04-28T09:28:02.981Z</time></trkpt><trkpt lat="39.49669963941546" lon="9.144595916569157"><ele>212.0</ele><time>2026-04-28T09:28:03.981Z</time></trkpt><trkpt lat="39.49654001520311" lon="9.144462979438352"><ele>212.0</ele><time>2026-04-28T09:28:04.981Z</time></trkpt><trkpt lat="39.496351207254946" lon="9.144412683619386"><ele>212.0</ele><time>2026-04-28T09:28:05.981Z</time></trkpt><trkpt lat="39.49614606263014" lon="9.144434152200539"><ele>212.0</ele><time>2026-04-28T09:28:06.981Z</time></trkpt><trkpt lat="39.49592892018153" lon="9.144512543329471"><ele>211.0</ele><time>2026-04-28T09:28:07.981Z</time></trkpt><trkpt lat="39.495704256749484" lon="9.144583204913838"><ele>210.0</ele><time>2026-04-28T09:28:08.981Z</time></trkpt><trkpt lat="39.4955314146434" lon="9.144664788085041"><ele>209.0</ele><time>2026-04-28T09:28:09.981Z</time></trkpt><trkpt lat="39.49539510585942" lon="9.144837401974039"><ele>211.33333333333334</ele><time>2026-04-28T09:28:10.981Z</time></trkpt><trkpt lat="39.49530944480777" lon="9.145075363699469"><ele>213.66666666666669</ele><time>2026-04-28T09:28:11.981Z</time></trkpt><trkpt lat="39.49528906052158" lon="9.145351616546314"><ele>216.0</ele><time>2026-04-28T09:28:12.981Z</time></trkpt><trkpt lat="39.495253238019885" lon="9.145625375595468"><ele>218.66666666666669</ele><time>2026-04-28T09:28:13.981Z</time></trkpt><trkpt lat="39.495205467575225" lon="9.145893482739142"><ele>221.33333333333334</ele><time>2026-04-28T09:28:14.981Z</time></trkpt><trkpt lat="39.49514222015861" lon="9.146161300039745"><ele>224.0</ele><time>2026-04-28T09:28:15.981Z</time></trkpt><trkpt lat="39.495074316197034" lon="9.146428653747531"><ele>225.5</ele><time>2026-04-28T09:28:16.981Z</time></trkpt><trkpt lat="39.49500504261784" lon="9.146711724574963"><ele>227.0</ele><time>2026-04-28T09:28:17.981Z</time></trkpt><trkpt lat="39.494936286566045" lon="9.14700213388343"><ele>227.0</ele><time>2026-04-28T09:28:18.981Z</time></trkpt><trkpt lat="39.494871290376736" lon="9.147297465950272"><ele>227.0</ele><time>2026-04-28T09:28:19.981Z</time></trkpt><trkpt lat="39.49480584792505" lon="9.147595001448359"><ele>226.66666666666669</ele><time>2026-04-28T09:28:20.981Z</time></trkpt><trkpt lat="39.49474392641581" lon="9.147877912770761"><ele>226.33333333333331</ele><time>2026-04-28T09:28:21.981Z</time></trkpt><trkpt lat="39.49468214013235" lon="9.148142353395635"><ele>226.0</ele><time>2026-04-28T09:28:22.981Z</time></trkpt><trkpt lat="39.49461428103064" lon="9.14839405054422"><ele>223.66666666666666</ele><time>2026-04-28T09:28:23.981Z</time></trkpt><trkpt lat="39.494498927356844" lon="9.148615645553587"><ele>221.33333333333331</ele><time>2026-04-28T09:28:24.981Z</time></trkpt><trkpt lat="39.494334076155035" lon="9.148799506803837"><ele>219.0</ele><time>2026-04-28T09:28:25.981Z</time></trkpt><trkpt lat="39.49413351265334" lon="9.148934292516058"><ele>218.5</ele><time>2026-04-28T09:28:26.981Z</time></trkpt><trkpt lat="39.493930835003674" lon="9.149057450421141"><ele>218.0</ele><time>2026-04-28T09:28:27.981Z</time></trkpt><trkpt lat="39.49371618151367" lon="9.149182745852707"><ele>215.5</ele><time>2026-04-28T09:28:28.981Z</time></trkpt><trkpt lat="39.49350806473445" lon="9.149315677194101"><ele>213.0</ele><time>2026-04-28T09:28:29.981Z</time></trkpt><trkpt lat="39.49330279980033" lon="9.149440348357789"><ele>213.0</ele><time>2026-04-28T09:28:30.981Z</time></trkpt><trkpt lat="39.493117055527456" lon="9.149563911247451"><ele>213.0</ele><time>2026-04-28T09:28:31.981Z</time></trkpt><trkpt lat="39.49294605231176" lon="9.149717990625193"><ele>213.0</ele><time>2026-04-28T09:28:32.981Z</time></trkpt><trkpt lat="39.492805903247444" lon="9.149892858120246"><ele>211.0</ele><time>2026-04-28T09:28:33.981Z</time></trkpt><trkpt lat="39.492699011161676" lon="9.150069890403923"><ele>209.0</ele><time>2026-04-28T09:28:34.981Z</time></trkpt><trkpt lat="39.492662246836616" lon="9.150278710744091"><ele>207.0</ele><time>2026-04-28T09:28:35.981Z</time></trkpt><trkpt lat="39.49270911075535" lon="9.150517822144767"><ele>206.66666666666669</ele><time>2026-04-28T09:28:36.981Z</time></trkpt><trkpt lat="39.49277093363516" lon="9.150768095949376"><ele>206.33333333333334</ele><time>2026-04-28T09:28:37.981Z</time></trkpt><trkpt lat="39.4928336001661" lon="9.151008549278242"><ele>206.0</ele><time>2026-04-28T09:28:38.981Z</time></trkpt><trkpt lat="39.49284655425816" lon="9.151224163419467"><ele>206.0</ele><time>2026-04-28T09:28:39.981Z</time></trkpt><trkpt lat="39.49277602797328" lon="9.151398025729907"><ele>206.0</ele><time>2026-04-28T09:28:40.981Z</time></trkpt><trkpt lat="39.49263709910699" lon="9.151533516408643"><ele>206.0</ele><time>2026-04-28T09:28:41.981Z</time></trkpt><trkpt lat="39.49246584338739" lon="9.151589109127729"><ele>206.0</ele><time>2026-04-28T09:28:42.981Z</time></trkpt><trkpt lat="39.49227408640668" lon="9.151565788282511"><ele>206.0</ele><time>2026-04-28T09:28:43.981Z</time></trkpt><trkpt lat="39.49208014317958" lon="9.151529074365941"><ele>206.0</ele><time>2026-04-28T09:28:44.981Z</time></trkpt><trkpt lat="39.4918939912774" lon="9.151511118098004"><ele>205.5</ele><time>2026-04-28T09:28:45.981Z</time></trkpt><trkpt lat="39.491748826605004" lon="9.15148348336409"><ele>205.0</ele><time>2026-04-28T09:28:46.981Z</time></trkpt><trkpt lat="39.49163863063326" lon="9.151380620083232"><ele>204.5</ele><time>2026-04-28T09:28:47.981Z</time></trkpt><trkpt lat="39.49155494742754" lon="9.151213340475474"><ele>204.0</ele><time>2026-04-28T09:28:48.981Z</time></trkpt><trkpt lat="39.49148462402947" lon="9.151037203753408"><ele>204.0</ele><time>2026-04-28T09:28:49.981Z</time></trkpt><trkpt lat="39.491376212384104" lon="9.15091644332625"><ele>204.0</ele><time>2026-04-28T09:28:50.981Z</time></trkpt><trkpt lat="39.49121920131319" lon="9.15087953332005"><ele>204.0</ele><time>2026-04-28T09:28:51.981Z</time></trkpt><trkpt lat="39.49103708026615" lon="9.150915651700775"><ele>205.33333333333331</ele><time>2026-04-28T09:28:52.981Z</time></trkpt><trkpt lat="39.490832945201795" lon="9.150955406803703"><ele>206.66666666666666</ele><time>2026-04-28T09:28:53.981Z</time></trkpt><trkpt lat="39.49062066870078" lon="9.150979353188783"><ele>208.0</ele><time>2026-04-28T09:28:54.981Z</time></trkpt><trkpt lat="39.490418192411646" lon="9.151000393667715"><ele>208.33333333333331</ele><time>2026-04-28T09:28:55.981Z</time></trkpt><trkpt lat="39.490235974537015" lon="9.151029838078482"><ele>208.66666666666669</ele><time>2026-04-28T09:28:56.981Z</time></trkpt><trkpt lat="39.49007451739932" lon="9.15112436880165"><ele>209.0</ele><time>2026-04-28T09:28:57.981Z</time></trkpt><trkpt lat="39.48993779269717" lon="9.151297540120943"><ele>209.0</ele><time>2026-04-28T09:28:58.981Z</time></trkpt><trkpt lat="39.489812976267274" lon="9.151504141688333"><ele>209.0</ele><time>2026-04-28T09:28:59.981Z</time></trkpt><trkpt lat="39.48967410360907" lon="9.151712198837663"><ele>209.0</ele><time>2026-04-28T09:29:00.98Z</time></trkpt><trkpt lat="39.489495358576754" lon="9.15186258076014"><ele>211.66666666666669</ele><time>2026-04-28T09:29:01.98Z</time></trkpt><trkpt lat="39.489294621308815" lon="9.151965312957115"><ele>214.33333333333331</ele><time>2026-04-28T09:29:02.98Z</time></trkpt><trkpt lat="39.489103411037256" lon="9.152062712199431"><ele>217.0</ele><time>2026-04-28T09:29:03.98Z</time></trkpt><trkpt lat="39.488897344764595" lon="9.152156368094778"><ele>217.66666666666666</ele><time>2026-04-28T09:29:04.98Z</time></trkpt><trkpt lat="39.48868757187347" lon="9.152251209635464"><ele>218.33333333333331</ele><time>2026-04-28T09:29:05.98Z</time></trkpt><trkpt lat="39.48848303124444" lon="9.15234932227803"><ele>219.0</ele><time>2026-04-28T09:29:06.98Z</time></trkpt><trkpt lat="39.48828492520539" lon="9.152454255133863"><ele>220.0</ele><time>2026-04-28T09:29:07.98Z</time></trkpt><trkpt lat="39.48811595750813" lon="9.152611982693678"><ele>221.0</ele><time>2026-04-28T09:29:08.98Z</time></trkpt><trkpt lat="39.48797692883884" lon="9.152812039327957"><ele>222.0</ele><time>2026-04-28T09:29:09.98Z</time></trkpt><trkpt lat="39.48783899120028" lon="9.153022079027048"><ele>223.0</ele><time>2026-04-28T09:29:10.98Z</time></trkpt><trkpt lat="39.48769666484768" lon="9.153233957658342"><ele>224.0</ele><time>2026-04-28T09:29:11.98Z</time></trkpt><trkpt lat="39.487553898633536" lon="9.153451486376536"><ele>225.0</ele><time>2026-04-28T09:29:12.98Z</time></trkpt><trkpt lat="39.48740880154367" lon="9.153663168844645"><ele>225.0</ele><time>2026-04-28T09:29:13.98Z</time></trkpt><trkpt lat="39.48726737001086" lon="9.153861716923533"><ele>225.0</ele><time>2026-04-28T09:29:14.98Z</time></trkpt><trkpt lat="39.487141599233894" lon="9.154079132436827"><ele>225.0</ele><time>2026-04-28T09:29:15.98Z</time></trkpt><trkpt lat="39.48704061216776" lon="9.154328041757157"><ele>226.0</ele><time>2026-04-28T09:29:16.98Z</time></trkpt><trkpt lat="39.48697367134945" lon="9.154600892205524"><ele>227.0</ele><time>2026-04-28T09:29:17.98Z</time></trkpt><trkpt lat="39.48689575120126" lon="9.15487821583153"><ele>228.0</ele><time>2026-04-28T09:29:18.98Z</time></trkpt><trkpt lat="39.486819299114515" lon="9.155145327622177"><ele>229.33333333333331</ele><time>2026-04-28T09:29:19.98Z</time></trkpt><trkpt lat="39.486749911291675" lon="9.155407455372961"><ele>230.66666666666666</ele><time>2026-04-28T09:29:20.98Z</time></trkpt><trkpt lat="39.486667737038005" lon="9.155662670519185"><ele>232.0</ele><time>2026-04-28T09:29:21.98Z</time></trkpt><trkpt lat="39.48653309103877" lon="9.155908788889128"><ele>233.0</ele><time>2026-04-28T09:29:22.98Z</time></trkpt><trkpt lat="39.486377866404375" lon="9.156130702542553"><ele>234.0</ele><time>2026-04-28T09:29:23.98Z</time></trkpt><trkpt lat="39.486225659028705" lon="9.156340241819079"><ele>235.33333333333331</ele><time>2026-04-28T09:29:24.98Z</time></trkpt><trkpt lat="39.486074256732756" lon="9.156549850495717"><ele>236.66666666666666</ele><time>2026-04-28T09:29:25.98Z</time></trkpt><trkpt lat="39.48593814373563" lon="9.156757524632264"><ele>238.0</ele><time>2026-04-28T09:29:26.98Z</time></trkpt><trkpt lat="39.485835453626734" lon="9.157005306654657"><ele>238.0</ele><time>2026-04-28T09:29:27.98Z</time></trkpt><trkpt lat="39.48578063264878" lon="9.157286861187133"><ele>238.0</ele><time>2026-04-28T09:29:28.98Z</time></trkpt><trkpt lat="39.485738643026664" lon="9.157568707447739"><ele>238.0</ele><time>2026-04-28T09:29:29.98Z</time></trkpt><trkpt lat="39.48568273085104" lon="9.157843567961358"><ele>240.0</ele><time>2026-04-28T09:29:30.98Z</time></trkpt><trkpt lat="39.48558354386823" lon="9.158103890548475"><ele>242.0</ele><time>2026-04-28T09:29:31.98Z</time></trkpt><trkpt lat="39.4854361711621" lon="9.158329732512858"><ele>243.5</ele><time>2026-04-28T09:29:32.98Z</time></trkpt><trkpt lat="39.485269623460596" lon="9.158523249470397"><ele>245.0</ele><time>2026-04-28T09:29:33.98Z</time></trkpt><trkpt lat="39.485097536451455" lon="9.158736520712534"><ele>245.0</ele><time>2026-04-28T09:29:34.98Z</time></trkpt><trkpt lat="39.484934432139944" lon="9.15895166594772"><ele>245.0</ele><time>2026-04-28T09:29:35.98Z</time></trkpt><trkpt lat="39.484791667238525" lon="9.159173636678496"><ele>248.0</ele><time>2026-04-28T09:29:36.98Z</time></trkpt><trkpt lat="39.48469008969422" lon="9.15943245547607"><ele>251.0</ele><time>2026-04-28T09:29:37.98Z</time></trkpt><trkpt lat="39.484630559089304" lon="9.159714204717787"><ele>251.0</ele><time>2026-04-28T09:29:38.98Z</time></trkpt><trkpt lat="39.48456726982603" lon="9.159986653744355"><ele>251.0</ele><time>2026-04-28T09:29:39.98Z</time></trkpt><trkpt lat="39.484492783359855" lon="9.160260325408093"><ele>251.0</ele><time>2026-04-28T09:29:40.98Z</time></trkpt><trkpt lat="39.48439717548029" lon="9.160528807989335"><ele>253.5</ele><time>2026-04-28T09:29:41.98Z</time></trkpt><trkpt lat="39.48426915324989" lon="9.160781243071785"><ele>256.0</ele><time>2026-04-28T09:29:42.98Z</time></trkpt><trkpt lat="39.48412219046" lon="9.1610160830519"><ele>256.0</ele><time>2026-04-28T09:29:43.98Z</time></trkpt><trkpt lat="39.483982660834116" lon="9.16124557758569"><ele>256.0</ele><time>2026-04-28T09:29:44.98Z</time></trkpt><trkpt lat="39.48384776551118" lon="9.161470313553407"><ele>256.0</ele><time>2026-04-28T09:29:45.98Z</time></trkpt><trkpt lat="39.483710501789545" lon="9.161692751591328"><ele>257.0</ele><time>2026-04-28T09:29:46.98Z</time></trkpt><trkpt lat="39.48356384375048" lon="9.161901191648857"><ele>258.0</ele><time>2026-04-28T09:29:47.98Z</time></trkpt><trkpt lat="39.48337183478456" lon="9.162046892277534"><ele>259.0</ele><time>2026-04-28T09:29:48.98Z</time></trkpt><trkpt lat="39.483163733095424" lon="9.16214006397707"><ele>259.0</ele><time>2026-04-28T09:29:49.98Z</time></trkpt><trkpt lat="39.48294197252871" lon="9.162175136359211"><ele>259.0</ele><time>2026-04-28T09:29:50.98Z</time></trkpt><trkpt lat="39.482713154012544" lon="9.16217599111557"><ele>260.5</ele><time>2026-04-28T09:29:51.98Z</time></trkpt><trkpt lat="39.48248591431634" lon="9.16218685716141"><ele>262.0</ele><time>2026-04-28T09:29:52.981Z</time></trkpt><trkpt lat="39.482252355943615" lon="9.162213624795594"><ele>262.5</ele><time>2026-04-28T09:29:53.98Z</time></trkpt><trkpt lat="39.482016729629414" lon="9.16224504318555"><ele>263.0</ele><time>2026-04-28T09:29:54.98Z</time></trkpt><trkpt lat="39.481780501298005" lon="9.162273932176207"><ele>263.0</ele><time>2026-04-28T09:29:55.98Z</time></trkpt><trkpt lat="39.48154415919953" lon="9.1623023102954"><ele>263.0</ele><time>2026-04-28T09:29:56.98Z</time></trkpt><trkpt lat="39.48131650554919" lon="9.162342456062177"><ele>267.5</ele><time>2026-04-28T09:29:57.98Z</time></trkpt><trkpt lat="39.48109458395261" lon="9.162406451757278"><ele>272.0</ele><time>2026-04-28T09:29:58.98Z</time></trkpt><trkpt lat="39.48086932355979" lon="9.162495102252572"><ele>272.0</ele><time>2026-04-28T09:29:59.98Z</time></trkpt><trkpt lat="39.48064470393283" lon="9.162604290604824"><ele>272.0</ele><time>2026-04-28T09:30:00.98Z</time></trkpt><trkpt lat="39.48042551459852" lon="9.162725751919655"><ele>272.0</ele><time>2026-04-28T09:30:01.98Z</time></trkpt><trkpt lat="39.4802177624338" lon="9.162848294809315"><ele>272.0</ele><time>2026-04-28T09:30:02.98Z</time></trkpt><trkpt lat="39.48003456315043" lon="9.162976762758245"><ele>272.0</ele><time>2026-04-28T09:30:03.98Z</time></trkpt><trkpt lat="39.47987676325316" lon="9.16312699267799"><ele>272.6666666666667</ele><time>2026-04-28T09:30:04.98Z</time></trkpt><trkpt lat="39.47975575638242" lon="9.16329342053729"><ele>273.3333333333333</ele><time>2026-04-28T09:30:05.98Z</time></trkpt><trkpt lat="39.479658114666194" lon="9.16344680984059"><ele>274.0</ele><time>2026-04-28T09:30:06.98Z</time></trkpt><trkpt lat="39.47956672840714" lon="9.163590595057464"><ele>274.0</ele><time>2026-04-28T09:30:07.98Z</time></trkpt><trkpt lat="39.47947194275895" lon="9.16372889206937"><ele>274.0</ele><time>2026-04-28T09:30:08.98Z</time></trkpt><trkpt lat="39.479379571567634" lon="9.16385970497511"><ele>274.0</ele><time>2026-04-28T09:30:09.98Z</time></trkpt><trkpt lat="39.47929335939877" lon="9.163976523579988"><ele>274.0</ele><time>2026-04-28T09:30:10.98Z</time></trkpt><trkpt lat="39.47921662644695" lon="9.164086009165217"><ele>274.8</ele><time>2026-04-28T09:30:11.98Z</time></trkpt><trkpt lat="39.47914587880327" lon="9.164195802173984"><ele>275.59999999999997</ele><time>2026-04-28T09:30:12.98Z</time></trkpt><trkpt lat="39.47908514949002" lon="9.164299843469422"><ele>276.4</ele><time>2026-04-28T09:30:13.98Z</time></trkpt><trkpt lat="39.47903942596336" lon="9.164406951533921"><ele>277.2</ele><time>2026-04-28T09:30:14.98Z</time></trkpt><trkpt lat="39.479014338095794" lon="9.16451672731759"><ele>278.0</ele><time>2026-04-28T09:30:15.98Z</time></trkpt><trkpt lat="39.47899975574562" lon="9.164640301021562"><ele>278.0</ele><time>2026-04-28T09:30:16.98Z</time></trkpt><trkpt lat="39.47899224991105" lon="9.164774783065138"><ele>278.0</ele><time>2026-04-28T09:30:17.98Z</time></trkpt><trkpt lat="39.478990092892445" lon="9.16491730109379"><ele>278.0</ele><time>2026-04-28T09:30:18.98Z</time></trkpt><trkpt lat="39.47898922231112" lon="9.165063306381384"><ele>278.0</ele><time>2026-04-28T09:30:19.98Z</time></trkpt><trkpt lat="39.47899447465316" lon="9.165220276193237"><ele>278.0</ele><time>2026-04-28T09:30:20.98Z</time></trkpt><trkpt lat="39.47900118845915" lon="9.165386856371617"><ele>278.5</ele><time>2026-04-28T09:30:21.98Z</time></trkpt><trkpt lat="39.47900710874655" lon="9.165559589136546"><ele>279.0</ele><time>2026-04-28T09:30:22.98Z</time></trkpt><trkpt lat="39.47900881735283" lon="9.165731897752377"><ele>279.5</ele><time>2026-04-28T09:30:23.98Z</time></trkpt><trkpt lat="39.479010644326465" lon="9.165905129242386"><ele>280.0</ele><time>2026-04-28T09:30:24.98Z</time></trkpt><trkpt lat="39.479016419641106" lon="9.166087750579397"><ele>280.25</ele><time>2026-04-28T09:30:25.98Z</time></trkpt><trkpt lat="39.47902178329662" lon="9.166269435311134"><ele>280.5</ele><time>2026-04-28T09:30:26.98Z</time></trkpt><trkpt lat="39.479022446837824" lon="9.166446877393613"><ele>280.75</ele><time>2026-04-28T09:30:27.98Z</time></trkpt><trkpt lat="39.479020029379605" lon="9.166616394181796"><ele>281.0</ele><time>2026-04-28T09:30:28.98Z</time></trkpt><trkpt lat="39.479007716049054" lon="9.166772756843258"><ele>281.5</ele><time>2026-04-28T09:30:29.98Z</time></trkpt><trkpt lat="39.47897876978141" lon="9.166916443403228"><ele>282.0</ele><time>2026-04-28T09:30:30.98Z</time></trkpt><trkpt lat="39.47892540965299" lon="9.167047550476237"><ele>282.5</ele><time>2026-04-28T09:30:31.98Z</time></trkpt><trkpt lat="39.47886723317605" lon="9.1671704385027"><ele>283.0</ele><time>2026-04-28T09:30:32.98Z</time></trkpt><trkpt lat="39.478805769637226" lon="9.167290820213546"><ele>283.0</ele><time>2026-04-28T09:30:33.98Z</time></trkpt><trkpt lat="39.47874763575132" lon="9.167413593343145"><ele>283.0</ele><time>2026-04-28T09:30:34.98Z</time></trkpt><trkpt lat="39.47869067460592" lon="9.16753990132792"><ele>283.0</ele><time>2026-04-28T09:30:35.98Z</time></trkpt><trkpt lat="39.4786440946513" lon="9.167674099974432"><ele>283.0</ele><time>2026-04-28T09:30:36.98Z</time></trkpt><trkpt lat="39.47859512676937" lon="9.167804187513106"><ele>283.0</ele><time>2026-04-28T09:30:37.98Z</time></trkpt><trkpt lat="39.47854534406869" lon="9.16793766258241"><ele>283.0</ele><time>2026-04-28T09:30:38.98Z</time></trkpt><trkpt lat="39.47849801965092" lon="9.16807311846273"><ele>283.0</ele><time>2026-04-28T09:30:39.98Z</time></trkpt><trkpt lat="39.478452954681686" lon="9.168207765262494"><ele>283.0</ele><time>2026-04-28T09:30:40.98Z</time></trkpt><trkpt lat="39.478418492980715" lon="9.168333277856597"><ele>283.0</ele><time>2026-04-28T09:30:41.98Z</time></trkpt><trkpt lat="39.47838991127355" lon="9.168474263721354"><ele>283.0</ele><time>2026-04-28T09:30:42.979Z</time></trkpt><trkpt lat="39.47835550743088" lon="9.168617319560335"><ele>283.0</ele><time>2026-04-28T09:30:43.979Z</time></trkpt><trkpt lat="39.47832677369339" lon="9.168752518927171"><ele>283.0</ele><time>2026-04-28T09:30:44.979Z</time></trkpt><trkpt lat="39.47829397111583" lon="9.168876886693713"><ele>283.0</ele><time>2026-04-28T09:30:45.979Z</time></trkpt><trkpt lat="39.478257178621625" lon="9.168995430349526"><ele>283.0</ele><time>2026-04-28T09:30:46.979Z</time></trkpt><trkpt lat="39.47821447266395" lon="9.169109630631674"><ele>283.0</ele><time>2026-04-28T09:30:47.979Z</time></trkpt><trkpt lat="39.478164489956356" lon="9.169225642686209"><ele>283.6</ele><time>2026-04-28T09:30:48.979Z</time></trkpt><trkpt lat="39.47811730321167" lon="9.169338485368645"><ele>284.20000000000005</ele><time>2026-04-28T09:30:49.979Z</time></trkpt><trkpt lat="39.47806886326697" lon="9.169452159103454"><ele>284.8</ele><time>2026-04-28T09:30:50.979Z</time></trkpt><trkpt lat="39.478010659139485" lon="9.169561543653092"><ele>285.40000000000003</ele><time>2026-04-28T09:30:51.979Z</time></trkpt><trkpt lat="39.477938711849326" lon="9.169654083223897"><ele>286.0</ele><time>2026-04-28T09:30:52.979Z</time></trkpt><trkpt lat="39.47786385751811" lon="9.169748662570315"><ele>286.0</ele><time>2026-04-28T09:30:53.979Z</time></trkpt><trkpt lat="39.47778227635024" lon="9.169835643573096"><ele>286.0</ele><time>2026-04-28T09:30:54.979Z</time></trkpt><trkpt lat="39.47770782792422" lon="9.169922087828523"><ele>286.0</ele><time>2026-04-28T09:30:55.979Z</time></trkpt><trkpt lat="39.47763486239039" lon="9.170009748709532"><ele>286.0</ele><time>2026-04-28T09:30:56.979Z</time></trkpt><trkpt lat="39.47756005804531" lon="9.170089169184696"><ele>286.0</ele><time>2026-04-28T09:30:57.979Z</time></trkpt><trkpt lat="39.47749260221546" lon="9.170168497425447"><ele>286.66666666666663</ele><time>2026-04-28T09:30:58.979Z</time></trkpt><trkpt lat="39.47744219349643" lon="9.170236562122506"><ele>287.3333333333333</ele><time>2026-04-28T09:30:59.979Z</time></trkpt><trkpt lat="39.477387271297324" lon="9.17028431290529"><ele>288.0</ele><time>2026-04-28T09:31:00.979Z</time></trkpt><trkpt lat="39.47732720150024" lon="9.170312034823738"><ele>288.6666666666667</ele><time>2026-04-28T09:31:03.979Z</time></trkpt><trkpt lat="39.47736471973085" lon="9.170420486573057"><ele>289.33333333333337</ele><time>2026-04-28T09:31:06.979Z</time></trkpt><trkpt lat="39.47743187377601" lon="9.170486610850807"><ele>290.0</ele><time>2026-04-28T09:31:07.979Z</time></trkpt><trkpt lat="39.47749986901486" lon="9.170566065967874"><ele>290.0</ele><time>2026-04-28T09:31:08.979Z</time></trkpt><trkpt lat="39.477565980969835" lon="9.170638608134778"><ele>290.0</ele><time>2026-04-28T09:31:09.979Z</time></trkpt><trkpt lat="39.477632707885036" lon="9.170719254041925"><ele>290.0</ele><time>2026-04-28T09:31:10.979Z</time></trkpt><trkpt lat="39.47770014537278" lon="9.170808786614629"><ele>290.0</ele><time>2026-04-28T09:31:11.979Z</time></trkpt><trkpt lat="39.47776551251062" lon="9.170898892807465"><ele>290.0</ele><time>2026-04-28T09:31:12.979Z</time></trkpt><trkpt lat="39.47783826392753" lon="9.17098266284396"><ele>290.8</ele><time>2026-04-28T09:31:13.979Z</time></trkpt><trkpt lat="39.477912779348856" lon="9.171068748369436"><ele>291.6</ele><time>2026-04-28T09:31:14.979Z</time></trkpt><trkpt lat="39.47798668474445" lon="9.171155316732724"><ele>292.4</ele><time>2026-04-28T09:31:15.979Z</time></trkpt><trkpt lat="39.47806514869448" lon="9.171237052202933"><ele>293.2</ele><time>2026-04-28T09:31:16.979Z</time></trkpt><trkpt lat="39.478144738972404" lon="9.17132331354448"><ele>294.0</ele><time>2026-04-28T09:31:17.979Z</time></trkpt><trkpt lat="39.478233386566494" lon="9.171398178641217"><ele>294.0</ele><time>2026-04-28T09:31:18.979Z</time></trkpt><trkpt lat="39.47832110497087" lon="9.171480884919129"><ele>294.0</ele><time>2026-04-28T09:31:19.979Z</time></trkpt><trkpt lat="39.478413214203016" lon="9.171559346536322"><ele>294.0</ele><time>2026-04-28T09:31:20.979Z</time></trkpt><trkpt lat="39.47850272302641" lon="9.171644337743682"><ele>294.0</ele><time>2026-04-28T09:31:21.979Z</time></trkpt><trkpt lat="39.478589221630436" lon="9.171735492787871"><ele>294.0</ele><time>2026-04-28T09:31:22.979Z</time></trkpt><trkpt lat="39.478686692418144" lon="9.171815001260185"><ele>294.75</ele><time>2026-04-28T09:31:23.979Z</time></trkpt><trkpt lat="39.47877934575963" lon="9.171905751719828"><ele>295.5</ele><time>2026-04-28T09:31:24.979Z</time></trkpt><trkpt lat="39.47887531396309" lon="9.171986529317545"><ele>296.25</ele><time>2026-04-28T09:31:25.979Z</time></trkpt><trkpt lat="39.47896215799377" lon="9.172067304734178"><ele>297.0</ele><time>2026-04-28T09:31:26.979Z</time></trkpt><trkpt lat="39.47905735553853" lon="9.172158016692654"><ele>297.0</ele><time>2026-04-28T09:31:27.979Z</time></trkpt><trkpt lat="39.47914817832613" lon="9.172256061965827"><ele>297.0</ele><time>2026-04-28T09:31:28.979Z</time></trkpt><trkpt lat="39.479235348664794" lon="9.17235494437524"><ele>297.0</ele><time>2026-04-28T09:31:29.979Z</time></trkpt><trkpt lat="39.479322756580444" lon="9.172451241528954"><ele>297.0</ele><time>2026-04-28T09:31:30.979Z</time></trkpt><trkpt lat="39.47942785624409" lon="9.172537411988316"><ele>298.0</ele><time>2026-04-28T09:31:31.979Z</time></trkpt><trkpt lat="39.47952652568643" lon="9.172634230875186"><ele>299.0</ele><time>2026-04-28T09:31:32.979Z</time></trkpt><trkpt lat="39.47962460843651" lon="9.172738280358148"><ele>300.0</ele><time>2026-04-28T09:31:33.979Z</time></trkpt><trkpt lat="39.47971874902346" lon="9.172847190447252"><ele>301.0</ele><time>2026-04-28T09:31:34.979Z</time></trkpt><trkpt lat="39.47980959964598" lon="9.172970340597221"><ele>301.5</ele><time>2026-04-28T09:31:35.979Z</time></trkpt><trkpt lat="39.47989237633687" lon="9.1730976387952"><ele>302.0</ele><time>2026-04-28T09:31:36.979Z</time></trkpt><trkpt lat="39.4799740259393" lon="9.173227796191778"><ele>302.5</ele><time>2026-04-28T09:31:37.979Z</time></trkpt><trkpt lat="39.48005622117242" lon="9.173365710981848"><ele>303.0</ele><time>2026-04-28T09:31:38.979Z</time></trkpt><trkpt lat="39.48014186576631" lon="9.173513300983322"><ele>303.0</ele><time>2026-04-28T09:31:39.979Z</time></trkpt><trkpt lat="39.4802238195578" lon="9.17367215007801"><ele>303.0</ele><time>2026-04-28T09:31:40.979Z</time></trkpt><trkpt lat="39.48030239496641" lon="9.173848262415332"><ele>303.0</ele><time>2026-04-28T09:31:41.979Z</time></trkpt><trkpt lat="39.48037186457746" lon="9.17403855925101"><ele>303.0</ele><time>2026-04-28T09:31:42.979Z</time></trkpt><trkpt lat="39.480422517804485" lon="9.174243261489435"><ele>303.0</ele><time>2026-04-28T09:31:43.979Z</time></trkpt><trkpt lat="39.48043946844181" lon="9.174468975389226"><ele>303.0</ele><time>2026-04-28T09:31:44.979Z</time></trkpt><trkpt lat="39.48044016329383" lon="9.17470128288696"><ele>304.3333333333333</ele><time>2026-04-28T09:31:45.979Z</time></trkpt><trkpt lat="39.48043226477665" lon="9.174934558173062"><ele>305.66666666666663</ele><time>2026-04-28T09:31:46.979Z</time></trkpt><trkpt lat="39.4804257235751" lon="9.175173676604945"><ele>307.0</ele><time>2026-04-28T09:31:47.979Z</time></trkpt><trkpt lat="39.480399184956816" lon="9.17541539764451"><ele>307.0</ele><time>2026-04-28T09:31:48.979Z</time></trkpt><trkpt lat="39.48036512274924" lon="9.175662284407421"><ele>307.0</ele><time>2026-04-28T09:31:49.978Z</time></trkpt><trkpt lat="39.480328274871404" lon="9.175907635259646"><ele>307.0</ele><time>2026-04-28T09:31:50.978Z</time></trkpt><trkpt lat="39.48031715511608" lon="9.176124511061762"><ele>308.0</ele><time>2026-04-28T09:31:51.978Z</time></trkpt><trkpt lat="39.48035096459971" lon="9.17635278425483"><ele>309.0</ele><time>2026-04-28T09:31:52.98Z</time></trkpt><trkpt lat="39.48041885761217" lon="9.176579391145761"><ele>310.0</ele><time>2026-04-28T09:31:53.979Z</time></trkpt><trkpt lat="39.480507685932096" lon="9.17680235606531"><ele>314.3333333333333</ele><time>2026-04-28T09:31:54.979Z</time></trkpt><trkpt lat="39.480604152653825" lon="9.17703081096798"><ele>318.6666666666667</ele><time>2026-04-28T09:31:55.979Z</time></trkpt><trkpt lat="39.48069433473238" lon="9.177235127541614"><ele>323.0</ele><time>2026-04-28T09:31:56.979Z</time></trkpt><trkpt lat="39.48078324442652" lon="9.17741097238038"><ele>323.6666666666667</ele><time>2026-04-28T09:31:57.979Z</time></trkpt><trkpt lat="39.480858977135824" lon="9.177581846264333"><ele>324.3333333333333</ele><time>2026-04-28T09:31:58.98Z</time></trkpt><trkpt lat="39.48094847617899" lon="9.177761850030548"><ele>325.0</ele><time>2026-04-28T09:31:59.979Z</time></trkpt><trkpt lat="39.481058151015986" lon="9.17793426583455"><ele>325.0</ele><time>2026-04-28T09:32:00.979Z</time></trkpt><trkpt lat="39.48119885843194" lon="9.178095026257887"><ele>325.0</ele><time>2026-04-28T09:32:01.98Z</time></trkpt><trkpt lat="39.48135198822263" lon="9.178253221638863"><ele>325.0</ele><time>2026-04-28T09:32:02.979Z</time></trkpt><trkpt lat="39.4815155454378" lon="9.178419875398834"><ele>326.0</ele><time>2026-04-28T09:32:03.979Z</time></trkpt><trkpt lat="39.48168395983249" lon="9.178582655192786"><ele>327.0</ele><time>2026-04-28T09:32:04.98Z</time></trkpt><trkpt lat="39.48185162916044" lon="9.178755957195973"><ele>328.0</ele><time>2026-04-28T09:32:05.98Z</time></trkpt><trkpt lat="39.481988829228364" lon="9.17892390572896"><ele>328.5</ele><time>2026-04-28T09:32:06.98Z</time></trkpt><trkpt lat="39.482166667541584" lon="9.179099518831942"><ele>329.0</ele><time>2026-04-28T09:32:07.98Z</time></trkpt><trkpt lat="39.48234060514657" lon="9.179300674472678"><ele>329.0</ele><time>2026-04-28T09:32:08.98Z</time></trkpt><trkpt lat="39.48250829805472" lon="9.179527171939961"><ele>329.0</ele><time>2026-04-28T09:32:09.98Z</time></trkpt><trkpt lat="39.48268329202674" lon="9.179757026284513"><ele>328.5</ele><time>2026-04-28T09:32:10.98Z</time></trkpt><trkpt lat="39.48286723029527" lon="9.179989123504088"><ele>328.0</ele><time>2026-04-28T09:32:11.98Z</time></trkpt><trkpt lat="39.48305377361103" lon="9.180226541582002"><ele>328.0</ele><time>2026-04-28T09:32:12.98Z</time></trkpt><trkpt lat="39.4832327301991" lon="9.180455225597516"><ele>328.0</ele><time>2026-04-28T09:32:13.98Z</time></trkpt><trkpt lat="39.48340809933658" lon="9.180677366989418"><ele>326.0</ele><time>2026-04-28T09:32:14.98Z</time></trkpt><trkpt lat="39.48358410797115" lon="9.180898750513878"><ele>324.0</ele><time>2026-04-28T09:32:15.98Z</time></trkpt><trkpt lat="39.48376080539269" lon="9.181122695988295"><ele>325.0</ele><time>2026-04-28T09:32:16.98Z</time></trkpt><trkpt lat="39.48394328772444" lon="9.18135011819267"><ele>326.0</ele><time>2026-04-28T09:32:17.98Z</time></trkpt><trkpt lat="39.484124375296524" lon="9.181579101385276"><ele>326.5</ele><time>2026-04-28T09:32:18.98Z</time></trkpt><trkpt lat="39.484306520385225" lon="9.181810298290436"><ele>327.0</ele><time>2026-04-28T09:32:19.98Z</time></trkpt><trkpt lat="39.48449201953238" lon="9.182042050121124"><ele>327.0</ele><time>2026-04-28T09:32:20.98Z</time></trkpt><trkpt lat="39.48468184848023" lon="9.182276984275758"><ele>327.0</ele><time>2026-04-28T09:32:21.979Z</time></trkpt><trkpt lat="39.484873977407624" lon="9.18251456080332"><ele>327.0</ele><time>2026-04-28T09:32:22.979Z</time></trkpt><trkpt lat="39.48506347602322" lon="9.18275902325884"><ele>327.0</ele><time>2026-04-28T09:32:23.979Z</time></trkpt><trkpt lat="39.48525057696853" lon="9.182998438753817"><ele>327.0</ele><time>2026-04-28T09:32:24.979Z</time></trkpt><trkpt lat="39.48544003466888" lon="9.18323539504808"><ele>327.0</ele><time>2026-04-28T09:32:25.979Z</time></trkpt><trkpt lat="39.48563206284295" lon="9.183478252953803"><ele>327.0</ele><time>2026-04-28T09:32:26.979Z</time></trkpt><trkpt lat="39.485817140255" lon="9.183720029462952"><ele>327.0</ele><time>2026-04-28T09:32:27.979Z</time></trkpt><trkpt lat="39.486006265775174" lon="9.18396073639838"><ele>328.0</ele><time>2026-04-28T09:32:28.979Z</time></trkpt><trkpt lat="39.48619039321104" lon="9.184198636766272"><ele>329.0</ele><time>2026-04-28T09:32:29.979Z</time></trkpt><trkpt lat="39.4863709976938" lon="9.184428746149587"><ele>329.0</ele><time>2026-04-28T09:32:30.979Z</time></trkpt><trkpt lat="39.486550270917746" lon="9.184655911047424"><ele>329.0</ele><time>2026-04-28T09:32:31.979Z</time></trkpt><trkpt lat="39.48672120623986" lon="9.18487787851418"><ele>331.0</ele><time>2026-04-28T09:32:32.979Z</time></trkpt><trkpt lat="39.486887711219865" lon="9.185095577380316"><ele>333.0</ele><time>2026-04-28T09:32:33.979Z</time></trkpt><trkpt lat="39.48705751233399" lon="9.185310897486614"><ele>334.0</ele><time>2026-04-28T09:32:34.979Z</time></trkpt><trkpt lat="39.48723231808126" lon="9.18552747174984"><ele>335.0</ele><time>2026-04-28T09:32:35.979Z</time></trkpt><trkpt lat="39.4874115836284" lon="9.185747120147566"><ele>335.5</ele><time>2026-04-28T09:32:36.979Z</time></trkpt><trkpt lat="39.48758956177944" lon="9.185976576049159"><ele>336.0</ele><time>2026-04-28T09:32:37.979Z</time></trkpt><trkpt lat="39.487766347674025" lon="9.186215458943396"><ele>336.5</ele><time>2026-04-28T09:32:38.979Z</time></trkpt><trkpt lat="39.48794648924055" lon="9.186454812586327"><ele>337.0</ele><time>2026-04-28T09:32:39.979Z</time></trkpt><trkpt lat="39.48813609188141" lon="9.186692708356263"><ele>340.0</ele><time>2026-04-28T09:32:40.979Z</time></trkpt><trkpt lat="39.488330292448886" lon="9.186936531508177"><ele>343.0</ele><time>2026-04-28T09:32:41.979Z</time></trkpt><trkpt lat="39.488521254345464" lon="9.187181903637033"><ele>343.5</ele><time>2026-04-28T09:32:42.979Z</time></trkpt><trkpt lat="39.48871466213738" lon="9.187419592980547"><ele>344.0</ele><time>2026-04-28T09:32:43.979Z</time></trkpt><trkpt lat="39.48890347628074" lon="9.187658848621323"><ele>346.5</ele><time>2026-04-28T09:32:44.979Z</time></trkpt><trkpt lat="39.489085838817005" lon="9.187895830022471"><ele>349.0</ele><time>2026-04-28T09:32:45.979Z</time></trkpt><trkpt lat="39.48925790427878" lon="9.188137741579412"><ele>350.0</ele><time>2026-04-28T09:32:46.979Z</time></trkpt><trkpt lat="39.48940255257978" lon="9.188411031933954"><ele>351.0</ele><time>2026-04-28T09:32:47.979Z</time></trkpt><trkpt lat="39.489494078212225" lon="9.18871509592885"><ele>352.5</ele><time>2026-04-28T09:32:48.979Z</time></trkpt><trkpt lat="39.489560699874644" lon="9.189037932037154"><ele>354.0</ele><time>2026-04-28T09:32:49.979Z</time></trkpt><trkpt lat="39.48962643306929" lon="9.189352821988852"><ele>358.5</ele><time>2026-04-28T09:32:50.979Z</time></trkpt><trkpt lat="39.48969486054079" lon="9.189665619113553"><ele>363.0</ele><time>2026-04-28T09:32:51.979Z</time></trkpt><trkpt lat="39.48976599909078" lon="9.189977362337405"><ele>364.0</ele><time>2026-04-28T09:32:52.979Z</time></trkpt><trkpt lat="39.48984002633737" lon="9.190283540983808"><ele>365.0</ele><time>2026-04-28T09:32:53.979Z</time></trkpt><trkpt lat="39.48994739113116" lon="9.190548768636505"><ele>364.0</ele><time>2026-04-28T09:32:54.979Z</time></trkpt><trkpt lat="39.490104659699846" lon="9.19076688972021"><ele>363.0</ele><time>2026-04-28T09:32:55.979Z</time></trkpt><trkpt lat="39.49029348528786" lon="9.190925990491387"><ele>368.0</ele><time>2026-04-28T09:32:56.979Z</time></trkpt><trkpt lat="39.4905247905396" lon="9.191001466334127"><ele>373.0</ele><time>2026-04-28T09:32:57.979Z</time></trkpt><trkpt lat="39.49075461441864" lon="9.191046943964745"><ele>373.0</ele><time>2026-04-28T09:32:58.979Z</time></trkpt><trkpt lat="39.49094155607898" lon="9.191137744275292"><ele>373.0</ele><time>2026-04-28T09:32:59.979Z</time></trkpt><trkpt lat="39.491074362065746" lon="9.19132996202667"><ele>373.0</ele><time>2026-04-28T09:33:00.979Z</time></trkpt><trkpt lat="39.491172739480774" lon="9.191577486986155"><ele>374.0</ele><time>2026-04-28T09:33:01.979Z</time></trkpt><trkpt lat="39.49120904558253" lon="9.191866449236072"><ele>375.0</ele><time>2026-04-28T09:33:02.979Z</time></trkpt><trkpt lat="39.49121625913068" lon="9.192160196170729"><ele>375.3333333333333</ele><time>2026-04-28T09:33:03.979Z</time></trkpt><trkpt lat="39.49121353481222" lon="9.192452800166627"><ele>375.66666666666663</ele><time>2026-04-28T09:33:04.979Z</time></trkpt><trkpt lat="39.49123673852902" lon="9.192717811484673"><ele>376.0</ele><time>2026-04-28T09:33:05.979Z</time></trkpt><trkpt lat="39.49128733273276" lon="9.192908433231656"><ele>376.0</ele><time>2026-04-28T09:33:06.979Z</time></trkpt><trkpt lat="39.49139758247135" lon="9.193048374288136"><ele>376.0</ele><time>2026-04-28T09:33:07.979Z</time></trkpt><trkpt lat="39.49159088395844" lon="9.193145492937921"><ele>376.0</ele><time>2026-04-28T09:33:08.979Z</time></trkpt><trkpt lat="39.49180716165851" lon="9.193228978720283"><ele>377.3333333333333</ele><time>2026-04-28T09:33:09.979Z</time></trkpt><trkpt lat="39.49201457117345" lon="9.19334561761207"><ele>378.6666666666667</ele><time>2026-04-28T09:33:10.979Z</time></trkpt><trkpt lat="39.492213788949435" lon="9.193440491688438"><ele>380.0</ele><time>2026-04-28T09:33:11.979Z</time></trkpt><trkpt lat="39.49239468944041" lon="9.193479952954037"><ele>380.0</ele><time>2026-04-28T09:33:12.979Z</time></trkpt><trkpt lat="39.492517899224936" lon="9.193484440530229"><ele>380.0</ele><time>2026-04-28T09:33:13.979Z</time></trkpt><trkpt lat="39.492574717239926" lon="9.193542885378115"><ele>380.0</ele><time>2026-04-28T09:33:14.979Z</time></trkpt><trkpt lat="39.49257568473624" lon="9.193634046883652"><ele>380.0</ele><time>2026-04-28T09:33:15.979Z</time></trkpt><trkpt lat="39.492483569804264" lon="9.193739738134447"><ele>380.0</ele><time>2026-04-28T09:33:16.979Z</time></trkpt><trkpt lat="39.492343193792294" lon="9.193729984739763"><ele>380.0</ele><time>2026-04-28T09:33:17.979Z</time></trkpt><trkpt lat="39.49220363169245" lon="9.193655057556871"><ele>380.0</ele><time>2026-04-28T09:33:18.979Z</time></trkpt><trkpt lat="39.49204793375729" lon="9.193574205767112"><ele>380.0</ele><time>2026-04-28T09:33:19.979Z</time></trkpt><trkpt lat="39.49188416654245" lon="9.193531994112771"><ele>383.0</ele><time>2026-04-28T09:33:20.979Z</time></trkpt><trkpt lat="39.491711439565684" lon="9.193503041435491"><ele>386.0</ele><time>2026-04-28T09:33:21.979Z</time></trkpt><trkpt lat="39.49153339787854" lon="9.193477989586606"><ele>389.0</ele><time>2026-04-28T09:33:22.979Z</time></trkpt><trkpt lat="39.4913727731524" lon="9.193476763423968"><ele>389.3333333333333</ele><time>2026-04-28T09:33:23.979Z</time></trkpt><trkpt lat="39.491226833900015" lon="9.1935262953711"><ele>389.66666666666663</ele><time>2026-04-28T09:33:24.979Z</time></trkpt><trkpt lat="39.49109634914624" lon="9.193643038248446"><ele>390.0</ele><time>2026-04-28T09:33:25.979Z</time></trkpt><trkpt lat="39.490971519970834" lon="9.193810184518377"><ele>390.0</ele><time>2026-04-28T09:33:26.979Z</time></trkpt><trkpt lat="39.490856102432794" lon="9.193989511106512"><ele>390.0</ele><time>2026-04-28T09:33:27.979Z</time></trkpt><trkpt lat="39.490743779911455" lon="9.19416904168054"><ele>390.0</ele><time>2026-04-28T09:33:28.978Z</time></trkpt><trkpt lat="39.490649927964675" lon="9.194357940845142"><ele>394.0</ele><time>2026-04-28T09:33:29.978Z</time></trkpt><trkpt lat="39.490584725026245" lon="9.194572841043383"><ele>398.0</ele><time>2026-04-28T09:33:30.978Z</time></trkpt><trkpt lat="39.49054236133981" lon="9.194799591598251"><ele>402.0</ele><time>2026-04-28T09:33:31.978Z</time></trkpt><trkpt lat="39.49053557425624" lon="9.195032726746641"><ele>405.0</ele><time>2026-04-28T09:33:32.978Z</time></trkpt><trkpt lat="39.49053899594941" lon="9.195279544580115"><ele>408.0</ele><time>2026-04-28T09:33:33.978Z</time></trkpt><trkpt lat="39.49056111394811" lon="9.19551586842943"><ele>411.0</ele><time>2026-04-28T09:33:34.978Z</time></trkpt><trkpt lat="39.49060265283172" lon="9.195759257708033"><ele>412.0</ele><time>2026-04-28T09:33:35.978Z</time></trkpt><trkpt lat="39.490657982583286" lon="9.195998939736462"><ele>413.0</ele><time>2026-04-28T09:33:36.978Z</time></trkpt><trkpt lat="39.49071933368168" lon="9.196246831886178"><ele>414.0</ele><time>2026-04-28T09:33:37.978Z</time></trkpt><trkpt lat="39.49078996318803" lon="9.196486532072912"><ele>414.66666666666663</ele><time>2026-04-28T09:33:38.978Z</time></trkpt><trkpt lat="39.49085183807396" lon="9.196710565534987"><ele>415.3333333333333</ele><time>2026-04-28T09:33:39.978Z</time></trkpt><trkpt lat="39.49084967214575" lon="9.1969309764905"><ele>416.0</ele><time>2026-04-28T09:33:40.978Z</time></trkpt><trkpt lat="39.490758373308914" lon="9.197139569585566"><ele>416.0</ele><time>2026-04-28T09:33:41.978Z</time></trkpt><trkpt lat="39.490597845678565" lon="9.197297948118933"><ele>416.0</ele><time>2026-04-28T09:33:42.978Z</time></trkpt><trkpt lat="39.49046057640563" lon="9.19747739891432"><ele>416.0</ele><time>2026-04-28T09:33:43.978Z</time></trkpt><trkpt lat="39.490380531425174" lon="9.197737251460385"><ele>415.3333333333333</ele><time>2026-04-28T09:33:44.978Z</time></trkpt><trkpt lat="39.49035456056599" lon="9.198016018302116"><ele>414.66666666666663</ele><time>2026-04-28T09:33:45.978Z</time></trkpt><trkpt lat="39.490330410730465" lon="9.198295411471989"><ele>414.0</ele><time>2026-04-28T09:33:46.978Z</time></trkpt><trkpt lat="39.49034378165015" lon="9.198574668908511"><ele>414.0</ele><time>2026-04-28T09:33:47.978Z</time></trkpt><trkpt lat="39.490414323561005" lon="9.198852757078852"><ele>414.0</ele><time>2026-04-28T09:33:48.978Z</time></trkpt><trkpt lat="39.49052635778199" lon="9.199111949974078"><ele>422.5</ele><time>2026-04-28T09:33:49.978Z</time></trkpt><trkpt lat="39.49062997368831" lon="9.19938748924695"><ele>431.0</ele><time>2026-04-28T09:33:50.978Z</time></trkpt><trkpt lat="39.490709598921306" lon="9.199669890862962"><ele>432.5</ele><time>2026-04-28T09:33:51.978Z</time></trkpt><trkpt lat="39.49073788223282" lon="9.199965277052742"><ele>434.0</ele><time>2026-04-28T09:33:52.978Z</time></trkpt><trkpt lat="39.49072439368961" lon="9.200269693692722"><ele>434.0</ele><time>2026-04-28T09:33:53.978Z</time></trkpt><trkpt lat="39.49069926943657" lon="9.200573336325926"><ele>434.0</ele><time>2026-04-28T09:33:54.978Z</time></trkpt><trkpt lat="39.49068008517645" lon="9.200873627829985"><ele>436.5</ele><time>2026-04-28T09:33:55.978Z</time></trkpt><trkpt lat="39.49063386766616" lon="9.201174773536374"><ele>439.0</ele><time>2026-04-28T09:33:56.978Z</time></trkpt><trkpt lat="39.49054909333881" lon="9.201460558183932"><ele>441.33333333333337</ele><time>2026-04-28T09:33:57.978Z</time></trkpt><trkpt lat="39.49045506674451" lon="9.201726505494088"><ele>443.66666666666663</ele><time>2026-04-28T09:33:58.979Z</time></trkpt><trkpt lat="39.49042558581484" lon="9.2020037567908"><ele>446.0</ele><time>2026-04-28T09:33:59.979Z</time></trkpt><trkpt lat="39.490455252986166" lon="9.202298973509683"><ele>449.5</ele><time>2026-04-28T09:34:00.979Z</time></trkpt><trkpt lat="39.49049260789097" lon="9.20260294204368"><ele>453.0</ele><time>2026-04-28T09:34:01.978Z</time></trkpt><trkpt lat="39.49049198497408" lon="9.202895025379046"><ele>450.0</ele><time>2026-04-28T09:34:02.978Z</time></trkpt><trkpt lat="39.4904235569771" lon="9.203177716503674"><ele>447.0</ele><time>2026-04-28T09:34:03.978Z</time></trkpt><trkpt lat="39.49031437724295" lon="9.203456788657316"><ele>447.0</ele><time>2026-04-28T09:34:04.979Z</time></trkpt><trkpt lat="39.49021747267846" lon="9.203729974121625"><ele>447.0</ele><time>2026-04-28T09:34:05.978Z</time></trkpt><trkpt lat="39.49013129041237" lon="9.203989209897117"><ele>450.0</ele><time>2026-04-28T09:34:06.978Z</time></trkpt><trkpt lat="39.4900385375251" lon="9.204214544548327"><ele>453.0</ele><time>2026-04-28T09:34:07.979Z</time></trkpt><trkpt lat="39.489892614345024" lon="9.204359256445745"><ele>456.0</ele><time>2026-04-28T09:34:08.978Z</time></trkpt><trkpt lat="39.48969611950684" lon="9.204446718095465"><ele>454.66666666666663</ele><time>2026-04-28T09:34:09.978Z</time></trkpt><trkpt lat="39.489496666054386" lon="9.20452428185253"><ele>453.3333333333333</ele><time>2026-04-28T09:34:10.978Z</time></trkpt><trkpt lat="39.48930891703822" lon="9.20466795664912"><ele>452.0</ele><time>2026-04-28T09:34:11.978Z</time></trkpt><trkpt lat="39.48916195529614" lon="9.204885400048054"><ele>457.5</ele><time>2026-04-28T09:34:12.978Z</time></trkpt><trkpt lat="39.489066023705064" lon="9.20515699648841"><ele>463.0</ele><time>2026-04-28T09:34:13.978Z</time></trkpt><trkpt lat="39.48896963514357" lon="9.205444142128947"><ele>467.5</ele><time>2026-04-28T09:34:14.978Z</time></trkpt><trkpt lat="39.48887278315448" lon="9.205728500135498"><ele>472.0</ele><time>2026-04-28T09:34:15.978Z</time></trkpt><trkpt lat="39.488776172880634" lon="9.20598999296186"><ele>471.6666666666667</ele><time>2026-04-28T09:34:16.978Z</time></trkpt><trkpt lat="39.488643339604444" lon="9.20621359210847"><ele>471.33333333333337</ele><time>2026-04-28T09:34:17.978Z</time></trkpt><trkpt lat="39.48846228179731" lon="9.206399078297585"><ele>471.0</ele><time>2026-04-28T09:34:18.978Z</time></trkpt><trkpt lat="39.48827310514447" lon="9.206555775652431"><ele>471.0</ele><time>2026-04-28T09:34:19.978Z</time></trkpt><trkpt lat="39.48812350338967" lon="9.206732210839103"><ele>471.0</ele><time>2026-04-28T09:34:20.978Z</time></trkpt><trkpt lat="39.48806074491873" lon="9.206973666349072"><ele>471.0</ele><time>2026-04-28T09:34:21.978Z</time></trkpt><trkpt lat="39.488084808110486" lon="9.207275581179497"><ele>475.5</ele><time>2026-04-28T09:34:22.978Z</time></trkpt><trkpt lat="39.488116224853876" lon="9.207583793942687"><ele>480.0</ele><time>2026-04-28T09:34:23.978Z</time></trkpt><trkpt lat="39.488108223041145" lon="9.20788637418254"><ele>484.5</ele><time>2026-04-28T09:34:24.978Z</time></trkpt><trkpt lat="39.4880701709478" lon="9.20819696771839"><ele>489.0</ele><time>2026-04-28T09:34:25.978Z</time></trkpt><trkpt lat="39.48801575348479" lon="9.208507581591626"><ele>489.0</ele><time>2026-04-28T09:34:26.978Z</time></trkpt><trkpt lat="39.487959549640486" lon="9.208801130354056"><ele>489.0</ele><time>2026-04-28T09:34:27.978Z</time></trkpt><trkpt lat="39.487900231906615" lon="9.209036286297886"><ele>489.0</ele><time>2026-04-28T09:34:28.978Z</time></trkpt><trkpt lat="39.48780609639316" lon="9.209187956365454"><ele>490.0</ele><time>2026-04-28T09:34:29.978Z</time></trkpt><trkpt lat="39.48767068094928" lon="9.20923117247986"><ele>491.0</ele><time>2026-04-28T09:34:30.978Z</time></trkpt><trkpt lat="39.487510397501644" lon="9.209189039692593"><ele>492.0</ele><time>2026-04-28T09:34:31.978Z</time></trkpt><trkpt lat="39.48732168361967" lon="9.209048551843466"><ele>489.0</ele><time>2026-04-28T09:34:32.978Z</time></trkpt><trkpt lat="39.48711491061627" lon="9.208888689114097"><ele>486.0</ele><time>2026-04-28T09:34:33.978Z</time></trkpt><trkpt lat="39.48691927950227" lon="9.208801658384383"><ele>483.0</ele><time>2026-04-28T09:34:34.978Z</time></trkpt><trkpt lat="39.486776009088615" lon="9.20884549793036"><ele>486.33333333333337</ele><time>2026-04-28T09:34:35.978Z</time></trkpt><trkpt lat="39.48665474507611" lon="9.209003111714235"><ele>489.6666666666667</ele><time>2026-04-28T09:34:36.978Z</time></trkpt><trkpt lat="39.48658187903815" lon="9.209281308169372"><ele>493.0</ele><time>2026-04-28T09:34:37.978Z</time></trkpt><trkpt lat="39.48654875251922" lon="9.209623512684086"><ele>497.5</ele><time>2026-04-28T09:34:38.978Z</time></trkpt><trkpt lat="39.48651875930435" lon="9.21002007921251"><ele>502.0</ele><time>2026-04-28T09:34:39.978Z</time></trkpt><trkpt lat="39.48646543511588" lon="9.210415739065152"><ele>504.0</ele><time>2026-04-28T09:34:40.978Z</time></trkpt><trkpt lat="39.48641532723662" lon="9.210759696718181"><ele>506.0</ele><time>2026-04-28T09:34:41.978Z</time></trkpt><trkpt lat="39.486438009306966" lon="9.211105219398592"><ele>506.0</ele><time>2026-04-28T09:34:42.978Z</time></trkpt><trkpt lat="39.48653244453614" lon="9.211470701076639"><ele>506.0</ele><time>2026-04-28T09:34:43.978Z</time></trkpt><trkpt lat="39.4866930396802" lon="9.211818442472179"><ele>508.5</ele><time>2026-04-28T09:34:44.978Z</time></trkpt><trkpt lat="39.486817485685066" lon="9.212123437158073"><ele>511.0</ele><time>2026-04-28T09:34:45.978Z</time></trkpt><trkpt lat="39.48685792061837" lon="9.212467619942604"><ele>513.5</ele><time>2026-04-28T09:34:46.978Z</time></trkpt><trkpt lat="39.48682295670642" lon="9.212917939875881"><ele>516.0</ele><time>2026-04-28T09:34:47.978Z</time></trkpt><trkpt lat="39.48679846639584" lon="9.213367535992262"><ele>518.5</ele><time>2026-04-28T09:34:48.978Z</time></trkpt><trkpt lat="39.486801600897685" lon="9.213698062897112"><ele>521.0</ele><time>2026-04-28T09:34:49.978Z</time></trkpt><trkpt lat="39.486873350807635" lon="9.213971661268245"><ele>523.0</ele><time>2026-04-28T09:34:50.978Z</time></trkpt><trkpt lat="39.48703663931146" lon="9.214227247102055"><ele>525.0</ele><time>2026-04-28T09:34:51.978Z</time></trkpt><trkpt lat="39.48716288345435" lon="9.214462319693602"><ele>526.0</ele><time>2026-04-28T09:34:52.978Z</time></trkpt><trkpt lat="39.48721272487819" lon="9.214752162269233"><ele>527.0</ele><time>2026-04-28T09:34:53.978Z</time></trkpt><trkpt lat="39.48718855875185" lon="9.21513904439631"><ele>529.5</ele><time>2026-04-28T09:34:54.978Z</time></trkpt><trkpt lat="39.487217783214966" lon="9.215569789849939"><ele>532.0</ele><time>2026-04-28T09:34:55.978Z</time></trkpt><trkpt lat="39.48730809591981" lon="9.216048425198437"><ele>535.0</ele><time>2026-04-28T09:34:56.978Z</time></trkpt><trkpt lat="39.4874362413888" lon="9.216494356542302"><ele>538.0</ele><time>2026-04-28T09:34:57.978Z</time></trkpt><trkpt lat="39.487524351098166" lon="9.2168714918815"><ele>538.0</ele><time>2026-04-28T09:34:58.978Z</time></trkpt><trkpt lat="39.48757409361337" lon="9.217210898664288"><ele>538.0</ele><time>2026-04-28T09:34:59.977Z</time></trkpt><trkpt lat="39.48761530605742" lon="9.217514398519228"><ele>539.0</ele><time>2026-04-28T09:35:00.977Z</time></trkpt><trkpt lat="39.48765472978679" lon="9.217774906038375"><ele>540.0</ele><time>2026-04-28T09:35:01.977Z</time></trkpt><trkpt lat="39.487683316365526" lon="9.217996733406787"><ele>541.0</ele><time>2026-04-28T09:35:02.977Z</time></trkpt><trkpt lat="39.487660812427414" lon="9.218204833684402"><ele>541.0</ele><time>2026-04-28T09:35:03.977Z</time></trkpt><trkpt lat="39.48756865358408" lon="9.218416320679399"><ele>541.0</ele><time>2026-04-28T09:35:04.977Z</time></trkpt><trkpt lat="39.48741957218045" lon="9.21862544387396"><ele>541.0</ele><time>2026-04-28T09:35:05.977Z</time></trkpt><trkpt lat="39.48728325643941" lon="9.21879012109756"><ele>541.0</ele><time>2026-04-28T09:35:06.977Z</time></trkpt><trkpt lat="39.48715533692692" lon="9.218947957492654"><ele>541.0</ele><time>2026-04-28T09:35:07.977Z</time></trkpt><trkpt lat="39.48702351579438" lon="9.219061441282292"><ele>541.0</ele><time>2026-04-28T09:35:08.977Z</time></trkpt><trkpt lat="39.48685862322195" lon="9.219140115761759"><ele>541.6666666666667</ele><time>2026-04-28T09:35:09.977Z</time></trkpt><trkpt lat="39.48666152687503" lon="9.219233226256199"><ele>542.3333333333334</ele><time>2026-04-28T09:35:10.977Z</time></trkpt><trkpt lat="39.486478650707475" lon="9.219363239256584"><ele>543.0</ele><time>2026-04-28T09:35:11.977Z</time></trkpt><trkpt lat="39.48634296614571" lon="9.21956730758342"><ele>545.3333333333334</ele><time>2026-04-28T09:35:12.977Z</time></trkpt><trkpt lat="39.48624844926443" lon="9.219813925239713"><ele>547.6666666666667</ele><time>2026-04-28T09:35:13.977Z</time></trkpt><trkpt lat="39.48618807279816" lon="9.220075389380737"><ele>550.0</ele><time>2026-04-28T09:35:14.977Z</time></trkpt><trkpt lat="39.48612449565411" lon="9.22029701758671"><ele>550.0</ele><time>2026-04-28T09:35:15.977Z</time></trkpt><trkpt lat="39.48605290687478" lon="9.220495779092317"><ele>550.0</ele><time>2026-04-28T09:35:16.977Z</time></trkpt><trkpt lat="39.48597237137819" lon="9.220688505397701"><ele>550.0</ele><time>2026-04-28T09:35:17.977Z</time></trkpt><trkpt lat="39.48585266230663" lon="9.220876775293965"><ele>546.0</ele><time>2026-04-28T09:35:18.977Z</time></trkpt><trkpt lat="39.48570283188149" lon="9.221055019469548"><ele>542.0</ele><time>2026-04-28T09:35:19.977Z</time></trkpt><trkpt lat="39.48554054504951" lon="9.221245742444312"><ele>538.0</ele><time>2026-04-28T09:35:20.977Z</time></trkpt><trkpt lat="39.485399427371945" lon="9.22143761988184"><ele>536.6666666666667</ele><time>2026-04-28T09:35:21.977Z</time></trkpt><trkpt lat="39.4853109799188" lon="9.221647532350197"><ele>535.3333333333334</ele><time>2026-04-28T09:35:22.977Z</time></trkpt><trkpt lat="39.48527206595225" lon="9.221889564349084"><ele>534.0</ele><time>2026-04-28T09:35:23.977Z</time></trkpt><trkpt lat="39.48531356541883" lon="9.222136157897115"><ele>535.3333333333334</ele><time>2026-04-28T09:35:24.977Z</time></trkpt><trkpt lat="39.48543328263021" lon="9.222333434293098"><ele>536.6666666666667</ele><time>2026-04-28T09:35:25.977Z</time></trkpt><trkpt lat="39.485625444899334" lon="9.222459892623906"><ele>538.0</ele><time>2026-04-28T09:35:26.977Z</time></trkpt><trkpt lat="39.48585597478877" lon="9.222528986522489"><ele>538.0</ele><time>2026-04-28T09:35:27.977Z</time></trkpt><trkpt lat="39.48607190385331" lon="9.222554778499829"><ele>538.0</ele><time>2026-04-28T09:35:28.977Z</time></trkpt><trkpt lat="39.486214015195124" lon="9.222682148652073"><ele>538.0</ele><time>2026-04-28T09:35:29.977Z</time></trkpt><trkpt lat="39.48630387054258" lon="9.22288197977612"><ele>535.3333333333334</ele><time>2026-04-28T09:35:30.977Z</time></trkpt><trkpt lat="39.48634994885128" lon="9.223131356475266"><ele>532.6666666666666</ele><time>2026-04-28T09:35:31.977Z</time></trkpt><trkpt lat="39.4863473854036" lon="9.223404989761711"><ele>530.0</ele><time>2026-04-28T09:35:32.977Z</time></trkpt><trkpt lat="39.48630695150606" lon="9.223684887767524"><ele>535.6666666666666</ele><time>2026-04-28T09:35:33.977Z</time></trkpt><trkpt lat="39.486258094043016" lon="9.223950763713027"><ele>541.3333333333334</ele><time>2026-04-28T09:35:34.977Z</time></trkpt><trkpt lat="39.48621111917604" lon="9.224216697063529"><ele>547.0</ele><time>2026-04-28T09:35:35.977Z</time></trkpt><trkpt lat="39.48616968635245" lon="9.224465222700132"><ele>548.0</ele><time>2026-04-28T09:35:36.977Z</time></trkpt><trkpt lat="39.48610353699176" lon="9.22469206225279"><ele>549.0</ele><time>2026-04-28T09:35:37.977Z</time></trkpt><trkpt lat="39.4860009512767" lon="9.224902631333887"><ele>550.0</ele><time>2026-04-28T09:35:38.977Z</time></trkpt><trkpt lat="39.48588190430563" lon="9.225099925034021"><ele>550.3333333333334</ele><time>2026-04-28T09:35:39.977Z</time></trkpt><trkpt lat="39.48578964468352" lon="9.225321767265863"><ele>550.6666666666666</ele><time>2026-04-28T09:35:40.977Z</time></trkpt><trkpt lat="39.48573764260437" lon="9.225568600547446"><ele>551.0</ele><time>2026-04-28T09:35:41.977Z</time></trkpt><trkpt lat="39.48571777731517" lon="9.225821522661684"><ele>552.0</ele><time>2026-04-28T09:35:42.977Z</time></trkpt><trkpt lat="39.48568749892744" lon="9.226066592571872"><ele>553.0</ele><time>2026-04-28T09:35:43.977Z</time></trkpt><trkpt lat="39.485617069918945" lon="9.226301672675962"><ele>554.0</ele><time>2026-04-28T09:35:44.977Z</time></trkpt><trkpt lat="39.4855065066477" lon="9.226514639700056"><ele>552.0</ele><time>2026-04-28T09:35:45.977Z</time></trkpt><trkpt lat="39.48535613974874" lon="9.226703844479127"><ele>550.0</ele><time>2026-04-28T09:35:46.977Z</time></trkpt><trkpt lat="39.4851846436034" lon="9.226866575216627"><ele>548.0</ele><time>2026-04-28T09:35:47.977Z</time></trkpt><trkpt lat="39.4850315668414" lon="9.22706354461271"><ele>548.0</ele><time>2026-04-28T09:35:48.977Z</time></trkpt><trkpt lat="39.48490618133728" lon="9.227294428783145"><ele>548.0</ele><time>2026-04-28T09:35:49.977Z</time></trkpt><trkpt lat="39.48476735082631" lon="9.227504677969021"><ele>548.0</ele><time>2026-04-28T09:35:50.977Z</time></trkpt><trkpt lat="39.48461594044019" lon="9.227674877026848"><ele>548.3333333333333</ele><time>2026-04-28T09:35:51.977Z</time></trkpt><trkpt lat="39.484444219493575" lon="9.227813181934303"><ele>548.6666666666666</ele><time>2026-04-28T09:35:52.977Z</time></trkpt><trkpt lat="39.484262403766266" lon="9.227931538950111"><ele>549.0</ele><time>2026-04-28T09:35:53.977Z</time></trkpt><trkpt lat="39.48411057916296" lon="9.228061597196534"><ele>557.3333333333334</ele><time>2026-04-28T09:35:54.977Z</time></trkpt><trkpt lat="39.484011600682514" lon="9.228255069386277"><ele>565.6666666666667</ele><time>2026-04-28T09:35:55.977Z</time></trkpt><trkpt lat="39.48395679454201" lon="9.228487652173069"><ele>574.0</ele><time>2026-04-28T09:35:56.977Z</time></trkpt><trkpt lat="39.4839635484932" lon="9.228748976133184"><ele>575.6666666666667</ele><time>2026-04-28T09:35:57.977Z</time></trkpt><trkpt lat="39.48401887281083" lon="9.229000018735274"><ele>577.3333333333334</ele><time>2026-04-28T09:35:58.977Z</time></trkpt><trkpt lat="39.48407988817408" lon="9.229253590452597"><ele>579.0</ele><time>2026-04-28T09:35:59.977Z</time></trkpt><trkpt lat="39.484099985328776" lon="9.22951623091892"><ele>579.0</ele><time>2026-04-28T09:36:00.977Z</time></trkpt><trkpt lat="39.484128131140594" lon="9.22976732190133"><ele>579.0</ele><time>2026-04-28T09:36:01.977Z</time></trkpt><trkpt lat="39.484199489686226" lon="9.230013183673845"><ele>579.0</ele><time>2026-04-28T09:36:02.977Z</time></trkpt><trkpt lat="39.48427758431392" lon="9.230242308155763"><ele>579.0</ele><time>2026-04-28T09:36:03.977Z</time></trkpt><trkpt lat="39.4844048217064" lon="9.230422759338186"><ele>579.0</ele><time>2026-04-28T09:36:04.978Z</time></trkpt><trkpt lat="39.484585641335016" lon="9.230569532671076"><ele>579.0</ele><time>2026-04-28T09:36:05.978Z</time></trkpt><trkpt lat="39.48475863300723" lon="9.230739455702961"><ele>585.5</ele><time>2026-04-28T09:36:06.978Z</time></trkpt><trkpt lat="39.48490945787102" lon="9.230948211438449"><ele>592.0</ele><time>2026-04-28T09:36:07.978Z</time></trkpt><trkpt lat="39.48504151006868" lon="9.231194584883601"><ele>592.0</ele><time>2026-04-28T09:36:08.978Z</time></trkpt><trkpt lat="39.485177039048544" lon="9.231424365719574"><ele>592.0</ele><time>2026-04-28T09:36:09.978Z</time></trkpt><trkpt lat="39.485330357514464" lon="9.23162743404504"><ele>592.0</ele><time>2026-04-28T09:36:10.978Z</time></trkpt><trkpt lat="39.48545675566856" lon="9.231848498024261"><ele>593.0</ele><time>2026-04-28T09:36:11.978Z</time></trkpt><trkpt lat="39.48552184300641" lon="9.232097002102458"><ele>594.0</ele><time>2026-04-28T09:36:12.978Z</time></trkpt><trkpt lat="39.48550055625769" lon="9.23237203101296"><ele>595.0</ele><time>2026-04-28T09:36:13.978Z</time></trkpt><trkpt lat="39.48542527220009" lon="9.232660253297293"><ele>595.0</ele><time>2026-04-28T09:36:14.978Z</time></trkpt><trkpt lat="39.48539991205868" lon="9.232940128175485"><ele>595.0</ele><time>2026-04-28T09:36:15.978Z</time></trkpt><trkpt lat="39.4854380903927" lon="9.23322728706231"><ele>595.0</ele><time>2026-04-28T09:36:16.978Z</time></trkpt><trkpt lat="39.485530559868536" lon="9.233506800051659"><ele>599.5</ele><time>2026-04-28T09:36:17.978Z</time></trkpt><trkpt lat="39.48567324125683" lon="9.23375868373426"><ele>604.0</ele><time>2026-04-28T09:36:18.978Z</time></trkpt><trkpt lat="39.48581844728134" lon="9.234011571679762"><ele>604.0</ele><time>2026-04-28T09:36:19.978Z</time></trkpt><trkpt lat="39.485928749061564" lon="9.234273182225643"><ele>604.0</ele><time>2026-04-28T09:36:20.978Z</time></trkpt><trkpt lat="39.48597857222084" lon="9.234550260804669"><ele>604.5</ele><time>2026-04-28T09:36:21.978Z</time></trkpt><trkpt lat="39.485972527123884" lon="9.23484355444781"><ele>605.0</ele><time>2026-04-28T09:36:22.978Z</time></trkpt><trkpt lat="39.485915541140386" lon="9.235123062531429"><ele>605.0</ele><time>2026-04-28T09:36:23.978Z</time></trkpt><trkpt lat="39.48583167731526" lon="9.235406078461848"><ele>605.0</ele><time>2026-04-28T09:36:24.978Z</time></trkpt><trkpt lat="39.48574937009175" lon="9.235674114065644"><ele>607.5</ele><time>2026-04-28T09:36:25.978Z</time></trkpt><trkpt lat="39.4856736227286" lon="9.235948454151012"><ele>610.0</ele><time>2026-04-28T09:36:26.978Z</time></trkpt><trkpt lat="39.4855947217823" lon="9.23623047297926"><ele>611.0</ele><time>2026-04-28T09:36:27.978Z</time></trkpt><trkpt lat="39.48551409821892" lon="9.236510289551967"><ele>612.0</ele><time>2026-04-28T09:36:28.978Z</time></trkpt><trkpt lat="39.485436522855046" lon="9.236780060497919"><ele>611.6666666666666</ele><time>2026-04-28T09:36:29.978Z</time></trkpt><trkpt lat="39.4853614626958" lon="9.237047113568112"><ele>611.3333333333333</ele><time>2026-04-28T09:36:30.978Z</time></trkpt><trkpt lat="39.48528679413506" lon="9.237312357178267"><ele>611.0</ele><time>2026-04-28T09:36:31.978Z</time></trkpt><trkpt lat="39.48521030735848" lon="9.237577544727937"><ele>612.0</ele><time>2026-04-28T09:36:32.978Z</time></trkpt><trkpt lat="39.48513794751286" lon="9.237845292103481"><ele>613.0</ele><time>2026-04-28T09:36:33.978Z</time></trkpt><trkpt lat="39.48506469072563" lon="9.238118868750453"><ele>614.0</ele><time>2026-04-28T09:36:34.978Z</time></trkpt><trkpt lat="39.48498350088623" lon="9.238390963865417"><ele>615.5</ele><time>2026-04-28T09:36:35.978Z</time></trkpt><trkpt lat="39.48489813735504" lon="9.238668089924394"><ele>617.0</ele><time>2026-04-28T09:36:36.978Z</time></trkpt><trkpt lat="39.48481368351586" lon="9.238951185984742"><ele>618.0</ele><time>2026-04-28T09:36:37.978Z</time></trkpt><trkpt lat="39.484731066382416" lon="9.239239280773447"><ele>619.0</ele><time>2026-04-28T09:36:38.978Z</time></trkpt><trkpt lat="39.48464967467249" lon="9.239530272018296"><ele>622.5</ele><time>2026-04-28T09:36:39.978Z</time></trkpt><trkpt lat="39.48456705622339" lon="9.239826393801676"><ele>626.0</ele><time>2026-04-28T09:36:40.978Z</time></trkpt><trkpt lat="39.484479787508285" lon="9.240126136420761"><ele>626.0</ele><time>2026-04-28T09:36:41.978Z</time></trkpt><trkpt lat="39.484392670501755" lon="9.24042731053189"><ele>626.0</ele><time>2026-04-28T09:36:42.978Z</time></trkpt><trkpt lat="39.48430732873215" lon="9.240733589103058"><ele>626.5</ele><time>2026-04-28T09:36:43.978Z</time></trkpt><trkpt lat="39.484221874993075" lon="9.241037855936984"><ele>627.0</ele><time>2026-04-28T09:36:44.978Z</time></trkpt><trkpt lat="39.48413794629889" lon="9.241346718486058"><ele>628.5</ele><time>2026-04-28T09:36:45.978Z</time></trkpt><trkpt lat="39.48405181640599" lon="9.241653731006926"><ele>630.0</ele><time>2026-04-28T09:36:46.978Z</time></trkpt><trkpt lat="39.483961729220425" lon="9.241962287003188"><ele>630.0</ele><time>2026-04-28T09:36:47.978Z</time></trkpt><trkpt lat="39.48387225017155" lon="9.24227355399616"><ele>630.0</ele><time>2026-04-28T09:36:48.978Z</time></trkpt><trkpt lat="39.483785802875616" lon="9.242584458112173"><ele>629.5</ele><time>2026-04-28T09:36:49.978Z</time></trkpt><trkpt lat="39.48369849573969" lon="9.242895755569414"><ele>629.0</ele><time>2026-04-28T09:36:50.978Z</time></trkpt><trkpt lat="39.48361081183998" lon="9.243205406587306"><ele>629.0</ele><time>2026-04-28T09:36:51.978Z</time></trkpt><trkpt lat="39.48352391091443" lon="9.243513675843344"><ele>629.0</ele><time>2026-04-28T09:36:52.978Z</time></trkpt><trkpt lat="39.4834423849341" lon="9.24379652816979"><ele>629.0</ele><time>2026-04-28T09:36:53.978Z</time></trkpt><trkpt lat="39.48337646019067" lon="9.244055941934029"><ele>629.0</ele><time>2026-04-28T09:36:54.978Z</time></trkpt><trkpt lat="39.48335299026674" lon="9.244306417070446"><ele>629.0</ele><time>2026-04-28T09:36:55.978Z</time></trkpt><trkpt lat="39.48338785808499" lon="9.24455442260196"><ele>629.0</ele><time>2026-04-28T09:36:56.978Z</time></trkpt><trkpt lat="39.4834717633844" lon="9.244792947936398"><ele>629.0</ele><time>2026-04-28T09:36:57.978Z</time></trkpt><trkpt lat="39.4836003201332" lon="9.245016988904691"><ele>629.0</ele><time>2026-04-28T09:36:58.978Z</time></trkpt><trkpt lat="39.48375329996249" lon="9.24523440610459"><ele>627.0</ele><time>2026-04-28T09:36:59.978Z</time></trkpt><trkpt lat="39.48390179528649" lon="9.245454785914061"><ele>625.0</ele><time>2026-04-28T09:37:00.978Z</time></trkpt><trkpt lat="39.48404896392086" lon="9.245678864772522"><ele>625.0</ele><time>2026-04-28T09:37:01.978Z</time></trkpt><trkpt lat="39.484194533581636" lon="9.245904232737592"><ele>625.0</ele><time>2026-04-28T09:37:02.978Z</time></trkpt><trkpt lat="39.48433931415635" lon="9.246124295068089"><ele>625.0</ele><time>2026-04-28T09:37:03.978Z</time></trkpt><trkpt lat="39.48448863217484" lon="9.246351479153969"><ele>625.0</ele><time>2026-04-28T09:37:04.978Z</time></trkpt><trkpt lat="39.484641569083784" lon="9.246582695575462"><ele>623.5</ele><time>2026-04-28T09:37:05.978Z</time></trkpt><trkpt lat="39.48479812015119" lon="9.246815263605782"><ele>622.0</ele><time>2026-04-28T09:37:06.978Z</time></trkpt><trkpt lat="39.48495677161557" lon="9.247045726098056"><ele>622.0</ele><time>2026-04-28T09:37:07.978Z</time></trkpt><trkpt lat="39.48511243960028" lon="9.247277856393733"><ele>622.0</ele><time>2026-04-28T09:37:08.978Z</time></trkpt><trkpt lat="39.4852588829053" lon="9.247512031054589"><ele>622.5</ele><time>2026-04-28T09:37:09.978Z</time></trkpt><trkpt lat="39.485398830840296" lon="9.247773415875317"><ele>623.0</ele><time>2026-04-28T09:37:10.978Z</time></trkpt><trkpt lat="39.48551117596712" lon="9.248052484022125"><ele>623.5</ele><time>2026-04-28T09:37:11.978Z</time></trkpt><trkpt lat="39.48559262172111" lon="9.248359004247279"><ele>624.0</ele><time>2026-04-28T09:37:12.978Z</time></trkpt><trkpt lat="39.4856593117157" lon="9.24867079061594"><ele>623.0</ele><time>2026-04-28T09:37:13.978Z</time></trkpt><trkpt lat="39.48571658774447" lon="9.248990540433846"><ele>622.0</ele><time>2026-04-28T09:37:14.978Z</time></trkpt><trkpt lat="39.48577102427474" lon="9.249302277385508"><ele>622.0</ele><time>2026-04-28T09:37:15.977Z</time></trkpt><trkpt lat="39.485822027941495" lon="9.249579925681891"><ele>622.0</ele><time>2026-04-28T09:37:16.977Z</time></trkpt><trkpt lat="39.4858903762293" lon="9.24981075990904"><ele>622.0</ele><time>2026-04-28T09:37:17.977Z</time></trkpt><trkpt lat="39.4860149981626" lon="9.2499872388959"><ele>623.0</ele><time>2026-04-28T09:37:18.977Z</time></trkpt><trkpt lat="39.486202624225974" lon="9.2501237530313"><ele>624.0</ele><time>2026-04-28T09:37:19.977Z</time></trkpt><trkpt lat="39.486366130103704" lon="9.250255809421047"><ele>625.0</ele><time>2026-04-28T09:37:20.977Z</time></trkpt><trkpt lat="39.486468339909564" lon="9.250433715245254"><ele>624.0</ele><time>2026-04-28T09:37:21.977Z</time></trkpt><trkpt lat="39.48651472791785" lon="9.25068151791231"><ele>623.0</ele><time>2026-04-28T09:37:22.977Z</time></trkpt><trkpt lat="39.486506503381655" lon="9.25097683574"><ele>622.0</ele><time>2026-04-28T09:37:23.977Z</time></trkpt><trkpt lat="39.48647959850103" lon="9.251272564938505"><ele>621.0</ele><time>2026-04-28T09:37:24.977Z</time></trkpt><trkpt lat="39.48646479398911" lon="9.251560238553465"><ele>620.0</ele><time>2026-04-28T09:37:25.977Z</time></trkpt><trkpt lat="39.48646430668996" lon="9.251855721022721"><ele>620.0</ele><time>2026-04-28T09:37:26.977Z</time></trkpt><trkpt lat="39.48645445920136" lon="9.252142945935491"><ele>620.0</ele><time>2026-04-28T09:37:27.977Z</time></trkpt><trkpt lat="39.48643148555538" lon="9.252413068729556"><ele>620.0</ele><time>2026-04-28T09:37:28.977Z</time></trkpt><trkpt lat="39.48636336033771" lon="9.252677591276147"><ele>619.3333333333333</ele><time>2026-04-28T09:37:29.977Z</time></trkpt><trkpt lat="39.4862871477737" lon="9.252926214610724"><ele>618.6666666666666</ele><time>2026-04-28T09:37:30.977Z</time></trkpt><trkpt lat="39.48624429911878" lon="9.253153340914409"><ele>618.0</ele><time>2026-04-28T09:37:31.977Z</time></trkpt><trkpt lat="39.48628732627914" lon="9.253362946532471"><ele>617.3333333333334</ele><time>2026-04-28T09:37:32.977Z</time></trkpt><trkpt lat="39.486408904924446" lon="9.25353332371188"><ele>616.6666666666667</ele><time>2026-04-28T09:37:33.977Z</time></trkpt><trkpt lat="39.48652686313585" lon="9.253673234671773"><ele>616.0</ele><time>2026-04-28T09:37:34.977Z</time></trkpt><trkpt lat="39.486574388666895" lon="9.253834015619217"><ele>614.6666666666667</ele><time>2026-04-28T09:37:35.977Z</time></trkpt><trkpt lat="39.48653451344512" lon="9.254032201643872"><ele>613.3333333333334</ele><time>2026-04-28T09:37:36.977Z</time></trkpt><trkpt lat="39.48643252112706" lon="9.254284874181328"><ele>612.0</ele><time>2026-04-28T09:37:37.977Z</time></trkpt><trkpt lat="39.48637717641167" lon="9.254594985436253"><ele>611.0</ele><time>2026-04-28T09:37:38.977Z</time></trkpt><trkpt lat="39.486382331872804" lon="9.254922892019096"><ele>610.0</ele><time>2026-04-28T09:37:39.977Z</time></trkpt><trkpt lat="39.48640333407933" lon="9.255243179674059"><ele>610.0</ele><time>2026-04-28T09:37:40.977Z</time></trkpt><trkpt lat="39.48647477910136" lon="9.255531899598331"><ele>610.0</ele><time>2026-04-28T09:37:41.977Z</time></trkpt><trkpt lat="39.48660355663294" lon="9.25579040381683"><ele>606.3333333333334</ele><time>2026-04-28T09:37:42.977Z</time></trkpt><trkpt lat="39.4867187343795" lon="9.256040409888579"><ele>602.6666666666666</ele><time>2026-04-28T09:37:43.977Z</time></trkpt><trkpt lat="39.4867682682965" lon="9.256311384889676"><ele>599.0</ele><time>2026-04-28T09:37:44.977Z</time></trkpt><trkpt lat="39.48679524559748" lon="9.256583019923687"><ele>600.6666666666666</ele><time>2026-04-28T09:37:45.977Z</time></trkpt><trkpt lat="39.48689210000726" lon="9.2568069521367"><ele>602.3333333333334</ele><time>2026-04-28T09:37:46.977Z</time></trkpt><trkpt lat="39.487023117110546" lon="9.256958782428137"><ele>604.0</ele><time>2026-04-28T09:37:47.977Z</time></trkpt><trkpt lat="39.487198863151725" lon="9.257034449258601"><ele>604.0</ele><time>2026-04-28T09:37:48.977Z</time></trkpt><trkpt lat="39.487429358819966" lon="9.257054843568486"><ele>604.0</ele><time>2026-04-28T09:37:49.977Z</time></trkpt><trkpt lat="39.48766824208336" lon="9.257051715285712"><ele>604.0</ele><time>2026-04-28T09:37:50.977Z</time></trkpt><trkpt lat="39.48787874199095" lon="9.257101956893393"><ele>604.0</ele><time>2026-04-28T09:37:51.977Z</time></trkpt><trkpt lat="39.48804143093253" lon="9.25724032086835"><ele>604.0</ele><time>2026-04-28T09:37:52.977Z</time></trkpt><trkpt lat="39.488160361285004" lon="9.257409304723602"><ele>599.0</ele><time>2026-04-28T09:37:53.977Z</time></trkpt><trkpt lat="39.48821055862175" lon="9.257613069000419"><ele>594.0</ele><time>2026-04-28T09:37:54.977Z</time></trkpt><trkpt lat="39.48817862498405" lon="9.257847287032824"><ele>589.0</ele><time>2026-04-28T09:37:55.977Z</time></trkpt><trkpt lat="39.488086223753164" lon="9.258055140189274"><ele>588.6666666666667</ele><time>2026-04-28T09:37:56.977Z</time></trkpt><trkpt lat="39.48793534890935" lon="9.258225602091958"><ele>588.3333333333334</ele><time>2026-04-28T09:37:57.977Z</time></trkpt><trkpt lat="39.48780503073398" lon="9.258472856257592"><ele>588.0</ele><time>2026-04-28T09:37:58.977Z</time></trkpt><trkpt lat="39.487712440544335" lon="9.258789685225782"><ele>581.5</ele><time>2026-04-28T09:37:59.977Z</time></trkpt><trkpt lat="39.48763166289699" lon="9.259078416442591"><ele>575.0</ele><time>2026-04-28T09:38:00.977Z</time></trkpt><trkpt lat="39.48755962334119" lon="9.259359677631942"><ele>575.0</ele><time>2026-04-28T09:38:01.977Z</time></trkpt><trkpt lat="39.487506666915664" lon="9.259654498353257"><ele>575.0</ele><time>2026-04-28T09:38:02.977Z</time></trkpt><trkpt lat="39.487485765159974" lon="9.259951660491229"><ele>574.5</ele><time>2026-04-28T09:38:03.977Z</time></trkpt><trkpt lat="39.487498732654224" lon="9.260260142526016"><ele>574.0</ele><time>2026-04-28T09:38:04.977Z</time></trkpt><trkpt lat="39.48752821397602" lon="9.26054882880043"><ele>573.0</ele><time>2026-04-28T09:38:05.977Z</time></trkpt><trkpt lat="39.48753670929673" lon="9.260821993685134"><ele>572.0</ele><time>2026-04-28T09:38:06.977Z</time></trkpt><trkpt lat="39.48749225094872" lon="9.261081551507111"><ele>571.0</ele><time>2026-04-28T09:38:07.977Z</time></trkpt><trkpt lat="39.48741318184728" lon="9.261328023421207"><ele>570.6666666666667</ele><time>2026-04-28T09:38:08.977Z</time></trkpt><trkpt lat="39.48731527355355" lon="9.261554226259955"><ele>570.3333333333334</ele><time>2026-04-28T09:38:09.977Z</time></trkpt><trkpt lat="39.487247479425385" lon="9.2617575324366"><ele>570.0</ele><time>2026-04-28T09:38:10.977Z</time></trkpt><trkpt lat="39.487268495765896" lon="9.261949349226155"><ele>570.0</ele><time>2026-04-28T09:38:11.978Z</time></trkpt><trkpt lat="39.487369036091096" lon="9.262153633311785"><ele>570.0</ele><time>2026-04-28T09:38:12.978Z</time></trkpt><trkpt lat="39.48749840407807" lon="9.262348688105195"><ele>570.0</ele><time>2026-04-28T09:38:13.977Z</time></trkpt><trkpt lat="39.487606323532724" lon="9.262569312246486"><ele>566.0</ele><time>2026-04-28T09:38:14.977Z</time></trkpt><trkpt lat="39.48765447197922" lon="9.262848203885389"><ele>562.0</ele><time>2026-04-28T09:38:15.977Z</time></trkpt><trkpt lat="39.48767009068817" lon="9.26314782867404"><ele>559.6666666666667</ele><time>2026-04-28T09:38:16.978Z</time></trkpt><trkpt lat="39.487675029636286" lon="9.263440864410478"><ele>557.3333333333334</ele><time>2026-04-28T09:38:17.978Z</time></trkpt><trkpt lat="39.48766694355341" lon="9.263714623033184"><ele>555.0</ele><time>2026-04-28T09:38:18.978Z</time></trkpt><trkpt lat="39.48760977985847" lon="9.263969165385484"><ele>555.0</ele><time>2026-04-28T09:38:19.977Z</time></trkpt><trkpt lat="39.48749740190527" lon="9.264219634921684"><ele>555.0</ele><time>2026-04-28T09:38:20.977Z</time></trkpt><trkpt lat="39.48734495314682" lon="9.264438524428112"><ele>555.0</ele><time>2026-04-28T09:38:21.977Z</time></trkpt><trkpt lat="39.48717458638654" lon="9.264635834853093"><ele>555.0</ele><time>2026-04-28T09:38:22.977Z</time></trkpt><trkpt lat="39.4870141633184" lon="9.264830035690377"><ele>555.0</ele><time>2026-04-28T09:38:23.977Z</time></trkpt><trkpt lat="39.48687863184418" lon="9.265026956040835"><ele>551.0</ele><time>2026-04-28T09:38:24.977Z</time></trkpt><trkpt lat="39.486788522735296" lon="9.265246123793473"><ele>547.0</ele><time>2026-04-28T09:38:25.977Z</time></trkpt><trkpt lat="39.48674178860254" lon="9.26551096534312"><ele>543.0</ele><time>2026-04-28T09:38:26.977Z</time></trkpt><trkpt lat="39.4867330966342" lon="9.265791642251603"><ele>543.0</ele><time>2026-04-28T09:38:27.977Z</time></trkpt><trkpt lat="39.48675276882278" lon="9.266062463866103"><ele>543.0</ele><time>2026-04-28T09:38:28.977Z</time></trkpt><trkpt lat="39.48681101955749" lon="9.26631795158029"><ele>543.0</ele><time>2026-04-28T09:38:29.977Z</time></trkpt><trkpt lat="39.48691440654765" lon="9.266563608567932"><ele>539.0</ele><time>2026-04-28T09:38:30.977Z</time></trkpt><trkpt lat="39.487024719432625" lon="9.266782956540826"><ele>535.0</ele><time>2026-04-28T09:38:31.977Z</time></trkpt><trkpt lat="39.4870527487457" lon="9.267024921465264"><ele>531.0</ele><time>2026-04-28T09:38:32.977Z</time></trkpt><trkpt lat="39.4870287614006" lon="9.267255111990327"><ele>533.0</ele><time>2026-04-28T09:38:33.977Z</time></trkpt><trkpt lat="39.487040805064574" lon="9.26744578693053"><ele>535.0</ele><time>2026-04-28T09:38:34.977Z</time></trkpt><trkpt lat="39.48712204425209" lon="9.267604713703802"><ele>537.0</ele><time>2026-04-28T09:38:35.977Z</time></trkpt><trkpt lat="39.48725315026189" lon="9.26766682760255"><ele>539.0</ele><time>2026-04-28T09:38:36.977Z</time></trkpt><trkpt lat="39.487417514907676" lon="9.267651302691087"><ele>539.0</ele><time>2026-04-28T09:38:37.977Z</time></trkpt><trkpt lat="39.487614963217105" lon="9.267586322862115"><ele>539.0</ele><time>2026-04-28T09:38:38.977Z</time></trkpt><trkpt lat="39.48781893204624" lon="9.26748331500903"><ele>539.0</ele><time>2026-04-28T09:38:39.977Z</time></trkpt><trkpt lat="39.48801395527782" lon="9.267371394455783"><ele>540.6666666666666</ele><time>2026-04-28T09:38:40.977Z</time></trkpt><trkpt lat="39.48817011493612" lon="9.267224748202878"><ele>542.3333333333334</ele><time>2026-04-28T09:38:41.977Z</time></trkpt><trkpt lat="39.48826661679196" lon="9.267013747593895"><ele>544.0</ele><time>2026-04-28T09:38:42.977Z</time></trkpt><trkpt lat="39.48832694402166" lon="9.266848561925451"><ele>544.0</ele><time>2026-04-28T09:38:43.977Z</time></trkpt><trkpt lat="39.48839716803502" lon="9.266776560103231"><ele>544.0</ele><time>2026-04-28T09:38:44.977Z</time></trkpt><trkpt lat="39.48847712663222" lon="9.266809100484677"><ele>544.0</ele><time>2026-04-28T09:38:45.977Z</time></trkpt><trkpt lat="39.488543876594846" lon="9.266910830167742"><ele>544.0</ele><time>2026-04-28T09:38:46.977Z</time></trkpt><trkpt lat="39.48855584965436" lon="9.267072274012609"><ele>544.0</ele><time>2026-04-28T09:38:47.977Z</time></trkpt><trkpt lat="39.488530966725776" lon="9.267288298393375"><ele>540.0</ele><time>2026-04-28T09:38:48.977Z</time></trkpt><trkpt lat="39.48853441822268" lon="9.26754782011715"><ele>536.0</ele><time>2026-04-28T09:38:49.977Z</time></trkpt><trkpt lat="39.488558237765275" lon="9.26782850716696"><ele>532.0</ele><time>2026-04-28T09:38:50.977Z</time></trkpt><trkpt lat="39.488574708670065" lon="9.268081522743854"><ele>529.3333333333334</ele><time>2026-04-28T09:38:51.977Z</time></trkpt><trkpt lat="39.488544633783675" lon="9.268293631775482"><ele>526.6666666666666</ele><time>2026-04-28T09:38:52.977Z</time></trkpt><trkpt lat="39.48844039791958" lon="9.268479081025426"><ele>524.0</ele><time>2026-04-28T09:38:53.977Z</time></trkpt><trkpt lat="39.488296489235466" lon="9.268668424610196"><ele>524.0</ele><time>2026-04-28T09:38:54.977Z</time></trkpt><trkpt lat="39.48814000980476" lon="9.268882725339704"><ele>524.0</ele><time>2026-04-28T09:38:55.977Z</time></trkpt><trkpt lat="39.4879878714531" lon="9.269086924406295"><ele>524.0</ele><time>2026-04-28T09:38:56.977Z</time></trkpt><trkpt lat="39.487829710557925" lon="9.269297632005012"><ele>514.5</ele><time>2026-04-28T09:38:57.977Z</time></trkpt><trkpt lat="39.48768028475552" lon="9.2695148075303"><ele>505.0</ele><time>2026-04-28T09:38:58.977Z</time></trkpt><trkpt lat="39.487562881595736" lon="9.26976601903765"><ele>509.0</ele><time>2026-04-28T09:38:59.977Z</time></trkpt><trkpt lat="39.48748013010102" lon="9.270060037148848"><ele>513.0</ele><time>2026-04-28T09:39:00.977Z</time></trkpt><trkpt lat="39.48744657622341" lon="9.27037201311261"><ele>514.0</ele><time>2026-04-28T09:39:01.977Z</time></trkpt><trkpt lat="39.487442319922415" lon="9.270674208174444"><ele>515.0</ele><time>2026-04-28T09:39:02.976Z</time></trkpt><trkpt lat="39.48745454519743" lon="9.270965131795963"><ele>515.0</ele><time>2026-04-28T09:39:03.976Z</time></trkpt><trkpt lat="39.48743620774145" lon="9.271225816741447"><ele>515.0</ele><time>2026-04-28T09:39:04.976Z</time></trkpt><trkpt lat="39.487352528631476" lon="9.271456877220917"><ele>515.0</ele><time>2026-04-28T09:39:05.976Z</time></trkpt><trkpt lat="39.487230051000545" lon="9.271679083823086"><ele>517.0</ele><time>2026-04-28T09:39:06.976Z</time></trkpt><trkpt lat="39.487101147118004" lon="9.271909382511652"><ele>519.0</ele><time>2026-04-28T09:39:07.976Z</time></trkpt><trkpt lat="39.486980346604724" lon="9.272147665225237"><ele>521.0</ele><time>2026-04-28T09:39:08.976Z</time></trkpt><trkpt lat="39.48686461119945" lon="9.27241778552977"><ele>507.5</ele><time>2026-04-28T09:39:09.976Z</time></trkpt><trkpt lat="39.4867585478353" lon="9.272687903496328"><ele>494.0</ele><time>2026-04-28T09:39:10.976Z</time></trkpt><trkpt lat="39.486664979074405" lon="9.272939672161678"><ele>496.3333333333333</ele><time>2026-04-28T09:39:11.976Z</time></trkpt><trkpt lat="39.48660080762359" lon="9.27316215133382"><ele>498.66666666666663</ele><time>2026-04-28T09:39:12.976Z</time></trkpt><trkpt lat="39.48659937302601" lon="9.273372018276588"><ele>501.0</ele><time>2026-04-28T09:39:13.976Z</time></trkpt><trkpt lat="39.486678392822654" lon="9.273586961820723"><ele>501.0</ele><time>2026-04-28T09:39:14.976Z</time></trkpt><trkpt lat="39.48678434462228" lon="9.273770273321837"><ele>501.0</ele><time>2026-04-28T09:39:15.976Z</time></trkpt><trkpt lat="39.486840328817124" lon="9.273967854185937"><ele>501.0</ele><time>2026-04-28T09:39:16.976Z</time></trkpt><trkpt lat="39.48680116822669" lon="9.274209464187413"><ele>500.33333333333337</ele><time>2026-04-28T09:39:17.976Z</time></trkpt><trkpt lat="39.48674981429878" lon="9.2744798776906"><ele>499.6666666666667</ele><time>2026-04-28T09:39:18.976Z</time></trkpt><trkpt lat="39.4866862173526" lon="9.274756719324417"><ele>499.0</ele><time>2026-04-28T09:39:19.976Z</time></trkpt><trkpt lat="39.48658030496969" lon="9.275004923511709"><ele>499.0</ele><time>2026-04-28T09:39:20.976Z</time></trkpt><trkpt lat="39.48643081505965" lon="9.275236072188681"><ele>499.0</ele><time>2026-04-28T09:39:21.976Z</time></trkpt><trkpt lat="39.48626959143749" lon="9.275458883372103"><ele>492.33333333333337</ele><time>2026-04-28T09:39:22.976Z</time></trkpt><trkpt lat="39.48612998329591" lon="9.275656539110424"><ele>485.66666666666663</ele><time>2026-04-28T09:39:23.976Z</time></trkpt><trkpt lat="39.48602836639872" lon="9.275848184227897"><ele>479.0</ele><time>2026-04-28T09:39:24.976Z</time></trkpt><trkpt lat="39.486001364210956" lon="9.2761030650901"><ele>479.0</ele><time>2026-04-28T09:39:25.976Z</time></trkpt><trkpt lat="39.48602556217714" lon="9.276389839114833"><ele>479.0</ele><time>2026-04-28T09:39:26.976Z</time></trkpt><trkpt lat="39.486053869507494" lon="9.276687102336497"><ele>478.66666666666663</ele><time>2026-04-28T09:39:27.976Z</time></trkpt><trkpt lat="39.4860428264103" lon="9.27695639649967"><ele>478.33333333333337</ele><time>2026-04-28T09:39:28.976Z</time></trkpt><trkpt lat="39.4860260978088" lon="9.277202280959708"><ele>478.0</ele><time>2026-04-28T09:39:29.976Z</time></trkpt><trkpt lat="39.486064069771146" lon="9.277430903561013"><ele>475.6666666666667</ele><time>2026-04-28T09:39:30.976Z</time></trkpt><trkpt lat="39.48619038072753" lon="9.277641812615052"><ele>473.33333333333337</ele><time>2026-04-28T09:39:31.976Z</time></trkpt><trkpt lat="39.48636231999413" lon="9.277829939715678"><ele>471.0</ele><time>2026-04-28T09:39:32.976Z</time></trkpt><trkpt lat="39.48652897806174" lon="9.278029814905933"><ele>475.0</ele><time>2026-04-28T09:39:33.976Z</time></trkpt><trkpt lat="39.48663124513463" lon="9.278253311451188"><ele>479.0</ele><time>2026-04-28T09:39:34.976Z</time></trkpt><trkpt lat="39.48667900497219" lon="9.278503564282355"><ele>483.0</ele><time>2026-04-28T09:39:35.976Z</time></trkpt><trkpt lat="39.48668706396525" lon="9.278801436655879"><ele>479.0</ele><time>2026-04-28T09:39:36.976Z</time></trkpt><trkpt lat="39.48668706607175" lon="9.279083455757828"><ele>475.0</ele><time>2026-04-28T09:39:37.976Z</time></trkpt><trkpt lat="39.48665644961279" lon="9.279305213521742"><ele>471.0</ele><time>2026-04-28T09:39:38.976Z</time></trkpt><trkpt lat="39.48663655301023" lon="9.279496388326395"><ele>471.0</ele><time>2026-04-28T09:39:39.976Z</time></trkpt><trkpt lat="39.48669954203988" lon="9.279669077073065"><ele>471.0</ele><time>2026-04-28T09:39:40.976Z</time></trkpt><trkpt lat="39.48682111721892" lon="9.279839736672066"><ele>471.0</ele><time>2026-04-28T09:39:41.976Z</time></trkpt><trkpt lat="39.486970404909464" lon="9.279961589478246"><ele>467.0</ele><time>2026-04-28T09:39:42.976Z</time></trkpt><trkpt lat="39.48712970324517" lon="9.279988976531358"><ele>463.0</ele><time>2026-04-28T09:39:43.976Z</time></trkpt><trkpt lat="39.48729046318654" lon="9.279932696400396"><ele>459.0</ele><time>2026-04-28T09:39:44.976Z</time></trkpt><trkpt lat="39.48740180941313" lon="9.2797947606796"><ele>463.0</ele><time>2026-04-28T09:39:45.976Z</time></trkpt><trkpt lat="39.48745063158725" lon="9.27959007480401"><ele>467.0</ele><time>2026-04-28T09:39:46.976Z</time></trkpt><trkpt lat="39.48743902660512" lon="9.279341314660627"><ele>471.0</ele><time>2026-04-28T09:39:47.976Z</time></trkpt><trkpt lat="39.48743529789609" lon="9.279098364899985"><ele>479.0</ele><time>2026-04-28T09:39:48.976Z</time></trkpt><trkpt lat="39.4875086397726" lon="9.278905820394488"><ele>487.0</ele><time>2026-04-28T09:39:49.976Z</time></trkpt><trkpt lat="39.48763789049616" lon="9.278764866750503"><ele>495.0</ele><time>2026-04-28T09:39:50.976Z</time></trkpt><trkpt lat="39.48779973672289" lon="9.278677234969738"><ele>495.0</ele><time>2026-04-28T09:39:51.976Z</time></trkpt><trkpt lat="39.48791580624861" lon="9.278650995753862"><ele>495.0</ele><time>2026-04-28T09:39:52.976Z</time></trkpt><trkpt lat="39.48800644487996" lon="9.278709328306538"><ele>495.0</ele><time>2026-04-28T09:39:53.976Z</time></trkpt><trkpt lat="39.48804671536058" lon="9.278846101601552"><ele>495.0</ele><time>2026-04-28T09:39:54.976Z</time></trkpt><trkpt lat="39.48804712855086" lon="9.279037978199161"><ele>487.33333333333337</ele><time>2026-04-28T09:39:55.976Z</time></trkpt><trkpt lat="39.48810191135061" lon="9.279262099593343"><ele>479.6666666666667</ele><time>2026-04-28T09:39:56.976Z</time></trkpt><trkpt lat="39.48823516058117" lon="9.279466083889382"><ele>472.0</ele><time>2026-04-28T09:39:57.976Z</time></trkpt><trkpt lat="39.48836970079213" lon="9.27967806162568"><ele>469.6666666666667</ele><time>2026-04-28T09:39:58.976Z</time></trkpt><trkpt lat="39.488451949950615" lon="9.279916596604117"><ele>467.33333333333337</ele><time>2026-04-28T09:39:59.976Z</time></trkpt><trkpt lat="39.48847397842593" lon="9.280170913622106"><ele>465.0</ele><time>2026-04-28T09:40:00.976Z</time></trkpt><trkpt lat="39.48843343397639" lon="9.280458024240843"><ele>466.66666666666663</ele><time>2026-04-28T09:40:01.976Z</time></trkpt><trkpt lat="39.488391527071194" lon="9.280712392848036"><ele>468.3333333333333</ele><time>2026-04-28T09:40:02.976Z</time></trkpt><trkpt lat="39.48830473188506" lon="9.280930232961312"><ele>470.0</ele><time>2026-04-28T09:40:03.976Z</time></trkpt><trkpt lat="39.48814223469845" lon="9.281118648563517"><ele>470.0</ele><time>2026-04-28T09:40:04.976Z</time></trkpt><trkpt lat="39.48796490447805" lon="9.281340546419509"><ele>470.0</ele><time>2026-04-28T09:40:05.976Z</time></trkpt><trkpt lat="39.487818320596986" lon="9.281573005057679"><ele>464.3333333333333</ele><time>2026-04-28T09:40:06.976Z</time></trkpt><trkpt lat="39.48768232738389" lon="9.28180065225898"><ele>458.66666666666663</ele><time>2026-04-28T09:40:07.976Z</time></trkpt><trkpt lat="39.48754934746083" lon="9.282027329422027"><ele>453.0</ele><time>2026-04-28T09:40:08.976Z</time></trkpt><trkpt lat="39.48743184481598" lon="9.282262935143011"><ele>448.33333333333337</ele><time>2026-04-28T09:40:09.975Z</time></trkpt><trkpt lat="39.48728636797444" lon="9.282464520142812"><ele>443.6666666666667</ele><time>2026-04-28T09:40:10.975Z</time></trkpt><trkpt lat="39.48713515418646" lon="9.282621617009573"><ele>439.0</ele><time>2026-04-28T09:40:11.975Z</time></trkpt><trkpt lat="39.48700948238977" lon="9.28276503055727"><ele>439.0</ele><time>2026-04-28T09:40:12.975Z</time></trkpt><trkpt lat="39.48694256717105" lon="9.28296333964868"><ele>439.0</ele><time>2026-04-28T09:40:13.975Z</time></trkpt><trkpt lat="39.486946614854595" lon="9.283197121446856"><ele>439.0</ele><time>2026-04-28T09:40:14.975Z</time></trkpt><trkpt lat="39.48698023350028" lon="9.283449441327189"><ele>444.0</ele><time>2026-04-28T09:40:15.975Z</time></trkpt><trkpt lat="39.48699435705661" lon="9.283729641062887"><ele>449.0</ele><time>2026-04-28T09:40:16.977Z</time></trkpt><trkpt lat="39.48698794380514" lon="9.28400119855291"><ele>454.0</ele><time>2026-04-28T09:40:17.977Z</time></trkpt><trkpt lat="39.4870129943066" lon="9.28427939205471"><ele>454.6666666666667</ele><time>2026-04-28T09:40:18.977Z</time></trkpt><trkpt lat="39.487081410358165" lon="9.284559874654265"><ele>455.33333333333337</ele><time>2026-04-28T09:40:19.977Z</time></trkpt><trkpt lat="39.48713490553931" lon="9.284834196376446"><ele>456.0</ele><time>2026-04-28T09:40:20.976Z</time></trkpt><trkpt lat="39.4871428017654" lon="9.285106830903157"><ele>456.0</ele><time>2026-04-28T09:40:21.976Z</time></trkpt><trkpt lat="39.48710231696852" lon="9.285400739524029"><ele>456.0</ele><time>2026-04-28T09:40:22.977Z</time></trkpt><trkpt lat="39.48705732346571" lon="9.285690534093552"><ele>456.0</ele><time>2026-04-28T09:40:23.977Z</time></trkpt><trkpt lat="39.48702546206611" lon="9.285952129480394"><ele>456.0</ele><time>2026-04-28T09:40:24.977Z</time></trkpt><trkpt lat="39.48701587498399" lon="9.286195813840147"><ele>456.0</ele><time>2026-04-28T09:40:25.977Z</time></trkpt><trkpt lat="39.48707557212378" lon="9.286399886236008"><ele>460.66666666666663</ele><time>2026-04-28T09:40:26.977Z</time></trkpt><trkpt lat="39.487202457169126" lon="9.286565483174552"><ele>465.3333333333333</ele><time>2026-04-28T09:40:27.977Z</time></trkpt><trkpt lat="39.487362155562174" lon="9.286689481901877"><ele>470.0</ele><time>2026-04-28T09:40:28.977Z</time></trkpt><trkpt lat="39.48752444648812" lon="9.286724059199663"><ele>470.0</ele><time>2026-04-28T09:40:29.977Z</time></trkpt><trkpt lat="39.48770948033391" lon="9.286658095140107"><ele>470.0</ele><time>2026-04-28T09:40:30.977Z</time></trkpt><trkpt lat="39.48790463718469" lon="9.28652604060783"><ele>470.0</ele><time>2026-04-28T09:40:31.977Z</time></trkpt><trkpt lat="39.48808246119858" lon="9.28636036674884"><ele>470.3333333333333</ele><time>2026-04-28T09:40:32.977Z</time></trkpt><trkpt lat="39.48820690795017" lon="9.286142432879673"><ele>470.66666666666663</ele><time>2026-04-28T09:40:33.977Z</time></trkpt><trkpt lat="39.48830739846592" lon="9.285865401278677"><ele>471.0</ele><time>2026-04-28T09:40:34.977Z</time></trkpt><trkpt lat="39.48837955408954" lon="9.285582503011074"><ele>471.0</ele><time>2026-04-28T09:40:35.977Z</time></trkpt><trkpt lat="39.488444228982694" lon="9.285330922563707"><ele>471.0</ele><time>2026-04-28T09:40:36.977Z</time></trkpt><trkpt lat="39.48851240252178" lon="9.285108335759332"><ele>471.0</ele><time>2026-04-28T09:40:37.977Z</time></trkpt><trkpt lat="39.488623844380676" lon="9.284920272576809"><ele>470.33333333333337</ele><time>2026-04-28T09:40:38.977Z</time></trkpt><trkpt lat="39.48877372265172" lon="9.284756186667321"><ele>469.6666666666667</ele><time>2026-04-28T09:40:39.977Z</time></trkpt><trkpt lat="39.48894737617297" lon="9.284598006085004"><ele>469.0</ele><time>2026-04-28T09:40:40.977Z</time></trkpt><trkpt lat="39.489126394669235" lon="9.284424306396401"><ele>469.0</ele><time>2026-04-28T09:40:41.977Z</time></trkpt><trkpt lat="39.489295661501224" lon="9.28428518777627"><ele>469.0</ele><time>2026-04-28T09:40:42.977Z</time></trkpt><trkpt lat="39.48947003605036" lon="9.28421057561105"><ele>469.0</ele><time>2026-04-28T09:40:43.977Z</time></trkpt><trkpt lat="39.48960650046117" lon="9.284177089059591"><ele>468.5</ele><time>2026-04-28T09:40:44.977Z</time></trkpt><trkpt lat="39.48971160266342" lon="9.284179878705785"><ele>468.0</ele><time>2026-04-28T09:40:45.977Z</time></trkpt><trkpt lat="39.4897935414917" lon="9.284252759848039"><ele>467.5</ele><time>2026-04-28T09:40:46.977Z</time></trkpt><trkpt lat="39.48982094705983" lon="9.284381670373794"><ele>467.0</ele><time>2026-04-28T09:40:47.977Z</time></trkpt><trkpt lat="39.489794722833174" lon="9.284563158919202"><ele>466.3333333333333</ele><time>2026-04-28T09:40:48.976Z</time></trkpt><trkpt lat="39.48971880550575" lon="9.284770190064995"><ele>465.66666666666663</ele><time>2026-04-28T09:40:49.976Z</time></trkpt><trkpt lat="39.48961773109566" lon="9.284989856805648"><ele>465.0</ele><time>2026-04-28T09:40:50.976Z</time></trkpt><trkpt lat="39.48952550000908" lon="9.285214581774635"><ele>461.0</ele><time>2026-04-28T09:40:51.976Z</time></trkpt><trkpt lat="39.48947162740038" lon="9.285472591013075"><ele>457.0</ele><time>2026-04-28T09:40:52.976Z</time></trkpt><trkpt lat="39.489465273375664" lon="9.285752978828734"><ele>453.0</ele><time>2026-04-28T09:40:53.976Z</time></trkpt><trkpt lat="39.48948778361748" lon="9.286031904277182"><ele>451.0</ele><time>2026-04-28T09:40:54.976Z</time></trkpt><trkpt lat="39.48950057571154" lon="9.286314486474314"><ele>449.0</ele><time>2026-04-28T09:40:55.976Z</time></trkpt><trkpt lat="39.48950112570158" lon="9.286587054304693"><ele>447.0</ele><time>2026-04-28T09:40:56.976Z</time></trkpt><trkpt lat="39.489478200787566" lon="9.286865243532288"><ele>444.5</ele><time>2026-04-28T09:40:57.976Z</time></trkpt><trkpt lat="39.48942326536621" lon="9.287153783371132"><ele>442.0</ele><time>2026-04-28T09:40:58.976Z</time></trkpt><trkpt lat="39.48936532545612" lon="9.287444642220892"><ele>441.0</ele><time>2026-04-28T09:40:59.976Z</time></trkpt><trkpt lat="39.48932316688549" lon="9.287721895262512"><ele>440.0</ele><time>2026-04-28T09:41:00.976Z</time></trkpt><trkpt lat="39.4893259086542" lon="9.287978247077861"><ele>439.0</ele><time>2026-04-28T09:41:01.976Z</time></trkpt><trkpt lat="39.4893831388579" lon="9.288200388887867"><ele>436.0</ele><time>2026-04-28T09:41:02.976Z</time></trkpt><trkpt lat="39.489504373428815" lon="9.288381874671062"><ele>433.0</ele><time>2026-04-28T09:41:03.976Z</time></trkpt><trkpt lat="39.48968142889962" lon="9.28852281202652"><ele>430.0</ele><time>2026-04-28T09:41:04.976Z</time></trkpt><trkpt lat="39.489890698636245" lon="9.288639361593487"><ele>430.6666666666667</ele><time>2026-04-28T09:41:05.976Z</time></trkpt><trkpt lat="39.49009280773809" lon="9.288767631661448"><ele>431.33333333333337</ele><time>2026-04-28T09:41:06.976Z</time></trkpt><trkpt lat="39.490234880575976" lon="9.288979586579893"><ele>432.0</ele><time>2026-04-28T09:41:07.976Z</time></trkpt><trkpt lat="39.49034178881163" lon="9.289238347097397"><ele>435.0</ele><time>2026-04-28T09:41:08.976Z</time></trkpt><trkpt lat="39.49046377668463" lon="9.289477325714733"><ele>438.0</ele><time>2026-04-28T09:41:09.976Z</time></trkpt><trkpt lat="39.49063397535555" lon="9.289635639208996"><ele>441.0</ele><time>2026-04-28T09:41:10.976Z</time></trkpt><trkpt lat="39.49079125257596" lon="9.289730314356637"><ele>441.0</ele><time>2026-04-28T09:41:11.976Z</time></trkpt><trkpt lat="39.49094650738297" lon="9.28976117100192"><ele>441.0</ele><time>2026-04-28T09:41:12.976Z</time></trkpt><trkpt lat="39.491096089496274" lon="9.289694552861574"><ele>441.0</ele><time>2026-04-28T09:41:13.976Z</time></trkpt><trkpt lat="39.49124366720671" lon="9.289551307525661"><ele>437.33333333333337</ele><time>2026-04-28T09:41:14.976Z</time></trkpt><trkpt lat="39.491378491444685" lon="9.289338495046113"><ele>433.6666666666667</ele><time>2026-04-28T09:41:15.976Z</time></trkpt><trkpt lat="39.491524340485164" lon="9.289123677714803"><ele>430.0</ele><time>2026-04-28T09:41:16.976Z</time></trkpt><trkpt lat="39.49164606796927" lon="9.288948096064102"><ele>430.0</ele><time>2026-04-28T09:41:17.976Z</time></trkpt><trkpt lat="39.49176705592768" lon="9.288845874875147"><ele>430.0</ele><time>2026-04-28T09:41:18.976Z</time></trkpt><trkpt lat="39.49190111806304" lon="9.288854911063599"><ele>430.0</ele><time>2026-04-28T09:41:19.976Z</time></trkpt><trkpt lat="39.49200623701348" lon="9.288961904372899"><ele>430.0</ele><time>2026-04-28T09:41:20.976Z</time></trkpt><trkpt lat="39.49205413425153" lon="9.289150523411081"><ele>430.0</ele><time>2026-04-28T09:41:21.976Z</time></trkpt><trkpt lat="39.49206186489877" lon="9.289399973970703"><ele>430.0</ele><time>2026-04-28T09:41:22.976Z</time></trkpt><trkpt lat="39.49207273044113" lon="9.289674379560386"><ele>430.0</ele><time>2026-04-28T09:41:23.976Z</time></trkpt><trkpt lat="39.49211826552635" lon="9.289942073272682"><ele>433.0</ele><time>2026-04-28T09:41:24.976Z</time></trkpt><trkpt lat="39.49220183515974" lon="9.290220018263263"><ele>436.0</ele><time>2026-04-28T09:41:25.976Z</time></trkpt><trkpt lat="39.492293519576016" lon="9.290480225606029"><ele>430.0</ele><time>2026-04-28T09:41:26.976Z</time></trkpt><trkpt lat="39.492402155356245" lon="9.290704879125979"><ele>424.0</ele><time>2026-04-28T09:41:27.976Z</time></trkpt><trkpt lat="39.49256085119283" lon="9.290877338652917"><ele>418.0</ele><time>2026-04-28T09:41:28.976Z</time></trkpt><trkpt lat="39.492754963724096" lon="9.290997004258637"><ele>421.5</ele><time>2026-04-28T09:41:29.976Z</time></trkpt><trkpt lat="39.49298483526344" lon="9.291049211142374"><ele>425.0</ele><time>2026-04-28T09:41:30.976Z</time></trkpt><trkpt lat="39.4932342332854" lon="9.291071034013628"><ele>425.0</ele><time>2026-04-28T09:41:31.976Z</time></trkpt><trkpt lat="39.49346924155585" lon="9.291107716810671"><ele>425.0</ele><time>2026-04-28T09:41:32.976Z</time></trkpt><trkpt lat="39.493675601434674" lon="9.291149750052698"><ele>425.0</ele><time>2026-04-28T09:41:33.976Z</time></trkpt><trkpt lat="39.49383975490973" lon="9.291181005314133"><ele>424.5</ele><time>2026-04-28T09:41:34.976Z</time></trkpt><trkpt lat="39.493962235830466" lon="9.29123960916681"><ele>424.0</ele><time>2026-04-28T09:41:35.976Z</time></trkpt><trkpt lat="39.49401833224931" lon="9.291357523381562"><ele>423.5</ele><time>2026-04-28T09:41:36.976Z</time></trkpt><trkpt lat="39.49399746747278" lon="9.29151165391364"><ele>423.0</ele><time>2026-04-28T09:41:37.976Z</time></trkpt><trkpt lat="39.49388731206446" lon="9.291625153563116"><ele>417.66666666666663</ele><time>2026-04-28T09:41:38.976Z</time></trkpt><trkpt lat="39.493715410190546" lon="9.291688690717862"><ele>412.3333333333333</ele><time>2026-04-28T09:41:39.976Z</time></trkpt><trkpt lat="39.49353633710852" lon="9.291831712435604"><ele>407.0</ele><time>2026-04-28T09:41:40.976Z</time></trkpt><trkpt lat="39.49334270094703" lon="9.292001022711164"><ele>407.0</ele><time>2026-04-28T09:41:41.976Z</time></trkpt><trkpt lat="39.49314692176326" lon="9.292188845704958"><ele>407.0</ele><time>2026-04-28T09:41:42.976Z</time></trkpt><trkpt lat="39.492966111529725" lon="9.29238682800398"><ele>404.0</ele><time>2026-04-28T09:41:43.976Z</time></trkpt><trkpt lat="39.492803707048914" lon="9.292597709183303"><ele>401.0</ele><time>2026-04-28T09:41:44.976Z</time></trkpt><trkpt lat="39.49267160549429" lon="9.292819129600476"><ele>398.0</ele><time>2026-04-28T09:41:45.976Z</time></trkpt><trkpt lat="39.49257607596403" lon="9.293051114239134"><ele>400.3333333333333</ele><time>2026-04-28T09:41:46.976Z</time></trkpt><trkpt lat="39.492527991373734" lon="9.293317907109362"><ele>402.66666666666663</ele><time>2026-04-28T09:41:47.976Z</time></trkpt><trkpt lat="39.492509725933566" lon="9.293594055549988"><ele>405.0</ele><time>2026-04-28T09:41:48.976Z</time></trkpt><trkpt lat="39.492514174213945" lon="9.2938365148726"><ele>406.0</ele><time>2026-04-28T09:41:49.976Z</time></trkpt><trkpt lat="39.49259357421495" lon="9.294046846443218"><ele>407.0</ele><time>2026-04-28T09:41:50.976Z</time></trkpt><trkpt lat="39.492734487140915" lon="9.294237322603989"><ele>408.0</ele><time>2026-04-28T09:41:51.976Z</time></trkpt><trkpt lat="39.49291591009749" lon="9.294405795810583"><ele>407.5</ele><time>2026-04-28T09:41:52.976Z</time></trkpt><trkpt lat="39.49311007226327" lon="9.294583039412274"><ele>407.0</ele><time>2026-04-28T09:41:53.976Z</time></trkpt><trkpt lat="39.49327553671358" lon="9.2947669514067"><ele>407.0</ele><time>2026-04-28T09:41:54.976Z</time></trkpt><trkpt lat="39.493437210032006" lon="9.294958436296628"><ele>407.0</ele><time>2026-04-28T09:41:55.975Z</time></trkpt><trkpt lat="39.493599931273515" lon="9.29513855941289"><ele>407.0</ele><time>2026-04-28T09:41:56.975Z</time></trkpt><trkpt lat="39.49378454712702" lon="9.295285875378458"><ele>411.66666666666663</ele><time>2026-04-28T09:41:57.975Z</time></trkpt><trkpt lat="39.49398002022689" lon="9.295377184311741"><ele>416.33333333333337</ele><time>2026-04-28T09:41:58.975Z</time></trkpt><trkpt lat="39.49416452447647" lon="9.295432498826736"><ele>421.0</ele><time>2026-04-28T09:41:59.975Z</time></trkpt><trkpt lat="39.494309084336244" lon="9.295512530944166"><ele>416.5</ele><time>2026-04-28T09:42:00.975Z</time></trkpt><trkpt lat="39.49440281877515" lon="9.295642306814859"><ele>412.0</ele><time>2026-04-28T09:42:01.975Z</time></trkpt><trkpt lat="39.494446396339086" lon="9.29579651614855"><ele>407.5</ele><time>2026-04-28T09:42:02.975Z</time></trkpt><trkpt lat="39.49442403662878" lon="9.295949288942385"><ele>403.0</ele><time>2026-04-28T09:42:03.975Z</time></trkpt><trkpt lat="39.49437142125502" lon="9.296103211634593"><ele>403.0</ele><time>2026-04-28T09:42:04.975Z</time></trkpt><trkpt lat="39.494312685875066" lon="9.296260443972729"><ele>403.0</ele><time>2026-04-28T09:42:05.975Z</time></trkpt><trkpt lat="39.49426181118315" lon="9.296419872249228"><ele>403.0</ele><time>2026-04-28T09:42:06.975Z</time></trkpt><trkpt lat="39.49421460985143" lon="9.29657754007921"><ele>403.0</ele><time>2026-04-28T09:42:07.975Z</time></trkpt><trkpt lat="39.49416716056878" lon="9.29672970532577"><ele>403.75</ele><time>2026-04-28T09:42:08.975Z</time></trkpt><trkpt lat="39.49412076816379" lon="9.296877914937156"><ele>404.5</ele><time>2026-04-28T09:42:09.975Z</time></trkpt><trkpt lat="39.49407857253323" lon="9.297018102207574"><ele>405.25</ele><time>2026-04-28T09:42:10.975Z</time></trkpt><trkpt lat="39.49404319725699" lon="9.297154985836976"><ele>406.0</ele><time>2026-04-28T09:42:11.975Z</time></trkpt><trkpt lat="39.49401456625155" lon="9.297285803448547"><ele>406.83333333333337</ele><time>2026-04-28T09:42:12.975Z</time></trkpt><trkpt lat="39.49399135007315" lon="9.297403527144446"><ele>407.6666666666667</ele><time>2026-04-28T09:42:13.975Z</time></trkpt><trkpt lat="39.49397783904792" lon="9.297513329826801"><ele>408.5</ele><time>2026-04-28T09:42:14.975Z</time></trkpt><trkpt lat="39.493966856111406" lon="9.297610010949374"><ele>409.33333333333337</ele><time>2026-04-28T09:42:15.975Z</time></trkpt><trkpt lat="39.49395032589971" lon="9.297724741329993"><ele>410.1666666666667</ele><time>2026-04-28T09:42:17.975Z</time></trkpt><trkpt lat="39.49400250485654" lon="9.297788355776547"><ele>411.0</ele><time>2026-04-28T09:42:20.975Z</time></trkpt><trkpt lat="39.4939668937573" lon="9.29786801068802"><ele>411.0</ele><time>2026-04-28T09:42:24.976Z</time></trkpt><trkpt lat="39.49401278211667" lon="9.2979535110134"><ele>411.0</ele><time>2026-04-28T09:42:30.976Z</time></trkpt><trkpt lat="39.49404869828332" lon="9.298043481101931"><ele>411.0</ele><time>2026-04-28T09:42:34.976Z</time></trkpt><trkpt lat="39.49409510021163" lon="9.298109778575775"><ele>411.0</ele><time>2026-04-28T09:42:36.977Z</time></trkpt><trkpt lat="39.49415809541831" lon="9.29821315683333"><ele>411.0</ele><time>2026-04-28T09:42:37.977Z</time></trkpt><trkpt lat="39.49422633471879" lon="9.298305571669008"><ele>411.0</ele><time>2026-04-28T09:42:38.977Z</time></trkpt><trkpt lat="39.494307837907975" lon="9.298385678293505"><ele>410.25</ele><time>2026-04-28T09:42:39.977Z</time></trkpt><trkpt lat="39.49439783153228" lon="9.298461379512473"><ele>409.5</ele><time>2026-04-28T09:42:40.977Z</time></trkpt><trkpt lat="39.49449898803594" lon="9.298533118732742"><ele>408.75</ele><time>2026-04-28T09:42:41.976Z</time></trkpt><trkpt lat="39.49461448136552" lon="9.298585638073828"><ele>408.0</ele><time>2026-04-28T09:42:42.976Z</time></trkpt><trkpt lat="39.494744124041105" lon="9.298603928459094"><ele>408.0</ele><time>2026-04-28T09:42:43.976Z</time></trkpt><trkpt lat="39.49488159369762" lon="9.298597840205657"><ele>408.0</ele><time>2026-04-28T09:42:44.976Z</time></trkpt><trkpt lat="39.495019910902975" lon="9.298577409428399"><ele>408.0</ele><time>2026-04-28T09:42:45.976Z</time></trkpt><trkpt lat="39.495154874076036" lon="9.298537597689846"><ele>408.0</ele><time>2026-04-28T09:42:46.976Z</time></trkpt><trkpt lat="39.49528805500525" lon="9.29847537280663"><ele>408.0</ele><time>2026-04-28T09:42:47.976Z</time></trkpt><trkpt lat="39.49541920019902" lon="9.298401225600843"><ele>408.0</ele><time>2026-04-28T09:42:48.976Z</time></trkpt><trkpt lat="39.49554837887671" lon="9.29831059276243"><ele>408.0</ele><time>2026-04-28T09:42:49.976Z</time></trkpt><trkpt lat="39.4956645937604" lon="9.298200910862004"><ele>408.0</ele><time>2026-04-28T09:42:50.976Z</time></trkpt><trkpt lat="39.49576538619906" lon="9.298070438219053"><ele>408.5</ele><time>2026-04-28T09:42:51.976Z</time></trkpt><trkpt lat="39.495852952954" lon="9.29793524341474"><ele>409.0</ele><time>2026-04-28T09:42:52.976Z</time></trkpt><trkpt lat="39.49593818129337" lon="9.29781307408242"><ele>409.5</ele><time>2026-04-28T09:42:53.976Z</time></trkpt><trkpt lat="39.496043579518926" lon="9.297753758043177"><ele>410.0</ele><time>2026-04-28T09:42:54.976Z</time></trkpt><trkpt lat="39.49615739943343" lon="9.297770075734231"><ele>410.0</ele><time>2026-04-28T09:42:55.976Z</time></trkpt><trkpt lat="39.49624422572354" lon="9.297866924079184"><ele>410.0</ele><time>2026-04-28T09:42:56.976Z</time></trkpt><trkpt lat="39.49630905879817" lon="9.297995375504948"><ele>410.0</ele><time>2026-04-28T09:42:57.976Z</time></trkpt><trkpt lat="39.49634823729363" lon="9.298142093739383"><ele>410.0</ele><time>2026-04-28T09:42:58.976Z</time></trkpt><trkpt lat="39.49638423228515" lon="9.298281012864797"><ele>408.5</ele><time>2026-04-28T09:42:59.976Z</time></trkpt><trkpt lat="39.49641686091665" lon="9.298427224600088"><ele>407.0</ele><time>2026-04-28T09:43:00.976Z</time></trkpt><trkpt lat="39.496431396956" lon="9.29857671009563"><ele>405.5</ele><time>2026-04-28T09:43:01.976Z</time></trkpt><trkpt lat="39.496414833046245" lon="9.298724724698419"><ele>404.0</ele><time>2026-04-28T09:43:02.976Z</time></trkpt><trkpt lat="39.49637217969041" lon="9.298863122213765"><ele>403.25</ele><time>2026-04-28T09:43:03.976Z</time></trkpt><trkpt lat="39.49631937192476" lon="9.299002811512599"><ele>402.5</ele><time>2026-04-28T09:43:04.976Z</time></trkpt><trkpt lat="39.49626413682124" lon="9.299142884910282"><ele>401.75</ele><time>2026-04-28T09:43:05.976Z</time></trkpt><trkpt lat="39.49621065484923" lon="9.299276715161916"><ele>401.0</ele><time>2026-04-28T09:43:06.976Z</time></trkpt><trkpt lat="39.49614937203317" lon="9.299406824329939"><ele>398.25</ele><time>2026-04-28T09:43:07.976Z</time></trkpt><trkpt lat="39.4960953743975" lon="9.299537968069266"><ele>395.5</ele><time>2026-04-28T09:43:08.976Z</time></trkpt><trkpt lat="39.496044560160136" lon="9.299670311743848"><ele>392.75</ele><time>2026-04-28T09:43:09.976Z</time></trkpt><trkpt lat="39.495995861888794" lon="9.299807193394221"><ele>390.0</ele><time>2026-04-28T09:43:10.976Z</time></trkpt><trkpt lat="39.495955980333115" lon="9.29994514957412"><ele>389.75</ele><time>2026-04-28T09:43:11.976Z</time></trkpt><trkpt lat="39.495932635035196" lon="9.300090758702552"><ele>389.5</ele><time>2026-04-28T09:43:12.976Z</time></trkpt><trkpt lat="39.49592161262838" lon="9.300240481036353"><ele>389.25</ele><time>2026-04-28T09:43:13.976Z</time></trkpt><trkpt lat="39.49591411562591" lon="9.300391165633714"><ele>389.0</ele><time>2026-04-28T09:43:14.976Z</time></trkpt><trkpt lat="39.4959083620042" lon="9.300541214013688"><ele>388.25</ele><time>2026-04-28T09:43:15.976Z</time></trkpt><trkpt lat="39.49590256697267" lon="9.300694024618052"><ele>387.5</ele><time>2026-04-28T09:43:16.976Z</time></trkpt><trkpt lat="39.4958972586659" lon="9.30084666609954"><ele>386.75</ele><time>2026-04-28T09:43:17.976Z</time></trkpt><trkpt lat="39.49588967807831" lon="9.300996729508691"><ele>386.0</ele><time>2026-04-28T09:43:18.976Z</time></trkpt><trkpt lat="39.49587964436062" lon="9.30114347865351"><ele>386.0</ele><time>2026-04-28T09:43:19.976Z</time></trkpt><trkpt lat="39.49586904124436" lon="9.301291140853651"><ele>386.0</ele><time>2026-04-28T09:43:20.976Z</time></trkpt><trkpt lat="39.49586115419081" lon="9.301435888915856"><ele>386.0</ele><time>2026-04-28T09:43:21.976Z</time></trkpt><trkpt lat="39.49585237049793" lon="9.301578765796153"><ele>386.0</ele><time>2026-04-28T09:43:22.976Z</time></trkpt><trkpt lat="39.49584313229866" lon="9.301716508929673"><ele>386.0</ele><time>2026-04-28T09:43:23.976Z</time></trkpt><trkpt lat="39.495840150226364" lon="9.301851995655024"><ele>385.99999999999994</ele><time>2026-04-28T09:43:24.976Z</time></trkpt><trkpt lat="39.495859589086464" lon="9.30197499058734"><ele>386.0</ele><time>2026-04-28T09:43:25.976Z</time></trkpt><trkpt lat="39.495890761220764" lon="9.30208629037179"><ele>386.0</ele><time>2026-04-28T09:43:26.976Z</time></trkpt><trkpt lat="39.49592487956698" lon="9.30219064658479"><ele>386.0</ele><time>2026-04-28T09:43:27.976Z</time></trkpt><trkpt lat="39.495964506061824" lon="9.302284694300015"><ele>385.99999999999994</ele><time>2026-04-28T09:43:28.976Z</time></trkpt><trkpt lat="39.49599477425743" lon="9.302369415129927"><ele>386.0</ele><time>2026-04-28T09:43:29.976Z</time></trkpt><trkpt lat="39.496030750453016" lon="9.302448746485068"><ele>385.99999999999994</ele><time>2026-04-28T09:43:30.976Z</time></trkpt><trkpt lat="39.496073914500066" lon="9.302535116337358"><ele>386.0</ele><time>2026-04-28T09:43:31.976Z</time></trkpt><trkpt lat="39.49611550298497" lon="9.302626891040228"><ele>386.0</ele><time>2026-04-28T09:43:32.976Z</time></trkpt><trkpt lat="39.496157747066775" lon="9.302720668131771"><ele>386.0</ele><time>2026-04-28T09:43:33.976Z</time></trkpt><trkpt lat="39.4962013167463" lon="9.302822747454115"><ele>385.99999999999994</ele><time>2026-04-28T09:43:34.976Z</time></trkpt><trkpt lat="39.49624421542619" lon="9.302923463291588"><ele>386.0</ele><time>2026-04-28T09:43:35.976Z</time></trkpt><trkpt lat="39.49628857090999" lon="9.303032586699283"><ele>385.20000000000005</ele><time>2026-04-28T09:43:36.976Z</time></trkpt><trkpt lat="39.49633647754918" lon="9.303143108745163"><ele>384.40000000000003</ele><time>2026-04-28T09:43:37.976Z</time></trkpt><trkpt lat="39.496384273848584" lon="9.30325591806519"><ele>383.6</ele><time>2026-04-28T09:43:38.976Z</time></trkpt><trkpt lat="39.49643300207914" lon="9.303369376901324"><ele>382.8</ele><time>2026-04-28T09:43:39.976Z</time></trkpt><trkpt lat="39.49647877317069" lon="9.303487547035528"><ele>382.0</ele><time>2026-04-28T09:43:40.976Z</time></trkpt><trkpt lat="39.49651839075697" lon="9.303609372833684"><ele>382.0</ele><time>2026-04-28T09:43:41.976Z</time></trkpt><trkpt lat="39.496555114788094" lon="9.3037320780313"><ele>382.0</ele><time>2026-04-28T09:43:42.976Z</time></trkpt><trkpt lat="39.49658498904324" lon="9.30386030260481"><ele>382.0</ele><time>2026-04-28T09:43:43.976Z</time></trkpt><trkpt lat="39.49661617851481" lon="9.303987755896772"><ele>382.0</ele><time>2026-04-28T09:43:44.976Z</time></trkpt><trkpt lat="39.49664071455006" lon="9.304125510084951"><ele>382.0</ele><time>2026-04-28T09:43:45.976Z</time></trkpt><trkpt lat="39.49665248486388" lon="9.30425978111329"><ele>381.0</ele><time>2026-04-28T09:43:46.976Z</time></trkpt><trkpt lat="39.49666569360395" lon="9.304394639890146"><ele>380.0</ele><time>2026-04-28T09:43:47.976Z</time></trkpt><trkpt lat="39.496683211060926" lon="9.304531015162944"><ele>379.0</ele><time>2026-04-28T09:43:48.975Z</time></trkpt><trkpt lat="39.49671001300425" lon="9.304675374132627"><ele>378.0</ele><time>2026-04-28T09:43:49.975Z</time></trkpt><trkpt lat="39.496729362027956" lon="9.30482337762267"><ele>377.0</ele><time>2026-04-28T09:43:50.975Z</time></trkpt><trkpt lat="39.49674534680003" lon="9.30497198965002"><ele>376.25</ele><time>2026-04-28T09:43:51.975Z</time></trkpt><trkpt lat="39.496759124455" lon="9.305119330799974"><ele>375.5</ele><time>2026-04-28T09:43:52.975Z</time></trkpt><trkpt lat="39.49679180531921" lon="9.305258212563496"><ele>374.75</ele><time>2026-04-28T09:43:53.975Z</time></trkpt><trkpt lat="39.49685150093653" lon="9.305383155660405"><ele>374.0</ele><time>2026-04-28T09:43:54.975Z</time></trkpt><trkpt lat="39.496931280618504" lon="9.30548695887961"><ele>374.25</ele><time>2026-04-28T09:43:55.975Z</time></trkpt><trkpt lat="39.49701378699992" lon="9.305591021575738"><ele>374.5</ele><time>2026-04-28T09:43:56.975Z</time></trkpt><trkpt lat="39.49708655700137" lon="9.305706859809774"><ele>374.75</ele><time>2026-04-28T09:43:57.975Z</time></trkpt><trkpt lat="39.497156747735495" lon="9.305821807066037"><ele>375.0</ele><time>2026-04-28T09:43:58.975Z</time></trkpt><trkpt lat="39.49723136290628" lon="9.305929948122541"><ele>375.0</ele><time>2026-04-28T09:43:59.975Z</time></trkpt><trkpt lat="39.497307319364154" lon="9.306046363179231"><ele>375.0</ele><time>2026-04-28T09:44:00.975Z</time></trkpt><trkpt lat="39.497383312720046" lon="9.306160635542541"><ele>375.0</ele><time>2026-04-28T09:44:01.975Z</time></trkpt><trkpt lat="39.49745622780965" lon="9.30627315526041"><ele>375.0</ele><time>2026-04-28T09:44:02.975Z</time></trkpt><trkpt lat="39.49753172774193" lon="9.306383870710421"><ele>374.0</ele><time>2026-04-28T09:44:03.975Z</time></trkpt><trkpt lat="39.49760276174506" lon="9.306499142172779"><ele>373.0</ele><time>2026-04-28T09:44:04.975Z</time></trkpt><trkpt lat="39.49766433391479" lon="9.306605680964536"><ele>372.0</ele><time>2026-04-28T09:44:05.975Z</time></trkpt><trkpt lat="39.49770917533157" lon="9.306701553283336"><ele>371.0</ele><time>2026-04-28T09:44:06.975Z</time></trkpt><trkpt lat="39.49774981134237" lon="9.306795294762642"><ele>370.0</ele><time>2026-04-28T09:44:07.975Z</time></trkpt><trkpt lat="39.4977664239188" lon="9.306898907859235"><ele>370.0</ele><time>2026-04-28T09:44:08.975Z</time></trkpt><trkpt lat="39.497757993645195" lon="9.306988022470861"><ele>370.0</ele><time>2026-04-28T09:44:09.975Z</time></trkpt><trkpt lat="39.497724244552174" lon="9.307080045400934"><ele>370.0</ele><time>2026-04-28T09:44:10.975Z</time></trkpt><trkpt lat="39.49769085412926" lon="9.307165996043288"><ele>370.0</ele><time>2026-04-28T09:44:11.975Z</time></trkpt><trkpt lat="39.497633775869936" lon="9.3072405499885"><ele>370.0</ele><time>2026-04-28T09:44:12.975Z</time></trkpt><trkpt lat="39.497575187195835" lon="9.307326567401635"><ele>370.0</ele><time>2026-04-28T09:44:13.975Z</time></trkpt><trkpt lat="39.49752031115632" lon="9.307422026242598"><ele>369.6</ele><time>2026-04-28T09:44:14.975Z</time></trkpt><trkpt lat="39.497458133282066" lon="9.307520973984168"><ele>369.2</ele><time>2026-04-28T09:44:15.975Z</time></trkpt><trkpt lat="39.49739645446267" lon="9.307626687136707"><ele>368.79999999999995</ele><time>2026-04-28T09:44:16.975Z</time></trkpt><trkpt lat="39.49732666889366" lon="9.307728206171419"><ele>368.4</ele><time>2026-04-28T09:44:17.975Z</time></trkpt><trkpt lat="39.49725791484128" lon="9.307824103923512"><ele>368.0</ele><time>2026-04-28T09:44:18.975Z</time></trkpt><trkpt lat="39.497184925986126" lon="9.307917538131736"><ele>368.0</ele><time>2026-04-28T09:44:19.975Z</time></trkpt><trkpt lat="39.49711357037784" lon="9.30801703840914"><ele>368.0</ele><time>2026-04-28T09:44:20.975Z</time></trkpt><trkpt lat="39.49706073200582" lon="9.308111626799404"><ele>368.0</ele><time>2026-04-28T09:44:21.975Z</time></trkpt><trkpt lat="39.49700803327023" lon="9.308195444806616"><ele>368.0</ele><time>2026-04-28T09:44:22.975Z</time></trkpt><trkpt lat="39.496969875415466" lon="9.30827707559737"><ele>368.0</ele><time>2026-04-28T09:44:23.975Z</time></trkpt><trkpt lat="39.496945839565335" lon="9.308356705677685"><ele>368.0</ele><time>2026-04-28T09:44:24.975Z</time></trkpt><trkpt lat="39.496917149080666" lon="9.308431828910086"><ele>368.0</ele><time>2026-04-28T09:44:25.975Z</time></trkpt><trkpt lat="39.49688895899195" lon="9.308519623785546"><ele>368.0</ele><time>2026-04-28T09:44:26.975Z</time></trkpt><trkpt lat="39.496861171222356" lon="9.308608657047793"><ele>368.0</ele><time>2026-04-28T09:44:27.975Z</time></trkpt><trkpt lat="39.49683166305246" lon="9.30870288122655"><ele>368.0</ele><time>2026-04-28T09:44:28.976Z</time></trkpt><trkpt lat="39.496809110898994" lon="9.308785391216821"><ele>368.0</ele><time>2026-04-28T09:44:29.976Z</time></trkpt><trkpt lat="39.4967831221651" lon="9.308880636047725"><ele>368.0</ele><time>2026-04-28T09:44:30.976Z</time></trkpt><trkpt lat="39.49674787397677" lon="9.308984040359903"><ele>368.0</ele><time>2026-04-28T09:44:31.976Z</time></trkpt><trkpt lat="39.49672254207122" lon="9.309096344125289"><ele>368.0</ele><time>2026-04-28T09:44:32.976Z</time></trkpt><trkpt lat="39.49668445617009" lon="9.309355565362548"><ele>368.0</ele><time>2026-04-28T09:44:34.976Z</time></trkpt><trkpt lat="39.496673486709376" lon="9.309496478345993"><ele>368.0</ele><time>2026-04-28T09:44:35.976Z</time></trkpt><trkpt lat="39.49665993163922" lon="9.309635930561011"><ele>368.4</ele><time>2026-04-28T09:44:36.976Z</time></trkpt><trkpt lat="39.49664337052594" lon="9.309765765880078"><ele>368.79999999999995</ele><time>2026-04-28T09:44:37.976Z</time></trkpt><trkpt lat="39.49663026194217" lon="9.309906117578503"><ele>369.2</ele><time>2026-04-28T09:44:38.975Z</time></trkpt><trkpt lat="39.49662791837831" lon="9.310051193804316"><ele>369.6</ele><time>2026-04-28T09:44:39.975Z</time></trkpt><trkpt lat="39.49664194780125" lon="9.310203244554545"><ele>370.0</ele><time>2026-04-28T09:44:40.976Z</time></trkpt><trkpt lat="39.496675715708776" lon="9.310353169205404"><ele>370.0</ele><time>2026-04-28T09:44:41.976Z</time></trkpt><trkpt lat="39.496745999897826" lon="9.310457943331185"><ele>370.0</ele><time>2026-04-28T09:44:42.976Z</time></trkpt><trkpt lat="39.496845621802436" lon="9.310544827209908"><ele>370.0</ele><time>2026-04-28T09:44:43.976Z</time></trkpt><trkpt lat="39.49696314065883" lon="9.310607705023887"><ele>370.0</ele><time>2026-04-28T09:44:44.976Z</time></trkpt><trkpt lat="39.497084562326954" lon="9.310678569984178"><ele>373.0</ele><time>2026-04-28T09:44:45.976Z</time></trkpt><trkpt lat="39.497200972958694" lon="9.310749591166518"><ele>376.0</ele><time>2026-04-28T09:44:46.976Z</time></trkpt><trkpt lat="39.49731884135052" lon="9.310820905164979"><ele>379.0</ele><time>2026-04-28T09:44:47.976Z</time></trkpt><trkpt lat="39.497437420437734" lon="9.310902668626943"><ele>382.0</ele><time>2026-04-28T09:44:48.976Z</time></trkpt><trkpt lat="39.49754339620492" lon="9.310983716324085"><ele>382.0</ele><time>2026-04-28T09:44:49.976Z</time></trkpt><trkpt lat="39.49763406414975" lon="9.311054860836617"><ele>382.0</ele><time>2026-04-28T09:44:50.976Z</time></trkpt><trkpt lat="39.49771145030182" lon="9.311119689037012"><ele>382.0</ele><time>2026-04-28T09:44:51.976Z</time></trkpt><trkpt lat="39.497776999769755" lon="9.311166890451812"><ele>382.0</ele><time>2026-04-28T09:44:52.976Z</time></trkpt><trkpt lat="39.4978649611309" lon="9.31121600142731"><ele>382.0</ele><time>2026-04-28T09:44:54.976Z</time></trkpt></trkseg><trkseg><trkpt lat="39.49795266131897" lon="9.311228396524013"><ele>383.0</ele><time>2026-04-28T10:01:11.969Z</time></trkpt><trkpt lat="39.49804588327292" lon="9.311251465937357"><ele>383.0</ele><time>2026-04-28T10:01:13.969Z</time></trkpt><trkpt lat="39.49813102632231" lon="9.31130021241559"><ele>383.0</ele><time>2026-04-28T10:01:15.969Z</time></trkpt><trkpt lat="39.498233227717684" lon="9.311361478299505"><ele>383.0</ele><time>2026-04-28T10:01:17.969Z</time></trkpt><trkpt lat="39.4983313355483" lon="9.311423151397161"><ele>383.0</ele><time>2026-04-28T10:01:19.969Z</time></trkpt><trkpt lat="39.49843445503213" lon="9.311478544626414"><ele>382.83333333333337</ele><time>2026-04-28T10:01:21.97Z</time></trkpt><trkpt lat="39.49853808888155" lon="9.31153972666848"><ele>382.6666666666667</ele><time>2026-04-28T10:01:23.969Z</time></trkpt><trkpt lat="39.49859579730707" lon="9.311573384755992"><ele>382.5</ele><time>2026-04-28T10:01:24.969Z</time></trkpt><trkpt lat="39.49865933200371" lon="9.311612001905704"><ele>382.3333333333333</ele><time>2026-04-28T10:01:25.97Z</time></trkpt><trkpt lat="39.49872929264221" lon="9.311655216016083"><ele>382.16666666666663</ele><time>2026-04-28T10:01:26.97Z</time></trkpt><trkpt lat="39.49879941924934" lon="9.31169553342124"><ele>382.0</ele><time>2026-04-28T10:01:27.97Z</time></trkpt><trkpt lat="39.49887238953675" lon="9.311747055199097"><ele>382.0</ele><time>2026-04-28T10:01:28.97Z</time></trkpt><trkpt lat="39.49894433683629" lon="9.311787924821722"><ele>382.0</ele><time>2026-04-28T10:01:29.969Z</time></trkpt><trkpt lat="39.49901939290763" lon="9.311831024961949"><ele>382.0</ele><time>2026-04-28T10:01:30.969Z</time></trkpt><trkpt lat="39.49909420394343" lon="9.31187549735446"><ele>382.0</ele><time>2026-04-28T10:01:31.969Z</time></trkpt><trkpt lat="39.49917551031871" lon="9.311926224584912"><ele>382.0</ele><time>2026-04-28T10:01:32.969Z</time></trkpt><trkpt lat="39.499259376521714" lon="9.31197496999021"><ele>382.0</ele><time>2026-04-28T10:01:33.969Z</time></trkpt><trkpt lat="39.4993429069492" lon="9.312024923679244"><ele>382.0</ele><time>2026-04-28T10:01:34.969Z</time></trkpt><trkpt lat="39.49942284090928" lon="9.312072756709973"><ele>382.0</ele><time>2026-04-28T10:01:35.969Z</time></trkpt><trkpt lat="39.49950450782607" lon="9.312118870903637"><ele>382.0</ele><time>2026-04-28T10:01:36.969Z</time></trkpt><trkpt lat="39.49959408959627" lon="9.312169792193457"><ele>382.0</ele><time>2026-04-28T10:01:37.969Z</time></trkpt><trkpt lat="39.49968414930848" lon="9.312220967906072"><ele>382.0</ele><time>2026-04-28T10:01:38.969Z</time></trkpt><trkpt lat="39.499777187002245" lon="9.312278354822013"><ele>383.20000000000005</ele><time>2026-04-28T10:01:39.969Z</time></trkpt><trkpt lat="39.499863750697166" lon="9.312334346232472"><ele>384.4</ele><time>2026-04-28T10:01:40.969Z</time></trkpt><trkpt lat="39.49995249107232" lon="9.312397062771241"><ele>385.6</ele><time>2026-04-28T10:01:41.969Z</time></trkpt><trkpt lat="39.500043349740075" lon="9.312450915251938"><ele>386.79999999999995</ele><time>2026-04-28T10:01:42.969Z</time></trkpt><trkpt lat="39.50013578275568" lon="9.312518234873844"><ele>388.0</ele><time>2026-04-28T10:01:43.969Z</time></trkpt><trkpt lat="39.500223914255585" lon="9.31259927797618"><ele>388.0</ele><time>2026-04-28T10:01:44.969Z</time></trkpt><trkpt lat="39.500302877072414" lon="9.312693728544964"><ele>388.0</ele><time>2026-04-28T10:01:45.969Z</time></trkpt><trkpt lat="39.500375145799026" lon="9.312798144325663"><ele>388.0</ele><time>2026-04-28T10:01:46.969Z</time></trkpt><trkpt lat="39.50043967096246" lon="9.312917674303847"><ele>388.0</ele><time>2026-04-28T10:01:47.969Z</time></trkpt><trkpt lat="39.50049021488202" lon="9.31304472860588"><ele>388.0</ele><time>2026-04-28T10:01:48.969Z</time></trkpt><trkpt lat="39.50054324173423" lon="9.313182720607854"><ele>389.0</ele><time>2026-04-28T10:01:49.969Z</time></trkpt><trkpt lat="39.50061954387559" lon="9.313313062136103"><ele>390.0</ele><time>2026-04-28T10:01:50.969Z</time></trkpt><trkpt lat="39.50071283308481" lon="9.313406846251327"><ele>391.0</ele><time>2026-04-28T10:01:51.969Z</time></trkpt><trkpt lat="39.5008170865741" lon="9.313481765903786"><ele>392.0</ele><time>2026-04-28T10:01:52.969Z</time></trkpt><trkpt lat="39.500925939808766" lon="9.31352425304978"><ele>392.0</ele><time>2026-04-28T10:01:53.969Z</time></trkpt><trkpt lat="39.50104361944511" lon="9.313545706909256"><ele>392.0</ele><time>2026-04-28T10:01:54.969Z</time></trkpt><trkpt lat="39.5011646850338" lon="9.313541141480318"><ele>392.0</ele><time>2026-04-28T10:01:55.969Z</time></trkpt><trkpt lat="39.50128165169818" lon="9.31351323363728"><ele>392.0</ele><time>2026-04-28T10:01:56.969Z</time></trkpt><trkpt lat="39.50139837501504" lon="9.313474458410802"><ele>392.5</ele><time>2026-04-28T10:01:57.969Z</time></trkpt><trkpt lat="39.501515922389565" lon="9.313433250798704"><ele>393.0</ele><time>2026-04-28T10:01:58.969Z</time></trkpt><trkpt lat="39.50163422818155" lon="9.313389166644091"><ele>393.5</ele><time>2026-04-28T10:01:59.969Z</time></trkpt><trkpt lat="39.5017473857982" lon="9.313346933210532"><ele>394.0</ele><time>2026-04-28T10:02:00.969Z</time></trkpt><trkpt lat="39.501849483599806" lon="9.313294303733466"><ele>394.0</ele><time>2026-04-28T10:02:01.968Z</time></trkpt><trkpt lat="39.50193366579065" lon="9.313207089165912"><ele>394.0</ele><time>2026-04-28T10:02:02.968Z</time></trkpt><trkpt lat="39.50199274774173" lon="9.313079407898234"><ele>394.0</ele><time>2026-04-28T10:02:03.968Z</time></trkpt><trkpt lat="39.502030983324296" lon="9.312928839080799"><ele>394.0</ele><time>2026-04-28T10:02:04.968Z</time></trkpt><trkpt lat="39.50205565623245" lon="9.312766164348266"><ele>395.5</ele><time>2026-04-28T10:02:05.968Z</time></trkpt><trkpt lat="39.50207870508472" lon="9.312590360173832"><ele>397.0</ele><time>2026-04-28T10:02:06.968Z</time></trkpt><trkpt lat="39.50210918730851" lon="9.312411066914251"><ele>398.5</ele><time>2026-04-28T10:02:07.968Z</time></trkpt><trkpt lat="39.50214354072795" lon="9.312235138250639"><ele>400.0</ele><time>2026-04-28T10:02:08.968Z</time></trkpt><trkpt lat="39.50217767102396" lon="9.31205666246377"><ele>396.5</ele><time>2026-04-28T10:02:09.968Z</time></trkpt><trkpt lat="39.50221069134812" lon="9.311891395168425"><ele>393.0</ele><time>2026-04-28T10:02:10.968Z</time></trkpt><trkpt lat="39.50224872795424" lon="9.311727206400567"><ele>389.5</ele><time>2026-04-28T10:02:11.968Z</time></trkpt><trkpt lat="39.50230455677657" lon="9.311564005488723"><ele>386.0</ele><time>2026-04-28T10:02:12.968Z</time></trkpt><trkpt lat="39.50237596719182" lon="9.31140992070096"><ele>387.25</ele><time>2026-04-28T10:02:13.968Z</time></trkpt><trkpt lat="39.502463343758265" lon="9.311264089766418"><ele>388.5</ele><time>2026-04-28T10:02:14.968Z</time></trkpt><trkpt lat="39.50256881163055" lon="9.311133011742605"><ele>389.75</ele><time>2026-04-28T10:02:15.968Z</time></trkpt><trkpt lat="39.50269429763071" lon="9.311032162283226"><ele>391.0</ele><time>2026-04-28T10:02:16.968Z</time></trkpt><trkpt lat="39.50282521265024" lon="9.31094491625769"><ele>389.75</ele><time>2026-04-28T10:02:17.968Z</time></trkpt><trkpt lat="39.502955415912275" lon="9.3108829099135"><ele>388.5</ele><time>2026-04-28T10:02:18.968Z</time></trkpt><trkpt lat="39.50308824198627" lon="9.310872101769503"><ele>387.25</ele><time>2026-04-28T10:02:19.968Z</time></trkpt><trkpt lat="39.5032057454437" lon="9.310945359910795"><ele>386.0</ele><time>2026-04-28T10:02:20.968Z</time></trkpt><trkpt lat="39.503295262651065" lon="9.311064433975732"><ele>386.0</ele><time>2026-04-28T10:02:21.968Z</time></trkpt><trkpt lat="39.50334505488316" lon="9.311226925549272"><ele>386.0</ele><time>2026-04-28T10:02:22.968Z</time></trkpt><trkpt lat="39.50335537439226" lon="9.311419854740185"><ele>386.0</ele><time>2026-04-28T10:02:23.968Z</time></trkpt><trkpt lat="39.503355739594106" lon="9.311621927320129"><ele>386.0</ele><time>2026-04-28T10:02:24.968Z</time></trkpt><trkpt lat="39.503352043626016" lon="9.311826932231423"><ele>384.3333333333333</ele><time>2026-04-28T10:02:25.968Z</time></trkpt><trkpt lat="39.503359583430424" lon="9.312034821601394"><ele>382.66666666666663</ele><time>2026-04-28T10:02:26.968Z</time></trkpt><trkpt lat="39.503390374790186" lon="9.312226793540159"><ele>381.0</ele><time>2026-04-28T10:02:27.968Z</time></trkpt><trkpt lat="39.503456068724425" lon="9.312398892574715"><ele>379.6666666666667</ele><time>2026-04-28T10:02:28.968Z</time></trkpt><trkpt lat="39.50357785027296" lon="9.312525031522119"><ele>378.33333333333337</ele><time>2026-04-28T10:02:29.968Z</time></trkpt><trkpt lat="39.503723438082716" lon="9.312606919075352"><ele>377.0</ele><time>2026-04-28T10:02:30.968Z</time></trkpt><trkpt lat="39.50389848175577" lon="9.3126340904614"><ele>377.0</ele><time>2026-04-28T10:02:31.968Z</time></trkpt><trkpt lat="39.50407944362497" lon="9.31263022457205"><ele>377.0</ele><time>2026-04-28T10:02:32.968Z</time></trkpt><trkpt lat="39.50426435542766" lon="9.312605740700022"><ele>377.0</ele><time>2026-04-28T10:02:33.968Z</time></trkpt><trkpt lat="39.50444379338841" lon="9.31256008822565"><ele>375.0</ele><time>2026-04-28T10:02:34.968Z</time></trkpt><trkpt lat="39.504624643285325" lon="9.312503686380392"><ele>373.0</ele><time>2026-04-28T10:02:35.968Z</time></trkpt><trkpt lat="39.50480687262669" lon="9.312444078006102"><ele>371.0</ele><time>2026-04-28T10:02:36.968Z</time></trkpt><trkpt lat="39.504992855035724" lon="9.312391655901552"><ele>371.0</ele><time>2026-04-28T10:02:37.968Z</time></trkpt><trkpt lat="39.50518210688083" lon="9.312354284375175"><ele>371.0</ele><time>2026-04-28T10:02:38.968Z</time></trkpt><trkpt lat="39.50537287280017" lon="9.312337807047342"><ele>371.0</ele><time>2026-04-28T10:02:39.968Z</time></trkpt><trkpt lat="39.50555140208213" lon="9.312317181505447"><ele>372.0</ele><time>2026-04-28T10:02:40.968Z</time></trkpt><trkpt lat="39.505722777452995" lon="9.312297296331646"><ele>373.0</ele><time>2026-04-28T10:02:41.968Z</time></trkpt><trkpt lat="39.50587942659621" lon="9.312282745162639"><ele>374.0</ele><time>2026-04-28T10:02:42.968Z</time></trkpt><trkpt lat="39.50600889952937" lon="9.31220716225303"><ele>374.0</ele><time>2026-04-28T10:02:43.968Z</time></trkpt><trkpt lat="39.5061002925014" lon="9.312054635857688"><ele>374.0</ele><time>2026-04-28T10:02:44.968Z</time></trkpt><trkpt lat="39.50615247905635" lon="9.311884455144211"><ele>374.0</ele><time>2026-04-28T10:02:45.968Z</time></trkpt><trkpt lat="39.50619005625615" lon="9.311726772838727"><ele>374.0</ele><time>2026-04-28T10:02:46.968Z</time></trkpt><trkpt lat="39.50624284131125" lon="9.311602501595274"><ele>372.0</ele><time>2026-04-28T10:02:47.968Z</time></trkpt><trkpt lat="39.506322257064184" lon="9.311532341591736"><ele>370.0</ele><time>2026-04-28T10:02:48.968Z</time></trkpt><trkpt lat="39.50642251066905" lon="9.31153619134922"><ele>368.0</ele><time>2026-04-28T10:02:49.968Z</time></trkpt><trkpt lat="39.50651806825793" lon="9.31162272802551"><ele>366.0</ele><time>2026-04-28T10:02:50.968Z</time></trkpt><trkpt lat="39.506618485854176" lon="9.311746220549214"><ele>366.0</ele><time>2026-04-28T10:02:51.968Z</time></trkpt><trkpt lat="39.506748703106545" lon="9.311863660595423"><ele>366.0</ele><time>2026-04-28T10:02:52.968Z</time></trkpt><trkpt lat="39.50689989426539" lon="9.311969786993647"><ele>366.0</ele><time>2026-04-28T10:02:53.968Z</time></trkpt><trkpt lat="39.5070490981084" lon="9.31207272278336"><ele>369.3333333333333</ele><time>2026-04-28T10:02:54.968Z</time></trkpt><trkpt lat="39.50720276226482" lon="9.31218549645854"><ele>372.66666666666663</ele><time>2026-04-28T10:02:55.968Z</time></trkpt><trkpt lat="39.50736507891539" lon="9.31229019092155"><ele>376.0</ele><time>2026-04-28T10:02:56.968Z</time></trkpt><trkpt lat="39.50753746890087" lon="9.312384407578973"><ele>368.3333333333333</ele><time>2026-04-28T10:02:57.968Z</time></trkpt><trkpt lat="39.50770530945805" lon="9.312441117228833"><ele>360.6666666666667</ele><time>2026-04-28T10:02:58.968Z</time></trkpt><trkpt lat="39.50788865485471" lon="9.312458878137472"><ele>353.0</ele><time>2026-04-28T10:02:59.968Z</time></trkpt><trkpt lat="39.50807783063284" lon="9.31244698136578"><ele>353.0</ele><time>2026-04-28T10:03:00.968Z</time></trkpt><trkpt lat="39.50825757919402" lon="9.312452637454603"><ele>353.0</ele><time>2026-04-28T10:03:01.968Z</time></trkpt><trkpt lat="39.508441119586124" lon="9.312499270883942"><ele>353.0</ele><time>2026-04-28T10:03:02.968Z</time></trkpt><trkpt lat="39.50863429719089" lon="9.312556013479337"><ele>356.0</ele><time>2026-04-28T10:03:03.968Z</time></trkpt><trkpt lat="39.50882285771732" lon="9.312646405060846"><ele>359.0</ele><time>2026-04-28T10:03:04.968Z</time></trkpt><trkpt lat="39.509006875380706" lon="9.312750703503468"><ele>362.0</ele><time>2026-04-28T10:03:05.968Z</time></trkpt><trkpt lat="39.50919931976085" lon="9.312861488180747"><ele>362.0</ele><time>2026-04-28T10:03:06.968Z</time></trkpt><trkpt lat="39.509397330694235" lon="9.312966808791419"><ele>362.0</ele><time>2026-04-28T10:03:07.968Z</time></trkpt><trkpt lat="39.50960280334833" lon="9.313068036506854"><ele>362.0</ele><time>2026-04-28T10:03:08.967Z</time></trkpt><trkpt lat="39.50982458973361" lon="9.31316332316943"><ele>355.0</ele><time>2026-04-28T10:03:09.967Z</time></trkpt><trkpt lat="39.5100423969504" lon="9.313254382702747"><ele>348.0</ele><time>2026-04-28T10:03:10.967Z</time></trkpt><trkpt lat="39.51025009825102" lon="9.313325339092158"><ele>341.0</ele><time>2026-04-28T10:03:11.967Z</time></trkpt><trkpt lat="39.51046024595273" lon="9.313332118791541"><ele>341.0</ele><time>2026-04-28T10:03:12.967Z</time></trkpt><trkpt lat="39.5106744176599" lon="9.313306571975238"><ele>341.0</ele><time>2026-04-28T10:03:13.967Z</time></trkpt><trkpt lat="39.51086773000841" lon="9.313278255273614"><ele>341.0</ele><time>2026-04-28T10:03:14.967Z</time></trkpt><trkpt lat="39.51104056318371" lon="9.313249834210437"><ele>341.0</ele><time>2026-04-28T10:03:15.967Z</time></trkpt><trkpt lat="39.51119110992393" lon="9.31330937894743"><ele>341.0</ele><time>2026-04-28T10:03:16.967Z</time></trkpt><trkpt lat="39.511362136483" lon="9.313390893284954"><ele>341.0</ele><time>2026-04-28T10:03:17.967Z</time></trkpt><trkpt lat="39.511482700801" lon="9.313485244852382"><ele>338.25</ele><time>2026-04-28T10:03:18.967Z</time></trkpt><trkpt lat="39.51160308170142" lon="9.313558187472415"><ele>335.5</ele><time>2026-04-28T10:03:19.967Z</time></trkpt><trkpt lat="39.51172965309862" lon="9.313566212336879"><ele>332.75</ele><time>2026-04-28T10:03:20.967Z</time></trkpt><trkpt lat="39.511822220876006" lon="9.313498427477192"><ele>330.0</ele><time>2026-04-28T10:03:21.967Z</time></trkpt><trkpt lat="39.51187154989658" lon="9.313380535473282"><ele>330.0</ele><time>2026-04-28T10:03:22.968Z</time></trkpt><trkpt lat="39.51187804855409" lon="9.313214805243836"><ele>330.0</ele><time>2026-04-28T10:03:23.968Z</time></trkpt><trkpt lat="39.51186528722601" lon="9.31305848079204"><ele>330.0</ele><time>2026-04-28T10:03:24.968Z</time></trkpt><trkpt lat="39.51184297255035" lon="9.312865796045473"><ele>330.0</ele><time>2026-04-28T10:03:25.968Z</time></trkpt><trkpt lat="39.511810654618856" lon="9.312658965034439"><ele>329.6666666666667</ele><time>2026-04-28T10:03:26.968Z</time></trkpt><trkpt lat="39.51178759164317" lon="9.31243187159397"><ele>329.33333333333337</ele><time>2026-04-28T10:03:27.968Z</time></trkpt><trkpt lat="39.51176647342708" lon="9.3121942188096"><ele>329.0</ele><time>2026-04-28T10:03:28.967Z</time></trkpt><trkpt lat="39.511756767364666" lon="9.311956070273737"><ele>327.33333333333337</ele><time>2026-04-28T10:03:29.968Z</time></trkpt><trkpt lat="39.51175408744048" lon="9.311696005651706"><ele>325.6666666666667</ele><time>2026-04-28T10:03:30.967Z</time></trkpt><trkpt lat="39.51176238041972" lon="9.311450290727116"><ele>324.0</ele><time>2026-04-28T10:03:31.967Z</time></trkpt><trkpt lat="39.511777305165715" lon="9.311223924852829"><ele>320.3333333333333</ele><time>2026-04-28T10:03:32.968Z</time></trkpt><trkpt lat="39.51177435078124" lon="9.31101271097408"><ele>316.66666666666663</ele><time>2026-04-28T10:03:33.968Z</time></trkpt><trkpt lat="39.511721302461616" lon="9.31082519938365"><ele>313.0</ele><time>2026-04-28T10:03:34.968Z</time></trkpt><trkpt lat="39.51162532734751" lon="9.310669594885955"><ele>314.5</ele><time>2026-04-28T10:03:35.968Z</time></trkpt><trkpt lat="39.511524379623495" lon="9.310540267180416"><ele>316.0</ele><time>2026-04-28T10:03:36.968Z</time></trkpt><trkpt lat="39.51146141287827" lon="9.310403747637254"><ele>317.5</ele><time>2026-04-28T10:03:37.968Z</time></trkpt><trkpt lat="39.51146364904012" lon="9.310260712362842"><ele>319.0</ele><time>2026-04-28T10:03:38.968Z</time></trkpt><trkpt lat="39.511529203353476" lon="9.310163172292167"><ele>319.0</ele><time>2026-04-28T10:03:39.968Z</time></trkpt><trkpt lat="39.5116428903476" lon="9.310117888636354"><ele>319.0</ele><time>2026-04-28T10:03:40.968Z</time></trkpt><trkpt lat="39.51177895407011" lon="9.310075199171697"><ele>319.0</ele><time>2026-04-28T10:03:41.968Z</time></trkpt><trkpt lat="39.51193219808719" lon="9.310012808614866"><ele>319.0</ele><time>2026-04-28T10:03:42.968Z</time></trkpt><trkpt lat="39.51208562862975" lon="9.309929719477678"><ele>319.66666666666663</ele><time>2026-04-28T10:03:43.968Z</time></trkpt><trkpt lat="39.51223115693683" lon="9.309827964292182"><ele>320.3333333333333</ele><time>2026-04-28T10:03:44.968Z</time></trkpt><trkpt lat="39.512370361523125" lon="9.309738322593393"><ele>321.0</ele><time>2026-04-28T10:03:45.968Z</time></trkpt><trkpt lat="39.512495477641714" lon="9.309679974616294"><ele>321.0</ele><time>2026-04-28T10:03:46.968Z</time></trkpt><trkpt lat="39.51262230695314" lon="9.309687560588237"><ele>321.0</ele><time>2026-04-28T10:03:47.968Z</time></trkpt><trkpt lat="39.512714984418" lon="9.309767198050125"><ele>321.0</ele><time>2026-04-28T10:03:48.968Z</time></trkpt><trkpt lat="39.51277284485258" lon="9.309897932350623"><ele>321.0</ele><time>2026-04-28T10:03:49.968Z</time></trkpt><trkpt lat="39.51278031842304" lon="9.310061755041378"><ele>317.0</ele><time>2026-04-28T10:03:50.968Z</time></trkpt><trkpt lat="39.51273253823958" lon="9.310241810478862"><ele>313.0</ele><time>2026-04-28T10:03:51.968Z</time></trkpt><trkpt lat="39.51265581475636" lon="9.310429445051353"><ele>309.0</ele><time>2026-04-28T10:03:52.968Z</time></trkpt><trkpt lat="39.512589435282884" lon="9.310637924492907"><ele>308.0</ele><time>2026-04-28T10:03:53.968Z</time></trkpt><trkpt lat="39.51254481174193" lon="9.310851406141873"><ele>307.0</ele><time>2026-04-28T10:03:54.968Z</time></trkpt><trkpt lat="39.512538089123346" lon="9.311088557730962"><ele>306.0</ele><time>2026-04-28T10:03:55.968Z</time></trkpt><trkpt lat="39.512570001147" lon="9.311331509376219"><ele>305.3333333333333</ele><time>2026-04-28T10:03:56.968Z</time></trkpt><trkpt lat="39.51264102567044" lon="9.311570764712103"><ele>304.66666666666663</ele><time>2026-04-28T10:03:57.968Z</time></trkpt><trkpt lat="39.512744872272044" lon="9.31180429900315"><ele>304.0</ele><time>2026-04-28T10:03:58.968Z</time></trkpt><trkpt lat="39.512849532007905" lon="9.312041268744442"><ele>306.0</ele><time>2026-04-28T10:03:59.968Z</time></trkpt><trkpt lat="39.51294406407709" lon="9.31227344248913"><ele>308.0</ele><time>2026-04-28T10:04:00.968Z</time></trkpt><trkpt lat="39.5130368055927" lon="9.312505999493158"><ele>310.0</ele><time>2026-04-28T10:04:01.968Z</time></trkpt><trkpt lat="39.51312905635042" lon="9.312731069433674"><ele>310.0</ele><time>2026-04-28T10:04:02.968Z</time></trkpt><trkpt lat="39.51322630094009" lon="9.312937595575972"><ele>310.0</ele><time>2026-04-28T10:04:03.968Z</time></trkpt><trkpt lat="39.513351520177395" lon="9.313108283495083"><ele>310.0</ele><time>2026-04-28T10:04:04.968Z</time></trkpt><trkpt lat="39.51349154453938" lon="9.313236747048574"><ele>306.66666666666663</ele><time>2026-04-28T10:04:05.968Z</time></trkpt><trkpt lat="39.513636803632664" lon="9.313310403433128"><ele>303.3333333333333</ele><time>2026-04-28T10:04:06.968Z</time></trkpt><trkpt lat="39.513801841169" lon="9.313306842793493"><ele>300.0</ele><time>2026-04-28T10:04:07.968Z</time></trkpt><trkpt lat="39.51396415768712" lon="9.313289997930976"><ele>300.0</ele><time>2026-04-28T10:04:08.968Z</time></trkpt><trkpt lat="39.51410549430552" lon="9.313329696550154"><ele>300.0</ele><time>2026-04-28T10:04:09.967Z</time></trkpt><trkpt lat="39.51422453642434" lon="9.313440781798091"><ele>300.0</ele><time>2026-04-28T10:04:10.967Z</time></trkpt><trkpt lat="39.51432976504872" lon="9.313616458075316"><ele>300.0</ele><time>2026-04-28T10:04:11.967Z</time></trkpt><trkpt lat="39.514435050239285" lon="9.313807516418242"><ele>300.0</ele><time>2026-04-28T10:04:12.967Z</time></trkpt><trkpt lat="39.514551717900126" lon="9.31400946613493"><ele>300.0</ele><time>2026-04-28T10:04:13.967Z</time></trkpt><trkpt lat="39.5146797815725" lon="9.314206490226498"><ele>299.3333333333333</ele><time>2026-04-28T10:04:14.967Z</time></trkpt><trkpt lat="39.5148262703576" lon="9.314368740963697"><ele>298.66666666666663</ele><time>2026-04-28T10:04:15.967Z</time></trkpt><trkpt lat="39.514992510361836" lon="9.31452151852579"><ele>298.0</ele><time>2026-04-28T10:04:16.967Z</time></trkpt><trkpt lat="39.5151671271604" lon="9.314655837154852"><ele>294.3333333333333</ele><time>2026-04-28T10:04:17.967Z</time></trkpt><trkpt lat="39.515361638827876" lon="9.314793767121957"><ele>290.6666666666667</ele><time>2026-04-28T10:04:18.967Z</time></trkpt><trkpt lat="39.51556970073054" lon="9.314908389039289"><ele>287.0</ele><time>2026-04-28T10:04:19.967Z</time></trkpt><trkpt lat="39.515778153493386" lon="9.314994468316726"><ele>287.0</ele><time>2026-04-28T10:04:20.967Z</time></trkpt><trkpt lat="39.515976742831825" lon="9.315033843082643"><ele>287.0</ele><time>2026-04-28T10:04:21.967Z</time></trkpt><trkpt lat="39.51614209905581" lon="9.315054038788965"><ele>287.0</ele><time>2026-04-28T10:04:22.967Z</time></trkpt><trkpt lat="39.51627586347417" lon="9.315040281979678"><ele>285.5</ele><time>2026-04-28T10:04:23.967Z</time></trkpt><trkpt lat="39.51638702971669" lon="9.31494731622028"><ele>284.0</ele><time>2026-04-28T10:04:24.967Z</time></trkpt><trkpt lat="39.51645518316616" lon="9.31476021517255"><ele>282.5</ele><time>2026-04-28T10:04:25.967Z</time></trkpt><trkpt lat="39.51648200560578" lon="9.314580808557563"><ele>281.0</ele><time>2026-04-28T10:04:26.967Z</time></trkpt><trkpt lat="39.51653753019842" lon="9.31444388680314"><ele>284.25</ele><time>2026-04-28T10:04:27.967Z</time></trkpt><trkpt lat="39.516641122427856" lon="9.31436324236593"><ele>287.5</ele><time>2026-04-28T10:04:28.967Z</time></trkpt><trkpt lat="39.51671307903699" lon="9.314406408601757"><ele>290.75</ele><time>2026-04-28T10:04:29.967Z</time></trkpt><trkpt lat="39.51678027729965" lon="9.314561020108233"><ele>294.0</ele><time>2026-04-28T10:04:30.967Z</time></trkpt><trkpt lat="39.51682505275233" lon="9.31472502353457"><ele>293.0</ele><time>2026-04-28T10:04:31.967Z</time></trkpt><trkpt lat="39.51691770933561" lon="9.314895965582082"><ele>292.0</ele><time>2026-04-28T10:04:32.967Z</time></trkpt><trkpt lat="39.517001149578356" lon="9.31507799000144"><ele>291.0</ele><time>2026-04-28T10:04:33.967Z</time></trkpt><trkpt lat="39.5171297282732" lon="9.31523777621353"><ele>291.0</ele><time>2026-04-28T10:04:34.967Z</time></trkpt><trkpt lat="39.51728757695492" lon="9.315391393025921"><ele>291.0</ele><time>2026-04-28T10:04:35.967Z</time></trkpt><trkpt lat="39.517466997916486" lon="9.315552564632966"><ele>291.0</ele><time>2026-04-28T10:04:36.967Z</time></trkpt><trkpt lat="39.517640863358565" lon="9.315714432486097"><ele>291.3333333333333</ele><time>2026-04-28T10:04:37.967Z</time></trkpt><trkpt lat="39.51781690596465" lon="9.315878694703777"><ele>291.66666666666663</ele><time>2026-04-28T10:04:38.967Z</time></trkpt><trkpt lat="39.51799563606253" lon="9.316056326380007"><ele>292.0</ele><time>2026-04-28T10:04:39.967Z</time></trkpt><trkpt lat="39.518178359784706" lon="9.316236497620137"><ele>285.66666666666663</ele><time>2026-04-28T10:04:40.967Z</time></trkpt><trkpt lat="39.51835416534843" lon="9.316403218804744"><ele>279.3333333333333</ele><time>2026-04-28T10:04:41.967Z</time></trkpt><trkpt lat="39.51852423530718" lon="9.316567109053686"><ele>273.0</ele><time>2026-04-28T10:04:42.967Z</time></trkpt><trkpt lat="39.51868785685618" lon="9.316720414188412"><ele>275.3333333333333</ele><time>2026-04-28T10:04:43.967Z</time></trkpt><trkpt lat="39.518859181342734" lon="9.316829794633273"><ele>277.66666666666663</ele><time>2026-04-28T10:04:44.967Z</time></trkpt><trkpt lat="39.51906052655296" lon="9.316872060715253"><ele>280.0</ele><time>2026-04-28T10:04:45.967Z</time></trkpt><trkpt lat="39.519268881565" lon="9.316867390194053"><ele>280.0</ele><time>2026-04-28T10:04:46.967Z</time></trkpt><trkpt lat="39.519469641716896" lon="9.316863855343836"><ele>280.0</ele><time>2026-04-28T10:04:47.967Z</time></trkpt><trkpt lat="39.51965210931508" lon="9.31694728699254"><ele>280.0</ele><time>2026-04-28T10:04:48.967Z</time></trkpt><trkpt lat="39.5198358648642" lon="9.317055582069429"><ele>281.0</ele><time>2026-04-28T10:04:49.967Z</time></trkpt><trkpt lat="39.52000192642679" lon="9.317208243452445"><ele>282.0</ele><time>2026-04-28T10:04:50.967Z</time></trkpt><trkpt lat="39.52013827667108" lon="9.317383644912724"><ele>283.0</ele><time>2026-04-28T10:04:51.967Z</time></trkpt><trkpt lat="39.5202364232303" lon="9.317588722913058"><ele>278.0</ele><time>2026-04-28T10:04:52.967Z</time></trkpt><trkpt lat="39.520279595635174" lon="9.317839897104104"><ele>273.0</ele><time>2026-04-28T10:04:53.967Z</time></trkpt><trkpt lat="39.52029836898837" lon="9.318062648429086"><ele>268.0</ele><time>2026-04-28T10:04:54.967Z</time></trkpt><trkpt lat="39.52030848804604" lon="9.318230964034152"><ele>266.6</ele><time>2026-04-28T10:04:55.967Z</time></trkpt><trkpt lat="39.520364207860524" lon="9.318338952271729"><ele>265.20000000000005</ele><time>2026-04-28T10:04:56.967Z</time></trkpt><trkpt lat="39.52044738297345" lon="9.318363527008428"><ele>263.8</ele><time>2026-04-28T10:04:57.967Z</time></trkpt><trkpt lat="39.52055125354775" lon="9.31829691917425"><ele>262.40000000000003</ele><time>2026-04-28T10:04:58.967Z</time></trkpt><trkpt lat="39.52063252551191" lon="9.31818645173015"><ele>261.0</ele><time>2026-04-28T10:04:59.967Z</time></trkpt><trkpt lat="39.52071050927764" lon="9.318189967761748"><ele>261.0</ele><time>2026-04-28T10:05:00.967Z</time></trkpt><trkpt lat="39.52078910335502" lon="9.318242503254051"><ele>261.0</ele><time>2026-04-28T10:05:01.967Z</time></trkpt><trkpt lat="39.521098984783556" lon="9.318298735180194"><ele>261.0</ele><time>2026-04-28T10:05:02.967Z</time></trkpt><trkpt lat="39.52117913970181" lon="9.318484752474005"><ele>261.0</ele><time>2026-04-28T10:05:03.967Z</time></trkpt><trkpt lat="39.52121504832854" lon="9.318708631227853"><ele>261.0</ele><time>2026-04-28T10:05:04.967Z</time></trkpt><trkpt lat="39.52128632609334" lon="9.318935354443452"><ele>261.0</ele><time>2026-04-28T10:05:05.967Z</time></trkpt><trkpt lat="39.52137970782958" lon="9.319146782923783"><ele>260.6666666666667</ele><time>2026-04-28T10:05:06.967Z</time></trkpt><trkpt lat="39.521480748079306" lon="9.319365047958824"><ele>260.33333333333337</ele><time>2026-04-28T10:05:07.967Z</time></trkpt><trkpt lat="39.52158811556729" lon="9.3195991311677"><ele>260.0</ele><time>2026-04-28T10:05:08.967Z</time></trkpt><trkpt lat="39.52169961981908" lon="9.319828616015727"><ele>260.0</ele><time>2026-04-28T10:05:09.967Z</time></trkpt><trkpt lat="39.52180820621872" lon="9.320056901934162"><ele>260.0</ele><time>2026-04-28T10:05:10.967Z</time></trkpt><trkpt lat="39.521917922797556" lon="9.32028317720753"><ele>260.0</ele><time>2026-04-28T10:05:11.967Z</time></trkpt><trkpt lat="39.522020078470426" lon="9.320514012665297"><ele>264.6666666666667</ele><time>2026-04-28T10:05:12.967Z</time></trkpt><trkpt lat="39.522097056132836" lon="9.320748298866052"><ele>269.3333333333333</ele><time>2026-04-28T10:05:13.967Z</time></trkpt><trkpt lat="39.52213552220768" lon="9.32097338317236"><ele>274.0</ele><time>2026-04-28T10:05:14.967Z</time></trkpt><trkpt lat="39.52209411208492" lon="9.321192916448362"><ele>267.0</ele><time>2026-04-28T10:05:15.967Z</time></trkpt><trkpt lat="39.52201400184588" lon="9.321392549177887"><ele>260.0</ele><time>2026-04-28T10:05:16.966Z</time></trkpt><trkpt lat="39.52197726070267" lon="9.321616372668707"><ele>253.0</ele><time>2026-04-28T10:05:17.966Z</time></trkpt><trkpt lat="39.521970028674644" lon="9.32184664578748"><ele>253.0</ele><time>2026-04-28T10:05:18.966Z</time></trkpt><trkpt lat="39.521919116434894" lon="9.322073113653818"><ele>253.0</ele><time>2026-04-28T10:05:19.966Z</time></trkpt><trkpt lat="39.521810594403604" lon="9.322269996793846"><ele>253.0</ele><time>2026-04-28T10:05:20.966Z</time></trkpt><trkpt lat="39.52167589139414" lon="9.322424873651588"><ele>253.75</ele><time>2026-04-28T10:05:21.966Z</time></trkpt><trkpt lat="39.52157373155973" lon="9.322572426844777"><ele>254.5</ele><time>2026-04-28T10:05:22.966Z</time></trkpt><trkpt lat="39.521540333509854" lon="9.322727537961404"><ele>255.25</ele><time>2026-04-28T10:05:23.966Z</time></trkpt><trkpt lat="39.52158340431221" lon="9.322889320406693"><ele>256.0</ele><time>2026-04-28T10:05:24.966Z</time></trkpt><trkpt lat="39.5217300479421" lon="9.322968808476526"><ele>256.0</ele><time>2026-04-28T10:05:25.966Z</time></trkpt><trkpt lat="39.52191121455646" lon="9.323020157862711"><ele>256.0</ele><time>2026-04-28T10:05:26.966Z</time></trkpt><trkpt lat="39.52211200983608" lon="9.32304253341784"><ele>256.0</ele><time>2026-04-28T10:05:27.966Z</time></trkpt><trkpt lat="39.522319568731284" lon="9.32309877634156"><ele>255.33333333333331</ele><time>2026-04-28T10:05:28.967Z</time></trkpt><trkpt lat="39.52252579603149" lon="9.323181269333524"><ele>254.66666666666669</ele><time>2026-04-28T10:05:29.967Z</time></trkpt><trkpt lat="39.52269148374078" lon="9.323322765806312"><ele>254.0</ele><time>2026-04-28T10:05:30.967Z</time></trkpt><trkpt lat="39.522830479946734" lon="9.32345500277367"><ele>260.6666666666667</ele><time>2026-04-28T10:05:31.967Z</time></trkpt><trkpt lat="39.52292007831679" lon="9.323598555478585"><ele>267.3333333333333</ele><time>2026-04-28T10:05:32.967Z</time></trkpt><trkpt lat="39.522951136210395" lon="9.32378931477065"><ele>274.0</ele><time>2026-04-28T10:05:33.967Z</time></trkpt><trkpt lat="39.522931308298034" lon="9.324025334029333"><ele>274.0</ele><time>2026-04-28T10:05:34.967Z</time></trkpt><trkpt lat="39.52290183847575" lon="9.324269229369117"><ele>274.0</ele><time>2026-04-28T10:05:35.966Z</time></trkpt><trkpt lat="39.52294479698257" lon="9.324485171762893"><ele>274.0</ele><time>2026-04-28T10:05:36.966Z</time></trkpt><trkpt lat="39.52303757866401" lon="9.324672080594278"><ele>271.66666666666663</ele><time>2026-04-28T10:05:37.966Z</time></trkpt><trkpt lat="39.52308193014022" lon="9.324867468772595"><ele>269.3333333333333</ele><time>2026-04-28T10:05:38.967Z</time></trkpt><trkpt lat="39.52304820691717" lon="9.325090588231603"><ele>267.0</ele><time>2026-04-28T10:05:39.967Z</time></trkpt><trkpt lat="39.52297314820035" lon="9.325323067312056"><ele>267.6666666666667</ele><time>2026-04-28T10:05:40.966Z</time></trkpt><trkpt lat="39.52290324788968" lon="9.325573881153948"><ele>268.33333333333337</ele><time>2026-04-28T10:05:41.967Z</time></trkpt><trkpt lat="39.52284150375432" lon="9.325840881178895"><ele>269.0</ele><time>2026-04-28T10:05:42.967Z</time></trkpt><trkpt lat="39.52276567456854" lon="9.326104058321654"><ele>259.0</ele><time>2026-04-28T10:05:43.966Z</time></trkpt><trkpt lat="39.52267601127005" lon="9.326347827153533"><ele>249.0</ele><time>2026-04-28T10:05:44.966Z</time></trkpt><trkpt lat="39.522612070299076" lon="9.326595312169356"><ele>239.0</ele><time>2026-04-28T10:05:45.966Z</time></trkpt><trkpt lat="39.52258299589294" lon="9.32685467094494"><ele>239.0</ele><time>2026-04-28T10:05:46.966Z</time></trkpt><trkpt lat="39.52257052735459" lon="9.327102724278173"><ele>239.0</ele><time>2026-04-28T10:05:47.966Z</time></trkpt><trkpt lat="39.522584925404395" lon="9.327325419253176"><ele>239.0</ele><time>2026-04-28T10:05:48.966Z</time></trkpt><trkpt lat="39.52264556078408" lon="9.32755342308909"><ele>239.33333333333334</ele><time>2026-04-28T10:05:49.966Z</time></trkpt><trkpt lat="39.522774064751324" lon="9.327754383061443"><ele>239.66666666666669</ele><time>2026-04-28T10:05:50.966Z</time></trkpt><trkpt lat="39.52295605202261" lon="9.327910489295554"><ele>240.0</ele><time>2026-04-28T10:05:51.966Z</time></trkpt><trkpt lat="39.52313169492748" lon="9.328077322329074"><ele>240.0</ele><time>2026-04-28T10:05:52.966Z</time></trkpt><trkpt lat="39.52331662593636" lon="9.328273556342166"><ele>240.0</ele><time>2026-04-28T10:05:53.966Z</time></trkpt><trkpt lat="39.52348597765477" lon="9.32846851869478"><ele>240.0</ele><time>2026-04-28T10:05:54.966Z</time></trkpt><trkpt lat="39.52363321238051" lon="9.328635116610235"><ele>240.0</ele><time>2026-04-28T10:05:55.966Z</time></trkpt><trkpt lat="39.52377142219956" lon="9.328772609491564"><ele>240.0</ele><time>2026-04-28T10:05:56.966Z</time></trkpt><trkpt lat="39.52389821633619" lon="9.328838893958814"><ele>244.0</ele><time>2026-04-28T10:05:57.966Z</time></trkpt><trkpt lat="39.52405198537091" lon="9.32879050524369"><ele>248.0</ele><time>2026-04-28T10:05:58.966Z</time></trkpt><trkpt lat="39.524217439247764" lon="9.328659844540528"><ele>252.0</ele><time>2026-04-28T10:05:59.966Z</time></trkpt><trkpt lat="39.52436622836118" lon="9.328538923208804"><ele>252.0</ele><time>2026-04-28T10:06:00.966Z</time></trkpt><trkpt lat="39.52448455776399" lon="9.32850394135984"><ele>252.0</ele><time>2026-04-28T10:06:01.966Z</time></trkpt><trkpt lat="39.524574442618665" lon="9.328600843480057"><ele>252.0</ele><time>2026-04-28T10:06:02.966Z</time></trkpt><trkpt lat="39.52462382007993" lon="9.328766963043469"><ele>252.0</ele><time>2026-04-28T10:06:03.966Z</time></trkpt><trkpt lat="39.524602125504074" lon="9.328969504309446"><ele>245.0</ele><time>2026-04-28T10:06:04.966Z</time></trkpt><trkpt lat="39.524486147225126" lon="9.329158079953483"><ele>238.0</ele><time>2026-04-28T10:06:05.966Z</time></trkpt><trkpt lat="39.52438100654518" lon="9.329318729028264"><ele>231.0</ele><time>2026-04-28T10:06:06.966Z</time></trkpt><trkpt lat="39.52434685058897" lon="9.329517640846387"><ele>229.33333333333331</ele><time>2026-04-28T10:06:07.966Z</time></trkpt><trkpt lat="39.524398268861745" lon="9.329752118951223"><ele>227.66666666666666</ele><time>2026-04-28T10:06:08.966Z</time></trkpt><trkpt lat="39.524498758354774" lon="9.32999805844373"><ele>226.0</ele><time>2026-04-28T10:06:09.966Z</time></trkpt><trkpt lat="39.52459486219465" lon="9.330223166423831"><ele>232.66666666666666</ele><time>2026-04-28T10:06:10.966Z</time></trkpt><trkpt lat="39.52467540902487" lon="9.33045748542515"><ele>239.33333333333331</ele><time>2026-04-28T10:06:11.966Z</time></trkpt><trkpt lat="39.52470818892103" lon="9.330696043933488"><ele>246.0</ele><time>2026-04-28T10:06:12.966Z</time></trkpt><trkpt lat="39.524695516031905" lon="9.330938623526162"><ele>246.0</ele><time>2026-04-28T10:06:13.966Z</time></trkpt><trkpt lat="39.524697754503265" lon="9.331179666745365"><ele>246.0</ele><time>2026-04-28T10:06:14.966Z</time></trkpt><trkpt lat="39.524756881546075" lon="9.33142303671486"><ele>246.0</ele><time>2026-04-28T10:06:15.966Z</time></trkpt><trkpt lat="39.5248470939554" lon="9.331660683193787"><ele>242.33333333333331</ele><time>2026-04-28T10:06:16.966Z</time></trkpt><trkpt lat="39.52497125190885" lon="9.331870398783074"><ele>238.66666666666666</ele><time>2026-04-28T10:06:17.966Z</time></trkpt><trkpt lat="39.5251290625723" lon="9.332053767844851"><ele>235.0</ele><time>2026-04-28T10:06:18.966Z</time></trkpt><trkpt lat="39.525310989992306" lon="9.33221333619764"><ele>237.66666666666666</ele><time>2026-04-28T10:06:19.966Z</time></trkpt><trkpt lat="39.525495217503405" lon="9.33237953941835"><ele>240.33333333333331</ele><time>2026-04-28T10:06:20.966Z</time></trkpt><trkpt lat="39.525638422301355" lon="9.332554684625153"><ele>243.0</ele><time>2026-04-28T10:06:21.966Z</time></trkpt><trkpt lat="39.525756795458406" lon="9.332730022500641"><ele>243.0</ele><time>2026-04-28T10:06:22.966Z</time></trkpt><trkpt lat="39.52582759737355" lon="9.332940412592453"><ele>243.0</ele><time>2026-04-28T10:06:23.966Z</time></trkpt><trkpt lat="39.525867406883975" lon="9.33316008400841"><ele>243.0</ele><time>2026-04-28T10:06:24.966Z</time></trkpt><trkpt lat="39.52584938274202" lon="9.333416038870716"><ele>238.33333333333331</ele><time>2026-04-28T10:06:25.966Z</time></trkpt><trkpt lat="39.52580922302683" lon="9.333664493238475"><ele>233.66666666666666</ele><time>2026-04-28T10:06:26.966Z</time></trkpt><trkpt lat="39.525768022506156" lon="9.33386902495089"><ele>229.0</ele><time>2026-04-28T10:06:27.966Z</time></trkpt><trkpt lat="39.52579070828982" lon="9.334035697240134"><ele>230.66666666666666</ele><time>2026-04-28T10:06:28.966Z</time></trkpt><trkpt lat="39.52588771005191" lon="9.334175391985884"><ele>232.33333333333331</ele><time>2026-04-28T10:06:29.966Z</time></trkpt><trkpt lat="39.52605827292596" lon="9.334250254612261"><ele>234.0</ele><time>2026-04-28T10:06:30.966Z</time></trkpt><trkpt lat="39.52627400520848" lon="9.334305932658657"><ele>234.0</ele><time>2026-04-28T10:06:31.966Z</time></trkpt><trkpt lat="39.52648098499485" lon="9.33438465073022"><ele>234.0</ele><time>2026-04-28T10:06:32.966Z</time></trkpt><trkpt lat="39.526685730632494" lon="9.33446903862173"><ele>234.0</ele><time>2026-04-28T10:06:33.966Z</time></trkpt><trkpt lat="39.526902190430334" lon="9.334532045381852"><ele>233.5</ele><time>2026-04-28T10:06:34.966Z</time></trkpt><trkpt lat="39.52712639166828" lon="9.334602594833393"><ele>233.0</ele><time>2026-04-28T10:06:35.966Z</time></trkpt><trkpt lat="39.52734802721463" lon="9.334673624763003"><ele>227.5</ele><time>2026-04-28T10:06:36.966Z</time></trkpt><trkpt lat="39.5275730661284" lon="9.334746007828425"><ele>222.0</ele><time>2026-04-28T10:06:37.966Z</time></trkpt><trkpt lat="39.52779811572658" lon="9.334819338537788"><ele>220.66666666666669</ele><time>2026-04-28T10:06:38.966Z</time></trkpt><trkpt lat="39.5280185385995" lon="9.33489170931287"><ele>219.33333333333334</ele><time>2026-04-28T10:06:39.966Z</time></trkpt><trkpt lat="39.52821877806008" lon="9.334961875310547"><ele>218.0</ele><time>2026-04-28T10:06:40.966Z</time></trkpt><trkpt lat="39.52841580037109" lon="9.33505283793243"><ele>218.0</ele><time>2026-04-28T10:06:41.966Z</time></trkpt><trkpt lat="39.528608069757865" lon="9.335178638049689"><ele>218.0</ele><time>2026-04-28T10:06:42.966Z</time></trkpt><trkpt lat="39.52878668221425" lon="9.335340566675937"><ele>218.0</ele><time>2026-04-28T10:06:43.966Z</time></trkpt><trkpt lat="39.528950724192036" lon="9.335521863303123"><ele>215.0</ele><time>2026-04-28T10:06:44.966Z</time></trkpt><trkpt lat="39.52909720417656" lon="9.335741710745108"><ele>212.0</ele><time>2026-04-28T10:06:45.966Z</time></trkpt><trkpt lat="39.52922063588746" lon="9.335950359845317"><ele>209.0</ele><time>2026-04-28T10:06:46.966Z</time></trkpt><trkpt lat="39.52933421318124" lon="9.336113711594859"><ele>209.0</ele><time>2026-04-28T10:06:47.966Z</time></trkpt><trkpt lat="39.52945676295953" lon="9.336229316405609"><ele>209.0</ele><time>2026-04-28T10:06:48.966Z</time></trkpt><trkpt lat="39.529604200424735" lon="9.336279782744922"><ele>209.0</ele><time>2026-04-28T10:06:49.966Z</time></trkpt><trkpt lat="39.5297601358479" lon="9.336203070897954"><ele>208.0</ele><time>2026-04-28T10:06:50.965Z</time></trkpt><trkpt lat="39.529923667272705" lon="9.336054569516358"><ele>207.0</ele><time>2026-04-28T10:06:51.965Z</time></trkpt><trkpt lat="39.53007235487411" lon="9.335843756822332"><ele>206.0</ele><time>2026-04-28T10:06:52.965Z</time></trkpt><trkpt lat="39.53020918185532" lon="9.335656197197704"><ele>212.66666666666669</ele><time>2026-04-28T10:06:53.965Z</time></trkpt><trkpt lat="39.53038166278314" lon="9.335552977107781"><ele>219.33333333333331</ele><time>2026-04-28T10:06:54.965Z</time></trkpt><trkpt lat="39.530587067040614" lon="9.335518766771001"><ele>226.0</ele><time>2026-04-28T10:06:55.965Z</time></trkpt><trkpt lat="39.530793693943615" lon="9.335509997359448"><ele>226.0</ele><time>2026-04-28T10:06:56.965Z</time></trkpt><trkpt lat="39.53101214173363" lon="9.335513994909983"><ele>226.0</ele><time>2026-04-28T10:06:57.965Z</time></trkpt><trkpt lat="39.53121832908988" lon="9.335535676032354"><ele>226.0</ele><time>2026-04-28T10:06:58.965Z</time></trkpt><trkpt lat="39.53139952762829" lon="9.335582690264488"><ele>216.33333333333331</ele><time>2026-04-28T10:06:59.965Z</time></trkpt><trkpt lat="39.53156071680604" lon="9.33569852868527"><ele>206.66666666666669</ele><time>2026-04-28T10:07:00.965Z</time></trkpt><trkpt lat="39.53171916792425" lon="9.335892990712193"><ele>197.0</ele><time>2026-04-28T10:07:01.965Z</time></trkpt><trkpt lat="39.531908877336505" lon="9.336076315018174"><ele>195.0</ele><time>2026-04-28T10:07:02.965Z</time></trkpt><trkpt lat="39.53209662350379" lon="9.33627681084129"><ele>193.0</ele><time>2026-04-28T10:07:03.965Z</time></trkpt><trkpt lat="39.53227848323927" lon="9.336492712913207"><ele>193.0</ele><time>2026-04-28T10:07:04.965Z</time></trkpt><trkpt lat="39.53244599864264" lon="9.336709354250672"><ele>193.0</ele><time>2026-04-28T10:07:05.965Z</time></trkpt><trkpt lat="39.532583357395815" lon="9.336922969517284"><ele>193.0</ele><time>2026-04-28T10:07:06.965Z</time></trkpt><trkpt lat="39.5327037558058" lon="9.337077457780527"><ele>193.0</ele><time>2026-04-28T10:07:07.965Z</time></trkpt><trkpt lat="39.53280989707653" lon="9.3371734898509"><ele>193.0</ele><time>2026-04-28T10:07:08.965Z</time></trkpt><trkpt lat="39.5329463189735" lon="9.337183950192191"><ele>193.0</ele><time>2026-04-28T10:07:09.965Z</time></trkpt><trkpt lat="39.533079640399066" lon="9.337052270539715"><ele>191.33333333333331</ele><time>2026-04-28T10:07:10.965Z</time></trkpt><trkpt lat="39.53320710857432" lon="9.336824437494702"><ele>189.66666666666666</ele><time>2026-04-28T10:07:11.965Z</time></trkpt><trkpt lat="39.533356966978744" lon="9.336626845966636"><ele>188.0</ele><time>2026-04-28T10:07:12.965Z</time></trkpt><trkpt lat="39.533535548993235" lon="9.336499302631374"><ele>184.0</ele><time>2026-04-28T10:07:13.965Z</time></trkpt><trkpt lat="39.533739575417734" lon="9.336459493312756"><ele>180.0</ele><time>2026-04-28T10:07:14.965Z</time></trkpt><trkpt lat="39.53394515652415" lon="9.336488643674983"><ele>176.0</ele><time>2026-04-28T10:07:15.965Z</time></trkpt><trkpt lat="39.53412674036474" lon="9.336556044823961"><ele>176.0</ele><time>2026-04-28T10:07:16.965Z</time></trkpt><trkpt lat="39.534277936600525" lon="9.33662224073018"><ele>176.0</ele><time>2026-04-28T10:07:17.965Z</time></trkpt><trkpt lat="39.534399528155774" lon="9.336597991068787"><ele>176.0</ele><time>2026-04-28T10:07:18.965Z</time></trkpt><trkpt lat="39.53448720657292" lon="9.336469692157907"><ele>176.0</ele><time>2026-04-28T10:07:19.965Z</time></trkpt><trkpt lat="39.53457756618688" lon="9.336243631881075"><ele>175.66666666666666</ele><time>2026-04-28T10:07:20.965Z</time></trkpt><trkpt lat="39.534689197169655" lon="9.335988164256694"><ele>175.33333333333334</ele><time>2026-04-28T10:07:21.965Z</time></trkpt><trkpt lat="39.534817082885056" lon="9.335766018555882"><ele>175.0</ele><time>2026-04-28T10:07:22.965Z</time></trkpt><trkpt lat="39.534987050139215" lon="9.335601286504533"><ele>172.66666666666669</ele><time>2026-04-28T10:07:23.965Z</time></trkpt><trkpt lat="39.53518305819396" lon="9.335484754015605"><ele>170.33333333333334</ele><time>2026-04-28T10:07:24.965Z</time></trkpt><trkpt lat="39.53539372840695" lon="9.335392921618508"><ele>168.0</ele><time>2026-04-28T10:07:25.965Z</time></trkpt><trkpt lat="39.53561423481317" lon="9.335304765145864"><ele>168.0</ele><time>2026-04-28T10:07:26.965Z</time></trkpt><trkpt lat="39.5358356640132" lon="9.335219541079733"><ele>168.0</ele><time>2026-04-28T10:07:27.965Z</time></trkpt><trkpt lat="39.53603325781542" lon="9.335136865140035"><ele>168.0</ele><time>2026-04-28T10:07:28.965Z</time></trkpt><trkpt lat="39.536187899644574" lon="9.335068292441159"><ele>171.5</ele><time>2026-04-28T10:07:29.965Z</time></trkpt><trkpt lat="39.53630198711845" lon="9.335031663089897"><ele>175.0</ele><time>2026-04-28T10:07:30.965Z</time></trkpt><trkpt lat="39.53640160616504" lon="9.335071646909837"><ele>178.5</ele><time>2026-04-28T10:07:31.965Z</time></trkpt><trkpt lat="39.536493072805314" lon="9.335215376646861"><ele>182.0</ele><time>2026-04-28T10:07:32.965Z</time></trkpt><trkpt lat="39.53657825176094" lon="9.335442235440564"><ele>177.0</ele><time>2026-04-28T10:07:33.965Z</time></trkpt><trkpt lat="39.536683612286915" lon="9.335655976539128"><ele>172.0</ele><time>2026-04-28T10:07:34.966Z</time></trkpt><trkpt lat="39.53680298253542" lon="9.335884036217283"><ele>167.0</ele><time>2026-04-28T10:07:35.966Z</time></trkpt><trkpt lat="39.53692913255313" lon="9.33610551335581"><ele>168.33333333333331</ele><time>2026-04-28T10:07:36.966Z</time></trkpt><trkpt lat="39.537056704408506" lon="9.336332721832873"><ele>169.66666666666666</ele><time>2026-04-28T10:07:37.966Z</time></trkpt><trkpt lat="39.53718310496438" lon="9.336558659757893"><ele>171.0</ele><time>2026-04-28T10:07:38.966Z</time></trkpt><trkpt lat="39.53730916675549" lon="9.336769492818588"><ele>171.0</ele><time>2026-04-28T10:07:39.966Z</time></trkpt><trkpt lat="39.53745455645766" lon="9.336947566641898"><ele>171.0</ele><time>2026-04-28T10:07:40.966Z</time></trkpt><trkpt lat="39.53763036835764" lon="9.337091124223832"><ele>171.0</ele><time>2026-04-28T10:07:41.965Z</time></trkpt><trkpt lat="39.53781379443478" lon="9.337248471019432"><ele>179.33333333333331</ele><time>2026-04-28T10:07:42.965Z</time></trkpt><trkpt lat="39.53796467086995" lon="9.337443262878738"><ele>187.66666666666666</ele><time>2026-04-28T10:07:43.965Z</time></trkpt><trkpt lat="39.53808917492399" lon="9.337674711682057"><ele>196.0</ele><time>2026-04-28T10:07:44.966Z</time></trkpt><trkpt lat="39.53819311605233" lon="9.337937593932015"><ele>187.5</ele><time>2026-04-28T10:07:45.966Z</time></trkpt><trkpt lat="39.53828767528485" lon="9.33820802687032"><ele>179.0</ele><time>2026-04-28T10:07:46.966Z</time></trkpt><trkpt lat="39.538356599266656" lon="9.338506051854047"><ele>179.0</ele><time>2026-04-28T10:07:47.965Z</time></trkpt><trkpt lat="39.53841522404684" lon="9.338792920852875"><ele>179.0</ele><time>2026-04-28T10:07:48.965Z</time></trkpt><trkpt lat="39.53846618834578" lon="9.339089835832022"><ele>174.66666666666666</ele><time>2026-04-28T10:07:49.965Z</time></trkpt><trkpt lat="39.53851465571013" lon="9.339362975237238"><ele>170.33333333333334</ele><time>2026-04-28T10:07:50.965Z</time></trkpt><trkpt lat="39.5385690329348" lon="9.339615085096499"><ele>166.0</ele><time>2026-04-28T10:07:51.965Z</time></trkpt><trkpt lat="39.53865052964809" lon="9.339859766994802"><ele>176.5</ele><time>2026-04-28T10:07:52.965Z</time></trkpt><trkpt lat="39.53875556817391" lon="9.340111236123951"><ele>187.0</ele><time>2026-04-28T10:07:53.965Z</time></trkpt><trkpt lat="39.538869789070176" lon="9.340370509012937"><ele>176.5</ele><time>2026-04-28T10:07:54.965Z</time></trkpt><trkpt lat="39.53899814626196" lon="9.340614115710537"><ele>166.0</ele><time>2026-04-28T10:07:55.965Z</time></trkpt><trkpt lat="39.53914099697138" lon="9.34084230337347"><ele>166.0</ele><time>2026-04-28T10:07:56.965Z</time></trkpt><trkpt lat="39.53930172514344" lon="9.34105449820746"><ele>166.0</ele><time>2026-04-28T10:07:57.965Z</time></trkpt><trkpt lat="39.539489335841644" lon="9.341248448676831"><ele>167.0</ele><time>2026-04-28T10:07:58.965Z</time></trkpt><trkpt lat="39.539686023917334" lon="9.341431049572433"><ele>168.0</ele><time>2026-04-28T10:07:59.965Z</time></trkpt><trkpt lat="39.53987100407153" lon="9.341604501889174"><ele>168.0</ele><time>2026-04-28T10:08:00.965Z</time></trkpt><trkpt lat="39.540050827373086" lon="9.34176779035464"><ele>168.0</ele><time>2026-04-28T10:08:01.965Z</time></trkpt><trkpt lat="39.54021360972164" lon="9.341930489853766"><ele>168.0</ele><time>2026-04-28T10:08:02.965Z</time></trkpt><trkpt lat="39.54033391707418" lon="9.342130707493837"><ele>164.66666666666666</ele><time>2026-04-28T10:08:03.965Z</time></trkpt><trkpt lat="39.54041161533928" lon="9.342385867236711"><ele>161.33333333333331</ele><time>2026-04-28T10:08:04.965Z</time></trkpt><trkpt lat="39.5404402512561" lon="9.342649961291807"><ele>158.0</ele><time>2026-04-28T10:08:05.965Z</time></trkpt><trkpt lat="39.54043834845658" lon="9.342894148602856"><ele>155.33333333333331</ele><time>2026-04-28T10:08:06.965Z</time></trkpt><trkpt lat="39.540494318095625" lon="9.343103955899576"><ele>152.66666666666666</ele><time>2026-04-28T10:08:07.965Z</time></trkpt><trkpt lat="39.540599250375756" lon="9.343267162899231"><ele>150.0</ele><time>2026-04-28T10:08:08.965Z</time></trkpt><trkpt lat="39.540695712689335" lon="9.343380527735315"><ele>150.0</ele><time>2026-04-28T10:08:09.965Z</time></trkpt><trkpt lat="39.54080077489159" lon="9.343406241501423"><ele>150.0</ele><time>2026-04-28T10:08:10.965Z</time></trkpt><trkpt lat="39.540924532464736" lon="9.34333819851713"><ele>150.0</ele><time>2026-04-28T10:08:11.965Z</time></trkpt><trkpt lat="39.54106046712505" lon="9.343219009776048"><ele>150.0</ele><time>2026-04-28T10:08:12.965Z</time></trkpt><trkpt lat="39.541232218212365" lon="9.343115543395884"><ele>148.66666666666666</ele><time>2026-04-28T10:08:13.965Z</time></trkpt><trkpt lat="39.54142601201629" lon="9.343099487129882"><ele>147.33333333333331</ele><time>2026-04-28T10:08:14.965Z</time></trkpt><trkpt lat="39.54161765359669" lon="9.343137932281163"><ele>146.0</ele><time>2026-04-28T10:08:15.965Z</time></trkpt><trkpt lat="39.541762381042865" lon="9.343189042592192"><ele>146.0</ele><time>2026-04-28T10:08:16.965Z</time></trkpt><trkpt lat="39.54184313278627" lon="9.3433058268222"><ele>146.0</ele><time>2026-04-28T10:08:17.965Z</time></trkpt><trkpt lat="39.54185609714261" lon="9.343461713337371"><ele>146.0</ele><time>2026-04-28T10:08:18.965Z</time></trkpt><trkpt lat="39.541812188259584" lon="9.34365359745979"><ele>146.0</ele><time>2026-04-28T10:08:19.965Z</time></trkpt><trkpt lat="39.541770525392145" lon="9.343883364976314"><ele>148.33333333333331</ele><time>2026-04-28T10:08:20.965Z</time></trkpt><trkpt lat="39.54180091772506" lon="9.344117794731062"><ele>150.66666666666666</ele><time>2026-04-28T10:08:21.965Z</time></trkpt><trkpt lat="39.541845949246735" lon="9.34432580845034"><ele>153.0</ele><time>2026-04-28T10:08:22.965Z</time></trkpt><trkpt lat="39.54191406692324" lon="9.34448514194304"><ele>148.0</ele><time>2026-04-28T10:08:23.965Z</time></trkpt><trkpt lat="39.54204989335889" lon="9.34455754127866"><ele>143.0</ele><time>2026-04-28T10:08:24.965Z</time></trkpt><trkpt lat="39.54222269896319" lon="9.344577466779745"><ele>138.0</ele><time>2026-04-28T10:08:25.965Z</time></trkpt><trkpt lat="39.542399741884964" lon="9.34456080050117"><ele>138.0</ele><time>2026-04-28T10:08:26.965Z</time></trkpt><trkpt lat="39.542553739678155" lon="9.344501563948032"><ele>138.0</ele><time>2026-04-28T10:08:27.965Z</time></trkpt><trkpt lat="39.542671655057696" lon="9.344503359710732"><ele>138.0</ele><time>2026-04-28T10:08:28.965Z</time></trkpt><trkpt lat="39.5427549689159" lon="9.344622091878092"><ele>138.0</ele><time>2026-04-28T10:08:29.965Z</time></trkpt><trkpt lat="39.54282369333015" lon="9.344818155505857"><ele>138.66666666666666</ele><time>2026-04-28T10:08:30.965Z</time></trkpt><trkpt lat="39.54291093680128" lon="9.34502988561296"><ele>139.33333333333331</ele><time>2026-04-28T10:08:31.965Z</time></trkpt><trkpt lat="39.54301824844141" lon="9.34523919283226"><ele>140.0</ele><time>2026-04-28T10:08:32.965Z</time></trkpt><trkpt lat="39.5431497605158" lon="9.345456549402318"><ele>140.66666666666666</ele><time>2026-04-28T10:08:33.965Z</time></trkpt><trkpt lat="39.54329077777574" lon="9.345667420371669"><ele>141.33333333333334</ele><time>2026-04-28T10:08:34.965Z</time></trkpt><trkpt lat="39.54344326249218" lon="9.345885632890246"><ele>142.0</ele><time>2026-04-28T10:08:35.965Z</time></trkpt><trkpt lat="39.54359386574596" lon="9.346115261942838"><ele>140.0</ele><time>2026-04-28T10:08:36.965Z</time></trkpt><trkpt lat="39.54374720113856" lon="9.346340975519379"><ele>138.0</ele><time>2026-04-28T10:08:37.965Z</time></trkpt><trkpt lat="39.543896730724406" lon="9.346571925598635"><ele>137.66666666666666</ele><time>2026-04-28T10:08:38.965Z</time></trkpt><trkpt lat="39.54401476711385" lon="9.346813436255339"><ele>137.33333333333331</ele><time>2026-04-28T10:08:39.965Z</time></trkpt><trkpt lat="39.54411954640067" lon="9.347039216247126"><ele>137.0</ele><time>2026-04-28T10:08:40.964Z</time></trkpt><trkpt lat="39.54425512849463" lon="9.34722792654857"><ele>137.0</ele><time>2026-04-28T10:08:41.964Z</time></trkpt><trkpt lat="39.544429861277486" lon="9.34738895542582"><ele>137.0</ele><time>2026-04-28T10:08:42.964Z</time></trkpt><trkpt lat="39.54459936609241" lon="9.347559387372495"><ele>137.0</ele><time>2026-04-28T10:08:43.964Z</time></trkpt><trkpt lat="39.544739115455705" lon="9.347770497737763"><ele>132.66666666666666</ele><time>2026-04-28T10:08:44.964Z</time></trkpt><trkpt lat="39.54485264654403" lon="9.347973367804473"><ele>128.33333333333334</ele><time>2026-04-28T10:08:45.964Z</time></trkpt><trkpt lat="39.54494364120518" lon="9.348147639820436"><ele>124.0</ele><time>2026-04-28T10:08:46.964Z</time></trkpt><trkpt lat="39.54499612180385" lon="9.348341516984455"><ele>123.66666666666667</ele><time>2026-04-28T10:08:47.964Z</time></trkpt><trkpt lat="39.545000723713635" lon="9.34858069081028"><ele>123.33333333333334</ele><time>2026-04-28T10:08:48.964Z</time></trkpt><trkpt lat="39.54503989383634" lon="9.348830317075794"><ele>123.0</ele><time>2026-04-28T10:08:49.964Z</time></trkpt><trkpt lat="39.54512907865081" lon="9.34907469327479"><ele>126.5</ele><time>2026-04-28T10:08:50.964Z</time></trkpt><trkpt lat="39.545229927054386" lon="9.349334244495086"><ele>130.0</ele><time>2026-04-28T10:08:51.964Z</time></trkpt><trkpt lat="39.545302029321185" lon="9.34961853513108"><ele>132.66666666666669</ele><time>2026-04-28T10:08:52.964Z</time></trkpt><trkpt lat="39.54534518721342" lon="9.349901934072792"><ele>135.33333333333334</ele><time>2026-04-28T10:08:53.964Z</time></trkpt><trkpt lat="39.54540460310366" lon="9.350183719684937"><ele>138.0</ele><time>2026-04-28T10:08:54.964Z</time></trkpt><trkpt lat="39.54548922459729" lon="9.350469117282724"><ele>127.0</ele><time>2026-04-28T10:08:55.964Z</time></trkpt><trkpt lat="39.54559612993258" lon="9.350746890532811"><ele>116.0</ele><time>2026-04-28T10:08:56.964Z</time></trkpt><trkpt lat="39.545706157086165" lon="9.351017976462577"><ele>116.0</ele><time>2026-04-28T10:08:57.964Z</time></trkpt><trkpt lat="39.5458228925429" lon="9.351262799328122"><ele>116.0</ele><time>2026-04-28T10:08:58.964Z</time></trkpt><trkpt lat="39.54591724418351" lon="9.35150203854357"><ele>116.0</ele><time>2026-04-28T10:08:59.964Z</time></trkpt><trkpt lat="39.54598108338895" lon="9.35176428172603"><ele>117.0</ele><time>2026-04-28T10:09:00.964Z</time></trkpt><trkpt lat="39.54602460007061" lon="9.35203200686992"><ele>118.0</ele><time>2026-04-28T10:09:01.964Z</time></trkpt><trkpt lat="39.54604059760429" lon="9.352306975350897"><ele>119.0</ele><time>2026-04-28T10:09:02.964Z</time></trkpt><trkpt lat="39.54602719466637" lon="9.352594366342013"><ele>119.66666666666666</ele><time>2026-04-28T10:09:03.964Z</time></trkpt><trkpt lat="39.54600821100734" lon="9.352883178141056"><ele>120.33333333333334</ele><time>2026-04-28T10:09:04.964Z</time></trkpt><trkpt lat="39.54601630174356" lon="9.353170195828117"><ele>121.0</ele><time>2026-04-28T10:09:05.964Z</time></trkpt><trkpt lat="39.54605009235285" lon="9.353463905286313"><ele>119.0</ele><time>2026-04-28T10:09:06.964Z</time></trkpt><trkpt lat="39.54608620801287" lon="9.353757506092583"><ele>117.0</ele><time>2026-04-28T10:09:07.964Z</time></trkpt><trkpt lat="39.54612253899099" lon="9.35404180135704"><ele>116.33333333333334</ele><time>2026-04-28T10:09:08.964Z</time></trkpt><trkpt lat="39.546165454987104" lon="9.354316493328511"><ele>115.66666666666667</ele><time>2026-04-28T10:09:09.964Z</time></trkpt><trkpt lat="39.5462126151374" lon="9.354582433660033"><ele>115.0</ele><time>2026-04-28T10:09:10.964Z</time></trkpt><trkpt lat="39.546249885118975" lon="9.354846393922774"><ele>111.0</ele><time>2026-04-28T10:09:11.964Z</time></trkpt><trkpt lat="39.54626312307678" lon="9.355102863343792"><ele>107.0</ele><time>2026-04-28T10:09:12.964Z</time></trkpt><trkpt lat="39.546264223230395" lon="9.355337017675366"><ele>103.0</ele><time>2026-04-28T10:09:13.964Z</time></trkpt><trkpt lat="39.54626360048764" lon="9.355546037151699"><ele>102.75</ele><time>2026-04-28T10:09:14.964Z</time></trkpt><trkpt lat="39.546265492822165" lon="9.355745344723974"><ele>102.5</ele><time>2026-04-28T10:09:15.964Z</time></trkpt><trkpt lat="39.54626446311031" lon="9.355941885383217"><ele>102.25</ele><time>2026-04-28T10:09:16.964Z</time></trkpt><trkpt lat="39.546270293644675" lon="9.356117409081161"><ele>102.0</ele><time>2026-04-28T10:09:17.964Z</time></trkpt><trkpt lat="39.54629332150878" lon="9.356286565691162"><ele>102.0</ele><time>2026-04-28T10:09:18.964Z</time></trkpt><trkpt lat="39.54632858040991" lon="9.356449539294513"><ele>102.0</ele><time>2026-04-28T10:09:19.964Z</time></trkpt><trkpt lat="39.54637121045302" lon="9.356589696951241"><ele>102.0</ele><time>2026-04-28T10:09:20.964Z</time></trkpt><trkpt lat="39.54640761793246" lon="9.356703578446266"><ele>102.0</ele><time>2026-04-28T10:09:21.964Z</time></trkpt><trkpt lat="39.546445118202136" lon="9.356819652291692"><ele>102.0</ele><time>2026-04-28T10:09:22.964Z</time></trkpt><trkpt lat="39.54647894923783" lon="9.356934979945441"><ele>102.0</ele><time>2026-04-28T10:09:23.964Z</time></trkpt><trkpt lat="39.546513249536" lon="9.357051397785469"><ele>102.0</ele><time>2026-04-28T10:09:24.964Z</time></trkpt><trkpt lat="39.546549245511024" lon="9.35717030171985"><ele>102.0</ele><time>2026-04-28T10:09:25.964Z</time></trkpt><trkpt lat="39.54658283150123" lon="9.357297537951201"><ele>102.0</ele><time>2026-04-28T10:09:26.964Z</time></trkpt><trkpt lat="39.54661904816154" lon="9.357420566474849"><ele>102.0</ele><time>2026-04-28T10:09:27.964Z</time></trkpt><trkpt lat="39.546655297975825" lon="9.357532788312728"><ele>102.0</ele><time>2026-04-28T10:09:28.964Z</time></trkpt><trkpt lat="39.54669293962582" lon="9.357639958171845"><ele>102.0</ele><time>2026-04-28T10:09:29.964Z</time></trkpt><trkpt lat="39.54673379276672" lon="9.357739165832843"><ele>102.0</ele><time>2026-04-28T10:09:30.964Z</time></trkpt><trkpt lat="39.5467780589458" lon="9.357836590434724"><ele>102.0</ele><time>2026-04-28T10:09:31.964Z</time></trkpt><trkpt lat="39.54682504616021" lon="9.35792694366096"><ele>102.0</ele><time>2026-04-28T10:09:32.964Z</time></trkpt><trkpt lat="39.546880335867556" lon="9.358016075152543"><ele>102.0</ele><time>2026-04-28T10:09:33.964Z</time></trkpt><trkpt lat="39.54694207082163" lon="9.358104319944779"><ele>101.6</ele><time>2026-04-28T10:09:34.964Z</time></trkpt><trkpt lat="39.547013254662495" lon="9.358192515884108"><ele>101.19999999999999</ele><time>2026-04-28T10:09:35.964Z</time></trkpt><trkpt lat="39.547088323832355" lon="9.358277222539854"><ele>100.8</ele><time>2026-04-28T10:09:36.964Z</time></trkpt><trkpt lat="39.54717181375847" lon="9.358368334498667"><ele>100.4</ele><time>2026-04-28T10:09:37.964Z</time></trkpt><trkpt lat="39.547256953652834" lon="9.358471403412949"><ele>100.0</ele><time>2026-04-28T10:09:38.964Z</time></trkpt><trkpt lat="39.547342473156604" lon="9.358573530122234"><ele>99.0</ele><time>2026-04-28T10:09:39.964Z</time></trkpt><trkpt lat="39.547432921747166" lon="9.358677824712379"><ele>98.0</ele><time>2026-04-28T10:09:40.964Z</time></trkpt><trkpt lat="39.54752225526311" lon="9.358781693379754"><ele>97.0</ele><time>2026-04-28T10:09:41.965Z</time></trkpt><trkpt lat="39.547610161662725" lon="9.358885938223613"><ele>96.0</ele><time>2026-04-28T10:09:42.965Z</time></trkpt><trkpt lat="39.54769563677889" lon="9.35898520715031"><ele>96.0</ele><time>2026-04-28T10:09:43.965Z</time></trkpt><trkpt lat="39.5477823033095" lon="9.359080742175156"><ele>96.0</ele><time>2026-04-28T10:09:44.965Z</time></trkpt><trkpt lat="39.54785803984644" lon="9.359172929860126"><ele>96.0</ele><time>2026-04-28T10:09:45.965Z</time></trkpt><trkpt lat="39.54792577852621" lon="9.359256180173073"><ele>96.0</ele><time>2026-04-28T10:09:46.965Z</time></trkpt><trkpt lat="39.54798320996896" lon="9.359330212497529"><ele>96.0</ele><time>2026-04-28T10:09:47.965Z</time></trkpt><trkpt lat="39.54806441641584" lon="9.359425492994303"><ele>96.16666666666667</ele><time>2026-04-28T10:09:49.964Z</time></trkpt><trkpt lat="39.54815333956199" lon="9.359528452875978"><ele>96.33333333333334</ele><time>2026-04-28T10:09:51.965Z</time></trkpt><trkpt lat="39.54820864479248" lon="9.359579170876069"><ele>96.5</ele><time>2026-04-28T10:09:52.964Z</time></trkpt><trkpt lat="39.548270735859155" lon="9.359641487728364"><ele>96.66666666666667</ele><time>2026-04-28T10:09:53.965Z</time></trkpt><trkpt lat="39.54833755762829" lon="9.359713365928972"><ele>96.83333333333334</ele><time>2026-04-28T10:09:54.965Z</time></trkpt><trkpt lat="39.54840841507149" lon="9.359794330836156"><ele>97.0</ele><time>2026-04-28T10:09:55.965Z</time></trkpt><trkpt lat="39.54847871650263" lon="9.359869888215872"><ele>97.00000000000001</ele><time>2026-04-28T10:09:56.965Z</time></trkpt><trkpt lat="39.54854666497838" lon="9.3599422196754"><ele>97.0</ele><time>2026-04-28T10:09:57.965Z</time></trkpt><trkpt lat="39.54861105701024" lon="9.360011406087223"><ele>97.0</ele><time>2026-04-28T10:09:58.965Z</time></trkpt><trkpt lat="39.5486730904965" lon="9.36008774741193"><ele>97.0</ele><time>2026-04-28T10:09:59.965Z</time></trkpt><trkpt lat="39.54873885543587" lon="9.360171025514067"><ele>97.00000000000001</ele><time>2026-04-28T10:10:00.965Z</time></trkpt><trkpt lat="39.54880630233277" lon="9.360253840644114"><ele>97.0</ele><time>2026-04-28T10:10:01.965Z</time></trkpt><trkpt lat="39.54887734873404" lon="9.360338088332803"><ele>96.6</ele><time>2026-04-28T10:10:02.965Z</time></trkpt><trkpt lat="39.54894841981172" lon="9.360421848175479"><ele>96.19999999999999</ele><time>2026-04-28T10:10:03.965Z</time></trkpt><trkpt lat="39.54902348103032" lon="9.360511153616445"><ele>95.8</ele><time>2026-04-28T10:10:04.965Z</time></trkpt><trkpt lat="39.549099780800624" lon="9.360606373302547"><ele>95.4</ele><time>2026-04-28T10:10:05.964Z</time></trkpt><trkpt lat="39.54916870131578" lon="9.360704237496012"><ele>95.0</ele><time>2026-04-28T10:10:06.964Z</time></trkpt><trkpt lat="39.54923068883831" lon="9.360808767382144"><ele>95.0</ele><time>2026-04-28T10:10:07.964Z</time></trkpt><trkpt lat="39.549279784943806" lon="9.360916488017256"><ele>95.0</ele><time>2026-04-28T10:10:08.964Z</time></trkpt><trkpt lat="39.54930197696329" lon="9.361040685773682"><ele>95.0</ele><time>2026-04-28T10:10:09.964Z</time></trkpt><trkpt lat="39.54932076353124" lon="9.361165991316954"><ele>95.0</ele><time>2026-04-28T10:10:10.964Z</time></trkpt><trkpt lat="39.54933924592409" lon="9.36129591600482"><ele>95.0</ele><time>2026-04-28T10:10:11.964Z</time></trkpt><trkpt lat="39.54936513750219" lon="9.361424741780505"><ele>95.2</ele><time>2026-04-28T10:10:12.964Z</time></trkpt><trkpt lat="39.54938392139894" lon="9.361556158342584"><ele>95.4</ele><time>2026-04-28T10:10:13.964Z</time></trkpt><trkpt lat="39.54940409697646" lon="9.361682197896284"><ele>95.6</ele><time>2026-04-28T10:10:14.964Z</time></trkpt><trkpt lat="39.54941956246455" lon="9.361810601195335"><ele>95.8</ele><time>2026-04-28T10:10:15.964Z</time></trkpt><trkpt lat="39.54942808910951" lon="9.36193083960064"><ele>96.0</ele><time>2026-04-28T10:10:16.964Z</time></trkpt><trkpt lat="39.54942565893923" lon="9.362043041859039"><ele>96.0</ele><time>2026-04-28T10:10:17.964Z</time></trkpt><trkpt lat="39.54941918266961" lon="9.362145980448641"><ele>96.0</ele><time>2026-04-28T10:10:18.964Z</time></trkpt><trkpt lat="39.549413880325275" lon="9.362232680418273"><ele>96.0</ele><time>2026-04-28T10:10:19.964Z</time></trkpt><trkpt lat="39.549393757059164" lon="9.362322107663228"><ele>96.0</ele><time>2026-04-28T10:10:20.964Z</time></trkpt><trkpt lat="39.54945504016178" lon="9.362439363208088"><ele>96.0</ele><time>2026-04-28T10:10:22.964Z</time></trkpt><trkpt lat="39.549535994452995" lon="9.362423549748176"><ele>96.0</ele><time>2026-04-28T10:10:23.964Z</time></trkpt><trkpt lat="39.54962688609675" lon="9.362385275555228"><ele>95.0</ele><time>2026-04-28T10:10:24.964Z</time></trkpt><trkpt lat="39.549712384850274" lon="9.362335699716693"><ele>94.0</ele><time>2026-04-28T10:10:25.964Z</time></trkpt><trkpt lat="39.54980271435994" lon="9.36229899071745"><ele>93.0</ele><time>2026-04-28T10:10:26.964Z</time></trkpt><trkpt lat="39.54989648531624" lon="9.362258319566381"><ele>92.0</ele><time>2026-04-28T10:10:27.964Z</time></trkpt><trkpt lat="39.54999364112727" lon="9.362217975515998"><ele>91.0</ele><time>2026-04-28T10:10:28.964Z</time></trkpt><trkpt lat="39.550085073543435" lon="9.362165287792694"><ele>90.8</ele><time>2026-04-28T10:10:29.964Z</time></trkpt><trkpt lat="39.55018329717955" lon="9.3621213354895"><ele>90.6</ele><time>2026-04-28T10:10:30.964Z</time></trkpt><trkpt lat="39.550286529351624" lon="9.36207160520027"><ele>90.4</ele><time>2026-04-28T10:10:31.964Z</time></trkpt><trkpt lat="39.55039208682884" lon="9.36201734016884"><ele>90.2</ele><time>2026-04-28T10:10:32.964Z</time></trkpt><trkpt lat="39.55049866411613" lon="9.361957484732143"><ele>90.0</ele><time>2026-04-28T10:10:33.964Z</time></trkpt><trkpt lat="39.55059819880812" lon="9.361873922638864"><ele>89.25</ele><time>2026-04-28T10:10:34.964Z</time></trkpt><trkpt lat="39.55068420104077" lon="9.36176416672931"><ele>88.5</ele><time>2026-04-28T10:10:35.964Z</time></trkpt><trkpt lat="39.55075651733029" lon="9.361645349619465"><ele>87.75</ele><time>2026-04-28T10:10:36.964Z</time></trkpt><trkpt lat="39.550823806811486" lon="9.361529622071904"><ele>87.0</ele><time>2026-04-28T10:10:37.964Z</time></trkpt><trkpt lat="39.55089868336536" lon="9.361411666698313"><ele>87.25</ele><time>2026-04-28T10:10:38.964Z</time></trkpt><trkpt lat="39.55097246637259" lon="9.361293942796104"><ele>87.5</ele><time>2026-04-28T10:10:39.964Z</time></trkpt><trkpt lat="39.55104478178009" lon="9.361179815727272"><ele>87.75</ele><time>2026-04-28T10:10:40.964Z</time></trkpt><trkpt lat="39.55112324984801" lon="9.361063184369206"><ele>88.0</ele><time>2026-04-28T10:10:41.964Z</time></trkpt><trkpt lat="39.55119977199409" lon="9.36094022716966"><ele>87.5</ele><time>2026-04-28T10:10:42.964Z</time></trkpt><trkpt lat="39.55127610700261" lon="9.36081834426245"><ele>87.0</ele><time>2026-04-28T10:10:43.964Z</time></trkpt><trkpt lat="39.55134911426418" lon="9.360686497748848"><ele>86.5</ele><time>2026-04-28T10:10:44.964Z</time></trkpt><trkpt lat="39.551415240116" lon="9.360545811085881"><ele>86.0</ele><time>2026-04-28T10:10:45.964Z</time></trkpt><trkpt lat="39.55147159231392" lon="9.360400770117435"><ele>86.0</ele><time>2026-04-28T10:10:46.964Z</time></trkpt><trkpt lat="39.55152134999781" lon="9.360251507200545"><ele>86.0</ele><time>2026-04-28T10:10:47.964Z</time></trkpt><trkpt lat="39.55156667450678" lon="9.360099298236316"><ele>86.0</ele><time>2026-04-28T10:10:48.964Z</time></trkpt><trkpt lat="39.55161755295623" lon="9.359949390869215"><ele>86.0</ele><time>2026-04-28T10:10:49.964Z</time></trkpt><trkpt lat="39.551669534670104" lon="9.359780378888184"><ele>86.0</ele><time>2026-04-28T10:10:50.964Z</time></trkpt><trkpt lat="39.551724776593126" lon="9.359605013446028"><ele>86.0</ele><time>2026-04-28T10:10:51.964Z</time></trkpt><trkpt lat="39.551782963992224" lon="9.359422038141275"><ele>86.0</ele><time>2026-04-28T10:10:52.964Z</time></trkpt><trkpt lat="39.551841635450685" lon="9.3592338710432"><ele>86.0</ele><time>2026-04-28T10:10:53.964Z</time></trkpt><trkpt lat="39.55190427740076" lon="9.35903398796416"><ele>86.0</ele><time>2026-04-28T10:10:54.964Z</time></trkpt><trkpt lat="39.55197565488148" lon="9.358826517988852"><ele>86.0</ele><time>2026-04-28T10:10:55.964Z</time></trkpt><trkpt lat="39.55204534710623" lon="9.358615232578343"><ele>85.66666666666667</ele><time>2026-04-28T10:10:56.964Z</time></trkpt><trkpt lat="39.55212182597262" lon="9.358393768173089"><ele>85.33333333333333</ele><time>2026-04-28T10:10:57.964Z</time></trkpt><trkpt lat="39.55220022451861" lon="9.358161474906295"><ele>85.0</ele><time>2026-04-28T10:10:58.964Z</time></trkpt><trkpt lat="39.552277529352324" lon="9.357924280904948"><ele>85.0</ele><time>2026-04-28T10:10:59.964Z</time></trkpt><trkpt lat="39.55235668530162" lon="9.357680464609404"><ele>85.0</ele><time>2026-04-28T10:11:00.964Z</time></trkpt><trkpt lat="39.55243987781298" lon="9.357432666996026"><ele>85.0</ele><time>2026-04-28T10:11:01.964Z</time></trkpt><trkpt lat="39.55251299537667" lon="9.35718968355647"><ele>84.66666666666666</ele><time>2026-04-28T10:11:02.964Z</time></trkpt><trkpt lat="39.55257945272268" lon="9.356970481131928"><ele>84.33333333333333</ele><time>2026-04-28T10:11:03.964Z</time></trkpt><trkpt lat="39.55264775234174" lon="9.356771176853332"><ele>84.0</ele><time>2026-04-28T10:11:04.964Z</time></trkpt><trkpt lat="39.5527206414766" lon="9.356565954046054"><ele>84.33333333333333</ele><time>2026-04-28T10:11:05.964Z</time></trkpt><trkpt lat="39.55280041616315" lon="9.356346356923911"><ele>84.66666666666666</ele><time>2026-04-28T10:11:06.964Z</time></trkpt><trkpt lat="39.55288819539673" lon="9.356108882509348"><ele>85.0</ele><time>2026-04-28T10:11:07.964Z</time></trkpt><trkpt lat="39.55299325643013" lon="9.355873898366642"><ele>85.5</ele><time>2026-04-28T10:11:08.964Z</time></trkpt><trkpt lat="39.55310754848432" lon="9.35563647760726"><ele>86.0</ele><time>2026-04-28T10:11:09.964Z</time></trkpt><trkpt lat="39.55322221446442" lon="9.355368267845565"><ele>86.0</ele><time>2026-04-28T10:11:10.964Z</time></trkpt><trkpt lat="39.55332819825027" lon="9.355111789227022"><ele>86.0</ele><time>2026-04-28T10:11:11.964Z</time></trkpt><trkpt lat="39.55343378269999" lon="9.354887313409703"><ele>86.0</ele><time>2026-04-28T10:11:12.963Z</time></trkpt><trkpt lat="39.553530958053834" lon="9.354662863463316"><ele>86.0</ele><time>2026-04-28T10:11:13.963Z</time></trkpt><trkpt lat="39.553582232764604" lon="9.35439647469483"><ele>86.0</ele><time>2026-04-28T10:11:14.963Z</time></trkpt><trkpt lat="39.55362951872517" lon="9.354111533562513"><ele>86.0</ele><time>2026-04-28T10:11:15.963Z</time></trkpt><trkpt lat="39.55366701198903" lon="9.35384554189575"><ele>85.75</ele><time>2026-04-28T10:11:16.963Z</time></trkpt><trkpt lat="39.55371363435999" lon="9.353646420306303"><ele>85.5</ele><time>2026-04-28T10:11:17.963Z</time></trkpt><trkpt lat="39.553789336414624" lon="9.353533340975451"><ele>85.25</ele><time>2026-04-28T10:11:18.963Z</time></trkpt><trkpt lat="39.5538935442959" lon="9.353455321750586"><ele>85.0</ele><time>2026-04-28T10:11:19.963Z</time></trkpt><trkpt lat="39.55400694262084" lon="9.353451371073982"><ele>85.0</ele><time>2026-04-28T10:11:20.963Z</time></trkpt><trkpt lat="39.55412731580573" lon="9.35350577891831"><ele>85.0</ele><time>2026-04-28T10:11:21.963Z</time></trkpt><trkpt lat="39.55426482243543" lon="9.353566800193352"><ele>85.0</ele><time>2026-04-28T10:11:22.963Z</time></trkpt><trkpt lat="39.55441865843879" lon="9.353627452383313"><ele>85.0</ele><time>2026-04-28T10:11:23.963Z</time></trkpt><trkpt lat="39.55459628738292" lon="9.35369386759484"><ele>84.66666666666666</ele><time>2026-04-28T10:11:24.963Z</time></trkpt><trkpt lat="39.5547765614075" lon="9.353767785956427"><ele>84.33333333333333</ele><time>2026-04-28T10:11:25.963Z</time></trkpt><trkpt lat="39.554956769784944" lon="9.35385017288291"><ele>84.0</ele><time>2026-04-28T10:11:26.963Z</time></trkpt><trkpt lat="39.555132690724285" lon="9.35393079346772"><ele>83.66666666666667</ele><time>2026-04-28T10:11:27.963Z</time></trkpt><trkpt lat="39.55529771503145" lon="9.354004126477548"><ele>83.33333333333334</ele><time>2026-04-28T10:11:28.963Z</time></trkpt><trkpt lat="39.555451649082585" lon="9.354056763786035"><ele>83.0</ele><time>2026-04-28T10:11:29.963Z</time></trkpt><trkpt lat="39.55560647234082" lon="9.35406116042928"><ele>83.66666666666667</ele><time>2026-04-28T10:11:30.963Z</time></trkpt><trkpt lat="39.55575498202328" lon="9.354007615702956"><ele>84.33333333333333</ele><time>2026-04-28T10:11:31.963Z</time></trkpt><trkpt lat="39.555894573352965" lon="9.353898322061356"><ele>85.0</ele><time>2026-04-28T10:11:32.963Z</time></trkpt><trkpt lat="39.5560176701371" lon="9.353732518398465"><ele>85.0</ele><time>2026-04-28T10:11:33.963Z</time></trkpt><trkpt lat="39.55612294423685" lon="9.353523507723843"><ele>85.0</ele><time>2026-04-28T10:11:34.963Z</time></trkpt><trkpt lat="39.55622280836354" lon="9.353296101506167"><ele>85.0</ele><time>2026-04-28T10:11:35.963Z</time></trkpt><trkpt lat="39.556336596869585" lon="9.353075648449424"><ele>86.0</ele><time>2026-04-28T10:11:36.963Z</time></trkpt><trkpt lat="39.55647034267613" lon="9.352876355234926"><ele>87.0</ele><time>2026-04-28T10:11:37.963Z</time></trkpt><trkpt lat="39.55662231066254" lon="9.352722725980401"><ele>88.0</ele><time>2026-04-28T10:11:38.963Z</time></trkpt><trkpt lat="39.55680241828181" lon="9.352591177545335"><ele>88.0</ele><time>2026-04-28T10:11:39.963Z</time></trkpt><trkpt lat="39.5570000757398" lon="9.352469904124415"><ele>88.0</ele><time>2026-04-28T10:11:40.963Z</time></trkpt><trkpt lat="39.557205977967364" lon="9.352345175280007"><ele>88.0</ele><time>2026-04-28T10:11:41.963Z</time></trkpt><trkpt lat="39.5574171448695" lon="9.35221010866387"><ele>88.0</ele><time>2026-04-28T10:11:42.963Z</time></trkpt><trkpt lat="39.557633928843586" lon="9.35206736538933"><ele>88.0</ele><time>2026-04-28T10:11:43.963Z</time></trkpt><trkpt lat="39.557854304880536" lon="9.351919365666852"><ele>88.5</ele><time>2026-04-28T10:11:44.963Z</time></trkpt><trkpt lat="39.55808069368328" lon="9.351767537776999"><ele>89.0</ele><time>2026-04-28T10:11:45.963Z</time></trkpt><trkpt lat="39.558309715961634" lon="9.35161866568702"><ele>89.0</ele><time>2026-04-28T10:11:46.964Z</time></trkpt><trkpt lat="39.558539265716036" lon="9.351470608059255"><ele>89.0</ele><time>2026-04-28T10:11:47.964Z</time></trkpt><trkpt lat="39.5587713403229" lon="9.351327546942949"><ele>89.5</ele><time>2026-04-28T10:11:48.964Z</time></trkpt><trkpt lat="39.55900022779468" lon="9.351177899856685"><ele>90.0</ele><time>2026-04-28T10:11:49.964Z</time></trkpt><trkpt lat="39.55922813362987" lon="9.351023801859167"><ele>90.0</ele><time>2026-04-28T10:11:50.964Z</time></trkpt><trkpt lat="39.559454845922325" lon="9.350869277961005"><ele>90.0</ele><time>2026-04-28T10:11:51.964Z</time></trkpt><trkpt lat="39.559680490092184" lon="9.350717541287919"><ele>89.5</ele><time>2026-04-28T10:11:52.964Z</time></trkpt><trkpt lat="39.55990680983502" lon="9.35056789125164"><ele>89.0</ele><time>2026-04-28T10:11:53.963Z</time></trkpt><trkpt lat="39.56013570508694" lon="9.35041776421125"><ele>89.0</ele><time>2026-04-28T10:11:54.963Z</time></trkpt><trkpt lat="39.56036720224927" lon="9.35026238944985"><ele>89.0</ele><time>2026-04-28T10:11:55.964Z</time></trkpt><trkpt lat="39.560597080622365" lon="9.350110049475308"><ele>89.0</ele><time>2026-04-28T10:11:56.964Z</time></trkpt><trkpt lat="39.56081591254493" lon="9.34998006097022"><ele>89.0</ele><time>2026-04-28T10:11:57.964Z</time></trkpt><trkpt lat="39.561036897359784" lon="9.349896164520956"><ele>89.0</ele><time>2026-04-28T10:11:58.963Z</time></trkpt><trkpt lat="39.56127341067034" lon="9.349863419566995"><ele>89.0</ele><time>2026-04-28T10:11:59.964Z</time></trkpt><trkpt lat="39.561515739095164" lon="9.349872302099088"><ele>89.0</ele><time>2026-04-28T10:12:00.964Z</time></trkpt><trkpt lat="39.56176803653771" lon="9.349892617380641"><ele>89.0</ele><time>2026-04-28T10:12:01.964Z</time></trkpt><trkpt lat="39.562025199583296" lon="9.34990328277711"><ele>91.0</ele><time>2026-04-28T10:12:02.964Z</time></trkpt><trkpt lat="39.56228669110107" lon="9.349907553586299"><ele>93.0</ele><time>2026-04-28T10:12:03.964Z</time></trkpt><trkpt lat="39.562553626781536" lon="9.349915635020224"><ele>93.0</ele><time>2026-04-28T10:12:04.964Z</time></trkpt><trkpt lat="39.56281826061848" lon="9.349927137285794"><ele>93.0</ele><time>2026-04-28T10:12:05.964Z</time></trkpt><trkpt lat="39.563085515474356" lon="9.349936323898415"><ele>94.0</ele><time>2026-04-28T10:12:06.964Z</time></trkpt><trkpt lat="39.563351075351484" lon="9.349948600698223"><ele>95.0</ele><time>2026-04-28T10:12:07.964Z</time></trkpt><trkpt lat="39.56361583403857" lon="9.3499598398659"><ele>96.0</ele><time>2026-04-28T10:12:08.964Z</time></trkpt><trkpt lat="39.56387872079089" lon="9.34996846222742"><ele>97.0</ele><time>2026-04-28T10:12:09.964Z</time></trkpt><trkpt lat="39.56414130029028" lon="9.349975929611174"><ele>97.0</ele><time>2026-04-28T10:12:10.964Z</time></trkpt><trkpt lat="39.56440040619299" lon="9.349982450933336"><ele>97.0</ele><time>2026-04-28T10:12:11.964Z</time></trkpt><trkpt lat="39.56465946586833" lon="9.349992255078515"><ele>98.0</ele><time>2026-04-28T10:12:12.964Z</time></trkpt><trkpt lat="39.56491963142071" lon="9.34999984561468"><ele>99.0</ele><time>2026-04-28T10:12:13.964Z</time></trkpt><trkpt lat="39.56517971140537" lon="9.350011381112038"><ele>101.0</ele><time>2026-04-28T10:12:14.964Z</time></trkpt><trkpt lat="39.56544349325972" lon="9.350020516989316"><ele>103.0</ele><time>2026-04-28T10:12:15.963Z</time></trkpt><trkpt lat="39.56570999956509" lon="9.350031721325946"><ele>103.0</ele><time>2026-04-28T10:12:16.963Z</time></trkpt><trkpt lat="39.56597305142713" lon="9.350039614847553"><ele>103.0</ele><time>2026-04-28T10:12:17.963Z</time></trkpt><trkpt lat="39.566232162334224" lon="9.350024661522916"><ele>104.5</ele><time>2026-04-28T10:12:18.963Z</time></trkpt><trkpt lat="39.56648485728776" lon="9.349960796950008"><ele>106.0</ele><time>2026-04-28T10:12:19.963Z</time></trkpt><trkpt lat="39.56673173275974" lon="9.349852208071601"><ele>106.0</ele><time>2026-04-28T10:12:20.963Z</time></trkpt><trkpt lat="39.56697460468567" lon="9.349727507130579"><ele>106.0</ele><time>2026-04-28T10:12:21.963Z</time></trkpt><trkpt lat="39.56721853326623" lon="9.349617786453498"><ele>107.5</ele><time>2026-04-28T10:12:22.963Z</time></trkpt><trkpt lat="39.56746579072442" lon="9.34951456799595"><ele>109.0</ele><time>2026-04-28T10:12:23.963Z</time></trkpt><trkpt lat="39.56771122467294" lon="9.349396511286145"><ele>114.0</ele><time>2026-04-28T10:12:24.963Z</time></trkpt><trkpt lat="39.56794253847744" lon="9.349260765856013"><ele>119.0</ele><time>2026-04-28T10:12:25.963Z</time></trkpt><trkpt lat="39.56816882213531" lon="9.34911087305116"><ele>119.0</ele><time>2026-04-28T10:12:26.963Z</time></trkpt><trkpt lat="39.56838434836861" lon="9.348980446275263"><ele>119.0</ele><time>2026-04-28T10:12:27.963Z</time></trkpt><trkpt lat="39.568595470854376" lon="9.348881988895274"><ele>121.0</ele><time>2026-04-28T10:12:28.963Z</time></trkpt><trkpt lat="39.568821627308395" lon="9.348814185584905"><ele>123.0</ele><time>2026-04-28T10:12:29.963Z</time></trkpt><trkpt lat="39.56905394702127" lon="9.348786196992366"><ele>123.0</ele><time>2026-04-28T10:12:30.963Z</time></trkpt><trkpt lat="39.56928502889908" lon="9.348784143981964"><ele>123.0</ele><time>2026-04-28T10:12:31.963Z</time></trkpt><trkpt lat="39.56952267731851" lon="9.34879424439375"><ele>125.0</ele><time>2026-04-28T10:12:32.963Z</time></trkpt><trkpt lat="39.5697624913839" lon="9.348825004594104"><ele>127.0</ele><time>2026-04-28T10:12:33.963Z</time></trkpt><trkpt lat="39.57000234293574" lon="9.348877081361685"><ele>129.5</ele><time>2026-04-28T10:12:34.963Z</time></trkpt><trkpt lat="39.57024381909847" lon="9.348942445481972"><ele>132.0</ele><time>2026-04-28T10:12:35.963Z</time></trkpt><trkpt lat="39.57048746805497" lon="9.349017950199164"><ele>132.0</ele><time>2026-04-28T10:12:36.963Z</time></trkpt><trkpt lat="39.57073503032356" lon="9.349087108036215"><ele>132.0</ele><time>2026-04-28T10:12:37.963Z</time></trkpt><trkpt lat="39.570982747783574" lon="9.349158385293265"><ele>133.5</ele><time>2026-04-28T10:12:38.963Z</time></trkpt><trkpt lat="39.57122753169014" lon="9.349235806389668"><ele>135.0</ele><time>2026-04-28T10:12:39.963Z</time></trkpt><trkpt lat="39.571470689462096" lon="9.349320132708684"><ele>135.0</ele><time>2026-04-28T10:12:40.963Z</time></trkpt><trkpt lat="39.571709662740396" lon="9.3494133369953"><ele>135.0</ele><time>2026-04-28T10:12:41.963Z</time></trkpt><trkpt lat="39.57194516596841" lon="9.349509224859242"><ele>139.5</ele><time>2026-04-28T10:12:42.963Z</time></trkpt><trkpt lat="39.57217533519642" lon="9.34960967581788"><ele>144.0</ele><time>2026-04-28T10:12:43.963Z</time></trkpt><trkpt lat="39.57240028358817" lon="9.349722047697343"><ele>146.0</ele><time>2026-04-28T10:12:44.963Z</time></trkpt><trkpt lat="39.57260790128872" lon="9.349869127741957"><ele>148.0</ele><time>2026-04-28T10:12:45.963Z</time></trkpt><trkpt lat="39.57280122883622" lon="9.350049184335566"><ele>148.5</ele><time>2026-04-28T10:12:46.963Z</time></trkpt><trkpt lat="39.57298484354515" lon="9.35025120912382"><ele>149.0</ele><time>2026-04-28T10:12:47.963Z</time></trkpt><trkpt lat="39.57311710113198" lon="9.350474394264065"><ele>150.66666666666666</ele><time>2026-04-28T10:12:48.963Z</time></trkpt><trkpt lat="39.57320860338977" lon="9.350732049502964"><ele>152.33333333333334</ele><time>2026-04-28T10:12:49.963Z</time></trkpt><trkpt lat="39.57327195894336" lon="9.351008530359913"><ele>154.0</ele><time>2026-04-28T10:12:50.963Z</time></trkpt><trkpt lat="39.57333682739544" lon="9.351299329136134"><ele>158.0</ele><time>2026-04-28T10:12:51.963Z</time></trkpt><trkpt lat="39.57342189470798" lon="9.351580026165667"><ele>162.0</ele><time>2026-04-28T10:12:52.963Z</time></trkpt><trkpt lat="39.57355713697481" lon="9.351836952883277"><ele>161.5</ele><time>2026-04-28T10:12:53.963Z</time></trkpt><trkpt lat="39.573727939821204" lon="9.352079547931067"><ele>161.0</ele><time>2026-04-28T10:12:54.963Z</time></trkpt><trkpt lat="39.573914300553604" lon="9.352306620699954"><ele>163.0</ele><time>2026-04-28T10:12:55.963Z</time></trkpt><trkpt lat="39.57409726003556" lon="9.352555222624291"><ele>165.0</ele><time>2026-04-28T10:12:56.963Z</time></trkpt><trkpt lat="39.57424614233927" lon="9.352810273049121"><ele>165.5</ele><time>2026-04-28T10:12:57.963Z</time></trkpt><trkpt lat="39.57440566234776" lon="9.35304159979335"><ele>166.0</ele><time>2026-04-28T10:12:58.963Z</time></trkpt><trkpt lat="39.57457773319635" lon="9.353245104552506"><ele>166.0</ele><time>2026-04-28T10:12:59.963Z</time></trkpt><trkpt lat="39.57476587743161" lon="9.353429820073082"><ele>166.0</ele><time>2026-04-28T10:13:00.963Z</time></trkpt><trkpt lat="39.57496927158447" lon="9.353597177187984"><ele>166.0</ele><time>2026-04-28T10:13:01.963Z</time></trkpt><trkpt lat="39.57518689938457" lon="9.353752831460318"><ele>166.0</ele><time>2026-04-28T10:13:02.963Z</time></trkpt><trkpt lat="39.57540970361716" lon="9.35389849045988"><ele>169.5</ele><time>2026-04-28T10:13:03.963Z</time></trkpt><trkpt lat="39.57563471445484" lon="9.354029552270365"><ele>173.0</ele><time>2026-04-28T10:13:04.963Z</time></trkpt><trkpt lat="39.57586042979482" lon="9.35411585623227"><ele>173.0</ele><time>2026-04-28T10:13:05.963Z</time></trkpt><trkpt lat="39.576100003196665" lon="9.354156093733893"><ele>173.0</ele><time>2026-04-28T10:13:06.963Z</time></trkpt><trkpt lat="39.57634503836583" lon="9.354164299023468"><ele>176.5</ele><time>2026-04-28T10:13:07.963Z</time></trkpt><trkpt lat="39.57659411905881" lon="9.354165050163255"><ele>180.0</ele><time>2026-04-28T10:13:08.963Z</time></trkpt><trkpt lat="39.5768426549885" lon="9.354161766110812"><ele>182.5</ele><time>2026-04-28T10:13:09.963Z</time></trkpt><trkpt lat="39.57709747843175" lon="9.354163582751706"><ele>185.0</ele><time>2026-04-28T10:13:10.963Z</time></trkpt><trkpt lat="39.5773591538995" lon="9.35416510722775"><ele>185.0</ele><time>2026-04-28T10:13:11.963Z</time></trkpt><trkpt lat="39.57762559344693" lon="9.354163928578004"><ele>185.0</ele><time>2026-04-28T10:13:12.963Z</time></trkpt><trkpt lat="39.577893673650884" lon="9.354169703176382"><ele>186.5</ele><time>2026-04-28T10:13:13.963Z</time></trkpt><trkpt lat="39.578157321528025" lon="9.354178748328659"><ele>188.0</ele><time>2026-04-28T10:13:14.963Z</time></trkpt><trkpt lat="39.57841450823691" lon="9.354193805600643"><ele>188.0</ele><time>2026-04-28T10:13:15.963Z</time></trkpt><trkpt lat="39.57866381234314" lon="9.354210332841943"><ele>188.0</ele><time>2026-04-28T10:13:16.963Z</time></trkpt><trkpt lat="39.578914306217875" lon="9.354188630539495"><ele>190.0</ele><time>2026-04-28T10:13:17.963Z</time></trkpt><trkpt lat="39.57916630505645" lon="9.354134363303833"><ele>192.0</ele><time>2026-04-28T10:13:18.963Z</time></trkpt><trkpt lat="39.57941083341053" lon="9.354072281477713"><ele>194.0</ele><time>2026-04-28T10:13:19.963Z</time></trkpt><trkpt lat="39.579652435037616" lon="9.354012853131547"><ele>196.0</ele><time>2026-04-28T10:13:20.963Z</time></trkpt><trkpt lat="39.57989022063465" lon="9.353963218905708"><ele>196.0</ele><time>2026-04-28T10:13:21.963Z</time></trkpt><trkpt lat="39.58011555927414" lon="9.353953374834079"><ele>196.0</ele><time>2026-04-28T10:13:22.962Z</time></trkpt><trkpt lat="39.58033395436621" lon="9.35398784651314"><ele>196.0</ele><time>2026-04-28T10:13:23.962Z</time></trkpt><trkpt lat="39.58054124405038" lon="9.354071759887178"><ele>197.66666666666666</ele><time>2026-04-28T10:13:24.962Z</time></trkpt><trkpt lat="39.580710915443284" lon="9.354204470815455"><ele>199.33333333333331</ele><time>2026-04-28T10:13:25.962Z</time></trkpt><trkpt lat="39.58082446626823" lon="9.35437874645529"><ele>201.0</ele><time>2026-04-28T10:13:26.962Z</time></trkpt><trkpt lat="39.58089652424596" lon="9.354592469051509"><ele>202.33333333333331</ele><time>2026-04-28T10:13:27.962Z</time></trkpt><trkpt lat="39.580939856178865" lon="9.354819847393918"><ele>203.66666666666666</ele><time>2026-04-28T10:13:28.962Z</time></trkpt><trkpt lat="39.58096710285458" lon="9.355058336300601"><ele>205.0</ele><time>2026-04-28T10:13:29.962Z</time></trkpt><trkpt lat="39.58100803473492" lon="9.35530169368043"><ele>203.33333333333331</ele><time>2026-04-28T10:13:30.962Z</time></trkpt><trkpt lat="39.581062063450766" lon="9.355555473619374"><ele>201.66666666666669</ele><time>2026-04-28T10:13:31.962Z</time></trkpt><trkpt lat="39.5811032605786" lon="9.355819165773894"><ele>200.0</ele><time>2026-04-28T10:13:32.962Z</time></trkpt><trkpt lat="39.58114526979566" lon="9.356093676492419"><ele>200.0</ele><time>2026-04-28T10:13:33.962Z</time></trkpt><trkpt lat="39.58118138681283" lon="9.356369647282127"><ele>200.0</ele><time>2026-04-28T10:13:34.962Z</time></trkpt><trkpt lat="39.58120674756103" lon="9.356646743475087"><ele>200.0</ele><time>2026-04-28T10:13:35.962Z</time></trkpt><trkpt lat="39.58121402068061" lon="9.356916799068733"><ele>204.33333333333334</ele><time>2026-04-28T10:13:36.962Z</time></trkpt><trkpt lat="39.58119633844501" lon="9.357179079479891"><ele>208.66666666666669</ele><time>2026-04-28T10:13:37.962Z</time></trkpt><trkpt lat="39.5811435136018" lon="9.357435603837068"><ele>213.0</ele><time>2026-04-28T10:13:38.962Z</time></trkpt><trkpt lat="39.58105980040123" lon="9.35766214266709"><ele>213.0</ele><time>2026-04-28T10:13:39.962Z</time></trkpt><trkpt lat="39.58093788272251" lon="9.357856372265816"><ele>213.0</ele><time>2026-04-28T10:13:40.962Z</time></trkpt><trkpt lat="39.5808031549117" lon="9.358037889561844"><ele>213.0</ele><time>2026-04-28T10:13:41.962Z</time></trkpt><trkpt lat="39.580670189347465" lon="9.35823837494169"><ele>217.0</ele><time>2026-04-28T10:13:42.962Z</time></trkpt><trkpt lat="39.580552833156105" lon="9.358472597083427"><ele>221.0</ele><time>2026-04-28T10:13:43.962Z</time></trkpt><trkpt lat="39.5804690853275" lon="9.358731974685254"><ele>225.0</ele><time>2026-04-28T10:13:44.962Z</time></trkpt><trkpt lat="39.580439638577765" lon="9.358993049251005"><ele>226.0</ele><time>2026-04-28T10:13:45.962Z</time></trkpt><trkpt lat="39.58047116955782" lon="9.35924526230783"><ele>227.0</ele><time>2026-04-28T10:13:46.962Z</time></trkpt><trkpt lat="39.580578769312794" lon="9.3594900775405"><ele>228.0</ele><time>2026-04-28T10:13:47.962Z</time></trkpt><trkpt lat="39.58068054857013" lon="9.359726978840273"><ele>225.0</ele><time>2026-04-28T10:13:48.962Z</time></trkpt><trkpt lat="39.58078119398106" lon="9.359955696743048"><ele>222.0</ele><time>2026-04-28T10:13:49.962Z</time></trkpt><trkpt lat="39.58090296167125" lon="9.360116168649512"><ele>219.0</ele><time>2026-04-28T10:13:50.962Z</time></trkpt><trkpt lat="39.58106815005936" lon="9.360208124629509"><ele>225.0</ele><time>2026-04-28T10:13:51.962Z</time></trkpt><trkpt lat="39.581261074744575" lon="9.360267941935158"><ele>231.0</ele><time>2026-04-28T10:13:52.963Z</time></trkpt><trkpt lat="39.58145733217662" lon="9.360326293129452"><ele>237.0</ele><time>2026-04-28T10:13:53.962Z</time></trkpt><trkpt lat="39.58166257408141" lon="9.36034214637951"><ele>237.0</ele><time>2026-04-28T10:13:54.962Z</time></trkpt><trkpt lat="39.581861998501765" lon="9.360303431987926"><ele>237.0</ele><time>2026-04-28T10:13:55.963Z</time></trkpt><trkpt lat="39.582044384713384" lon="9.360206114539443"><ele>237.0</ele><time>2026-04-28T10:13:56.963Z</time></trkpt><trkpt lat="39.58219695694283" lon="9.360045364227465"><ele>242.66666666666669</ele><time>2026-04-28T10:13:57.963Z</time></trkpt><trkpt lat="39.58232546904536" lon="9.359833027650607"><ele>248.33333333333334</ele><time>2026-04-28T10:13:58.963Z</time></trkpt><trkpt lat="39.58244761238961" lon="9.35960745224857"><ele>254.0</ele><time>2026-04-28T10:13:59.962Z</time></trkpt><trkpt lat="39.582594321300725" lon="9.359395981746665"><ele>254.0</ele><time>2026-04-28T10:14:00.962Z</time></trkpt><trkpt lat="39.582766623528016" lon="9.35917970256469"><ele>254.0</ele><time>2026-04-28T10:14:01.963Z</time></trkpt><trkpt lat="39.58294992347935" lon="9.358999732279731"><ele>253.0</ele><time>2026-04-28T10:14:02.963Z</time></trkpt><trkpt lat="39.583126732176076" lon="9.358801502726541"><ele>252.0</ele><time>2026-04-28T10:14:03.963Z</time></trkpt><trkpt lat="39.58330198401295" lon="9.358605252782075"><ele>252.0</ele><time>2026-04-28T10:14:04.963Z</time></trkpt><trkpt lat="39.58347368332564" lon="9.358390453079554"><ele>252.0</ele><time>2026-04-28T10:14:05.962Z</time></trkpt><trkpt lat="39.583620279619865" lon="9.358145529784267"><ele>250.0</ele><time>2026-04-28T10:14:06.962Z</time></trkpt><trkpt lat="39.5837810222794" lon="9.357965270844474"><ele>248.0</ele><time>2026-04-28T10:14:07.962Z</time></trkpt><trkpt lat="39.58393842493055" lon="9.357846450723121"><ele>246.0</ele><time>2026-04-28T10:14:08.962Z</time></trkpt><trkpt lat="39.58412268551692" lon="9.357790300296006"><ele>246.0</ele><time>2026-04-28T10:14:09.962Z</time></trkpt><trkpt lat="39.58433723187603" lon="9.357758443947732"><ele>246.0</ele><time>2026-04-28T10:14:10.962Z</time></trkpt><trkpt lat="39.584555156203095" lon="9.35771100585278"><ele>246.0</ele><time>2026-04-28T10:14:11.962Z</time></trkpt><trkpt lat="39.58478064059878" lon="9.35766429495523"><ele>253.0</ele><time>2026-04-28T10:14:12.962Z</time></trkpt><trkpt lat="39.58501300159832" lon="9.35761193351413"><ele>260.0</ele><time>2026-04-28T10:14:13.962Z</time></trkpt><trkpt lat="39.58524958611366" lon="9.35756066215121"><ele>265.5</ele><time>2026-04-28T10:14:14.962Z</time></trkpt><trkpt lat="39.58548828517995" lon="9.35751141803982"><ele>271.0</ele><time>2026-04-28T10:14:15.962Z</time></trkpt><trkpt lat="39.58572831666756" lon="9.357447541495162"><ele>271.0</ele><time>2026-04-28T10:14:16.962Z</time></trkpt><trkpt lat="39.58596446192608" lon="9.357365683833628"><ele>271.0</ele><time>2026-04-28T10:14:17.962Z</time></trkpt><trkpt lat="39.586200334822664" lon="9.357271591083826"><ele>271.66666666666663</ele><time>2026-04-28T10:14:18.962Z</time></trkpt><trkpt lat="39.58642272801365" lon="9.357169986073247"><ele>272.3333333333333</ele><time>2026-04-28T10:14:19.962Z</time></trkpt><trkpt lat="39.586601108642846" lon="9.357074323074515"><ele>273.0</ele><time>2026-04-28T10:14:20.962Z</time></trkpt><trkpt lat="39.58674258597464" lon="9.3569214079575"><ele>273.0</ele><time>2026-04-28T10:14:21.962Z</time></trkpt><trkpt lat="39.586856170050766" lon="9.356699158577285"><ele>273.0</ele><time>2026-04-28T10:14:22.962Z</time></trkpt><trkpt lat="39.58692190352535" lon="9.356440435444838"><ele>273.0</ele><time>2026-04-28T10:14:23.962Z</time></trkpt><trkpt lat="39.58698437080783" lon="9.356188361662443"><ele>276.3333333333333</ele><time>2026-04-28T10:14:24.962Z</time></trkpt><trkpt lat="39.58707141598223" lon="9.355945953594743"><ele>279.66666666666663</ele><time>2026-04-28T10:14:25.962Z</time></trkpt><trkpt lat="39.587194417943536" lon="9.355801385981678"><ele>283.0</ele><time>2026-04-28T10:14:26.962Z</time></trkpt><trkpt lat="39.587345779090946" lon="9.355764782495337"><ele>283.0</ele><time>2026-04-28T10:14:27.962Z</time></trkpt><trkpt lat="39.5875335779516" lon="9.355794521773738"><ele>283.0</ele><time>2026-04-28T10:14:28.962Z</time></trkpt><trkpt lat="39.58773658056331" lon="9.355833220015729"><ele>283.0</ele><time>2026-04-28T10:14:29.962Z</time></trkpt><trkpt lat="39.58792821227043" lon="9.355831201402474"><ele>282.66666666666663</ele><time>2026-04-28T10:14:30.962Z</time></trkpt><trkpt lat="39.58808489287249" lon="9.355730623755484"><ele>282.3333333333333</ele><time>2026-04-28T10:14:31.962Z</time></trkpt><trkpt lat="39.5882087657208" lon="9.355545458984425"><ele>282.0</ele><time>2026-04-28T10:14:32.962Z</time></trkpt><trkpt lat="39.588335314380906" lon="9.355324310338489"><ele>282.0</ele><time>2026-04-28T10:14:33.962Z</time></trkpt><trkpt lat="39.58847608120907" lon="9.355095306330018"><ele>282.0</ele><time>2026-04-28T10:14:34.962Z</time></trkpt><trkpt lat="39.58861856409361" lon="9.35488233893226"><ele>282.0</ele><time>2026-04-28T10:14:35.962Z</time></trkpt><trkpt lat="39.588762143096076" lon="9.354693223619456"><ele>280.3333333333333</ele><time>2026-04-28T10:14:36.962Z</time></trkpt><trkpt lat="39.5889274557002" lon="9.354578049154036"><ele>278.66666666666663</ele><time>2026-04-28T10:14:37.962Z</time></trkpt><trkpt lat="39.5891203284675" lon="9.354557074919683"><ele>277.0</ele><time>2026-04-28T10:14:38.962Z</time></trkpt><trkpt lat="39.5893311266941" lon="9.354594404543107"><ele>284.0</ele><time>2026-04-28T10:14:39.962Z</time></trkpt><trkpt lat="39.58953282623211" lon="9.354631212008597"><ele>291.0</ele><time>2026-04-28T10:14:40.962Z</time></trkpt><trkpt lat="39.589705695677566" lon="9.35459113190026"><ele>298.0</ele><time>2026-04-28T10:14:41.962Z</time></trkpt><trkpt lat="39.58984266237058" lon="9.354429456677925"><ele>298.0</ele><time>2026-04-28T10:14:42.962Z</time></trkpt><trkpt lat="39.589942733770584" lon="9.354212243033281"><ele>298.0</ele><time>2026-04-28T10:14:43.962Z</time></trkpt><trkpt lat="39.589977692334124" lon="9.353943556072833"><ele>298.0</ele><time>2026-04-28T10:14:44.962Z</time></trkpt><trkpt lat="39.59001217279998" lon="9.35366250486194"><ele>297.0</ele><time>2026-04-28T10:14:45.962Z</time></trkpt><trkpt lat="39.59007152933412" lon="9.353414105241992"><ele>296.0</ele><time>2026-04-28T10:14:46.962Z</time></trkpt><trkpt lat="39.59019478924823" lon="9.353226095686969"><ele>295.0</ele><time>2026-04-28T10:14:47.962Z</time></trkpt><trkpt lat="39.590362489870415" lon="9.353056603314307"><ele>300.0</ele><time>2026-04-28T10:14:48.962Z</time></trkpt><trkpt lat="39.59054769090423" lon="9.352890756013496"><ele>305.0</ele><time>2026-04-28T10:14:49.962Z</time></trkpt><trkpt lat="39.59074025773743" lon="9.352706527919178"><ele>305.0</ele><time>2026-04-28T10:14:50.962Z</time></trkpt><trkpt lat="39.590923658666846" lon="9.352520285085307"><ele>305.0</ele><time>2026-04-28T10:14:51.962Z</time></trkpt><trkpt lat="39.591076441850056" lon="9.352357647547235"><ele>305.0</ele><time>2026-04-28T10:14:52.962Z</time></trkpt><trkpt lat="39.591196041275296" lon="9.352193864250406"><ele>302.33333333333337</ele><time>2026-04-28T10:14:53.962Z</time></trkpt><trkpt lat="39.59127659905908" lon="9.351993747732733"><ele>299.6666666666667</ele><time>2026-04-28T10:14:54.962Z</time></trkpt><trkpt lat="39.59131948530313" lon="9.351766951285613"><ele>297.0</ele><time>2026-04-28T10:14:55.962Z</time></trkpt><trkpt lat="39.591365916926534" lon="9.351561595516124"><ele>297.0</ele><time>2026-04-28T10:14:56.962Z</time></trkpt><trkpt lat="39.591473356924226" lon="9.351408351517533"><ele>297.0</ele><time>2026-04-28T10:14:57.962Z</time></trkpt><trkpt lat="39.59163265858094" lon="9.351322062028622"><ele>297.0</ele><time>2026-04-28T10:14:58.962Z</time></trkpt><trkpt lat="39.591830768012336" lon="9.351313828146173"><ele>294.0</ele><time>2026-04-28T10:14:59.962Z</time></trkpt><trkpt lat="39.592043605231005" lon="9.35134101869544"><ele>291.0</ele><time>2026-04-28T10:15:00.962Z</time></trkpt><trkpt lat="39.59225931756218" lon="9.351368632547175"><ele>288.0</ele><time>2026-04-28T10:15:01.962Z</time></trkpt><trkpt lat="39.59248229246126" lon="9.351382844826778"><ele>288.0</ele><time>2026-04-28T10:15:02.962Z</time></trkpt><trkpt lat="39.59268300084115" lon="9.351376105315097"><ele>288.0</ele><time>2026-04-28T10:15:03.962Z</time></trkpt><trkpt lat="39.592878470098604" lon="9.351352435916773"><ele>288.0</ele><time>2026-04-28T10:15:04.961Z</time></trkpt><trkpt lat="39.59308131800705" lon="9.351277781738597"><ele>295.5</ele><time>2026-04-28T10:15:05.961Z</time></trkpt><trkpt lat="39.59329684630801" lon="9.351177447274594"><ele>303.0</ele><time>2026-04-28T10:15:06.961Z</time></trkpt><trkpt lat="39.59351346730327" lon="9.351074343195428"><ele>297.0</ele><time>2026-04-28T10:15:07.961Z</time></trkpt><trkpt lat="39.593730671178385" lon="9.350983748652265"><ele>291.0</ele><time>2026-04-28T10:15:08.961Z</time></trkpt><trkpt lat="39.59393871981334" lon="9.350881652195442"><ele>291.0</ele><time>2026-04-28T10:15:09.961Z</time></trkpt><trkpt lat="39.594131439708306" lon="9.3507655435857"><ele>291.0</ele><time>2026-04-28T10:15:10.961Z</time></trkpt><trkpt lat="39.59430237043292" lon="9.350643196153854"><ele>291.0</ele><time>2026-04-28T10:15:11.961Z</time></trkpt><trkpt lat="39.594459607417285" lon="9.350544548825946"><ele>291.0</ele><time>2026-04-28T10:15:12.961Z</time></trkpt><trkpt lat="39.594612541318064" lon="9.350481566512697"><ele>291.0</ele><time>2026-04-28T10:15:13.961Z</time></trkpt><trkpt lat="39.59476583214065" lon="9.350526917620709"><ele>291.0</ele><time>2026-04-28T10:15:14.961Z</time></trkpt><trkpt lat="39.59489714385693" lon="9.35063739676993"><ele>291.0</ele><time>2026-04-28T10:15:15.961Z</time></trkpt><trkpt lat="39.595000151964754" lon="9.350819266493218"><ele>291.0</ele><time>2026-04-28T10:15:16.961Z</time></trkpt><trkpt lat="39.595074534091424" lon="9.351043694381412"><ele>291.0</ele><time>2026-04-28T10:15:17.961Z</time></trkpt><trkpt lat="39.595153784016716" lon="9.351286145715942"><ele>290.6666666666667</ele><time>2026-04-28T10:15:18.961Z</time></trkpt><trkpt lat="39.59526163280099" lon="9.351494684581526"><ele>290.33333333333337</ele><time>2026-04-28T10:15:19.961Z</time></trkpt><trkpt lat="39.5954148701829" lon="9.351668973578397"><ele>290.0</ele><time>2026-04-28T10:15:20.961Z</time></trkpt><trkpt lat="39.59557899886351" lon="9.351821910752504"><ele>290.0</ele><time>2026-04-28T10:15:21.961Z</time></trkpt><trkpt lat="39.595764086982705" lon="9.351947381110492"><ele>290.0</ele><time>2026-04-28T10:15:22.961Z</time></trkpt><trkpt lat="39.59596868724578" lon="9.352024393784456"><ele>290.0</ele><time>2026-04-28T10:15:23.961Z</time></trkpt><trkpt lat="39.59619021861153" lon="9.35207247906895"><ele>293.5</ele><time>2026-04-28T10:15:24.961Z</time></trkpt><trkpt lat="39.59642304015994" lon="9.352111878982788"><ele>297.0</ele><time>2026-04-28T10:15:25.961Z</time></trkpt><trkpt lat="39.59665403846818" lon="9.35217413889777"><ele>288.5</ele><time>2026-04-28T10:15:26.961Z</time></trkpt><trkpt lat="39.59689901766273" lon="9.352238773988558"><ele>280.0</ele><time>2026-04-28T10:15:27.961Z</time></trkpt><trkpt lat="39.597152632018705" lon="9.352307128257499"><ele>280.0</ele><time>2026-04-28T10:15:28.961Z</time></trkpt><trkpt lat="39.597409110376034" lon="9.352368253720762"><ele>280.0</ele><time>2026-04-28T10:15:29.961Z</time></trkpt><trkpt lat="39.597653141491506" lon="9.352428829161"><ele>284.5</ele><time>2026-04-28T10:15:30.961Z</time></trkpt><trkpt lat="39.59788447437048" lon="9.35250644630101"><ele>289.0</ele><time>2026-04-28T10:15:31.961Z</time></trkpt><trkpt lat="39.59811515338329" lon="9.352598630224357"><ele>289.0</ele><time>2026-04-28T10:15:32.961Z</time></trkpt><trkpt lat="39.59834690653896" lon="9.352706661822806"><ele>289.0</ele><time>2026-04-28T10:15:33.961Z</time></trkpt><trkpt lat="39.59856595350129" lon="9.352804414243913"><ele>289.3333333333333</ele><time>2026-04-28T10:15:34.961Z</time></trkpt><trkpt lat="39.59877534017088" lon="9.352858468602216"><ele>289.6666666666667</ele><time>2026-04-28T10:15:35.961Z</time></trkpt><trkpt lat="39.59896856407051" lon="9.35289689430802"><ele>290.0</ele><time>2026-04-28T10:15:36.961Z</time></trkpt><trkpt lat="39.599147888161994" lon="9.352926594154592"><ele>290.0</ele><time>2026-04-28T10:15:37.961Z</time></trkpt><trkpt lat="39.599308219756956" lon="9.352973674723609"><ele>290.0</ele><time>2026-04-28T10:15:38.961Z</time></trkpt><trkpt lat="39.59943396386839" lon="9.353067595044125"><ele>290.0</ele><time>2026-04-28T10:15:39.961Z</time></trkpt><trkpt lat="39.59950508853139" lon="9.35322466091065"><ele>289.25</ele><time>2026-04-28T10:15:40.961Z</time></trkpt><trkpt lat="39.59954293080274" lon="9.353394963042069"><ele>288.5</ele><time>2026-04-28T10:15:41.961Z</time></trkpt><trkpt lat="39.59954446684694" lon="9.353552930331837"><ele>287.75</ele><time>2026-04-28T10:15:42.961Z</time></trkpt><trkpt lat="39.5995250832908" lon="9.35371691546265"><ele>287.0</ele><time>2026-04-28T10:15:43.961Z</time></trkpt><trkpt lat="39.59949815897545" lon="9.353925576498842"><ele>279.33333333333337</ele><time>2026-04-28T10:15:44.961Z</time></trkpt><trkpt lat="39.5994405583946" lon="9.354157819946442"><ele>271.6666666666667</ele><time>2026-04-28T10:15:45.961Z</time></trkpt><trkpt lat="39.59935801920027" lon="9.35440517838258"><ele>264.0</ele><time>2026-04-28T10:15:46.961Z</time></trkpt><trkpt lat="39.599256621887285" lon="9.3546477399452"><ele>265.0</ele><time>2026-04-28T10:15:47.961Z</time></trkpt><trkpt lat="39.599161701465064" lon="9.354883191906836"><ele>266.0</ele><time>2026-04-28T10:15:48.961Z</time></trkpt><trkpt lat="39.599109942915625" lon="9.355122644327835"><ele>267.0</ele><time>2026-04-28T10:15:49.961Z</time></trkpt><trkpt lat="39.59911324619114" lon="9.355388205703646"><ele>265.6666666666667</ele><time>2026-04-28T10:15:50.961Z</time></trkpt><trkpt lat="39.59914546237682" lon="9.355661969962734"><ele>264.33333333333337</ele><time>2026-04-28T10:15:51.961Z</time></trkpt><trkpt lat="39.59917269979264" lon="9.35591041100585"><ele>263.0</ele><time>2026-04-28T10:15:52.961Z</time></trkpt><trkpt lat="39.59924156636437" lon="9.356129308748894"><ele>263.0</ele><time>2026-04-28T10:15:53.961Z</time></trkpt><trkpt lat="39.59936200241865" lon="9.356322950486046"><ele>263.0</ele><time>2026-04-28T10:15:54.961Z</time></trkpt><trkpt lat="39.5995178868596" lon="9.35649330735365"><ele>263.0</ele><time>2026-04-28T10:15:55.961Z</time></trkpt><trkpt lat="39.59968249375644" lon="9.35666849518321"><ele>262.6666666666667</ele><time>2026-04-28T10:15:56.961Z</time></trkpt><trkpt lat="39.5998449909311" lon="9.356848514033032"><ele>262.3333333333333</ele><time>2026-04-28T10:15:57.961Z</time></trkpt><trkpt lat="39.60001128664538" lon="9.356996867531203"><ele>262.0</ele><time>2026-04-28T10:15:58.962Z</time></trkpt><trkpt lat="39.60018033645009" lon="9.357094935623216"><ele>259.0</ele><time>2026-04-28T10:15:59.962Z</time></trkpt><trkpt lat="39.600374040942825" lon="9.35711941406706"><ele>256.0</ele><time>2026-04-28T10:16:00.962Z</time></trkpt><trkpt lat="39.60057843123018" lon="9.357082456835021"><ele>253.0</ele><time>2026-04-28T10:16:01.962Z</time></trkpt><trkpt lat="39.600786244394406" lon="9.357000388685062"><ele>253.0</ele><time>2026-04-28T10:16:02.962Z</time></trkpt><trkpt lat="39.60097664392927" lon="9.356868965568859"><ele>253.0</ele><time>2026-04-28T10:16:03.962Z</time></trkpt><trkpt lat="39.60112819319217" lon="9.356688153449088"><ele>253.0</ele><time>2026-04-28T10:16:04.962Z</time></trkpt><trkpt lat="39.60125482299299" lon="9.356454060342815"><ele>245.5</ele><time>2026-04-28T10:16:05.962Z</time></trkpt><trkpt lat="39.60136899721605" lon="9.356199113622251"><ele>238.0</ele><time>2026-04-28T10:16:06.962Z</time></trkpt><trkpt lat="39.60148163531851" lon="9.35594892710484"><ele>238.0</ele><time>2026-04-28T10:16:07.962Z</time></trkpt><trkpt lat="39.6016018309322" lon="9.355705149342977"><ele>238.0</ele><time>2026-04-28T10:16:08.962Z</time></trkpt><trkpt lat="39.60171976141095" lon="9.355461786604002"><ele>238.0</ele><time>2026-04-28T10:16:09.962Z</time></trkpt><trkpt lat="39.60182976395679" lon="9.355201470518876"><ele>241.5</ele><time>2026-04-28T10:16:10.962Z</time></trkpt><trkpt lat="39.601926642747245" lon="9.354928052956039"><ele>245.0</ele><time>2026-04-28T10:16:11.962Z</time></trkpt><trkpt lat="39.60200432971299" lon="9.3546421949286"><ele>233.5</ele><time>2026-04-28T10:16:12.962Z</time></trkpt><trkpt lat="39.60208076661589" lon="9.354352709859494"><ele>222.0</ele><time>2026-04-28T10:16:13.962Z</time></trkpt><trkpt lat="39.60215047530847" lon="9.354053855237332"><ele>223.0</ele><time>2026-04-28T10:16:14.962Z</time></trkpt><trkpt lat="39.602204946591016" lon="9.353748587407695"><ele>224.0</ele><time>2026-04-28T10:16:15.962Z</time></trkpt><trkpt lat="39.60225312958002" lon="9.353441637760454"><ele>224.0</ele><time>2026-04-28T10:16:16.962Z</time></trkpt><trkpt lat="39.60230260010395" lon="9.353153872237861"><ele>224.0</ele><time>2026-04-28T10:16:17.962Z</time></trkpt><trkpt lat="39.60236669721207" lon="9.352903568914424"><ele>224.0</ele><time>2026-04-28T10:16:18.962Z</time></trkpt><trkpt lat="39.60248175295491" lon="9.352692817366133"><ele>224.5</ele><time>2026-04-28T10:16:19.962Z</time></trkpt><trkpt lat="39.60264740056941" lon="9.352516879075047"><ele>225.0</ele><time>2026-04-28T10:16:20.962Z</time></trkpt><trkpt lat="39.602862814801156" lon="9.352381146166532"><ele>219.5</ele><time>2026-04-28T10:16:21.962Z</time></trkpt><trkpt lat="39.60308716339956" lon="9.352279926817804"><ele>214.0</ele><time>2026-04-28T10:16:22.962Z</time></trkpt><trkpt lat="39.60330883942348" lon="9.35218196964446"><ele>213.5</ele><time>2026-04-28T10:16:23.962Z</time></trkpt><trkpt lat="39.60353637049236" lon="9.352076178961223"><ele>213.0</ele><time>2026-04-28T10:16:24.962Z</time></trkpt><trkpt lat="39.60376200785902" lon="9.351966154372217"><ele>211.0</ele><time>2026-04-28T10:16:25.962Z</time></trkpt><trkpt lat="39.603989100237065" lon="9.351853744687492"><ele>209.0</ele><time>2026-04-28T10:16:26.962Z</time></trkpt><trkpt lat="39.60421982989008" lon="9.351743915715218"><ele>209.0</ele><time>2026-04-28T10:16:27.962Z</time></trkpt><trkpt lat="39.60445638862096" lon="9.351637258070246"><ele>209.0</ele><time>2026-04-28T10:16:28.962Z</time></trkpt><trkpt lat="39.60469262092535" lon="9.351528034765908"><ele>208.0</ele><time>2026-04-28T10:16:29.962Z</time></trkpt><trkpt lat="39.60493145908326" lon="9.351409781519552"><ele>207.0</ele><time>2026-04-28T10:16:30.962Z</time></trkpt><trkpt lat="39.60517043449007" lon="9.35129134984011"><ele>204.5</ele><time>2026-04-28T10:16:31.962Z</time></trkpt><trkpt lat="39.60540920919064" lon="9.3511747233789"><ele>202.0</ele><time>2026-04-28T10:16:32.962Z</time></trkpt><trkpt lat="39.60564848524849" lon="9.351058663693134"><ele>202.0</ele><time>2026-04-28T10:16:33.962Z</time></trkpt><trkpt lat="39.605889708252796" lon="9.350945976193206"><ele>202.0</ele><time>2026-04-28T10:16:34.962Z</time></trkpt><trkpt lat="39.60613243868466" lon="9.350831167252904"><ele>202.0</ele><time>2026-04-28T10:16:35.962Z</time></trkpt><trkpt lat="39.606372946695316" lon="9.350716623469356"><ele>202.0</ele><time>2026-04-28T10:16:36.962Z</time></trkpt><trkpt lat="39.606614419291375" lon="9.350601934716797"><ele>203.0</ele><time>2026-04-28T10:16:37.962Z</time></trkpt><trkpt lat="39.6068520164373" lon="9.350482693053387"><ele>204.0</ele><time>2026-04-28T10:16:38.962Z</time></trkpt><trkpt lat="39.607092993115835" lon="9.350365190660897"><ele>204.0</ele><time>2026-04-28T10:16:39.962Z</time></trkpt><trkpt lat="39.60733111325146" lon="9.350247232424497"><ele>204.0</ele><time>2026-04-28T10:16:40.962Z</time></trkpt><trkpt lat="39.60756515872873" lon="9.350123135307054"><ele>204.0</ele><time>2026-04-28T10:16:41.962Z</time></trkpt><trkpt lat="39.60778802646798" lon="9.349965636064288"><ele>204.0</ele><time>2026-04-28T10:16:42.962Z</time></trkpt><trkpt lat="39.60800251541393" lon="9.34977977902129"><ele>205.5</ele><time>2026-04-28T10:16:43.961Z</time></trkpt><trkpt lat="39.608217615820784" lon="9.349574790576513"><ele>207.0</ele><time>2026-04-28T10:16:44.961Z</time></trkpt><trkpt lat="39.60843115188932" lon="9.34936906308945"><ele>207.0</ele><time>2026-04-28T10:16:45.961Z</time></trkpt><trkpt lat="39.60863217162916" lon="9.349173952707405"><ele>207.0</ele><time>2026-04-28T10:16:46.961Z</time></trkpt><trkpt lat="39.608835230453394" lon="9.348981914401357"><ele>207.5</ele><time>2026-04-28T10:16:47.961Z</time></trkpt><trkpt lat="39.60903815066132" lon="9.348793412609567"><ele>208.0</ele><time>2026-04-28T10:16:48.961Z</time></trkpt><trkpt lat="39.60923729142996" lon="9.348602097578166"><ele>208.0</ele><time>2026-04-28T10:16:49.961Z</time></trkpt><trkpt lat="39.60941654238125" lon="9.34841428401608"><ele>208.0</ele><time>2026-04-28T10:16:50.961Z</time></trkpt><trkpt lat="39.60956390679044" lon="9.34820363590452"><ele>208.33333333333331</ele><time>2026-04-28T10:16:51.961Z</time></trkpt><trkpt lat="39.60967591838757" lon="9.347964475598507"><ele>208.66666666666669</ele><time>2026-04-28T10:16:52.961Z</time></trkpt><trkpt lat="39.609735900714526" lon="9.347696057289284"><ele>209.0</ele><time>2026-04-28T10:16:53.961Z</time></trkpt><trkpt lat="39.60978242684393" lon="9.34742498109045"><ele>209.0</ele><time>2026-04-28T10:16:54.961Z</time></trkpt><trkpt lat="39.609843587374364" lon="9.347188006432452"><ele>209.0</ele><time>2026-04-28T10:16:55.961Z</time></trkpt><trkpt lat="39.609924935867674" lon="9.346975378998252"><ele>209.0</ele><time>2026-04-28T10:16:56.961Z</time></trkpt><trkpt lat="39.610036364776214" lon="9.34679455233245"><ele>209.0</ele><time>2026-04-28T10:16:57.961Z</time></trkpt><trkpt lat="39.610183156802435" lon="9.346667347582931"><ele>209.0</ele><time>2026-04-28T10:16:58.961Z</time></trkpt><trkpt lat="39.61035690093168" lon="9.346571115409246"><ele>209.0</ele><time>2026-04-28T10:16:59.961Z</time></trkpt><trkpt lat="39.61053140671668" lon="9.346475606221846"><ele>211.0</ele><time>2026-04-28T10:17:00.961Z</time></trkpt><trkpt lat="39.61068968460598" lon="9.34633169639295"><ele>213.0</ele><time>2026-04-28T10:17:01.961Z</time></trkpt><trkpt lat="39.61082263658214" lon="9.346127299593746"><ele>215.0</ele><time>2026-04-28T10:17:02.961Z</time></trkpt><trkpt lat="39.61098259472751" lon="9.345956900182419"><ele>215.0</ele><time>2026-04-28T10:17:03.961Z</time></trkpt><trkpt lat="39.61115634823625" lon="9.345792342334187"><ele>215.0</ele><time>2026-04-28T10:17:04.961Z</time></trkpt><trkpt lat="39.6113293853275" lon="9.34562196785092"><ele>215.0</ele><time>2026-04-28T10:17:05.961Z</time></trkpt><trkpt lat="39.611496217500274" lon="9.345445110489777"><ele>215.66666666666669</ele><time>2026-04-28T10:17:06.961Z</time></trkpt><trkpt lat="39.61165748605511" lon="9.345267118846913"><ele>216.33333333333331</ele><time>2026-04-28T10:17:07.961Z</time></trkpt><trkpt lat="39.61182034212779" lon="9.345131767156566"><ele>217.0</ele><time>2026-04-28T10:17:08.961Z</time></trkpt><trkpt lat="39.61197436498079" lon="9.345006752113294"><ele>217.5</ele><time>2026-04-28T10:17:09.961Z</time></trkpt><trkpt lat="39.61211844889392" lon="9.344878722634245"><ele>218.0</ele><time>2026-04-28T10:17:10.961Z</time></trkpt><trkpt lat="39.61224084055708" lon="9.344773670531064"><ele>218.5</ele><time>2026-04-28T10:17:11.961Z</time></trkpt><trkpt lat="39.61234366697138" lon="9.344702912435974"><ele>219.0</ele><time>2026-04-28T10:17:12.961Z</time></trkpt><trkpt lat="39.612448490309866" lon="9.344678960274665"><ele>219.0</ele><time>2026-04-28T10:17:13.961Z</time></trkpt><trkpt lat="39.612551363390175" lon="9.344674500092305"><ele>218.99999999999997</ele><time>2026-04-28T10:17:14.961Z</time></trkpt><trkpt lat="39.61265505787877" lon="9.34468610771134"><ele>218.99999999999997</ele><time>2026-04-28T10:17:15.961Z</time></trkpt><trkpt lat="39.612753073399034" lon="9.34468536002112"><ele>219.0</ele><time>2026-04-28T10:17:16.961Z</time></trkpt><trkpt lat="39.61285639585877" lon="9.344672741581109"><ele>219.0</ele><time>2026-04-28T10:17:17.961Z</time></trkpt><trkpt lat="39.612958866683755" lon="9.344647883042583"><ele>219.0</ele><time>2026-04-28T10:17:18.961Z</time></trkpt><trkpt lat="39.61306694618916" lon="9.344588161784339"><ele>219.0</ele><time>2026-04-28T10:17:19.961Z</time></trkpt><trkpt lat="39.61317872363249" lon="9.344505480641219"><ele>219.0</ele><time>2026-04-28T10:17:20.961Z</time></trkpt><trkpt lat="39.613293704019696" lon="9.344409660147278"><ele>219.0</ele><time>2026-04-28T10:17:21.961Z</time></trkpt><trkpt lat="39.6134050000528" lon="9.34430211531349"><ele>219.0</ele><time>2026-04-28T10:17:22.961Z</time></trkpt><trkpt lat="39.61352849099633" lon="9.344200389836319"><ele>219.0</ele><time>2026-04-28T10:17:23.961Z</time></trkpt><trkpt lat="39.61366793277329" lon="9.344143458987597"><ele>219.0</ele><time>2026-04-28T10:17:24.961Z</time></trkpt><trkpt lat="39.61382659545188" lon="9.344118827419793"><ele>219.0</ele><time>2026-04-28T10:17:25.961Z</time></trkpt><trkpt lat="39.61399045014672" lon="9.344069800061941"><ele>219.0</ele><time>2026-04-28T10:17:26.961Z</time></trkpt><trkpt lat="39.61415537327784" lon="9.343969393343732"><ele>219.0</ele><time>2026-04-28T10:17:27.961Z</time></trkpt><trkpt lat="39.61432019990968" lon="9.343857018141701"><ele>219.0</ele><time>2026-04-28T10:17:28.961Z</time></trkpt><trkpt lat="39.61447919586457" lon="9.343768290010667"><ele>219.0</ele><time>2026-04-28T10:17:29.961Z</time></trkpt><trkpt lat="39.6146363230995" lon="9.343767497732212"><ele>219.0</ele><time>2026-04-28T10:17:30.961Z</time></trkpt><trkpt lat="39.614779571639126" lon="9.34384748653147"><ele>223.0</ele><time>2026-04-28T10:17:31.961Z</time></trkpt><trkpt lat="39.61492321336886" lon="9.343968538316865"><ele>227.0</ele><time>2026-04-28T10:17:32.961Z</time></trkpt><trkpt lat="39.61507783082908" lon="9.344109857363426"><ele>231.0</ele><time>2026-04-28T10:17:33.961Z</time></trkpt><trkpt lat="39.61523545710487" lon="9.344288939074959"><ele>230.66666666666669</ele><time>2026-04-28T10:17:34.961Z</time></trkpt><trkpt lat="39.61540261695263" lon="9.344470621757633"><ele>230.33333333333334</ele><time>2026-04-28T10:17:35.961Z</time></trkpt><trkpt lat="39.615559612196186" lon="9.344641651815964"><ele>230.0</ele><time>2026-04-28T10:17:36.961Z</time></trkpt><trkpt lat="39.61571932630709" lon="9.344807775862185"><ele>233.66666666666669</ele><time>2026-04-28T10:17:37.961Z</time></trkpt><trkpt lat="39.615895156406744" lon="9.344942579077864"><ele>237.33333333333331</ele><time>2026-04-28T10:17:38.961Z</time></trkpt><trkpt lat="39.616089627699864" lon="9.345023290402478"><ele>241.0</ele><time>2026-04-28T10:17:39.961Z</time></trkpt><trkpt lat="39.61629270148514" lon="9.345064501138204"><ele>241.33333333333331</ele><time>2026-04-28T10:17:40.961Z</time></trkpt><trkpt lat="39.61650584735912" lon="9.345078619679981"><ele>241.66666666666669</ele><time>2026-04-28T10:17:41.961Z</time></trkpt><trkpt lat="39.6167034030237" lon="9.345084603977634"><ele>242.0</ele><time>2026-04-28T10:17:42.961Z</time></trkpt><trkpt lat="39.6168836611203" lon="9.345112351992757"><ele>241.33333333333334</ele><time>2026-04-28T10:17:43.961Z</time></trkpt><trkpt lat="39.6170488188454" lon="9.345187507200437"><ele>240.66666666666669</ele><time>2026-04-28T10:17:44.961Z</time></trkpt><trkpt lat="39.61720397842755" lon="9.34532444661411"><ele>240.0</ele><time>2026-04-28T10:17:45.961Z</time></trkpt><trkpt lat="39.617344932283046" lon="9.34549419296188"><ele>243.66666666666669</ele><time>2026-04-28T10:17:46.961Z</time></trkpt><trkpt lat="39.61748626456522" lon="9.345683102895082"><ele>247.33333333333334</ele><time>2026-04-28T10:17:47.961Z</time></trkpt><trkpt lat="39.61763336343636" lon="9.345858997900796"><ele>251.0</ele><time>2026-04-28T10:17:48.961Z</time></trkpt><trkpt lat="39.61778460481817" lon="9.346011158613692"><ele>251.0</ele><time>2026-04-28T10:17:49.96Z</time></trkpt><trkpt lat="39.61788692292363" lon="9.346193364679143"><ele>251.0</ele><time>2026-04-28T10:17:50.96Z</time></trkpt><trkpt lat="39.6179139825072" lon="9.34643483704749"><ele>251.0</ele><time>2026-04-28T10:17:51.96Z</time></trkpt><trkpt lat="39.61789741475075" lon="9.346671298994268"><ele>251.33333333333334</ele><time>2026-04-28T10:17:52.96Z</time></trkpt><trkpt lat="39.617830952978196" lon="9.34690835661942"><ele>251.66666666666669</ele><time>2026-04-28T10:17:53.96Z</time></trkpt><trkpt lat="39.61775557652394" lon="9.347144030371403"><ele>252.0</ele><time>2026-04-28T10:17:54.96Z</time></trkpt><trkpt lat="39.61768683907117" lon="9.347390397322878"><ele>258.0</ele><time>2026-04-28T10:17:55.96Z</time></trkpt><trkpt lat="39.617622474120374" lon="9.347639689387652"><ele>264.0</ele><time>2026-04-28T10:17:56.96Z</time></trkpt><trkpt lat="39.61755680802005" lon="9.34789586115504"><ele>270.0</ele><time>2026-04-28T10:17:57.96Z</time></trkpt><trkpt lat="39.617491246368196" lon="9.348146419692627"><ele>271.3333333333333</ele><time>2026-04-28T10:17:58.96Z</time></trkpt><trkpt lat="39.617415575787916" lon="9.34840522966658"><ele>272.66666666666663</ele><time>2026-04-28T10:17:59.96Z</time></trkpt><trkpt lat="39.61735227578405" lon="9.348663828620078"><ele>274.0</ele><time>2026-04-28T10:18:00.96Z</time></trkpt><trkpt lat="39.617299840759664" lon="9.34892256767101"><ele>275.3333333333333</ele><time>2026-04-28T10:18:01.96Z</time></trkpt><trkpt lat="39.61727984440566" lon="9.349184491028195"><ele>276.6666666666667</ele><time>2026-04-28T10:18:02.96Z</time></trkpt><trkpt lat="39.61730451269278" lon="9.349446363276096"><ele>278.0</ele><time>2026-04-28T10:18:03.96Z</time></trkpt><trkpt lat="39.61737849741243" lon="9.349698954506593"><ele>280.33333333333337</ele><time>2026-04-28T10:18:04.961Z</time></trkpt><trkpt lat="39.61748586147249" lon="9.349933958776981"><ele>282.6666666666667</ele><time>2026-04-28T10:18:05.962Z</time></trkpt><trkpt lat="39.617614537371544" lon="9.350139483350508"><ele>285.0</ele><time>2026-04-28T10:18:06.962Z</time></trkpt><trkpt lat="39.61778095726571" lon="9.350287829222998"><ele>285.0</ele><time>2026-04-28T10:18:07.961Z</time></trkpt><trkpt lat="39.61797258604848" lon="9.350384248323019"><ele>285.0</ele><time>2026-04-28T10:18:08.961Z</time></trkpt><trkpt lat="39.618175686084996" lon="9.350433410497416"><ele>285.0</ele><time>2026-04-28T10:18:09.961Z</time></trkpt><trkpt lat="39.61838601269957" lon="9.350421233708996"><ele>285.0</ele><time>2026-04-28T10:18:10.962Z</time></trkpt><trkpt lat="39.6185708732563" lon="9.350355871706368"><ele>285.0</ele><time>2026-04-28T10:18:11.961Z</time></trkpt><trkpt lat="39.618742931219245" lon="9.350273009086177"><ele>285.0</ele><time>2026-04-28T10:18:12.961Z</time></trkpt><trkpt lat="39.61888987790431" lon="9.350197239018232"><ele>287.25</ele><time>2026-04-28T10:18:13.961Z</time></trkpt><trkpt lat="39.61902959810157" lon="9.350120249817461"><ele>289.5</ele><time>2026-04-28T10:18:14.962Z</time></trkpt><trkpt lat="39.6191637110343" lon="9.350063175402983"><ele>291.75</ele><time>2026-04-28T10:18:15.962Z</time></trkpt><trkpt lat="39.61929066823062" lon="9.350024813967071"><ele>294.0</ele><time>2026-04-28T10:18:16.961Z</time></trkpt><trkpt lat="39.61941638616359" lon="9.35002175923881"><ele>292.75</ele><time>2026-04-28T10:18:17.961Z</time></trkpt><trkpt lat="39.6195415394898" lon="9.350059372987461"><ele>291.5</ele><time>2026-04-28T10:18:18.961Z</time></trkpt><trkpt lat="39.61966163907161" lon="9.350130770917117"><ele>290.25</ele><time>2026-04-28T10:18:19.961Z</time></trkpt><trkpt lat="39.619783083061854" lon="9.35022586765432"><ele>289.0</ele><time>2026-04-28T10:18:20.961Z</time></trkpt><trkpt lat="39.61990918398715" lon="9.35032081125634"><ele>289.0</ele><time>2026-04-28T10:18:21.96Z</time></trkpt><trkpt lat="39.620041490130696" lon="9.350421582398313"><ele>289.0</ele><time>2026-04-28T10:18:22.96Z</time></trkpt><trkpt lat="39.62017018413289" lon="9.350510409890312"><ele>289.0</ele><time>2026-04-28T10:18:23.96Z</time></trkpt><trkpt lat="39.62030690134858" lon="9.350567432775872"><ele>289.0</ele><time>2026-04-28T10:18:24.96Z</time></trkpt><trkpt lat="39.620443594978696" lon="9.35056517878459"><ele>292.25</ele><time>2026-04-28T10:18:25.96Z</time></trkpt><trkpt lat="39.620577685253025" lon="9.350519939370301"><ele>295.5</ele><time>2026-04-28T10:18:26.96Z</time></trkpt><trkpt lat="39.620707954819885" lon="9.350437452518467"><ele>298.75</ele><time>2026-04-28T10:18:27.96Z</time></trkpt><trkpt lat="39.620821887276136" lon="9.350313650447344"><ele>302.0</ele><time>2026-04-28T10:18:28.96Z</time></trkpt><trkpt lat="39.62090764137325" lon="9.350155498719479"><ele>302.0</ele><time>2026-04-28T10:18:29.96Z</time></trkpt><trkpt lat="39.620941608145635" lon="9.349977150492023"><ele>302.0</ele><time>2026-04-28T10:18:30.96Z</time></trkpt><trkpt lat="39.62097704199253" lon="9.349795880840656"><ele>302.0</ele><time>2026-04-28T10:18:31.96Z</time></trkpt><trkpt lat="39.62104389487504" lon="9.349627071418212"><ele>302.0</ele><time>2026-04-28T10:18:32.96Z</time></trkpt><trkpt lat="39.62113886859327" lon="9.349493565084565"><ele>303.75</ele><time>2026-04-28T10:18:33.96Z</time></trkpt><trkpt lat="39.621255640440864" lon="9.349398340186342"><ele>305.5</ele><time>2026-04-28T10:18:34.96Z</time></trkpt><trkpt lat="39.621389716224265" lon="9.349331576854588"><ele>307.25</ele><time>2026-04-28T10:18:35.96Z</time></trkpt><trkpt lat="39.62152348986876" lon="9.349265320523712"><ele>309.0</ele><time>2026-04-28T10:18:36.96Z</time></trkpt><trkpt lat="39.62165894795181" lon="9.349191435854175"><ele>309.0</ele><time>2026-04-28T10:18:37.96Z</time></trkpt><trkpt lat="39.62178845577751" lon="9.349113455663764"><ele>309.0</ele><time>2026-04-28T10:18:38.96Z</time></trkpt><trkpt lat="39.62188864896832" lon="9.348993619475758"><ele>309.0</ele><time>2026-04-28T10:18:39.96Z</time></trkpt><trkpt lat="39.62195954817132" lon="9.348839854840373"><ele>309.0</ele><time>2026-04-28T10:18:40.96Z</time></trkpt><trkpt lat="39.62199100872742" lon="9.348665955246114"><ele>308.5</ele><time>2026-04-28T10:18:41.96Z</time></trkpt><trkpt lat="39.621983677675495" lon="9.348476935149645"><ele>308.0</ele><time>2026-04-28T10:18:42.96Z</time></trkpt><trkpt lat="39.62195803548541" lon="9.348283495428031"><ele>307.5</ele><time>2026-04-28T10:18:43.96Z</time></trkpt><trkpt lat="39.6219350478775" lon="9.34809099699783"><ele>307.0</ele><time>2026-04-28T10:18:44.96Z</time></trkpt><trkpt lat="39.62189992403443" lon="9.34790937173391"><ele>311.0</ele><time>2026-04-28T10:18:45.96Z</time></trkpt><trkpt lat="39.6218261083779" lon="9.347757044007315"><ele>315.0</ele><time>2026-04-28T10:18:46.96Z</time></trkpt><trkpt lat="39.62171546387039" lon="9.347645007788229"><ele>319.0</ele><time>2026-04-28T10:18:47.96Z</time></trkpt><trkpt lat="39.621599611135146" lon="9.34756179733047"><ele>323.0</ele><time>2026-04-28T10:18:48.96Z</time></trkpt><trkpt lat="39.6214891708464" lon="9.347452065321264"><ele>323.0</ele><time>2026-04-28T10:18:49.96Z</time></trkpt><trkpt lat="39.62138696121418" lon="9.347356781510701"><ele>323.0</ele><time>2026-04-28T10:18:50.96Z</time></trkpt><trkpt lat="39.62129103781893" lon="9.347272597063391"><ele>323.0</ele><time>2026-04-28T10:18:51.96Z</time></trkpt><trkpt lat="39.621218426645704" lon="9.347168686246485"><ele>323.0</ele><time>2026-04-28T10:18:52.96Z</time></trkpt><trkpt lat="39.621154897900965" lon="9.347047304572675"><ele>323.0</ele><time>2026-04-28T10:18:53.96Z</time></trkpt><trkpt lat="39.62110491440742" lon="9.346920020925968"><ele>323.0</ele><time>2026-04-28T10:18:54.96Z</time></trkpt><trkpt lat="39.621091053250645" lon="9.34680292174544"><ele>323.0</ele><time>2026-04-28T10:18:55.96Z</time></trkpt><trkpt lat="39.62112515905818" lon="9.34669586859518"><ele>323.0</ele><time>2026-04-28T10:18:56.96Z</time></trkpt><trkpt lat="39.621190818024616" lon="9.346626119387613"><ele>323.0</ele><time>2026-04-28T10:18:57.96Z</time></trkpt><trkpt lat="39.62127852943203" lon="9.346606347035419"><ele>323.0</ele><time>2026-04-28T10:18:58.96Z</time></trkpt><trkpt lat="39.62136278816818" lon="9.34663529957058"><ele>323.0</ele><time>2026-04-28T10:18:59.96Z</time></trkpt><trkpt lat="39.621437757876784" lon="9.346703105959902"><ele>323.0</ele><time>2026-04-28T10:19:00.96Z</time></trkpt><trkpt lat="39.621501022534375" lon="9.346765526673531"><ele>323.0</ele><time>2026-04-28T10:19:01.96Z</time></trkpt><trkpt lat="39.62155785492341" lon="9.346822277795658"><ele>323.0</ele><time>2026-04-28T10:19:02.96Z</time></trkpt><trkpt lat="39.621621571088944" lon="9.346894054301973"><ele>323.0</ele><time>2026-04-28T10:19:03.96Z</time></trkpt><trkpt lat="39.621682512916514" lon="9.34696344356112"><ele>323.0</ele><time>2026-04-28T10:19:04.96Z</time></trkpt><trkpt lat="39.62174356434464" lon="9.347033516596314"><ele>323.0</ele><time>2026-04-28T10:19:05.96Z</time></trkpt><trkpt lat="39.621806189668995" lon="9.347108033944588"><ele>323.0</ele><time>2026-04-28T10:19:06.96Z</time></trkpt><trkpt lat="39.621874373413476" lon="9.347190502152602"><ele>323.0</ele><time>2026-04-28T10:19:07.96Z</time></trkpt><trkpt lat="39.62194316226847" lon="9.347279388769495"><ele>323.0</ele><time>2026-04-28T10:19:08.96Z</time></trkpt><trkpt lat="39.62201629714626" lon="9.347359006076005"><ele>324.79999999999995</ele><time>2026-04-28T10:19:09.96Z</time></trkpt><trkpt lat="39.622093217781895" lon="9.34744055860673"><ele>326.6</ele><time>2026-04-28T10:19:10.96Z</time></trkpt><trkpt lat="39.622166579529456" lon="9.347527265983123"><ele>328.4</ele><time>2026-04-28T10:19:11.96Z</time></trkpt><trkpt lat="39.62223479615028" lon="9.347614227985302"><ele>330.20000000000005</ele><time>2026-04-28T10:19:12.96Z</time></trkpt><trkpt lat="39.622308254597684" lon="9.347700893557496"><ele>332.0</ele><time>2026-04-28T10:19:13.96Z</time></trkpt><trkpt lat="39.622374482145226" lon="9.347789537241903"><ele>332.0</ele><time>2026-04-28T10:19:14.96Z</time></trkpt><trkpt lat="39.62242984837436" lon="9.347886830745749"><ele>332.0</ele><time>2026-04-28T10:19:15.96Z</time></trkpt><trkpt lat="39.62246727839415" lon="9.347990846298313"><ele>332.0</ele><time>2026-04-28T10:19:16.96Z</time></trkpt><trkpt lat="39.62248897530834" lon="9.348101106014607"><ele>332.0</ele><time>2026-04-28T10:19:17.96Z</time></trkpt><trkpt lat="39.622489751353946" lon="9.348220964474965"><ele>332.0</ele><time>2026-04-28T10:19:18.96Z</time></trkpt><trkpt lat="39.62248254361767" lon="9.34833514406679"><ele>332.0</ele><time>2026-04-28T10:19:19.96Z</time></trkpt><trkpt lat="39.622469573655145" lon="9.348446313644153"><ele>332.0</ele><time>2026-04-28T10:19:20.96Z</time></trkpt><trkpt lat="39.62245828093712" lon="9.348569849122695"><ele>332.0</ele><time>2026-04-28T10:19:21.96Z</time></trkpt><trkpt lat="39.62246146588536" lon="9.348704860736737"><ele>332.0</ele><time>2026-04-28T10:19:22.96Z</time></trkpt><trkpt lat="39.6224969174592" lon="9.348838604776162"><ele>332.0</ele><time>2026-04-28T10:19:23.96Z</time></trkpt><trkpt lat="39.622558228060925" lon="9.3489448116668"><ele>332.0</ele><time>2026-04-28T10:19:24.96Z</time></trkpt><trkpt lat="39.622611655385825" lon="9.349049385224657"><ele>332.0</ele><time>2026-04-28T10:19:25.96Z</time></trkpt><trkpt lat="39.62267304129709" lon="9.349149527097625"><ele>332.0</ele><time>2026-04-28T10:19:26.96Z</time></trkpt><trkpt lat="39.622716598418414" lon="9.349244651202834"><ele>332.0</ele><time>2026-04-28T10:19:27.96Z</time></trkpt><trkpt lat="39.62273420781047" lon="9.349360097801501"><ele>332.0</ele><time>2026-04-28T10:19:28.959Z</time></trkpt><trkpt lat="39.62274489664825" lon="9.34948830799407"><ele>332.0</ele><time>2026-04-28T10:19:29.959Z</time></trkpt><trkpt lat="39.62274953628467" lon="9.349605181011475"><ele>332.0</ele><time>2026-04-28T10:19:30.959Z</time></trkpt><trkpt lat="39.622735421219254" lon="9.349736510877038"><ele>332.0</ele><time>2026-04-28T10:19:31.959Z</time></trkpt><trkpt lat="39.622721628519066" lon="9.349852369218807"><ele>332.0</ele><time>2026-04-28T10:19:32.959Z</time></trkpt><trkpt lat="39.62271936323931" lon="9.349974179326335"><ele>332.0</ele><time>2026-04-28T10:19:33.959Z</time></trkpt><trkpt lat="39.62272651546904" lon="9.350105480437398"><ele>332.33333333333337</ele><time>2026-04-28T10:19:34.959Z</time></trkpt><trkpt lat="39.622727251280544" lon="9.350229301608298"><ele>332.6666666666667</ele><time>2026-04-28T10:19:35.959Z</time></trkpt><trkpt lat="39.62273058647818" lon="9.350349832273746"><ele>333.0</ele><time>2026-04-28T10:19:36.959Z</time></trkpt><trkpt lat="39.62271999279819" lon="9.350462732652732"><ele>333.3333333333333</ele><time>2026-04-28T10:19:37.959Z</time></trkpt><trkpt lat="39.622707944841814" lon="9.350573568530928"><ele>333.66666666666663</ele><time>2026-04-28T10:19:38.959Z</time></trkpt><trkpt lat="39.62268963881366" lon="9.350679413868367"><ele>334.0</ele><time>2026-04-28T10:19:39.959Z</time></trkpt><trkpt lat="39.622711376236204" lon="9.35088714593548"><ele>334.0</ele><time>2026-04-28T10:19:41.959Z</time></trkpt><trkpt lat="39.62276533140354" lon="9.35096892003111"><ele>334.0</ele><time>2026-04-28T10:19:42.959Z</time></trkpt><trkpt lat="39.6228377517928" lon="9.351051159039518"><ele>334.0</ele><time>2026-04-28T10:19:43.959Z</time></trkpt><trkpt lat="39.62291925135364" lon="9.351119675497122"><ele>334.0</ele><time>2026-04-28T10:19:44.959Z</time></trkpt><trkpt lat="39.623001731674165" lon="9.351180563763528"><ele>334.0</ele><time>2026-04-28T10:19:45.959Z</time></trkpt><trkpt lat="39.62308929326119" lon="9.351220343480158"><ele>334.5</ele><time>2026-04-28T10:19:46.959Z</time></trkpt><trkpt lat="39.623188788109495" lon="9.351252564764486"><ele>335.0</ele><time>2026-04-28T10:19:47.959Z</time></trkpt><trkpt lat="39.623274266715086" lon="9.35124606767291"><ele>335.5</ele><time>2026-04-28T10:19:48.959Z</time></trkpt><trkpt lat="39.62335924649584" lon="9.351263056084393"><ele>336.0</ele><time>2026-04-28T10:19:49.959Z</time></trkpt><trkpt lat="39.623444913750625" lon="9.351281316426993"><ele>336.5</ele><time>2026-04-28T10:19:50.959Z</time></trkpt><trkpt lat="39.62352695294252" lon="9.351304803567599"><ele>337.0</ele><time>2026-04-28T10:19:51.959Z</time></trkpt><trkpt lat="39.62360802446268" lon="9.351340150216332"><ele>336.8333333333333</ele><time>2026-04-28T10:19:52.959Z</time></trkpt><trkpt lat="39.62368396863718" lon="9.351374010629323"><ele>336.66666666666663</ele><time>2026-04-28T10:19:53.959Z</time></trkpt><trkpt lat="39.62374996989376" lon="9.351405781823281"><ele>336.5</ele><time>2026-04-28T10:19:54.959Z</time></trkpt><trkpt lat="39.62381391914601" lon="9.351426947806228"><ele>336.3333333333333</ele><time>2026-04-28T10:19:55.959Z</time></trkpt><trkpt lat="39.62392393274114" lon="9.351467495486819"><ele>336.1666666666667</ele><time>2026-04-28T10:19:57.959Z</time></trkpt><trkpt lat="39.62400057675275" lon="9.351536135443075"><ele>336.0</ele><time>2026-04-28T10:19:59.959Z</time></trkpt><trkpt lat="39.6240573256401" lon="9.351631297517724"><ele>336.0</ele><time>2026-04-28T10:20:01.959Z</time></trkpt><trkpt lat="39.62409873824218" lon="9.351699276057627"><ele>336.0</ele><time>2026-04-28T10:20:02.959Z</time></trkpt><trkpt lat="39.624162706639275" lon="9.351813604064198"><ele>336.0</ele><time>2026-04-28T10:20:04.959Z</time></trkpt><trkpt lat="39.62422594224912" lon="9.351890396606734"><ele>336.0</ele><time>2026-04-28T10:20:06.959Z</time></trkpt><trkpt lat="39.62430073203261" lon="9.352034112765647"><ele>336.0</ele><time>2026-04-28T10:20:08.959Z</time></trkpt><trkpt lat="39.62435184770338" lon="9.352128842217413"><ele>335.4</ele><time>2026-04-28T10:20:09.959Z</time></trkpt><trkpt lat="39.62439749697381" lon="9.352226592226941"><ele>334.8</ele><time>2026-04-28T10:20:10.96Z</time></trkpt><trkpt lat="39.62444456408787" lon="9.352325667719171"><ele>334.2</ele><time>2026-04-28T10:20:11.96Z</time></trkpt><trkpt lat="39.62449279450895" lon="9.352426454363101"><ele>333.59999999999997</ele><time>2026-04-28T10:20:12.96Z</time></trkpt><trkpt lat="39.62452842645542" lon="9.352539504547707"><ele>333.0</ele><time>2026-04-28T10:20:13.96Z</time></trkpt><trkpt lat="39.62453022741484" lon="9.35266345014311"><ele>333.0</ele><time>2026-04-28T10:20:14.96Z</time></trkpt><trkpt lat="39.62453872917272" lon="9.35276749799534"><ele>333.0</ele><time>2026-04-28T10:20:15.96Z</time></trkpt><trkpt lat="39.624539863575336" lon="9.352874155695334"><ele>333.0</ele><time>2026-04-28T10:20:16.96Z</time></trkpt><trkpt lat="39.624533917509574" lon="9.352972048334912"><ele>333.0</ele><time>2026-04-28T10:20:17.96Z</time></trkpt><trkpt lat="39.62452599444535" lon="9.35308490034791"><ele>333.0</ele><time>2026-04-28T10:20:18.96Z</time></trkpt><trkpt lat="39.62450560553547" lon="9.353196930077528"><ele>333.0</ele><time>2026-04-28T10:20:19.961Z</time></trkpt><trkpt lat="39.62448371691852" lon="9.35338154245685"><ele>333.2</ele><time>2026-04-28T10:20:21.96Z</time></trkpt><trkpt lat="39.624459550306774" lon="9.35352926190231"><ele>333.4</ele><time>2026-04-28T10:20:23.96Z</time></trkpt><trkpt lat="39.624464645023814" lon="9.35363218578041"><ele>333.59999999999997</ele><time>2026-04-28T10:20:25.96Z</time></trkpt><trkpt lat="39.62449342003693" lon="9.353773019657769"><ele>333.79999999999995</ele><time>2026-04-28T10:20:27.96Z</time></trkpt><trkpt lat="39.62452586601746" lon="9.353922642566074"><ele>334.0</ele><time>2026-04-28T10:20:29.96Z</time></trkpt><trkpt lat="39.624554608497505" lon="9.353995661879843"><ele>335.3333333333333</ele><time>2026-04-28T10:20:30.96Z</time></trkpt><trkpt lat="39.62458907693845" lon="9.354065531380574"><ele>336.66666666666663</ele><time>2026-04-28T10:20:31.96Z</time></trkpt><trkpt lat="39.62463814851794" lon="9.354120571086286"><ele>338.0</ele><time>2026-04-28T10:20:32.96Z</time></trkpt><trkpt lat="39.62472610778791" lon="9.354231690319859"><ele>339.3333333333333</ele><time>2026-04-28T10:20:34.96Z</time></trkpt><trkpt lat="39.62478862228993" lon="9.354286647574307"><ele>340.6666666666667</ele><time>2026-04-28T10:20:35.96Z</time></trkpt><trkpt lat="39.62485519314106" lon="9.35434900520381"><ele>342.0</ele><time>2026-04-28T10:20:36.96Z</time></trkpt><trkpt lat="39.62493277462657" lon="9.354408253079058"><ele>342.0</ele><time>2026-04-28T10:20:37.96Z</time></trkpt><trkpt lat="39.625013297635384" lon="9.354479999108904"><ele>342.0</ele><time>2026-04-28T10:20:38.96Z</time></trkpt><trkpt lat="39.62509499447892" lon="9.354545757362516"><ele>342.0</ele><time>2026-04-28T10:20:39.96Z</time></trkpt><trkpt lat="39.62517468259364" lon="9.354617928090601"><ele>342.0</ele><time>2026-04-28T10:20:40.959Z</time></trkpt><trkpt lat="39.62524955211498" lon="9.354691686706659"><ele>342.0</ele><time>2026-04-28T10:20:41.959Z</time></trkpt><trkpt lat="39.62532517412134" lon="9.354770601461276"><ele>342.40000000000003</ele><time>2026-04-28T10:20:42.959Z</time></trkpt><trkpt lat="39.6253927839169" lon="9.35486044987209"><ele>342.8</ele><time>2026-04-28T10:20:43.959Z</time></trkpt><trkpt lat="39.62546546710328" lon="9.35494430693263"><ele>343.2</ele><time>2026-04-28T10:20:44.959Z</time></trkpt><trkpt lat="39.62553748379449" lon="9.355030203960137"><ele>343.6</ele><time>2026-04-28T10:20:45.959Z</time></trkpt><trkpt lat="39.6256094981303" lon="9.35511442170857"><ele>344.0</ele><time>2026-04-28T10:20:46.959Z</time></trkpt><trkpt lat="39.62567158871815" lon="9.355203424163403"><ele>344.0</ele><time>2026-04-28T10:20:47.959Z</time></trkpt><trkpt lat="39.625730160663586" lon="9.355285380042947"><ele>344.0</ele><time>2026-04-28T10:20:48.959Z</time></trkpt><trkpt lat="39.62578059863223" lon="9.355352328947276"><ele>344.0</ele><time>2026-04-28T10:20:49.959Z</time></trkpt><trkpt lat="39.62587364170528" lon="9.355424791263223"><ele>344.0</ele><time>2026-04-28T10:20:51.959Z</time></trkpt><trkpt lat="39.625979782363984" lon="9.355464267605674"><ele>344.0</ele><time>2026-04-28T10:20:53.959Z</time></trkpt><trkpt lat="39.62606149663129" lon="9.355465102924045"><ele>344.0</ele><time>2026-04-28T10:20:54.959Z</time></trkpt><trkpt lat="39.626136239514445" lon="9.355475353230226"><ele>344.0</ele><time>2026-04-28T10:20:55.959Z</time></trkpt><trkpt lat="39.62620835214504" lon="9.355482286310133"><ele>344.0</ele><time>2026-04-28T10:20:56.959Z</time></trkpt><trkpt lat="39.6263111714641" lon="9.35549026314759"><ele>344.0</ele><time>2026-04-28T10:20:58.959Z</time></trkpt><trkpt lat="39.62639059375579" lon="9.35549247590987"><ele>344.0</ele><time>2026-04-28T10:21:00.959Z</time></trkpt><trkpt lat="39.626483396547556" lon="9.355489431348362"><ele>344.0</ele><time>2026-04-28T10:21:02.959Z</time></trkpt><trkpt lat="39.62655902345965" lon="9.355483682092922"><ele>343.5</ele><time>2026-04-28T10:21:03.959Z</time></trkpt><trkpt lat="39.62663923204268" lon="9.355481771439983"><ele>343.0</ele><time>2026-04-28T10:21:04.959Z</time></trkpt><trkpt lat="39.62672732574665" lon="9.355479400763347"><ele>342.5</ele><time>2026-04-28T10:21:05.959Z</time></trkpt><trkpt lat="39.62681670819545" lon="9.355480204883193"><ele>342.0</ele><time>2026-04-28T10:21:06.959Z</time></trkpt><trkpt lat="39.62691559892958" lon="9.355496182222925"><ele>341.5</ele><time>2026-04-28T10:21:07.959Z</time></trkpt><trkpt lat="39.627005111624534" lon="9.355521960011075"><ele>341.0</ele><time>2026-04-28T10:21:08.959Z</time></trkpt><trkpt lat="39.62709250903985" lon="9.355542330051108"><ele>340.83333333333337</ele><time>2026-04-28T10:21:09.959Z</time></trkpt><trkpt lat="39.62717078799238" lon="9.355562190820027"><ele>340.6666666666667</ele><time>2026-04-28T10:21:10.959Z</time></trkpt><trkpt lat="39.627235158737385" lon="9.355578205054668"><ele>340.5</ele><time>2026-04-28T10:21:11.959Z</time></trkpt><trkpt lat="39.62730608313987" lon="9.355598714693166"><ele>340.3333333333333</ele><time>2026-04-28T10:21:12.959Z</time></trkpt><trkpt lat="39.62741427839778" lon="9.355634590776615"><ele>340.16666666666663</ele><time>2026-04-28T10:21:14.959Z</time></trkpt><trkpt lat="39.62751411547167" lon="9.3556693810107"><ele>340.0</ele><time>2026-04-28T10:21:16.959Z</time></trkpt><trkpt lat="39.627621841968704" lon="9.355698262559761"><ele>340.0</ele><time>2026-04-28T10:21:18.959Z</time></trkpt><trkpt lat="39.62772952077242" lon="9.355718881148965"><ele>340.0</ele><time>2026-04-28T10:21:20.959Z</time></trkpt><trkpt lat="39.62779498800632" lon="9.355737678402734"><ele>340.0</ele><time>2026-04-28T10:21:21.959Z</time></trkpt><trkpt lat="39.62786250035317" lon="9.355758218702347"><ele>340.0</ele><time>2026-04-28T10:21:22.959Z</time></trkpt><trkpt lat="39.62792805321268" lon="9.355776302762251"><ele>340.0</ele><time>2026-04-28T10:21:23.959Z</time></trkpt><trkpt lat="39.627992282167114" lon="9.35579446477463"><ele>340.0</ele><time>2026-04-28T10:21:24.959Z</time></trkpt><trkpt lat="39.62806406567539" lon="9.355807295401885"><ele>340.66666666666663</ele><time>2026-04-28T10:21:25.959Z</time></trkpt><trkpt lat="39.62813641023906" lon="9.355824883699716"><ele>341.3333333333333</ele><time>2026-04-28T10:21:26.959Z</time></trkpt><trkpt lat="39.62820012382771" lon="9.355840124897213"><ele>342.0</ele><time>2026-04-28T10:21:27.959Z</time></trkpt><trkpt lat="39.62831866522587" lon="9.35588597722802"><ele>342.6666666666667</ele><time>2026-04-28T10:21:29.959Z</time></trkpt><trkpt lat="39.62840095167286" lon="9.355896587863912"><ele>343.33333333333337</ele><time>2026-04-28T10:21:30.959Z</time></trkpt><trkpt lat="39.62849866434481" lon="9.355937984432629"><ele>344.0</ele><time>2026-04-28T10:21:31.959Z</time></trkpt><trkpt lat="39.628609346876054" lon="9.355979499130148"><ele>344.4</ele><time>2026-04-28T10:21:32.959Z</time></trkpt><trkpt lat="39.62870587307331" lon="9.356033987624572"><ele>344.79999999999995</ele><time>2026-04-28T10:21:33.959Z</time></trkpt><trkpt lat="39.628807911511174" lon="9.356097889099805"><ele>345.20000000000005</ele><time>2026-04-28T10:21:34.959Z</time></trkpt><trkpt lat="39.62890030254039" lon="9.356151702070735"><ele>345.6</ele><time>2026-04-28T10:21:35.959Z</time></trkpt><trkpt lat="39.62898562279232" lon="9.356216187926304"><ele>346.0</ele><time>2026-04-28T10:21:36.959Z</time></trkpt><trkpt lat="39.62906399086806" lon="9.356283442591652"><ele>346.0</ele><time>2026-04-28T10:21:37.959Z</time></trkpt><trkpt lat="39.62914010308782" lon="9.356335379463353"><ele>346.0</ele><time>2026-04-28T10:21:38.959Z</time></trkpt><trkpt lat="39.62921976779755" lon="9.356392474270926"><ele>346.0</ele><time>2026-04-28T10:21:39.959Z</time></trkpt><trkpt lat="39.629307527309" lon="9.356453711749296"><ele>346.0</ele><time>2026-04-28T10:21:40.959Z</time></trkpt><trkpt lat="39.62939582512402" lon="9.356519212943951"><ele>346.0</ele><time>2026-04-28T10:21:41.959Z</time></trkpt><trkpt lat="39.62948770538365" lon="9.356579854702426"><ele>345.4</ele><time>2026-04-28T10:21:42.959Z</time></trkpt><trkpt lat="39.62956971448812" lon="9.356643750897781"><ele>344.8</ele><time>2026-04-28T10:21:43.959Z</time></trkpt><trkpt lat="39.62964362059663" lon="9.356703299355278"><ele>344.2</ele><time>2026-04-28T10:21:44.959Z</time></trkpt><trkpt lat="39.62972189214014" lon="9.35675645593627"><ele>343.59999999999997</ele><time>2026-04-28T10:21:45.959Z</time></trkpt><trkpt lat="39.62981146875701" lon="9.356808158428565"><ele>343.0</ele><time>2026-04-28T10:21:46.959Z</time></trkpt><trkpt lat="39.62989205260957" lon="9.356866217706255"><ele>343.0</ele><time>2026-04-28T10:21:47.958Z</time></trkpt><trkpt lat="39.62996548931688" lon="9.356934225301089"><ele>343.0</ele><time>2026-04-28T10:21:48.958Z</time></trkpt><trkpt lat="39.63004844232023" lon="9.356992752213127"><ele>343.0</ele><time>2026-04-28T10:21:49.958Z</time></trkpt><trkpt lat="39.63013358504173" lon="9.357059746410151"><ele>343.0</ele><time>2026-04-28T10:21:50.958Z</time></trkpt><trkpt lat="39.63022156443538" lon="9.357126761099673"><ele>343.0</ele><time>2026-04-28T10:21:51.958Z</time></trkpt><trkpt lat="39.63031347613083" lon="9.357204854499996"><ele>344.0</ele><time>2026-04-28T10:21:52.958Z</time></trkpt><trkpt lat="39.630412602001485" lon="9.357280210436084"><ele>345.0</ele><time>2026-04-28T10:21:53.958Z</time></trkpt><trkpt lat="39.63051377320583" lon="9.357355905385718"><ele>346.0</ele><time>2026-04-28T10:21:54.958Z</time></trkpt><trkpt lat="39.63061754173845" lon="9.357436027256536"><ele>347.0</ele><time>2026-04-28T10:21:55.958Z</time></trkpt><trkpt lat="39.6307283109444" lon="9.3575205480295"><ele>347.0</ele><time>2026-04-28T10:21:56.958Z</time></trkpt><trkpt lat="39.6308391024067" lon="9.357603760702313"><ele>347.0</ele><time>2026-04-28T10:21:57.958Z</time></trkpt><trkpt lat="39.63095610046255" lon="9.357690105927555"><ele>347.0</ele><time>2026-04-28T10:21:58.958Z</time></trkpt><trkpt lat="39.63107133409075" lon="9.357773995275425"><ele>347.0</ele><time>2026-04-28T10:21:59.958Z</time></trkpt><trkpt lat="39.631190857124615" lon="9.35786360920053"><ele>349.25</ele><time>2026-04-28T10:22:00.958Z</time></trkpt><trkpt lat="39.631321495342824" lon="9.357947909943034"><ele>351.5</ele><time>2026-04-28T10:22:01.958Z</time></trkpt><trkpt lat="39.631455540125955" lon="9.35801431301535"><ele>353.75</ele><time>2026-04-28T10:22:02.958Z</time></trkpt><trkpt lat="39.63159496564811" lon="9.358050894472383"><ele>356.0</ele><time>2026-04-28T10:22:03.958Z</time></trkpt><trkpt lat="39.63174176278991" lon="9.358059917839633"><ele>356.0</ele><time>2026-04-28T10:22:04.958Z</time></trkpt><trkpt lat="39.63189800546234" lon="9.358042310305622"><ele>356.0</ele><time>2026-04-28T10:22:05.958Z</time></trkpt><trkpt lat="39.63205552860286" lon="9.35800041143603"><ele>356.0</ele><time>2026-04-28T10:22:06.958Z</time></trkpt><trkpt lat="39.632211546944895" lon="9.357930832421877"><ele>358.0</ele><time>2026-04-28T10:22:07.958Z</time></trkpt><trkpt lat="39.632369208075424" lon="9.357854815880247"><ele>360.0</ele><time>2026-04-28T10:22:08.958Z</time></trkpt><trkpt lat="39.63253087970255" lon="9.357773149434783"><ele>362.0</ele><time>2026-04-28T10:22:09.958Z</time></trkpt><trkpt lat="39.632701188700445" lon="9.357695135196543"><ele>361.0</ele><time>2026-04-28T10:22:10.958Z</time></trkpt><trkpt lat="39.63286497679425" lon="9.357616054134045"><ele>360.0</ele><time>2026-04-28T10:22:11.958Z</time></trkpt><trkpt lat="39.633032527040996" lon="9.357540124383263"><ele>359.0</ele><time>2026-04-28T10:22:12.958Z</time></trkpt><trkpt lat="39.63320504369475" lon="9.357460808946694"><ele>359.0</ele><time>2026-04-28T10:22:13.958Z</time></trkpt><trkpt lat="39.633384998321446" lon="9.357373786529955"><ele>359.0</ele><time>2026-04-28T10:22:14.958Z</time></trkpt><trkpt lat="39.63357527357526" lon="9.357290595920395"><ele>359.0</ele><time>2026-04-28T10:22:15.958Z</time></trkpt><trkpt lat="39.633770637338564" lon="9.35720585120323"><ele>358.0</ele><time>2026-04-28T10:22:16.96Z</time></trkpt><trkpt lat="39.633970354287385" lon="9.35711814514545"><ele>357.0</ele><time>2026-04-28T10:22:17.959Z</time></trkpt><trkpt lat="39.634173728357524" lon="9.357018412438414"><ele>356.0</ele><time>2026-04-28T10:22:18.959Z</time></trkpt><trkpt lat="39.6343861763876" lon="9.356927084924022"><ele>357.5</ele><time>2026-04-28T10:22:19.959Z</time></trkpt><trkpt lat="39.63460466847797" lon="9.35682869211263"><ele>359.0</ele><time>2026-04-28T10:22:20.959Z</time></trkpt><trkpt lat="39.63482740414442" lon="9.356736429826288"><ele>359.0</ele><time>2026-04-28T10:22:21.959Z</time></trkpt><trkpt lat="39.63506192374341" lon="9.356644074077078"><ele>359.0</ele><time>2026-04-28T10:22:22.959Z</time></trkpt><trkpt lat="39.635295577925845" lon="9.356543134282674"><ele>360.0</ele><time>2026-04-28T10:22:23.959Z</time></trkpt><trkpt lat="39.63553437152619" lon="9.35643674557137"><ele>361.0</ele><time>2026-04-28T10:22:24.959Z</time></trkpt><trkpt lat="39.63577374039474" lon="9.356327237804972"><ele>361.0</ele><time>2026-04-28T10:22:25.959Z</time></trkpt><trkpt lat="39.636012244419646" lon="9.356218971749781"><ele>361.0</ele><time>2026-04-28T10:22:26.959Z</time></trkpt><trkpt lat="39.63625941471831" lon="9.35611400547018"><ele>359.5</ele><time>2026-04-28T10:22:27.959Z</time></trkpt><trkpt lat="39.63650893657417" lon="9.356008278012927"><ele>358.0</ele><time>2026-04-28T10:22:28.959Z</time></trkpt><trkpt lat="39.63675833109086" lon="9.35589461274683"><ele>357.5</ele><time>2026-04-28T10:22:29.959Z</time></trkpt><trkpt lat="39.63701119264009" lon="9.355780355114906"><ele>357.0</ele><time>2026-04-28T10:22:30.959Z</time></trkpt><trkpt lat="39.63726417866076" lon="9.3556658633522"><ele>357.0</ele><time>2026-04-28T10:22:31.959Z</time></trkpt><trkpt lat="39.63751788016888" lon="9.355550064425888"><ele>357.0</ele><time>2026-04-28T10:22:32.959Z</time></trkpt><trkpt lat="39.63777210103143" lon="9.35543463590447"><ele>358.0</ele><time>2026-04-28T10:22:33.959Z</time></trkpt><trkpt lat="39.638022841144696" lon="9.355322838108497"><ele>359.0</ele><time>2026-04-28T10:22:34.959Z</time></trkpt><trkpt lat="39.638273138514066" lon="9.355211424584747"><ele>359.0</ele><time>2026-04-28T10:22:35.959Z</time></trkpt><trkpt lat="39.63851925966982" lon="9.355101143635833"><ele>359.0</ele><time>2026-04-28T10:22:36.959Z</time></trkpt><trkpt lat="39.63876460499486" lon="9.354989802973336"><ele>359.5</ele><time>2026-04-28T10:22:37.959Z</time></trkpt><trkpt lat="39.63900954229853" lon="9.354883098500713"><ele>360.0</ele><time>2026-04-28T10:22:38.959Z</time></trkpt><trkpt lat="39.639257607926766" lon="9.354770310587924"><ele>359.5</ele><time>2026-04-28T10:22:39.959Z</time></trkpt><trkpt lat="39.639501011198206" lon="9.35465972830672"><ele>359.0</ele><time>2026-04-28T10:22:40.959Z</time></trkpt><trkpt lat="39.6397449796861" lon="9.354547748891235"><ele>359.0</ele><time>2026-04-28T10:22:41.959Z</time></trkpt><trkpt lat="39.639988706819175" lon="9.354436976492213"><ele>359.0</ele><time>2026-04-28T10:22:42.959Z</time></trkpt><trkpt lat="39.64023291241443" lon="9.354325739600277"><ele>360.0</ele><time>2026-04-28T10:22:43.959Z</time></trkpt><trkpt lat="39.64047402262545" lon="9.354214035558"><ele>361.0</ele><time>2026-04-28T10:22:44.959Z</time></trkpt><trkpt lat="39.64070990559309" lon="9.354110740663858"><ele>361.0</ele><time>2026-04-28T10:22:45.959Z</time></trkpt><trkpt lat="39.64092816363728" lon="9.354017901378539"><ele>361.0</ele><time>2026-04-28T10:22:46.959Z</time></trkpt><trkpt lat="39.64112369061665" lon="9.35393507253605"><ele>361.0</ele><time>2026-04-28T10:22:47.959Z</time></trkpt><trkpt lat="39.64131966231443" lon="9.353882439809908"><ele>362.66666666666663</ele><time>2026-04-28T10:22:48.959Z</time></trkpt><trkpt lat="39.64152698298389" lon="9.353861800664582"><ele>364.3333333333333</ele><time>2026-04-28T10:22:49.959Z</time></trkpt><trkpt lat="39.641732335083255" lon="9.353888544040842"><ele>366.0</ele><time>2026-04-28T10:22:50.959Z</time></trkpt><trkpt lat="39.64194357113295" lon="9.353953551848623"><ele>367.6666666666667</ele><time>2026-04-28T10:22:51.959Z</time></trkpt><trkpt lat="39.642141138116386" lon="9.354055484118001"><ele>369.33333333333337</ele><time>2026-04-28T10:22:52.959Z</time></trkpt><trkpt lat="39.64233899096112" lon="9.354192263775978"><ele>371.0</ele><time>2026-04-28T10:22:53.959Z</time></trkpt><trkpt lat="39.64253667118022" lon="9.35435219774979"><ele>371.0</ele><time>2026-04-28T10:22:54.959Z</time></trkpt><trkpt lat="39.64272912552425" lon="9.354521463896587"><ele>371.0</ele><time>2026-04-28T10:22:55.959Z</time></trkpt><trkpt lat="39.64292265562586" lon="9.354693618608096"><ele>374.0</ele><time>2026-04-28T10:22:56.959Z</time></trkpt><trkpt lat="39.64311146351631" lon="9.354863024783153"><ele>377.0</ele><time>2026-04-28T10:22:57.959Z</time></trkpt><trkpt lat="39.643303525958366" lon="9.355022716471739"><ele>377.0</ele><time>2026-04-28T10:22:58.959Z</time></trkpt><trkpt lat="39.64349612297546" lon="9.35519599209958"><ele>377.0</ele><time>2026-04-28T10:22:59.959Z</time></trkpt><trkpt lat="39.643699755456986" lon="9.355219714018613"><ele>377.0</ele><time>2026-04-28T10:23:00.959Z</time></trkpt><trkpt lat="39.6439128952515" lon="9.355290256316215"><ele>376.5</ele><time>2026-04-28T10:23:01.959Z</time></trkpt><trkpt lat="39.64413655080113" lon="9.355300000148144"><ele>376.0</ele><time>2026-04-28T10:23:02.959Z</time></trkpt><trkpt lat="39.64436324522472" lon="9.355283809095605"><ele>377.5</ele><time>2026-04-28T10:23:03.959Z</time></trkpt><trkpt lat="39.64458447370744" lon="9.355283034695642"><ele>379.0</ele><time>2026-04-28T10:23:04.959Z</time></trkpt><trkpt lat="39.64481315456804" lon="9.35527520576397"><ele>379.0</ele><time>2026-04-28T10:23:05.959Z</time></trkpt><trkpt lat="39.6450414685279" lon="9.355276227916942"><ele>379.0</ele><time>2026-04-28T10:23:06.959Z</time></trkpt><trkpt lat="39.6452684637028" lon="9.35528328917252"><ele>378.3333333333333</ele><time>2026-04-28T10:23:07.959Z</time></trkpt><trkpt lat="39.6454834272204" lon="9.355290641425162"><ele>377.6666666666667</ele><time>2026-04-28T10:23:08.959Z</time></trkpt><trkpt lat="39.645679902267666" lon="9.355342882963406"><ele>377.0</ele><time>2026-04-28T10:23:09.959Z</time></trkpt><trkpt lat="39.64585838707357" lon="9.355462860467393"><ele>380.0</ele><time>2026-04-28T10:23:10.959Z</time></trkpt><trkpt lat="39.64600466473388" lon="9.355635995444636"><ele>383.0</ele><time>2026-04-28T10:23:11.959Z</time></trkpt><trkpt lat="39.64613186088363" lon="9.355840236941736"><ele>386.0</ele><time>2026-04-28T10:23:12.959Z</time></trkpt><trkpt lat="39.64624028425025" lon="9.356075530304159"><ele>386.0</ele><time>2026-04-28T10:23:13.959Z</time></trkpt><trkpt lat="39.64635954408826" lon="9.356308372308492"><ele>386.0</ele><time>2026-04-28T10:23:14.959Z</time></trkpt><trkpt lat="39.64648633103694" lon="9.35653785491771"><ele>386.0</ele><time>2026-04-28T10:23:15.959Z</time></trkpt><trkpt lat="39.64661629874578" lon="9.356768053663298"><ele>388.0</ele><time>2026-04-28T10:23:16.959Z</time></trkpt><trkpt lat="39.64674357508295" lon="9.356998098549443"><ele>390.0</ele><time>2026-04-28T10:23:17.959Z</time></trkpt><trkpt lat="39.6468733009764" lon="9.357190916253964"><ele>392.0</ele><time>2026-04-28T10:23:18.959Z</time></trkpt><trkpt lat="39.64703948493501" lon="9.357300406049976"><ele>393.3333333333333</ele><time>2026-04-28T10:23:19.959Z</time></trkpt><trkpt lat="39.64723343587549" lon="9.357350811395122"><ele>394.66666666666663</ele><time>2026-04-28T10:23:20.959Z</time></trkpt><trkpt lat="39.647435394885434" lon="9.357334342737621"><ele>396.0</ele><time>2026-04-28T10:23:21.959Z</time></trkpt><trkpt lat="39.647649137318396" lon="9.357229642051836"><ele>398.0</ele><time>2026-04-28T10:23:22.959Z</time></trkpt><trkpt lat="39.64782585047645" lon="9.357206941580538"><ele>400.0</ele><time>2026-04-28T10:23:23.958Z</time></trkpt><trkpt lat="39.64797825547323" lon="9.357232634558544"><ele>402.0</ele><time>2026-04-28T10:23:24.958Z</time></trkpt><trkpt lat="39.64809479779944" lon="9.357307605333647"><ele>402.0</ele><time>2026-04-28T10:23:25.958Z</time></trkpt><trkpt lat="39.64817990234343" lon="9.357361755903295"><ele>402.0</ele><time>2026-04-28T10:23:26.958Z</time></trkpt><trkpt lat="39.6482518275862" lon="9.357357197804768"><ele>402.0</ele><time>2026-04-28T10:23:27.958Z</time></trkpt><trkpt lat="39.648313114293096" lon="9.357297731823076"><ele>402.0</ele><time>2026-04-28T10:23:28.958Z</time></trkpt><trkpt lat="39.64838049594925" lon="9.357212063218016"><ele>402.0</ele><time>2026-04-28T10:23:29.958Z</time></trkpt><trkpt lat="39.64846403451193" lon="9.357137271518635"><ele>402.0</ele><time>2026-04-28T10:23:30.958Z</time></trkpt><trkpt lat="39.64856521009673" lon="9.357117472547332"><ele>401.5</ele><time>2026-04-28T10:23:31.958Z</time></trkpt><trkpt lat="39.648674687184005" lon="9.35712871414598"><ele>401.0</ele><time>2026-04-28T10:23:32.958Z</time></trkpt><trkpt lat="39.648788409787585" lon="9.357138242192033"><ele>400.5</ele><time>2026-04-28T10:23:33.958Z</time></trkpt><trkpt lat="39.64890771980227" lon="9.357126610705688"><ele>400.0</ele><time>2026-04-28T10:23:34.958Z</time></trkpt><trkpt lat="39.649035074559436" lon="9.357085896535272"><ele>400.0</ele><time>2026-04-28T10:23:35.958Z</time></trkpt><trkpt lat="39.64916233448609" lon="9.35703160531006"><ele>400.0</ele><time>2026-04-28T10:23:36.958Z</time></trkpt><trkpt lat="39.64930065858285" lon="9.356965373432978"><ele>400.0</ele><time>2026-04-28T10:23:37.958Z</time></trkpt><trkpt lat="39.64944477251331" lon="9.35689671058038"><ele>400.0</ele><time>2026-04-28T10:23:38.958Z</time></trkpt><trkpt lat="39.649594024615816" lon="9.35682632964818"><ele>402.0</ele><time>2026-04-28T10:23:39.958Z</time></trkpt><trkpt lat="39.649745903717225" lon="9.356749524959374"><ele>404.0</ele><time>2026-04-28T10:23:40.958Z</time></trkpt><trkpt lat="39.6498982632338" lon="9.356670166931925"><ele>406.0</ele><time>2026-04-28T10:23:41.958Z</time></trkpt><trkpt lat="39.65006121568294" lon="9.356588737923843"><ele>406.0</ele><time>2026-04-28T10:23:42.958Z</time></trkpt><trkpt lat="39.65023110343292" lon="9.356512658810013"><ele>406.0</ele><time>2026-04-28T10:23:43.958Z</time></trkpt><trkpt lat="39.65040479528378" lon="9.356437046859503"><ele>406.0</ele><time>2026-04-28T10:23:44.958Z</time></trkpt><trkpt lat="39.65057906805309" lon="9.356361651537629"><ele>407.33333333333337</ele><time>2026-04-28T10:23:45.958Z</time></trkpt><trkpt lat="39.65075929281154" lon="9.356287048604957"><ele>408.66666666666663</ele><time>2026-04-28T10:23:46.958Z</time></trkpt><trkpt lat="39.65093990647956" lon="9.356230017083462"><ele>410.0</ele><time>2026-04-28T10:23:47.958Z</time></trkpt><trkpt lat="39.65111336594241" lon="9.356184386058887"><ele>411.3333333333333</ele><time>2026-04-28T10:23:48.958Z</time></trkpt><trkpt lat="39.65128446022915" lon="9.356130245970064"><ele>412.66666666666663</ele><time>2026-04-28T10:23:49.958Z</time></trkpt><trkpt lat="39.65145848328277" lon="9.356093431585917"><ele>414.0</ele><time>2026-04-28T10:23:50.958Z</time></trkpt><trkpt lat="39.65162901645177" lon="9.356102243690259"><ele>414.0</ele><time>2026-04-28T10:23:51.958Z</time></trkpt><trkpt lat="39.65179680412217" lon="9.356146592089392"><ele>414.0</ele><time>2026-04-28T10:23:52.958Z</time></trkpt><trkpt lat="39.651961132469715" lon="9.35622321554397"><ele>414.0</ele><time>2026-04-28T10:23:53.958Z</time></trkpt><trkpt lat="39.65213219783142" lon="9.35631297322665"><ele>416.33333333333337</ele><time>2026-04-28T10:23:54.958Z</time></trkpt><trkpt lat="39.65229943261948" lon="9.356384703888622"><ele>418.6666666666667</ele><time>2026-04-28T10:23:55.958Z</time></trkpt><trkpt lat="39.65245987453427" lon="9.35645533520029"><ele>421.0</ele><time>2026-04-28T10:23:56.958Z</time></trkpt><trkpt lat="39.6526083190454" lon="9.356557158812375"><ele>421.0</ele><time>2026-04-28T10:23:57.958Z</time></trkpt><trkpt lat="39.6527395822853" lon="9.3567142164511"><ele>421.0</ele><time>2026-04-28T10:23:58.958Z</time></trkpt><trkpt lat="39.65285533481052" lon="9.356875958961593"><ele>421.0</ele><time>2026-04-28T10:23:59.958Z</time></trkpt><trkpt lat="39.652969708883866" lon="9.357014920294754"><ele>421.75</ele><time>2026-04-28T10:24:00.958Z</time></trkpt><trkpt lat="39.65309106234182" lon="9.357097791771315"><ele>422.5</ele><time>2026-04-28T10:24:01.958Z</time></trkpt><trkpt lat="39.653238752549015" lon="9.357101130915012"><ele>423.25</ele><time>2026-04-28T10:24:02.958Z</time></trkpt><trkpt lat="39.653390145055575" lon="9.357036624294441"><ele>424.0</ele><time>2026-04-28T10:24:03.958Z</time></trkpt><trkpt lat="39.653526327671436" lon="9.356918310799959"><ele>425.33333333333337</ele><time>2026-04-28T10:24:04.958Z</time></trkpt><trkpt lat="39.65365150574582" lon="9.356772430687373"><ele>426.66666666666663</ele><time>2026-04-28T10:24:05.958Z</time></trkpt><trkpt lat="39.65378399029877" lon="9.356608842052182"><ele>428.0</ele><time>2026-04-28T10:24:06.958Z</time></trkpt><trkpt lat="39.653931766662495" lon="9.356459065520868"><ele>427.66666666666663</ele><time>2026-04-28T10:24:07.958Z</time></trkpt><trkpt lat="39.654097960616056" lon="9.356330494865828"><ele>427.33333333333337</ele><time>2026-04-28T10:24:08.958Z</time></trkpt><trkpt lat="39.65428759159973" lon="9.356234511955355"><ele>427.0</ele><time>2026-04-28T10:24:09.958Z</time></trkpt><trkpt lat="39.654484602745256" lon="9.356176547139158"><ele>428.6666666666667</ele><time>2026-04-28T10:24:10.958Z</time></trkpt><trkpt lat="39.654647385861274" lon="9.356104115401292"><ele>430.33333333333337</ele><time>2026-04-28T10:24:11.958Z</time></trkpt><trkpt lat="39.65477370609929" lon="9.355980487093777"><ele>432.0</ele><time>2026-04-28T10:24:12.958Z</time></trkpt><trkpt lat="39.654854776462784" lon="9.35577724542669"><ele>434.66666666666663</ele><time>2026-04-28T10:24:13.958Z</time></trkpt><trkpt lat="39.6549059287511" lon="9.355524845506727"><ele>437.3333333333333</ele><time>2026-04-28T10:24:14.958Z</time></trkpt><trkpt lat="39.65496270508767" lon="9.35526896108113"><ele>440.0</ele><time>2026-04-28T10:24:15.958Z</time></trkpt><trkpt lat="39.65505109299027" lon="9.355035613293381"><ele>440.0</ele><time>2026-04-28T10:24:16.958Z</time></trkpt><trkpt lat="39.6551869945147" lon="9.354842692926889"><ele>440.0</ele><time>2026-04-28T10:24:17.958Z</time></trkpt><trkpt lat="39.655372043049205" lon="9.354702061776353"><ele>440.0</ele><time>2026-04-28T10:24:18.958Z</time></trkpt><trkpt lat="39.65556161268006" lon="9.35457248243882"><ele>441.3333333333333</ele><time>2026-04-28T10:24:19.958Z</time></trkpt><trkpt lat="39.655752918348" lon="9.354476328161432"><ele>442.66666666666663</ele><time>2026-04-28T10:24:20.958Z</time></trkpt><trkpt lat="39.65595507143552" lon="9.354422179645358"><ele>444.0</ele><time>2026-04-28T10:24:21.958Z</time></trkpt><trkpt lat="39.656169654992944" lon="9.354387544306476"><ele>444.66666666666663</ele><time>2026-04-28T10:24:22.958Z</time></trkpt><trkpt lat="39.6563910922246" lon="9.354354658752401"><ele>445.3333333333333</ele><time>2026-04-28T10:24:23.958Z</time></trkpt><trkpt lat="39.656607424626976" lon="9.354304663983422"><ele>446.0</ele><time>2026-04-28T10:24:24.958Z</time></trkpt><trkpt lat="39.656819966035016" lon="9.354257571819758"><ele>445.66666666666663</ele><time>2026-04-28T10:24:25.958Z</time></trkpt><trkpt lat="39.65703293843453" lon="9.35420720369666"><ele>445.33333333333337</ele><time>2026-04-28T10:24:26.958Z</time></trkpt><trkpt lat="39.657235341731734" lon="9.354145175939845"><ele>445.0</ele><time>2026-04-28T10:24:27.958Z</time></trkpt><trkpt lat="39.65742907513903" lon="9.354034672350293"><ele>445.0</ele><time>2026-04-28T10:24:28.958Z</time></trkpt><trkpt lat="39.65760982506752" lon="9.353883439332293"><ele>445.0</ele><time>2026-04-28T10:24:29.957Z</time></trkpt><trkpt lat="39.65779280173203" lon="9.35370598111355"><ele>445.0</ele><time>2026-04-28T10:24:30.957Z</time></trkpt><trkpt lat="39.6579845681609" lon="9.353540474720205"><ele>446.33333333333337</ele><time>2026-04-28T10:24:31.958Z</time></trkpt><trkpt lat="39.65816901809947" lon="9.353401031960923"><ele>447.66666666666663</ele><time>2026-04-28T10:24:32.958Z</time></trkpt><trkpt lat="39.658356429371885" lon="9.353249157598317"><ele>449.0</ele><time>2026-04-28T10:24:33.958Z</time></trkpt><trkpt lat="39.658550470021396" lon="9.353086433842291"><ele>449.5</ele><time>2026-04-28T10:24:34.958Z</time></trkpt><trkpt lat="39.65874391776705" lon="9.352928320746374"><ele>450.0</ele><time>2026-04-28T10:24:35.958Z</time></trkpt><trkpt lat="39.65893953025595" lon="9.352753853149649"><ele>450.0</ele><time>2026-04-28T10:24:36.958Z</time></trkpt><trkpt lat="39.65912095270361" lon="9.352560023647833"><ele>450.0</ele><time>2026-04-28T10:24:37.958Z</time></trkpt><trkpt lat="39.659287199599426" lon="9.352348156964084"><ele>450.0</ele><time>2026-04-28T10:24:38.958Z</time></trkpt><trkpt lat="39.659443398382656" lon="9.352160069056309"><ele>450.0</ele><time>2026-04-28T10:24:39.958Z</time></trkpt><trkpt lat="39.65961596450085" lon="9.352026626433732"><ele>450.0</ele><time>2026-04-28T10:24:40.958Z</time></trkpt><trkpt lat="39.65982325758591" lon="9.351957673213585"><ele>450.0</ele><time>2026-04-28T10:24:41.958Z</time></trkpt><trkpt lat="39.660046119675435" lon="9.35192570810947"><ele>450.0</ele><time>2026-04-28T10:24:42.958Z</time></trkpt><trkpt lat="39.66027405654605" lon="9.351888311192948"><ele>454.0</ele><time>2026-04-28T10:24:43.958Z</time></trkpt><trkpt lat="39.660500680341386" lon="9.351817735905145"><ele>458.0</ele><time>2026-04-28T10:24:44.958Z</time></trkpt><trkpt lat="39.660718269483304" lon="9.351754551872782"><ele>458.0</ele><time>2026-04-28T10:24:45.958Z</time></trkpt><trkpt lat="39.660938676933114" lon="9.351694116896985"><ele>458.0</ele><time>2026-04-28T10:24:46.958Z</time></trkpt><trkpt lat="39.66115332085738" lon="9.35163950425598"><ele>458.0</ele><time>2026-04-28T10:24:47.958Z</time></trkpt><trkpt lat="39.661368730838156" lon="9.351610963580328"><ele>459.3333333333333</ele><time>2026-04-28T10:24:48.958Z</time></trkpt><trkpt lat="39.661587404865195" lon="9.351617139333849"><ele>460.66666666666663</ele><time>2026-04-28T10:24:49.958Z</time></trkpt><trkpt lat="39.66180380327781" lon="9.351659636114094"><ele>462.0</ele><time>2026-04-28T10:24:50.958Z</time></trkpt><trkpt lat="39.66202506657417" lon="9.351741257019416"><ele>464.5</ele><time>2026-04-28T10:24:51.958Z</time></trkpt><trkpt lat="39.662240376872404" lon="9.351838026246277"><ele>467.0</ele><time>2026-04-28T10:24:52.958Z</time></trkpt><trkpt lat="39.662457955085976" lon="9.351919397719637"><ele>467.0</ele><time>2026-04-28T10:24:53.958Z</time></trkpt><trkpt lat="39.662674474783145" lon="9.35196705077315"><ele>467.0</ele><time>2026-04-28T10:24:54.958Z</time></trkpt><trkpt lat="39.66289511482936" lon="9.351958738559585"><ele>467.0</ele><time>2026-04-28T10:24:55.958Z</time></trkpt><trkpt lat="39.66312502651441" lon="9.35187946855936"><ele>469.0</ele><time>2026-04-28T10:24:56.958Z</time></trkpt><trkpt lat="39.66336250357654" lon="9.3518031720474"><ele>471.0</ele><time>2026-04-28T10:24:57.958Z</time></trkpt><trkpt lat="39.66360455025484" lon="9.35174116629585"><ele>471.66666666666663</ele><time>2026-04-28T10:24:58.958Z</time></trkpt><trkpt lat="39.6638301244431" lon="9.351692900512436"><ele>472.3333333333333</ele><time>2026-04-28T10:24:59.958Z</time></trkpt><trkpt lat="39.66402740194666" lon="9.35163510438263"><ele>473.0</ele><time>2026-04-28T10:25:00.958Z</time></trkpt><trkpt lat="39.66420513555588" lon="9.35153235179951"><ele>474.0</ele><time>2026-04-28T10:25:01.958Z</time></trkpt><trkpt lat="39.66437485007587" lon="9.351366191134849"><ele>475.0</ele><time>2026-04-28T10:25:02.958Z</time></trkpt><trkpt lat="39.66454169145574" lon="9.351220155676922"><ele>476.0</ele><time>2026-04-28T10:25:03.958Z</time></trkpt><trkpt lat="39.664729983232036" lon="9.351157435503746"><ele>476.66666666666663</ele><time>2026-04-28T10:25:04.958Z</time></trkpt><trkpt lat="39.664943316333904" lon="9.351144555599864"><ele>477.33333333333337</ele><time>2026-04-28T10:25:05.958Z</time></trkpt><trkpt lat="39.66515874529411" lon="9.351110762828826"><ele>478.0</ele><time>2026-04-28T10:25:06.958Z</time></trkpt><trkpt lat="39.66537138437996" lon="9.35106835703545"><ele>480.33333333333337</ele><time>2026-04-28T10:25:07.958Z</time></trkpt><trkpt lat="39.66558236323037" lon="9.35102258309011"><ele>482.66666666666663</ele><time>2026-04-28T10:25:08.958Z</time></trkpt><trkpt lat="39.665775705644826" lon="9.350976779911932"><ele>485.0</ele><time>2026-04-28T10:25:09.958Z</time></trkpt><trkpt lat="39.66594234905978" lon="9.350975015783424"><ele>485.0</ele><time>2026-04-28T10:25:10.958Z</time></trkpt><trkpt lat="39.666096212057894" lon="9.351040457227366"><ele>485.0</ele><time>2026-04-28T10:25:11.958Z</time></trkpt><trkpt lat="39.66625624541552" lon="9.351174133793542"><ele>485.0</ele><time>2026-04-28T10:25:12.958Z</time></trkpt><trkpt lat="39.666434479720884" lon="9.351291568749614"><ele>488.0</ele><time>2026-04-28T10:25:13.958Z</time></trkpt><trkpt lat="39.66663041021821" lon="9.35132428407824"><ele>491.0</ele><time>2026-04-28T10:25:14.958Z</time></trkpt><trkpt lat="39.666833489589436" lon="9.351269515198144"><ele>494.0</ele><time>2026-04-28T10:25:15.958Z</time></trkpt><trkpt lat="39.66704457151663" lon="9.351198022820773"><ele>496.0</ele><time>2026-04-28T10:25:16.958Z</time></trkpt><trkpt lat="39.66726087923526" lon="9.351158518066226"><ele>498.0</ele><time>2026-04-28T10:25:17.958Z</time></trkpt><trkpt lat="39.66747391601079" lon="9.351143918710571"><ele>500.0</ele><time>2026-04-28T10:25:18.958Z</time></trkpt><trkpt lat="39.6676665088749" lon="9.35108610098178"><ele>500.0</ele><time>2026-04-28T10:25:19.958Z</time></trkpt><trkpt lat="39.66784565823264" lon="9.350957672571798"><ele>500.0</ele><time>2026-04-28T10:25:20.958Z</time></trkpt><trkpt lat="39.6680200627477" lon="9.350783117847786"><ele>500.0</ele><time>2026-04-28T10:25:21.958Z</time></trkpt><trkpt lat="39.66821203219427" lon="9.350617559109763"><ele>502.0</ele><time>2026-04-28T10:25:22.958Z</time></trkpt><trkpt lat="39.668409883633466" lon="9.350465896298905"><ele>504.0</ele><time>2026-04-28T10:25:23.958Z</time></trkpt><trkpt lat="39.6686077529311" lon="9.35030104887822"><ele>506.0</ele><time>2026-04-28T10:25:24.958Z</time></trkpt><trkpt lat="39.66880409445739" lon="9.350131137399353"><ele>508.0</ele><time>2026-04-28T10:25:25.958Z</time></trkpt><trkpt lat="39.66899932072267" lon="9.349946368140078"><ele>508.0</ele><time>2026-04-28T10:25:26.957Z</time></trkpt><trkpt lat="39.66917883473781" lon="9.349734783372083"><ele>508.0</ele><time>2026-04-28T10:25:27.957Z</time></trkpt><trkpt lat="39.669352206023895" lon="9.349496786974534"><ele>511.5</ele><time>2026-04-28T10:25:28.957Z</time></trkpt><trkpt lat="39.66952250614684" lon="9.349262070418552"><ele>515.0</ele><time>2026-04-28T10:25:29.957Z</time></trkpt><trkpt lat="39.66969575276468" lon="9.34904146537815"><ele>517.5</ele><time>2026-04-28T10:25:30.957Z</time></trkpt><trkpt lat="39.66988199876761" lon="9.3488240745104"><ele>520.0</ele><time>2026-04-28T10:25:31.957Z</time></trkpt><trkpt lat="39.6700534822135" lon="9.348599285556606"><ele>520.0</ele><time>2026-04-28T10:25:32.957Z</time></trkpt><trkpt lat="39.670223613955436" lon="9.34837776376517"><ele>520.0</ele><time>2026-04-28T10:25:33.957Z</time></trkpt><trkpt lat="39.67039166403867" lon="9.34817361166332"><ele>521.3333333333334</ele><time>2026-04-28T10:25:34.957Z</time></trkpt><trkpt lat="39.670564555951685" lon="9.348009564108029"><ele>522.6666666666666</ele><time>2026-04-28T10:25:35.957Z</time></trkpt><trkpt lat="39.6707736047524" lon="9.347904797983873"><ele>524.0</ele><time>2026-04-28T10:25:36.957Z</time></trkpt><trkpt lat="39.670993728777745" lon="9.347837089213263"><ele>526.5</ele><time>2026-04-28T10:25:37.957Z</time></trkpt><trkpt lat="39.67123225110029" lon="9.347769751171931"><ele>529.0</ele><time>2026-04-28T10:25:38.957Z</time></trkpt><trkpt lat="39.671466948280866" lon="9.347692098510743"><ele>529.0</ele><time>2026-04-28T10:25:39.957Z</time></trkpt><trkpt lat="39.671699208340975" lon="9.347622808512881"><ele>529.0</ele><time>2026-04-28T10:25:40.957Z</time></trkpt><trkpt lat="39.671930743973455" lon="9.347607268756153"><ele>531.5</ele><time>2026-04-28T10:25:41.957Z</time></trkpt><trkpt lat="39.67216458474966" lon="9.347661367786332"><ele>534.0</ele><time>2026-04-28T10:25:42.957Z</time></trkpt><trkpt lat="39.6724033589914" lon="9.34774465274688"><ele>534.0</ele><time>2026-04-28T10:25:43.957Z</time></trkpt><trkpt lat="39.672649724118756" lon="9.347826336812679"><ele>534.0</ele><time>2026-04-28T10:25:44.957Z</time></trkpt><trkpt lat="39.67289516034301" lon="9.347904252110263"><ele>535.5</ele><time>2026-04-28T10:25:45.957Z</time></trkpt><trkpt lat="39.67314625655811" lon="9.347983079738228"><ele>537.0</ele><time>2026-04-28T10:25:46.957Z</time></trkpt><trkpt lat="39.67339654149391" lon="9.348060617566558"><ele>541.5</ele><time>2026-04-28T10:25:47.957Z</time></trkpt><trkpt lat="39.67364824795051" lon="9.34813766125388"><ele>546.0</ele><time>2026-04-28T10:25:48.957Z</time></trkpt><trkpt lat="39.67389887885727" lon="9.348209891402963"><ele>546.0</ele><time>2026-04-28T10:25:49.957Z</time></trkpt><trkpt lat="39.674147922298054" lon="9.348283196646534"><ele>546.0</ele><time>2026-04-28T10:25:50.957Z</time></trkpt><trkpt lat="39.67439454756329" lon="9.348362186368684"><ele>550.0</ele><time>2026-04-28T10:25:51.957Z</time></trkpt><trkpt lat="39.67463850655091" lon="9.348442443589626"><ele>554.0</ele><time>2026-04-28T10:25:52.957Z</time></trkpt><trkpt lat="39.674878402402044" lon="9.34851990877153"><ele>554.0</ele><time>2026-04-28T10:25:53.957Z</time></trkpt><trkpt lat="39.675112024327426" lon="9.34859194892242"><ele>554.0</ele><time>2026-04-28T10:25:54.957Z</time></trkpt><trkpt lat="39.675328662325306" lon="9.34863710454678"><ele>556.5</ele><time>2026-04-28T10:25:55.957Z</time></trkpt><trkpt lat="39.67554836565784" lon="9.348615465027162"><ele>559.0</ele><time>2026-04-28T10:25:56.957Z</time></trkpt><trkpt lat="39.67577861861025" lon="9.34854488711569"><ele>559.0</ele><time>2026-04-28T10:25:57.957Z</time></trkpt><trkpt lat="39.676019046578844" lon="9.348472491188538"><ele>559.0</ele><time>2026-04-28T10:25:58.957Z</time></trkpt><trkpt lat="39.676267936239896" lon="9.3484073162561"><ele>561.0</ele><time>2026-04-28T10:25:59.957Z</time></trkpt><trkpt lat="39.67652771614267" lon="9.34834044306112"><ele>563.0</ele><time>2026-04-28T10:26:00.957Z</time></trkpt><trkpt lat="39.676789202468875" lon="9.34826888012391"><ele>564.0</ele><time>2026-04-28T10:26:01.957Z</time></trkpt><trkpt lat="39.67705622841038" lon="9.348198131989871"><ele>565.0</ele><time>2026-04-28T10:26:02.957Z</time></trkpt><trkpt lat="39.67733133420049" lon="9.34812552278715"><ele>565.0</ele><time>2026-04-28T10:26:03.957Z</time></trkpt><trkpt lat="39.677608601532064" lon="9.34805439110253"><ele>565.0</ele><time>2026-04-28T10:26:04.957Z</time></trkpt><trkpt lat="39.67788104920941" lon="9.347980758018885"><ele>569.0</ele><time>2026-04-28T10:26:05.957Z</time></trkpt><trkpt lat="39.67815491055975" lon="9.347907406683108"><ele>573.0</ele><time>2026-04-28T10:26:06.957Z</time></trkpt><trkpt lat="39.678426203667186" lon="9.347838632649653"><ele>576.0</ele><time>2026-04-28T10:26:07.957Z</time></trkpt><trkpt lat="39.67870064505814" lon="9.34777290630779"><ele>579.0</ele><time>2026-04-28T10:26:08.957Z</time></trkpt><trkpt lat="39.67897029863681" lon="9.34770556701781"><ele>579.0</ele><time>2026-04-28T10:26:09.957Z</time></trkpt><trkpt lat="39.67923867783735" lon="9.347634393681071"><ele>579.0</ele><time>2026-04-28T10:26:10.957Z</time></trkpt><trkpt lat="39.679507278603296" lon="9.347562826565179"><ele>583.0</ele><time>2026-04-28T10:26:11.957Z</time></trkpt><trkpt lat="39.67977355667615" lon="9.347492759429086"><ele>587.0</ele><time>2026-04-28T10:26:12.957Z</time></trkpt><trkpt lat="39.68004392956946" lon="9.347426148254094"><ele>589.5</ele><time>2026-04-28T10:26:13.957Z</time></trkpt><trkpt lat="39.68031039009718" lon="9.347358887880148"><ele>592.0</ele><time>2026-04-28T10:26:14.957Z</time></trkpt><trkpt lat="39.68057268131568" lon="9.347289658968817"><ele>592.0</ele><time>2026-04-28T10:26:15.957Z</time></trkpt><trkpt lat="39.68083532768771" lon="9.347224150888522"><ele>592.0</ele><time>2026-04-28T10:26:16.957Z</time></trkpt><trkpt lat="39.68110366237788" lon="9.347167809109807"><ele>593.0</ele><time>2026-04-28T10:26:17.957Z</time></trkpt><trkpt lat="39.68136984304158" lon="9.347118563142608"><ele>594.0</ele><time>2026-04-28T10:26:18.957Z</time></trkpt><trkpt lat="39.681642288399985" lon="9.347065095405819"><ele>594.0</ele><time>2026-04-28T10:26:19.957Z</time></trkpt><trkpt lat="39.68191775814151" lon="9.347010203057696"><ele>594.0</ele><time>2026-04-28T10:26:20.957Z</time></trkpt><trkpt lat="39.6821925277245" lon="9.346952565597345"><ele>595.5</ele><time>2026-04-28T10:26:21.957Z</time></trkpt><trkpt lat="39.68247305412422" lon="9.346894013143999"><ele>597.0</ele><time>2026-04-28T10:26:22.957Z</time></trkpt><trkpt lat="39.68275220436061" lon="9.346832209117656"><ele>598.0</ele><time>2026-04-28T10:26:23.957Z</time></trkpt><trkpt lat="39.68302715931889" lon="9.346768527481522"><ele>599.0</ele><time>2026-04-28T10:26:24.957Z</time></trkpt><trkpt lat="39.6833001963666" lon="9.34670772613841"><ele>599.0</ele><time>2026-04-28T10:26:25.957Z</time></trkpt><trkpt lat="39.68357024048452" lon="9.346645075748096"><ele>599.0</ele><time>2026-04-28T10:26:26.957Z</time></trkpt><trkpt lat="39.68383650327193" lon="9.346583168130232"><ele>600.0</ele><time>2026-04-28T10:26:27.957Z</time></trkpt><trkpt lat="39.684099652590085" lon="9.346525807498026"><ele>601.0</ele><time>2026-04-28T10:26:28.957Z</time></trkpt><trkpt lat="39.68434740832404" lon="9.3464898550912"><ele>601.5</ele><time>2026-04-28T10:26:29.957Z</time></trkpt><trkpt lat="39.6845806764339" lon="9.346498479908298"><ele>602.0</ele><time>2026-04-28T10:26:30.957Z</time></trkpt><trkpt lat="39.68480349951924" lon="9.346579121766174"><ele>602.0</ele><time>2026-04-28T10:26:31.958Z</time></trkpt><trkpt lat="39.685030765819015" lon="9.346702870039547"><ele>602.0</ele><time>2026-04-28T10:26:32.957Z</time></trkpt><trkpt lat="39.685270700679105" lon="9.346837851651705"><ele>605.0</ele><time>2026-04-28T10:26:33.957Z</time></trkpt><trkpt lat="39.685524807583555" lon="9.346969048595161"><ele>608.0</ele><time>2026-04-28T10:26:34.957Z</time></trkpt><trkpt lat="39.68578397614368" lon="9.347099099259575"><ele>609.0</ele><time>2026-04-28T10:26:35.957Z</time></trkpt><trkpt lat="39.68604563194174" lon="9.347232474850147"><ele>610.0</ele><time>2026-04-28T10:26:36.957Z</time></trkpt><trkpt lat="39.686311704687576" lon="9.347370508756619"><ele>610.0</ele><time>2026-04-28T10:26:37.957Z</time></trkpt><trkpt lat="39.68657622476681" lon="9.34750356220194"><ele>610.0</ele><time>2026-04-28T10:26:38.957Z</time></trkpt><trkpt lat="39.68684387708032" lon="9.347638183543157"><ele>612.0</ele><time>2026-04-28T10:26:39.957Z</time></trkpt><trkpt lat="39.68711153498259" lon="9.34776895067579"><ele>614.0</ele><time>2026-04-28T10:26:40.957Z</time></trkpt><trkpt lat="39.68738043542859" lon="9.347902972390948"><ele>614.0</ele><time>2026-04-28T10:26:41.957Z</time></trkpt><trkpt lat="39.68764789681402" lon="9.348033799753596"><ele>614.0</ele><time>2026-04-28T10:26:42.957Z</time></trkpt><trkpt lat="39.6879085705736" lon="9.34816464020478"><ele>614.0</ele><time>2026-04-28T10:26:43.957Z</time></trkpt><trkpt lat="39.68816839712742" lon="9.348296685270473"><ele>614.0</ele><time>2026-04-28T10:26:44.957Z</time></trkpt><trkpt lat="39.68842849101998" lon="9.348430957120305"><ele>616.0</ele><time>2026-04-28T10:26:45.957Z</time></trkpt><trkpt lat="39.68868836574857" lon="9.348568670715217"><ele>618.0</ele><time>2026-04-28T10:26:46.957Z</time></trkpt><trkpt lat="39.688950360937" lon="9.348707203439927"><ele>618.0</ele><time>2026-04-28T10:26:47.957Z</time></trkpt><trkpt lat="39.68921214983833" lon="9.348842643643147"><ele>618.0</ele><time>2026-04-28T10:26:48.957Z</time></trkpt><trkpt lat="39.689470649104486" lon="9.348969882262852"><ele>620.0</ele><time>2026-04-28T10:26:49.957Z</time></trkpt><trkpt lat="39.68973161852187" lon="9.349103317859491"><ele>622.0</ele><time>2026-04-28T10:26:50.957Z</time></trkpt><trkpt lat="39.68998699886304" lon="9.349228938096616"><ele>622.0</ele><time>2026-04-28T10:26:51.957Z</time></trkpt><trkpt lat="39.69024439603265" lon="9.34935780675756"><ele>622.0</ele><time>2026-04-28T10:26:52.957Z</time></trkpt><trkpt lat="39.69049615102699" lon="9.349486953174255"><ele>624.5</ele><time>2026-04-28T10:26:53.957Z</time></trkpt><trkpt lat="39.69072365637364" lon="9.349606795624533"><ele>627.0</ele><time>2026-04-28T10:26:54.957Z</time></trkpt><trkpt lat="39.69093758359927" lon="9.349695621433224"><ele>628.5</ele><time>2026-04-28T10:26:55.957Z</time></trkpt><trkpt lat="39.69115725317166" lon="9.349700575078725"><ele>630.0</ele><time>2026-04-28T10:26:56.957Z</time></trkpt><trkpt lat="39.69139356329724" lon="9.349640600823783"><ele>630.0</ele><time>2026-04-28T10:26:57.957Z</time></trkpt><trkpt lat="39.691643497091455" lon="9.349545932471827"><ele>630.0</ele><time>2026-04-28T10:26:58.957Z</time></trkpt><trkpt lat="39.69190137356955" lon="9.349441546591681"><ele>631.5</ele><time>2026-04-28T10:26:59.957Z</time></trkpt><trkpt lat="39.692168403470056" lon="9.349364093677503"><ele>633.0</ele><time>2026-04-28T10:27:00.957Z</time></trkpt><trkpt lat="39.692434884396505" lon="9.349297044792632"><ele>633.0</ele><time>2026-04-28T10:27:01.957Z</time></trkpt><trkpt lat="39.69269836072928" lon="9.34920840250741"><ele>633.0</ele><time>2026-04-28T10:27:02.957Z</time></trkpt><trkpt lat="39.69295574146244" lon="9.349099772250229"><ele>632.0</ele><time>2026-04-28T10:27:03.957Z</time></trkpt><trkpt lat="39.693210532651364" lon="9.348973839943676"><ele>631.0</ele><time>2026-04-28T10:27:04.957Z</time></trkpt><trkpt lat="39.6934656120314" lon="9.348842009468632"><ele>635.0</ele><time>2026-04-28T10:27:05.957Z</time></trkpt><trkpt lat="39.69372001351083" lon="9.348710677446443"><ele>639.0</ele><time>2026-04-28T10:27:06.957Z</time></trkpt><trkpt lat="39.693974613383766" lon="9.348581504944303"><ele>639.0</ele><time>2026-04-28T10:27:07.957Z</time></trkpt><trkpt lat="39.694229719809876" lon="9.348459737120193"><ele>639.0</ele><time>2026-04-28T10:27:08.957Z</time></trkpt><trkpt lat="39.694488791150306" lon="9.348335742897213"><ele>639.0</ele><time>2026-04-28T10:27:09.957Z</time></trkpt><trkpt lat="39.694745709612384" lon="9.348212551924213"><ele>639.0</ele><time>2026-04-28T10:27:10.957Z</time></trkpt><trkpt lat="39.69499671566266" lon="9.348088539659672"><ele>641.5</ele><time>2026-04-28T10:27:11.957Z</time></trkpt><trkpt lat="39.695252992179185" lon="9.34795983890069"><ele>644.0</ele><time>2026-04-28T10:27:12.957Z</time></trkpt><trkpt lat="39.69551163483812" lon="9.347831487215245"><ele>644.0</ele><time>2026-04-28T10:27:13.957Z</time></trkpt><trkpt lat="39.695774688171596" lon="9.347703730148432"><ele>644.0</ele><time>2026-04-28T10:27:14.957Z</time></trkpt><trkpt lat="39.69603607629598" lon="9.347579075633494"><ele>644.0</ele><time>2026-04-28T10:27:15.957Z</time></trkpt><trkpt lat="39.69629666083697" lon="9.347454795957352"><ele>644.0</ele><time>2026-04-28T10:27:16.957Z</time></trkpt><trkpt lat="39.69655554332871" lon="9.347324924107173"><ele>646.5</ele><time>2026-04-28T10:27:17.957Z</time></trkpt><trkpt lat="39.69681062647272" lon="9.347200526089768"><ele>649.0</ele><time>2026-04-28T10:27:18.957Z</time></trkpt><trkpt lat="39.697060743759884" lon="9.347073083694713"><ele>649.0</ele><time>2026-04-28T10:27:19.957Z</time></trkpt><trkpt lat="39.69730554271818" lon="9.34694773189862"><ele>649.0</ele><time>2026-04-28T10:27:20.957Z</time></trkpt><trkpt lat="39.69756568456748" lon="9.34684193467607"><ele>650.0</ele><time>2026-04-28T10:27:21.957Z</time></trkpt><trkpt lat="39.69783012433316" lon="9.346751447425788"><ele>651.0</ele><time>2026-04-28T10:27:22.957Z</time></trkpt><trkpt lat="39.69809813129039" lon="9.346665243456707"><ele>651.0</ele><time>2026-04-28T10:27:23.957Z</time></trkpt><trkpt lat="39.69836854048818" lon="9.346576454221093"><ele>651.0</ele><time>2026-04-28T10:27:24.957Z</time></trkpt><trkpt lat="39.698641861165555" lon="9.346482944727551"><ele>651.0</ele><time>2026-04-28T10:27:25.957Z</time></trkpt><trkpt lat="39.69892052728056" lon="9.346388352080057"><ele>651.0</ele><time>2026-04-28T10:27:26.957Z</time></trkpt><trkpt lat="39.69919916395801" lon="9.346295221966347"><ele>650.0</ele><time>2026-04-28T10:27:27.957Z</time></trkpt><trkpt lat="39.699477487201804" lon="9.346200880034452"><ele>649.0</ele><time>2026-04-28T10:27:28.956Z</time></trkpt><trkpt lat="39.6997542827156" lon="9.346106349465126"><ele>649.0</ele><time>2026-04-28T10:27:29.956Z</time></trkpt><trkpt lat="39.700025233928976" lon="9.346019056987247"><ele>649.0</ele><time>2026-04-28T10:27:30.956Z</time></trkpt><trkpt lat="39.700291490249036" lon="9.34592979166889"><ele>647.0</ele><time>2026-04-28T10:27:31.956Z</time></trkpt><trkpt lat="39.700556762980234" lon="9.345841215482452"><ele>645.0</ele><time>2026-04-28T10:27:32.956Z</time></trkpt><trkpt lat="39.70081985987034" lon="9.345755589587192"><ele>645.0</ele><time>2026-04-28T10:27:33.956Z</time></trkpt><trkpt lat="39.70106927459345" lon="9.345679328997717"><ele>645.0</ele><time>2026-04-28T10:27:34.956Z</time></trkpt><trkpt lat="39.701303173962856" lon="9.34559839706726"><ele>645.0</ele><time>2026-04-28T10:27:35.956Z</time></trkpt><trkpt lat="39.70152775103883" lon="9.34545978702919"><ele>645.0</ele><time>2026-04-28T10:27:36.956Z</time></trkpt><trkpt lat="39.70174498767368" lon="9.345274305049633"><ele>643.0</ele><time>2026-04-28T10:27:37.956Z</time></trkpt><trkpt lat="39.70196569361077" lon="9.345071336389557"><ele>641.0</ele><time>2026-04-28T10:27:38.956Z</time></trkpt><trkpt lat="39.70219693945578" lon="9.344868808365703"><ele>642.5</ele><time>2026-04-28T10:27:39.956Z</time></trkpt><trkpt lat="39.702430802618935" lon="9.344664948370662"><ele>644.0</ele><time>2026-04-28T10:27:40.956Z</time></trkpt><trkpt lat="39.70266017819708" lon="9.344463986753798"><ele>642.0</ele><time>2026-04-28T10:27:41.956Z</time></trkpt><trkpt lat="39.702892376722005" lon="9.344255175192316"><ele>640.0</ele><time>2026-04-28T10:27:42.956Z</time></trkpt><trkpt lat="39.70312664286448" lon="9.344052138641437"><ele>639.5</ele><time>2026-04-28T10:27:43.956Z</time></trkpt><trkpt lat="39.7033576100476" lon="9.343857669893085"><ele>639.0</ele><time>2026-04-28T10:27:44.956Z</time></trkpt><trkpt lat="39.70358347695636" lon="9.343669115106529"><ele>639.0</ele><time>2026-04-28T10:27:45.956Z</time></trkpt><trkpt lat="39.70380449201736" lon="9.34346548268896"><ele>639.0</ele><time>2026-04-28T10:27:46.956Z</time></trkpt><trkpt lat="39.704026251878794" lon="9.343271128338795"><ele>639.0</ele><time>2026-04-28T10:27:47.956Z</time></trkpt><trkpt lat="39.704247111038" lon="9.343085726777963"><ele>639.0</ele><time>2026-04-28T10:27:48.956Z</time></trkpt><trkpt lat="39.704459179274245" lon="9.342918031585018"><ele>637.0</ele><time>2026-04-28T10:27:49.956Z</time></trkpt><trkpt lat="39.70468163140207" lon="9.34278947852174"><ele>635.0</ele><time>2026-04-28T10:27:50.956Z</time></trkpt><trkpt lat="39.70492661288408" lon="9.342714170181283"><ele>635.0</ele><time>2026-04-28T10:27:51.956Z</time></trkpt><trkpt lat="39.70518242609207" lon="9.342656852178697"><ele>635.0</ele><time>2026-04-28T10:27:52.956Z</time></trkpt><trkpt lat="39.70545132997813" lon="9.342605930167103"><ele>633.0</ele><time>2026-04-28T10:27:53.956Z</time></trkpt><trkpt lat="39.705727127501156" lon="9.342549731236572"><ele>631.0</ele><time>2026-04-28T10:27:54.956Z</time></trkpt><trkpt lat="39.706001146096135" lon="9.342491240309204"><ele>630.0</ele><time>2026-04-28T10:27:55.956Z</time></trkpt><trkpt lat="39.70627590990254" lon="9.342428526522209"><ele>629.0</ele><time>2026-04-28T10:27:56.956Z</time></trkpt><trkpt lat="39.70655213848448" lon="9.342366464887615"><ele>629.0</ele><time>2026-04-28T10:27:57.956Z</time></trkpt><trkpt lat="39.706827343663875" lon="9.342311718876317"><ele>629.0</ele><time>2026-04-28T10:27:58.956Z</time></trkpt><trkpt lat="39.7071013995756" lon="9.342258322616448"><ele>628.5</ele><time>2026-04-28T10:27:59.956Z</time></trkpt><trkpt lat="39.70737315076555" lon="9.342198976601686"><ele>628.0</ele><time>2026-04-28T10:28:00.956Z</time></trkpt><trkpt lat="39.70764872076224" lon="9.342138581825374"><ele>626.0</ele><time>2026-04-28T10:28:01.956Z</time></trkpt><trkpt lat="39.707927827718095" lon="9.342074429122514"><ele>624.0</ele><time>2026-04-28T10:28:02.956Z</time></trkpt><trkpt lat="39.708211380293214" lon="9.342014183652635"><ele>624.0</ele><time>2026-04-28T10:28:03.956Z</time></trkpt><trkpt lat="39.70849776147697" lon="9.34195194695268"><ele>624.0</ele><time>2026-04-28T10:28:04.956Z</time></trkpt><trkpt lat="39.70878795354137" lon="9.341884812274332"><ele>621.0</ele><time>2026-04-28T10:28:05.956Z</time></trkpt><trkpt lat="39.70907803148962" lon="9.341820090428069"><ele>618.0</ele><time>2026-04-28T10:28:06.956Z</time></trkpt><trkpt lat="39.70936849971564" lon="9.341757578908027"><ele>616.0</ele><time>2026-04-28T10:28:07.956Z</time></trkpt><trkpt lat="39.709653553007676" lon="9.341694354692677"><ele>614.0</ele><time>2026-04-28T10:28:08.956Z</time></trkpt><trkpt lat="39.70993914226225" lon="9.34162927226209"><ele>614.0</ele><time>2026-04-28T10:28:09.956Z</time></trkpt><trkpt lat="39.710226528539735" lon="9.341565819413903"><ele>614.0</ele><time>2026-04-28T10:28:10.956Z</time></trkpt><trkpt lat="39.71050777854464" lon="9.341499432991984"><ele>613.5</ele><time>2026-04-28T10:28:11.956Z</time></trkpt><trkpt lat="39.71079477519026" lon="9.341438795709516"><ele>613.0</ele><time>2026-04-28T10:28:12.956Z</time></trkpt><trkpt lat="39.71107004770936" lon="9.341381010094587"><ele>613.5</ele><time>2026-04-28T10:28:13.956Z</time></trkpt><trkpt lat="39.71134622208916" lon="9.3413196700045"><ele>614.0</ele><time>2026-04-28T10:28:14.956Z</time></trkpt><trkpt lat="39.71162430194702" lon="9.341256554048423"><ele>614.0</ele><time>2026-04-28T10:28:15.956Z</time></trkpt><trkpt lat="39.71190591719373" lon="9.341194480762807"><ele>614.0</ele><time>2026-04-28T10:28:16.956Z</time></trkpt><trkpt lat="39.71218603858511" lon="9.341133439570152"><ele>612.5</ele><time>2026-04-28T10:28:17.956Z</time></trkpt><trkpt lat="39.71246608018017" lon="9.341076518930725"><ele>611.0</ele><time>2026-04-28T10:28:18.956Z</time></trkpt><trkpt lat="39.71274115536635" lon="9.34102067801834"><ele>608.5</ele><time>2026-04-28T10:28:19.956Z</time></trkpt><trkpt lat="39.71299525242285" lon="9.340967543415438"><ele>606.0</ele><time>2026-04-28T10:28:20.956Z</time></trkpt><trkpt lat="39.71321480525029" lon="9.340914153859192"><ele>606.0</ele><time>2026-04-28T10:28:21.956Z</time></trkpt><trkpt lat="39.71342017839482" lon="9.340866339067905"><ele>606.0</ele><time>2026-04-28T10:28:22.956Z</time></trkpt><trkpt lat="39.71360586019338" lon="9.340833427105649"><ele>606.0</ele><time>2026-04-28T10:28:23.956Z</time></trkpt><trkpt lat="39.71379252218482" lon="9.3408444924944"><ele>604.3333333333334</ele><time>2026-04-28T10:28:24.956Z</time></trkpt><trkpt lat="39.71398649808657" lon="9.340913189078057"><ele>602.6666666666667</ele><time>2026-04-28T10:28:25.956Z</time></trkpt><trkpt lat="39.7141811223682" lon="9.341041125716382"><ele>601.0</ele><time>2026-04-28T10:28:26.956Z</time></trkpt><trkpt lat="39.71437304633627" lon="9.341181104816512"><ele>600.0</ele><time>2026-04-28T10:28:27.956Z</time></trkpt><trkpt lat="39.7145621064654" lon="9.341307850022918"><ele>599.0</ele><time>2026-04-28T10:28:28.956Z</time></trkpt><trkpt lat="39.714741046104784" lon="9.341417022866638"><ele>598.0</ele><time>2026-04-28T10:28:29.956Z</time></trkpt><trkpt lat="39.71492076861901" lon="9.341478112282143"><ele>598.0</ele><time>2026-04-28T10:28:30.956Z</time></trkpt><trkpt lat="39.71511408289874" lon="9.341493159049776"><ele>598.0</ele><time>2026-04-28T10:28:31.956Z</time></trkpt><trkpt lat="39.71531518814668" lon="9.34145531321662"><ele>598.0</ele><time>2026-04-28T10:28:32.956Z</time></trkpt><trkpt lat="39.71552985294454" lon="9.341401510928874"><ele>599.0</ele><time>2026-04-28T10:28:33.956Z</time></trkpt><trkpt lat="39.715762991494415" lon="9.341352998019955"><ele>600.0</ele><time>2026-04-28T10:28:34.957Z</time></trkpt><trkpt lat="39.71598876608987" lon="9.341319326058617"><ele>602.0</ele><time>2026-04-28T10:28:35.957Z</time></trkpt><trkpt lat="39.71621069547557" lon="9.341280045498443"><ele>604.0</ele><time>2026-04-28T10:28:36.957Z</time></trkpt><trkpt lat="39.71639778138757" lon="9.341207003858965"><ele>606.0</ele><time>2026-04-28T10:28:37.956Z</time></trkpt><trkpt lat="39.71656809089496" lon="9.341069478039463"><ele>606.0</ele><time>2026-04-28T10:28:38.956Z</time></trkpt><trkpt lat="39.716743091138696" lon="9.340898638600558"><ele>606.0</ele><time>2026-04-28T10:28:39.956Z</time></trkpt><trkpt lat="39.71693388753826" lon="9.340729333603496"><ele>608.0</ele><time>2026-04-28T10:28:40.956Z</time></trkpt><trkpt lat="39.717111191273624" lon="9.340582284754767"><ele>610.0</ele><time>2026-04-28T10:28:41.957Z</time></trkpt><trkpt lat="39.717254133053075" lon="9.340430534930478"><ele>612.0</ele><time>2026-04-28T10:28:42.957Z</time></trkpt><trkpt lat="39.71733982595002" lon="9.340244672505914"><ele>612.3333333333334</ele><time>2026-04-28T10:28:43.956Z</time></trkpt><trkpt lat="39.71736719181087" lon="9.34001416719733"><ele>612.6666666666667</ele><time>2026-04-28T10:28:44.956Z</time></trkpt><trkpt lat="39.71738416144871" lon="9.339751735791543"><ele>613.0</ele><time>2026-04-28T10:28:45.956Z</time></trkpt><trkpt lat="39.71746284298139" lon="9.339521474775625"><ele>612.0</ele><time>2026-04-28T10:28:46.957Z</time></trkpt><trkpt lat="39.717571810184054" lon="9.339336088325211"><ele>611.0</ele><time>2026-04-28T10:28:47.956Z</time></trkpt><trkpt lat="39.71772072204796" lon="9.339193782228696"><ele>610.0</ele><time>2026-04-28T10:28:48.956Z</time></trkpt><trkpt lat="39.71785407798447" lon="9.339060566210266"><ele>612.3333333333334</ele><time>2026-04-28T10:28:49.956Z</time></trkpt><trkpt lat="39.71802241468101" lon="9.338911785964923"><ele>614.6666666666666</ele><time>2026-04-28T10:28:50.956Z</time></trkpt><trkpt lat="39.71819187219042" lon="9.338743588750908"><ele>617.0</ele><time>2026-04-28T10:28:51.956Z</time></trkpt><trkpt lat="39.718365566669675" lon="9.3385729183492"><ele>617.0</ele><time>2026-04-28T10:28:52.956Z</time></trkpt><trkpt lat="39.71853600882531" lon="9.338399502093425"><ele>617.0</ele><time>2026-04-28T10:28:53.956Z</time></trkpt><trkpt lat="39.71871326038805" lon="9.33822005118045"><ele>617.0</ele><time>2026-04-28T10:28:54.956Z</time></trkpt><trkpt lat="39.71889740823434" lon="9.338039054296315"><ele>621.0</ele><time>2026-04-28T10:28:55.956Z</time></trkpt><trkpt lat="39.719084988035306" lon="9.337854510729699"><ele>625.0</ele><time>2026-04-28T10:28:56.956Z</time></trkpt><trkpt lat="39.71926971617482" lon="9.337669939797564"><ele>631.6666666666667</ele><time>2026-04-28T10:28:57.956Z</time></trkpt><trkpt lat="39.71943973212274" lon="9.337510758223376"><ele>638.3333333333334</ele><time>2026-04-28T10:28:58.956Z</time></trkpt><trkpt lat="39.71959299317328" lon="9.337364150245323"><ele>645.0</ele><time>2026-04-28T10:28:59.956Z</time></trkpt><trkpt lat="39.719709613964106" lon="9.337228926989006"><ele>643.6666666666666</ele><time>2026-04-28T10:29:00.956Z</time></trkpt><trkpt lat="39.71976757063471" lon="9.33705776724702"><ele>642.3333333333333</ele><time>2026-04-28T10:29:01.956Z</time></trkpt><trkpt lat="39.71976102776804" lon="9.336848348436304"><ele>641.0</ele><time>2026-04-28T10:29:02.956Z</time></trkpt><trkpt lat="39.719714403167416" lon="9.336621727320193"><ele>641.0</ele><time>2026-04-28T10:29:03.956Z</time></trkpt><trkpt lat="39.719687878222665" lon="9.336412740010793"><ele>641.0</ele><time>2026-04-28T10:29:04.956Z</time></trkpt><trkpt lat="39.71970592299489" lon="9.336247049746005"><ele>641.0</ele><time>2026-04-28T10:29:05.956Z</time></trkpt><trkpt lat="39.71979550515871" lon="9.336113371555069"><ele>641.0</ele><time>2026-04-28T10:29:06.956Z</time></trkpt><trkpt lat="39.71994400123934" lon="9.33601418457307"><ele>641.6666666666666</ele><time>2026-04-28T10:29:07.956Z</time></trkpt><trkpt lat="39.72011724525636" lon="9.335933810269703"><ele>642.3333333333334</ele><time>2026-04-28T10:29:08.956Z</time></trkpt><trkpt lat="39.72029656185763" lon="9.335831877324265"><ele>643.0</ele><time>2026-04-28T10:29:09.956Z</time></trkpt><trkpt lat="39.720482412389096" lon="9.335727055663192"><ele>643.0</ele><time>2026-04-28T10:29:10.956Z</time></trkpt><trkpt lat="39.720662373192326" lon="9.335616644665393"><ele>643.0</ele><time>2026-04-28T10:29:11.956Z</time></trkpt><trkpt lat="39.72083692690766" lon="9.335508057934717"><ele>643.0</ele><time>2026-04-28T10:29:12.956Z</time></trkpt><trkpt lat="39.7210285323647" lon="9.335442184780696"><ele>639.6666666666667</ele><time>2026-04-28T10:29:13.956Z</time></trkpt><trkpt lat="39.721237576372744" lon="9.335429003506526"><ele>636.3333333333334</ele><time>2026-04-28T10:29:14.956Z</time></trkpt><trkpt lat="39.721452851312925" lon="9.335424621510747"><ele>633.0</ele><time>2026-04-28T10:29:15.956Z</time></trkpt><trkpt lat="39.72165294120318" lon="9.335398006452477"><ele>633.0</ele><time>2026-04-28T10:29:16.956Z</time></trkpt><trkpt lat="39.72184185659311" lon="9.335323269248033"><ele>633.0</ele><time>2026-04-28T10:29:17.956Z</time></trkpt><trkpt lat="39.722025206010706" lon="9.33520583680743"><ele>633.0</ele><time>2026-04-28T10:29:18.956Z</time></trkpt><trkpt lat="39.72222190997563" lon="9.335069315176318"><ele>635.5</ele><time>2026-04-28T10:29:19.956Z</time></trkpt><trkpt lat="39.722425629680465" lon="9.334940139466823"><ele>638.0</ele><time>2026-04-28T10:29:20.956Z</time></trkpt><trkpt lat="39.72263176689656" lon="9.334815927377988"><ele>637.3333333333333</ele><time>2026-04-28T10:29:21.956Z</time></trkpt><trkpt lat="39.72283190173071" lon="9.334696394784364"><ele>636.6666666666666</ele><time>2026-04-28T10:29:22.956Z</time></trkpt><trkpt lat="39.7230114783035" lon="9.334579882698305"><ele>636.0</ele><time>2026-04-28T10:29:23.956Z</time></trkpt><trkpt lat="39.723183567290015" lon="9.33447232502941"><ele>636.0</ele><time>2026-04-28T10:29:24.956Z</time></trkpt><trkpt lat="39.72335178595915" lon="9.334356018323014"><ele>636.0</ele><time>2026-04-28T10:29:25.956Z</time></trkpt><trkpt lat="39.723513204989324" lon="9.334206323414689"><ele>636.0</ele><time>2026-04-28T10:29:26.956Z</time></trkpt><trkpt lat="39.723661651772616" lon="9.334001457022714"><ele>636.5</ele><time>2026-04-28T10:29:27.956Z</time></trkpt><trkpt lat="39.72379090913621" lon="9.33377607216227"><ele>637.0</ele><time>2026-04-28T10:29:28.956Z</time></trkpt><trkpt lat="39.72395446606106" lon="9.333545839146662"><ele>637.0</ele><time>2026-04-28T10:29:29.956Z</time></trkpt><trkpt lat="39.724135418696896" lon="9.333337283971645"><ele>637.0</ele><time>2026-04-28T10:29:30.956Z</time></trkpt><trkpt lat="39.724246751385735" lon="9.333131498448783"><ele>637.0</ele><time>2026-04-28T10:29:31.956Z</time></trkpt><trkpt lat="39.724384115020875" lon="9.332902779840785"><ele>642.0</ele><time>2026-04-28T10:29:32.956Z</time></trkpt><trkpt lat="39.7245258203941" lon="9.332662425483287"><ele>647.0</ele><time>2026-04-28T10:29:33.956Z</time></trkpt><trkpt lat="39.72466811484724" lon="9.332417399311408"><ele>647.0</ele><time>2026-04-28T10:29:34.956Z</time></trkpt><trkpt lat="39.72480409232514" lon="9.33218385320622"><ele>647.0</ele><time>2026-04-28T10:29:35.956Z</time></trkpt><trkpt lat="39.724930698693754" lon="9.331971167754904"><ele>647.0</ele><time>2026-04-28T10:29:36.956Z</time></trkpt><trkpt lat="39.72503708086775" lon="9.331795726438209"><ele>647.0</ele><time>2026-04-28T10:29:37.956Z</time></trkpt><trkpt lat="39.72510296610744" lon="9.331615672985828"><ele>647.0</ele><time>2026-04-28T10:29:38.956Z</time></trkpt><trkpt lat="39.72511675277855" lon="9.331408786189936"><ele>647.0</ele><time>2026-04-28T10:29:39.956Z</time></trkpt><trkpt lat="39.72507560860182" lon="9.331176136249052"><ele>647.6666666666666</ele><time>2026-04-28T10:29:40.956Z</time></trkpt><trkpt lat="39.72503801765473" lon="9.330954677512128"><ele>648.3333333333334</ele><time>2026-04-28T10:29:41.956Z</time></trkpt><trkpt lat="39.72505049692928" lon="9.33074567357465"><ele>649.0</ele><time>2026-04-28T10:29:42.956Z</time></trkpt><trkpt lat="39.72512842747125" lon="9.330565724212658"><ele>654.0</ele><time>2026-04-28T10:29:43.955Z</time></trkpt><trkpt lat="39.7252614171046" lon="9.330407460797954"><ele>659.0</ele><time>2026-04-28T10:29:44.955Z</time></trkpt><trkpt lat="39.72542619821141" lon="9.330286910447922"><ele>664.0</ele><time>2026-04-28T10:29:45.955Z</time></trkpt><trkpt lat="39.72558114053977" lon="9.33013925583455"><ele>664.0</ele><time>2026-04-28T10:29:46.955Z</time></trkpt><trkpt lat="39.72572643908793" lon="9.329967221996508"><ele>664.0</ele><time>2026-04-28T10:29:47.955Z</time></trkpt><trkpt lat="39.72587507467786" lon="9.32978432524212"><ele>664.0</ele><time>2026-04-28T10:29:48.955Z</time></trkpt><trkpt lat="39.72602709827303" lon="9.329597251995791"><ele>666.3333333333334</ele><time>2026-04-28T10:29:49.955Z</time></trkpt><trkpt lat="39.726181610017484" lon="9.329417815856823"><ele>668.6666666666666</ele><time>2026-04-28T10:29:50.955Z</time></trkpt><trkpt lat="39.726324560802546" lon="9.329252128841937"><ele>671.0</ele><time>2026-04-28T10:29:51.955Z</time></trkpt><trkpt lat="39.72645603915316" lon="9.329106422456453"><ele>671.0</ele><time>2026-04-28T10:29:52.955Z</time></trkpt><trkpt lat="39.72658241381515" lon="9.329013153082274"><ele>671.0</ele><time>2026-04-28T10:29:53.955Z</time></trkpt><trkpt lat="39.72672521465445" lon="9.328989677140703"><ele>671.0</ele><time>2026-04-28T10:29:54.955Z</time></trkpt><trkpt lat="39.72688941891762" lon="9.329030337543536"><ele>673.6666666666666</ele><time>2026-04-28T10:29:55.955Z</time></trkpt><trkpt lat="39.72705848937303" lon="9.32910371369303"><ele>676.3333333333334</ele><time>2026-04-28T10:29:56.955Z</time></trkpt><trkpt lat="39.72721159637104" lon="9.329136580016543"><ele>679.0</ele><time>2026-04-28T10:29:57.955Z</time></trkpt><trkpt lat="39.72733141682199" lon="9.32902992290564"><ele>678.0</ele><time>2026-04-28T10:29:58.955Z</time></trkpt><trkpt lat="39.72743332230906" lon="9.328860937709159"><ele>677.0</ele><time>2026-04-28T10:29:59.955Z</time></trkpt><trkpt lat="39.72750496925296" lon="9.328644301654036"><ele>676.0</ele><time>2026-04-28T10:30:00.955Z</time></trkpt><trkpt lat="39.727533297061925" lon="9.328390405084892"><ele>676.0</ele><time>2026-04-28T10:30:01.955Z</time></trkpt><trkpt lat="39.72758838639653" lon="9.328164127568098"><ele>676.0</ele><time>2026-04-28T10:30:02.955Z</time></trkpt><trkpt lat="39.72765136958759" lon="9.327981134657273"><ele>676.0</ele><time>2026-04-28T10:30:03.955Z</time></trkpt><trkpt lat="39.72774274655426" lon="9.327843963145348"><ele>679.0</ele><time>2026-04-28T10:30:04.955Z</time></trkpt><trkpt lat="39.727876278053266" lon="9.327761033460085"><ele>682.0</ele><time>2026-04-28T10:30:05.955Z</time></trkpt><trkpt lat="39.72804626301005" lon="9.327727482334508"><ele>685.0</ele><time>2026-04-28T10:30:06.955Z</time></trkpt><trkpt lat="39.72824481986703" lon="9.327730279510348"><ele>685.0</ele><time>2026-04-28T10:30:07.955Z</time></trkpt><trkpt lat="39.72842405844804" lon="9.327692235775862"><ele>685.0</ele><time>2026-04-28T10:30:08.955Z</time></trkpt><trkpt lat="39.72856392847415" lon="9.327605543550565"><ele>685.0</ele><time>2026-04-28T10:30:09.955Z</time></trkpt><trkpt lat="39.72865464681472" lon="9.327456332201889"><ele>688.3333333333334</ele><time>2026-04-28T10:30:10.955Z</time></trkpt><trkpt lat="39.72869385879684" lon="9.327244530541126"><ele>691.6666666666666</ele><time>2026-04-28T10:30:11.955Z</time></trkpt><trkpt lat="39.72869504449062" lon="9.327006485427956"><ele>695.0</ele><time>2026-04-28T10:30:12.955Z</time></trkpt><trkpt lat="39.72872909453967" lon="9.326792771941438"><ele>695.0</ele><time>2026-04-28T10:30:13.955Z</time></trkpt><trkpt lat="39.72881976527028" lon="9.326625258832319"><ele>695.0</ele><time>2026-04-28T10:30:14.955Z</time></trkpt><trkpt lat="39.72896399103603" lon="9.326500713832386"><ele>695.0</ele><time>2026-04-28T10:30:15.955Z</time></trkpt><trkpt lat="39.7291357340394" lon="9.32640171306778"><ele>697.3333333333333</ele><time>2026-04-28T10:30:16.955Z</time></trkpt><trkpt lat="39.72929764151689" lon="9.326263478946743"><ele>699.6666666666666</ele><time>2026-04-28T10:30:17.955Z</time></trkpt><trkpt lat="39.7294590298748" lon="9.326116832256005"><ele>702.0</ele><time>2026-04-28T10:30:18.955Z</time></trkpt><trkpt lat="39.729617511241244" lon="9.325978470457144"><ele>702.0</ele><time>2026-04-28T10:30:19.955Z</time></trkpt><trkpt lat="39.72977812386127" lon="9.325865552262009"><ele>702.0</ele><time>2026-04-28T10:30:20.955Z</time></trkpt><trkpt lat="39.72993670326818" lon="9.325794602186797"><ele>702.0</ele><time>2026-04-28T10:30:21.955Z</time></trkpt><trkpt lat="39.73008030304742" lon="9.325738935183162"><ele>702.0</ele><time>2026-04-28T10:30:22.955Z</time></trkpt><trkpt lat="39.7301752463326" lon="9.325624855969943"><ele>702.0</ele><time>2026-04-28T10:30:23.955Z</time></trkpt><trkpt lat="39.730201149951725" lon="9.325438996586707"><ele>702.0</ele><time>2026-04-28T10:30:24.955Z</time></trkpt><trkpt lat="39.730164702484295" lon="9.325227067636218"><ele>702.0</ele><time>2026-04-28T10:30:25.955Z</time></trkpt><trkpt lat="39.730067094205765" lon="9.325038094466363"><ele>700.5</ele><time>2026-04-28T10:30:26.955Z</time></trkpt><trkpt lat="39.73001971328623" lon="9.324874544297266"><ele>699.0</ele><time>2026-04-28T10:30:27.955Z</time></trkpt><trkpt lat="39.73006447398665" lon="9.324732577659896"><ele>697.5</ele><time>2026-04-28T10:30:28.955Z</time></trkpt><trkpt lat="39.730168625620045" lon="9.324631618769983"><ele>696.0</ele><time>2026-04-28T10:30:29.955Z</time></trkpt><trkpt lat="39.73030538596724" lon="9.324603889581757"><ele>693.0</ele><time>2026-04-28T10:30:30.955Z</time></trkpt><trkpt lat="39.730453051935655" lon="9.324666000429138"><ele>690.0</ele><time>2026-04-28T10:30:31.955Z</time></trkpt><trkpt lat="39.73060067078684" lon="9.324775176288169"><ele>687.0</ele><time>2026-04-28T10:30:32.955Z</time></trkpt><trkpt lat="39.73074162517343" lon="9.324886803559908"><ele>694.0</ele><time>2026-04-28T10:30:33.955Z</time></trkpt><trkpt lat="39.73089809082237" lon="9.324973981122424"><ele>701.0</ele><time>2026-04-28T10:30:34.955Z</time></trkpt><trkpt lat="39.731061540218924" lon="9.325057814051695"><ele>708.0</ele><time>2026-04-28T10:30:35.955Z</time></trkpt><trkpt lat="39.73123371853171" lon="9.325106606425786"><ele>712.6666666666666</ele><time>2026-04-28T10:30:36.955Z</time></trkpt><trkpt lat="39.73140856306934" lon="9.32508650969745"><ele>717.3333333333333</ele><time>2026-04-28T10:30:37.955Z</time></trkpt><trkpt lat="39.73157492116347" lon="9.324996578144017"><ele>722.0</ele><time>2026-04-28T10:30:38.955Z</time></trkpt><trkpt lat="39.73173245925411" lon="9.324873162879506"><ele>722.0</ele><time>2026-04-28T10:30:39.955Z</time></trkpt><trkpt lat="39.731853658067784" lon="9.32474310230786"><ele>722.0</ele><time>2026-04-28T10:30:40.956Z</time></trkpt><trkpt lat="39.731924175400025" lon="9.324597607601927"><ele>722.0</ele><time>2026-04-28T10:30:41.955Z</time></trkpt><trkpt lat="39.73192927529808" lon="9.324406628800379"><ele>722.0</ele><time>2026-04-28T10:30:42.955Z</time></trkpt><trkpt lat="39.73187315446578" lon="9.324204695911668"><ele>722.5</ele><time>2026-04-28T10:30:43.956Z</time></trkpt><trkpt lat="39.7317974516281" lon="9.324024140903063"><ele>723.0</ele><time>2026-04-28T10:30:44.955Z</time></trkpt><trkpt lat="39.731794194205705" lon="9.323864914629016"><ele>723.5</ele><time>2026-04-28T10:30:45.955Z</time></trkpt><trkpt lat="39.73185918328206" lon="9.323706219123382"><ele>724.0</ele><time>2026-04-28T10:30:46.956Z</time></trkpt><trkpt lat="39.73197842349689" lon="9.323580446977667"><ele>724.0</ele><time>2026-04-28T10:30:47.955Z</time></trkpt><trkpt lat="39.73213167139571" lon="9.323510573094982"><ele>724.0</ele><time>2026-04-28T10:30:48.955Z</time></trkpt><trkpt lat="39.732313059394926" lon="9.323505005483327"><ele>724.0</ele><time>2026-04-28T10:30:49.956Z</time></trkpt><trkpt lat="39.732499377151434" lon="9.323513897910699"><ele>724.0</ele><time>2026-04-28T10:30:50.956Z</time></trkpt><trkpt lat="39.7326797902762" lon="9.323499235959957"><ele>724.0</ele><time>2026-04-28T10:30:51.956Z</time></trkpt><trkpt lat="39.73282258620826" lon="9.323444899313015"><ele>724.0</ele><time>2026-04-28T10:30:52.956Z</time></trkpt><trkpt lat="39.732918837982666" lon="9.323309980796855"><ele>725.3333333333334</ele><time>2026-04-28T10:30:53.955Z</time></trkpt><trkpt lat="39.73297765624733" lon="9.323109315149368"><ele>726.6666666666666</ele><time>2026-04-28T10:30:54.955Z</time></trkpt><trkpt lat="39.73302770747792" lon="9.322903831903954"><ele>728.0</ele><time>2026-04-28T10:30:55.955Z</time></trkpt><trkpt lat="39.733122522599544" lon="9.322785379884662"><ele>728.0</ele><time>2026-04-28T10:30:56.955Z</time></trkpt><trkpt lat="39.733274653331755" lon="9.32271385545775"><ele>728.0</ele><time>2026-04-28T10:30:57.955Z</time></trkpt><trkpt lat="39.733456050672096" lon="9.322657387140973"><ele>728.0</ele><time>2026-04-28T10:30:58.955Z</time></trkpt><trkpt lat="39.73362333509002" lon="9.32256097505893"><ele>734.3333333333333</ele><time>2026-04-28T10:30:59.955Z</time></trkpt><trkpt lat="39.73378353332888" lon="9.322444416693004"><ele>740.6666666666666</ele><time>2026-04-28T10:31:00.955Z</time></trkpt><trkpt lat="39.73394177137422" lon="9.32229407696264"><ele>747.0</ele><time>2026-04-28T10:31:01.955Z</time></trkpt><trkpt lat="39.7340688053323" lon="9.322105705970742"><ele>747.0</ele><time>2026-04-28T10:31:02.955Z</time></trkpt><trkpt lat="39.73418764970575" lon="9.32194138570116"><ele>747.0</ele><time>2026-04-28T10:31:03.955Z</time></trkpt><trkpt lat="39.73426559719368" lon="9.321780916601105"><ele>747.0</ele><time>2026-04-28T10:31:04.955Z</time></trkpt><trkpt lat="39.73428780146544" lon="9.321590700617962"><ele>748.3333333333334</ele><time>2026-04-28T10:31:05.955Z</time></trkpt><trkpt lat="39.734233214088384" lon="9.321379987805122"><ele>749.6666666666667</ele><time>2026-04-28T10:31:06.955Z</time></trkpt><trkpt lat="39.73419021775416" lon="9.321158562646467"><ele>751.0</ele><time>2026-04-28T10:31:07.955Z</time></trkpt><trkpt lat="39.73421410091351" lon="9.320925962538123"><ele>751.0</ele><time>2026-04-28T10:31:08.955Z</time></trkpt><trkpt lat="39.734269148055105" lon="9.320698350104847"><ele>751.0</ele><time>2026-04-28T10:31:09.955Z</time></trkpt><trkpt lat="39.73429207313349" lon="9.32049621856665"><ele>751.0</ele><time>2026-04-28T10:31:10.955Z</time></trkpt><trkpt lat="39.734236233539924" lon="9.320302501014858"><ele>752.0</ele><time>2026-04-28T10:31:11.955Z</time></trkpt><trkpt lat="39.73412927204299" lon="9.320120569396584"><ele>753.0</ele><time>2026-04-28T10:31:12.955Z</time></trkpt><trkpt lat="39.73404324573338" lon="9.319944118590117"><ele>754.0</ele><time>2026-04-28T10:31:13.955Z</time></trkpt><trkpt lat="39.734015815457234" lon="9.319759156587704"><ele>752.3333333333334</ele><time>2026-04-28T10:31:14.955Z</time></trkpt><trkpt lat="39.734048643334134" lon="9.319564071658803"><ele>750.6666666666666</ele><time>2026-04-28T10:31:15.955Z</time></trkpt><trkpt lat="39.734145049897215" lon="9.319376342548862"><ele>749.0</ele><time>2026-04-28T10:31:16.955Z</time></trkpt><trkpt lat="39.73428174019592" lon="9.319259303827321"><ele>753.0</ele><time>2026-04-28T10:31:17.955Z</time></trkpt><trkpt lat="39.734453199657985" lon="9.319200108182134"><ele>757.0</ele><time>2026-04-28T10:31:18.955Z</time></trkpt><trkpt lat="39.73465690774132" lon="9.319178982550497"><ele>761.0</ele><time>2026-04-28T10:31:19.955Z</time></trkpt><trkpt lat="39.734854439596916" lon="9.319122467905194"><ele>761.0</ele><time>2026-04-28T10:31:20.955Z</time></trkpt><trkpt lat="39.735031578168396" lon="9.319056513944167"><ele>761.0</ele><time>2026-04-28T10:31:21.955Z</time></trkpt><trkpt lat="39.735174358893765" lon="9.318950931731997"><ele>761.0</ele><time>2026-04-28T10:31:22.955Z</time></trkpt><trkpt lat="39.73526256322508" lon="9.318791117048164"><ele>763.6666666666666</ele><time>2026-04-28T10:31:23.955Z</time></trkpt><trkpt lat="39.735287676868346" lon="9.318559355689006"><ele>766.3333333333333</ele><time>2026-04-28T10:31:24.955Z</time></trkpt><trkpt lat="39.73525331191129" lon="9.318310708144974"><ele>769.0</ele><time>2026-04-28T10:31:25.955Z</time></trkpt><trkpt lat="39.73521810009211" lon="9.318077788481233"><ele>765.0</ele><time>2026-04-28T10:31:26.955Z</time></trkpt><trkpt lat="39.73522098480002" lon="9.317888415760176"><ele>761.0</ele><time>2026-04-28T10:31:27.955Z</time></trkpt><trkpt lat="39.735255812406976" lon="9.317724240679508"><ele>757.0</ele><time>2026-04-28T10:31:28.955Z</time></trkpt><trkpt lat="39.7353493584869" lon="9.317570434751145"><ele>753.0</ele><time>2026-04-28T10:31:29.955Z</time></trkpt><trkpt lat="39.735480412137875" lon="9.31747968361484"><ele>753.0</ele><time>2026-04-28T10:31:30.955Z</time></trkpt><trkpt lat="39.73562965264982" lon="9.31742180979035"><ele>753.0</ele><time>2026-04-28T10:31:31.955Z</time></trkpt><trkpt lat="39.73580212835001" lon="9.317399069082093"><ele>753.0</ele><time>2026-04-28T10:31:32.955Z</time></trkpt><trkpt lat="39.735981570524906" lon="9.317361604587475"><ele>750.0</ele><time>2026-04-28T10:31:33.955Z</time></trkpt><trkpt lat="39.73614913637791" lon="9.317303131675622"><ele>747.0</ele><time>2026-04-28T10:31:34.955Z</time></trkpt><trkpt lat="39.73630950321004" lon="9.31725310013703"><ele>744.0</ele><time>2026-04-28T10:31:35.955Z</time></trkpt><trkpt lat="39.73644795929474" lon="9.317236622784911"><ele>744.0</ele><time>2026-04-28T10:31:36.955Z</time></trkpt><trkpt lat="39.73656600231401" lon="9.31728739952533"><ele>744.0</ele><time>2026-04-28T10:31:37.955Z</time></trkpt><trkpt lat="39.736637125220966" lon="9.317434016597572"><ele>744.0</ele><time>2026-04-28T10:31:38.955Z</time></trkpt><trkpt lat="39.73666545110411" lon="9.317628872354826"><ele>744.0</ele><time>2026-04-28T10:31:39.955Z</time></trkpt><trkpt lat="39.73667916813428" lon="9.317846719888555"><ele>744.0</ele><time>2026-04-28T10:31:40.955Z</time></trkpt><trkpt lat="39.73671920770352" lon="9.318019658652823"><ele>744.0</ele><time>2026-04-28T10:31:41.955Z</time></trkpt><trkpt lat="39.73679336608175" lon="9.31814980123377"><ele>744.0</ele><time>2026-04-28T10:31:42.954Z</time></trkpt><trkpt lat="39.736908759394524" lon="9.318213942098986"><ele>744.0</ele><time>2026-04-28T10:31:43.954Z</time></trkpt><trkpt lat="39.737053498608205" lon="9.318201029476242"><ele>741.0</ele><time>2026-04-28T10:31:44.954Z</time></trkpt><trkpt lat="39.73719590951573" lon="9.318117580755422"><ele>738.0</ele><time>2026-04-28T10:31:45.954Z</time></trkpt><trkpt lat="39.737332183441495" lon="9.317981777270209"><ele>735.0</ele><time>2026-04-28T10:31:46.954Z</time></trkpt><trkpt lat="39.73747844038247" lon="9.317842003867783"><ele>735.0</ele><time>2026-04-28T10:31:47.954Z</time></trkpt><trkpt lat="39.73760833721086" lon="9.317732327054314"><ele>735.0</ele><time>2026-04-28T10:31:48.954Z</time></trkpt><trkpt lat="39.73775030757609" lon="9.317673979898267"><ele>735.0</ele><time>2026-04-28T10:31:49.954Z</time></trkpt><trkpt lat="39.73790501355014" lon="9.317684188882358"><ele>733.0</ele><time>2026-04-28T10:31:50.954Z</time></trkpt><trkpt lat="39.738076641156184" lon="9.317731004006516"><ele>731.0</ele><time>2026-04-28T10:31:51.954Z</time></trkpt><trkpt lat="39.73824530981644" lon="9.317811778287407"><ele>729.0</ele><time>2026-04-28T10:31:52.954Z</time></trkpt><trkpt lat="39.738405435251494" lon="9.317940896187423"><ele>730.3333333333334</ele><time>2026-04-28T10:31:53.954Z</time></trkpt><trkpt lat="39.73855944728156" lon="9.318072851942595"><ele>731.6666666666667</ele><time>2026-04-28T10:31:54.954Z</time></trkpt><trkpt lat="39.73871603610054" lon="9.318206064365546"><ele>733.0</ele><time>2026-04-28T10:31:55.954Z</time></trkpt><trkpt lat="39.738860996430944" lon="9.318335994246707"><ele>733.0</ele><time>2026-04-28T10:31:56.954Z</time></trkpt><trkpt lat="39.739022830797396" lon="9.318463969799236"><ele>733.0</ele><time>2026-04-28T10:31:57.954Z</time></trkpt><trkpt lat="39.7391838801714" lon="9.318589209216874"><ele>733.0</ele><time>2026-04-28T10:31:58.954Z</time></trkpt><trkpt lat="39.73936742796041" lon="9.318672362303968"><ele>735.0</ele><time>2026-04-28T10:31:59.954Z</time></trkpt><trkpt lat="39.7395459871935" lon="9.318711205019957"><ele>737.0</ele><time>2026-04-28T10:32:00.954Z</time></trkpt><trkpt lat="39.73971109333097" lon="9.318736603140595"><ele>739.0</ele><time>2026-04-28T10:32:01.954Z</time></trkpt><trkpt lat="39.739864070231135" lon="9.318750299476568"><ele>739.0</ele><time>2026-04-28T10:32:02.954Z</time></trkpt><trkpt lat="39.739994699537746" lon="9.318711298140803"><ele>739.0</ele><time>2026-04-28T10:32:03.954Z</time></trkpt><trkpt lat="39.740093245787534" lon="9.318613431116326"><ele>739.0</ele><time>2026-04-28T10:32:04.954Z</time></trkpt><trkpt lat="39.740160814133645" lon="9.31845693239011"><ele>739.0</ele><time>2026-04-28T10:32:05.954Z</time></trkpt><trkpt lat="39.740176533193406" lon="9.318269042086023"><ele>742.6666666666667</ele><time>2026-04-28T10:32:06.954Z</time></trkpt><trkpt lat="39.74013114776463" lon="9.318060250238142"><ele>746.3333333333334</ele><time>2026-04-28T10:32:07.954Z</time></trkpt><trkpt lat="39.740028275612964" lon="9.317862787060822"><ele>750.0</ele><time>2026-04-28T10:32:08.954Z</time></trkpt><trkpt lat="39.739899243170925" lon="9.31768232621513"><ele>750.0</ele><time>2026-04-28T10:32:09.954Z</time></trkpt><trkpt lat="39.7397817046951" lon="9.31748114953543"><ele>750.0</ele><time>2026-04-28T10:32:10.954Z</time></trkpt><trkpt lat="39.739708410156084" lon="9.317257640614992"><ele>750.0</ele><time>2026-04-28T10:32:11.954Z</time></trkpt><trkpt lat="39.73968218495785" lon="9.316960840502128"><ele>753.3333333333334</ele><time>2026-04-28T10:32:12.954Z</time></trkpt><trkpt lat="39.73962824107387" lon="9.316733493876688"><ele>756.6666666666667</ele><time>2026-04-28T10:32:13.954Z</time></trkpt><trkpt lat="39.739541514562596" lon="9.316493180769204"><ele>760.0</ele><time>2026-04-28T10:32:14.954Z</time></trkpt><trkpt lat="39.73952525429156" lon="9.316378199525243"><ele>760.0</ele><time>2026-04-28T10:32:15.954Z</time></trkpt><trkpt lat="39.739439740778884" lon="9.31617336965369"><ele>760.0</ele><time>2026-04-28T10:32:16.954Z</time></trkpt><trkpt lat="39.73939319433796" lon="9.316010767087098"><ele>760.0</ele><time>2026-04-28T10:32:17.954Z</time></trkpt><trkpt lat="39.73942634526678" lon="9.315848218582772"><ele>760.0</ele><time>2026-04-28T10:32:18.954Z</time></trkpt><trkpt lat="39.73951105235304" lon="9.315713416347302"><ele>760.0</ele><time>2026-04-28T10:32:19.954Z</time></trkpt><trkpt lat="39.739648864595345" lon="9.315639105827628"><ele>760.0</ele><time>2026-04-28T10:32:20.954Z</time></trkpt><trkpt lat="39.739827815489086" lon="9.315610725733835"><ele>760.0</ele><time>2026-04-28T10:32:21.954Z</time></trkpt><trkpt lat="39.74000160826278" lon="9.31555704608207"><ele>760.75</ele><time>2026-04-28T10:32:22.954Z</time></trkpt><trkpt lat="39.740130817799866" lon="9.315467864197872"><ele>761.5</ele><time>2026-04-28T10:32:23.954Z</time></trkpt><trkpt lat="39.7402031557476" lon="9.315319905460035"><ele>762.25</ele><time>2026-04-28T10:32:24.954Z</time></trkpt><trkpt lat="39.74021405930648" lon="9.315139926750865"><ele>763.0</ele><time>2026-04-28T10:32:25.954Z</time></trkpt><trkpt lat="39.7401468019443" lon="9.314953645045666"><ele>763.0</ele><time>2026-04-28T10:32:26.954Z</time></trkpt><trkpt lat="39.740033114092135" lon="9.314766115120062"><ele>763.0</ele><time>2026-04-28T10:32:27.954Z</time></trkpt><trkpt lat="39.739908536585574" lon="9.31458736291525"><ele>763.0</ele><time>2026-04-28T10:32:28.954Z</time></trkpt><trkpt lat="39.739772458570734" lon="9.31446584603335"><ele>761.0</ele><time>2026-04-28T10:32:29.954Z</time></trkpt><trkpt lat="39.73960162029592" lon="9.314415868756658"><ele>759.0</ele><time>2026-04-28T10:32:30.954Z</time></trkpt><trkpt lat="39.739435856323105" lon="9.314411253992162"><ele>757.0</ele><time>2026-04-28T10:32:31.954Z</time></trkpt><trkpt lat="39.73932712195322" lon="9.314332628989678"><ele>757.0</ele><time>2026-04-28T10:32:32.954Z</time></trkpt><trkpt lat="39.739278753074316" lon="9.314178392049048"><ele>757.0</ele><time>2026-04-28T10:32:33.954Z</time></trkpt><trkpt lat="39.73927665306929" lon="9.31397760890315"><ele>757.0</ele><time>2026-04-28T10:32:34.954Z</time></trkpt><trkpt lat="39.739288169797156" lon="9.313761343960374"><ele>757.0</ele><time>2026-04-28T10:32:35.954Z</time></trkpt><trkpt lat="39.739291382213324" lon="9.313552144052933"><ele>759.0</ele><time>2026-04-28T10:32:36.954Z</time></trkpt><trkpt lat="39.7393374752683" lon="9.313369830285497"><ele>761.0</ele><time>2026-04-28T10:32:37.954Z</time></trkpt><trkpt lat="39.73948247184787" lon="9.313214838148214"><ele>763.0</ele><time>2026-04-28T10:32:38.954Z</time></trkpt><trkpt lat="39.73962176543024" lon="9.313145084806944"><ele>765.0</ele><time>2026-04-28T10:32:39.954Z</time></trkpt><trkpt lat="39.73976425155449" lon="9.313158066631535"><ele>767.0</ele><time>2026-04-28T10:32:40.954Z</time></trkpt><trkpt lat="39.739910274699554" lon="9.313245606823763"><ele>769.0</ele><time>2026-04-28T10:32:41.954Z</time></trkpt><trkpt lat="39.7400622649694" lon="9.313360742819679"><ele>769.0</ele><time>2026-04-28T10:32:42.954Z</time></trkpt><trkpt lat="39.740213916567264" lon="9.313443765197468"><ele>769.0</ele><time>2026-04-28T10:32:43.954Z</time></trkpt><trkpt lat="39.740382034938264" lon="9.31342194830468"><ele>769.0</ele><time>2026-04-28T10:32:44.954Z</time></trkpt><trkpt lat="39.74055935810009" lon="9.313327409230817"><ele>770.6666666666666</ele><time>2026-04-28T10:32:45.954Z</time></trkpt><trkpt lat="39.740745303040455" lon="9.313222198159716"><ele>772.3333333333333</ele><time>2026-04-28T10:32:46.955Z</time></trkpt><trkpt lat="39.74092034528475" lon="9.31313493562693"><ele>774.0</ele><time>2026-04-28T10:32:47.955Z</time></trkpt><trkpt lat="39.74107349301795" lon="9.313055845433512"><ele>775.75</ele><time>2026-04-28T10:32:48.955Z</time></trkpt><trkpt lat="39.741183994649234" lon="9.31295732246863"><ele>777.5</ele><time>2026-04-28T10:32:49.956Z</time></trkpt><trkpt lat="39.74122423525064" lon="9.312809103358454"><ele>779.25</ele><time>2026-04-28T10:32:50.955Z</time></trkpt><trkpt lat="39.74118881911248" lon="9.312621575733274"><ele>781.0</ele><time>2026-04-28T10:32:51.955Z</time></trkpt><trkpt lat="39.74109194529381" lon="9.312455588404106"><ele>776.6666666666666</ele><time>2026-04-28T10:32:52.956Z</time></trkpt><trkpt lat="39.740950002198694" lon="9.3123434616592"><ele>772.3333333333333</ele><time>2026-04-28T10:32:53.955Z</time></trkpt><trkpt lat="39.74078964404992" lon="9.312296785494373"><ele>768.0</ele><time>2026-04-28T10:32:54.955Z</time></trkpt><trkpt lat="39.7406585840288" lon="9.312234320970175"><ele>768.0</ele><time>2026-04-28T10:32:55.955Z</time></trkpt><trkpt lat="39.74059398782851" lon="9.31210827075733"><ele>768.0</ele><time>2026-04-28T10:32:56.955Z</time></trkpt><trkpt lat="39.740590900258574" lon="9.311937532215692"><ele>768.0</ele><time>2026-04-28T10:32:57.955Z</time></trkpt><trkpt lat="39.74064054043864" lon="9.311734095897641"><ele>768.0</ele><time>2026-04-28T10:32:58.955Z</time></trkpt><trkpt lat="39.740728821596704" lon="9.311557938901178"><ele>768.0</ele><time>2026-04-28T10:32:59.955Z</time></trkpt><trkpt lat="39.74079335429526" lon="9.311414826657739"><ele>768.0</ele><time>2026-04-28T10:33:00.955Z</time></trkpt><trkpt lat="39.740809746640785" lon="9.311274144652362"><ele>768.0</ele><time>2026-04-28T10:33:01.955Z</time></trkpt><trkpt lat="39.740770249057874" lon="9.311141096084741"><ele>768.0</ele><time>2026-04-28T10:33:02.955Z</time></trkpt><trkpt lat="39.74070118042718" lon="9.311020485116497"><ele>768.2</ele><time>2026-04-28T10:33:03.955Z</time></trkpt><trkpt lat="39.74059934360818" lon="9.310965588792731"><ele>768.4</ele><time>2026-04-28T10:33:04.955Z</time></trkpt><trkpt lat="39.740499023239" lon="9.31093275331306"><ele>768.6</ele><time>2026-04-28T10:33:05.955Z</time></trkpt><trkpt lat="39.74041622983978" lon="9.31090019778405"><ele>768.8000000000001</ele><time>2026-04-28T10:33:06.955Z</time></trkpt><trkpt lat="39.74034236515172" lon="9.310830216273875"><ele>769.0</ele><time>2026-04-28T10:33:07.955Z</time></trkpt><trkpt lat="39.74028353489312" lon="9.310747876773236"><ele>769.0</ele><time>2026-04-28T10:33:08.955Z</time></trkpt><trkpt lat="39.74026242728143" lon="9.310629092147316"><ele>769.0</ele><time>2026-04-28T10:33:09.955Z</time></trkpt><trkpt lat="39.74023396479239" lon="9.310510197548645"><ele>769.0</ele><time>2026-04-28T10:33:10.955Z</time></trkpt><trkpt lat="39.74020490911237" lon="9.310397437273217"><ele>769.0</ele><time>2026-04-28T10:33:11.955Z</time></trkpt><trkpt lat="39.74016584165809" lon="9.310284345026355"><ele>769.0</ele><time>2026-04-28T10:33:12.955Z</time></trkpt><trkpt lat="39.74013259280026" lon="9.310159685579784"><ele>766.4999999999999</ele><time>2026-04-28T10:33:13.955Z</time></trkpt><trkpt lat="39.74009778877622" lon="9.310045864909338"><ele>764.0</ele><time>2026-04-28T10:33:14.955Z</time></trkpt><trkpt lat="39.740061715314596" lon="9.309940131930553"><ele>761.5</ele><time>2026-04-28T10:33:15.955Z</time></trkpt><trkpt lat="39.74002914116103" lon="9.309831931405723"><ele>759.0</ele><time>2026-04-28T10:33:16.955Z</time></trkpt><trkpt lat="39.73999919468634" lon="9.309730401718971"><ele>756.5</ele><time>2026-04-28T10:33:17.955Z</time></trkpt><trkpt lat="39.73998163970062" lon="9.309635812165421"><ele>754.0</ele><time>2026-04-28T10:33:18.955Z</time></trkpt><trkpt lat="39.739981009783676" lon="9.309537785166208"><ele>753.6666666666667</ele><time>2026-04-28T10:33:19.955Z</time></trkpt><trkpt lat="39.74000278284861" lon="9.309429319719337"><ele>753.3333333333334</ele><time>2026-04-28T10:33:20.955Z</time></trkpt><trkpt lat="39.74003768333753" lon="9.309321533146935"><ele>753.0</ele><time>2026-04-28T10:33:21.955Z</time></trkpt><trkpt lat="39.74008403702168" lon="9.309212802650249"><ele>752.6666666666666</ele><time>2026-04-28T10:33:22.955Z</time></trkpt><trkpt lat="39.74013531415043" lon="9.309125464319552"><ele>752.3333333333333</ele><time>2026-04-28T10:33:23.955Z</time></trkpt><trkpt lat="39.74018834636391" lon="9.309033500910722"><ele>752.0</ele><time>2026-04-28T10:33:24.955Z</time></trkpt><trkpt lat="39.74023586948186" lon="9.30894090186946"><ele>749.4000000000001</ele><time>2026-04-28T10:33:25.955Z</time></trkpt><trkpt lat="39.74028447421605" lon="9.308848689330858"><ele>746.8000000000001</ele><time>2026-04-28T10:33:26.955Z</time></trkpt><trkpt lat="39.74034214739631" lon="9.308766086233813"><ele>744.2</ele><time>2026-04-28T10:33:27.954Z</time></trkpt><trkpt lat="39.740426174310215" lon="9.308713017458517"><ele>741.6</ele><time>2026-04-28T10:33:28.954Z</time></trkpt><trkpt lat="39.74052746560443" lon="9.308680470289595"><ele>739.0</ele><time>2026-04-28T10:33:29.954Z</time></trkpt><trkpt lat="39.74063401458277" lon="9.308668446581795"><ele>739.0</ele><time>2026-04-28T10:33:30.954Z</time></trkpt><trkpt lat="39.74074062930644" lon="9.308675308588022"><ele>739.0</ele><time>2026-04-28T10:33:31.954Z</time></trkpt><trkpt lat="39.740842536144285" lon="9.30868641184252"><ele>739.0</ele><time>2026-04-28T10:33:32.954Z</time></trkpt><trkpt lat="39.74094568028794" lon="9.30870895442311"><ele>739.0</ele><time>2026-04-28T10:33:33.954Z</time></trkpt><trkpt lat="39.74104646723197" lon="9.308729158434623"><ele>739.0</ele><time>2026-04-28T10:33:34.954Z</time></trkpt><trkpt lat="39.74114156244026" lon="9.308738563225717"><ele>740.5</ele><time>2026-04-28T10:33:35.954Z</time></trkpt><trkpt lat="39.74122189877747" lon="9.308734261315886"><ele>742.0</ele><time>2026-04-28T10:33:36.954Z</time></trkpt><trkpt lat="39.741292682663534" lon="9.308698956167934"><ele>743.5</ele><time>2026-04-28T10:33:37.954Z</time></trkpt><trkpt lat="39.74135268184885" lon="9.308619550593134"><ele>745.0</ele><time>2026-04-28T10:33:38.954Z</time></trkpt><trkpt lat="39.74140024271157" lon="9.308522805882916"><ele>746.5</ele><time>2026-04-28T10:33:39.954Z</time></trkpt><trkpt lat="39.74142807745931" lon="9.308398697486032"><ele>748.0</ele><time>2026-04-28T10:33:40.954Z</time></trkpt><trkpt lat="39.741437261034235" lon="9.308262815847515"><ele>748.0</ele><time>2026-04-28T10:33:41.954Z</time></trkpt><trkpt lat="39.741437501632205" lon="9.308116169170674"><ele>748.0</ele><time>2026-04-28T10:33:42.954Z</time></trkpt><trkpt lat="39.74144292317213" lon="9.307971702620659"><ele>748.0</ele><time>2026-04-28T10:33:43.954Z</time></trkpt><trkpt lat="39.74144263477107" lon="9.307819080409711"><ele>748.0</ele><time>2026-04-28T10:33:44.954Z</time></trkpt><trkpt lat="39.74141529021633" lon="9.307642214986492"><ele>748.3333333333334</ele><time>2026-04-28T10:33:45.954Z</time></trkpt><trkpt lat="39.74136763718893" lon="9.30742896471821"><ele>748.6666666666666</ele><time>2026-04-28T10:33:46.954Z</time></trkpt><trkpt lat="39.74129699610237" lon="9.307202960226784"><ele>749.0</ele><time>2026-04-28T10:33:47.954Z</time></trkpt><trkpt lat="39.74123128808806" lon="9.306970853936217"><ele>750.0</ele><time>2026-04-28T10:33:48.954Z</time></trkpt><trkpt lat="39.74117658498152" lon="9.30675115988941"><ele>751.0</ele><time>2026-04-28T10:33:49.954Z</time></trkpt><trkpt lat="39.741140037527295" lon="9.306533323638181"><ele>752.0</ele><time>2026-04-28T10:33:50.954Z</time></trkpt><trkpt lat="39.74112467803026" lon="9.306297672389517"><ele>752.0</ele><time>2026-04-28T10:33:51.954Z</time></trkpt><trkpt lat="39.74113655704948" lon="9.306056898260683"><ele>752.0</ele><time>2026-04-28T10:33:52.954Z</time></trkpt><trkpt lat="39.74117291464176" lon="9.305824801182156"><ele>752.0</ele><time>2026-04-28T10:33:53.954Z</time></trkpt><trkpt lat="39.74123930822591" lon="9.305613299052666"><ele>748.6666666666666</ele><time>2026-04-28T10:33:54.954Z</time></trkpt><trkpt lat="39.74132419223232" lon="9.305406473496191"><ele>745.3333333333334</ele><time>2026-04-28T10:33:55.954Z</time></trkpt><trkpt lat="39.74139395214552" lon="9.305208820002761"><ele>742.0</ele><time>2026-04-28T10:33:56.954Z</time></trkpt><trkpt lat="39.74147468175843" lon="9.305048902034704"><ele>742.0</ele><time>2026-04-28T10:33:57.954Z</time></trkpt><trkpt lat="39.74158664867073" lon="9.304927941072162"><ele>742.0</ele><time>2026-04-28T10:33:58.954Z</time></trkpt><trkpt lat="39.74172464205543" lon="9.304832405238649"><ele>742.0</ele><time>2026-04-28T10:33:59.954Z</time></trkpt><trkpt lat="39.74185948511587" lon="9.304735587642654"><ele>741.0</ele><time>2026-04-28T10:34:00.954Z</time></trkpt><trkpt lat="39.741988943276624" lon="9.304633128984044"><ele>740.0</ele><time>2026-04-28T10:34:01.954Z</time></trkpt><trkpt lat="39.7421111262964" lon="9.304532430454046"><ele>739.0</ele><time>2026-04-28T10:34:02.954Z</time></trkpt><trkpt lat="39.742225659105195" lon="9.304443355603496"><ele>738.0</ele><time>2026-04-28T10:34:03.954Z</time></trkpt><trkpt lat="39.742329508621715" lon="9.304355754186204"><ele>738.0</ele><time>2026-04-28T10:34:04.954Z</time></trkpt><trkpt lat="39.74243680247898" lon="9.30428599783832"><ele>738.0</ele><time>2026-04-28T10:34:05.954Z</time></trkpt><trkpt lat="39.742546621217194" lon="9.30425415721708"><ele>738.0</ele><time>2026-04-28T10:34:06.954Z</time></trkpt><trkpt lat="39.742659674723015" lon="9.304266608776954"><ele>738.0</ele><time>2026-04-28T10:34:07.954Z</time></trkpt><trkpt lat="39.74277234309845" lon="9.30431699994166"><ele>738.0</ele><time>2026-04-28T10:34:08.954Z</time></trkpt><trkpt lat="39.74289024849909" lon="9.304367890842217"><ele>738.0</ele><time>2026-04-28T10:34:09.954Z</time></trkpt><trkpt lat="39.74301163848275" lon="9.304412520938595"><ele>738.0</ele><time>2026-04-28T10:34:10.954Z</time></trkpt><trkpt lat="39.74313511467989" lon="9.304446684190186"><ele>738.0</ele><time>2026-04-28T10:34:11.954Z</time></trkpt><trkpt lat="39.74325804572944" lon="9.304485545408044"><ele>738.0</ele><time>2026-04-28T10:34:12.954Z</time></trkpt><trkpt lat="39.74337728260879" lon="9.304518493586345"><ele>738.0</ele><time>2026-04-28T10:34:13.954Z</time></trkpt><trkpt lat="39.74349361434302" lon="9.30455647076449"><ele>738.0</ele><time>2026-04-28T10:34:14.954Z</time></trkpt><trkpt lat="39.74360534037791" lon="9.304596847961985"><ele>738.0</ele><time>2026-04-28T10:34:15.954Z</time></trkpt><trkpt lat="39.74371529016402" lon="9.30462814234199"><ele>740.2</ele><time>2026-04-28T10:34:16.954Z</time></trkpt><trkpt lat="39.74382229527705" lon="9.304643408113131"><ele>742.4</ele><time>2026-04-28T10:34:17.954Z</time></trkpt><trkpt lat="39.7439197807539" lon="9.304612872850551"><ele>744.6</ele><time>2026-04-28T10:34:18.954Z</time></trkpt><trkpt lat="39.74400387104188" lon="9.304540638246602"><ele>746.8000000000001</ele><time>2026-04-28T10:34:19.954Z</time></trkpt><trkpt lat="39.74406688778421" lon="9.304432439717154"><ele>749.0</ele><time>2026-04-28T10:34:20.954Z</time></trkpt><trkpt lat="39.744082455169234" lon="9.304288057487396"><ele>749.0</ele><time>2026-04-28T10:34:21.954Z</time></trkpt><trkpt lat="39.74403500979305" lon="9.304130968228463"><ele>749.0</ele><time>2026-04-28T10:34:22.954Z</time></trkpt><trkpt lat="39.74397971466034" lon="9.304008404701241"><ele>749.0</ele><time>2026-04-28T10:34:23.954Z</time></trkpt><trkpt lat="39.74390798725215" lon="9.303893846786513"><ele>749.0</ele><time>2026-04-28T10:34:24.954Z</time></trkpt><trkpt lat="39.743849415624844" lon="9.303771189843891"><ele>749.4000000000001</ele><time>2026-04-28T10:34:25.954Z</time></trkpt><trkpt lat="39.743798751008065" lon="9.30364732734164"><ele>749.8</ele><time>2026-04-28T10:34:26.954Z</time></trkpt><trkpt lat="39.74377969633959" lon="9.30352129741967"><ele>750.2</ele><time>2026-04-28T10:34:27.954Z</time></trkpt><trkpt lat="39.743809628680694" lon="9.303382180446864"><ele>750.5999999999999</ele><time>2026-04-28T10:34:28.954Z</time></trkpt><trkpt lat="39.7438656279044" lon="9.303249457375676"><ele>751.0</ele><time>2026-04-28T10:34:29.954Z</time></trkpt><trkpt lat="39.74394228018661" lon="9.303139569834707"><ele>752.5</ele><time>2026-04-28T10:34:30.954Z</time></trkpt><trkpt lat="39.74403283240499" lon="9.303068521190124"><ele>754.0</ele><time>2026-04-28T10:34:31.954Z</time></trkpt><trkpt lat="39.74414027660106" lon="9.30302293958566"><ele>755.5</ele><time>2026-04-28T10:34:32.954Z</time></trkpt><trkpt lat="39.74427152937412" lon="9.303017281367238"><ele>757.0</ele><time>2026-04-28T10:34:33.954Z</time></trkpt><trkpt lat="39.74440209438533" lon="9.302999627698727"><ele>757.0</ele><time>2026-04-28T10:34:34.953Z</time></trkpt><trkpt lat="39.744527020356195" lon="9.302972868101396"><ele>757.0</ele><time>2026-04-28T10:34:35.953Z</time></trkpt><trkpt lat="39.74465472938697" lon="9.302941206389624"><ele>757.0</ele><time>2026-04-28T10:34:36.953Z</time></trkpt><trkpt lat="39.74478420795385" lon="9.302909009220418"><ele>757.0</ele><time>2026-04-28T10:34:37.953Z</time></trkpt><trkpt lat="39.74491907970248" lon="9.302876149663266"><ele>757.0</ele><time>2026-04-28T10:34:38.953Z</time></trkpt><trkpt lat="39.74505910102882" lon="9.3028427297004"><ele>757.0</ele><time>2026-04-28T10:34:39.953Z</time></trkpt><trkpt lat="39.74519381258388" lon="9.302796503242464"><ele>757.0</ele><time>2026-04-28T10:34:40.953Z</time></trkpt><trkpt lat="39.745291359081726" lon="9.30269819060893"><ele>757.0</ele><time>2026-04-28T10:34:41.953Z</time></trkpt><trkpt lat="39.74533605697458" lon="9.302547355332917"><ele>757.25</ele><time>2026-04-28T10:34:42.953Z</time></trkpt><trkpt lat="39.745332519739904" lon="9.302373088275266"><ele>757.5</ele><time>2026-04-28T10:34:43.953Z</time></trkpt><trkpt lat="39.745273705071085" lon="9.302189224182687"><ele>757.75</ele><time>2026-04-28T10:34:44.953Z</time></trkpt><trkpt lat="39.745185769272574" lon="9.302015775598088"><ele>758.0</ele><time>2026-04-28T10:34:45.953Z</time></trkpt><trkpt lat="39.74509847371226" lon="9.301846675867296"><ele>758.0</ele><time>2026-04-28T10:34:46.953Z</time></trkpt><trkpt lat="39.745025768604215" lon="9.301671220755322"><ele>758.0</ele><time>2026-04-28T10:34:47.953Z</time></trkpt><trkpt lat="39.74500599898526" lon="9.301500932353887"><ele>758.0</ele><time>2026-04-28T10:34:48.953Z</time></trkpt><trkpt lat="39.745027158852004" lon="9.301321434752186"><ele>758.0</ele><time>2026-04-28T10:34:49.953Z</time></trkpt><trkpt lat="39.745082007777114" lon="9.301158749555032"><ele>758.3333333333333</ele><time>2026-04-28T10:34:50.953Z</time></trkpt><trkpt lat="39.745178495593294" lon="9.301023697748262"><ele>758.6666666666666</ele><time>2026-04-28T10:34:51.953Z</time></trkpt><trkpt lat="39.74531000611859" lon="9.300915166411817"><ele>759.0</ele><time>2026-04-28T10:34:52.955Z</time></trkpt><trkpt lat="39.74543651346954" lon="9.300787662225245"><ele>759.0</ele><time>2026-04-28T10:34:53.955Z</time></trkpt><trkpt lat="39.74556941272226" lon="9.300660731527257"><ele>759.0</ele><time>2026-04-28T10:34:54.955Z</time></trkpt><trkpt lat="39.74570765135195" lon="9.30056114141026"><ele>759.0</ele><time>2026-04-28T10:34:55.954Z</time></trkpt><trkpt lat="39.74583931573716" lon="9.300485804125632"><ele>751.6666666666666</ele><time>2026-04-28T10:34:56.954Z</time></trkpt><trkpt lat="39.74597007739648" lon="9.30047207487064"><ele>744.3333333333333</ele><time>2026-04-28T10:34:57.954Z</time></trkpt><trkpt lat="39.74612318699321" lon="9.300501470391108"><ele>737.0</ele><time>2026-04-28T10:34:58.955Z</time></trkpt><trkpt lat="39.74628602619665" lon="9.300546067042875"><ele>741.3333333333333</ele><time>2026-04-28T10:34:59.955Z</time></trkpt><trkpt lat="39.74645712554263" lon="9.300593989508409"><ele>745.6666666666666</ele><time>2026-04-28T10:35:00.955Z</time></trkpt><trkpt lat="39.74660476187663" lon="9.3006850685308"><ele>750.0</ele><time>2026-04-28T10:35:01.955Z</time></trkpt><trkpt lat="39.74673533212662" lon="9.300815137786055"><ele>750.0</ele><time>2026-04-28T10:35:02.954Z</time></trkpt><trkpt lat="39.74687769042042" lon="9.30093862673363"><ele>750.0</ele><time>2026-04-28T10:35:03.954Z</time></trkpt><trkpt lat="39.74703722235964" lon="9.301010894909922"><ele>750.0</ele><time>2026-04-28T10:35:04.955Z</time></trkpt><trkpt lat="39.74720689964701" lon="9.301064446392045"><ele>749.25</ele><time>2026-04-28T10:35:05.954Z</time></trkpt><trkpt lat="39.74736390433388" lon="9.301113511465756"><ele>748.5</ele><time>2026-04-28T10:35:06.954Z</time></trkpt><trkpt lat="39.74750362219887" lon="9.301144294187802"><ele>747.75</ele><time>2026-04-28T10:35:07.954Z</time></trkpt><trkpt lat="39.74763370697983" lon="9.301137872688317"><ele>747.0</ele><time>2026-04-28T10:35:08.954Z</time></trkpt><trkpt lat="39.74774687939393" lon="9.301071339309082"><ele>752.6666666666666</ele><time>2026-04-28T10:35:09.954Z</time></trkpt><trkpt lat="39.74784014604461" lon="9.300935729652952"><ele>758.3333333333333</ele><time>2026-04-28T10:35:10.954Z</time></trkpt><trkpt lat="39.747933052188216" lon="9.300772895165075"><ele>764.0</ele><time>2026-04-28T10:35:11.954Z</time></trkpt><trkpt lat="39.74800077598963" lon="9.300582278797801"><ele>764.0</ele><time>2026-04-28T10:35:12.954Z</time></trkpt><trkpt lat="39.74804001680437" lon="9.300366575743746"><ele>764.0</ele><time>2026-04-28T10:35:13.954Z</time></trkpt><trkpt lat="39.74804794427264" lon="9.300154839567497"><ele>764.0</ele><time>2026-04-28T10:35:14.954Z</time></trkpt><trkpt lat="39.74805335110935" lon="9.299930671188445"><ele>761.25</ele><time>2026-04-28T10:35:15.954Z</time></trkpt><trkpt lat="39.74806170065622" lon="9.299714784351195"><ele>758.5</ele><time>2026-04-28T10:35:16.954Z</time></trkpt><trkpt lat="39.74807932522627" lon="9.299518729758226"><ele>755.75</ele><time>2026-04-28T10:35:17.954Z</time></trkpt><trkpt lat="39.74813030127049" lon="9.29936227403772"><ele>753.0</ele><time>2026-04-28T10:35:18.954Z</time></trkpt><trkpt lat="39.7482317307626" lon="9.299231005549656"><ele>753.0</ele><time>2026-04-28T10:35:19.954Z</time></trkpt><trkpt lat="39.74835916679591" lon="9.299106560046859"><ele>753.0</ele><time>2026-04-28T10:35:20.954Z</time></trkpt><trkpt lat="39.74851248789953" lon="9.299008234524713"><ele>753.0</ele><time>2026-04-28T10:35:21.954Z</time></trkpt><trkpt lat="39.74869169305513" lon="9.298936488899495"><ele>755.6666666666666</ele><time>2026-04-28T10:35:22.954Z</time></trkpt><trkpt lat="39.74885272924349" lon="9.298847145603181"><ele>758.3333333333333</ele><time>2026-04-28T10:35:23.954Z</time></trkpt><trkpt lat="39.74898952607218" lon="9.29873623508072"><ele>761.0</ele><time>2026-04-28T10:35:24.954Z</time></trkpt><trkpt lat="39.74907659859893" lon="9.298589037562953"><ele>761.0</ele><time>2026-04-28T10:35:25.954Z</time></trkpt><trkpt lat="39.74911100777035" lon="9.298399220249193"><ele>761.0</ele><time>2026-04-28T10:35:26.954Z</time></trkpt><trkpt lat="39.74909099789067" lon="9.298187077353399"><ele>761.0</ele><time>2026-04-28T10:35:27.954Z</time></trkpt><trkpt lat="39.7490399764652" lon="9.297986818452125"><ele>758.0</ele><time>2026-04-28T10:35:28.954Z</time></trkpt><trkpt lat="39.74901296613192" lon="9.297815537326073"><ele>755.0</ele><time>2026-04-28T10:35:29.954Z</time></trkpt><trkpt lat="39.74903729830291" lon="9.297648089901541"><ele>752.0</ele><time>2026-04-28T10:35:30.954Z</time></trkpt><trkpt lat="39.74910547640979" lon="9.297507242312925"><ele>749.0</ele><time>2026-04-28T10:35:31.954Z</time></trkpt><trkpt lat="39.74921586729115" lon="9.297405532545124"><ele>749.0</ele><time>2026-04-28T10:35:32.954Z</time></trkpt><trkpt lat="39.74936725444101" lon="9.297319853434367"><ele>749.0</ele><time>2026-04-28T10:35:33.954Z</time></trkpt><trkpt lat="39.749542664040206" lon="9.297232060480749"><ele>749.0</ele><time>2026-04-28T10:35:34.954Z</time></trkpt><trkpt lat="39.74973651411845" lon="9.29716245268301"><ele>745.6666666666666</ele><time>2026-04-28T10:35:35.954Z</time></trkpt><trkpt lat="39.74992047796115" lon="9.297111643298313"><ele>742.3333333333334</ele><time>2026-04-28T10:35:36.954Z</time></trkpt><trkpt lat="39.75008871683087" lon="9.297092867478854"><ele>739.0</ele><time>2026-04-28T10:35:37.954Z</time></trkpt><trkpt lat="39.75024777590448" lon="9.297126440674983"><ele>739.0</ele><time>2026-04-28T10:35:38.954Z</time></trkpt><trkpt lat="39.7503926983204" lon="9.297206510934231"><ele>739.0</ele><time>2026-04-28T10:35:39.954Z</time></trkpt><trkpt lat="39.75054054621934" lon="9.297328931343792"><ele>739.0</ele><time>2026-04-28T10:35:40.954Z</time></trkpt><trkpt lat="39.750689607864516" lon="9.29745694368138"><ele>741.75</ele><time>2026-04-28T10:35:41.954Z</time></trkpt><trkpt lat="39.75081984251858" lon="9.29756947615164"><ele>744.5</ele><time>2026-04-28T10:35:42.954Z</time></trkpt><trkpt lat="39.75093843042512" lon="9.297631143836123"><ele>747.25</ele><time>2026-04-28T10:35:43.954Z</time></trkpt><trkpt lat="39.751061685969205" lon="9.297632392418823"><ele>750.0</ele><time>2026-04-28T10:35:44.954Z</time></trkpt><trkpt lat="39.751159782455176" lon="9.297559378217914"><ele>753.5</ele><time>2026-04-28T10:35:45.954Z</time></trkpt><trkpt lat="39.751228072166256" lon="9.297413010823357"><ele>757.0</ele><time>2026-04-28T10:35:46.954Z</time></trkpt><trkpt lat="39.75123713540617" lon="9.297239834496224"><ele>760.5</ele><time>2026-04-28T10:35:47.954Z</time></trkpt><trkpt lat="39.75120185816235" lon="9.297042974048424"><ele>764.0</ele><time>2026-04-28T10:35:48.954Z</time></trkpt><trkpt lat="39.751155724620844" lon="9.296839934494832"><ele>764.0</ele><time>2026-04-28T10:35:49.954Z</time></trkpt><trkpt lat="39.75111913498455" lon="9.296645456322432"><ele>764.0</ele><time>2026-04-28T10:35:50.954Z</time></trkpt><trkpt lat="39.75112964057348" lon="9.296462929845312"><ele>764.0</ele><time>2026-04-28T10:35:51.954Z</time></trkpt><trkpt lat="39.75119763185985" lon="9.296277488983723"><ele>761.3333333333333</ele><time>2026-04-28T10:35:52.954Z</time></trkpt><trkpt lat="39.75129585774277" lon="9.296091832623501"><ele>758.6666666666666</ele><time>2026-04-28T10:35:53.954Z</time></trkpt><trkpt lat="39.751360614215386" lon="9.29590455080613"><ele>756.0</ele><time>2026-04-28T10:35:54.954Z</time></trkpt><trkpt lat="39.751345680269914" lon="9.295701170799775"><ele>754.25</ele><time>2026-04-28T10:35:55.953Z</time></trkpt><trkpt lat="39.75128694554784" lon="9.29549554527698"><ele>752.5</ele><time>2026-04-28T10:35:56.953Z</time></trkpt><trkpt lat="39.751260599671035" lon="9.295313653560148"><ele>750.75</ele><time>2026-04-28T10:35:57.953Z</time></trkpt><trkpt lat="39.75125707641647" lon="9.295144559280313"><ele>749.0</ele><time>2026-04-28T10:35:58.953Z</time></trkpt><trkpt lat="39.7513144654247" lon="9.295007583104118"><ele>749.0</ele><time>2026-04-28T10:35:59.953Z</time></trkpt><trkpt lat="39.751408318044255" lon="9.294920880302717"><ele>749.0</ele><time>2026-04-28T10:36:00.953Z</time></trkpt><trkpt lat="39.751520979911156" lon="9.294906408875585"><ele>749.0</ele><time>2026-04-28T10:36:01.953Z</time></trkpt><trkpt lat="39.75164333645419" lon="9.294966177768204"><ele>749.0</ele><time>2026-04-28T10:36:02.953Z</time></trkpt><trkpt lat="39.75177430236261" lon="9.295072926335807"><ele>742.6666666666666</ele><time>2026-04-28T10:36:03.953Z</time></trkpt><trkpt lat="39.75190190890401" lon="9.295215009542263"><ele>736.3333333333334</ele><time>2026-04-28T10:36:04.953Z</time></trkpt><trkpt lat="39.75203081264397" lon="9.295352379332153"><ele>730.0</ele><time>2026-04-28T10:36:05.953Z</time></trkpt><trkpt lat="39.75216268998927" lon="9.295490869932182"><ele>738.3333333333334</ele><time>2026-04-28T10:36:06.953Z</time></trkpt><trkpt lat="39.75228516730909" lon="9.29562878593475"><ele>746.6666666666666</ele><time>2026-04-28T10:36:07.953Z</time></trkpt><trkpt lat="39.75239860807744" lon="9.29576188188491"><ele>755.0</ele><time>2026-04-28T10:36:08.953Z</time></trkpt><trkpt lat="39.7525125061192" lon="9.295890319564762"><ele>755.0</ele><time>2026-04-28T10:36:09.953Z</time></trkpt><trkpt lat="39.75263432893573" lon="9.29601709613752"><ele>755.0</ele><time>2026-04-28T10:36:10.953Z</time></trkpt><trkpt lat="39.752770846305886" lon="9.296112605181799"><ele>755.0</ele><time>2026-04-28T10:36:11.953Z</time></trkpt><trkpt lat="39.75292378635174" lon="9.296157808500334"><ele>756.0</ele><time>2026-04-28T10:36:12.953Z</time></trkpt><trkpt lat="39.75307650794187" lon="9.296125570860086"><ele>757.0</ele><time>2026-04-28T10:36:13.953Z</time></trkpt><trkpt lat="39.75321343111443" lon="9.296017671504515"><ele>758.0</ele><time>2026-04-28T10:36:14.953Z</time></trkpt><trkpt lat="39.753331746863246" lon="9.295859428690223"><ele>758.0</ele><time>2026-04-28T10:36:15.953Z</time></trkpt><trkpt lat="39.753443188612806" lon="9.295681462690807"><ele>758.0</ele><time>2026-04-28T10:36:16.953Z</time></trkpt><trkpt lat="39.75355653897416" lon="9.295520557607045"><ele>758.0</ele><time>2026-04-28T10:36:17.953Z</time></trkpt><trkpt lat="39.75366781232316" lon="9.295387669499547"><ele>752.6666666666666</ele><time>2026-04-28T10:36:18.953Z</time></trkpt><trkpt lat="39.75379778100289" lon="9.29532950680725"><ele>747.3333333333334</ele><time>2026-04-28T10:36:19.953Z</time></trkpt><trkpt lat="39.753951430490524" lon="9.295321614336054"><ele>742.0</ele><time>2026-04-28T10:36:20.953Z</time></trkpt><trkpt lat="39.75411327103876" lon="9.295356051550803"><ele>742.0</ele><time>2026-04-28T10:36:21.953Z</time></trkpt><trkpt lat="39.75428660054515" lon="9.295421267095541"><ele>742.0</ele><time>2026-04-28T10:36:22.953Z</time></trkpt><trkpt lat="39.75446756949083" lon="9.295499947311782"><ele>742.0</ele><time>2026-04-28T10:36:23.953Z</time></trkpt><trkpt lat="39.754660697674645" lon="9.295581233082425"><ele>744.0</ele><time>2026-04-28T10:36:24.953Z</time></trkpt><trkpt lat="39.75486304141968" lon="9.295661058295078"><ele>746.0</ele><time>2026-04-28T10:36:25.953Z</time></trkpt><trkpt lat="39.75506635906171" lon="9.295743053768417"><ele>748.0</ele><time>2026-04-28T10:36:26.953Z</time></trkpt><trkpt lat="39.75526634993232" lon="9.295820451982552"><ele>748.0</ele><time>2026-04-28T10:36:27.953Z</time></trkpt><trkpt lat="39.755453984297425" lon="9.295893900998944"><ele>748.0</ele><time>2026-04-28T10:36:28.953Z</time></trkpt><trkpt lat="39.755642538742954" lon="9.295907927321828"><ele>748.0</ele><time>2026-04-28T10:36:29.953Z</time></trkpt><trkpt lat="39.75582293544682" lon="9.295845588331877"><ele>748.0</ele><time>2026-04-28T10:36:30.953Z</time></trkpt><trkpt lat="39.7560058289767" lon="9.295762120667797"><ele>748.0</ele><time>2026-04-28T10:36:31.953Z</time></trkpt><trkpt lat="39.75617418068957" lon="9.295694046095301"><ele>748.0</ele><time>2026-04-28T10:36:32.953Z</time></trkpt><trkpt lat="39.756302253835905" lon="9.295611796362795"><ele>746.0</ele><time>2026-04-28T10:36:33.953Z</time></trkpt><trkpt lat="39.75639450877302" lon="9.295452247951832"><ele>744.0</ele><time>2026-04-28T10:36:34.953Z</time></trkpt><trkpt lat="39.75643664109853" lon="9.295242289204019"><ele>742.0</ele><time>2026-04-28T10:36:35.953Z</time></trkpt><trkpt lat="39.756445049635104" lon="9.295050892353393"><ele>742.0</ele><time>2026-04-28T10:36:36.953Z</time></trkpt><trkpt lat="39.75649920788053" lon="9.294912269893285"><ele>742.0</ele><time>2026-04-28T10:36:37.953Z</time></trkpt><trkpt lat="39.756592766558875" lon="9.294815730768006"><ele>742.0</ele><time>2026-04-28T10:36:38.953Z</time></trkpt><trkpt lat="39.75671960521187" lon="9.29478714801298"><ele>742.0</ele><time>2026-04-28T10:36:39.953Z</time></trkpt><trkpt lat="39.75686270321026" lon="9.294834577706437"><ele>740.3333333333334</ele><time>2026-04-28T10:36:40.953Z</time></trkpt><trkpt lat="39.757023103976685" lon="9.294910025044311"><ele>738.6666666666666</ele><time>2026-04-28T10:36:41.953Z</time></trkpt><trkpt lat="39.7572025542288" lon="9.295000657473013"><ele>737.0</ele><time>2026-04-28T10:36:42.953Z</time></trkpt><trkpt lat="39.75738393063173" lon="9.295065472625797"><ele>737.0</ele><time>2026-04-28T10:36:43.953Z</time></trkpt><trkpt lat="39.75756305098943" lon="9.29507419340342"><ele>737.0</ele><time>2026-04-28T10:36:44.953Z</time></trkpt><trkpt lat="39.75774187435161" lon="9.295001957562596"><ele>737.0</ele><time>2026-04-28T10:36:45.953Z</time></trkpt><trkpt lat="39.757922081327365" lon="9.294904405138361"><ele>740.3333333333333</ele><time>2026-04-28T10:36:46.953Z</time></trkpt><trkpt lat="39.75810650666178" lon="9.294801462311646"><ele>743.6666666666666</ele><time>2026-04-28T10:36:47.953Z</time></trkpt><trkpt lat="39.75829067809848" lon="9.29471205842794"><ele>747.0</ele><time>2026-04-28T10:36:48.953Z</time></trkpt><trkpt lat="39.75845749063639" lon="9.29462147925298"><ele>750.75</ele><time>2026-04-28T10:36:49.953Z</time></trkpt><trkpt lat="39.758599286025984" lon="9.294553405248575"><ele>754.5</ele><time>2026-04-28T10:36:50.953Z</time></trkpt><trkpt lat="39.75870950641672" lon="9.294447741286502"><ele>758.25</ele><time>2026-04-28T10:36:51.953Z</time></trkpt><trkpt lat="39.75876687584971" lon="9.294287566904597"><ele>762.0</ele><time>2026-04-28T10:36:52.953Z</time></trkpt><trkpt lat="39.75877078580252" lon="9.294078403416448"><ele>761.6666666666666</ele><time>2026-04-28T10:36:53.953Z</time></trkpt><trkpt lat="39.75876382780211" lon="9.2938562297041"><ele>761.3333333333333</ele><time>2026-04-28T10:36:54.953Z</time></trkpt><trkpt lat="39.75875190014108" lon="9.293645403170359"><ele>761.0</ele><time>2026-04-28T10:36:55.953Z</time></trkpt><trkpt lat="39.75874345460077" lon="9.293447218192659"><ele>761.0</ele><time>2026-04-28T10:36:56.953Z</time></trkpt><trkpt lat="39.75876648452446" lon="9.293266790289417"><ele>761.0</ele><time>2026-04-28T10:36:57.953Z</time></trkpt><trkpt lat="39.75883800009226" lon="9.293090943295299"><ele>761.0</ele><time>2026-04-28T10:36:58.954Z</time></trkpt><trkpt lat="39.75893253557771" lon="9.292910913992477"><ele>757.3333333333333</ele><time>2026-04-28T10:36:59.954Z</time></trkpt><trkpt lat="39.759019311807656" lon="9.292718052167922"><ele>753.6666666666666</ele><time>2026-04-28T10:37:00.954Z</time></trkpt><trkpt lat="39.759071973018585" lon="9.29250170353944"><ele>750.0</ele><time>2026-04-28T10:37:01.954Z</time></trkpt><trkpt lat="39.759092444631094" lon="9.292280954719145"><ele>746.25</ele><time>2026-04-28T10:37:02.954Z</time></trkpt><trkpt lat="39.75911113914342" lon="9.292081728030647"><ele>742.5</ele><time>2026-04-28T10:37:03.954Z</time></trkpt><trkpt lat="39.75915600175109" lon="9.291918185395135"><ele>738.75</ele><time>2026-04-28T10:37:04.954Z</time></trkpt><trkpt lat="39.75923310754674" lon="9.29177742733581"><ele>735.0</ele><time>2026-04-28T10:37:05.954Z</time></trkpt><trkpt lat="39.75934836847912" lon="9.29164534595461"><ele>742.3333333333334</ele><time>2026-04-28T10:37:06.954Z</time></trkpt><trkpt lat="39.75947545432958" lon="9.291539399643092"><ele>749.6666666666667</ele><time>2026-04-28T10:37:07.954Z</time></trkpt><trkpt lat="39.75956342581792" lon="9.291374804192982"><ele>757.0</ele><time>2026-04-28T10:37:08.953Z</time></trkpt><trkpt lat="39.75961499265496" lon="9.29116500562514"><ele>757.0</ele><time>2026-04-28T10:37:09.953Z</time></trkpt><trkpt lat="39.7596870680645" lon="9.290953312827606"><ele>757.0</ele><time>2026-04-28T10:37:10.954Z</time></trkpt><trkpt lat="39.75977889167469" lon="9.290738554493293"><ele>757.0</ele><time>2026-04-28T10:37:11.954Z</time></trkpt><trkpt lat="39.7598715814603" lon="9.290516450902475"><ele>754.0</ele><time>2026-04-28T10:37:12.954Z</time></trkpt><trkpt lat="39.75993553776178" lon="9.290277699984536"><ele>751.0</ele><time>2026-04-28T10:37:13.954Z</time></trkpt><trkpt lat="39.759975314673284" lon="9.290050124014083"><ele>748.0</ele><time>2026-04-28T10:37:14.954Z</time></trkpt><trkpt lat="39.759967103882936" lon="9.289814173778842"><ele>747.6666666666667</ele><time>2026-04-28T10:37:15.954Z</time></trkpt><trkpt lat="39.759925314044594" lon="9.289576811083414"><ele>747.3333333333334</ele><time>2026-04-28T10:37:16.954Z</time></trkpt><trkpt lat="39.75988071609546" lon="9.289343469440295"><ele>747.0</ele><time>2026-04-28T10:37:17.954Z</time></trkpt><trkpt lat="39.75985683886478" lon="9.289125854473307"><ele>745.3333333333334</ele><time>2026-04-28T10:37:18.954Z</time></trkpt><trkpt lat="39.75986310067865" lon="9.288912032371517"><ele>743.6666666666667</ele><time>2026-04-28T10:37:19.954Z</time></trkpt><trkpt lat="39.75989950387235" lon="9.288676226320279"><ele>742.0</ele><time>2026-04-28T10:37:20.954Z</time></trkpt><trkpt lat="39.75994420293907" lon="9.288427002506738"><ele>742.0</ele><time>2026-04-28T10:37:21.954Z</time></trkpt><trkpt lat="39.759978557229616" lon="9.288171264151185"><ele>742.0</ele><time>2026-04-28T10:37:22.954Z</time></trkpt><trkpt lat="39.760007393651755" lon="9.28793926716015"><ele>742.0</ele><time>2026-04-28T10:37:23.954Z</time></trkpt><trkpt lat="39.7600335893147" lon="9.287736173643129"><ele>742.25</ele><time>2026-04-28T10:37:24.954Z</time></trkpt><trkpt lat="39.760091796739545" lon="9.287579236845895"><ele>742.5</ele><time>2026-04-28T10:37:25.954Z</time></trkpt><trkpt lat="39.760186992287046" lon="9.287463241976353"><ele>742.75</ele><time>2026-04-28T10:37:26.954Z</time></trkpt><trkpt lat="39.760304800342226" lon="9.287378115799367"><ele>743.0</ele><time>2026-04-28T10:37:27.954Z</time></trkpt><trkpt lat="39.76044212032688" lon="9.28732676147328"><ele>743.0</ele><time>2026-04-28T10:37:28.954Z</time></trkpt><trkpt lat="39.760595189654275" lon="9.287329216231019"><ele>743.0</ele><time>2026-04-28T10:37:29.954Z</time></trkpt><trkpt lat="39.76074834654971" lon="9.287393099269465"><ele>743.0</ele><time>2026-04-28T10:37:30.954Z</time></trkpt><trkpt lat="39.760899847555415" lon="9.287477988106803"><ele>743.0</ele><time>2026-04-28T10:37:31.954Z</time></trkpt><trkpt lat="39.76106605089402" lon="9.287523078994948"><ele>743.0</ele><time>2026-04-28T10:37:32.954Z</time></trkpt><trkpt lat="39.76124620678261" lon="9.287516422894074"><ele>743.0</ele><time>2026-04-28T10:37:33.954Z</time></trkpt><trkpt lat="39.76142314284116" lon="9.287455715336602"><ele>743.0</ele><time>2026-04-28T10:37:34.954Z</time></trkpt><trkpt lat="39.761610326897696" lon="9.287399019935181"><ele>743.0</ele><time>2026-04-28T10:37:35.954Z</time></trkpt><trkpt lat="39.761801356632084" lon="9.287349339537087"><ele>743.0</ele><time>2026-04-28T10:37:36.954Z</time></trkpt><trkpt lat="39.76200386450518" lon="9.287293114019072"><ele>738.6666666666666</ele><time>2026-04-28T10:37:37.954Z</time></trkpt><trkpt lat="39.76219871099628" lon="9.287240366823108"><ele>734.3333333333334</ele><time>2026-04-28T10:37:38.954Z</time></trkpt><trkpt lat="39.76237648763646" lon="9.287169646167822"><ele>730.0</ele><time>2026-04-28T10:37:39.954Z</time></trkpt><trkpt lat="39.76253616637137" lon="9.28704743299876"><ele>730.0</ele><time>2026-04-28T10:37:40.954Z</time></trkpt><trkpt lat="39.76267818732354" lon="9.286894027207197"><ele>730.0</ele><time>2026-04-28T10:37:41.954Z</time></trkpt><trkpt lat="39.7628108327514" lon="9.28673849333222"><ele>730.0</ele><time>2026-04-28T10:37:42.954Z</time></trkpt><trkpt lat="39.76294928045233" lon="9.286621348948005"><ele>733.6666666666667</ele><time>2026-04-28T10:37:43.954Z</time></trkpt><trkpt lat="39.763125976685075" lon="9.286564420801737"><ele>737.3333333333334</ele><time>2026-04-28T10:37:44.954Z</time></trkpt><trkpt lat="39.763317329800884" lon="9.286525791631991"><ele>741.0</ele><time>2026-04-28T10:37:45.954Z</time></trkpt><trkpt lat="39.76349993254344" lon="9.286468111105286"><ele>736.0</ele><time>2026-04-28T10:37:46.954Z</time></trkpt><trkpt lat="39.76367265580086" lon="9.286411009451632"><ele>731.0</ele><time>2026-04-28T10:37:47.954Z</time></trkpt><trkpt lat="39.763830300783326" lon="9.28636650435467"><ele>726.0</ele><time>2026-04-28T10:37:48.954Z</time></trkpt><trkpt lat="39.763972766336785" lon="9.286367642125237"><ele>729.6666666666666</ele><time>2026-04-28T10:37:49.954Z</time></trkpt><trkpt lat="39.7641171908183" lon="9.286441392826562"><ele>733.3333333333333</ele><time>2026-04-28T10:37:50.953Z</time></trkpt><trkpt lat="39.764272930729675" lon="9.286556176366402"><ele>737.0</ele><time>2026-04-28T10:37:51.953Z</time></trkpt><trkpt lat="39.7644389105641" lon="9.286666301656068"><ele>729.6666666666666</ele><time>2026-04-28T10:37:52.953Z</time></trkpt><trkpt lat="39.76460438212286" lon="9.286775150610014"><ele>722.3333333333334</ele><time>2026-04-28T10:37:53.953Z</time></trkpt><trkpt lat="39.76475672575212" lon="9.28686677316061"><ele>715.0</ele><time>2026-04-28T10:37:54.953Z</time></trkpt><trkpt lat="39.7648687795081" lon="9.286958394608476"><ele>715.0</ele><time>2026-04-28T10:37:55.953Z</time></trkpt><trkpt lat="39.76493869685704" lon="9.287089613746906"><ele>715.0</ele><time>2026-04-28T10:37:56.953Z</time></trkpt><trkpt lat="39.76495767637815" lon="9.287260673384438"><ele>715.0</ele><time>2026-04-28T10:37:57.953Z</time></trkpt><trkpt lat="39.764936463880844" lon="9.287460987959353"><ele>715.0</ele><time>2026-04-28T10:37:58.953Z</time></trkpt><trkpt lat="39.76490586754905" lon="9.287690046828748"><ele>716.0</ele><time>2026-04-28T10:37:59.953Z</time></trkpt><trkpt lat="39.76489414909" lon="9.287916106104468"><ele>717.0</ele><time>2026-04-28T10:38:00.953Z</time></trkpt><trkpt lat="39.764890774407924" lon="9.288152106851967"><ele>718.0</ele><time>2026-04-28T10:38:01.953Z</time></trkpt><trkpt lat="39.76486039063635" lon="9.28839399181478"><ele>718.0</ele><time>2026-04-28T10:38:02.953Z</time></trkpt><trkpt lat="39.764798152012446" lon="9.288625587874401"><ele>718.0</ele><time>2026-04-28T10:38:03.953Z</time></trkpt><trkpt lat="39.76472783076548" lon="9.288839276012162"><ele>718.0</ele><time>2026-04-28T10:38:04.953Z</time></trkpt><trkpt lat="39.764657405634196" lon="9.289035299348216"><ele>719.5</ele><time>2026-04-28T10:38:05.953Z</time></trkpt><trkpt lat="39.76461630435901" lon="9.28920892818455"><ele>721.0</ele><time>2026-04-28T10:38:06.953Z</time></trkpt><trkpt lat="39.76462718439813" lon="9.289380822833982"><ele>722.5</ele><time>2026-04-28T10:38:07.953Z</time></trkpt><trkpt lat="39.76469683071013" lon="9.289516568260401"><ele>724.0</ele><time>2026-04-28T10:38:08.953Z</time></trkpt><trkpt lat="39.76482385877371" lon="9.289578727289616"><ele>724.0</ele><time>2026-04-28T10:38:09.953Z</time></trkpt><trkpt lat="39.764965527242595" lon="9.28957695813489"><ele>724.0</ele><time>2026-04-28T10:38:10.953Z</time></trkpt><trkpt lat="39.765093831582696" lon="9.289493049355638"><ele>724.0</ele><time>2026-04-28T10:38:11.953Z</time></trkpt><trkpt lat="39.765206118245814" lon="9.289341580345958"><ele>724.0</ele><time>2026-04-28T10:38:12.953Z</time></trkpt><trkpt lat="39.76532230569683" lon="9.289164962745136"><ele>728.6666666666667</ele><time>2026-04-28T10:38:13.953Z</time></trkpt><trkpt lat="39.76544702153323" lon="9.288978903926214"><ele>733.3333333333334</ele><time>2026-04-28T10:38:14.953Z</time></trkpt><trkpt lat="39.765569250384175" lon="9.288796879746041"><ele>738.0</ele><time>2026-04-28T10:38:15.953Z</time></trkpt><trkpt lat="39.76568910160174" lon="9.288644445985666"><ele>728.0</ele><time>2026-04-28T10:38:16.953Z</time></trkpt><trkpt lat="39.76583435069226" lon="9.28855655342029"><ele>718.0</ele><time>2026-04-28T10:38:17.953Z</time></trkpt><trkpt lat="39.76599433582537" lon="9.288512683236938"><ele>708.0</ele><time>2026-04-28T10:38:18.953Z</time></trkpt><trkpt lat="39.766182343676434" lon="9.288494122596537"><ele>708.0</ele><time>2026-04-28T10:38:19.953Z</time></trkpt><trkpt lat="39.76638891906306" lon="9.288493444368676"><ele>708.0</ele><time>2026-04-28T10:38:20.953Z</time></trkpt><trkpt lat="39.76660590858222" lon="9.288495712448894"><ele>708.0</ele><time>2026-04-28T10:38:21.953Z</time></trkpt><trkpt lat="39.7668187361936" lon="9.288490584923323"><ele>706.3333333333334</ele><time>2026-04-28T10:38:22.953Z</time></trkpt><trkpt lat="39.76701052400687" lon="9.288453709651549"><ele>704.6666666666667</ele><time>2026-04-28T10:38:23.953Z</time></trkpt><trkpt lat="39.767181606338056" lon="9.288391540975102"><ele>703.0</ele><time>2026-04-28T10:38:24.953Z</time></trkpt><trkpt lat="39.7673294326553" lon="9.288329955696302"><ele>703.0</ele><time>2026-04-28T10:38:25.953Z</time></trkpt><trkpt lat="39.76745261828065" lon="9.288309062079762"><ele>703.0</ele><time>2026-04-28T10:38:26.953Z</time></trkpt><trkpt lat="39.767556510999874" lon="9.288376040194027"><ele>703.0</ele><time>2026-04-28T10:38:27.953Z</time></trkpt><trkpt lat="39.76763710166356" lon="9.288496060233777"><ele>703.0</ele><time>2026-04-28T10:38:28.953Z</time></trkpt><trkpt lat="39.76770137276115" lon="9.288671175104703"><ele>703.0</ele><time>2026-04-28T10:38:29.953Z</time></trkpt><trkpt lat="39.76776253403963" lon="9.28888185474936"><ele>703.0</ele><time>2026-04-28T10:38:30.953Z</time></trkpt><trkpt lat="39.767829060039574" lon="9.289086100378572"><ele>703.0</ele><time>2026-04-28T10:38:31.953Z</time></trkpt><trkpt lat="39.76790443768778" lon="9.289258274059472"><ele>703.0</ele><time>2026-04-28T10:38:32.953Z</time></trkpt><trkpt lat="39.76801099575784" lon="9.289418214110983"><ele>703.0</ele><time>2026-04-28T10:38:33.953Z</time></trkpt><trkpt lat="39.76815203955223" lon="9.28955582568153"><ele>703.0</ele><time>2026-04-28T10:38:34.953Z</time></trkpt><trkpt lat="39.768296395600835" lon="9.28968083531908"><ele>707.5</ele><time>2026-04-28T10:38:35.953Z</time></trkpt><trkpt lat="39.768428587709025" lon="9.289777645603856"><ele>712.0</ele><time>2026-04-28T10:38:36.953Z</time></trkpt><trkpt lat="39.76855840268903" lon="9.289830747675051"><ele>716.5</ele><time>2026-04-28T10:38:37.953Z</time></trkpt><trkpt lat="39.768683261723226" lon="9.289792449000846"><ele>721.0</ele><time>2026-04-28T10:38:38.953Z</time></trkpt><trkpt lat="39.76878220160655" lon="9.28968039629421"><ele>721.0</ele><time>2026-04-28T10:38:39.953Z</time></trkpt><trkpt lat="39.76884299022028" lon="9.289507758857585"><ele>721.0</ele><time>2026-04-28T10:38:40.953Z</time></trkpt><trkpt lat="39.768902055973484" lon="9.289303377216171"><ele>721.0</ele><time>2026-04-28T10:38:41.953Z</time></trkpt><trkpt lat="39.769001826055685" lon="9.289101898729998"><ele>720.0</ele><time>2026-04-28T10:38:42.953Z</time></trkpt><trkpt lat="39.76912690218099" lon="9.288910773814477"><ele>719.0</ele><time>2026-04-28T10:38:43.953Z</time></trkpt><trkpt lat="39.769274170264474" lon="9.288728632949242"><ele>718.0</ele><time>2026-04-28T10:38:44.953Z</time></trkpt><trkpt lat="39.76944305105115" lon="9.28855056420127"><ele>718.0</ele><time>2026-04-28T10:38:45.953Z</time></trkpt><trkpt lat="39.76962484819157" lon="9.288376474019683"><ele>718.0</ele><time>2026-04-28T10:38:46.953Z</time></trkpt><trkpt lat="39.76981037559918" lon="9.288213051546876"><ele>719.3333333333334</ele><time>2026-04-28T10:38:47.953Z</time></trkpt><trkpt lat="39.769989255737194" lon="9.288073012378621"><ele>720.6666666666666</ele><time>2026-04-28T10:38:48.953Z</time></trkpt><trkpt lat="39.77015405987637" lon="9.287958743321784"><ele>722.0</ele><time>2026-04-28T10:38:49.953Z</time></trkpt><trkpt lat="39.77029527240395" lon="9.287839952656462"><ele>722.0</ele><time>2026-04-28T10:38:50.953Z</time></trkpt><trkpt lat="39.77039199586856" lon="9.287688286933708"><ele>722.0</ele><time>2026-04-28T10:38:51.953Z</time></trkpt><trkpt lat="39.77043785829937" lon="9.287501513873726"><ele>722.0</ele><time>2026-04-28T10:38:52.953Z</time></trkpt><trkpt lat="39.77046169471574" lon="9.287273241375042"><ele>716.0</ele><time>2026-04-28T10:38:53.953Z</time></trkpt><trkpt lat="39.7704894488632" lon="9.287052813363328"><ele>710.0</ele><time>2026-04-28T10:38:54.953Z</time></trkpt><trkpt lat="39.77053203797606" lon="9.286865881881486"><ele>704.0</ele><time>2026-04-28T10:38:55.953Z</time></trkpt><trkpt lat="39.77062182377707" lon="9.286706269463185"><ele>704.0</ele><time>2026-04-28T10:38:56.953Z</time></trkpt><trkpt lat="39.77075522428206" lon="9.286574457017027"><ele>704.0</ele><time>2026-04-28T10:38:57.952Z</time></trkpt><trkpt lat="39.770916271558704" lon="9.286456751928856"><ele>704.0</ele><time>2026-04-28T10:38:58.952Z</time></trkpt><trkpt lat="39.77105520322799" lon="9.286387365129661"><ele>704.0</ele><time>2026-04-28T10:38:59.952Z</time></trkpt><trkpt lat="39.771190079960896" lon="9.286393384739021"><ele>704.0</ele><time>2026-04-28T10:39:00.952Z</time></trkpt><trkpt lat="39.771318560222525" lon="9.286455299510456"><ele>704.0</ele><time>2026-04-28T10:39:01.952Z</time></trkpt><trkpt lat="39.77144502378275" lon="9.286544045430356"><ele>704.0</ele><time>2026-04-28T10:39:02.952Z</time></trkpt><trkpt lat="39.771596038199434" lon="9.286716871637326"><ele>704.0</ele><time>2026-04-28T10:39:03.952Z</time></trkpt><trkpt lat="39.77175098460381" lon="9.286855150212771"><ele>704.0</ele><time>2026-04-28T10:39:04.953Z</time></trkpt><trkpt lat="39.77184889189509" lon="9.287006974210678"><ele>704.0</ele><time>2026-04-28T10:39:05.953Z</time></trkpt><trkpt lat="39.771884528594974" lon="9.287208838138094"><ele>702.25</ele><time>2026-04-28T10:39:06.953Z</time></trkpt><trkpt lat="39.77185911651881" lon="9.287415121828335"><ele>700.5</ele><time>2026-04-28T10:39:07.953Z</time></trkpt><trkpt lat="39.77181816361663" lon="9.287603939754375"><ele>698.75</ele><time>2026-04-28T10:39:08.953Z</time></trkpt><trkpt lat="39.771832038394066" lon="9.28776787564944"><ele>697.0</ele><time>2026-04-28T10:39:09.953Z</time></trkpt><trkpt lat="39.7719013216063" lon="9.287895485576307"><ele>697.0</ele><time>2026-04-28T10:39:10.953Z</time></trkpt><trkpt lat="39.77201032397445" lon="9.287991082930366"><ele>697.0</ele><time>2026-04-28T10:39:11.954Z</time></trkpt><trkpt lat="39.7721530932919" lon="9.28803591215966"><ele>697.0</ele><time>2026-04-28T10:39:12.954Z</time></trkpt><trkpt lat="39.77232994442873" lon="9.288048026046912"><ele>697.0</ele><time>2026-04-28T10:39:13.953Z</time></trkpt><trkpt lat="39.77252162810711" lon="9.288079687197754"><ele>697.0</ele><time>2026-04-28T10:39:14.953Z</time></trkpt><trkpt lat="39.772710243894416" lon="9.288131056189572"><ele>697.0</ele><time>2026-04-28T10:39:15.953Z</time></trkpt><trkpt lat="39.772902531090175" lon="9.288205532636322"><ele>701.3333333333334</ele><time>2026-04-28T10:39:16.953Z</time></trkpt><trkpt lat="39.7730955761692" lon="9.288293120535656"><ele>705.6666666666666</ele><time>2026-04-28T10:39:17.953Z</time></trkpt><trkpt lat="39.77327528489311" lon="9.288391049524257"><ele>710.0</ele><time>2026-04-28T10:39:18.953Z</time></trkpt><trkpt lat="39.77342534729369" lon="9.288478240465281"><ele>712.5</ele><time>2026-04-28T10:39:19.953Z</time></trkpt><trkpt lat="39.77353010347159" lon="9.288602709739854"><ele>715.0</ele><time>2026-04-28T10:39:20.953Z</time></trkpt><trkpt lat="39.77359520820741" lon="9.288772463597933"><ele>717.5</ele><time>2026-04-28T10:39:21.953Z</time></trkpt><trkpt lat="39.77363504892722" lon="9.288967221155348"><ele>720.0</ele><time>2026-04-28T10:39:22.953Z</time></trkpt><trkpt lat="39.77367817688977" lon="9.289148230098993"><ele>721.75</ele><time>2026-04-28T10:39:23.953Z</time></trkpt><trkpt lat="39.77374871606783" lon="9.28927429615577"><ele>723.5</ele><time>2026-04-28T10:39:24.953Z</time></trkpt><trkpt lat="39.77386025432369" lon="9.289348693475766"><ele>725.25</ele><time>2026-04-28T10:39:25.953Z</time></trkpt><trkpt lat="39.773988324689235" lon="9.289358228473903"><ele>727.0</ele><time>2026-04-28T10:39:26.953Z</time></trkpt><trkpt lat="39.77409571903853" lon="9.289299630205376"><ele>727.0</ele><time>2026-04-28T10:39:27.953Z</time></trkpt><trkpt lat="39.77416687112653" lon="9.289151558538585"><ele>727.0</ele><time>2026-04-28T10:39:28.953Z</time></trkpt><trkpt lat="39.77422240578511" lon="9.288961900404512"><ele>727.0</ele><time>2026-04-28T10:39:29.953Z</time></trkpt><trkpt lat="39.77428190279545" lon="9.288758481791607"><ele>724.6666666666667</ele><time>2026-04-28T10:39:30.953Z</time></trkpt><trkpt lat="39.77433417716497" lon="9.288552888311688"><ele>722.3333333333334</ele><time>2026-04-28T10:39:31.953Z</time></trkpt><trkpt lat="39.77437530093519" lon="9.28833062632347"><ele>720.0</ele><time>2026-04-28T10:39:32.953Z</time></trkpt><trkpt lat="39.77438392414614" lon="9.288094603912358"><ele>723.3333333333334</ele><time>2026-04-28T10:39:33.953Z</time></trkpt><trkpt lat="39.774339059677736" lon="9.287839035666236"><ele>726.6666666666667</ele><time>2026-04-28T10:39:34.953Z</time></trkpt><trkpt lat="39.77427998079095" lon="9.287562051448145"><ele>730.0</ele><time>2026-04-28T10:39:35.953Z</time></trkpt><trkpt lat="39.77421369966516" lon="9.28728354219833"><ele>730.3333333333334</ele><time>2026-04-28T10:39:36.953Z</time></trkpt><trkpt lat="39.77412198919793" lon="9.287044878686117"><ele>730.6666666666666</ele><time>2026-04-28T10:39:37.953Z</time></trkpt><trkpt lat="39.77402915150471" lon="9.286841048216045"><ele>731.0</ele><time>2026-04-28T10:39:38.953Z</time></trkpt><trkpt lat="39.77399065218448" lon="9.286686142033425"><ele>731.0</ele><time>2026-04-28T10:39:39.953Z</time></trkpt><trkpt lat="39.77399550619683" lon="9.286497529515046"><ele>731.0</ele><time>2026-04-28T10:39:40.953Z</time></trkpt><trkpt lat="39.774060811617964" lon="9.286370386754179"><ele>731.0</ele><time>2026-04-28T10:39:41.953Z</time></trkpt><trkpt lat="39.77416507368527" lon="9.286315248815576"><ele>731.0</ele><time>2026-04-28T10:39:42.953Z</time></trkpt><trkpt lat="39.774272025898725" lon="9.286244710864409"><ele>731.5</ele><time>2026-04-28T10:39:43.953Z</time></trkpt><trkpt lat="39.7743658850209" lon="9.286196932921772"><ele>732.0</ele><time>2026-04-28T10:39:44.953Z</time></trkpt><trkpt lat="39.77448677022037" lon="9.286147275031908"><ele>732.5</ele><time>2026-04-28T10:39:45.953Z</time></trkpt><trkpt lat="39.77459171970827" lon="9.286044120443155"><ele>733.0</ele><time>2026-04-28T10:39:46.953Z</time></trkpt><trkpt lat="39.77469636573214" lon="9.285953071233305"><ele>733.0</ele><time>2026-04-28T10:39:47.953Z</time></trkpt><trkpt lat="39.77480739873342" lon="9.285884324402451"><ele>733.0</ele><time>2026-04-28T10:39:48.953Z</time></trkpt><trkpt lat="39.77490689885203" lon="9.285836373365074"><ele>733.0</ele><time>2026-04-28T10:39:49.953Z</time></trkpt><trkpt lat="39.7749834435346" lon="9.285823030528402"><ele>733.0</ele><time>2026-04-28T10:39:50.953Z</time></trkpt><trkpt lat="39.775050819794224" lon="9.285838195145397"><ele>733.0</ele><time>2026-04-28T10:39:51.953Z</time></trkpt><trkpt lat="39.77511416537905" lon="9.285881935878177"><ele>733.0</ele><time>2026-04-28T10:39:52.952Z</time></trkpt><trkpt lat="39.77519057241006" lon="9.285963398530884"><ele>729.0</ele><time>2026-04-28T10:39:53.952Z</time></trkpt><trkpt lat="39.775278947189825" lon="9.286079691808657"><ele>725.0</ele><time>2026-04-28T10:39:54.952Z</time></trkpt><trkpt lat="39.77537341133434" lon="9.28619587582163"><ele>721.0</ele><time>2026-04-28T10:39:55.952Z</time></trkpt><trkpt lat="39.775456990984615" lon="9.2862973191882"><ele>717.0</ele><time>2026-04-28T10:39:56.952Z</time></trkpt><trkpt lat="39.77555184286292" lon="9.286397170154455"><ele>720.6666666666666</ele><time>2026-04-28T10:39:57.952Z</time></trkpt><trkpt lat="39.77568041320142" lon="9.28650460852935"><ele>724.3333333333333</ele><time>2026-04-28T10:39:58.952Z</time></trkpt><trkpt lat="39.775825419421366" lon="9.28659258742352"><ele>728.0</ele><time>2026-04-28T10:39:59.952Z</time></trkpt><trkpt lat="39.77597473235781" lon="9.28668872670282"><ele>719.3333333333333</ele><time>2026-04-28T10:40:00.952Z</time></trkpt><trkpt lat="39.77611224513595" lon="9.28680939043327"><ele>710.6666666666666</ele><time>2026-04-28T10:40:01.952Z</time></trkpt><trkpt lat="39.77624043691949" lon="9.286953334848283"><ele>702.0</ele><time>2026-04-28T10:40:02.952Z</time></trkpt><trkpt lat="39.77636317160113" lon="9.287111057827609"><ele>707.0</ele><time>2026-04-28T10:40:03.952Z</time></trkpt><trkpt lat="39.77648674409372" lon="9.287280595806722"><ele>712.0</ele><time>2026-04-28T10:40:04.952Z</time></trkpt><trkpt lat="39.77662446478931" lon="9.287447707929374"><ele>717.0</ele><time>2026-04-28T10:40:05.952Z</time></trkpt><trkpt lat="39.77676693265247" lon="9.287609522442617"><ele>711.6666666666666</ele><time>2026-04-28T10:40:06.952Z</time></trkpt><trkpt lat="39.77689416905626" lon="9.287778754454349"><ele>706.3333333333333</ele><time>2026-04-28T10:40:07.952Z</time></trkpt><trkpt lat="39.776996112846604" lon="9.287963706527856"><ele>701.0</ele><time>2026-04-28T10:40:08.952Z</time></trkpt><trkpt lat="39.777072958514474" lon="9.288127756747476"><ele>701.0</ele><time>2026-04-28T10:40:09.952Z</time></trkpt><trkpt lat="39.77713384716578" lon="9.288311020266875"><ele>701.0</ele><time>2026-04-28T10:40:10.952Z</time></trkpt><trkpt lat="39.77715249768221" lon="9.288497722552053"><ele>701.0</ele><time>2026-04-28T10:40:11.952Z</time></trkpt><trkpt lat="39.77712613303159" lon="9.288654334729237"><ele>701.0</ele><time>2026-04-28T10:40:12.952Z</time></trkpt><trkpt lat="39.77708092347102" lon="9.288784742782223"><ele>701.0</ele><time>2026-04-28T10:40:13.952Z</time></trkpt><trkpt lat="39.777062088343854" lon="9.288919352629854"><ele>701.0</ele><time>2026-04-28T10:40:14.952Z</time></trkpt><trkpt lat="39.77711316235774" lon="9.289045054587715"><ele>701.0</ele><time>2026-04-28T10:40:15.952Z</time></trkpt><trkpt lat="39.77719746993442" lon="9.28914305629352"><ele>701.0</ele><time>2026-04-28T10:40:16.952Z</time></trkpt><trkpt lat="39.77734184340216" lon="9.289193450916168"><ele>703.5</ele><time>2026-04-28T10:40:17.952Z</time></trkpt><trkpt lat="39.77746881643757" lon="9.289182656156557"><ele>706.0</ele><time>2026-04-28T10:40:18.952Z</time></trkpt><trkpt lat="39.77759693882094" lon="9.289114264251134"><ele>708.5</ele><time>2026-04-28T10:40:19.952Z</time></trkpt><trkpt lat="39.7777071610808" lon="9.288991550066477"><ele>711.0</ele><time>2026-04-28T10:40:20.952Z</time></trkpt><trkpt lat="39.77782011118457" lon="9.288843539927003"><ele>713.5</ele><time>2026-04-28T10:40:21.952Z</time></trkpt><trkpt lat="39.77793790146954" lon="9.288708218445498"><ele>716.0</ele><time>2026-04-28T10:40:22.952Z</time></trkpt><trkpt lat="39.778039560995744" lon="9.28857611887163"><ele>718.5</ele><time>2026-04-28T10:40:23.952Z</time></trkpt><trkpt lat="39.77812144277023" lon="9.288425934474697"><ele>721.0</ele><time>2026-04-28T10:40:24.952Z</time></trkpt><trkpt lat="39.778169504190075" lon="9.288258338776167"><ele>720.0</ele><time>2026-04-28T10:40:25.952Z</time></trkpt><trkpt lat="39.77816744802549" lon="9.288073150576603"><ele>719.0</ele><time>2026-04-28T10:40:26.952Z</time></trkpt><trkpt lat="39.77814286264456" lon="9.287880068534559"><ele>718.0</ele><time>2026-04-28T10:40:27.952Z</time></trkpt><trkpt lat="39.778135919890275" lon="9.287675729900794"><ele>718.0</ele><time>2026-04-28T10:40:28.952Z</time></trkpt><trkpt lat="39.77814048349088" lon="9.287489136091406"><ele>718.0</ele><time>2026-04-28T10:40:29.952Z</time></trkpt><trkpt lat="39.77813646127756" lon="9.287294006119051"><ele>718.0</ele><time>2026-04-28T10:40:30.952Z</time></trkpt><trkpt lat="39.7780956663191" lon="9.2870923357295"><ele>717.75</ele><time>2026-04-28T10:40:31.952Z</time></trkpt><trkpt lat="39.77802962079412" lon="9.286912645840658"><ele>717.5</ele><time>2026-04-28T10:40:32.952Z</time></trkpt><trkpt lat="39.77795333165082" lon="9.286742445855955"><ele>717.25</ele><time>2026-04-28T10:40:33.952Z</time></trkpt><trkpt lat="39.77790350808475" lon="9.286578492015195"><ele>717.0</ele><time>2026-04-28T10:40:34.952Z</time></trkpt><trkpt lat="39.77789261353891" lon="9.286406985727645"><ele>714.0</ele><time>2026-04-28T10:40:35.952Z</time></trkpt><trkpt lat="39.777935815005385" lon="9.286241749573692"><ele>711.0</ele><time>2026-04-28T10:40:36.952Z</time></trkpt><trkpt lat="39.77801834379072" lon="9.286084063292833"><ele>708.0</ele><time>2026-04-28T10:40:37.952Z</time></trkpt><trkpt lat="39.77810424108266" lon="9.285933105474461"><ele>705.0</ele><time>2026-04-28T10:40:38.952Z</time></trkpt><trkpt lat="39.77818755681536" lon="9.285790289000907"><ele>705.0</ele><time>2026-04-28T10:40:39.952Z</time></trkpt><trkpt lat="39.77826831800849" lon="9.285652760607894"><ele>705.0</ele><time>2026-04-28T10:40:40.952Z</time></trkpt><trkpt lat="39.77834873245007" lon="9.285530357491126"><ele>705.0</ele><time>2026-04-28T10:40:41.952Z</time></trkpt><trkpt lat="39.778424400935336" lon="9.285426852123669"><ele>705.0</ele><time>2026-04-28T10:40:42.952Z</time></trkpt><trkpt lat="39.7784961022273" lon="9.285334305114366"><ele>706.8</ele><time>2026-04-28T10:40:43.952Z</time></trkpt><trkpt lat="39.778564495377225" lon="9.285239185486553"><ele>708.6</ele><time>2026-04-28T10:40:44.952Z</time></trkpt><trkpt lat="39.77862959982748" lon="9.28515883842498"><ele>710.4000000000001</ele><time>2026-04-28T10:40:45.952Z</time></trkpt><trkpt lat="39.77869070570015" lon="9.285082532345182"><ele>712.2</ele><time>2026-04-28T10:40:46.952Z</time></trkpt><trkpt lat="39.778757888248904" lon="9.2850041225885"><ele>714.0</ele><time>2026-04-28T10:40:47.952Z</time></trkpt><trkpt lat="39.77881875361569" lon="9.284912903659"><ele>714.0</ele><time>2026-04-28T10:40:48.952Z</time></trkpt><trkpt lat="39.77885853538822" lon="9.284796906282843"><ele>714.0</ele><time>2026-04-28T10:40:49.952Z</time></trkpt><trkpt lat="39.77885994555313" lon="9.284673632318288"><ele>714.0</ele><time>2026-04-28T10:40:50.952Z</time></trkpt><trkpt lat="39.77883236772513" lon="9.284556402750784"><ele>714.0</ele><time>2026-04-28T10:40:51.952Z</time></trkpt><trkpt lat="39.778769669118375" lon="9.28445248525493"><ele>714.0</ele><time>2026-04-28T10:40:52.952Z</time></trkpt><trkpt lat="39.7787063584189" lon="9.284368082347424"><ele>715.0</ele><time>2026-04-28T10:40:53.952Z</time></trkpt><trkpt lat="39.77864147402657" lon="9.284278068312469"><ele>716.0</ele><time>2026-04-28T10:40:54.952Z</time></trkpt><trkpt lat="39.77857935542923" lon="9.284182873243886"><ele>717.0</ele><time>2026-04-28T10:40:55.952Z</time></trkpt><trkpt lat="39.77851464864772" lon="9.2840897397202"><ele>718.0</ele><time>2026-04-28T10:40:56.952Z</time></trkpt><trkpt lat="39.77845941101045" lon="9.283990198821188"><ele>719.0</ele><time>2026-04-28T10:40:57.952Z</time></trkpt><trkpt lat="39.778420584307085" lon="9.283886573649465"><ele>716.6666666666666</ele><time>2026-04-28T10:40:58.952Z</time></trkpt><trkpt lat="39.7783989462878" lon="9.28378388979198"><ele>714.3333333333333</ele><time>2026-04-28T10:40:59.951Z</time></trkpt><trkpt lat="39.77839352479649" lon="9.283684706332686"><ele>712.0</ele><time>2026-04-28T10:41:00.951Z</time></trkpt><trkpt lat="39.77839688619621" lon="9.283575873296678"><ele>709.6666666666666</ele><time>2026-04-28T10:41:01.951Z</time></trkpt><trkpt lat="39.778401069289316" lon="9.283477742669378"><ele>707.3333333333334</ele><time>2026-04-28T10:41:02.951Z</time></trkpt><trkpt lat="39.7784037382067" lon="9.283373485179588"><ele>705.0</ele><time>2026-04-28T10:41:03.951Z</time></trkpt><trkpt lat="39.778397619584666" lon="9.283262150558302"><ele>705.0</ele><time>2026-04-28T10:41:04.951Z</time></trkpt><trkpt lat="39.77838508061776" lon="9.283145324132441"><ele>705.0</ele><time>2026-04-28T10:41:05.951Z</time></trkpt><trkpt lat="39.77837132413026" lon="9.283029942503708"><ele>705.0</ele><time>2026-04-28T10:41:06.951Z</time></trkpt><trkpt lat="39.778347461250426" lon="9.28291502296208"><ele>705.0</ele><time>2026-04-28T10:41:07.951Z</time></trkpt><trkpt lat="39.778312867229936" lon="9.282804693989048"><ele>705.0</ele><time>2026-04-28T10:41:08.951Z</time></trkpt><trkpt lat="39.77828049840322" lon="9.282679364457925"><ele>706.6</ele><time>2026-04-28T10:41:09.951Z</time></trkpt><trkpt lat="39.77824779823752" lon="9.282556281404009"><ele>708.2</ele><time>2026-04-28T10:41:10.953Z</time></trkpt><trkpt lat="39.77822117555775" lon="9.282430391248614"><ele>709.8</ele><time>2026-04-28T10:41:11.953Z</time></trkpt><trkpt lat="39.778210099942434" lon="9.282308671861978"><ele>711.4</ele><time>2026-04-28T10:41:12.953Z</time></trkpt><trkpt lat="39.77820946676159" lon="9.282188865465288"><ele>713.0</ele><time>2026-04-28T10:41:13.953Z</time></trkpt><trkpt lat="39.778210006537954" lon="9.282063158472925"><ele>713.4</ele><time>2026-04-28T10:41:14.952Z</time></trkpt><trkpt lat="39.77821342803275" lon="9.281936354499956"><ele>713.8</ele><time>2026-04-28T10:41:15.952Z</time></trkpt><trkpt lat="39.77822790611055" lon="9.281799410423387"><ele>714.2</ele><time>2026-04-28T10:41:16.953Z</time></trkpt><trkpt lat="39.77827207058652" lon="9.281673412072836"><ele>714.6</ele><time>2026-04-28T10:41:17.952Z</time></trkpt><trkpt lat="39.77833350412809" lon="9.28156189827932"><ele>715.0</ele><time>2026-04-28T10:41:18.952Z</time></trkpt><trkpt lat="39.778393628314774" lon="9.28144610813024"><ele>715.4</ele><time>2026-04-28T10:41:19.952Z</time></trkpt><trkpt lat="39.77844131642817" lon="9.281326169422643"><ele>715.8</ele><time>2026-04-28T10:41:20.952Z</time></trkpt><trkpt lat="39.77846136684312" lon="9.281188425019426"><ele>716.2</ele><time>2026-04-28T10:41:21.952Z</time></trkpt><trkpt lat="39.7784500877344" lon="9.281066224692522"><ele>716.6</ele><time>2026-04-28T10:41:22.953Z</time></trkpt><trkpt lat="39.778414737425315" lon="9.280936268140247"><ele>717.0</ele><time>2026-04-28T10:41:23.952Z</time></trkpt><trkpt lat="39.77835855439027" lon="9.2808117964841"><ele>717.0</ele><time>2026-04-28T10:41:24.952Z</time></trkpt><trkpt lat="39.77830905760259" lon="9.280685756917107"><ele>717.0</ele><time>2026-04-28T10:41:25.952Z</time></trkpt><trkpt lat="39.778284768936814" lon="9.280565648573832"><ele>717.0</ele><time>2026-04-28T10:41:26.952Z</time></trkpt><trkpt lat="39.778318469028335" lon="9.28046851216806"><ele>717.0</ele><time>2026-04-28T10:41:27.952Z</time></trkpt><trkpt lat="39.77838289415967" lon="9.280420333828866"><ele>717.0</ele><time>2026-04-28T10:41:28.952Z</time></trkpt><trkpt lat="39.77845637222841" lon="9.280460899641623"><ele>717.0</ele><time>2026-04-28T10:41:29.952Z</time></trkpt><trkpt lat="39.77851207177764" lon="9.280566715770487"><ele>723.8</ele><time>2026-04-28T10:41:30.952Z</time></trkpt><trkpt lat="39.778548437530056" lon="9.28069144425202"><ele>730.6</ele><time>2026-04-28T10:41:31.952Z</time></trkpt><trkpt lat="39.7785766921765" lon="9.28082498010451"><ele>737.4</ele><time>2026-04-28T10:41:32.952Z</time></trkpt><trkpt lat="39.778603405227265" lon="9.280954632335595"><ele>744.1999999999999</ele><time>2026-04-28T10:41:33.952Z</time></trkpt><trkpt lat="39.77863028484303" lon="9.281083590198751"><ele>751.0</ele><time>2026-04-28T10:41:34.952Z</time></trkpt><trkpt lat="39.77864763404833" lon="9.28121937082942"><ele>751.0</ele><time>2026-04-28T10:41:35.952Z</time></trkpt><trkpt lat="39.77864338322858" lon="9.281350059465986"><ele>751.0</ele><time>2026-04-28T10:41:36.952Z</time></trkpt><trkpt lat="39.77862289210234" lon="9.281478609716164"><ele>751.0</ele><time>2026-04-28T10:41:37.952Z</time></trkpt><trkpt lat="39.77860852176106" lon="9.281601968988458"><ele>751.0</ele><time>2026-04-28T10:41:38.952Z</time></trkpt><trkpt lat="39.77859143777066" lon="9.281727784118866"><ele>751.0</ele><time>2026-04-28T10:41:39.952Z</time></trkpt><trkpt lat="39.778581495736326" lon="9.281860027280233"><ele>749.4</ele><time>2026-04-28T10:41:40.952Z</time></trkpt><trkpt lat="39.77859091102518" lon="9.281996174329711"><ele>747.8</ele><time>2026-04-28T10:41:41.952Z</time></trkpt><trkpt lat="39.7786138648013" lon="9.282128298042378"><ele>746.1999999999999</ele><time>2026-04-28T10:41:42.952Z</time></trkpt><trkpt lat="39.778644406285316" lon="9.282259254091727"><ele>744.5999999999999</ele><time>2026-04-28T10:41:43.952Z</time></trkpt><trkpt lat="39.77867507703829" lon="9.282386454354672"><ele>743.0</ele><time>2026-04-28T10:41:44.952Z</time></trkpt><trkpt lat="39.77870265077002" lon="9.282506836362483"><ele>741.2</ele><time>2026-04-28T10:41:45.952Z</time></trkpt><trkpt lat="39.77875064278628" lon="9.282612548386"><ele>739.4</ele><time>2026-04-28T10:41:46.952Z</time></trkpt><trkpt lat="39.77880979986613" lon="9.282701747911819"><ele>737.6</ele><time>2026-04-28T10:41:47.952Z</time></trkpt><trkpt lat="39.77888228443906" lon="9.282777863758687"><ele>735.8000000000001</ele><time>2026-04-28T10:41:48.952Z</time></trkpt><trkpt lat="39.77896199502412" lon="9.282848724810208"><ele>734.0</ele><time>2026-04-28T10:41:49.952Z</time></trkpt><trkpt lat="39.77905340907133" lon="9.28289933293544"><ele>734.0</ele><time>2026-04-28T10:41:50.952Z</time></trkpt><trkpt lat="39.779148848884226" lon="9.282920234895117"><ele>734.0</ele><time>2026-04-28T10:41:51.952Z</time></trkpt><trkpt lat="39.77924982152045" lon="9.282918169479702"><ele>734.0</ele><time>2026-04-28T10:41:52.952Z</time></trkpt><trkpt lat="39.77934528462156" lon="9.282871257397664"><ele>734.0</ele><time>2026-04-28T10:41:53.951Z</time></trkpt><trkpt lat="39.77942717132276" lon="9.282802442114399"><ele>734.0</ele><time>2026-04-28T10:41:54.951Z</time></trkpt><trkpt lat="39.77948909555603" lon="9.282710182385468"><ele>733.6</ele><time>2026-04-28T10:41:55.951Z</time></trkpt><trkpt lat="39.77955011504033" lon="9.282597277026834"><ele>733.2</ele><time>2026-04-28T10:41:56.951Z</time></trkpt><trkpt lat="39.779609427830785" lon="9.28249190718452"><ele>732.8000000000001</ele><time>2026-04-28T10:41:57.951Z</time></trkpt><trkpt lat="39.779665646285295" lon="9.282377357752738"><ele>732.4000000000001</ele><time>2026-04-28T10:41:58.951Z</time></trkpt><trkpt lat="39.779730736525806" lon="9.282269189501926"><ele>732.0</ele><time>2026-04-28T10:41:59.951Z</time></trkpt><trkpt lat="39.779799332421554" lon="9.28216282063933"><ele>732.0</ele><time>2026-04-28T10:42:00.951Z</time></trkpt><trkpt lat="39.77987815728874" lon="9.282038765602161"><ele>732.0</ele><time>2026-04-28T10:42:01.951Z</time></trkpt><trkpt lat="39.77997537674758" lon="9.281915986655829"><ele>732.0</ele><time>2026-04-28T10:42:02.951Z</time></trkpt><trkpt lat="39.7800921323723" lon="9.28180306546146"><ele>732.0</ele><time>2026-04-28T10:42:03.951Z</time></trkpt><trkpt lat="39.78021203904069" lon="9.281688591875884"><ele>731.0</ele><time>2026-04-28T10:42:04.951Z</time></trkpt><trkpt lat="39.7803318849119" lon="9.28156932383176"><ele>730.0</ele><time>2026-04-28T10:42:05.951Z</time></trkpt><trkpt lat="39.780461671127775" lon="9.281450686999351"><ele>729.0</ele><time>2026-04-28T10:42:06.951Z</time></trkpt><trkpt lat="39.780605865093804" lon="9.281359253276252"><ele>729.0</ele><time>2026-04-28T10:42:07.951Z</time></trkpt><trkpt lat="39.78075996998042" lon="9.281324139974096"><ele>729.0</ele><time>2026-04-28T10:42:08.951Z</time></trkpt><trkpt lat="39.78092034060759" lon="9.281313293588797"><ele>729.0</ele><time>2026-04-28T10:42:09.951Z</time></trkpt><trkpt lat="39.78108359462672" lon="9.281303823398199"><ele>723.3333333333334</ele><time>2026-04-28T10:42:10.951Z</time></trkpt><trkpt lat="39.78124607279303" lon="9.281277098755696"><ele>717.6666666666667</ele><time>2026-04-28T10:42:11.951Z</time></trkpt><trkpt lat="39.78139057555853" lon="9.281204830310775"><ele>712.0</ele><time>2026-04-28T10:42:12.951Z</time></trkpt><trkpt lat="39.781505487368" lon="9.281083923833348"><ele>712.0</ele><time>2026-04-28T10:42:13.951Z</time></trkpt><trkpt lat="39.78159281597345" lon="9.280957214818793"><ele>712.0</ele><time>2026-04-28T10:42:14.951Z</time></trkpt><trkpt lat="39.78167680885204" lon="9.28086258656024"><ele>712.0</ele><time>2026-04-28T10:42:15.951Z</time></trkpt><trkpt lat="39.781772107533534" lon="9.280830968992785"><ele>712.0</ele><time>2026-04-28T10:42:16.951Z</time></trkpt><trkpt lat="39.78185326143606" lon="9.280882928276693"><ele>712.0</ele><time>2026-04-28T10:42:17.951Z</time></trkpt><trkpt lat="39.781893007614386" lon="9.280984617700252"><ele>712.0</ele><time>2026-04-28T10:42:18.951Z</time></trkpt><trkpt lat="39.78186698281643" lon="9.281118710901211"><ele>712.0</ele><time>2026-04-28T10:42:19.951Z</time></trkpt><trkpt lat="39.78178370017827" lon="9.281209282986122"><ele>712.0</ele><time>2026-04-28T10:42:20.951Z</time></trkpt><trkpt lat="39.78170333172431" lon="9.281302067481626"><ele>712.0</ele><time>2026-04-28T10:42:21.951Z</time></trkpt><trkpt lat="39.78161755920363" lon="9.281407717624164"><ele>712.0</ele><time>2026-04-28T10:42:22.951Z</time></trkpt><trkpt lat="39.781539632639195" lon="9.281539732096197"><ele>707.5</ele><time>2026-04-28T10:42:23.951Z</time></trkpt><trkpt lat="39.781462644781115" lon="9.281682129248715"><ele>703.0</ele><time>2026-04-28T10:42:24.951Z</time></trkpt><trkpt lat="39.78139598242986" lon="9.281820572355084"><ele>698.5</ele><time>2026-04-28T10:42:25.951Z</time></trkpt><trkpt lat="39.781307500468884" lon="9.281916959277241"><ele>694.0</ele><time>2026-04-28T10:42:26.951Z</time></trkpt><trkpt lat="39.78118945224654" lon="9.28196852167723"><ele>694.0</ele><time>2026-04-28T10:42:27.951Z</time></trkpt><trkpt lat="39.78106476612624" lon="9.281969212904162"><ele>694.0</ele><time>2026-04-28T10:42:28.951Z</time></trkpt><trkpt lat="39.78095312768572" lon="9.281950475250296"><ele>694.0</ele><time>2026-04-28T10:42:29.951Z</time></trkpt><trkpt lat="39.78072758837049" lon="9.281916752530716"><ele>693.0</ele><time>2026-04-28T10:42:31.951Z</time></trkpt><trkpt lat="39.780637050252565" lon="9.281966952561797"><ele>692.0</ele><time>2026-04-28T10:42:32.951Z</time></trkpt><trkpt lat="39.78057763848219" lon="9.282068281399765"><ele>691.0</ele><time>2026-04-28T10:42:33.951Z</time></trkpt><trkpt lat="39.78058648982012" lon="9.282188870467111"><ele>690.0</ele><time>2026-04-28T10:42:34.951Z</time></trkpt><trkpt lat="39.7806465192303" lon="9.28228463988896"><ele>689.0</ele><time>2026-04-28T10:42:35.951Z</time></trkpt><trkpt lat="39.78073718190243" lon="9.282313957709587"><ele>689.0</ele><time>2026-04-28T10:42:36.951Z</time></trkpt><trkpt lat="39.78083788153809" lon="9.282289707402446"><ele>689.0</ele><time>2026-04-28T10:42:37.951Z</time></trkpt><trkpt lat="39.78094372827617" lon="9.282279679331388"><ele>689.0</ele><time>2026-04-28T10:42:38.951Z</time></trkpt><trkpt lat="39.78105048103496" lon="9.282311541655965"><ele>689.0</ele><time>2026-04-28T10:42:39.951Z</time></trkpt><trkpt lat="39.7811549813856" lon="9.282355478019758"><ele>689.0</ele><time>2026-04-28T10:42:40.951Z</time></trkpt><trkpt lat="39.78125699350149" lon="9.282395364857242"><ele>690.0</ele><time>2026-04-28T10:42:41.951Z</time></trkpt><trkpt lat="39.78135548561793" lon="9.282402646611684"><ele>691.0</ele><time>2026-04-28T10:42:42.951Z</time></trkpt><trkpt lat="39.781449881749126" lon="9.282359772651125"><ele>692.0</ele><time>2026-04-28T10:42:43.951Z</time></trkpt><trkpt lat="39.78152985693279" lon="9.282268075891992"><ele>693.0</ele><time>2026-04-28T10:42:44.951Z</time></trkpt><trkpt lat="39.78160315009682" lon="9.282161820048225"><ele>694.0</ele><time>2026-04-28T10:42:45.951Z</time></trkpt><trkpt lat="39.781680274530224" lon="9.28204648648423"><ele>694.0</ele><time>2026-04-28T10:42:46.951Z</time></trkpt><trkpt lat="39.78175990657581" lon="9.281921364011422"><ele>694.0</ele><time>2026-04-28T10:42:47.951Z</time></trkpt><trkpt lat="39.78185734949424" lon="9.281818455707281"><ele>694.0</ele><time>2026-04-28T10:42:48.951Z</time></trkpt><trkpt lat="39.7819884300393" lon="9.281765827886906"><ele>694.0</ele><time>2026-04-28T10:42:49.951Z</time></trkpt><trkpt lat="39.78212195563285" lon="9.281724366255249"><ele>690.5</ele><time>2026-04-28T10:42:50.951Z</time></trkpt><trkpt lat="39.78225736373346" lon="9.281695346305728"><ele>687.0</ele><time>2026-04-28T10:42:51.951Z</time></trkpt><trkpt lat="39.78239486395073" lon="9.281670150585537"><ele>683.5</ele><time>2026-04-28T10:42:52.951Z</time></trkpt><trkpt lat="39.78253762680559" lon="9.281645093492601"><ele>680.0</ele><time>2026-04-28T10:42:53.951Z</time></trkpt><trkpt lat="39.78267820497546" lon="9.281611570949446"><ele>676.5</ele><time>2026-04-28T10:42:54.951Z</time></trkpt><trkpt lat="39.78282376227198" lon="9.28158101602381"><ele>673.0</ele><time>2026-04-28T10:42:55.951Z</time></trkpt><trkpt lat="39.7829734028691" lon="9.281554221752964"><ele>669.5</ele><time>2026-04-28T10:42:56.951Z</time></trkpt><trkpt lat="39.783121168235596" lon="9.281516767910837"><ele>666.0</ele><time>2026-04-28T10:42:57.951Z</time></trkpt><trkpt lat="39.78327239122641" lon="9.281478775711413"><ele>665.0</ele><time>2026-04-28T10:42:58.951Z</time></trkpt><trkpt lat="39.78342263573984" lon="9.28142610563315"><ele>664.0</ele><time>2026-04-28T10:42:59.951Z</time></trkpt><trkpt lat="39.783563366013595" lon="9.28132331570092"><ele>663.0</ele><time>2026-04-28T10:43:00.95Z</time></trkpt><trkpt lat="39.78368893412618" lon="9.28117504295077"><ele>663.0</ele><time>2026-04-28T10:43:01.95Z</time></trkpt><trkpt lat="39.78381066652853" lon="9.281015684127599"><ele>663.0</ele><time>2026-04-28T10:43:02.95Z</time></trkpt><trkpt lat="39.78395077155674" lon="9.280867144786113"><ele>663.0</ele><time>2026-04-28T10:43:03.95Z</time></trkpt><trkpt lat="39.78409959788922" lon="9.2807173244689"><ele>660.6666666666666</ele><time>2026-04-28T10:43:04.95Z</time></trkpt><trkpt lat="39.78425391931387" lon="9.280573049126948"><ele>658.3333333333333</ele><time>2026-04-28T10:43:05.95Z</time></trkpt><trkpt lat="39.784414950552716" lon="9.28041953774533"><ele>656.0</ele><time>2026-04-28T10:43:06.95Z</time></trkpt><trkpt lat="39.78458384550172" lon="9.280275634478024"><ele>656.0</ele><time>2026-04-28T10:43:07.95Z</time></trkpt><trkpt lat="39.78475296280192" lon="9.280136152023815"><ele>656.0</ele><time>2026-04-28T10:43:08.95Z</time></trkpt><trkpt lat="39.784909468723654" lon="9.279998514154133"><ele>656.0</ele><time>2026-04-28T10:43:09.95Z</time></trkpt><trkpt lat="39.78505428137736" lon="9.279858463436286"><ele>659.3333333333333</ele><time>2026-04-28T10:43:10.95Z</time></trkpt><trkpt lat="39.78517677164078" lon="9.279675104198503"><ele>662.6666666666666</ele><time>2026-04-28T10:43:11.95Z</time></trkpt><trkpt lat="39.78528156585924" lon="9.279443829461073"><ele>666.0</ele><time>2026-04-28T10:43:12.95Z</time></trkpt><trkpt lat="39.78537158304794" lon="9.27917465430985"><ele>654.0</ele><time>2026-04-28T10:43:13.95Z</time></trkpt><trkpt lat="39.785471380536436" lon="9.27889971814919"><ele>642.0</ele><time>2026-04-28T10:43:14.95Z</time></trkpt><trkpt lat="39.78559474116834" lon="9.278634484620708"><ele>642.0</ele><time>2026-04-28T10:43:15.95Z</time></trkpt><trkpt lat="39.7857271987019" lon="9.27838700731191"><ele>642.0</ele><time>2026-04-28T10:43:16.952Z</time></trkpt><trkpt lat="39.7858542456633" lon="9.278136127906432"><ele>644.3333333333334</ele><time>2026-04-28T10:43:17.951Z</time></trkpt><trkpt lat="39.78597627218158" lon="9.27789999181029"><ele>646.6666666666667</ele><time>2026-04-28T10:43:18.951Z</time></trkpt><trkpt lat="39.786088282533086" lon="9.277653188695929"><ele>649.0</ele><time>2026-04-28T10:43:19.952Z</time></trkpt><trkpt lat="39.78616758627174" lon="9.277386476251452"><ele>638.6666666666667</ele><time>2026-04-28T10:43:20.952Z</time></trkpt><trkpt lat="39.786237126445215" lon="9.277109623315434"><ele>628.3333333333334</ele><time>2026-04-28T10:43:21.952Z</time></trkpt><trkpt lat="39.78630617467492" lon="9.276832457175692"><ele>618.0</ele><time>2026-04-28T10:43:22.952Z</time></trkpt><trkpt lat="39.78636646675085" lon="9.276580751212666"><ele>616.6666666666666</ele><time>2026-04-28T10:43:23.951Z</time></trkpt><trkpt lat="39.786413118168575" lon="9.276362706418874"><ele>615.3333333333333</ele><time>2026-04-28T10:43:24.951Z</time></trkpt><trkpt lat="39.78641088560892" lon="9.27616913191672"><ele>614.0</ele><time>2026-04-28T10:43:25.952Z</time></trkpt><trkpt lat="39.786334481616585" lon="9.275990430196611"><ele>614.0</ele><time>2026-04-28T10:43:26.952Z</time></trkpt><trkpt lat="39.78623333656575" lon="9.275821688717295"><ele>614.0</ele><time>2026-04-28T10:43:27.952Z</time></trkpt><trkpt lat="39.78615622403058" lon="9.275694332103985"><ele>614.0</ele><time>2026-04-28T10:43:28.951Z</time></trkpt><trkpt lat="39.78615314102213" lon="9.275568119736707"><ele>614.0</ele><time>2026-04-28T10:43:29.951Z</time></trkpt><trkpt lat="39.78623188267942" lon="9.275484179892134"><ele>614.0</ele><time>2026-04-28T10:43:30.951Z</time></trkpt><trkpt lat="39.78634832527171" lon="9.275483333488271"><ele>614.0</ele><time>2026-04-28T10:43:31.951Z</time></trkpt><trkpt lat="39.78648737584119" lon="9.275563250324202"><ele>614.0</ele><time>2026-04-28T10:43:32.951Z</time></trkpt><trkpt lat="39.786619777152744" lon="9.275696749295571"><ele>614.0</ele><time>2026-04-28T10:43:33.951Z</time></trkpt><trkpt lat="39.78670614636923" lon="9.275849853509651"><ele>614.0</ele><time>2026-04-28T10:43:34.951Z</time></trkpt><trkpt lat="39.78673581291277" lon="9.276039952868341"><ele>614.0</ele><time>2026-04-28T10:43:35.951Z</time></trkpt><trkpt lat="39.78673109813724" lon="9.276270540455108"><ele>614.0</ele><time>2026-04-28T10:43:36.951Z</time></trkpt><trkpt lat="39.78672655050637" lon="9.276557970246722"><ele>616.0</ele><time>2026-04-28T10:43:37.951Z</time></trkpt><trkpt lat="39.78672374925695" lon="9.276867236363831"><ele>618.0</ele><time>2026-04-28T10:43:38.951Z</time></trkpt><trkpt lat="39.78673376955105" lon="9.277181159436713"><ele>615.5</ele><time>2026-04-28T10:43:39.951Z</time></trkpt><trkpt lat="39.78678065696803" lon="9.27748266530831"><ele>613.0</ele><time>2026-04-28T10:43:40.951Z</time></trkpt><trkpt lat="39.786839691709716" lon="9.27776418164852"><ele>605.0</ele><time>2026-04-28T10:43:41.951Z</time></trkpt><trkpt lat="39.78689057755184" lon="9.278030526072369"><ele>597.0</ele><time>2026-04-28T10:43:42.951Z</time></trkpt><trkpt lat="39.786933049612294" lon="9.278245275508693"><ele>589.0</ele><time>2026-04-28T10:43:43.951Z</time></trkpt><trkpt lat="39.78694910052467" lon="9.278449019350333"><ele>589.0</ele><time>2026-04-28T10:43:44.951Z</time></trkpt><trkpt lat="39.7870578675421" lon="9.278605671486048"><ele>589.0</ele><time>2026-04-28T10:43:45.951Z</time></trkpt><trkpt lat="39.78722500950309" lon="9.278711857151867"><ele>589.0</ele><time>2026-04-28T10:43:46.951Z</time></trkpt><trkpt lat="39.787395365750655" lon="9.27880382910178"><ele>589.0</ele><time>2026-04-28T10:43:47.951Z</time></trkpt><trkpt lat="39.787547778183125" lon="9.27892102085787"><ele>589.0</ele><time>2026-04-28T10:43:48.951Z</time></trkpt><trkpt lat="39.787682439127586" lon="9.279029667795754"><ele>589.0</ele><time>2026-04-28T10:43:49.951Z</time></trkpt><trkpt lat="39.78777349534731" lon="9.279164959536347"><ele>585.3333333333334</ele><time>2026-04-28T10:43:50.951Z</time></trkpt><trkpt lat="39.7878377801835" lon="9.279353723290178"><ele>581.6666666666666</ele><time>2026-04-28T10:43:51.951Z</time></trkpt><trkpt lat="39.78785293758693" lon="9.279631565893336"><ele>578.0</ele><time>2026-04-28T10:43:52.951Z</time></trkpt><trkpt lat="39.78784590827786" lon="9.279878832319485"><ele>576.5</ele><time>2026-04-28T10:43:53.951Z</time></trkpt><trkpt lat="39.78780205411984" lon="9.280041689706303"><ele>575.0</ele><time>2026-04-28T10:43:54.951Z</time></trkpt><trkpt lat="39.787702519929155" lon="9.28015166457585"><ele>573.5</ele><time>2026-04-28T10:43:55.951Z</time></trkpt><trkpt lat="39.78755152119913" lon="9.280203319259165"><ele>572.0</ele><time>2026-04-28T10:43:56.951Z</time></trkpt><trkpt lat="39.78739489409854" lon="9.280220717648659"><ele>572.0</ele><time>2026-04-28T10:43:57.951Z</time></trkpt><trkpt lat="39.78727340158794" lon="9.280246759677498"><ele>572.0</ele><time>2026-04-28T10:43:58.951Z</time></trkpt><trkpt lat="39.787192859455985" lon="9.28028970028298"><ele>572.0</ele><time>2026-04-28T10:43:59.951Z</time></trkpt><trkpt lat="39.78713783852471" lon="9.2803656327931"><ele>572.0</ele><time>2026-04-28T10:44:00.951Z</time></trkpt><trkpt lat="39.78711435835266" lon="9.280451730386726"><ele>572.0</ele><time>2026-04-28T10:44:01.951Z</time></trkpt><trkpt lat="39.78710775116336" lon="9.280553991409274"><ele>572.0</ele><time>2026-04-28T10:44:02.951Z</time></trkpt><trkpt lat="39.787136376539586" lon="9.280672374553536"><ele>572.0</ele><time>2026-04-28T10:44:03.95Z</time></trkpt><trkpt lat="39.78720931222473" lon="9.280756332255523"><ele>572.0</ele><time>2026-04-28T10:44:04.95Z</time></trkpt><trkpt lat="39.78731851501269" lon="9.280743105721296"><ele>572.0</ele><time>2026-04-28T10:44:05.95Z</time></trkpt><trkpt lat="39.78745631693777" lon="9.280687079332834"><ele>572.0</ele><time>2026-04-28T10:44:06.95Z</time></trkpt><trkpt lat="39.787602574213786" lon="9.28060925048154"><ele>572.0</ele><time>2026-04-28T10:44:07.95Z</time></trkpt><trkpt lat="39.787740435483066" lon="9.280527309667404"><ele>572.0</ele><time>2026-04-28T10:44:08.95Z</time></trkpt><trkpt lat="39.787893629666385" lon="9.280446542688168"><ele>572.0</ele><time>2026-04-28T10:44:09.95Z</time></trkpt><trkpt lat="39.78804388104617" lon="9.280336013115988"><ele>572.0</ele><time>2026-04-28T10:44:10.95Z</time></trkpt><trkpt lat="39.78817977696124" lon="9.280170955917658"><ele>572.0</ele><time>2026-04-28T10:44:11.95Z</time></trkpt><trkpt lat="39.788330546696436" lon="9.279999196912478"><ele>572.0</ele><time>2026-04-28T10:44:12.95Z</time></trkpt><trkpt lat="39.788481372083865" lon="9.279813803694609"><ele>569.0</ele><time>2026-04-28T10:44:13.95Z</time></trkpt><trkpt lat="39.78867209438723" lon="9.279708647388686"><ele>566.0</ele><time>2026-04-28T10:44:14.95Z</time></trkpt><trkpt lat="39.78886524475413" lon="9.279627816027837"><ele>563.0</ele><time>2026-04-28T10:44:15.95Z</time></trkpt><trkpt lat="39.78904971722186" lon="9.279597848735454"><ele>563.0</ele><time>2026-04-28T10:44:16.95Z</time></trkpt><trkpt lat="39.7892120561704" lon="9.279530286484547"><ele>563.0</ele><time>2026-04-28T10:44:17.95Z</time></trkpt><trkpt lat="39.78932803049595" lon="9.279342701521163"><ele>563.0</ele><time>2026-04-28T10:44:18.95Z</time></trkpt><trkpt lat="39.78940961924728" lon="9.279139733112853"><ele>559.0</ele><time>2026-04-28T10:44:19.95Z</time></trkpt><trkpt lat="39.789488221878045" lon="9.278918413329475"><ele>555.0</ele><time>2026-04-28T10:44:20.95Z</time></trkpt><trkpt lat="39.789576289607176" lon="9.278750290608352"><ele>551.0</ele><time>2026-04-28T10:44:21.95Z</time></trkpt><trkpt lat="39.789702497313705" lon="9.278651397309536"><ele>551.0</ele><time>2026-04-28T10:44:22.95Z</time></trkpt><trkpt lat="39.78985579316373" lon="9.278589717743763"><ele>551.0</ele><time>2026-04-28T10:44:23.95Z</time></trkpt><trkpt lat="39.789985320026304" lon="9.278488867056213"><ele>551.0</ele><time>2026-04-28T10:44:24.95Z</time></trkpt><trkpt lat="39.79008781634132" lon="9.278349635847063"><ele>551.0</ele><time>2026-04-28T10:44:25.95Z</time></trkpt><trkpt lat="39.79011506245477" lon="9.278179451457639"><ele>551.0</ele><time>2026-04-28T10:44:26.95Z</time></trkpt><trkpt lat="39.79006918871474" lon="9.277974730828618"><ele>551.0</ele><time>2026-04-28T10:44:27.95Z</time></trkpt><trkpt lat="39.78995905141871" lon="9.277774953550315"><ele>546.6666666666666</ele><time>2026-04-28T10:44:28.95Z</time></trkpt><trkpt lat="39.78981394144388" lon="9.277569917772006"><ele>542.3333333333334</ele><time>2026-04-28T10:44:29.95Z</time></trkpt><trkpt lat="39.789675052169464" lon="9.27735810496368"><ele>538.0</ele><time>2026-04-28T10:44:30.95Z</time></trkpt><trkpt lat="39.78956431581034" lon="9.27713477299287"><ele>529.3333333333334</ele><time>2026-04-28T10:44:31.95Z</time></trkpt><trkpt lat="39.789495465376156" lon="9.27691387477285"><ele>520.6666666666666</ele><time>2026-04-28T10:44:32.95Z</time></trkpt><trkpt lat="39.789449973643606" lon="9.276709972168122"><ele>512.0</ele><time>2026-04-28T10:44:33.95Z</time></trkpt><trkpt lat="39.78937025307859" lon="9.276566602021152"><ele>521.0</ele><time>2026-04-28T10:44:34.95Z</time></trkpt><trkpt lat="39.78924231005741" lon="9.276469168256773"><ele>530.0</ele><time>2026-04-28T10:44:35.95Z</time></trkpt><trkpt lat="39.78906875104621" lon="9.276465724817323"><ele>539.0</ele><time>2026-04-28T10:44:36.95Z</time></trkpt><trkpt lat="39.78890028564766" lon="9.276522410046082"><ele>539.0</ele><time>2026-04-28T10:44:37.95Z</time></trkpt><trkpt lat="39.78874746228267" lon="9.276577542494023"><ele>539.0</ele><time>2026-04-28T10:44:38.95Z</time></trkpt><trkpt lat="39.78863221773165" lon="9.276507064234073"><ele>539.0</ele><time>2026-04-28T10:44:39.95Z</time></trkpt><trkpt lat="39.78854574734939" lon="9.276336383637183"><ele>539.0</ele><time>2026-04-28T10:44:40.95Z</time></trkpt><trkpt lat="39.78849584266433" lon="9.276147889712515"><ele>530.0</ele><time>2026-04-28T10:44:41.95Z</time></trkpt><trkpt lat="39.78851617615589" lon="9.275982171064067"><ele>521.0</ele><time>2026-04-28T10:44:42.95Z</time></trkpt><trkpt lat="39.788592586359776" lon="9.275806126714448"><ele>512.0</ele><time>2026-04-28T10:44:43.95Z</time></trkpt><trkpt lat="39.78866777257851" lon="9.27562003835504"><ele>503.0</ele><time>2026-04-28T10:44:44.95Z</time></trkpt><trkpt lat="39.7886870682806" lon="9.275430996110462"><ele>509.0</ele><time>2026-04-28T10:44:45.95Z</time></trkpt><trkpt lat="39.78862564067191" lon="9.275233876557705"><ele>515.0</ele><time>2026-04-28T10:44:46.95Z</time></trkpt><trkpt lat="39.78850224074654" lon="9.275029536705967"><ele>521.0</ele><time>2026-04-28T10:44:47.95Z</time></trkpt><trkpt lat="39.78835973931685" lon="9.274820626793879"><ele>508.0</ele><time>2026-04-28T10:44:48.95Z</time></trkpt><trkpt lat="39.78819669372496" lon="9.27460146531654"><ele>495.0</ele><time>2026-04-28T10:44:49.95Z</time></trkpt><trkpt lat="39.788027216304776" lon="9.274388284206305"><ele>495.0</ele><time>2026-04-28T10:44:50.95Z</time></trkpt><trkpt lat="39.78789426365481" lon="9.27416259659797"><ele>495.0</ele><time>2026-04-28T10:44:51.95Z</time></trkpt><trkpt lat="39.787802681539105" lon="9.273917237684142"><ele>495.0</ele><time>2026-04-28T10:44:52.95Z</time></trkpt><trkpt lat="39.7877076842701" lon="9.273688808516942"><ele>498.0</ele><time>2026-04-28T10:44:53.95Z</time></trkpt><trkpt lat="39.78759084394494" lon="9.273485160663142"><ele>501.0</ele><time>2026-04-28T10:44:54.95Z</time></trkpt><trkpt lat="39.78744001496361" lon="9.273326621365323"><ele>504.0</ele><time>2026-04-28T10:44:55.95Z</time></trkpt><trkpt lat="39.78730024837695" lon="9.27319324005388"><ele>501.25</ele><time>2026-04-28T10:44:56.95Z</time></trkpt><trkpt lat="39.787231893470214" lon="9.273054820054872"><ele>498.5</ele><time>2026-04-28T10:44:57.95Z</time></trkpt><trkpt lat="39.78723302719799" lon="9.27290681777747"><ele>495.75</ele><time>2026-04-28T10:44:58.95Z</time></trkpt><trkpt lat="39.78729684196803" lon="9.272739690485935"><ele>493.0</ele><time>2026-04-28T10:44:59.95Z</time></trkpt><trkpt lat="39.7873843712667" lon="9.272535447187398"><ele>493.0</ele><time>2026-04-28T10:45:00.95Z</time></trkpt><trkpt lat="39.787468165558884" lon="9.272324586271516"><ele>493.0</ele><time>2026-04-28T10:45:01.95Z</time></trkpt><trkpt lat="39.78750276007627" lon="9.272110706711869"><ele>493.0</ele><time>2026-04-28T10:45:02.95Z</time></trkpt><trkpt lat="39.787466156287" lon="9.271893446536481"><ele>489.33333333333337</ele><time>2026-04-28T10:45:03.95Z</time></trkpt><trkpt lat="39.78736586386207" lon="9.27166780011329"><ele>485.66666666666663</ele><time>2026-04-28T10:45:04.95Z</time></trkpt><trkpt lat="39.78725326359458" lon="9.271457957463046"><ele>482.0</ele><time>2026-04-28T10:45:05.95Z</time></trkpt><trkpt lat="39.787125284928074" lon="9.271251818180803"><ele>485.0</ele><time>2026-04-28T10:45:06.95Z</time></trkpt><trkpt lat="39.78696890932855" lon="9.271058911506003"><ele>488.0</ele><time>2026-04-28T10:45:07.95Z</time></trkpt><trkpt lat="39.786815167894055" lon="9.270858730795318"><ele>491.0</ele><time>2026-04-28T10:45:08.95Z</time></trkpt><trkpt lat="39.78668358151305" lon="9.270637967742434"><ele>482.0</ele><time>2026-04-28T10:45:09.95Z</time></trkpt><trkpt lat="39.786573154039026" lon="9.270406231903388"><ele>473.0</ele><time>2026-04-28T10:45:10.949Z</time></trkpt><trkpt lat="39.78645011440399" lon="9.270189474097922"><ele>464.0</ele><time>2026-04-28T10:45:11.949Z</time></trkpt><trkpt lat="39.7863150469106" lon="9.269978727917717"><ele>464.0</ele><time>2026-04-28T10:45:12.949Z</time></trkpt><trkpt lat="39.786179273085466" lon="9.269790889932164"><ele>464.0</ele><time>2026-04-28T10:45:13.949Z</time></trkpt><trkpt lat="39.78608283486863" lon="9.269631514742837"><ele>464.0</ele><time>2026-04-28T10:45:14.949Z</time></trkpt><trkpt lat="39.786037330668286" lon="9.269464691124494"><ele>462.4</ele><time>2026-04-28T10:45:15.949Z</time></trkpt><trkpt lat="39.786063252493754" lon="9.269326360621516"><ele>460.79999999999995</ele><time>2026-04-28T10:45:16.949Z</time></trkpt><trkpt lat="39.786148307239884" lon="9.269252837385068"><ele>459.20000000000005</ele><time>2026-04-28T10:45:17.949Z</time></trkpt><trkpt lat="39.78624829607851" lon="9.269277318478549"><ele>457.6</ele><time>2026-04-28T10:45:18.949Z</time></trkpt><trkpt lat="39.786340864034294" lon="9.269385460583067"><ele>456.0</ele><time>2026-04-28T10:45:19.949Z</time></trkpt><trkpt lat="39.78641211439988" lon="9.26957938472012"><ele>456.0</ele><time>2026-04-28T10:45:20.949Z</time></trkpt><trkpt lat="39.78649751234813" lon="9.2697036443542"><ele>456.0</ele><time>2026-04-28T10:45:21.949Z</time></trkpt><trkpt lat="39.786605398294014" lon="9.269716050788073"><ele>456.0</ele><time>2026-04-28T10:45:22.951Z</time></trkpt><trkpt lat="39.786731149256795" lon="9.269624957002915"><ele>456.0</ele><time>2026-04-28T10:45:23.951Z</time></trkpt><trkpt lat="39.78686165082684" lon="9.26946791165862"><ele>458.33333333333337</ele><time>2026-04-28T10:45:24.951Z</time></trkpt><trkpt lat="39.78702008639546" lon="9.269321705791"><ele>460.6666666666667</ele><time>2026-04-28T10:45:25.951Z</time></trkpt><trkpt lat="39.787197195598054" lon="9.269198832526676"><ele>463.0</ele><time>2026-04-28T10:45:26.951Z</time></trkpt><trkpt lat="39.78737883176875" lon="9.269066699911134"><ele>461.0</ele><time>2026-04-28T10:45:27.951Z</time></trkpt><trkpt lat="39.78755266587816" lon="9.268915509156122"><ele>459.0</ele><time>2026-04-28T10:45:28.95Z</time></trkpt><trkpt lat="39.78770834034193" lon="9.26875074388575"><ele>457.0</ele><time>2026-04-28T10:45:29.95Z</time></trkpt><trkpt lat="39.78783449135176" lon="9.268539882364392"><ele>471.0</ele><time>2026-04-28T10:45:30.95Z</time></trkpt><trkpt lat="39.7879241805502" lon="9.268271942322183"><ele>485.0</ele><time>2026-04-28T10:45:31.95Z</time></trkpt><trkpt lat="39.787989115162716" lon="9.267998465636762"><ele>499.0</ele><time>2026-04-28T10:45:32.95Z</time></trkpt><trkpt lat="39.78797445741367" lon="9.267729135476477"><ele>502.33333333333337</ele><time>2026-04-28T10:45:33.95Z</time></trkpt><trkpt lat="39.78791906348865" lon="9.267456846541448"><ele>505.66666666666663</ele><time>2026-04-28T10:45:34.951Z</time></trkpt><trkpt lat="39.7878286715767" lon="9.26720063795293"><ele>509.0</ele><time>2026-04-28T10:45:35.95Z</time></trkpt><trkpt lat="39.78774600069169" lon="9.26700747558223"><ele>498.0</ele><time>2026-04-28T10:45:36.95Z</time></trkpt><trkpt lat="39.78760449415665" lon="9.266861503075882"><ele>487.0</ele><time>2026-04-28T10:45:37.95Z</time></trkpt><trkpt lat="39.787427323216285" lon="9.266753660467467"><ele>476.0</ele><time>2026-04-28T10:45:38.95Z</time></trkpt><trkpt lat="39.78727318650974" lon="9.266694176186896"><ele>476.0</ele><time>2026-04-28T10:45:39.95Z</time></trkpt><trkpt lat="39.787179636880715" lon="9.266611309722881"><ele>476.0</ele><time>2026-04-28T10:45:40.95Z</time></trkpt><trkpt lat="39.78712719864724" lon="9.266433585286752"><ele>476.0</ele><time>2026-04-28T10:45:41.95Z</time></trkpt><trkpt lat="39.78716988274788" lon="9.266264828974967"><ele>476.0</ele><time>2026-04-28T10:45:42.95Z</time></trkpt><trkpt lat="39.787283798426266" lon="9.266113577714549"><ele>477.3333333333333</ele><time>2026-04-28T10:45:43.95Z</time></trkpt><trkpt lat="39.78745999802554" lon="9.26602150355734"><ele>478.66666666666663</ele><time>2026-04-28T10:45:44.95Z</time></trkpt><trkpt lat="39.78764708468291" lon="9.265969546503957"><ele>480.0</ele><time>2026-04-28T10:45:45.95Z</time></trkpt><trkpt lat="39.78778253775194" lon="9.265888404616229"><ele>482.0</ele><time>2026-04-28T10:45:46.95Z</time></trkpt><trkpt lat="39.78785105738613" lon="9.265768475883613"><ele>484.0</ele><time>2026-04-28T10:45:47.95Z</time></trkpt><trkpt lat="39.787825036930556" lon="9.265614205249065"><ele>486.0</ele><time>2026-04-28T10:45:48.95Z</time></trkpt><trkpt lat="39.787728920276436" lon="9.265476968491763"><ele>488.0</ele><time>2026-04-28T10:45:49.95Z</time></trkpt><trkpt lat="39.78756362810151" lon="9.265402757829037"><ele>488.0</ele><time>2026-04-28T10:45:50.95Z</time></trkpt><trkpt lat="39.78744761802108" lon="9.265305501614076"><ele>488.0</ele><time>2026-04-28T10:45:51.95Z</time></trkpt><trkpt lat="39.78742014692334" lon="9.265165087725437"><ele>488.0</ele><time>2026-04-28T10:45:52.95Z</time></trkpt><trkpt lat="39.787469603640986" lon="9.265020988938794"><ele>488.0</ele><time>2026-04-28T10:45:53.95Z</time></trkpt><trkpt lat="39.78757189659351" lon="9.26484305700607"><ele>493.0</ele><time>2026-04-28T10:45:54.95Z</time></trkpt><trkpt lat="39.78761623071876" lon="9.264613631462975"><ele>498.0</ele><time>2026-04-28T10:45:55.95Z</time></trkpt><trkpt lat="39.787637455399185" lon="9.264344153928048"><ele>503.0</ele><time>2026-04-28T10:45:56.95Z</time></trkpt><trkpt lat="39.787656916068116" lon="9.264103031664463"><ele>506.0</ele><time>2026-04-28T10:45:57.95Z</time></trkpt><trkpt lat="39.78764457868494" lon="9.263921885731458"><ele>509.0</ele><time>2026-04-28T10:45:58.95Z</time></trkpt><trkpt lat="39.7875632564523" lon="9.263800259326544"><ele>512.0</ele><time>2026-04-28T10:45:59.95Z</time></trkpt><trkpt lat="39.78744017253805" lon="9.263759351428808"><ele>515.0</ele><time>2026-04-28T10:46:00.95Z</time></trkpt><trkpt lat="39.78731117291813" lon="9.26381847461609"><ele>511.0</ele><time>2026-04-28T10:46:01.95Z</time></trkpt><trkpt lat="39.78719506110682" lon="9.263964826890174"><ele>507.0</ele><time>2026-04-28T10:46:02.95Z</time></trkpt><trkpt lat="39.78707996557888" lon="9.26422775383458"><ele>503.0</ele><time>2026-04-28T10:46:03.95Z</time></trkpt><trkpt lat="39.78694435493394" lon="9.26447593866059"><ele>502.0</ele><time>2026-04-28T10:46:04.95Z</time></trkpt><trkpt lat="39.78677162424556" lon="9.264648279969611"><ele>501.0</ele><time>2026-04-28T10:46:05.95Z</time></trkpt><trkpt lat="39.78659035527384" lon="9.26480780869859"><ele>500.0</ele><time>2026-04-28T10:46:06.95Z</time></trkpt><trkpt lat="39.78640048756684" lon="9.264971125141749"><ele>500.0</ele><time>2026-04-28T10:46:07.95Z</time></trkpt><trkpt lat="39.78624444816711" lon="9.265181189156397"><ele>500.0</ele><time>2026-04-28T10:46:08.95Z</time></trkpt><trkpt lat="39.78610808936233" lon="9.26542274230432"><ele>505.0</ele><time>2026-04-28T10:46:09.95Z</time></trkpt><trkpt lat="39.7859628756645" lon="9.26564847554626"><ele>510.0</ele><time>2026-04-28T10:46:10.95Z</time></trkpt><trkpt lat="39.785826379826354" lon="9.265876106772717"><ele>515.0</ele><time>2026-04-28T10:46:11.95Z</time></trkpt><trkpt lat="39.785708088077556" lon="9.266075808537154"><ele>515.0</ele><time>2026-04-28T10:46:12.95Z</time></trkpt><trkpt lat="39.78560769151273" lon="9.266235588214645"><ele>515.0</ele><time>2026-04-28T10:46:13.95Z</time></trkpt><trkpt lat="39.78551841117326" lon="9.266333263791596"><ele>515.0</ele><time>2026-04-28T10:46:14.95Z</time></trkpt><trkpt lat="39.785434042419624" lon="9.266332927058063"><ele>515.0</ele><time>2026-04-28T10:46:15.95Z</time></trkpt><trkpt lat="39.7853756641018" lon="9.26623698960103"><ele>515.0</ele><time>2026-04-28T10:46:16.95Z</time></trkpt><trkpt lat="39.785412684615125" lon="9.266074960359987"><ele>515.0</ele><time>2026-04-28T10:46:17.95Z</time></trkpt><trkpt lat="39.78553128657641" lon="9.265938879004208"><ele>515.0</ele><time>2026-04-28T10:46:18.949Z</time></trkpt><trkpt lat="39.78572077169997" lon="9.265803903008846"><ele>515.0</ele><time>2026-04-28T10:46:19.949Z</time></trkpt><trkpt lat="39.78587079098795" lon="9.265635742020306"><ele>515.0</ele><time>2026-04-28T10:46:20.949Z</time></trkpt><trkpt lat="39.78598221421602" lon="9.265392560569584"><ele>515.0</ele><time>2026-04-28T10:46:21.949Z</time></trkpt><trkpt lat="39.78604088933643" lon="9.265103184250172"><ele>518.3333333333333</ele><time>2026-04-28T10:46:22.949Z</time></trkpt><trkpt lat="39.786112139786134" lon="9.264842143375752"><ele>521.6666666666666</ele><time>2026-04-28T10:46:23.949Z</time></trkpt><trkpt lat="39.78620034145653" lon="9.264600140157176"><ele>525.0</ele><time>2026-04-28T10:46:24.949Z</time></trkpt><trkpt lat="39.78631307781444" lon="9.264399220073729"><ele>525.0</ele><time>2026-04-28T10:46:25.949Z</time></trkpt><trkpt lat="39.78644269160448" lon="9.264250749842136"><ele>525.0</ele><time>2026-04-28T10:46:26.949Z</time></trkpt><trkpt lat="39.7865731744406" lon="9.264086804196495"><ele>525.0</ele><time>2026-04-28T10:46:27.949Z</time></trkpt><trkpt lat="39.78667159205708" lon="9.26387110830055"><ele>532.0</ele><time>2026-04-28T10:46:28.949Z</time></trkpt><trkpt lat="39.786741190306884" lon="9.263625897508911"><ele>539.0</ele><time>2026-04-28T10:46:29.949Z</time></trkpt><trkpt lat="39.786744138778815" lon="9.263350880266655"><ele>546.0</ele><time>2026-04-28T10:46:30.949Z</time></trkpt><trkpt lat="39.78678301671312" lon="9.263089632085533"><ele>540.3333333333334</ele><time>2026-04-28T10:46:31.949Z</time></trkpt><trkpt lat="39.786850590782336" lon="9.262845461685984"><ele>534.6666666666667</ele><time>2026-04-28T10:46:32.949Z</time></trkpt><trkpt lat="39.78689747100678" lon="9.262596715960102"><ele>529.0</ele><time>2026-04-28T10:46:33.949Z</time></trkpt><trkpt lat="39.78691219685768" lon="9.262344026555041"><ele>534.6666666666667</ele><time>2026-04-28T10:46:34.949Z</time></trkpt><trkpt lat="39.7869056949773" lon="9.262069534866232"><ele>540.3333333333334</ele><time>2026-04-28T10:46:35.949Z</time></trkpt><trkpt lat="39.78690495881966" lon="9.261797404096521"><ele>546.0</ele><time>2026-04-28T10:46:36.949Z</time></trkpt><trkpt lat="39.78688656996805" lon="9.261536550760232"><ele>552.6666666666666</ele><time>2026-04-28T10:46:37.949Z</time></trkpt><trkpt lat="39.78686211026449" lon="9.26130986465216"><ele>559.3333333333333</ele><time>2026-04-28T10:46:38.949Z</time></trkpt><trkpt lat="39.7868803911129" lon="9.261112074353436"><ele>566.0</ele><time>2026-04-28T10:46:39.949Z</time></trkpt><trkpt lat="39.78695295423062" lon="9.260934652881021"><ele>566.0</ele><time>2026-04-28T10:46:40.949Z</time></trkpt><trkpt lat="39.787056331303155" lon="9.260762899509896"><ele>566.0</ele><time>2026-04-28T10:46:41.949Z</time></trkpt><trkpt lat="39.787140166621164" lon="9.260601158335467"><ele>566.0</ele><time>2026-04-28T10:46:42.949Z</time></trkpt><trkpt lat="39.787212309288876" lon="9.260468217972683"><ele>566.0</ele><time>2026-04-28T10:46:43.949Z</time></trkpt><trkpt lat="39.78730164058076" lon="9.260405464975449"><ele>566.0</ele><time>2026-04-28T10:46:44.949Z</time></trkpt><trkpt lat="39.78739314660408" lon="9.260433344061644"><ele>566.0</ele><time>2026-04-28T10:46:45.949Z</time></trkpt><trkpt lat="39.787468581198276" lon="9.260562191111472"><ele>566.0</ele><time>2026-04-28T10:46:46.949Z</time></trkpt><trkpt lat="39.787524689489416" lon="9.260794991691046"><ele>566.0</ele><time>2026-04-28T10:46:47.949Z</time></trkpt><trkpt lat="39.7875958297846" lon="9.260972832133655"><ele>571.75</ele><time>2026-04-28T10:46:48.949Z</time></trkpt><trkpt lat="39.78768999270078" lon="9.261066170640529"><ele>577.5</ele><time>2026-04-28T10:46:49.949Z</time></trkpt><trkpt lat="39.787845349610656" lon="9.261088690570478"><ele>583.25</ele><time>2026-04-28T10:46:50.949Z</time></trkpt><trkpt lat="39.78800060492987" lon="9.261017371666558"><ele>589.0</ele><time>2026-04-28T10:46:51.949Z</time></trkpt><trkpt lat="39.7881578185266" lon="9.26095161173971"><ele>589.0</ele><time>2026-04-28T10:46:52.949Z</time></trkpt><trkpt lat="39.78825718791811" lon="9.26101322968424"><ele>589.0</ele><time>2026-04-28T10:46:53.949Z</time></trkpt><trkpt lat="39.788306305193466" lon="9.261158691908108"><ele>589.0</ele><time>2026-04-28T10:46:54.949Z</time></trkpt><trkpt lat="39.788361617573486" lon="9.261269109170305"><ele>589.0</ele><time>2026-04-28T10:46:55.949Z</time></trkpt><trkpt lat="39.7884405506819" lon="9.261247903758205"><ele>589.0</ele><time>2026-04-28T10:46:56.949Z</time></trkpt><trkpt lat="39.788501323518794" lon="9.261144527411911"><ele>589.0</ele><time>2026-04-28T10:46:57.949Z</time></trkpt><trkpt lat="39.78850241487631" lon="9.260982711024207"><ele>589.0</ele><time>2026-04-28T10:46:58.949Z</time></trkpt><trkpt lat="39.78839691815561" lon="9.26081357857399"><ele>589.0</ele><time>2026-04-28T10:46:59.949Z</time></trkpt><trkpt lat="39.78823163718553" lon="9.260694966368"><ele>589.0</ele><time>2026-04-28T10:47:00.949Z</time></trkpt><trkpt lat="39.78804441183541" lon="9.260651563022355"><ele>589.0</ele><time>2026-04-28T10:47:01.949Z</time></trkpt><trkpt lat="39.787899660172904" lon="9.260590873220435"><ele>589.0</ele><time>2026-04-28T10:47:02.949Z</time></trkpt><trkpt lat="39.787842476909375" lon="9.260501313097015"><ele>589.0</ele><time>2026-04-28T10:47:03.949Z</time></trkpt><trkpt lat="39.78784685424858" lon="9.260357817700642"><ele>588.5</ele><time>2026-04-28T10:47:04.949Z</time></trkpt><trkpt lat="39.787885251141205" lon="9.26017981613852"><ele>588.0</ele><time>2026-04-28T10:47:05.949Z</time></trkpt><trkpt lat="39.78787184434836" lon="9.260008247255838"><ele>587.5</ele><time>2026-04-28T10:47:06.949Z</time></trkpt><trkpt lat="39.78777002115995" lon="9.259881397002072"><ele>587.0</ele><time>2026-04-28T10:47:07.949Z</time></trkpt><trkpt lat="39.7876294020059" lon="9.259806816436123"><ele>593.25</ele><time>2026-04-28T10:47:08.949Z</time></trkpt><trkpt lat="39.78753748404499" lon="9.25969979896309"><ele>599.5</ele><time>2026-04-28T10:47:09.949Z</time></trkpt><trkpt lat="39.787505816344456" lon="9.259511542423978"><ele>605.75</ele><time>2026-04-28T10:47:10.949Z</time></trkpt><trkpt lat="39.78749063153163" lon="9.259297608157"><ele>612.0</ele><time>2026-04-28T10:47:11.949Z</time></trkpt><trkpt lat="39.78742107790618" lon="9.259168046202184"><ele>612.0</ele><time>2026-04-28T10:47:12.949Z</time></trkpt><trkpt lat="39.7873022595697" lon="9.259112737511836"><ele>612.0</ele><time>2026-04-28T10:47:13.949Z</time></trkpt><trkpt lat="39.78717120088273" lon="9.259142232097139"><ele>612.0</ele><time>2026-04-28T10:47:14.949Z</time></trkpt><trkpt lat="39.787043286614335" lon="9.259239235385476"><ele>612.0</ele><time>2026-04-28T10:47:15.949Z</time></trkpt><trkpt lat="39.78691535325103" lon="9.259388391027422"><ele>616.0</ele><time>2026-04-28T10:47:16.949Z</time></trkpt><trkpt lat="39.7867938884241" lon="9.259543832224638"><ele>620.0</ele><time>2026-04-28T10:47:17.949Z</time></trkpt><trkpt lat="39.7866614585355" lon="9.259679398488258"><ele>624.0</ele><time>2026-04-28T10:47:18.949Z</time></trkpt><trkpt lat="39.78651590256983" lon="9.259739349102833"><ele>624.0</ele><time>2026-04-28T10:47:19.949Z</time></trkpt><trkpt lat="39.7863553155897" lon="9.259746291737605"><ele>624.0</ele><time>2026-04-28T10:47:20.949Z</time></trkpt><trkpt lat="39.786217495282756" lon="9.259777470263838"><ele>624.0</ele><time>2026-04-28T10:47:21.949Z</time></trkpt><trkpt lat="39.78609337006495" lon="9.259902764899195"><ele>624.3333333333334</ele><time>2026-04-28T10:47:22.949Z</time></trkpt><trkpt lat="39.78599265020724" lon="9.2601044499985"><ele>624.6666666666667</ele><time>2026-04-28T10:47:23.949Z</time></trkpt><trkpt lat="39.78585928275706" lon="9.260254173311646"><ele>625.0</ele><time>2026-04-28T10:47:24.949Z</time></trkpt><trkpt lat="39.78572164441662" lon="9.260373058769808"><ele>625.0</ele><time>2026-04-28T10:47:25.948Z</time></trkpt><trkpt lat="39.78563946189732" lon="9.260563513379266"><ele>625.0</ele><time>2026-04-28T10:47:26.948Z</time></trkpt><trkpt lat="39.785627722130634" lon="9.2608162072975"><ele>625.0</ele><time>2026-04-28T10:47:27.948Z</time></trkpt><trkpt lat="39.78561343053221" lon="9.261079549481158"><ele>619.6666666666667</ele><time>2026-04-28T10:47:28.95Z</time></trkpt><trkpt lat="39.78558466134233" lon="9.261328430515865"><ele>614.3333333333334</ele><time>2026-04-28T10:47:29.95Z</time></trkpt><trkpt lat="39.785555523659184" lon="9.261558896182748"><ele>609.0</ele><time>2026-04-28T10:47:30.95Z</time></trkpt><trkpt lat="39.785560420676966" lon="9.261758704405622"><ele>608.5</ele><time>2026-04-28T10:47:31.95Z</time></trkpt><trkpt lat="39.7855945684178" lon="9.261945247378366"><ele>608.0</ele><time>2026-04-28T10:47:32.949Z</time></trkpt><trkpt lat="39.78561176487216" lon="9.262106740416938"><ele>607.5</ele><time>2026-04-28T10:47:33.949Z</time></trkpt><trkpt lat="39.78556727803867" lon="9.26220282685458"><ele>607.0</ele><time>2026-04-28T10:47:34.95Z</time></trkpt><trkpt lat="39.78547640437033" lon="9.262249341372415"><ele>607.0</ele><time>2026-04-28T10:47:35.95Z</time></trkpt><trkpt lat="39.785386323062646" lon="9.262191671691346"><ele>607.0</ele><time>2026-04-28T10:47:36.95Z</time></trkpt><trkpt lat="39.7853316887647" lon="9.262029115857665"><ele>607.0</ele><time>2026-04-28T10:47:37.949Z</time></trkpt><trkpt lat="39.78534430659746" lon="9.261820283288785"><ele>607.0</ele><time>2026-04-28T10:47:38.95Z</time></trkpt><trkpt lat="39.785370340837396" lon="9.261607963359324"><ele>607.6666666666667</ele><time>2026-04-28T10:47:39.95Z</time></trkpt><trkpt lat="39.78537855623696" lon="9.261376656429464"><ele>608.3333333333334</ele><time>2026-04-28T10:47:40.95Z</time></trkpt><trkpt lat="39.78538840983429" lon="9.261133916368552"><ele>609.0</ele><time>2026-04-28T10:47:41.949Z</time></trkpt><trkpt lat="39.78539864508574" lon="9.260880068965031"><ele>609.0</ele><time>2026-04-28T10:47:42.949Z</time></trkpt><trkpt lat="39.785397627585624" lon="9.2606395520395"><ele>609.0</ele><time>2026-04-28T10:47:43.949Z</time></trkpt><trkpt lat="39.78539993659529" lon="9.26042193210468"><ele>609.0</ele><time>2026-04-28T10:47:44.949Z</time></trkpt><trkpt lat="39.785414329224025" lon="9.26021555792888"><ele>614.3333333333334</ele><time>2026-04-28T10:47:45.949Z</time></trkpt><trkpt lat="39.7854616102146" lon="9.260025615060952"><ele>619.6666666666667</ele><time>2026-04-28T10:47:46.949Z</time></trkpt><trkpt lat="39.78556150910623" lon="9.259853811390377"><ele>625.0</ele><time>2026-04-28T10:47:47.949Z</time></trkpt><trkpt lat="39.78570444957142" lon="9.259740190405385"><ele>633.3333333333334</ele><time>2026-04-28T10:47:48.949Z</time></trkpt><trkpt lat="39.78582521310242" lon="9.259595342030543"><ele>641.6666666666666</ele><time>2026-04-28T10:47:49.949Z</time></trkpt><trkpt lat="39.78591149119021" lon="9.259382045427131"><ele>650.0</ele><time>2026-04-28T10:47:50.949Z</time></trkpt><trkpt lat="39.78599225419724" lon="9.259179420480466"><ele>650.5</ele><time>2026-04-28T10:47:51.949Z</time></trkpt><trkpt lat="39.78608447827283" lon="9.259047795605088"><ele>651.0</ele><time>2026-04-28T10:47:52.949Z</time></trkpt><trkpt lat="39.78621384756353" lon="9.258996041599012"><ele>651.5</ele><time>2026-04-28T10:47:53.949Z</time></trkpt><trkpt lat="39.78636521662074" lon="9.258968435453532"><ele>652.0</ele><time>2026-04-28T10:47:54.949Z</time></trkpt><trkpt lat="39.78651836439737" lon="9.258873013121542"><ele>652.0</ele><time>2026-04-28T10:47:55.949Z</time></trkpt><trkpt lat="39.786633717602456" lon="9.258699155031662"><ele>652.0</ele><time>2026-04-28T10:47:56.949Z</time></trkpt><trkpt lat="39.78671077017029" lon="9.258475545041698"><ele>652.0</ele><time>2026-04-28T10:47:57.949Z</time></trkpt><trkpt lat="39.78675373465681" lon="9.258219252248942"><ele>655.6666666666667</ele><time>2026-04-28T10:47:58.949Z</time></trkpt><trkpt lat="39.786832011670434" lon="9.25800747420425"><ele>659.3333333333334</ele><time>2026-04-28T10:47:59.949Z</time></trkpt><trkpt lat="39.78695976443106" lon="9.257860513853988"><ele>663.0</ele><time>2026-04-28T10:48:00.949Z</time></trkpt><trkpt lat="39.78712920231381" lon="9.257756069274912"><ele>663.0</ele><time>2026-04-28T10:48:01.949Z</time></trkpt><trkpt lat="39.78731556759156" lon="9.25766578889473"><ele>663.0</ele><time>2026-04-28T10:48:02.949Z</time></trkpt><trkpt lat="39.78748653211084" lon="9.257576436491213"><ele>663.0</ele><time>2026-04-28T10:48:03.949Z</time></trkpt><trkpt lat="39.787630298577994" lon="9.257510693713497"><ele>667.5</ele><time>2026-04-28T10:48:04.949Z</time></trkpt><trkpt lat="39.78775416833879" lon="9.257528295509518"><ele>672.0</ele><time>2026-04-28T10:48:05.949Z</time></trkpt><trkpt lat="39.787865024028065" lon="9.257612020539087"><ele>676.5</ele><time>2026-04-28T10:48:06.949Z</time></trkpt><trkpt lat="39.78794152687022" lon="9.257764612340507"><ele>681.0</ele><time>2026-04-28T10:48:07.949Z</time></trkpt><trkpt lat="39.788015824256554" lon="9.257965694062962"><ele>674.3333333333334</ele><time>2026-04-28T10:48:08.949Z</time></trkpt><trkpt lat="39.78810101654978" lon="9.25815384739922"><ele>667.6666666666667</ele><time>2026-04-28T10:48:09.949Z</time></trkpt><trkpt lat="39.788231070176074" lon="9.258309554445624"><ele>661.0</ele><time>2026-04-28T10:48:10.949Z</time></trkpt><trkpt lat="39.78838875951385" lon="9.258421755717114"><ele>670.3333333333334</ele><time>2026-04-28T10:48:11.949Z</time></trkpt><trkpt lat="39.788564113759534" lon="9.258528592608776"><ele>679.6666666666666</ele><time>2026-04-28T10:48:12.949Z</time></trkpt><trkpt lat="39.78869364435125" lon="9.258623141036438"><ele>689.0</ele><time>2026-04-28T10:48:13.949Z</time></trkpt><trkpt lat="39.78880070657294" lon="9.258675178738214"><ele>689.0</ele><time>2026-04-28T10:48:14.949Z</time></trkpt><trkpt lat="39.78888310778144" lon="9.258640441446282"><ele>689.0</ele><time>2026-04-28T10:48:15.949Z</time></trkpt><trkpt lat="39.78892243672054" lon="9.258536286961347"><ele>689.0</ele><time>2026-04-28T10:48:16.949Z</time></trkpt><trkpt lat="39.78889114582463" lon="9.258420599478447"><ele>689.0</ele><time>2026-04-28T10:48:17.949Z</time></trkpt><trkpt lat="39.78878475308382" lon="9.25830017679103"><ele>689.0</ele><time>2026-04-28T10:48:18.949Z</time></trkpt><trkpt lat="39.7886435948027" lon="9.258226451006344"><ele>686.3333333333333</ele><time>2026-04-28T10:48:19.949Z</time></trkpt><trkpt lat="39.78849075702414" lon="9.258142448395661"><ele>683.6666666666666</ele><time>2026-04-28T10:48:20.949Z</time></trkpt><trkpt lat="39.78837227718642" lon="9.258019445632348"><ele>681.0</ele><time>2026-04-28T10:48:21.949Z</time></trkpt><trkpt lat="39.78830928602871" lon="9.257845837235873"><ele>681.0</ele><time>2026-04-28T10:48:22.949Z</time></trkpt><trkpt lat="39.78829562026098" lon="9.25764373375811"><ele>681.0</ele><time>2026-04-28T10:48:23.949Z</time></trkpt><trkpt lat="39.78828801160441" lon="9.25741053292054"><ele>681.0</ele><time>2026-04-28T10:48:24.949Z</time></trkpt><trkpt lat="39.78825856098749" lon="9.257176345554566"><ele>685.6666666666666</ele><time>2026-04-28T10:48:25.949Z</time></trkpt><trkpt lat="39.78817781475665" lon="9.256997576610983"><ele>690.3333333333333</ele><time>2026-04-28T10:48:26.949Z</time></trkpt><trkpt lat="39.788041004818254" lon="9.256856122166823"><ele>695.0</ele><time>2026-04-28T10:48:27.949Z</time></trkpt><trkpt lat="39.78787467841394" lon="9.25673335153502"><ele>695.0</ele><time>2026-04-28T10:48:28.949Z</time></trkpt><trkpt lat="39.78771483395746" lon="9.256619364012204"><ele>695.0</ele><time>2026-04-28T10:48:29.949Z</time></trkpt><trkpt lat="39.787561487028746" lon="9.256566677010179"><ele>695.0</ele><time>2026-04-28T10:48:30.949Z</time></trkpt><trkpt lat="39.78739791318019" lon="9.256605293659076"><ele>692.3333333333333</ele><time>2026-04-28T10:48:31.949Z</time></trkpt><trkpt lat="39.787232285509965" lon="9.256694410379414"><ele>689.6666666666666</ele><time>2026-04-28T10:48:32.949Z</time></trkpt><trkpt lat="39.787075409449685" lon="9.256778018417833"><ele>687.0</ele><time>2026-04-28T10:48:33.949Z</time></trkpt><trkpt lat="39.78693694324032" lon="9.256841259589125"><ele>687.0</ele><time>2026-04-28T10:48:34.949Z</time></trkpt><trkpt lat="39.78682475173993" lon="9.2568450862973"><ele>687.0</ele><time>2026-04-28T10:48:35.949Z</time></trkpt><trkpt lat="39.78675213043113" lon="9.256762865621411"><ele>687.0</ele><time>2026-04-28T10:48:36.949Z</time></trkpt><trkpt lat="39.7867442772688" lon="9.25663806904831"><ele>687.0</ele><time>2026-04-28T10:48:37.949Z</time></trkpt><trkpt lat="39.78681179463959" lon="9.256530867907024"><ele>687.0</ele><time>2026-04-28T10:48:38.949Z</time></trkpt><trkpt lat="39.78693637711498" lon="9.256472102074026"><ele>690.0</ele><time>2026-04-28T10:48:39.949Z</time></trkpt><trkpt lat="39.787071138728066" lon="9.256435599736493"><ele>693.0</ele><time>2026-04-28T10:48:40.949Z</time></trkpt><trkpt lat="39.787208890964635" lon="9.256394144650809"><ele>696.0</ele><time>2026-04-28T10:48:41.949Z</time></trkpt><trkpt lat="39.78734015271091" lon="9.256349224661303"><ele>699.0</ele><time>2026-04-28T10:48:42.948Z</time></trkpt><trkpt lat="39.78746137163565" lon="9.256313348180637"><ele>699.0</ele><time>2026-04-28T10:48:43.948Z</time></trkpt><trkpt lat="39.78757946764758" lon="9.256293402892426"><ele>699.0</ele><time>2026-04-28T10:48:44.948Z</time></trkpt><trkpt lat="39.78769213412954" lon="9.256287876635827"><ele>699.0</ele><time>2026-04-28T10:48:45.948Z</time></trkpt><trkpt lat="39.78780127580572" lon="9.256279337687271"><ele>699.0</ele><time>2026-04-28T10:48:46.948Z</time></trkpt><trkpt lat="39.787898206696475" lon="9.256286000505945"><ele>699.0</ele><time>2026-04-28T10:48:47.948Z</time></trkpt><trkpt lat="39.78798100177117" lon="9.256301406590097"><ele>699.0</ele><time>2026-04-28T10:48:48.948Z</time></trkpt><trkpt lat="39.788050911934064" lon="9.256323953910883"><ele>699.0</ele><time>2026-04-28T10:48:49.948Z</time></trkpt><trkpt lat="39.78813565584003" lon="9.256356870937344"><ele>699.0</ele><time>2026-04-28T10:48:51.948Z</time></trkpt><trkpt lat="39.78821232178889" lon="9.256367338586243"><ele>699.0</ele><time>2026-04-28T10:49:04.948Z</time></trkpt><trkpt lat="39.788323073117034" lon="9.256409383185954"><ele>699.0</ele><time>2026-04-28T10:49:06.948Z</time></trkpt><trkpt lat="39.788397084026414" lon="9.256442466472581"><ele>699.0</ele><time>2026-04-28T10:49:07.948Z</time></trkpt><trkpt lat="39.788486424734025" lon="9.256469765770598"><ele>700.5</ele><time>2026-04-28T10:49:08.948Z</time></trkpt><trkpt lat="39.788595093611136" lon="9.256504483986658"><ele>702.0</ele><time>2026-04-28T10:49:09.948Z</time></trkpt><trkpt lat="39.78871550618246" lon="9.256541475540203"><ele>703.5</ele><time>2026-04-28T10:49:10.948Z</time></trkpt><trkpt lat="39.78884324299249" lon="9.256541110322168"><ele>705.0</ele><time>2026-04-28T10:49:11.948Z</time></trkpt><trkpt lat="39.78899771110562" lon="9.256502716892497"><ele>705.0</ele><time>2026-04-28T10:49:12.948Z</time></trkpt><trkpt lat="39.7891551093395" lon="9.256455290276596"><ele>705.0</ele><time>2026-04-28T10:49:13.948Z</time></trkpt><trkpt lat="39.7893182347539" lon="9.256462425819313"><ele>705.0</ele><time>2026-04-28T10:49:14.948Z</time></trkpt><trkpt lat="39.789474136150815" lon="9.256501197755506"><ele>703.3333333333334</ele><time>2026-04-28T10:49:15.948Z</time></trkpt><trkpt lat="39.78962137748122" lon="9.256570367242432"><ele>701.6666666666667</ele><time>2026-04-28T10:49:16.948Z</time></trkpt><trkpt lat="39.78974055985082" lon="9.256705196192936"><ele>700.0</ele><time>2026-04-28T10:49:17.948Z</time></trkpt><trkpt lat="39.78980738510055" lon="9.256915548057345"><ele>700.0</ele><time>2026-04-28T10:49:18.948Z</time></trkpt><trkpt lat="39.78982867871093" lon="9.257154947516645"><ele>700.0</ele><time>2026-04-28T10:49:19.948Z</time></trkpt><trkpt lat="39.78984475270566" lon="9.25741727485292"><ele>700.0</ele><time>2026-04-28T10:49:20.948Z</time></trkpt><trkpt lat="39.78983661630409" lon="9.25770375492422"><ele>700.6666666666667</ele><time>2026-04-28T10:49:21.948Z</time></trkpt><trkpt lat="39.78982303693772" lon="9.257946567487496"><ele>701.3333333333334</ele><time>2026-04-28T10:49:22.948Z</time></trkpt><trkpt lat="39.78986603293145" lon="9.258162251408804"><ele>702.0</ele><time>2026-04-28T10:49:23.948Z</time></trkpt><trkpt lat="39.79000233594165" lon="9.258322895500426"><ele>706.5</ele><time>2026-04-28T10:49:24.948Z</time></trkpt><trkpt lat="39.79019115273653" lon="9.25849407964059"><ele>711.0</ele><time>2026-04-28T10:49:25.948Z</time></trkpt><trkpt lat="39.79035648412689" lon="9.258696539813412"><ele>711.0</ele><time>2026-04-28T10:49:26.948Z</time></trkpt><trkpt lat="39.79046524902414" lon="9.258897270549197"><ele>711.0</ele><time>2026-04-28T10:49:27.948Z</time></trkpt><trkpt lat="39.7905635012265" lon="9.259032827519855"><ele>711.0</ele><time>2026-04-28T10:49:28.948Z</time></trkpt><trkpt lat="39.79069499193555" lon="9.259043120876672"><ele>711.0</ele><time>2026-04-28T10:49:29.948Z</time></trkpt><trkpt lat="39.79082669475833" lon="9.25893986389033"><ele>711.0</ele><time>2026-04-28T10:49:30.948Z</time></trkpt><trkpt lat="39.79094208818558" lon="9.258758036898628"><ele>711.0</ele><time>2026-04-28T10:49:31.948Z</time></trkpt><trkpt lat="39.79106702268235" lon="9.258596844032201"><ele>713.0</ele><time>2026-04-28T10:49:32.948Z</time></trkpt><trkpt lat="39.791200496126784" lon="9.25856952663795"><ele>715.0</ele><time>2026-04-28T10:49:33.948Z</time></trkpt><trkpt lat="39.79132626874803" lon="9.258664339771892"><ele>717.0</ele><time>2026-04-28T10:49:34.949Z</time></trkpt><trkpt lat="39.79141372180515" lon="9.258850739090699"><ele>719.0</ele><time>2026-04-28T10:49:35.949Z</time></trkpt><trkpt lat="39.7914458262969" lon="9.2591161036361"><ele>721.3333333333333</ele><time>2026-04-28T10:49:36.949Z</time></trkpt><trkpt lat="39.79144738146831" lon="9.259413033417218"><ele>723.6666666666666</ele><time>2026-04-28T10:49:37.949Z</time></trkpt><trkpt lat="39.79152045695771" lon="9.259655047853142"><ele>726.0</ele><time>2026-04-28T10:49:38.948Z</time></trkpt><trkpt lat="39.7916665033994" lon="9.259826224097763"><ele>732.5</ele><time>2026-04-28T10:49:39.948Z</time></trkpt><trkpt lat="39.79187314916184" lon="9.259992046153762"><ele>739.0</ele><time>2026-04-28T10:49:40.949Z</time></trkpt><trkpt lat="39.792104410531586" lon="9.260170546996877"><ele>739.0</ele><time>2026-04-28T10:49:41.948Z</time></trkpt><trkpt lat="39.79231012423876" lon="9.260368020775987"><ele>739.0</ele><time>2026-04-28T10:49:42.948Z</time></trkpt><trkpt lat="39.79249644804783" lon="9.260538154492552"><ele>742.0</ele><time>2026-04-28T10:49:43.949Z</time></trkpt><trkpt lat="39.79271282250476" lon="9.260621822503822"><ele>745.0</ele><time>2026-04-28T10:49:44.948Z</time></trkpt><trkpt lat="39.792979951313924" lon="9.260643196010015"><ele>745.0</ele><time>2026-04-28T10:49:45.948Z</time></trkpt><trkpt lat="39.793237489218264" lon="9.260644686300617"><ele>745.0</ele><time>2026-04-28T10:49:46.949Z</time></trkpt><trkpt lat="39.793417372466905" lon="9.260665155728166"><ele>745.0</ele><time>2026-04-28T10:49:47.949Z</time></trkpt><trkpt lat="39.79352399110435" lon="9.260772699357553"><ele>747.6666666666667</ele><time>2026-04-28T10:49:48.949Z</time></trkpt><trkpt lat="39.793597321409806" lon="9.260986996815774"><ele>750.3333333333334</ele><time>2026-04-28T10:49:49.949Z</time></trkpt><trkpt lat="39.793634785443786" lon="9.261263883048986"><ele>753.0</ele><time>2026-04-28T10:49:50.949Z</time></trkpt><trkpt lat="39.793666910809456" lon="9.261513707072275"><ele>753.0</ele><time>2026-04-28T10:49:51.949Z</time></trkpt><trkpt lat="39.79372972541579" lon="9.261734029956571"><ele>753.0</ele><time>2026-04-28T10:49:52.949Z</time></trkpt><trkpt lat="39.7938214185512" lon="9.261925742073043"><ele>753.0</ele><time>2026-04-28T10:49:53.949Z</time></trkpt><trkpt lat="39.79395911518846" lon="9.262082452340856"><ele>753.0</ele><time>2026-04-28T10:49:54.949Z</time></trkpt><trkpt lat="39.79415115320082" lon="9.262199104659562"><ele>753.0</ele><time>2026-04-28T10:49:55.949Z</time></trkpt><trkpt lat="39.79435232836233" lon="9.262344066239715"><ele>753.0</ele><time>2026-04-28T10:49:56.949Z</time></trkpt><trkpt lat="39.794533409568004" lon="9.262509387750846"><ele>750.6666666666666</ele><time>2026-04-28T10:49:57.949Z</time></trkpt><trkpt lat="39.79469611568893" lon="9.262653329847094"><ele>748.3333333333333</ele><time>2026-04-28T10:49:58.949Z</time></trkpt><trkpt lat="39.794868220277834" lon="9.262711021391144"><ele>746.0</ele><time>2026-04-28T10:49:59.949Z</time></trkpt><trkpt lat="39.79506025123005" lon="9.262681281337208"><ele>742.3333333333333</ele><time>2026-04-28T10:50:00.949Z</time></trkpt><trkpt lat="39.795247924347684" lon="9.262603416186945"><ele>738.6666666666666</ele><time>2026-04-28T10:50:01.949Z</time></trkpt><trkpt lat="39.795421747848266" lon="9.262556002521004"><ele>735.0</ele><time>2026-04-28T10:50:02.949Z</time></trkpt><trkpt lat="39.79558422005744" lon="9.262546925206392"><ele>735.0</ele><time>2026-04-28T10:50:03.949Z</time></trkpt><trkpt lat="39.795709850773534" lon="9.262556456738423"><ele>735.0</ele><time>2026-04-28T10:50:04.949Z</time></trkpt><trkpt lat="39.79582718531066" lon="9.262564569716012"><ele>735.0</ele><time>2026-04-28T10:50:05.949Z</time></trkpt><trkpt lat="39.79593143425849" lon="9.262620649299313"><ele>735.0</ele><time>2026-04-28T10:50:06.949Z</time></trkpt><trkpt lat="39.79601493760106" lon="9.262736784981838"><ele>733.8</ele><time>2026-04-28T10:50:07.949Z</time></trkpt><trkpt lat="39.7960887103045" lon="9.262847624261733"><ele>732.6</ele><time>2026-04-28T10:50:08.949Z</time></trkpt><trkpt lat="39.796185563699495" lon="9.262917013914734"><ele>731.4000000000001</ele><time>2026-04-28T10:50:09.948Z</time></trkpt><trkpt lat="39.7962813243524" lon="9.262952720311423"><ele>730.2</ele><time>2026-04-28T10:50:10.948Z</time></trkpt><trkpt lat="39.796376747513186" lon="9.262982027417594"><ele>729.0</ele><time>2026-04-28T10:50:11.948Z</time></trkpt><trkpt lat="39.79647192951205" lon="9.263054220351243"><ele>729.75</ele><time>2026-04-28T10:50:12.948Z</time></trkpt><trkpt lat="39.796587210740114" lon="9.263145416675309"><ele>730.5</ele><time>2026-04-28T10:50:13.948Z</time></trkpt><trkpt lat="39.79671950303896" lon="9.263210650451988"><ele>731.25</ele><time>2026-04-28T10:50:14.948Z</time></trkpt><trkpt lat="39.796875828446794" lon="9.263216957941388"><ele>732.0</ele><time>2026-04-28T10:50:15.948Z</time></trkpt><trkpt lat="39.797063890843255" lon="9.263201436663147"><ele>732.0</ele><time>2026-04-28T10:50:16.948Z</time></trkpt><trkpt lat="39.797262718325584" lon="9.263191759020732"><ele>732.0</ele><time>2026-04-28T10:50:17.948Z</time></trkpt><trkpt lat="39.79747401549779" lon="9.2631873425995"><ele>732.0</ele><time>2026-04-28T10:50:18.948Z</time></trkpt><trkpt lat="39.797690772516546" lon="9.26317849141707"><ele>732.5</ele><time>2026-04-28T10:50:19.948Z</time></trkpt><trkpt lat="39.797913386142376" lon="9.263164657163415"><ele>733.0</ele><time>2026-04-28T10:50:20.948Z</time></trkpt><trkpt lat="39.798142120152974" lon="9.263156233400283"><ele>733.0</ele><time>2026-04-28T10:50:21.948Z</time></trkpt><trkpt lat="39.79836857068919" lon="9.263149128598876"><ele>733.0</ele><time>2026-04-28T10:50:22.948Z</time></trkpt><trkpt lat="39.79859816364638" lon="9.263143765406305"><ele>734.3333333333334</ele><time>2026-04-28T10:50:23.948Z</time></trkpt><trkpt lat="39.798807396366364" lon="9.26313595203576"><ele>735.6666666666666</ele><time>2026-04-28T10:50:24.948Z</time></trkpt><trkpt lat="39.79899444749905" lon="9.263102515037748"><ele>737.0</ele><time>2026-04-28T10:50:25.948Z</time></trkpt><trkpt lat="39.7991647663275" lon="9.263011687383251"><ele>737.0</ele><time>2026-04-28T10:50:26.948Z</time></trkpt><trkpt lat="39.79930588470459" lon="9.262846588660922"><ele>737.0</ele><time>2026-04-28T10:50:27.948Z</time></trkpt><trkpt lat="39.79941552208227" lon="9.262623604605169"><ele>737.0</ele><time>2026-04-28T10:50:28.948Z</time></trkpt><trkpt lat="39.799488708608884" lon="9.262348800232827"><ele>741.0</ele><time>2026-04-28T10:50:29.948Z</time></trkpt><trkpt lat="39.799506898324466" lon="9.262062004550351"><ele>745.0</ele><time>2026-04-28T10:50:30.948Z</time></trkpt><trkpt lat="39.79947391772963" lon="9.261805918066548"><ele>749.0</ele><time>2026-04-28T10:50:31.948Z</time></trkpt><trkpt lat="39.799440067341074" lon="9.261596937960968"><ele>749.0</ele><time>2026-04-28T10:50:32.948Z</time></trkpt><trkpt lat="39.799452076972486" lon="9.26144928755831"><ele>749.0</ele><time>2026-04-28T10:50:33.948Z</time></trkpt><trkpt lat="39.799540434829154" lon="9.261364090643248"><ele>749.0</ele><time>2026-04-28T10:50:34.948Z</time></trkpt><trkpt lat="39.79968918148491" lon="9.26135611707667"><ele>749.0</ele><time>2026-04-28T10:50:35.948Z</time></trkpt><trkpt lat="39.79988562222414" lon="9.261388060219081"><ele>749.0</ele><time>2026-04-28T10:50:36.948Z</time></trkpt><trkpt lat="39.80011766761703" lon="9.261363996679329"><ele>749.0</ele><time>2026-04-28T10:50:37.948Z</time></trkpt><trkpt lat="39.800366671458164" lon="9.261300356681717"><ele>749.0</ele><time>2026-04-28T10:50:38.948Z</time></trkpt><trkpt lat="39.800620285644314" lon="9.261227592642054"><ele>749.0</ele><time>2026-04-28T10:50:39.948Z</time></trkpt><trkpt lat="39.800852441106116" lon="9.261156027892758"><ele>750.6666666666666</ele><time>2026-04-28T10:50:40.948Z</time></trkpt><trkpt lat="39.80102774361367" lon="9.261054002233454"><ele>752.3333333333334</ele><time>2026-04-28T10:50:41.948Z</time></trkpt><trkpt lat="39.801143884991156" lon="9.260866983935545"><ele>754.0</ele><time>2026-04-28T10:50:42.948Z</time></trkpt><trkpt lat="39.801197854736095" lon="9.260605716901106"><ele>754.0</ele><time>2026-04-28T10:50:43.948Z</time></trkpt><trkpt lat="39.80122810460496" lon="9.260345203384295"><ele>754.0</ele><time>2026-04-28T10:50:44.948Z</time></trkpt><trkpt lat="39.80135947291019" lon="9.260169134339801"><ele>754.0</ele><time>2026-04-28T10:50:45.948Z</time></trkpt><trkpt lat="39.80157560359339" lon="9.260029281003844"><ele>754.0</ele><time>2026-04-28T10:50:46.948Z</time></trkpt><trkpt lat="39.80180339641957" lon="9.259882582291379"><ele>754.0</ele><time>2026-04-28T10:50:47.948Z</time></trkpt><trkpt lat="39.801967576275054" lon="9.259709730993904"><ele>752.3333333333334</ele><time>2026-04-28T10:50:48.948Z</time></trkpt><trkpt lat="39.80209271075618" lon="9.259590006451242"><ele>750.6666666666666</ele><time>2026-04-28T10:50:49.948Z</time></trkpt><trkpt lat="39.8022306474697" lon="9.25959627931436"><ele>749.0</ele><time>2026-04-28T10:50:50.948Z</time></trkpt><trkpt lat="39.80243840971821" lon="9.259705479493803"><ele>753.5</ele><time>2026-04-28T10:50:51.948Z</time></trkpt><trkpt lat="39.80270604478402" lon="9.259859609697571"><ele>758.0</ele><time>2026-04-28T10:50:52.948Z</time></trkpt><trkpt lat="39.803037756077806" lon="9.259967970170006"><ele>758.0</ele><time>2026-04-28T10:50:53.948Z</time></trkpt><trkpt lat="39.80338297797359" lon="9.26001708943138"><ele>758.0</ele><time>2026-04-28T10:50:54.948Z</time></trkpt><trkpt lat="39.803682417444065" lon="9.260068240648174"><ele>759.6666666666666</ele><time>2026-04-28T10:50:55.948Z</time></trkpt><trkpt lat="39.80390080435623" lon="9.26017048883843"><ele>761.3333333333334</ele><time>2026-04-28T10:50:56.948Z</time></trkpt><trkpt lat="39.8040588715337" lon="9.260261178448006"><ele>763.0</ele><time>2026-04-28T10:50:57.948Z</time></trkpt><trkpt lat="39.804246684650174" lon="9.260268734649555"><ele>766.5</ele><time>2026-04-28T10:50:58.948Z</time></trkpt><trkpt lat="39.80448011488868" lon="9.260176648759577"><ele>770.0</ele><time>2026-04-28T10:50:59.948Z</time></trkpt><trkpt lat="39.80474262637215" lon="9.260070705540054"><ele>770.0</ele><time>2026-04-28T10:51:00.948Z</time></trkpt><trkpt lat="39.80497958416303" lon="9.260084019262925"><ele>770.0</ele><time>2026-04-28T10:51:01.948Z</time></trkpt><trkpt lat="39.805196623653885" lon="9.260213498819557"><ele>771.6666666666667</ele><time>2026-04-28T10:51:02.948Z</time></trkpt><trkpt lat="39.80539249566733" lon="9.260309544238005"><ele>773.3333333333333</ele><time>2026-04-28T10:51:03.948Z</time></trkpt><trkpt lat="39.80562476960408" lon="9.260238843821705"><ele>775.0</ele><time>2026-04-28T10:51:04.948Z</time></trkpt><trkpt lat="39.80586458977798" lon="9.260086356728301"><ele>775.5</ele><time>2026-04-28T10:51:05.948Z</time></trkpt><trkpt lat="39.806087951711" lon="9.260009898033907"><ele>776.0</ele><time>2026-04-28T10:51:06.948Z</time></trkpt><trkpt lat="39.80630654210454" lon="9.260060308479412"><ele>776.0</ele><time>2026-04-28T10:51:07.948Z</time></trkpt><trkpt lat="39.806532484132624" lon="9.260174480845876"><ele>776.0</ele><time>2026-04-28T10:51:08.948Z</time></trkpt><trkpt lat="39.8067636870218" lon="9.260268082472269"><ele>777.3333333333334</ele><time>2026-04-28T10:51:09.948Z</time></trkpt><trkpt lat="39.80697327454917" lon="9.260334622910351"><ele>778.6666666666667</ele><time>2026-04-28T10:51:10.948Z</time></trkpt><trkpt lat="39.8071515466009" lon="9.260401884292188"><ele>780.0</ele><time>2026-04-28T10:51:11.948Z</time></trkpt><trkpt lat="39.807303381131916" lon="9.260508806900171"><ele>779.3333333333333</ele><time>2026-04-28T10:51:12.948Z</time></trkpt><trkpt lat="39.80741440450974" lon="9.26072106199681"><ele>778.6666666666666</ele><time>2026-04-28T10:51:13.948Z</time></trkpt><trkpt lat="39.80748181811337" lon="9.260989156955407"><ele>778.0</ele><time>2026-04-28T10:51:14.948Z</time></trkpt><trkpt lat="39.8075651970956" lon="9.261205014070107"><ele>779.0</ele><time>2026-04-28T10:51:15.947Z</time></trkpt><trkpt lat="39.80773644105959" lon="9.261382109441884"><ele>780.0</ele><time>2026-04-28T10:51:16.947Z</time></trkpt><trkpt lat="39.80793050748364" lon="9.261541056547141"><ele>781.0</ele><time>2026-04-28T10:51:17.947Z</time></trkpt><trkpt lat="39.8081146043124" lon="9.261730697758999"><ele>779.0</ele><time>2026-04-28T10:51:18.947Z</time></trkpt><trkpt lat="39.80826511481748" lon="9.261926908270123"><ele>777.0</ele><time>2026-04-28T10:51:19.947Z</time></trkpt><trkpt lat="39.808429168139035" lon="9.26210492248824"><ele>775.0</ele><time>2026-04-28T10:51:20.947Z</time></trkpt><trkpt lat="39.80861868434722" lon="9.262257678738365"><ele>773.3333333333333</ele><time>2026-04-28T10:51:21.947Z</time></trkpt><trkpt lat="39.80882081279481" lon="9.262369621881117"><ele>771.6666666666667</ele><time>2026-04-28T10:51:22.947Z</time></trkpt><trkpt lat="39.80902765493237" lon="9.262454737239164"><ele>770.0</ele><time>2026-04-28T10:51:23.947Z</time></trkpt><trkpt lat="39.80923518977662" lon="9.262551070239653"><ele>769.3333333333334</ele><time>2026-04-28T10:51:24.947Z</time></trkpt><trkpt lat="39.809436187552386" lon="9.262673264066729"><ele>768.6666666666667</ele><time>2026-04-28T10:51:25.947Z</time></trkpt><trkpt lat="39.8096341597646" lon="9.262818281834328"><ele>768.0</ele><time>2026-04-28T10:51:26.947Z</time></trkpt><trkpt lat="39.809828950584425" lon="9.262984019165373"><ele>767.5</ele><time>2026-04-28T10:51:27.947Z</time></trkpt><trkpt lat="39.81002633686795" lon="9.263167392488235"><ele>767.0</ele><time>2026-04-28T10:51:28.947Z</time></trkpt><trkpt lat="39.81022006100801" lon="9.263351117570163"><ele>767.0</ele><time>2026-04-28T10:51:29.947Z</time></trkpt><trkpt lat="39.81041864096702" lon="9.263530753942861"><ele>767.0</ele><time>2026-04-28T10:51:30.947Z</time></trkpt><trkpt lat="39.81061119388669" lon="9.263718335573472"><ele>767.0</ele><time>2026-04-28T10:51:31.947Z</time></trkpt><trkpt lat="39.81080314402105" lon="9.263916696526502"><ele>767.0</ele><time>2026-04-28T10:51:32.947Z</time></trkpt><trkpt lat="39.810994732086485" lon="9.264112618184209"><ele>766.5</ele><time>2026-04-28T10:51:33.947Z</time></trkpt><trkpt lat="39.811185893767714" lon="9.264306144647673"><ele>766.0</ele><time>2026-04-28T10:51:34.947Z</time></trkpt><trkpt lat="39.81137761317019" lon="9.264504679285892"><ele>766.0</ele><time>2026-04-28T10:51:35.947Z</time></trkpt><trkpt lat="39.811569443644004" lon="9.264705529385552"><ele>766.0</ele><time>2026-04-28T10:51:36.947Z</time></trkpt><trkpt lat="39.81175798400173" lon="9.264902500333232"><ele>765.5</ele><time>2026-04-28T10:51:37.947Z</time></trkpt><trkpt lat="39.81194923163597" lon="9.26510076485669"><ele>765.0</ele><time>2026-04-28T10:51:38.947Z</time></trkpt><trkpt lat="39.81214425942114" lon="9.265301330660236"><ele>765.0</ele><time>2026-04-28T10:51:39.947Z</time></trkpt><trkpt lat="39.81233927596441" lon="9.265508266298315"><ele>765.0</ele><time>2026-04-28T10:51:40.948Z</time></trkpt><trkpt lat="39.81253414290025" lon="9.265714580238825"><ele>763.5</ele><time>2026-04-28T10:51:41.947Z</time></trkpt><trkpt lat="39.81273134225821" lon="9.26591846032809"><ele>762.0</ele><time>2026-04-28T10:51:42.947Z</time></trkpt><trkpt lat="39.81293059229451" lon="9.26612278890149"><ele>762.0</ele><time>2026-04-28T10:51:43.948Z</time></trkpt><trkpt lat="39.813130127094354" lon="9.266325086396963"><ele>762.0</ele><time>2026-04-28T10:51:44.948Z</time></trkpt><trkpt lat="39.813332743955264" lon="9.266529663825732"><ele>762.5</ele><time>2026-04-28T10:51:45.948Z</time></trkpt><trkpt lat="39.81353466203384" lon="9.266739946885144"><ele>763.0</ele><time>2026-04-28T10:51:46.948Z</time></trkpt><trkpt lat="39.81373483523316" lon="9.266947888593428"><ele>763.0</ele><time>2026-04-28T10:51:47.948Z</time></trkpt><trkpt lat="39.81393913444905" lon="9.267166545087937"><ele>763.0</ele><time>2026-04-28T10:51:48.948Z</time></trkpt><trkpt lat="39.81414602484499" lon="9.26737596826367"><ele>764.5</ele><time>2026-04-28T10:51:49.948Z</time></trkpt><trkpt lat="39.81435218853338" lon="9.267581373453675"><ele>766.0</ele><time>2026-04-28T10:51:50.948Z</time></trkpt><trkpt lat="39.814555989690525" lon="9.2677845611198"><ele>766.0</ele><time>2026-04-28T10:51:51.948Z</time></trkpt><trkpt lat="39.81476043065097" lon="9.268005705770358"><ele>766.0</ele><time>2026-04-28T10:51:52.948Z</time></trkpt><trkpt lat="39.81496420505982" lon="9.268222302487455"><ele>766.0</ele><time>2026-04-28T10:51:53.948Z</time></trkpt><trkpt lat="39.81516873863766" lon="9.268434214933663"><ele>766.0</ele><time>2026-04-28T10:51:54.948Z</time></trkpt><trkpt lat="39.81537455858954" lon="9.268637419277724"><ele>766.0</ele><time>2026-04-28T10:51:55.948Z</time></trkpt><trkpt lat="39.81557320295737" lon="9.26884454580575"><ele>766.0</ele><time>2026-04-28T10:51:56.948Z</time></trkpt><trkpt lat="39.8157669103162" lon="9.269056063029034"><ele>766.0</ele><time>2026-04-28T10:51:57.948Z</time></trkpt><trkpt lat="39.81596207700864" lon="9.269270639254215"><ele>766.0</ele><time>2026-04-28T10:51:58.948Z</time></trkpt><trkpt lat="39.81617174837113" lon="9.269478565480227"><ele>766.0</ele><time>2026-04-28T10:51:59.948Z</time></trkpt><trkpt lat="39.81637476837648" lon="9.269677872848996"><ele>766.0</ele><time>2026-04-28T10:52:00.948Z</time></trkpt><trkpt lat="39.81655494110736" lon="9.269877450638656"><ele>766.3333333333334</ele><time>2026-04-28T10:52:01.948Z</time></trkpt><trkpt lat="39.81671768419845" lon="9.270053412698067"><ele>766.6666666666666</ele><time>2026-04-28T10:52:02.948Z</time></trkpt><trkpt lat="39.81687497760975" lon="9.270199051398146"><ele>767.0</ele><time>2026-04-28T10:52:03.948Z</time></trkpt><trkpt lat="39.81701139916064" lon="9.270334115290865"><ele>767.6666666666666</ele><time>2026-04-28T10:52:04.948Z</time></trkpt><trkpt lat="39.817142783270256" lon="9.27046318851338"><ele>768.3333333333333</ele><time>2026-04-28T10:52:05.948Z</time></trkpt><trkpt lat="39.8172669999739" lon="9.270587770825259"><ele>769.0</ele><time>2026-04-28T10:52:06.948Z</time></trkpt><trkpt lat="39.817385382088304" lon="9.270711690886328"><ele>769.0</ele><time>2026-04-28T10:52:07.948Z</time></trkpt><trkpt lat="39.81749712347468" lon="9.270828279695163"><ele>769.0</ele><time>2026-04-28T10:52:08.948Z</time></trkpt><trkpt lat="39.817591256653216" lon="9.270939837166166"><ele>769.0</ele><time>2026-04-28T10:52:09.948Z</time></trkpt><trkpt lat="39.81765670572112" lon="9.27103589194069"><ele>769.0</ele><time>2026-04-28T10:52:10.948Z</time></trkpt><trkpt lat="39.817695454259045" lon="9.271121398714241"><ele>769.0</ele><time>2026-04-28T10:52:11.947Z</time></trkpt><trkpt lat="39.81772176324995" lon="9.27121223636159"><ele>769.0</ele><time>2026-04-28T10:52:12.947Z</time></trkpt><trkpt lat="39.817784351519514" lon="9.27131819573078"><ele>769.0</ele><time>2026-04-28T10:52:14.947Z</time></trkpt><trkpt lat="39.817847628618125" lon="9.271360228795372"><ele>769.0</ele><time>2026-04-28T10:52:18.947Z</time></trkpt><trkpt lat="39.817929811020896" lon="9.271395232302268"><ele>769.0</ele><time>2026-04-28T10:52:32.947Z</time></trkpt><trkpt lat="39.81801924134941" lon="9.271422569608394"><ele>769.0</ele><time>2026-04-28T10:52:34.947Z</time></trkpt><trkpt lat="39.81813423484189" lon="9.271496861364959"><ele>769.1666666666666</ele><time>2026-04-28T10:52:36.947Z</time></trkpt><trkpt lat="39.81819695301066" lon="9.271557170750013"><ele>769.3333333333333</ele><time>2026-04-28T10:52:37.947Z</time></trkpt><trkpt lat="39.818262568374344" lon="9.271625578540991"><ele>769.5</ele><time>2026-04-28T10:52:38.947Z</time></trkpt><trkpt lat="39.81833058489061" lon="9.271703849990432"><ele>769.6666666666667</ele><time>2026-04-28T10:52:39.947Z</time></trkpt><trkpt lat="39.818401498566644" lon="9.271786803569464"><ele>769.8333333333334</ele><time>2026-04-28T10:52:40.947Z</time></trkpt><trkpt lat="39.818476636349764" lon="9.271863779897425"><ele>770.0</ele><time>2026-04-28T10:52:41.947Z</time></trkpt><trkpt lat="39.81854988949132" lon="9.271945468331708"><ele>770.2</ele><time>2026-04-28T10:52:42.947Z</time></trkpt><trkpt lat="39.81861860731812" lon="9.27202716597774"><ele>770.4</ele><time>2026-04-28T10:52:43.947Z</time></trkpt><trkpt lat="39.81869799748065" lon="9.272107434050861"><ele>770.5999999999999</ele><time>2026-04-28T10:52:44.947Z</time></trkpt><trkpt lat="39.81878614395602" lon="9.27219053557638"><ele>770.8</ele><time>2026-04-28T10:52:45.947Z</time></trkpt><trkpt lat="39.81888149593986" lon="9.272285821527202"><ele>771.0</ele><time>2026-04-28T10:52:46.947Z</time></trkpt><trkpt lat="39.818978742819574" lon="9.272383889080288"><ele>771.5</ele><time>2026-04-28T10:52:47.947Z</time></trkpt><trkpt lat="39.819085663671466" lon="9.272492271000067"><ele>772.0</ele><time>2026-04-28T10:52:48.947Z</time></trkpt><trkpt lat="39.81920405127793" lon="9.272611465767266"><ele>772.5</ele><time>2026-04-28T10:52:49.947Z</time></trkpt><trkpt lat="39.81933134516506" lon="9.272743613714978"><ele>773.0</ele><time>2026-04-28T10:52:50.947Z</time></trkpt><trkpt lat="39.81946228912787" lon="9.27288225689519"><ele>773.0</ele><time>2026-04-28T10:52:51.947Z</time></trkpt><trkpt lat="39.81959402043534" lon="9.273021662391931"><ele>773.0</ele><time>2026-04-28T10:52:52.947Z</time></trkpt><trkpt lat="39.81971743499161" lon="9.273151072856919"><ele>773.0</ele><time>2026-04-28T10:52:53.947Z</time></trkpt><trkpt lat="39.81983259217403" lon="9.273274440496445"><ele>774.3333333333334</ele><time>2026-04-28T10:52:54.947Z</time></trkpt><trkpt lat="39.81995768785553" lon="9.273404659710517"><ele>775.6666666666667</ele><time>2026-04-28T10:52:55.947Z</time></trkpt><trkpt lat="39.82009297358239" lon="9.273543653550753"><ele>777.0</ele><time>2026-04-28T10:52:56.947Z</time></trkpt><trkpt lat="39.82022910355628" lon="9.273692368411366"><ele>777.0</ele><time>2026-04-28T10:52:57.947Z</time></trkpt><trkpt lat="39.820373956036796" lon="9.273847071203393"><ele>777.0</ele><time>2026-04-28T10:52:58.947Z</time></trkpt><trkpt lat="39.82052810641781" lon="9.274006799790186"><ele>777.0</ele><time>2026-04-28T10:52:59.947Z</time></trkpt><trkpt lat="39.82068577115396" lon="9.274174672908453"><ele>777.0</ele><time>2026-04-28T10:53:00.947Z</time></trkpt><trkpt lat="39.82085602750835" lon="9.27433190863844"><ele>777.0</ele><time>2026-04-28T10:53:01.947Z</time></trkpt><trkpt lat="39.82104039076964" lon="9.274475904338432"><ele>777.0</ele><time>2026-04-28T10:53:02.947Z</time></trkpt><trkpt lat="39.82123257959769" lon="9.274602941667965"><ele>778.0</ele><time>2026-04-28T10:53:03.947Z</time></trkpt><trkpt lat="39.8214321380323" lon="9.274712805235644"><ele>779.0</ele><time>2026-04-28T10:53:04.947Z</time></trkpt><trkpt lat="39.82164542671603" lon="9.274793164483642"><ele>780.0</ele><time>2026-04-28T10:53:05.947Z</time></trkpt><trkpt lat="39.82186405850058" lon="9.274846414172051"><ele>781.0</ele><time>2026-04-28T10:53:06.947Z</time></trkpt><trkpt lat="39.822085547194014" lon="9.274879362153408"><ele>782.0</ele><time>2026-04-28T10:53:07.947Z</time></trkpt><trkpt lat="39.82230520960235" lon="9.274891172090383"><ele>783.0</ele><time>2026-04-28T10:53:08.947Z</time></trkpt><trkpt lat="39.822524300697424" lon="9.274894600458628"><ele>783.6666666666667</ele><time>2026-04-28T10:53:09.947Z</time></trkpt><trkpt lat="39.82273894778303" lon="9.274902608485705"><ele>784.3333333333334</ele><time>2026-04-28T10:53:10.947Z</time></trkpt><trkpt lat="39.82294998213908" lon="9.274927919525078"><ele>785.0</ele><time>2026-04-28T10:53:11.947Z</time></trkpt><trkpt lat="39.823159009427926" lon="9.274981060400128"><ele>785.0</ele><time>2026-04-28T10:53:12.947Z</time></trkpt><trkpt lat="39.82335794733287" lon="9.275071047792725"><ele>785.0</ele><time>2026-04-28T10:53:13.947Z</time></trkpt><trkpt lat="39.82355128163522" lon="9.275191282981908"><ele>785.0</ele><time>2026-04-28T10:53:14.947Z</time></trkpt><trkpt lat="39.82374038409486" lon="9.275317268736691"><ele>785.0</ele><time>2026-04-28T10:53:15.947Z</time></trkpt><trkpt lat="39.82392922890768" lon="9.275440693746754"><ele>785.0</ele><time>2026-04-28T10:53:16.947Z</time></trkpt><trkpt lat="39.82411844631831" lon="9.275567387443038"><ele>785.0</ele><time>2026-04-28T10:53:17.947Z</time></trkpt><trkpt lat="39.82430587998702" lon="9.275695579818391"><ele>786.6666666666667</ele><time>2026-04-28T10:53:18.946Z</time></trkpt><trkpt lat="39.8244994387849" lon="9.275820410948452"><ele>788.3333333333333</ele><time>2026-04-28T10:53:19.946Z</time></trkpt><trkpt lat="39.82469488635237" lon="9.275945141059614"><ele>790.0</ele><time>2026-04-28T10:53:20.946Z</time></trkpt><trkpt lat="39.82489067783388" lon="9.276078426981046"><ele>790.0</ele><time>2026-04-28T10:53:21.946Z</time></trkpt><trkpt lat="39.82507962090214" lon="9.276219583390569"><ele>790.0</ele><time>2026-04-28T10:53:22.946Z</time></trkpt><trkpt lat="39.82524039294999" lon="9.276395470911735"><ele>790.0</ele><time>2026-04-28T10:53:23.946Z</time></trkpt><trkpt lat="39.82537872617194" lon="9.276594274241605"><ele>789.0</ele><time>2026-04-28T10:53:24.946Z</time></trkpt><trkpt lat="39.82549402439597" lon="9.276791241047881"><ele>788.0</ele><time>2026-04-28T10:53:25.946Z</time></trkpt><trkpt lat="39.825573977124186" lon="9.277020258583907"><ele>787.0</ele><time>2026-04-28T10:53:26.946Z</time></trkpt><trkpt lat="39.825654589506875" lon="9.277225397885575"><ele>786.5</ele><time>2026-04-28T10:53:27.946Z</time></trkpt><trkpt lat="39.82596873475019" lon="9.2775418157704"><ele>786.0</ele><time>2026-04-28T10:53:29.946Z</time></trkpt><trkpt lat="39.826169789019225" lon="9.277638521997313"><ele>786.0</ele><time>2026-04-28T10:53:30.946Z</time></trkpt><trkpt lat="39.82631371959999" lon="9.277716655471334"><ele>786.0</ele><time>2026-04-28T10:53:31.946Z</time></trkpt><trkpt lat="39.82639461022016" lon="9.277816442961143"><ele>786.0</ele><time>2026-04-28T10:53:32.946Z</time></trkpt><trkpt lat="39.826408731681795" lon="9.277949368975849"><ele>786.0</ele><time>2026-04-28T10:53:33.946Z</time></trkpt><trkpt lat="39.826340480277956" lon="9.278037224662912"><ele>786.0</ele><time>2026-04-28T10:53:34.946Z</time></trkpt><trkpt lat="39.82619769416233" lon="9.27807666468899"><ele>786.0</ele><time>2026-04-28T10:53:35.946Z</time></trkpt><trkpt lat="39.82600477592119" lon="9.278124528123211"><ele>786.0</ele><time>2026-04-28T10:53:36.946Z</time></trkpt><trkpt lat="39.82581991000019" lon="9.278257900823629"><ele>783.0</ele><time>2026-04-28T10:53:37.946Z</time></trkpt><trkpt lat="39.825666270171915" lon="9.278421390866956"><ele>780.0</ele><time>2026-04-28T10:53:38.946Z</time></trkpt><trkpt lat="39.825561648682786" lon="9.278586379072962"><ele>777.0</ele><time>2026-04-28T10:53:39.946Z</time></trkpt><trkpt lat="39.82552946070431" lon="9.27878048825554"><ele>775.5</ele><time>2026-04-28T10:53:40.946Z</time></trkpt><trkpt lat="39.82556839491404" lon="9.278945613229286"><ele>774.0</ele><time>2026-04-28T10:53:41.946Z</time></trkpt><trkpt lat="39.82564192423501" lon="9.279048665789535"><ele>772.5</ele><time>2026-04-28T10:53:42.946Z</time></trkpt><trkpt lat="39.82578208941236" lon="9.279066742907064"><ele>771.0</ele><time>2026-04-28T10:53:43.946Z</time></trkpt><trkpt lat="39.82597019189721" lon="9.27900194736581"><ele>771.0</ele><time>2026-04-28T10:53:44.946Z</time></trkpt><trkpt lat="39.82621998301958" lon="9.278936570119148"><ele>771.0</ele><time>2026-04-28T10:53:45.946Z</time></trkpt><trkpt lat="39.82645261965313" lon="9.27899803032509"><ele>771.0</ele><time>2026-04-28T10:53:46.948Z</time></trkpt><trkpt lat="39.82672436481295" lon="9.279132043435839"><ele>771.0</ele><time>2026-04-28T10:53:47.947Z</time></trkpt><trkpt lat="39.82696934647453" lon="9.279289494463436"><ele>773.3333333333333</ele><time>2026-04-28T10:53:48.947Z</time></trkpt><trkpt lat="39.8271638558036" lon="9.279440720237927"><ele>775.6666666666666</ele><time>2026-04-28T10:53:49.947Z</time></trkpt><trkpt lat="39.82734444791895" lon="9.279573770729709"><ele>778.0</ele><time>2026-04-28T10:53:50.947Z</time></trkpt><trkpt lat="39.82752512203752" lon="9.2796142749388"><ele>779.6666666666666</ele><time>2026-04-28T10:53:51.947Z</time></trkpt><trkpt lat="39.8277167193004" lon="9.279585484207104"><ele>781.3333333333333</ele><time>2026-04-28T10:53:52.947Z</time></trkpt><trkpt lat="39.827892148336645" lon="9.279557420855095"><ele>783.0</ele><time>2026-04-28T10:53:53.947Z</time></trkpt><trkpt lat="39.828064327119115" lon="9.279622345693493"><ele>782.0</ele><time>2026-04-28T10:53:54.947Z</time></trkpt><trkpt lat="39.82824662534966" lon="9.279782753211343"><ele>781.0</ele><time>2026-04-28T10:53:55.947Z</time></trkpt><trkpt lat="39.82841206955534" lon="9.27995874423345"><ele>780.0</ele><time>2026-04-28T10:53:56.947Z</time></trkpt><trkpt lat="39.82851896063312" lon="9.280106193749525"><ele>780.0</ele><time>2026-04-28T10:53:57.947Z</time></trkpt><trkpt lat="39.828580542101164" lon="9.280277399303372"><ele>780.0</ele><time>2026-04-28T10:53:58.946Z</time></trkpt><trkpt lat="39.82858574869096" lon="9.280467620790137"><ele>780.0</ele><time>2026-04-28T10:53:59.947Z</time></trkpt><trkpt lat="39.82853302757927" lon="9.280629801205556"><ele>780.0</ele><time>2026-04-28T10:54:00.947Z</time></trkpt><trkpt lat="39.82844030379393" lon="9.280710362439173"><ele>776.25</ele><time>2026-04-28T10:54:01.947Z</time></trkpt><trkpt lat="39.82833635625986" lon="9.280688907984059"><ele>772.5</ele><time>2026-04-28T10:54:02.947Z</time></trkpt><trkpt lat="39.82823322263186" lon="9.28056853960968"><ele>768.75</ele><time>2026-04-28T10:54:03.947Z</time></trkpt><trkpt lat="39.82811230068147" lon="9.280449335243128"><ele>765.0</ele><time>2026-04-28T10:54:04.947Z</time></trkpt><trkpt lat="39.82795170411874" lon="9.28040644553819"><ele>765.6666666666666</ele><time>2026-04-28T10:54:05.947Z</time></trkpt><trkpt lat="39.82775963836795" lon="9.280445007117535"><ele>766.3333333333333</ele><time>2026-04-28T10:54:06.947Z</time></trkpt><trkpt lat="39.82752820602381" lon="9.280551584030384"><ele>767.0</ele><time>2026-04-28T10:54:07.947Z</time></trkpt><trkpt lat="39.82728970879128" lon="9.280681643425034"><ele>767.0</ele><time>2026-04-28T10:54:08.947Z</time></trkpt><trkpt lat="39.827039935979926" lon="9.280753307739806"><ele>767.0</ele><time>2026-04-28T10:54:09.947Z</time></trkpt><trkpt lat="39.82679592096027" lon="9.28073216029549"><ele>765.6666666666666</ele><time>2026-04-28T10:54:10.947Z</time></trkpt><trkpt lat="39.82660461681033" lon="9.28076323512719"><ele>764.3333333333334</ele><time>2026-04-28T10:54:11.947Z</time></trkpt><trkpt lat="39.82644552282844" lon="9.28086483089859"><ele>763.0</ele><time>2026-04-28T10:54:12.947Z</time></trkpt><trkpt lat="39.82632252193413" lon="9.281043046335567"><ele>763.0</ele><time>2026-04-28T10:54:13.947Z</time></trkpt><trkpt lat="39.826229169309684" lon="9.281303516774235"><ele>763.0</ele><time>2026-04-28T10:54:14.947Z</time></trkpt><trkpt lat="39.82611359680121" lon="9.281594902844647"><ele>763.0</ele><time>2026-04-28T10:54:15.947Z</time></trkpt><trkpt lat="39.82592841039066" lon="9.281868176276536"><ele>763.0</ele><time>2026-04-28T10:54:16.947Z</time></trkpt><trkpt lat="39.82576124035912" lon="9.282105490229467"><ele>767.6666666666667</ele><time>2026-04-28T10:54:17.947Z</time></trkpt><trkpt lat="39.82562362363846" lon="9.282304536776447"><ele>772.3333333333334</ele><time>2026-04-28T10:54:18.947Z</time></trkpt><trkpt lat="39.82554050999865" lon="9.282503935292548"><ele>777.0</ele><time>2026-04-28T10:54:19.947Z</time></trkpt><trkpt lat="39.82553580433008" lon="9.282680761277303"><ele>777.0</ele><time>2026-04-28T10:54:20.947Z</time></trkpt><trkpt lat="39.82560201587572" lon="9.282894884536464"><ele>777.0</ele><time>2026-04-28T10:54:21.947Z</time></trkpt><trkpt lat="39.82574135956446" lon="9.283075382452601"><ele>777.0</ele><time>2026-04-28T10:54:22.947Z</time></trkpt><trkpt lat="39.826042391085544" lon="9.28318679137772"><ele>784.0</ele><time>2026-04-28T10:54:23.947Z</time></trkpt><trkpt lat="39.826293856747405" lon="9.28328961993883"><ele>791.0</ele><time>2026-04-28T10:54:24.947Z</time></trkpt><trkpt lat="39.82654524209497" lon="9.28356449337019"><ele>791.0</ele><time>2026-04-28T10:54:25.947Z</time></trkpt><trkpt lat="39.82674521013587" lon="9.283815118781503"><ele>791.0</ele><time>2026-04-28T10:54:26.946Z</time></trkpt><trkpt lat="39.82691451970475" lon="9.283928074148506"><ele>794.3333333333334</ele><time>2026-04-28T10:54:27.946Z</time></trkpt><trkpt lat="39.827100468669315" lon="9.28402810777506"><ele>797.6666666666667</ele><time>2026-04-28T10:54:28.946Z</time></trkpt><trkpt lat="39.82718722330044" lon="9.284167513554118"><ele>801.0</ele><time>2026-04-28T10:54:29.946Z</time></trkpt><trkpt lat="39.82719580503726" lon="9.284408080450682"><ele>801.0</ele><time>2026-04-28T10:54:30.946Z</time></trkpt><trkpt lat="39.8272225389899" lon="9.284661282242475"><ele>801.0</ele><time>2026-04-28T10:54:31.946Z</time></trkpt><trkpt lat="39.82719327133307" lon="9.284997821035875"><ele>801.0</ele><time>2026-04-28T10:54:32.946Z</time></trkpt><trkpt lat="39.82711429019539" lon="9.2852871484225"><ele>801.0</ele><time>2026-04-28T10:54:33.946Z</time></trkpt><trkpt lat="39.82713035017767" lon="9.285555405531255"><ele>801.0</ele><time>2026-04-28T10:54:34.946Z</time></trkpt><trkpt lat="39.82721204064792" lon="9.285742033504286"><ele>799.6666666666667</ele><time>2026-04-28T10:54:35.946Z</time></trkpt><trkpt lat="39.82733187656796" lon="9.285847432423251"><ele>798.3333333333334</ele><time>2026-04-28T10:54:36.946Z</time></trkpt><trkpt lat="39.82752015069265" lon="9.285937722647656"><ele>797.0</ele><time>2026-04-28T10:54:37.946Z</time></trkpt><trkpt lat="39.82761736457269" lon="9.28615282536969"><ele>802.0</ele><time>2026-04-28T10:54:38.946Z</time></trkpt><trkpt lat="39.827661951130715" lon="9.28638527043272"><ele>807.0</ele><time>2026-04-28T10:54:39.946Z</time></trkpt><trkpt lat="39.82773940844898" lon="9.286590695452395"><ele>812.0</ele><time>2026-04-28T10:54:40.946Z</time></trkpt><trkpt lat="39.82789127755403" lon="9.286721018063835"><ele>812.0</ele><time>2026-04-28T10:54:41.946Z</time></trkpt><trkpt lat="39.82804949561701" lon="9.286730773807339"><ele>812.0</ele><time>2026-04-28T10:54:42.946Z</time></trkpt><trkpt lat="39.82816232429033" lon="9.286840465848963"><ele>812.0</ele><time>2026-04-28T10:54:43.946Z</time></trkpt><trkpt lat="39.828191024541454" lon="9.286978344421076"><ele>812.0</ele><time>2026-04-28T10:54:44.946Z</time></trkpt><trkpt lat="39.82815122546905" lon="9.287154138547011"><ele>812.5</ele><time>2026-04-28T10:54:45.946Z</time></trkpt><trkpt lat="39.828119093027816" lon="9.287331602319993"><ele>813.0</ele><time>2026-04-28T10:54:46.946Z</time></trkpt><trkpt lat="39.82810428128357" lon="9.287480463617541"><ele>813.5</ele><time>2026-04-28T10:54:47.946Z</time></trkpt><trkpt lat="39.82808790982063" lon="9.287623120000859"><ele>814.0</ele><time>2026-04-28T10:54:48.946Z</time></trkpt><trkpt lat="39.828076052015014" lon="9.287823941179758"><ele>814.0</ele><time>2026-04-28T10:54:49.946Z</time></trkpt><trkpt lat="39.8281027800911" lon="9.288057879302709"><ele>814.0</ele><time>2026-04-28T10:54:50.946Z</time></trkpt><trkpt lat="39.82816309656251" lon="9.288292863835219"><ele>814.0</ele><time>2026-04-28T10:54:51.946Z</time></trkpt><trkpt lat="39.82826272031704" lon="9.288519127531032"><ele>814.0</ele><time>2026-04-28T10:54:52.946Z</time></trkpt><trkpt lat="39.8283038360549" lon="9.28870775317195"><ele>814.0</ele><time>2026-04-28T10:54:53.946Z</time></trkpt><trkpt lat="39.82837180759431" lon="9.28886357355082"><ele>814.0</ele><time>2026-04-28T10:54:54.946Z</time></trkpt><trkpt lat="39.828489310828125" lon="9.288999326877201"><ele>814.0</ele><time>2026-04-28T10:54:55.946Z</time></trkpt><trkpt lat="39.82865731784871" lon="9.289169794241124"><ele>822.5</ele><time>2026-04-28T10:54:56.946Z</time></trkpt><trkpt lat="39.828807293844534" lon="9.289414497441406"><ele>831.0</ele><time>2026-04-28T10:54:57.946Z</time></trkpt><trkpt lat="39.82893333863365" lon="9.289673154597553"><ele>832.3333333333333</ele><time>2026-04-28T10:54:58.946Z</time></trkpt><trkpt lat="39.829089786723785" lon="9.28987896727473"><ele>833.6666666666666</ele><time>2026-04-28T10:54:59.946Z</time></trkpt><trkpt lat="39.82925204420767" lon="9.290039473710415"><ele>835.0</ele><time>2026-04-28T10:55:00.946Z</time></trkpt><trkpt lat="39.8293945440695" lon="9.290153258488113"><ele>835.0</ele><time>2026-04-28T10:55:01.946Z</time></trkpt><trkpt lat="39.82952050591985" lon="9.290218923491704"><ele>835.0</ele><time>2026-04-28T10:55:02.946Z</time></trkpt><trkpt lat="39.82959791340577" lon="9.290283974299237"><ele>835.0</ele><time>2026-04-28T10:55:03.946Z</time></trkpt><trkpt lat="39.82958259435165" lon="9.29040779619663"><ele>835.0</ele><time>2026-04-28T10:55:04.946Z</time></trkpt><trkpt lat="39.82948508736695" lon="9.290524979194332"><ele>835.0</ele><time>2026-04-28T10:55:05.946Z</time></trkpt><trkpt lat="39.829320591722436" lon="9.290573472416725"><ele>835.0</ele><time>2026-04-28T10:55:06.946Z</time></trkpt><trkpt lat="39.82911517971935" lon="9.29056804491065"><ele>835.0</ele><time>2026-04-28T10:55:07.946Z</time></trkpt><trkpt lat="39.828882583458515" lon="9.290521596633567"><ele>826.5</ele><time>2026-04-28T10:55:08.946Z</time></trkpt><trkpt lat="39.828636647380634" lon="9.290481983523467"><ele>818.0</ele><time>2026-04-28T10:55:09.946Z</time></trkpt><trkpt lat="39.828387801053886" lon="9.290441978620667"><ele>816.0</ele><time>2026-04-28T10:55:10.946Z</time></trkpt><trkpt lat="39.82813767287258" lon="9.290362658002524"><ele>814.0</ele><time>2026-04-28T10:55:11.946Z</time></trkpt><trkpt lat="39.82791256700416" lon="9.290236197884276"><ele>814.0</ele><time>2026-04-28T10:55:12.946Z</time></trkpt><trkpt lat="39.82771297717906" lon="9.290068468705078"><ele>814.0</ele><time>2026-04-28T10:55:13.946Z</time></trkpt><trkpt lat="39.82751361444532" lon="9.289908501480976"><ele>812.6666666666666</ele><time>2026-04-28T10:55:14.946Z</time></trkpt><trkpt lat="39.82731903614675" lon="9.289770281716711"><ele>811.3333333333333</ele><time>2026-04-28T10:55:15.946Z</time></trkpt><trkpt lat="39.827137318366894" lon="9.289649276249506"><ele>810.0</ele><time>2026-04-28T10:55:16.946Z</time></trkpt><trkpt lat="39.8269646716275" lon="9.28953912712868"><ele>817.3333333333333</ele><time>2026-04-28T10:55:17.946Z</time></trkpt><trkpt lat="39.82681039279827" lon="9.28942814885474"><ele>824.6666666666666</ele><time>2026-04-28T10:55:18.946Z</time></trkpt><trkpt lat="39.82668788444404" lon="9.289295847345903"><ele>832.0</ele><time>2026-04-28T10:55:19.946Z</time></trkpt><trkpt lat="39.826592645387244" lon="9.289144663640473"><ele>832.0</ele><time>2026-04-28T10:55:20.946Z</time></trkpt><trkpt lat="39.82650391991771" lon="9.288992872715898"><ele>832.0</ele><time>2026-04-28T10:55:21.946Z</time></trkpt><trkpt lat="39.826386267992156" lon="9.288841020926517"><ele>832.0</ele><time>2026-04-28T10:55:22.946Z</time></trkpt><trkpt lat="39.82626021586907" lon="9.288724786759781"><ele>831.6666666666666</ele><time>2026-04-28T10:55:23.946Z</time></trkpt><trkpt lat="39.826117723788364" lon="9.288639524798025"><ele>831.3333333333333</ele><time>2026-04-28T10:55:24.946Z</time></trkpt><trkpt lat="39.82596189455819" lon="9.288575484461157"><ele>831.0</ele><time>2026-04-28T10:55:25.946Z</time></trkpt><trkpt lat="39.825794801480534" lon="9.288547135968837"><ele>831.0</ele><time>2026-04-28T10:55:26.946Z</time></trkpt><trkpt lat="39.825623489804975" lon="9.288576808023887"><ele>831.0</ele><time>2026-04-28T10:55:27.946Z</time></trkpt><trkpt lat="39.825442426745326" lon="9.28863540783244"><ele>831.0</ele><time>2026-04-28T10:55:28.946Z</time></trkpt><trkpt lat="39.82526158245847" lon="9.28868536907534"><ele>832.75</ele><time>2026-04-28T10:55:29.946Z</time></trkpt><trkpt lat="39.82511668988061" lon="9.288742436016095"><ele>834.5</ele><time>2026-04-28T10:55:30.946Z</time></trkpt><trkpt lat="39.82501015958581" lon="9.288839075701055"><ele>836.25</ele><time>2026-04-28T10:55:31.946Z</time></trkpt><trkpt lat="39.824957700352364" lon="9.28902889493638"><ele>838.0</ele><time>2026-04-28T10:55:32.946Z</time></trkpt><trkpt lat="39.824964689222114" lon="9.289281803311797"><ele>840.0</ele><time>2026-04-28T10:55:33.945Z</time></trkpt><trkpt lat="39.82501924092711" lon="9.289540663863614"><ele>842.0</ele><time>2026-04-28T10:55:34.945Z</time></trkpt><trkpt lat="39.82512330496738" lon="9.289802248346737"><ele>844.0</ele><time>2026-04-28T10:55:35.945Z</time></trkpt><trkpt lat="39.82523731016827" lon="9.29005946899791"><ele>849.0</ele><time>2026-04-28T10:55:36.945Z</time></trkpt><trkpt lat="39.82529783360517" lon="9.290325700546418"><ele>854.0</ele><time>2026-04-28T10:55:37.945Z</time></trkpt><trkpt lat="39.82533180833718" lon="9.290609608058617"><ele>859.0</ele><time>2026-04-28T10:55:38.945Z</time></trkpt><trkpt lat="39.82540510781284" lon="9.290867884497908"><ele>861.5</ele><time>2026-04-28T10:55:39.945Z</time></trkpt><trkpt lat="39.82553580656027" lon="9.291103144533263"><ele>864.0</ele><time>2026-04-28T10:55:40.945Z</time></trkpt><trkpt lat="39.82568386709406" lon="9.291353540973756"><ele>860.0</ele><time>2026-04-28T10:55:41.945Z</time></trkpt><trkpt lat="39.82582602571996" lon="9.29161514926785"><ele>856.0</ele><time>2026-04-28T10:55:42.945Z</time></trkpt><trkpt lat="39.82596581670571" lon="9.291892368576626"><ele>858.0</ele><time>2026-04-28T10:55:43.945Z</time></trkpt><trkpt lat="39.826097575583766" lon="9.2921658068486"><ele>860.0</ele><time>2026-04-28T10:55:44.945Z</time></trkpt><trkpt lat="39.826234324589116" lon="9.292416769400004"><ele>860.0</ele><time>2026-04-28T10:55:45.945Z</time></trkpt><trkpt lat="39.8263994641891" lon="9.292595518322612"><ele>860.0</ele><time>2026-04-28T10:55:46.945Z</time></trkpt><trkpt lat="39.826608030617486" lon="9.292709859166731"><ele>860.0</ele><time>2026-04-28T10:55:47.945Z</time></trkpt><trkpt lat="39.82686385006039" lon="9.292756315591587"><ele>865.0</ele><time>2026-04-28T10:55:48.945Z</time></trkpt><trkpt lat="39.827130140262426" lon="9.292751111327808"><ele>870.0</ele><time>2026-04-28T10:55:49.945Z</time></trkpt><trkpt lat="39.82740979210203" lon="9.292724858781737"><ele>873.0</ele><time>2026-04-28T10:55:50.945Z</time></trkpt><trkpt lat="39.82768487172987" lon="9.292722955795282"><ele>876.0</ele><time>2026-04-28T10:55:51.945Z</time></trkpt><trkpt lat="39.82793259274498" lon="9.29272959886228"><ele>876.0</ele><time>2026-04-28T10:55:52.946Z</time></trkpt><trkpt lat="39.82815426673904" lon="9.292769706702181"><ele>876.0</ele><time>2026-04-28T10:55:53.946Z</time></trkpt><trkpt lat="39.82836514442619" lon="9.292869681481632"><ele>876.0</ele><time>2026-04-28T10:55:54.946Z</time></trkpt><trkpt lat="39.828545469603256" lon="9.293024482780943"><ele>881.3333333333333</ele><time>2026-04-28T10:55:55.947Z</time></trkpt><trkpt lat="39.8286402610253" lon="9.293242907444473"><ele>886.6666666666666</ele><time>2026-04-28T10:55:56.946Z</time></trkpt><trkpt lat="39.8286677476036" lon="9.293519332674185"><ele>892.0</ele><time>2026-04-28T10:55:57.946Z</time></trkpt><trkpt lat="39.828618753587655" lon="9.293798781276493"><ele>893.0</ele><time>2026-04-28T10:55:58.946Z</time></trkpt><trkpt lat="39.82849612372108" lon="9.294035309693486"><ele>894.0</ele><time>2026-04-28T10:55:59.946Z</time></trkpt><trkpt lat="39.82832660482088" lon="9.294219159150558"><ele>895.0</ele><time>2026-04-28T10:56:00.946Z</time></trkpt><trkpt lat="39.82815619231596" lon="9.294347524140223"><ele>890.6666666666666</ele><time>2026-04-28T10:56:01.946Z</time></trkpt><trkpt lat="39.82805678346852" lon="9.294491668937649"><ele>886.3333333333333</ele><time>2026-04-28T10:56:02.946Z</time></trkpt><trkpt lat="39.82804701607917" lon="9.294729002368701"><ele>882.0</ele><time>2026-04-28T10:56:03.946Z</time></trkpt><trkpt lat="39.82810593013693" lon="9.29499384332917"><ele>882.0</ele><time>2026-04-28T10:56:04.945Z</time></trkpt><trkpt lat="39.828216225643835" lon="9.295232903122836"><ele>882.0</ele><time>2026-04-28T10:56:05.946Z</time></trkpt><trkpt lat="39.828393107632635" lon="9.295409713466153"><ele>882.0</ele><time>2026-04-28T10:56:06.946Z</time></trkpt><trkpt lat="39.82861274386107" lon="9.295563177889964"><ele>887.6666666666667</ele><time>2026-04-28T10:56:07.946Z</time></trkpt><trkpt lat="39.828788414027294" lon="9.295753505395583"><ele>893.3333333333334</ele><time>2026-04-28T10:56:08.946Z</time></trkpt><trkpt lat="39.82890296137779" lon="9.295981875323404"><ele>899.0</ele><time>2026-04-28T10:56:09.946Z</time></trkpt><trkpt lat="39.82897487021613" lon="9.296220020155245"><ele>899.0</ele><time>2026-04-28T10:56:10.946Z</time></trkpt><trkpt lat="39.82907219855553" lon="9.29640512977161"><ele>899.0</ele><time>2026-04-28T10:56:11.946Z</time></trkpt><trkpt lat="39.82924314657543" lon="9.296533446572054"><ele>899.0</ele><time>2026-04-28T10:56:12.946Z</time></trkpt><trkpt lat="39.82943483607901" lon="9.296656791214588"><ele>903.6666666666667</ele><time>2026-04-28T10:56:13.946Z</time></trkpt><trkpt lat="39.82959190100325" lon="9.296849880665219"><ele>908.3333333333333</ele><time>2026-04-28T10:56:14.946Z</time></trkpt><trkpt lat="39.82973846259861" lon="9.297044123231203"><ele>913.0</ele><time>2026-04-28T10:56:15.946Z</time></trkpt><trkpt lat="39.829868731611214" lon="9.297190085706006"><ele>910.6666666666666</ele><time>2026-04-28T10:56:16.945Z</time></trkpt><trkpt lat="39.829915347909775" lon="9.297348525808394"><ele>908.3333333333333</ele><time>2026-04-28T10:56:17.945Z</time></trkpt><trkpt lat="39.82987521350156" lon="9.297577415728975"><ele>906.0</ele><time>2026-04-28T10:56:18.945Z</time></trkpt><trkpt lat="39.829797302650206" lon="9.297845976429306"><ele>906.0</ele><time>2026-04-28T10:56:19.945Z</time></trkpt><trkpt lat="39.82970408937257" lon="9.298077308600151"><ele>906.0</ele><time>2026-04-28T10:56:20.945Z</time></trkpt><trkpt lat="39.82965865181914" lon="9.298255509676995"><ele>906.0</ele><time>2026-04-28T10:56:21.945Z</time></trkpt><trkpt lat="39.8297183335717" lon="9.298437792682567"><ele>905.5</ele><time>2026-04-28T10:56:22.945Z</time></trkpt><trkpt lat="39.829880447561145" lon="9.29861690179594"><ele>905.0</ele><time>2026-04-28T10:56:23.945Z</time></trkpt><trkpt lat="39.83009528362211" lon="9.298756692648002"><ele>907.3333333333334</ele><time>2026-04-28T10:56:24.945Z</time></trkpt><trkpt lat="39.830310133556644" lon="9.298832139187583"><ele>909.6666666666667</ele><time>2026-04-28T10:56:25.945Z</time></trkpt><trkpt lat="39.83050761896581" lon="9.298835532744638"><ele>912.0</ele><time>2026-04-28T10:56:26.945Z</time></trkpt><trkpt lat="39.83071751393909" lon="9.298742904598205"><ele>912.0</ele><time>2026-04-28T10:56:27.945Z</time></trkpt><trkpt lat="39.83092328050325" lon="9.298648785007845"><ele>912.0</ele><time>2026-04-28T10:56:28.945Z</time></trkpt><trkpt lat="39.8311230924088" lon="9.298644408042524"><ele>912.0</ele><time>2026-04-28T10:56:29.945Z</time></trkpt><trkpt lat="39.831318250116766" lon="9.298764889674397"><ele>905.0</ele><time>2026-04-28T10:56:30.945Z</time></trkpt><trkpt lat="39.83151351610858" lon="9.29896420042583"><ele>898.0</ele><time>2026-04-28T10:56:31.945Z</time></trkpt><trkpt lat="39.83171710272246" lon="9.29912666404315"><ele>900.5</ele><time>2026-04-28T10:56:32.945Z</time></trkpt><trkpt lat="39.8319543335603" lon="9.299212474721635"><ele>903.0</ele><time>2026-04-28T10:56:33.945Z</time></trkpt><trkpt lat="39.83220325191344" lon="9.299277079419891"><ele>903.0</ele><time>2026-04-28T10:56:34.945Z</time></trkpt><trkpt lat="39.83245411489055" lon="9.29931991996509"><ele>903.0</ele><time>2026-04-28T10:56:35.945Z</time></trkpt><trkpt lat="39.83270558078517" lon="9.29930180076556"><ele>902.0</ele><time>2026-04-28T10:56:36.945Z</time></trkpt><trkpt lat="39.83295183915718" lon="9.299300518164392"><ele>901.0</ele><time>2026-04-28T10:56:37.945Z</time></trkpt><trkpt lat="39.833178823719024" lon="9.299358650729696"><ele>901.0</ele><time>2026-04-28T10:56:38.945Z</time></trkpt><trkpt lat="39.833384594683935" lon="9.299401688673159"><ele>901.0</ele><time>2026-04-28T10:56:39.945Z</time></trkpt><trkpt lat="39.83356705583644" lon="9.29938450796591"><ele>901.0</ele><time>2026-04-28T10:56:40.945Z</time></trkpt><trkpt lat="39.83371667834108" lon="9.29926315576258"><ele>905.0</ele><time>2026-04-28T10:56:41.945Z</time></trkpt><trkpt lat="39.83382444966511" lon="9.299063774398785"><ele>909.0</ele><time>2026-04-28T10:56:42.945Z</time></trkpt><trkpt lat="39.83389935329304" lon="9.298843948835614"><ele>913.0</ele><time>2026-04-28T10:56:43.945Z</time></trkpt><trkpt lat="39.83399245547284" lon="9.298746143928692"><ele>913.0</ele><time>2026-04-28T10:56:44.945Z</time></trkpt><trkpt lat="39.83416662164911" lon="9.29877405406686"><ele>913.0</ele><time>2026-04-28T10:56:45.945Z</time></trkpt><trkpt lat="39.834399927439335" lon="9.298877304945817"><ele>913.0</ele><time>2026-04-28T10:56:46.945Z</time></trkpt><trkpt lat="39.834645491802" lon="9.298938250693176"><ele>900.0</ele><time>2026-04-28T10:56:47.945Z</time></trkpt><trkpt lat="39.83488700627298" lon="9.298976349481158"><ele>887.0</ele><time>2026-04-28T10:56:48.945Z</time></trkpt><trkpt lat="39.83510250310147" lon="9.299025338707455"><ele>884.6666666666667</ele><time>2026-04-28T10:56:49.945Z</time></trkpt><trkpt lat="39.83529760532891" lon="9.29900722698828"><ele>882.3333333333333</ele><time>2026-04-28T10:56:50.945Z</time></trkpt><trkpt lat="39.83549073883384" lon="9.298880861106541"><ele>880.0</ele><time>2026-04-28T10:56:51.945Z</time></trkpt><trkpt lat="39.835683354853465" lon="9.298746881366922"><ele>886.3333333333333</ele><time>2026-04-28T10:56:52.945Z</time></trkpt><trkpt lat="39.835839976639434" lon="9.298630343175263"><ele>892.6666666666667</ele><time>2026-04-28T10:56:53.945Z</time></trkpt><trkpt lat="39.83598736795114" lon="9.298605940636122"><ele>899.0</ele><time>2026-04-28T10:56:54.945Z</time></trkpt><trkpt lat="39.83615670302437" lon="9.298686251619396"><ele>900.0</ele><time>2026-04-28T10:56:55.945Z</time></trkpt><trkpt lat="39.83635156014509" lon="9.298800948348717"><ele>901.0</ele><time>2026-04-28T10:56:56.945Z</time></trkpt><trkpt lat="39.83656134400861" lon="9.298852899861904"><ele>902.0</ele><time>2026-04-28T10:56:57.945Z</time></trkpt><trkpt lat="39.836734567677276" lon="9.298888772661691"><ele>903.3333333333334</ele><time>2026-04-28T10:56:58.945Z</time></trkpt><trkpt lat="39.83684496165311" lon="9.298977192971593"><ele>904.6666666666667</ele><time>2026-04-28T10:56:59.945Z</time></trkpt><trkpt lat="39.83690802163886" lon="9.29913946382651"><ele>906.0</ele><time>2026-04-28T10:57:00.945Z</time></trkpt><trkpt lat="39.836930969609476" lon="9.299376172943461"><ele>906.0</ele><time>2026-04-28T10:57:01.945Z</time></trkpt><trkpt lat="39.83700062575127" lon="9.299584258127657"><ele>906.0</ele><time>2026-04-28T10:57:02.945Z</time></trkpt><trkpt lat="39.837146054510846" lon="9.299739853541059"><ele>906.0</ele><time>2026-04-28T10:57:03.945Z</time></trkpt><trkpt lat="39.83727860332955" lon="9.299891413326709"><ele>903.25</ele><time>2026-04-28T10:57:04.945Z</time></trkpt><trkpt lat="39.83732668117032" lon="9.300054878275994"><ele>900.5</ele><time>2026-04-28T10:57:05.945Z</time></trkpt><trkpt lat="39.837277842054284" lon="9.300241241460887"><ele>897.75</ele><time>2026-04-28T10:57:06.945Z</time></trkpt><trkpt lat="39.837179970245465" lon="9.300408443241313"><ele>895.0</ele><time>2026-04-28T10:57:07.945Z</time></trkpt><trkpt lat="39.837149720885186" lon="9.300593194146083"><ele>892.6666666666666</ele><time>2026-04-28T10:57:08.945Z</time></trkpt><trkpt lat="39.837193846474946" lon="9.300824535652628"><ele>890.3333333333333</ele><time>2026-04-28T10:57:09.945Z</time></trkpt><trkpt lat="39.83726019846863" lon="9.301083972616134"><ele>888.0</ele><time>2026-04-28T10:57:10.945Z</time></trkpt><trkpt lat="39.83729664309644" lon="9.301343535929659"><ele>889.3333333333333</ele><time>2026-04-28T10:57:11.945Z</time></trkpt><trkpt lat="39.83736380324241" lon="9.30155006898849"><ele>890.6666666666666</ele><time>2026-04-28T10:57:12.945Z</time></trkpt><trkpt lat="39.837499108031665" lon="9.301750945211362"><ele>892.0</ele><time>2026-04-28T10:57:13.945Z</time></trkpt><trkpt lat="39.83766238422068" lon="9.30196787607917"><ele>892.0</ele><time>2026-04-28T10:57:14.945Z</time></trkpt><trkpt lat="39.83782318037992" lon="9.302133000404167"><ele>892.0</ele><time>2026-04-28T10:57:15.945Z</time></trkpt><trkpt lat="39.83801573346039" lon="9.302228142476192"><ele>892.0</ele><time>2026-04-28T10:57:16.945Z</time></trkpt><trkpt lat="39.83822142371841" lon="9.302269355007198"><ele>892.0</ele><time>2026-04-28T10:57:17.945Z</time></trkpt><trkpt lat="39.83842226772825" lon="9.302233982321583"><ele>892.0</ele><time>2026-04-28T10:57:18.945Z</time></trkpt><trkpt lat="39.83859416116245" lon="9.302176770765426"><ele>892.0</ele><time>2026-04-28T10:57:19.945Z</time></trkpt><trkpt lat="39.83874501099907" lon="9.302213665866955"><ele>886.6666666666666</ele><time>2026-04-28T10:57:20.945Z</time></trkpt><trkpt lat="39.838873602103284" lon="9.30231403939926"><ele>881.3333333333333</ele><time>2026-04-28T10:57:21.945Z</time></trkpt><trkpt lat="39.83905115145364" lon="9.302322407826114"><ele>876.0</ele><time>2026-04-28T10:57:22.945Z</time></trkpt><trkpt lat="39.83920129142625" lon="9.302303511323522"><ele>876.0</ele><time>2026-04-28T10:57:23.944Z</time></trkpt><trkpt lat="39.839303094445036" lon="9.302356612141573"><ele>876.0</ele><time>2026-04-28T10:57:24.944Z</time></trkpt><trkpt lat="39.83933556076723" lon="9.30249522533202"><ele>876.0</ele><time>2026-04-28T10:57:25.944Z</time></trkpt><trkpt lat="39.83930215512684" lon="9.302660004532548"><ele>876.0</ele><time>2026-04-28T10:57:26.944Z</time></trkpt><trkpt lat="39.83922420335779" lon="9.302866694213288"><ele>874.3333333333333</ele><time>2026-04-28T10:57:27.944Z</time></trkpt><trkpt lat="39.839188248171276" lon="9.303126738594127"><ele>872.6666666666666</ele><time>2026-04-28T10:57:28.944Z</time></trkpt><trkpt lat="39.83918827829106" lon="9.303424183732064"><ele>871.0</ele><time>2026-04-28T10:57:29.944Z</time></trkpt><trkpt lat="39.83914299800254" lon="9.303728699897967"><ele>873.5</ele><time>2026-04-28T10:57:30.944Z</time></trkpt><trkpt lat="39.839034308081715" lon="9.304008947738323"><ele>876.0</ele><time>2026-04-28T10:57:31.944Z</time></trkpt><trkpt lat="39.83893076003472" lon="9.304247739731347"><ele>876.0</ele><time>2026-04-28T10:57:32.944Z</time></trkpt><trkpt lat="39.83886110369562" lon="9.304493140333639"><ele>876.0</ele><time>2026-04-28T10:57:33.944Z</time></trkpt><trkpt lat="39.838823309648404" lon="9.304748286825877"><ele>876.0</ele><time>2026-04-28T10:57:34.944Z</time></trkpt><trkpt lat="39.838793099046924" lon="9.304999545654201"><ele>876.6666666666667</ele><time>2026-04-28T10:57:35.944Z</time></trkpt><trkpt lat="39.83876673545573" lon="9.30523548691776"><ele>877.3333333333334</ele><time>2026-04-28T10:57:36.944Z</time></trkpt><trkpt lat="39.838739794657094" lon="9.305463679802823"><ele>878.0</ele><time>2026-04-28T10:57:37.944Z</time></trkpt><trkpt lat="39.83871053565049" lon="9.305685005716361"><ele>880.0</ele><time>2026-04-28T10:57:38.944Z</time></trkpt><trkpt lat="39.838674589518575" lon="9.305892947332469"><ele>882.0</ele><time>2026-04-28T10:57:39.944Z</time></trkpt><trkpt lat="39.838644137829306" lon="9.3060860201997"><ele>884.0</ele><time>2026-04-28T10:57:40.944Z</time></trkpt><trkpt lat="39.83861169886751" lon="9.30625933610591"><ele>884.0</ele><time>2026-04-28T10:57:41.944Z</time></trkpt><trkpt lat="39.83856929141084" lon="9.306390597578405"><ele>884.0000000000001</ele><time>2026-04-28T10:57:42.944Z</time></trkpt><trkpt lat="39.83850549588349" lon="9.306477816377452"><ele>884.0000000000001</ele><time>2026-04-28T10:57:43.944Z</time></trkpt><trkpt lat="39.83842049296784" lon="9.306526079260335"><ele>884.0</ele><time>2026-04-28T10:57:44.944Z</time></trkpt><trkpt lat="39.83839570992056" lon="9.30666479576154"><ele>884.0</ele><time>2026-04-28T10:57:45.944Z</time></trkpt><trkpt lat="39.83830427133058" lon="9.306694311556079"><ele>880.25</ele><time>2026-04-28T10:57:46.944Z</time></trkpt><trkpt lat="39.83822670976744" lon="9.306791126340205"><ele>876.5</ele><time>2026-04-28T10:57:47.944Z</time></trkpt><trkpt lat="39.838165658943964" lon="9.306964900722903"><ele>872.75</ele><time>2026-04-28T10:57:48.944Z</time></trkpt><trkpt lat="39.83808318109101" lon="9.307165737810184"><ele>869.0</ele><time>2026-04-28T10:57:49.944Z</time></trkpt><trkpt lat="39.83800024614969" lon="9.30735798648414"><ele>869.0</ele><time>2026-04-28T10:57:50.944Z</time></trkpt><trkpt lat="39.83790700590079" lon="9.307577516627132"><ele>869.0</ele><time>2026-04-28T10:57:51.944Z</time></trkpt><trkpt lat="39.83781414025184" lon="9.307793562482992"><ele>869.0</ele><time>2026-04-28T10:57:52.944Z</time></trkpt><trkpt lat="39.837756329288496" lon="9.307982179193655"><ele>866.3333333333334</ele><time>2026-04-28T10:57:53.944Z</time></trkpt><trkpt lat="39.83777810315473" lon="9.30817628304904"><ele>863.6666666666667</ele><time>2026-04-28T10:57:54.944Z</time></trkpt><trkpt lat="39.83787000597114" lon="9.308383458633969"><ele>861.0</ele><time>2026-04-28T10:57:55.944Z</time></trkpt><trkpt lat="39.838007940443354" lon="9.308581476027578"><ele>861.0</ele><time>2026-04-28T10:57:56.944Z</time></trkpt><trkpt lat="39.83816902049101" lon="9.308747534032543"><ele>861.0</ele><time>2026-04-28T10:57:57.944Z</time></trkpt><trkpt lat="39.838334039915004" lon="9.308825396285615"><ele>861.0</ele><time>2026-04-28T10:57:58.945Z</time></trkpt><trkpt lat="39.83851757042332" lon="9.3088021811791"><ele>863.6666666666667</ele><time>2026-04-28T10:57:59.945Z</time></trkpt><trkpt lat="39.83872069635656" lon="9.308697177973146"><ele>866.3333333333334</ele><time>2026-04-28T10:58:00.945Z</time></trkpt><trkpt lat="39.83892237080024" lon="9.308660264832962"><ele>869.0</ele><time>2026-04-28T10:58:01.946Z</time></trkpt><trkpt lat="39.839125776016914" lon="9.308745700660797"><ele>873.0</ele><time>2026-04-28T10:58:02.945Z</time></trkpt><trkpt lat="39.83932245235015" lon="9.308892404944965"><ele>877.0</ele><time>2026-04-28T10:58:03.945Z</time></trkpt><trkpt lat="39.8394978307881" lon="9.309085410514944"><ele>869.0</ele><time>2026-04-28T10:58:04.945Z</time></trkpt><trkpt lat="39.83965421247015" lon="9.309315295323561"><ele>861.0</ele><time>2026-04-28T10:58:05.945Z</time></trkpt><trkpt lat="39.83980575404436" lon="9.309525350571604"><ele>861.0</ele><time>2026-04-28T10:58:06.945Z</time></trkpt><trkpt lat="39.83992903247559" lon="9.309723337049338"><ele>861.0</ele><time>2026-04-28T10:58:07.945Z</time></trkpt><trkpt lat="39.839990806930246" lon="9.309880602548855"><ele>861.0</ele><time>2026-04-28T10:58:08.945Z</time></trkpt><trkpt lat="39.839986777494474" lon="9.310037283403434"><ele>856.0</ele><time>2026-04-28T10:58:09.945Z</time></trkpt><trkpt lat="39.83990151742102" lon="9.310244499183275"><ele>851.0</ele><time>2026-04-28T10:58:10.945Z</time></trkpt><trkpt lat="39.839778904593544" lon="9.310503680535973"><ele>846.0</ele><time>2026-04-28T10:58:11.945Z</time></trkpt><trkpt lat="39.8396992134397" lon="9.310787542759318"><ele>844.5</ele><time>2026-04-28T10:58:12.945Z</time></trkpt><trkpt lat="39.83961898677632" lon="9.311089032544713"><ele>843.0</ele><time>2026-04-28T10:58:13.945Z</time></trkpt><trkpt lat="39.83951883174685" lon="9.311378914498427"><ele>839.0</ele><time>2026-04-28T10:58:14.945Z</time></trkpt><trkpt lat="39.83939242807121" lon="9.311664985143567"><ele>835.0</ele><time>2026-04-28T10:58:15.945Z</time></trkpt><trkpt lat="39.83923335769449" lon="9.311940906497902"><ele>832.0</ele><time>2026-04-28T10:58:16.945Z</time></trkpt><trkpt lat="39.839071507936644" lon="9.312215486550256"><ele>829.0</ele><time>2026-04-28T10:58:17.945Z</time></trkpt><trkpt lat="39.838907639742054" lon="9.312493849628062"><ele>829.0</ele><time>2026-04-28T10:58:18.945Z</time></trkpt><trkpt lat="39.838754928613945" lon="9.312769502734191"><ele>829.0</ele><time>2026-04-28T10:58:19.945Z</time></trkpt><trkpt lat="39.838592731559274" lon="9.313027327241546"><ele>823.5</ele><time>2026-04-28T10:58:20.945Z</time></trkpt><trkpt lat="39.83839665410587" lon="9.31325583317847"><ele>818.0</ele><time>2026-04-28T10:58:21.945Z</time></trkpt><trkpt lat="39.83818116366872" lon="9.31347249569063"><ele>818.0</ele><time>2026-04-28T10:58:22.945Z</time></trkpt><trkpt lat="39.83796959126519" lon="9.313706813889642"><ele>818.0</ele><time>2026-04-28T10:58:23.945Z</time></trkpt><trkpt lat="39.83777906313933" lon="9.313972382303753"><ele>813.0</ele><time>2026-04-28T10:58:24.945Z</time></trkpt><trkpt lat="39.83760283495079" lon="9.314233937748877"><ele>808.0</ele><time>2026-04-28T10:58:25.945Z</time></trkpt><trkpt lat="39.837448117771615" lon="9.314455258921322"><ele>808.0</ele><time>2026-04-28T10:58:26.945Z</time></trkpt><trkpt lat="39.83732222789459" lon="9.314629920992894"><ele>808.0</ele><time>2026-04-28T10:58:27.945Z</time></trkpt><trkpt lat="39.83721884905927" lon="9.314775581651654"><ele>808.0</ele><time>2026-04-28T10:58:28.945Z</time></trkpt><trkpt lat="39.83713989886159" lon="9.314909184289148"><ele>809.0</ele><time>2026-04-28T10:58:29.945Z</time></trkpt><trkpt lat="39.837101838432595" lon="9.315065292160536"><ele>810.0</ele><time>2026-04-28T10:58:30.945Z</time></trkpt><trkpt lat="39.837168810054976" lon="9.315217600914623"><ele>811.0</ele><time>2026-04-28T10:58:31.945Z</time></trkpt><trkpt lat="39.83729380269155" lon="9.315341126972873"><ele>812.0</ele><time>2026-04-28T10:58:32.945Z</time></trkpt><trkpt lat="39.8374725902703" lon="9.315402546186688"><ele>810.0</ele><time>2026-04-28T10:58:33.945Z</time></trkpt><trkpt lat="39.83764982550078" lon="9.315393485980474"><ele>808.0</ele><time>2026-04-28T10:58:34.945Z</time></trkpt><trkpt lat="39.83780478008498" lon="9.315272070023198"><ele>806.0</ele><time>2026-04-28T10:58:35.945Z</time></trkpt><trkpt lat="39.837929010620705" lon="9.315075656085076"><ele>806.0</ele><time>2026-04-28T10:58:36.945Z</time></trkpt><trkpt lat="39.838062479382934" lon="9.314907469180103"><ele>806.0</ele><time>2026-04-28T10:58:37.945Z</time></trkpt><trkpt lat="39.83822961406997" lon="9.314856745477597"><ele>806.0</ele><time>2026-04-28T10:58:38.945Z</time></trkpt><trkpt lat="39.83843426441923" lon="9.31490011252254"><ele>800.6666666666667</ele><time>2026-04-28T10:58:39.945Z</time></trkpt><trkpt lat="39.838638881119785" lon="9.31497198933461"><ele>795.3333333333333</ele><time>2026-04-28T10:58:40.945Z</time></trkpt><trkpt lat="39.83886406848741" lon="9.314976090799375"><ele>790.0</ele><time>2026-04-28T10:58:41.945Z</time></trkpt><trkpt lat="39.839086713510824" lon="9.314885302397451"><ele>788.0</ele><time>2026-04-28T10:58:42.945Z</time></trkpt><trkpt lat="39.839308242013985" lon="9.31474024634822"><ele>786.0</ele><time>2026-04-28T10:58:43.945Z</time></trkpt><trkpt lat="39.83952717754513" lon="9.314586901954458"><ele>786.0</ele><time>2026-04-28T10:58:44.945Z</time></trkpt><trkpt lat="39.839711688391574" lon="9.314405001809934"><ele>786.0</ele><time>2026-04-28T10:58:45.945Z</time></trkpt><trkpt lat="39.83987054880664" lon="9.314204702571303"><ele>786.0</ele><time>2026-04-28T10:58:46.945Z</time></trkpt><trkpt lat="39.8400011201827" lon="9.31394915952877"><ele>786.0</ele><time>2026-04-28T10:58:47.945Z</time></trkpt><trkpt lat="39.84011989428518" lon="9.313678017362637"><ele>782.6666666666667</ele><time>2026-04-28T10:58:48.945Z</time></trkpt><trkpt lat="39.840227303569364" lon="9.313441575634505"><ele>779.3333333333334</ele><time>2026-04-28T10:58:49.945Z</time></trkpt><trkpt lat="39.840311583432666" lon="9.313255083998861"><ele>776.0</ele><time>2026-04-28T10:58:50.945Z</time></trkpt><trkpt lat="39.84037985825593" lon="9.313114498262319"><ele>776.0</ele><time>2026-04-28T10:58:51.945Z</time></trkpt><trkpt lat="39.840472979527156" lon="9.313062045363056"><ele>776.0</ele><time>2026-04-28T10:58:52.945Z</time></trkpt><trkpt lat="39.84065710598762" lon="9.313098898794404"><ele>776.0</ele><time>2026-04-28T10:58:53.945Z</time></trkpt><trkpt lat="39.84087650226069" lon="9.313133419713763"><ele>776.0</ele><time>2026-04-28T10:58:54.945Z</time></trkpt><trkpt lat="39.84109669032886" lon="9.313124473485667"><ele>776.0</ele><time>2026-04-28T10:58:55.945Z</time></trkpt><trkpt lat="39.84127758147769" lon="9.31310690528693"><ele>776.0</ele><time>2026-04-28T10:58:56.945Z</time></trkpt><trkpt lat="39.84141850598883" lon="9.3130105001759"><ele>776.0</ele><time>2026-04-28T10:58:57.945Z</time></trkpt><trkpt lat="39.84155895479982" lon="9.312830644949768"><ele>776.0</ele><time>2026-04-28T10:58:58.945Z</time></trkpt><trkpt lat="39.84167895101065" lon="9.312576097421442"><ele>776.0</ele><time>2026-04-28T10:58:59.945Z</time></trkpt><trkpt lat="39.841794242246706" lon="9.312387424950074"><ele>770.0</ele><time>2026-04-28T10:59:00.945Z</time></trkpt><trkpt lat="39.84191959918127" lon="9.312310643869523"><ele>764.0</ele><time>2026-04-28T10:59:01.945Z</time></trkpt><trkpt lat="39.842068315600514" lon="9.312325386556628"><ele>758.0</ele><time>2026-04-28T10:59:02.945Z</time></trkpt><trkpt lat="39.84222536065368" lon="9.312385075513022"><ele>758.0</ele><time>2026-04-28T10:59:03.945Z</time></trkpt><trkpt lat="39.84239901545776" lon="9.312367201978219"><ele>758.0</ele><time>2026-04-28T10:59:04.945Z</time></trkpt><trkpt lat="39.84254070361269" lon="9.312224507115902"><ele>758.0</ele><time>2026-04-28T10:59:05.945Z</time></trkpt><trkpt lat="39.84263877590041" lon="9.312007875205065"><ele>766.0</ele><time>2026-04-28T10:59:06.945Z</time></trkpt><trkpt lat="39.84266957572643" lon="9.311746741118645"><ele>774.0</ele><time>2026-04-28T10:59:07.944Z</time></trkpt><trkpt lat="39.842650382499436" lon="9.311477861863745"><ele>782.0</ele><time>2026-04-28T10:59:08.944Z</time></trkpt><trkpt lat="39.84264242682558" lon="9.311296146874925"><ele>782.0</ele><time>2026-04-28T10:59:09.944Z</time></trkpt><trkpt lat="39.842690808452005" lon="9.31120189945802"><ele>782.0</ele><time>2026-04-28T10:59:10.944Z</time></trkpt><trkpt lat="39.842800900695885" lon="9.311201118973479"><ele>782.0</ele><time>2026-04-28T10:59:11.944Z</time></trkpt><trkpt lat="39.842923724579535" lon="9.311299576316769"><ele>782.0</ele><time>2026-04-28T10:59:12.944Z</time></trkpt><trkpt lat="39.84301036556314" lon="9.311467025488136"><ele>782.0</ele><time>2026-04-28T10:59:13.944Z</time></trkpt><trkpt lat="39.84305820878362" lon="9.311725527981398"><ele>782.0</ele><time>2026-04-28T10:59:14.944Z</time></trkpt><trkpt lat="39.843065527587704" lon="9.312006123495918"><ele>782.0</ele><time>2026-04-28T10:59:15.944Z</time></trkpt><trkpt lat="39.843056666319136" lon="9.312276246244076"><ele>779.5</ele><time>2026-04-28T10:59:16.944Z</time></trkpt><trkpt lat="39.84300347175415" lon="9.312551976240822"><ele>777.0</ele><time>2026-04-28T10:59:17.944Z</time></trkpt><trkpt lat="39.842898019020495" lon="9.312839966354707"><ele>776.0</ele><time>2026-04-28T10:59:18.944Z</time></trkpt><trkpt lat="39.8428109686045" lon="9.313117485632018"><ele>775.0</ele><time>2026-04-28T10:59:19.944Z</time></trkpt><trkpt lat="39.84270583874687" lon="9.313350834084313"><ele>774.0</ele><time>2026-04-28T10:59:20.944Z</time></trkpt><trkpt lat="39.84257712851629" lon="9.313530287673503"><ele>769.0</ele><time>2026-04-28T10:59:21.944Z</time></trkpt><trkpt lat="39.842474769132636" lon="9.31370589799025"><ele>764.0</ele><time>2026-04-28T10:59:22.944Z</time></trkpt><trkpt lat="39.84245261482561" lon="9.313916822210128"><ele>759.0</ele><time>2026-04-28T10:59:23.944Z</time></trkpt><trkpt lat="39.84246644021228" lon="9.314100383161646"><ele>759.0</ele><time>2026-04-28T10:59:24.944Z</time></trkpt><trkpt lat="39.84247645456611" lon="9.314254979025959"><ele>759.0</ele><time>2026-04-28T10:59:25.944Z</time></trkpt><trkpt lat="39.84246498743476" lon="9.314396821627364"><ele>759.0</ele><time>2026-04-28T10:59:26.944Z</time></trkpt><trkpt lat="39.842449382106985" lon="9.314521399685006"><ele>759.0</ele><time>2026-04-28T10:59:27.944Z</time></trkpt><trkpt lat="39.84242677728769" lon="9.314626382460615"><ele>759.0</ele><time>2026-04-28T10:59:28.944Z</time></trkpt><trkpt lat="39.84239957450861" lon="9.314737589354621"><ele>761.6</ele><time>2026-04-28T10:59:29.944Z</time></trkpt><trkpt lat="39.84234554623969" lon="9.3148421652972"><ele>764.2</ele><time>2026-04-28T10:59:30.944Z</time></trkpt><trkpt lat="39.84229025692011" lon="9.31494341704586"><ele>766.8000000000001</ele><time>2026-04-28T10:59:31.944Z</time></trkpt><trkpt lat="39.842232774318575" lon="9.315035494239652"><ele>769.4000000000001</ele><time>2026-04-28T10:59:32.944Z</time></trkpt><trkpt lat="39.84218550851616" lon="9.315131794821259"><ele>772.0</ele><time>2026-04-28T10:59:33.944Z</time></trkpt><trkpt lat="39.84213413362909" lon="9.31522961568435"><ele>772.0</ele><time>2026-04-28T10:59:34.944Z</time></trkpt><trkpt lat="39.842084323021794" lon="9.315322399846101"><ele>772.0</ele><time>2026-04-28T10:59:35.944Z</time></trkpt><trkpt lat="39.84206073724149" lon="9.315439255560232"><ele>772.0</ele><time>2026-04-28T10:59:36.944Z</time></trkpt><trkpt lat="39.842052974528116" lon="9.31555912092947"><ele>772.0</ele><time>2026-04-28T10:59:37.944Z</time></trkpt><trkpt lat="39.84205588182313" lon="9.315675284741456"><ele>772.0</ele><time>2026-04-28T10:59:38.944Z</time></trkpt><trkpt lat="39.84207057833776" lon="9.315792176020535"><ele>775.25</ele><time>2026-04-28T10:59:39.944Z</time></trkpt><trkpt lat="39.84209342238463" lon="9.315908160459712"><ele>778.5</ele><time>2026-04-28T10:59:40.944Z</time></trkpt><trkpt lat="39.84210997684031" lon="9.316027331327176"><ele>781.75</ele><time>2026-04-28T10:59:41.944Z</time></trkpt><trkpt lat="39.84206446961005" lon="9.31624868747674"><ele>785.0</ele><time>2026-04-28T10:59:43.944Z</time></trkpt><trkpt lat="39.84201061321235" lon="9.316345857164354"><ele>786.8</ele><time>2026-04-28T10:59:44.944Z</time></trkpt><trkpt lat="39.8419830799446" lon="9.316457355042923"><ele>788.6</ele><time>2026-04-28T10:59:45.944Z</time></trkpt><trkpt lat="39.84198218023742" lon="9.316588434802103"><ele>790.4000000000001</ele><time>2026-04-28T10:59:46.944Z</time></trkpt><trkpt lat="39.841999660360564" lon="9.316728183448632"><ele>792.2</ele><time>2026-04-28T10:59:47.944Z</time></trkpt><trkpt lat="39.84202312993988" lon="9.316861664071592"><ele>794.0</ele><time>2026-04-28T10:59:48.944Z</time></trkpt><trkpt lat="39.84204974703184" lon="9.316984300983512"><ele>794.0</ele><time>2026-04-28T10:59:49.944Z</time></trkpt><trkpt lat="39.84207772997013" lon="9.317111154248936"><ele>794.0</ele><time>2026-04-28T10:59:50.944Z</time></trkpt><trkpt lat="39.842100374330855" lon="9.317222054468782"><ele>794.0</ele><time>2026-04-28T10:59:51.944Z</time></trkpt><trkpt lat="39.84209351892033" lon="9.317327927434429"><ele>794.0</ele><time>2026-04-28T10:59:52.944Z</time></trkpt><trkpt lat="39.842047373276884" lon="9.31741315464312"><ele>794.0</ele><time>2026-04-28T10:59:53.944Z</time></trkpt><trkpt lat="39.84196091104275" lon="9.317476681112387"><ele>795.4000000000001</ele><time>2026-04-28T10:59:54.944Z</time></trkpt><trkpt lat="39.841882085206166" lon="9.3175321259193"><ele>796.8</ele><time>2026-04-28T10:59:55.944Z</time></trkpt><trkpt lat="39.841801010817484" lon="9.317603616094043"><ele>798.2</ele><time>2026-04-28T10:59:56.944Z</time></trkpt><trkpt lat="39.8417219628389" lon="9.317676298769285"><ele>799.5999999999999</ele><time>2026-04-28T10:59:57.944Z</time></trkpt><trkpt lat="39.84164731527135" lon="9.317750335931901"><ele>801.0</ele><time>2026-04-28T10:59:58.944Z</time></trkpt><trkpt lat="39.841576920180934" lon="9.317839911878103"><ele>800.1999999999999</ele><time>2026-04-28T10:59:59.944Z</time></trkpt><trkpt lat="39.84150651818356" lon="9.317942421142519"><ele>799.4</ele><time>2026-04-28T11:00:00.944Z</time></trkpt><trkpt lat="39.84143377382228" lon="9.318034301720294"><ele>798.6</ele><time>2026-04-28T11:00:01.944Z</time></trkpt><trkpt lat="39.84136386610074" lon="9.318125476834114"><ele>797.8</ele><time>2026-04-28T11:00:02.944Z</time></trkpt><trkpt lat="39.84129218355095" lon="9.318202038729567"><ele>797.0</ele><time>2026-04-28T11:00:03.944Z</time></trkpt><trkpt lat="39.84124007829945" lon="9.318311197469674"><ele>797.0</ele><time>2026-04-28T11:00:04.944Z</time></trkpt><trkpt lat="39.84120474077963" lon="9.318425679298821"><ele>797.0</ele><time>2026-04-28T11:00:05.944Z</time></trkpt><trkpt lat="39.84116266551574" lon="9.31853854227985"><ele>797.0</ele><time>2026-04-28T11:00:06.945Z</time></trkpt><trkpt lat="39.84113501553845" lon="9.318643987909551"><ele>797.0</ele><time>2026-04-28T11:00:07.945Z</time></trkpt><trkpt lat="39.841134934815756" lon="9.318756008020449"><ele>797.0</ele><time>2026-04-28T11:00:08.944Z</time></trkpt><trkpt lat="39.84113273720661" lon="9.318872886086544"><ele>799.3333333333334</ele><time>2026-04-28T11:00:09.944Z</time></trkpt><trkpt lat="39.841129204529906" lon="9.318985276087849"><ele>801.6666666666667</ele><time>2026-04-28T11:00:10.944Z</time></trkpt><trkpt lat="39.841143784012345" lon="9.319104529903962"><ele>804.0</ele><time>2026-04-28T11:00:11.944Z</time></trkpt><trkpt lat="39.84115621881724" lon="9.319227927381435"><ele>806.3333333333333</ele><time>2026-04-28T11:00:12.944Z</time></trkpt><trkpt lat="39.841162635073466" lon="9.319344128346744"><ele>808.6666666666666</ele><time>2026-04-28T11:00:13.944Z</time></trkpt><trkpt lat="39.84114841111713" lon="9.319451911683613"><ele>811.0</ele><time>2026-04-28T11:00:14.944Z</time></trkpt><trkpt lat="39.84111000546208" lon="9.319537081349344"><ele>811.0</ele><time>2026-04-28T11:00:15.944Z</time></trkpt><trkpt lat="39.8410515754952" lon="9.319596912478605"><ele>811.0</ele><time>2026-04-28T11:00:16.944Z</time></trkpt><trkpt lat="39.84099132957875" lon="9.319644866671227"><ele>811.0</ele><time>2026-04-28T11:00:17.944Z</time></trkpt><trkpt lat="39.84093458136927" lon="9.319701879498627"><ele>811.0</ele><time>2026-04-28T11:00:18.944Z</time></trkpt><trkpt lat="39.840898514398695" lon="9.319778449828927"><ele>811.0</ele><time>2026-04-28T11:00:19.944Z</time></trkpt><trkpt lat="39.840879464929635" lon="9.31987767722958"><ele>811.0</ele><time>2026-04-28T11:00:20.944Z</time></trkpt><trkpt lat="39.84085875785038" lon="9.319980847821984"><ele>811.0</ele><time>2026-04-28T11:00:21.944Z</time></trkpt><trkpt lat="39.84082854875689" lon="9.320062841811433"><ele>809.8333333333333</ele><time>2026-04-28T11:00:22.944Z</time></trkpt><trkpt lat="39.8408090842704" lon="9.320161956872887"><ele>808.6666666666666</ele><time>2026-04-28T11:00:23.944Z</time></trkpt><trkpt lat="39.84078118105854" lon="9.320242232467788"><ele>807.5</ele><time>2026-04-28T11:00:24.944Z</time></trkpt><trkpt lat="39.8407235466794" lon="9.32032523555456"><ele>806.3333333333333</ele><time>2026-04-28T11:00:25.944Z</time></trkpt><trkpt lat="39.84068342727432" lon="9.320420529861519"><ele>805.1666666666666</ele><time>2026-04-28T11:00:26.944Z</time></trkpt><trkpt lat="39.840632568229424" lon="9.320497586790935"><ele>804.0</ele><time>2026-04-28T11:00:27.944Z</time></trkpt><trkpt lat="39.84058232196015" lon="9.320571577211243"><ele>804.0</ele><time>2026-04-28T11:00:28.944Z</time></trkpt><trkpt lat="39.840537182587525" lon="9.320644410141455"><ele>804.0</ele><time>2026-04-28T11:00:29.944Z</time></trkpt><trkpt lat="39.84049959712857" lon="9.320729689431914"><ele>804.0</ele><time>2026-04-28T11:00:30.944Z</time></trkpt><trkpt lat="39.84046533599471" lon="9.320815777068857"><ele>804.0</ele><time>2026-04-28T11:00:31.943Z</time></trkpt><trkpt lat="39.840432384783526" lon="9.320906833599249"><ele>804.0</ele><time>2026-04-28T11:00:32.943Z</time></trkpt><trkpt lat="39.840396473554115" lon="9.321007228418297"><ele>804.0</ele><time>2026-04-28T11:00:33.943Z</time></trkpt><trkpt lat="39.84035312818677" lon="9.321093669905137"><ele>804.0</ele><time>2026-04-28T11:00:34.943Z</time></trkpt><trkpt lat="39.84031609088006" lon="9.321185969122556"><ele>804.0</ele><time>2026-04-28T11:00:35.943Z</time></trkpt><trkpt lat="39.84027071207387" lon="9.32127468030744"><ele>804.0</ele><time>2026-04-28T11:00:36.943Z</time></trkpt><trkpt lat="39.840224189654855" lon="9.321376342346364"><ele>804.0</ele><time>2026-04-28T11:00:37.943Z</time></trkpt><trkpt lat="39.840175253502814" lon="9.321464894704995"><ele>804.0</ele><time>2026-04-28T11:00:38.943Z</time></trkpt><trkpt lat="39.84011607982689" lon="9.321547238247668"><ele>804.0</ele><time>2026-04-28T11:00:39.943Z</time></trkpt><trkpt lat="39.840061846233965" lon="9.321620002619314"><ele>802.8333333333334</ele><time>2026-04-28T11:00:40.943Z</time></trkpt><trkpt lat="39.84001825688825" lon="9.321693238843201"><ele>801.6666666666667</ele><time>2026-04-28T11:00:41.943Z</time></trkpt><trkpt lat="39.83999059749958" lon="9.321777459239945"><ele>800.5</ele><time>2026-04-28T11:00:42.943Z</time></trkpt><trkpt lat="39.83996638096337" lon="9.321869921250123"><ele>799.3333333333334</ele><time>2026-04-28T11:00:43.943Z</time></trkpt><trkpt lat="39.839933520803115" lon="9.321981203884718"><ele>798.1666666666667</ele><time>2026-04-28T11:00:44.943Z</time></trkpt><trkpt lat="39.83990878794608" lon="9.322099436571396"><ele>797.0</ele><time>2026-04-28T11:00:45.943Z</time></trkpt><trkpt lat="39.83989297604779" lon="9.322202464925027"><ele>798.1666666666667</ele><time>2026-04-28T11:00:46.943Z</time></trkpt><trkpt lat="39.83986866662132" lon="9.322295588179951"><ele>799.3333333333334</ele><time>2026-04-28T11:00:47.943Z</time></trkpt><trkpt lat="39.83983326381847" lon="9.32240429527109"><ele>800.5</ele><time>2026-04-28T11:00:48.943Z</time></trkpt><trkpt lat="39.83983209847485" lon="9.32250743895814"><ele>801.6666666666667</ele><time>2026-04-28T11:00:49.943Z</time></trkpt><trkpt lat="39.83983176956163" lon="9.322618169837138"><ele>802.8333333333334</ele><time>2026-04-28T11:00:50.943Z</time></trkpt><trkpt lat="39.83982157896869" lon="9.322731590405185"><ele>804.0</ele><time>2026-04-28T11:00:51.943Z</time></trkpt><trkpt lat="39.83981606332658" lon="9.322837666402476"><ele>804.0</ele><time>2026-04-28T11:00:52.943Z</time></trkpt><trkpt lat="39.83980607111233" lon="9.322947013492477"><ele>804.0</ele><time>2026-04-28T11:00:53.943Z</time></trkpt><trkpt lat="39.83980622301" lon="9.323051653963114"><ele>804.0</ele><time>2026-04-28T11:00:54.943Z</time></trkpt><trkpt lat="39.83982237170841" lon="9.323181985452665"><ele>804.0</ele><time>2026-04-28T11:00:55.943Z</time></trkpt><trkpt lat="39.83983911658754" lon="9.32329147305044"><ele>804.0</ele><time>2026-04-28T11:00:56.943Z</time></trkpt><trkpt lat="39.83986730029448" lon="9.32339036802823"><ele>804.0</ele><time>2026-04-28T11:00:57.943Z</time></trkpt><trkpt lat="39.839893852930466" lon="9.323486973675012"><ele>804.5</ele><time>2026-04-28T11:00:58.943Z</time></trkpt><trkpt lat="39.83991465490234" lon="9.32360054917871"><ele>805.0</ele><time>2026-04-28T11:00:59.943Z</time></trkpt><trkpt lat="39.839934213781625" lon="9.323700299533794"><ele>805.5</ele><time>2026-04-28T11:01:00.943Z</time></trkpt><trkpt lat="39.83994371585389" lon="9.323786067315316"><ele>806.0</ele><time>2026-04-28T11:01:01.943Z</time></trkpt><trkpt lat="39.83987956500722" lon="9.323908740515165"><ele>806.5</ele><time>2026-04-28T11:01:03.943Z</time></trkpt><trkpt lat="39.839805754841635" lon="9.32394782682197"><ele>807.0</ele><time>2026-04-28T11:01:04.943Z</time></trkpt><trkpt lat="39.83972966008119" lon="9.323984459321348"><ele>806.3333333333334</ele><time>2026-04-28T11:01:05.943Z</time></trkpt><trkpt lat="39.839659705492956" lon="9.32402482132324"><ele>805.6666666666667</ele><time>2026-04-28T11:01:06.943Z</time></trkpt><trkpt lat="39.83958595458835" lon="9.32404385425481"><ele>805.0</ele><time>2026-04-28T11:01:07.943Z</time></trkpt><trkpt lat="39.83951439037752" lon="9.324072572600421"><ele>804.3333333333334</ele><time>2026-04-28T11:01:08.943Z</time></trkpt><trkpt lat="39.83945006115135" lon="9.324078328140976"><ele>803.6666666666667</ele><time>2026-04-28T11:01:09.943Z</time></trkpt><trkpt lat="39.83936895791778" lon="9.324047369203742"><ele>803.0</ele><time>2026-04-28T11:01:10.943Z</time></trkpt><trkpt lat="39.83929545187537" lon="9.324023027553581"><ele>803.0000000000001</ele><time>2026-04-28T11:01:11.943Z</time></trkpt><trkpt lat="39.83921040890188" lon="9.324014659199381"><ele>803.0</ele><time>2026-04-28T11:01:12.943Z</time></trkpt><trkpt lat="39.83913210598295" lon="9.324012816143949"><ele>803.0</ele><time>2026-04-28T11:01:13.943Z</time></trkpt><trkpt lat="39.83905007262967" lon="9.324044787460025"><ele>803.0</ele><time>2026-04-28T11:01:14.943Z</time></trkpt><trkpt lat="39.838986801638434" lon="9.324092131818103"><ele>803.0000000000001</ele><time>2026-04-28T11:01:15.943Z</time></trkpt><trkpt lat="39.83893314439109" lon="9.324187511533486"><ele>803.0</ele><time>2026-04-28T11:01:16.943Z</time></trkpt><trkpt lat="39.8388829659096" lon="9.324294359784977"><ele>803.0</ele><time>2026-04-28T11:01:17.943Z</time></trkpt><trkpt lat="39.83883320685612" lon="9.324393152851401"><ele>803.0</ele><time>2026-04-28T11:01:18.943Z</time></trkpt><trkpt lat="39.83877682311305" lon="9.324486321100693"><ele>803.0</ele><time>2026-04-28T11:01:19.943Z</time></trkpt><trkpt lat="39.83870581283083" lon="9.324561186990735"><ele>803.0</ele><time>2026-04-28T11:01:20.943Z</time></trkpt><trkpt lat="39.838629749588556" lon="9.324589827712197"><ele>803.0</ele><time>2026-04-28T11:01:21.943Z</time></trkpt><trkpt lat="39.83852669601777" lon="9.324564142692411"><ele>799.4</ele><time>2026-04-28T11:01:22.943Z</time></trkpt><trkpt lat="39.838426426337676" lon="9.324567307392986"><ele>795.8</ele><time>2026-04-28T11:01:23.943Z</time></trkpt><trkpt lat="39.83832686834584" lon="9.324585228916082"><ele>792.2</ele><time>2026-04-28T11:01:24.943Z</time></trkpt><trkpt lat="39.83823139050843" lon="9.324613494691242"><ele>788.6</ele><time>2026-04-28T11:01:25.943Z</time></trkpt><trkpt lat="39.838129488636284" lon="9.32463939968932"><ele>785.0</ele><time>2026-04-28T11:01:26.943Z</time></trkpt><trkpt lat="39.83802000000468" lon="9.324672917435615"><ele>785.0</ele><time>2026-04-28T11:01:27.943Z</time></trkpt><trkpt lat="39.83791913960172" lon="9.324707300464933"><ele>785.0</ele><time>2026-04-28T11:01:28.943Z</time></trkpt><trkpt lat="39.8378192176459" lon="9.324746835021926"><ele>785.0</ele><time>2026-04-28T11:01:29.943Z</time></trkpt><trkpt lat="39.83772465402848" lon="9.324794204121739"><ele>785.0</ele><time>2026-04-28T11:01:30.943Z</time></trkpt><trkpt lat="39.83763673108846" lon="9.324857058848458"><ele>785.0</ele><time>2026-04-28T11:01:31.943Z</time></trkpt><trkpt lat="39.83755449864653" lon="9.324912909087589"><ele>787.4</ele><time>2026-04-28T11:01:32.943Z</time></trkpt><trkpt lat="39.83747853288146" lon="9.324975901636634"><ele>789.8</ele><time>2026-04-28T11:01:33.943Z</time></trkpt><trkpt lat="39.83739386380126" lon="9.325062087837194"><ele>792.2</ele><time>2026-04-28T11:01:34.943Z</time></trkpt><trkpt lat="39.837298453191856" lon="9.325135402948037"><ele>794.6</ele><time>2026-04-28T11:01:35.943Z</time></trkpt><trkpt lat="39.83721714073161" lon="9.32522001304967"><ele>797.0</ele><time>2026-04-28T11:01:36.943Z</time></trkpt><trkpt lat="39.837129033059114" lon="9.325296825731634"><ele>797.0</ele><time>2026-04-28T11:01:37.942Z</time></trkpt><trkpt lat="39.8370515370902" lon="9.3253860534449"><ele>797.0</ele><time>2026-04-28T11:01:38.942Z</time></trkpt><trkpt lat="39.83697814257558" lon="9.325471927939784"><ele>797.0</ele><time>2026-04-28T11:01:39.942Z</time></trkpt><trkpt lat="39.83690018193083" lon="9.325554507140597"><ele>797.0</ele><time>2026-04-28T11:01:40.942Z</time></trkpt><trkpt lat="39.83682275268883" lon="9.325635511566082"><ele>797.0</ele><time>2026-04-28T11:01:41.942Z</time></trkpt><trkpt lat="39.836746799658656" lon="9.325710376510276"><ele>797.4000000000001</ele><time>2026-04-28T11:01:42.942Z</time></trkpt><trkpt lat="39.83666951750473" lon="9.325782739790412"><ele>797.8000000000001</ele><time>2026-04-28T11:01:43.942Z</time></trkpt><trkpt lat="39.836586073331176" lon="9.325847491455157"><ele>798.2</ele><time>2026-04-28T11:01:44.942Z</time></trkpt><trkpt lat="39.836499679443435" lon="9.325915219444077"><ele>798.6</ele><time>2026-04-28T11:01:45.942Z</time></trkpt><trkpt lat="39.83641207350324" lon="9.325983937099705"><ele>799.0</ele><time>2026-04-28T11:01:46.942Z</time></trkpt><trkpt lat="39.836333155702356" lon="9.326060455463821"><ele>799.0</ele><time>2026-04-28T11:01:47.942Z</time></trkpt><trkpt lat="39.83625670916276" lon="9.326149560859454"><ele>799.0</ele><time>2026-04-28T11:01:48.942Z</time></trkpt><trkpt lat="39.83617794221369" lon="9.326249122755755"><ele>799.0</ele><time>2026-04-28T11:01:49.942Z</time></trkpt><trkpt lat="39.83610607919836" lon="9.32634768116514"><ele>799.0</ele><time>2026-04-28T11:01:50.942Z</time></trkpt><trkpt lat="39.836038268883534" lon="9.326440705078415"><ele>799.0</ele><time>2026-04-28T11:01:51.942Z</time></trkpt><trkpt lat="39.835963502798215" lon="9.326535783931012"><ele>797.8000000000001</ele><time>2026-04-28T11:01:52.942Z</time></trkpt><trkpt lat="39.83588774313451" lon="9.326616192329489"><ele>796.6</ele><time>2026-04-28T11:01:53.942Z</time></trkpt><trkpt lat="39.83580977296915" lon="9.326708217390363"><ele>795.4</ele><time>2026-04-28T11:01:54.942Z</time></trkpt><trkpt lat="39.83573366682131" lon="9.32679342908017"><ele>794.2</ele><time>2026-04-28T11:01:55.942Z</time></trkpt><trkpt lat="39.835645737917616" lon="9.326864195984935"><ele>793.0</ele><time>2026-04-28T11:01:56.942Z</time></trkpt><trkpt lat="39.83556907355025" lon="9.326930582568917"><ele>793.0</ele><time>2026-04-28T11:01:57.942Z</time></trkpt><trkpt lat="39.83548542051104" lon="9.326992197147717"><ele>793.0</ele><time>2026-04-28T11:01:58.942Z</time></trkpt><trkpt lat="39.83539621378167" lon="9.327049973126499"><ele>793.0</ele><time>2026-04-28T11:01:59.942Z</time></trkpt><trkpt lat="39.83530819629588" lon="9.327103406236834"><ele>793.0</ele><time>2026-04-28T11:02:00.942Z</time></trkpt><trkpt lat="39.83522563683439" lon="9.327156620726695"><ele>793.0</ele><time>2026-04-28T11:02:01.942Z</time></trkpt><trkpt lat="39.83513989941679" lon="9.327204004947829"><ele>792.8</ele><time>2026-04-28T11:02:02.942Z</time></trkpt><trkpt lat="39.8350528676224" lon="9.327250285043936"><ele>792.5999999999999</ele><time>2026-04-28T11:02:03.942Z</time></trkpt><trkpt lat="39.8349582019119" lon="9.327286435784975"><ele>792.4000000000001</ele><time>2026-04-28T11:02:04.942Z</time></trkpt><trkpt lat="39.83488059014792" lon="9.32734393294963"><ele>792.2</ele><time>2026-04-28T11:02:05.942Z</time></trkpt><trkpt lat="39.834809425046515" lon="9.327489553674697"><ele>792.0</ele><time>2026-04-28T11:02:07.942Z</time></trkpt><trkpt lat="39.83472864272127" lon="9.32759892738017"><ele>792.0</ele><time>2026-04-28T11:03:30.942Z</time></trkpt><trkpt lat="39.834663200927274" lon="9.327600826339674"><ele>792.0</ele><time>2026-04-28T11:03:32.942Z</time></trkpt><trkpt lat="39.83457303764901" lon="9.32756732834125"><ele>792.0</ele><time>2026-04-28T11:03:34.942Z</time></trkpt><trkpt lat="39.83446030906614" lon="9.327570094458517"><ele>792.0</ele><time>2026-04-28T11:03:36.942Z</time></trkpt><trkpt lat="39.83435420429032" lon="9.327612169514623"><ele>792.0</ele><time>2026-04-28T11:03:38.942Z</time></trkpt><trkpt lat="39.83425253196309" lon="9.327659613428434"><ele>790.6666666666666</ele><time>2026-04-28T11:03:40.942Z</time></trkpt><trkpt lat="39.834161051592105" lon="9.327723289747505"><ele>789.3333333333333</ele><time>2026-04-28T11:03:42.942Z</time></trkpt><trkpt lat="39.83410012007998" lon="9.327759288387378"><ele>788.0</ele><time>2026-04-28T11:03:43.942Z</time></trkpt><trkpt lat="39.8340350308569" lon="9.327796595852616"><ele>786.6666666666666</ele><time>2026-04-28T11:03:44.942Z</time></trkpt><trkpt lat="39.83398070845765" lon="9.327856443945826"><ele>785.3333333333333</ele><time>2026-04-28T11:03:45.942Z</time></trkpt><trkpt lat="39.83394982419585" lon="9.327935867323998"><ele>784.0</ele><time>2026-04-28T11:03:46.942Z</time></trkpt><trkpt lat="39.83394273786074" lon="9.32803508961924"><ele>784.4999999999999</ele><time>2026-04-28T11:03:47.942Z</time></trkpt><trkpt lat="39.83395184722973" lon="9.328134978996607"><ele>785.0</ele><time>2026-04-28T11:03:48.942Z</time></trkpt><trkpt lat="39.83397393328031" lon="9.328242324135065"><ele>785.5</ele><time>2026-04-28T11:03:49.942Z</time></trkpt><trkpt lat="39.83402816587906" lon="9.328335377300133"><ele>786.0</ele><time>2026-04-28T11:03:50.942Z</time></trkpt><trkpt lat="39.834097806460974" lon="9.328429016068267"><ele>786.4999999999999</ele><time>2026-04-28T11:03:51.942Z</time></trkpt><trkpt lat="39.834170529857175" lon="9.32851267042216"><ele>787.0</ele><time>2026-04-28T11:03:52.942Z</time></trkpt><trkpt lat="39.834253007040225" lon="9.328572585650784"><ele>788.4000000000001</ele><time>2026-04-28T11:03:53.942Z</time></trkpt><trkpt lat="39.834352903217095" lon="9.328601348365023"><ele>789.8000000000001</ele><time>2026-04-28T11:03:54.942Z</time></trkpt><trkpt lat="39.83445751276032" lon="9.328608551711374"><ele>791.2</ele><time>2026-04-28T11:03:55.942Z</time></trkpt><trkpt lat="39.83456403769405" lon="9.328619754547024"><ele>792.6</ele><time>2026-04-28T11:03:56.942Z</time></trkpt><trkpt lat="39.83465465970237" lon="9.328640290541937"><ele>794.0</ele><time>2026-04-28T11:03:57.942Z</time></trkpt><trkpt lat="39.83473977495143" lon="9.328680817807752"><ele>794.0</ele><time>2026-04-28T11:03:58.942Z</time></trkpt><trkpt lat="39.834795856505394" lon="9.32876987410166"><ele>794.0</ele><time>2026-04-28T11:03:59.942Z</time></trkpt><trkpt lat="39.834812933455524" lon="9.32889562243768"><ele>794.0</ele><time>2026-04-28T11:04:00.942Z</time></trkpt><trkpt lat="39.83479032043355" lon="9.329026143406153"><ele>794.0</ele><time>2026-04-28T11:04:01.942Z</time></trkpt><trkpt lat="39.83477057802967" lon="9.329158535809439"><ele>794.0</ele><time>2026-04-28T11:04:02.942Z</time></trkpt><trkpt lat="39.83476352962946" lon="9.329291698855416"><ele>792.4000000000001</ele><time>2026-04-28T11:04:03.942Z</time></trkpt><trkpt lat="39.83476988913027" lon="9.329424395986837"><ele>790.8</ele><time>2026-04-28T11:04:04.942Z</time></trkpt><trkpt lat="39.83480003850232" lon="9.329550560015733"><ele>789.2</ele><time>2026-04-28T11:04:05.942Z</time></trkpt><trkpt lat="39.83485583417569" lon="9.329662204451756"><ele>787.5999999999999</ele><time>2026-04-28T11:04:06.942Z</time></trkpt><trkpt lat="39.83493307376041" lon="9.329753431380738"><ele>786.0</ele><time>2026-04-28T11:04:07.942Z</time></trkpt><trkpt lat="39.8350173430008" lon="9.329844227433073"><ele>783.0</ele><time>2026-04-28T11:04:08.942Z</time></trkpt><trkpt lat="39.83508468009797" lon="9.329944542557387"><ele>780.0</ele><time>2026-04-28T11:04:09.942Z</time></trkpt><trkpt lat="39.835139014354674" lon="9.330052995816537"><ele>777.0</ele><time>2026-04-28T11:04:10.942Z</time></trkpt><trkpt lat="39.83518870767577" lon="9.330154314634171"><ele>774.0</ele><time>2026-04-28T11:04:11.942Z</time></trkpt><trkpt lat="39.83523203984281" lon="9.330247635349872"><ele>771.0</ele><time>2026-04-28T11:04:12.942Z</time></trkpt><trkpt lat="39.83522543603808" lon="9.33035422118266"><ele>771.0</ele><time>2026-04-28T11:04:13.942Z</time></trkpt><trkpt lat="39.83516949916865" lon="9.330444958818244"><ele>771.0</ele><time>2026-04-28T11:04:14.942Z</time></trkpt><trkpt lat="39.83507961034025" lon="9.330508277524707"><ele>771.0</ele><time>2026-04-28T11:04:15.943Z</time></trkpt><trkpt lat="39.834991351155026" lon="9.330569262724378"><ele>771.0</ele><time>2026-04-28T11:04:16.942Z</time></trkpt><trkpt lat="39.83489858297512" lon="9.330633989049897"><ele>771.0</ele><time>2026-04-28T11:04:17.942Z</time></trkpt><trkpt lat="39.8348083993932" lon="9.330705882878064"><ele>771.75</ele><time>2026-04-28T11:04:18.943Z</time></trkpt><trkpt lat="39.83470393255383" lon="9.330777192872244"><ele>772.5</ele><time>2026-04-28T11:04:19.943Z</time></trkpt><trkpt lat="39.834604982925555" lon="9.33084790681677"><ele>773.25</ele><time>2026-04-28T11:04:20.943Z</time></trkpt><trkpt lat="39.834506697467624" lon="9.33091703812919"><ele>774.0</ele><time>2026-04-28T11:04:21.942Z</time></trkpt><trkpt lat="39.83440857498446" lon="9.330997545233712"><ele>768.25</ele><time>2026-04-28T11:04:22.943Z</time></trkpt><trkpt lat="39.83430269946014" lon="9.33106766169917"><ele>762.5</ele><time>2026-04-28T11:04:23.943Z</time></trkpt><trkpt lat="39.83419743672024" lon="9.331134639851541"><ele>756.75</ele><time>2026-04-28T11:04:24.943Z</time></trkpt><trkpt lat="39.83408854384948" lon="9.331195318945914"><ele>751.0</ele><time>2026-04-28T11:04:25.942Z</time></trkpt><trkpt lat="39.833983250822364" lon="9.331253171358126"><ele>751.0</ele><time>2026-04-28T11:04:26.942Z</time></trkpt><trkpt lat="39.833884292847564" lon="9.331311613689023"><ele>751.0</ele><time>2026-04-28T11:04:27.942Z</time></trkpt><trkpt lat="39.83379479918673" lon="9.33138592371778"><ele>751.0</ele><time>2026-04-28T11:04:28.942Z</time></trkpt><trkpt lat="39.83371285808149" lon="9.331472101730443"><ele>751.0</ele><time>2026-04-28T11:04:29.942Z</time></trkpt><trkpt lat="39.83364456564404" lon="9.331570830749627"><ele>751.0</ele><time>2026-04-28T11:04:30.942Z</time></trkpt><trkpt lat="39.83358068226202" lon="9.331671666389678"><ele>750.4</ele><time>2026-04-28T11:04:31.942Z</time></trkpt><trkpt lat="39.83351491134256" lon="9.331767077044628"><ele>749.8</ele><time>2026-04-28T11:04:32.942Z</time></trkpt><trkpt lat="39.833449110419224" lon="9.331856064452893"><ele>749.1999999999999</ele><time>2026-04-28T11:04:33.942Z</time></trkpt><trkpt lat="39.83338207268971" lon="9.331936982179792"><ele>748.5999999999999</ele><time>2026-04-28T11:04:34.942Z</time></trkpt><trkpt lat="39.83330675892004" lon="9.331999161185422"><ele>748.0</ele><time>2026-04-28T11:04:35.942Z</time></trkpt><trkpt lat="39.83322912060068" lon="9.332056677172822"><ele>748.0</ele><time>2026-04-28T11:04:36.942Z</time></trkpt><trkpt lat="39.833151346272835" lon="9.332104196145796"><ele>748.0</ele><time>2026-04-28T11:04:37.942Z</time></trkpt><trkpt lat="39.833079224608724" lon="9.332158142110545"><ele>748.0</ele><time>2026-04-28T11:04:38.942Z</time></trkpt><trkpt lat="39.83300744410678" lon="9.33221353357786"><ele>748.0</ele><time>2026-04-28T11:04:39.942Z</time></trkpt><trkpt lat="39.83294004358087" lon="9.332271406646242"><ele>748.0</ele><time>2026-04-28T11:04:40.942Z</time></trkpt><trkpt lat="39.832868039674786" lon="9.332330777249974"><ele>748.0</ele><time>2026-04-28T11:04:41.942Z</time></trkpt><trkpt lat="39.83278879234742" lon="9.332390293280595"><ele>747.0</ele><time>2026-04-28T11:04:42.942Z</time></trkpt><trkpt lat="39.83272176255398" lon="9.332458887561593"><ele>746.0</ele><time>2026-04-28T11:04:43.942Z</time></trkpt><trkpt lat="39.83265298835048" lon="9.332530143567876"><ele>745.0</ele><time>2026-04-28T11:04:44.942Z</time></trkpt><trkpt lat="39.83258584712463" lon="9.332595330580975"><ele>744.0</ele><time>2026-04-28T11:04:45.942Z</time></trkpt><trkpt lat="39.832519479137034" lon="9.332656267222845"><ele>743.0</ele><time>2026-04-28T11:04:46.942Z</time></trkpt><trkpt lat="39.832458871663945" lon="9.332723769801365"><ele>742.0</ele><time>2026-04-28T11:04:47.942Z</time></trkpt><trkpt lat="39.832410656045774" lon="9.332784513376398"><ele>742.0</ele><time>2026-04-28T11:04:48.942Z</time></trkpt><trkpt lat="39.83233902348848" lon="9.332899974185096"><ele>742.0</ele><time>2026-04-28T11:04:50.942Z</time></trkpt><trkpt lat="39.8322727667512" lon="9.333038441815846"><ele>742.0</ele><time>2026-04-28T11:04:52.942Z</time></trkpt><trkpt lat="39.83224863050341" lon="9.333129115519931"><ele>742.0</ele><time>2026-04-28T11:04:53.942Z</time></trkpt><trkpt lat="39.83224134733468" lon="9.333251266074866"><ele>742.0</ele><time>2026-04-28T11:04:54.942Z</time></trkpt><trkpt lat="39.83225535444896" lon="9.333397929972381"><ele>744.0</ele><time>2026-04-28T11:04:55.942Z</time></trkpt><trkpt lat="39.83229084721296" lon="9.333553856914609"><ele>746.0</ele><time>2026-04-28T11:04:56.942Z</time></trkpt><trkpt lat="39.83233727372316" lon="9.333718617788918"><ele>748.0</ele><time>2026-04-28T11:04:57.942Z</time></trkpt><trkpt lat="39.8323752137955" lon="9.333894565136507"><ele>750.0</ele><time>2026-04-28T11:04:58.942Z</time></trkpt><trkpt lat="39.83240476973079" lon="9.334067305623217"><ele>750.0</ele><time>2026-04-28T11:04:59.942Z</time></trkpt><trkpt lat="39.83239731237702" lon="9.334235445813867"><ele>750.0</ele><time>2026-04-28T11:05:00.942Z</time></trkpt><trkpt lat="39.83234161565026" lon="9.334390442366493"><ele>750.0</ele><time>2026-04-28T11:05:01.942Z</time></trkpt><trkpt lat="39.8322415742075" lon="9.334499004096145"><ele>750.0</ele><time>2026-04-28T11:05:02.942Z</time></trkpt><trkpt lat="39.83211339433043" lon="9.33456792052614"><ele>750.0</ele><time>2026-04-28T11:05:03.942Z</time></trkpt><trkpt lat="39.83197189648619" lon="9.334631680444414"><ele>750.0</ele><time>2026-04-28T11:05:04.942Z</time></trkpt><trkpt lat="39.83183298294304" lon="9.334726947306121"><ele>750.0</ele><time>2026-04-28T11:05:05.942Z</time></trkpt><trkpt lat="39.831703421044075" lon="9.334828721555295"><ele>744.6666666666666</ele><time>2026-04-28T11:05:06.942Z</time></trkpt><trkpt lat="39.831602655134155" lon="9.334985202216892"><ele>739.3333333333333</ele><time>2026-04-28T11:05:07.942Z</time></trkpt><trkpt lat="39.831506547700926" lon="9.33515782655031"><ele>734.0</ele><time>2026-04-28T11:05:08.942Z</time></trkpt><trkpt lat="39.83141086142905" lon="9.335337311089646"><ele>734.0</ele><time>2026-04-28T11:05:09.942Z</time></trkpt><trkpt lat="39.831313887819924" lon="9.335521643590063"><ele>734.0</ele><time>2026-04-28T11:05:10.942Z</time></trkpt><trkpt lat="39.831232541325775" lon="9.335702756268658"><ele>734.0</ele><time>2026-04-28T11:05:11.942Z</time></trkpt><trkpt lat="39.83120211445876" lon="9.335898089688305"><ele>737.6666666666666</ele><time>2026-04-28T11:05:12.942Z</time></trkpt><trkpt lat="39.83122949424026" lon="9.336125258725767"><ele>741.3333333333334</ele><time>2026-04-28T11:05:13.942Z</time></trkpt><trkpt lat="39.83126980322387" lon="9.336361937580207"><ele>745.0</ele><time>2026-04-28T11:05:14.941Z</time></trkpt><trkpt lat="39.83128808442416" lon="9.336581001796514"><ele>745.0</ele><time>2026-04-28T11:05:15.941Z</time></trkpt><trkpt lat="39.83125667253414" lon="9.336809529163988"><ele>745.0</ele><time>2026-04-28T11:05:16.941Z</time></trkpt><trkpt lat="39.83120853744411" lon="9.33704434962211"><ele>745.0</ele><time>2026-04-28T11:05:17.941Z</time></trkpt><trkpt lat="39.83118806914042" lon="9.337282509589997"><ele>740.0</ele><time>2026-04-28T11:05:18.941Z</time></trkpt><trkpt lat="39.83120571475719" lon="9.337528843954633"><ele>735.0</ele><time>2026-04-28T11:05:19.941Z</time></trkpt><trkpt lat="39.83127026986593" lon="9.337762677719228"><ele>730.0</ele><time>2026-04-28T11:05:20.941Z</time></trkpt><trkpt lat="39.83138276102401" lon="9.337957941041633"><ele>723.0</ele><time>2026-04-28T11:05:21.941Z</time></trkpt><trkpt lat="39.831519064458696" lon="9.338114972905803"><ele>716.0</ele><time>2026-04-28T11:05:22.941Z</time></trkpt><trkpt lat="39.83166522645792" lon="9.338208916739353"><ele>709.0</ele><time>2026-04-28T11:05:23.941Z</time></trkpt><trkpt lat="39.831826692368104" lon="9.338220280218403"><ele>707.3333333333334</ele><time>2026-04-28T11:05:24.941Z</time></trkpt><trkpt lat="39.83200039863571" lon="9.338165497518412"><ele>705.6666666666666</ele><time>2026-04-28T11:05:25.941Z</time></trkpt><trkpt lat="39.83218056211173" lon="9.338074899612725"><ele>704.0</ele><time>2026-04-28T11:05:26.941Z</time></trkpt><trkpt lat="39.83234747973227" lon="9.337983560170633"><ele>713.0</ele><time>2026-04-28T11:05:27.941Z</time></trkpt><trkpt lat="39.83250165974952" lon="9.337898612751129"><ele>722.0</ele><time>2026-04-28T11:05:28.941Z</time></trkpt><trkpt lat="39.83265921279599" lon="9.337890370908172"><ele>731.0</ele><time>2026-04-28T11:05:29.941Z</time></trkpt><trkpt lat="39.83282555572103" lon="9.337945409825275"><ele>733.0</ele><time>2026-04-28T11:05:30.941Z</time></trkpt><trkpt lat="39.83299081519124" lon="9.338021811342376"><ele>735.0</ele><time>2026-04-28T11:05:31.941Z</time></trkpt><trkpt lat="39.83312363331685" lon="9.338078785121828"><ele>737.0</ele><time>2026-04-28T11:05:32.941Z</time></trkpt><trkpt lat="39.83321844409997" lon="9.338146845732147"><ele>739.0</ele><time>2026-04-28T11:05:33.941Z</time></trkpt><trkpt lat="39.833255482000354" lon="9.338261937667042"><ele>733.75</ele><time>2026-04-28T11:05:34.941Z</time></trkpt><trkpt lat="39.833226148728876" lon="9.33837147479784"><ele>728.5</ele><time>2026-04-28T11:05:35.941Z</time></trkpt><trkpt lat="39.83312549931956" lon="9.338439036897256"><ele>723.25</ele><time>2026-04-28T11:05:36.941Z</time></trkpt><trkpt lat="39.832984637142474" lon="9.338481005353088"><ele>718.0</ele><time>2026-04-28T11:05:37.941Z</time></trkpt><trkpt lat="39.83284679879968" lon="9.338573124133163"><ele>718.0</ele><time>2026-04-28T11:05:38.941Z</time></trkpt><trkpt lat="39.832721258258104" lon="9.338724390210743"><ele>718.0</ele><time>2026-04-28T11:05:39.941Z</time></trkpt><trkpt lat="39.83260856719671" lon="9.338910736925516"><ele>718.0</ele><time>2026-04-28T11:05:40.941Z</time></trkpt><trkpt lat="39.832503090975734" lon="9.339120867171445"><ele>716.0</ele><time>2026-04-28T11:05:41.941Z</time></trkpt><trkpt lat="39.83240707624886" lon="9.339348572350296"><ele>714.0</ele><time>2026-04-28T11:05:42.941Z</time></trkpt><trkpt lat="39.83230835209237" lon="9.339565971298537"><ele>712.0</ele><time>2026-04-28T11:05:43.941Z</time></trkpt><trkpt lat="39.83219912783028" lon="9.339755858988035"><ele>712.0</ele><time>2026-04-28T11:05:44.941Z</time></trkpt><trkpt lat="39.83210229943271" lon="9.339924147858472"><ele>712.0</ele><time>2026-04-28T11:05:45.941Z</time></trkpt><trkpt lat="39.8320553359375" lon="9.340097633435386"><ele>712.0</ele><time>2026-04-28T11:05:46.941Z</time></trkpt><trkpt lat="39.83208802880703" lon="9.340303892242993"><ele>712.0</ele><time>2026-04-28T11:05:47.941Z</time></trkpt><trkpt lat="39.83216179902533" lon="9.340523095657943"><ele>712.0</ele><time>2026-04-28T11:05:48.941Z</time></trkpt><trkpt lat="39.832226095935816" lon="9.340750635062147"><ele>712.0</ele><time>2026-04-28T11:05:49.941Z</time></trkpt><trkpt lat="39.83226381396047" lon="9.340996424494211"><ele>711.0</ele><time>2026-04-28T11:05:50.941Z</time></trkpt><trkpt lat="39.83228027135678" lon="9.341221492118299"><ele>710.0</ele><time>2026-04-28T11:05:51.941Z</time></trkpt><trkpt lat="39.832316366652535" lon="9.341390441702753"><ele>709.0</ele><time>2026-04-28T11:05:52.941Z</time></trkpt><trkpt lat="39.83241147770331" lon="9.341510783952474"><ele>708.0</ele><time>2026-04-28T11:05:53.941Z</time></trkpt><trkpt lat="39.83256521675625" lon="9.34157991811642"><ele>710.6666666666666</ele><time>2026-04-28T11:05:54.941Z</time></trkpt><trkpt lat="39.832737089528734" lon="9.34166408975021"><ele>713.3333333333333</ele><time>2026-04-28T11:05:55.941Z</time></trkpt><trkpt lat="39.83288414592272" lon="9.341816212253933"><ele>716.0</ele><time>2026-04-28T11:05:56.941Z</time></trkpt><trkpt lat="39.833028180086366" lon="9.34199739031157"><ele>716.0</ele><time>2026-04-28T11:05:57.941Z</time></trkpt><trkpt lat="39.83315987703562" lon="9.342195386303155"><ele>716.0</ele><time>2026-04-28T11:05:58.941Z</time></trkpt><trkpt lat="39.833285579756115" lon="9.34240062259171"><ele>716.0</ele><time>2026-04-28T11:05:59.941Z</time></trkpt><trkpt lat="39.83339106667436" lon="9.34263675251869"><ele>711.3333333333333</ele><time>2026-04-28T11:06:00.941Z</time></trkpt><trkpt lat="39.83348887652049" lon="9.342870730225886"><ele>706.6666666666666</ele><time>2026-04-28T11:06:01.941Z</time></trkpt><trkpt lat="39.83363237933515" lon="9.343050041807897"><ele>702.0</ele><time>2026-04-28T11:06:02.941Z</time></trkpt><trkpt lat="39.83378210305578" lon="9.34321700673217"><ele>702.0</ele><time>2026-04-28T11:06:03.941Z</time></trkpt><trkpt lat="39.8339050192766" lon="9.343384969104472"><ele>702.0</ele><time>2026-04-28T11:06:04.941Z</time></trkpt><trkpt lat="39.83398881998262" lon="9.343529339841083"><ele>702.0</ele><time>2026-04-28T11:06:05.941Z</time></trkpt><trkpt lat="39.834001089827765" lon="9.343673779572365"><ele>702.0</ele><time>2026-04-28T11:06:06.941Z</time></trkpt><trkpt lat="39.83394313486701" lon="9.34381657348108"><ele>702.0</ele><time>2026-04-28T11:06:07.941Z</time></trkpt><trkpt lat="39.83386487103788" lon="9.34392642310874"><ele>702.0</ele><time>2026-04-28T11:06:08.941Z</time></trkpt><trkpt lat="39.833769427068034" lon="9.343935334434219"><ele>702.0</ele><time>2026-04-28T11:06:09.941Z</time></trkpt><trkpt lat="39.8336708006089" lon="9.343849771154746"><ele>702.0</ele><time>2026-04-28T11:06:10.941Z</time></trkpt><trkpt lat="39.833580964700644" lon="9.343712131295858"><ele>695.3333333333334</ele><time>2026-04-28T11:06:11.941Z</time></trkpt><trkpt lat="39.833465293996966" lon="9.343573360756771"><ele>688.6666666666667</ele><time>2026-04-28T11:06:12.941Z</time></trkpt><trkpt lat="39.83334120484752" lon="9.343464312926072"><ele>682.0</ele><time>2026-04-28T11:06:13.941Z</time></trkpt><trkpt lat="39.83319529883693" lon="9.34339472183414"><ele>682.0</ele><time>2026-04-28T11:06:14.941Z</time></trkpt><trkpt lat="39.8330582960653" lon="9.343291011615587"><ele>682.0</ele><time>2026-04-28T11:06:15.941Z</time></trkpt><trkpt lat="39.83292279602315" lon="9.343126626384795"><ele>682.0</ele><time>2026-04-28T11:06:16.941Z</time></trkpt><trkpt lat="39.832769892546416" lon="9.342990908972231"><ele>681.0</ele><time>2026-04-28T11:06:17.941Z</time></trkpt><trkpt lat="39.83258879764509" lon="9.342875244031621"><ele>680.0</ele><time>2026-04-28T11:06:18.941Z</time></trkpt><trkpt lat="39.83242277692344" lon="9.342775288589225"><ele>679.0</ele><time>2026-04-28T11:06:19.941Z</time></trkpt><trkpt lat="39.83224627585067" lon="9.342688873548067"><ele>679.0</ele><time>2026-04-28T11:06:20.941Z</time></trkpt><trkpt lat="39.83205716523016" lon="9.342630225866534"><ele>679.0</ele><time>2026-04-28T11:06:21.942Z</time></trkpt><trkpt lat="39.83187237560436" lon="9.34255265180484"><ele>679.0</ele><time>2026-04-28T11:06:22.942Z</time></trkpt><trkpt lat="39.83170219754612" lon="9.342435923022"><ele>679.3333333333334</ele><time>2026-04-28T11:06:23.942Z</time></trkpt><trkpt lat="39.83154158878441" lon="9.342300186573494"><ele>679.6666666666666</ele><time>2026-04-28T11:06:24.942Z</time></trkpt><trkpt lat="39.83138969994503" lon="9.342144807226767"><ele>680.0</ele><time>2026-04-28T11:06:25.942Z</time></trkpt><trkpt lat="39.831256565842565" lon="9.341948317833976"><ele>680.0</ele><time>2026-04-28T11:06:26.942Z</time></trkpt><trkpt lat="39.831122401470346" lon="9.341760132796255"><ele>680.0</ele><time>2026-04-28T11:06:27.942Z</time></trkpt><trkpt lat="39.83095893435569" lon="9.341594380244084"><ele>680.0</ele><time>2026-04-28T11:06:28.942Z</time></trkpt><trkpt lat="39.830780692775434" lon="9.341458727246064"><ele>680.6666666666666</ele><time>2026-04-28T11:06:29.942Z</time></trkpt><trkpt lat="39.83058517703601" lon="9.34134608529957"><ele>681.3333333333334</ele><time>2026-04-28T11:06:30.942Z</time></trkpt><trkpt lat="39.83040198056881" lon="9.341221739319803"><ele>682.0</ele><time>2026-04-28T11:06:31.941Z</time></trkpt><trkpt lat="39.8302403456252" lon="9.341113810883144"><ele>690.3333333333334</ele><time>2026-04-28T11:06:32.941Z</time></trkpt><trkpt lat="39.83011958501349" lon="9.340974384736302"><ele>698.6666666666666</ele><time>2026-04-28T11:06:33.941Z</time></trkpt><trkpt lat="39.83004906296505" lon="9.34077914235132"><ele>707.0</ele><time>2026-04-28T11:06:34.942Z</time></trkpt><trkpt lat="39.829988012923565" lon="9.340596379752286"><ele>707.0</ele><time>2026-04-28T11:06:35.941Z</time></trkpt><trkpt lat="39.82989107643135" lon="9.340493780609547"><ele>707.0</ele><time>2026-04-28T11:06:36.941Z</time></trkpt><trkpt lat="39.829746965448024" lon="9.340476469245187"><ele>707.0</ele><time>2026-04-28T11:06:37.941Z</time></trkpt><trkpt lat="39.82957370502497" lon="9.340523808396599"><ele>707.0</ele><time>2026-04-28T11:06:38.941Z</time></trkpt><trkpt lat="39.82937555612204" lon="9.340582804676016"><ele>710.3333333333333</ele><time>2026-04-28T11:06:39.941Z</time></trkpt><trkpt lat="39.829176528689686" lon="9.340639768442157"><ele>713.6666666666666</ele><time>2026-04-28T11:06:40.941Z</time></trkpt><trkpt lat="39.828992329512296" lon="9.340705790505453"><ele>717.0</ele><time>2026-04-28T11:06:41.941Z</time></trkpt><trkpt lat="39.82880838750582" lon="9.340704582712753"><ele>717.0</ele><time>2026-04-28T11:06:42.941Z</time></trkpt><trkpt lat="39.82863680720823" lon="9.340631814773557"><ele>717.0</ele><time>2026-04-28T11:06:43.941Z</time></trkpt><trkpt lat="39.82848402859241" lon="9.340542537359124"><ele>717.0</ele><time>2026-04-28T11:06:44.941Z</time></trkpt><trkpt lat="39.828316278937585" lon="9.340570339547975"><ele>719.6666666666666</ele><time>2026-04-28T11:06:45.941Z</time></trkpt><trkpt lat="39.82815206200437" lon="9.34063163717947"><ele>722.3333333333333</ele><time>2026-04-28T11:06:46.941Z</time></trkpt><trkpt lat="39.828006362135625" lon="9.340646882521014"><ele>725.0</ele><time>2026-04-28T11:06:47.941Z</time></trkpt><trkpt lat="39.82787660571807" lon="9.340556067915639"><ele>725.6666666666666</ele><time>2026-04-28T11:06:48.941Z</time></trkpt><trkpt lat="39.82778417297248" lon="9.340400239758658"><ele>726.3333333333334</ele><time>2026-04-28T11:06:49.941Z</time></trkpt><trkpt lat="39.82770680143224" lon="9.34020089528937"><ele>727.0</ele><time>2026-04-28T11:06:50.941Z</time></trkpt><trkpt lat="39.82759657340473" lon="9.33999983848556"><ele>727.0</ele><time>2026-04-28T11:06:51.941Z</time></trkpt><trkpt lat="39.827446529641925" lon="9.339806843947489"><ele>727.0</ele><time>2026-04-28T11:06:52.941Z</time></trkpt><trkpt lat="39.82729186574604" lon="9.33965511672466"><ele>727.0</ele><time>2026-04-28T11:06:53.941Z</time></trkpt><trkpt lat="39.82718349705346" lon="9.339489225764803"><ele>723.6666666666667</ele><time>2026-04-28T11:06:54.941Z</time></trkpt><trkpt lat="39.827139450347026" lon="9.339289230963555"><ele>720.3333333333334</ele><time>2026-04-28T11:06:55.941Z</time></trkpt><trkpt lat="39.82712524964442" lon="9.339054633811593"><ele>717.0</ele><time>2026-04-28T11:06:56.941Z</time></trkpt><trkpt lat="39.82714832094176" lon="9.33878509335304"><ele>716.0</ele><time>2026-04-28T11:06:57.941Z</time></trkpt><trkpt lat="39.827160140227925" lon="9.338520093636623"><ele>715.0</ele><time>2026-04-28T11:06:58.941Z</time></trkpt><trkpt lat="39.82716028597435" lon="9.338285198983753"><ele>714.0</ele><time>2026-04-28T11:06:59.941Z</time></trkpt><trkpt lat="39.82712894998178" lon="9.338083821818937"><ele>712.0</ele><time>2026-04-28T11:07:00.941Z</time></trkpt><trkpt lat="39.827043940323044" lon="9.337921353789314"><ele>710.0</ele><time>2026-04-28T11:07:01.941Z</time></trkpt><trkpt lat="39.82690886257274" lon="9.33779056743912"><ele>708.0</ele><time>2026-04-28T11:07:02.941Z</time></trkpt><trkpt lat="39.826750798236816" lon="9.337649547863466"><ele>711.0</ele><time>2026-04-28T11:07:03.941Z</time></trkpt><trkpt lat="39.826603241265865" lon="9.337480153055235"><ele>714.0</ele><time>2026-04-28T11:07:04.941Z</time></trkpt><trkpt lat="39.82644478611456" lon="9.337323404670347"><ele>717.0</ele><time>2026-04-28T11:07:05.941Z</time></trkpt><trkpt lat="39.82626917890248" lon="9.33721130650314"><ele>717.0</ele><time>2026-04-28T11:07:06.941Z</time></trkpt><trkpt lat="39.826083289097575" lon="9.337114543052214"><ele>717.0</ele><time>2026-04-28T11:07:07.941Z</time></trkpt><trkpt lat="39.82588882143525" lon="9.337021475976492"><ele>717.0</ele><time>2026-04-28T11:07:08.941Z</time></trkpt><trkpt lat="39.82571145201762" lon="9.336931011241402"><ele>722.25</ele><time>2026-04-28T11:07:09.941Z</time></trkpt><trkpt lat="39.82555664881165" lon="9.336859767637433"><ele>727.5</ele><time>2026-04-28T11:07:10.941Z</time></trkpt><trkpt lat="39.82542681738294" lon="9.336863933151202"><ele>732.75</ele><time>2026-04-28T11:07:11.941Z</time></trkpt><trkpt lat="39.82534729051787" lon="9.33695734409484"><ele>738.0</ele><time>2026-04-28T11:07:12.941Z</time></trkpt><trkpt lat="39.825335589732155" lon="9.33712017432976"><ele>741.3333333333334</ele><time>2026-04-28T11:07:13.941Z</time></trkpt><trkpt lat="39.825402417783394" lon="9.337301732935812"><ele>744.6666666666667</ele><time>2026-04-28T11:07:14.941Z</time></trkpt><trkpt lat="39.82549956628985" lon="9.337487257125431"><ele>748.0</ele><time>2026-04-28T11:07:15.941Z</time></trkpt><trkpt lat="39.82560471888948" lon="9.337717317258956"><ele>748.0</ele><time>2026-04-28T11:07:16.941Z</time></trkpt><trkpt lat="39.82567249753674" lon="9.337956104792656"><ele>748.0</ele><time>2026-04-28T11:07:17.941Z</time></trkpt><trkpt lat="39.82571171671661" lon="9.338212354725474"><ele>748.0</ele><time>2026-04-28T11:07:18.941Z</time></trkpt><trkpt lat="39.8257455534925" lon="9.338474400604193"><ele>750.3333333333334</ele><time>2026-04-28T11:07:19.941Z</time></trkpt><trkpt lat="39.82578017390037" lon="9.338745607437849"><ele>752.6666666666666</ele><time>2026-04-28T11:07:20.941Z</time></trkpt><trkpt lat="39.8258022232346" lon="9.339022380682799"><ele>755.0</ele><time>2026-04-28T11:07:21.941Z</time></trkpt><trkpt lat="39.82581028393094" lon="9.339320531831632"><ele>755.0</ele><time>2026-04-28T11:07:22.941Z</time></trkpt><trkpt lat="39.825832282090964" lon="9.339639703179673"><ele>755.0</ele><time>2026-04-28T11:07:23.941Z</time></trkpt><trkpt lat="39.825857708038434" lon="9.34000540602405"><ele>755.5</ele><time>2026-04-28T11:07:24.941Z</time></trkpt><trkpt lat="39.82587163511378" lon="9.340419754565612"><ele>756.0</ele><time>2026-04-28T11:07:25.941Z</time></trkpt><trkpt lat="39.82591057810254" lon="9.340871197400341"><ele>758.0</ele><time>2026-04-28T11:07:26.941Z</time></trkpt><trkpt lat="39.825959311147905" lon="9.341296166149748"><ele>760.0</ele><time>2026-04-28T11:07:27.941Z</time></trkpt><trkpt lat="39.82598020848945" lon="9.341762598559987"><ele>760.0</ele><time>2026-04-28T11:07:28.941Z</time></trkpt><trkpt lat="39.82596399842155" lon="9.34220877792707"><ele>760.0</ele><time>2026-04-28T11:07:29.941Z</time></trkpt><trkpt lat="39.82593696607449" lon="9.342606465549226"><ele>763.5</ele><time>2026-04-28T11:07:30.941Z</time></trkpt><trkpt lat="39.82588254971614" lon="9.34299611519841"><ele>767.0</ele><time>2026-04-28T11:07:31.941Z</time></trkpt><trkpt lat="39.82578412299128" lon="9.34339379072338"><ele>772.5</ele><time>2026-04-28T11:07:32.941Z</time></trkpt><trkpt lat="39.82566246163686" lon="9.343787708886232"><ele>778.0</ele><time>2026-04-28T11:07:33.941Z</time></trkpt><trkpt lat="39.82558285692191" lon="9.344130822579318"><ele>782.3333333333333</ele><time>2026-04-28T11:07:34.941Z</time></trkpt><trkpt lat="39.8255310217654" lon="9.344405597220382"><ele>786.6666666666667</ele><time>2026-04-28T11:07:35.941Z</time></trkpt><trkpt lat="39.82548480198585" lon="9.34461874962395"><ele>791.0</ele><time>2026-04-28T11:07:36.941Z</time></trkpt><trkpt lat="39.82540529184603" lon="9.34478771555664"><ele>788.5</ele><time>2026-04-28T11:07:37.941Z</time></trkpt><trkpt lat="39.82522933169867" lon="9.344913091659933"><ele>786.0</ele><time>2026-04-28T11:07:38.941Z</time></trkpt><trkpt lat="39.824991979002014" lon="9.34501588411645"><ele>786.0</ele><time>2026-04-28T11:07:39.941Z</time></trkpt><trkpt lat="39.82475003371138" lon="9.345150425374584"><ele>786.0</ele><time>2026-04-28T11:07:40.941Z</time></trkpt><trkpt lat="39.824581229381785" lon="9.345354134243594"><ele>796.5</ele><time>2026-04-28T11:07:41.941Z</time></trkpt><trkpt lat="39.82447035310167" lon="9.34561965976802"><ele>807.0</ele><time>2026-04-28T11:07:42.94Z</time></trkpt><trkpt lat="39.82438406540837" lon="9.345973469519048"><ele>815.5</ele><time>2026-04-28T11:07:43.94Z</time></trkpt><trkpt lat="39.82433295160685" lon="9.346381729490927"><ele>824.0</ele><time>2026-04-28T11:07:44.94Z</time></trkpt><trkpt lat="39.824284131812306" lon="9.346760993111621"><ele>814.5</ele><time>2026-04-28T11:07:45.94Z</time></trkpt><trkpt lat="39.824174089835886" lon="9.347114599964918"><ele>805.0</ele><time>2026-04-28T11:07:46.94Z</time></trkpt><trkpt lat="39.82398565055865" lon="9.347462341854666"><ele>805.0</ele><time>2026-04-28T11:07:47.94Z</time></trkpt><trkpt lat="39.823822957983495" lon="9.347761813755447"><ele>805.0</ele><time>2026-04-28T11:07:48.94Z</time></trkpt><trkpt lat="39.82371452290109" lon="9.347964795019672"><ele>805.0</ele><time>2026-04-28T11:07:49.94Z</time></trkpt><trkpt lat="39.82366973659384" lon="9.348139594080422"><ele>805.0</ele><time>2026-04-28T11:07:50.94Z</time></trkpt><trkpt lat="39.82367835209761" lon="9.348293154701377"><ele>805.0</ele><time>2026-04-28T11:07:51.94Z</time></trkpt><trkpt lat="39.82374745772475" lon="9.348418612026645"><ele>805.0</ele><time>2026-04-28T11:07:52.94Z</time></trkpt><trkpt lat="39.82389669799254" lon="9.348479966346543"><ele>805.0</ele><time>2026-04-28T11:07:53.94Z</time></trkpt><trkpt lat="39.82409976120965" lon="9.34849710918977"><ele>805.0</ele><time>2026-04-28T11:07:54.94Z</time></trkpt><trkpt lat="39.82437982949259" lon="9.34849773286279"><ele>814.5</ele><time>2026-04-28T11:07:55.94Z</time></trkpt><trkpt lat="39.82465746476131" lon="9.348524810280987"><ele>824.0</ele><time>2026-04-28T11:07:56.94Z</time></trkpt><trkpt lat="39.824892470060284" lon="9.348580631046982"><ele>824.0</ele><time>2026-04-28T11:07:57.94Z</time></trkpt><trkpt lat="39.825097596831824" lon="9.348733108527226"><ele>824.0</ele><time>2026-04-28T11:07:58.94Z</time></trkpt><trkpt lat="39.82534806034498" lon="9.348984407271335"><ele>826.5</ele><time>2026-04-28T11:07:59.94Z</time></trkpt><trkpt lat="39.82559696573662" lon="9.34924133152909"><ele>829.0</ele><time>2026-04-28T11:08:00.94Z</time></trkpt><trkpt lat="39.82577069093363" lon="9.349461949959917"><ele>822.5</ele><time>2026-04-28T11:08:01.94Z</time></trkpt><trkpt lat="39.82589812415416" lon="9.349742232479468"><ele>816.0</ele><time>2026-04-28T11:08:02.94Z</time></trkpt><trkpt lat="39.82599637010423" lon="9.350070694744492"><ele>826.3333333333333</ele><time>2026-04-28T11:08:03.94Z</time></trkpt><trkpt lat="39.82606460736845" lon="9.35039636303968"><ele>836.6666666666666</ele><time>2026-04-28T11:08:04.94Z</time></trkpt><trkpt lat="39.826111056117725" lon="9.350613734677891"><ele>847.0</ele><time>2026-04-28T11:08:05.94Z</time></trkpt><trkpt lat="39.82615879328001" lon="9.3507658455362"><ele>847.0</ele><time>2026-04-28T11:08:06.94Z</time></trkpt><trkpt lat="39.82616963494443" lon="9.350872145561842"><ele>847.0</ele><time>2026-04-28T11:08:07.94Z</time></trkpt><trkpt lat="39.8261033228858" lon="9.350973629248013"><ele>847.0</ele><time>2026-04-28T11:08:08.94Z</time></trkpt><trkpt lat="39.82597392016487" lon="9.351056214788414"><ele>847.0</ele><time>2026-04-28T11:08:09.94Z</time></trkpt><trkpt lat="39.82583283930698" lon="9.3511839997437"><ele>840.5</ele><time>2026-04-28T11:08:10.94Z</time></trkpt><trkpt lat="39.825655273168245" lon="9.351428101692177"><ele>834.0</ele><time>2026-04-28T11:08:11.94Z</time></trkpt><trkpt lat="39.825467870260766" lon="9.351701381806544"><ele>834.0</ele><time>2026-04-28T11:08:12.94Z</time></trkpt><trkpt lat="39.82524210616975" lon="9.35190859565735"><ele>834.0</ele><time>2026-04-28T11:08:13.94Z</time></trkpt><trkpt lat="39.82498103829667" lon="9.352040428354698"><ele>838.5</ele><time>2026-04-28T11:08:14.94Z</time></trkpt><trkpt lat="39.82472811131961" lon="9.352201513544697"><ele>843.0</ele><time>2026-04-28T11:08:15.94Z</time></trkpt><trkpt lat="39.82450856537857" lon="9.352447837866343"><ele>834.5</ele><time>2026-04-28T11:08:16.94Z</time></trkpt><trkpt lat="39.8242993891246" lon="9.352690677937932"><ele>826.0</ele><time>2026-04-28T11:08:17.94Z</time></trkpt><trkpt lat="39.82410061272336" lon="9.35288049476289"><ele>833.3333333333333</ele><time>2026-04-28T11:08:18.94Z</time></trkpt><trkpt lat="39.823942446539824" lon="9.353066823199118"><ele>840.6666666666667</ele><time>2026-04-28T11:08:19.94Z</time></trkpt><trkpt lat="39.82383815275851" lon="9.353310077146988"><ele>848.0</ele><time>2026-04-28T11:08:20.94Z</time></trkpt><trkpt lat="39.82374876731005" lon="9.353661921237768"><ele>857.0</ele><time>2026-04-28T11:08:21.94Z</time></trkpt><trkpt lat="39.8236402033649" lon="9.35406116609361"><ele>866.0</ele><time>2026-04-28T11:08:22.94Z</time></trkpt><trkpt lat="39.82353313661631" lon="9.354470776306655"><ele>856.5</ele><time>2026-04-28T11:08:23.94Z</time></trkpt><trkpt lat="39.82343464523756" lon="9.354827423540655"><ele>847.0</ele><time>2026-04-28T11:08:24.94Z</time></trkpt><trkpt lat="39.82332839118288" lon="9.355125724258784"><ele>847.0</ele><time>2026-04-28T11:08:25.94Z</time></trkpt><trkpt lat="39.82318573222663" lon="9.355374580360543"><ele>847.0</ele><time>2026-04-28T11:08:26.94Z</time></trkpt><trkpt lat="39.82303130963607" lon="9.355565532474929"><ele>848.3333333333333</ele><time>2026-04-28T11:08:27.941Z</time></trkpt><trkpt lat="39.822858690411394" lon="9.355689307026825"><ele>849.6666666666667</ele><time>2026-04-28T11:08:28.94Z</time></trkpt><trkpt lat="39.82264274711328" lon="9.355741902088972"><ele>851.0</ele><time>2026-04-28T11:08:29.94Z</time></trkpt><trkpt lat="39.822396885077424" lon="9.355763285366892"><ele>851.0</ele><time>2026-04-28T11:08:30.941Z</time></trkpt><trkpt lat="39.82218734228619" lon="9.355860520089255"><ele>851.0</ele><time>2026-04-28T11:08:31.941Z</time></trkpt><trkpt lat="39.82201111259291" lon="9.356073259388282"><ele>851.0</ele><time>2026-04-28T11:08:32.941Z</time></trkpt><trkpt lat="39.82184607331852" lon="9.356354162594705"><ele>851.0</ele><time>2026-04-28T11:08:33.941Z</time></trkpt><trkpt lat="39.82165191687126" lon="9.35654536699126"><ele>858.0</ele><time>2026-04-28T11:08:34.941Z</time></trkpt><trkpt lat="39.82138951992139" lon="9.356656509383189"><ele>865.0</ele><time>2026-04-28T11:08:35.941Z</time></trkpt><trkpt lat="39.82114494369351" lon="9.356753023845975"><ele>862.0</ele><time>2026-04-28T11:08:36.941Z</time></trkpt><trkpt lat="39.820934294117" lon="9.356790530569196"><ele>859.0</ele><time>2026-04-28T11:08:37.94Z</time></trkpt><trkpt lat="39.82074798760559" lon="9.356767804695577"><ele>856.0</ele><time>2026-04-28T11:08:38.94Z</time></trkpt><trkpt lat="39.82059668477979" lon="9.35675738341575"><ele>856.0</ele><time>2026-04-28T11:08:39.941Z</time></trkpt><trkpt lat="39.82048343521576" lon="9.356837657251884"><ele>856.0</ele><time>2026-04-28T11:08:40.94Z</time></trkpt><trkpt lat="39.82042133204454" lon="9.357004259577165"><ele>856.0</ele><time>2026-04-28T11:08:41.94Z</time></trkpt><trkpt lat="39.8204126223382" lon="9.35724481971185"><ele>861.0</ele><time>2026-04-28T11:08:42.94Z</time></trkpt><trkpt lat="39.82042094229535" lon="9.357530103119638"><ele>866.0</ele><time>2026-04-28T11:08:43.94Z</time></trkpt><trkpt lat="39.82043819931873" lon="9.357753429396743"><ele>871.0</ele><time>2026-04-28T11:08:44.94Z</time></trkpt><trkpt lat="39.820477138772596" lon="9.357863991321432"><ele>871.0</ele><time>2026-04-28T11:08:45.94Z</time></trkpt><trkpt lat="39.82058220198648" lon="9.357915064902452"><ele>871.0</ele><time>2026-04-28T11:08:46.94Z</time></trkpt><trkpt lat="39.8207364228892" lon="9.357913306139185"><ele>871.0</ele><time>2026-04-28T11:08:47.94Z</time></trkpt><trkpt lat="39.82094102734485" lon="9.357863464662277"><ele>875.5</ele><time>2026-04-28T11:08:48.94Z</time></trkpt><trkpt lat="39.821174697948564" lon="9.357844939507972"><ele>880.0</ele><time>2026-04-28T11:08:49.94Z</time></trkpt><trkpt lat="39.82141619661327" lon="9.357901028643612"><ele>880.0</ele><time>2026-04-28T11:08:50.94Z</time></trkpt><trkpt lat="39.82161604761328" lon="9.357993874466432"><ele>880.0</ele><time>2026-04-28T11:08:51.94Z</time></trkpt><trkpt lat="39.821828081449596" lon="9.358010544392"><ele>880.0</ele><time>2026-04-28T11:08:52.94Z</time></trkpt><trkpt lat="39.822089002224615" lon="9.357943005503236"><ele>881.0</ele><time>2026-04-28T11:08:53.94Z</time></trkpt><trkpt lat="39.8223542455973" lon="9.357811949101556"><ele>882.0</ele><time>2026-04-28T11:08:54.94Z</time></trkpt><trkpt lat="39.82256460689675" lon="9.357713446049871"><ele>884.6666666666667</ele><time>2026-04-28T11:08:55.94Z</time></trkpt><trkpt lat="39.82273359592231" lon="9.357676993339346"><ele>887.3333333333334</ele><time>2026-04-28T11:08:56.94Z</time></trkpt><trkpt lat="39.82290707871409" lon="9.357716849938782"><ele>890.0</ele><time>2026-04-28T11:08:57.94Z</time></trkpt><trkpt lat="39.82304630816484" lon="9.357772922391552"><ele>890.0</ele><time>2026-04-28T11:08:58.94Z</time></trkpt><trkpt lat="39.823121688910994" lon="9.357820775006035"><ele>890.0</ele><time>2026-04-28T11:08:59.94Z</time></trkpt><trkpt lat="39.82313757572095" lon="9.357928673694579"><ele>890.0</ele><time>2026-04-28T11:09:00.94Z</time></trkpt><trkpt lat="39.82307732661357" lon="9.358068615462317"><ele>890.0</ele><time>2026-04-28T11:09:01.94Z</time></trkpt><trkpt lat="39.822928617601164" lon="9.35818229039119"><ele>889.6666666666667</ele><time>2026-04-28T11:09:02.94Z</time></trkpt><trkpt lat="39.822804438718755" lon="9.358314586527124"><ele>889.3333333333333</ele><time>2026-04-28T11:09:03.94Z</time></trkpt><trkpt lat="39.82269502856303" lon="9.358476210174741"><ele>889.0</ele><time>2026-04-28T11:09:04.94Z</time></trkpt><trkpt lat="39.82260540341302" lon="9.358648197453357"><ele>889.0</ele><time>2026-04-28T11:09:05.94Z</time></trkpt><trkpt lat="39.82252097697205" lon="9.35881132766979"><ele>889.0</ele><time>2026-04-28T11:09:06.94Z</time></trkpt><trkpt lat="39.82243942525932" lon="9.358954776257884"><ele>889.0</ele><time>2026-04-28T11:09:07.94Z</time></trkpt><trkpt lat="39.822374238178135" lon="9.359084353552907"><ele>889.0</ele><time>2026-04-28T11:09:08.94Z</time></trkpt><trkpt lat="39.822316940958665" lon="9.359197287990469"><ele>888.9999999999999</ele><time>2026-04-28T11:09:09.94Z</time></trkpt><trkpt lat="39.82226354042253" lon="9.35930163272802"><ele>889.0</ele><time>2026-04-28T11:09:10.94Z</time></trkpt><trkpt lat="39.82222005511053" lon="9.359402788890117"><ele>889.0</ele><time>2026-04-28T11:09:11.94Z</time></trkpt><trkpt lat="39.82217744057011" lon="9.359495094268322"><ele>889.0</ele><time>2026-04-28T11:09:12.94Z</time></trkpt><trkpt lat="39.82213535023419" lon="9.359571890525881"><ele>888.9999999999999</ele><time>2026-04-28T11:09:13.94Z</time></trkpt><trkpt lat="39.822096960362" lon="9.3596407808412"><ele>889.0</ele><time>2026-04-28T11:09:14.94Z</time></trkpt><trkpt lat="39.82202846682141" lon="9.35975886582218"><ele>886.2</ele><time>2026-04-28T11:09:16.94Z</time></trkpt><trkpt lat="39.82198112766703" lon="9.359839668746728"><ele>883.4000000000001</ele><time>2026-04-28T11:09:17.94Z</time></trkpt><trkpt lat="39.821934759498795" lon="9.35992515785746"><ele>880.6</ele><time>2026-04-28T11:09:18.94Z</time></trkpt><trkpt lat="39.82187458391987" lon="9.360020394782328"><ele>877.8</ele><time>2026-04-28T11:09:19.94Z</time></trkpt><trkpt lat="39.82180726456936" lon="9.360121658333593"><ele>875.0</ele><time>2026-04-28T11:09:20.94Z</time></trkpt><trkpt lat="39.82174800011639" lon="9.360233139125738"><ele>875.0</ele><time>2026-04-28T11:09:21.94Z</time></trkpt><trkpt lat="39.82167804558647" lon="9.360350216220047"><ele>875.0</ele><time>2026-04-28T11:09:22.94Z</time></trkpt><trkpt lat="39.82160292116258" lon="9.360472837803739"><ele>875.0</ele><time>2026-04-28T11:09:23.94Z</time></trkpt><trkpt lat="39.821515069781" lon="9.360573842492647"><ele>875.0</ele><time>2026-04-28T11:09:24.94Z</time></trkpt><trkpt lat="39.821414533605946" lon="9.360664984553074"><ele>881.0</ele><time>2026-04-28T11:09:25.94Z</time></trkpt><trkpt lat="39.82131172802824" lon="9.360771544608935"><ele>887.0</ele><time>2026-04-28T11:09:26.94Z</time></trkpt><trkpt lat="39.821220974924366" lon="9.360910811230246"><ele>893.0</ele><time>2026-04-28T11:09:27.94Z</time></trkpt><trkpt lat="39.82115508573905" lon="9.36105944140278"><ele>899.0</ele><time>2026-04-28T11:09:28.94Z</time></trkpt><trkpt lat="39.821093780068644" lon="9.361217917296209"><ele>902.75</ele><time>2026-04-28T11:09:29.94Z</time></trkpt><trkpt lat="39.821036364209114" lon="9.3613861861971"><ele>906.5</ele><time>2026-04-28T11:09:30.939Z</time></trkpt><trkpt lat="39.820991024538245" lon="9.361559801933119"><ele>910.25</ele><time>2026-04-28T11:09:31.939Z</time></trkpt><trkpt lat="39.82097127510617" lon="9.361746060059426"><ele>914.0</ele><time>2026-04-28T11:09:32.939Z</time></trkpt><trkpt lat="39.82097160517279" lon="9.361942035982302"><ele>911.6666666666667</ele><time>2026-04-28T11:09:33.939Z</time></trkpt><trkpt lat="39.82097823697348" lon="9.362122834777995"><ele>909.3333333333333</ele><time>2026-04-28T11:09:34.939Z</time></trkpt><trkpt lat="39.8210240960673" lon="9.362299047892472"><ele>907.0</ele><time>2026-04-28T11:09:35.939Z</time></trkpt><trkpt lat="39.82112746206372" lon="9.362479428126292"><ele>907.0</ele><time>2026-04-28T11:09:36.939Z</time></trkpt><trkpt lat="39.821235383941044" lon="9.362673684986857"><ele>907.0</ele><time>2026-04-28T11:09:37.939Z</time></trkpt><trkpt lat="39.82132585123322" lon="9.362858393138751"><ele>907.0</ele><time>2026-04-28T11:09:38.939Z</time></trkpt><trkpt lat="39.821391486028084" lon="9.363010533786047"><ele>903.6666666666666</ele><time>2026-04-28T11:09:39.939Z</time></trkpt><trkpt lat="39.8215161475732" lon="9.363125928053185"><ele>900.3333333333333</ele><time>2026-04-28T11:09:40.939Z</time></trkpt><trkpt lat="39.82170581399087" lon="9.363191111151751"><ele>897.0</ele><time>2026-04-28T11:09:41.939Z</time></trkpt><trkpt lat="39.82193459254258" lon="9.36329275799473"><ele>897.0</ele><time>2026-04-28T11:09:42.939Z</time></trkpt><trkpt lat="39.8221666283068" lon="9.363409656260727"><ele>897.0</ele><time>2026-04-28T11:09:43.939Z</time></trkpt><trkpt lat="39.822411696464904" lon="9.363429702732036"><ele>900.5</ele><time>2026-04-28T11:09:44.939Z</time></trkpt><trkpt lat="39.822662135133136" lon="9.363456414425164"><ele>904.0</ele><time>2026-04-28T11:09:45.939Z</time></trkpt><trkpt lat="39.82285919617425" lon="9.363484876845172"><ele>904.0</ele><time>2026-04-28T11:09:46.939Z</time></trkpt><trkpt lat="39.82301302921813" lon="9.363539618748106"><ele>904.0</ele><time>2026-04-28T11:09:47.939Z</time></trkpt><trkpt lat="39.82309203007519" lon="9.363658829749452"><ele>904.0</ele><time>2026-04-28T11:09:48.939Z</time></trkpt><trkpt lat="39.82309009216277" lon="9.363816377042285"><ele>904.0</ele><time>2026-04-28T11:09:49.939Z</time></trkpt><trkpt lat="39.82302504554214" lon="9.363944750948962"><ele>905.6666666666666</ele><time>2026-04-28T11:09:50.939Z</time></trkpt><trkpt lat="39.82287781667811" lon="9.364035118621636"><ele>907.3333333333333</ele><time>2026-04-28T11:09:51.939Z</time></trkpt><trkpt lat="39.82268308865755" lon="9.364154150443445"><ele>909.0</ele><time>2026-04-28T11:09:52.939Z</time></trkpt><trkpt lat="39.82246634666321" lon="9.364310987171251"><ele>909.6666666666667</ele><time>2026-04-28T11:09:53.939Z</time></trkpt><trkpt lat="39.82227486893804" lon="9.364483829337624"><ele>910.3333333333334</ele><time>2026-04-28T11:09:54.939Z</time></trkpt><trkpt lat="39.82211294028117" lon="9.364640776964187"><ele>911.0</ele><time>2026-04-28T11:09:55.939Z</time></trkpt><trkpt lat="39.8219828979972" lon="9.364762100638004"><ele>911.0</ele><time>2026-04-28T11:09:56.939Z</time></trkpt><trkpt lat="39.821886725660114" lon="9.364903009401752"><ele>911.0</ele><time>2026-04-28T11:09:57.939Z</time></trkpt><trkpt lat="39.82186161082969" lon="9.36511767980831"><ele>911.0</ele><time>2026-04-28T11:09:58.939Z</time></trkpt><trkpt lat="39.821902787047605" lon="9.365417279885992"><ele>917.0</ele><time>2026-04-28T11:09:59.939Z</time></trkpt><trkpt lat="39.821984071649275" lon="9.365816124894195"><ele>923.0</ele><time>2026-04-28T11:10:00.939Z</time></trkpt><trkpt lat="39.822040401317224" lon="9.366189066293584"><ele>924.5</ele><time>2026-04-28T11:10:01.939Z</time></trkpt><trkpt lat="39.822044043819524" lon="9.366518407967295"><ele>926.0</ele><time>2026-04-28T11:10:02.939Z</time></trkpt><trkpt lat="39.821993080393646" lon="9.366865382721826"><ele>930.5</ele><time>2026-04-28T11:10:03.939Z</time></trkpt><trkpt lat="39.82188894727702" lon="9.367258910056647"><ele>935.0</ele><time>2026-04-28T11:10:04.939Z</time></trkpt><trkpt lat="39.821809791591996" lon="9.367610847971553"><ele>924.5</ele><time>2026-04-28T11:10:05.939Z</time></trkpt><trkpt lat="39.82173828772935" lon="9.367909427652075"><ele>914.0</ele><time>2026-04-28T11:10:06.939Z</time></trkpt><trkpt lat="39.821621949631066" lon="9.368183995070412"><ele>914.0</ele><time>2026-04-28T11:10:07.939Z</time></trkpt><trkpt lat="39.8214790162444" lon="9.368396908474084"><ele>914.0</ele><time>2026-04-28T11:10:08.939Z</time></trkpt><trkpt lat="39.821387462134666" lon="9.368506704700946"><ele>914.0</ele><time>2026-04-28T11:10:09.939Z</time></trkpt><trkpt lat="39.821314046788274" lon="9.368524869670022"><ele>914.0</ele><time>2026-04-28T11:10:10.939Z</time></trkpt><trkpt lat="39.82122199003195" lon="9.368449919994596"><ele>914.0</ele><time>2026-04-28T11:10:11.939Z</time></trkpt><trkpt lat="39.821156349954364" lon="9.368256874744462"><ele>914.0</ele><time>2026-04-28T11:10:12.939Z</time></trkpt><trkpt lat="39.82116145450903" lon="9.367971770212437"><ele>914.0</ele><time>2026-04-28T11:10:13.939Z</time></trkpt><trkpt lat="39.82120348560306" lon="9.367635479364171"><ele>910.0</ele><time>2026-04-28T11:10:14.939Z</time></trkpt><trkpt lat="39.821196157020935" lon="9.367264702017346"><ele>906.0</ele><time>2026-04-28T11:10:15.939Z</time></trkpt><trkpt lat="39.82114811885162" lon="9.366959951308724"><ele>908.0</ele><time>2026-04-28T11:10:16.939Z</time></trkpt><trkpt lat="39.821052740746204" lon="9.3667730918953"><ele>910.0</ele><time>2026-04-28T11:10:17.939Z</time></trkpt><trkpt lat="39.82090818894956" lon="9.366647420367551"><ele>912.0</ele><time>2026-04-28T11:10:18.939Z</time></trkpt><trkpt lat="39.820708141172915" lon="9.366573637297831"><ele>912.0</ele><time>2026-04-28T11:10:19.939Z</time></trkpt><trkpt lat="39.82045300864668" lon="9.366596381882259"><ele>912.0</ele><time>2026-04-28T11:10:20.939Z</time></trkpt><trkpt lat="39.820172558009894" lon="9.366693159216759"><ele>916.5</ele><time>2026-04-28T11:10:21.939Z</time></trkpt><trkpt lat="39.81989326786573" lon="9.366794485696484"><ele>921.0</ele><time>2026-04-28T11:10:22.939Z</time></trkpt><trkpt lat="39.819634205751264" lon="9.366794451437235"><ele>921.0</ele><time>2026-04-28T11:10:23.939Z</time></trkpt><trkpt lat="39.819371934121435" lon="9.366725237659569"><ele>921.0</ele><time>2026-04-28T11:10:24.939Z</time></trkpt><trkpt lat="39.81909965856746" lon="9.36674173358196"><ele>922.0</ele><time>2026-04-28T11:10:25.939Z</time></trkpt><trkpt lat="39.81883001346682" lon="9.366870689018786"><ele>923.0</ele><time>2026-04-28T11:10:26.939Z</time></trkpt><trkpt lat="39.818606837379264" lon="9.366992837881044"><ele>925.6666666666667</ele><time>2026-04-28T11:10:27.939Z</time></trkpt><trkpt lat="39.818403008856315" lon="9.367059519380705"><ele>928.3333333333333</ele><time>2026-04-28T11:10:28.939Z</time></trkpt><trkpt lat="39.81819300216279" lon="9.36699901742408"><ele>931.0</ele><time>2026-04-28T11:10:29.939Z</time></trkpt><trkpt lat="39.817996330985586" lon="9.36685215403878"><ele>931.0</ele><time>2026-04-28T11:10:30.939Z</time></trkpt><trkpt lat="39.81779539640093" lon="9.366634736300995"><ele>931.0</ele><time>2026-04-28T11:10:31.939Z</time></trkpt><trkpt lat="39.81760317791278" lon="9.36637776608934"><ele>937.0</ele><time>2026-04-28T11:10:32.939Z</time></trkpt><trkpt lat="39.817414098407625" lon="9.366043312633918"><ele>943.0</ele><time>2026-04-28T11:10:33.94Z</time></trkpt><trkpt lat="39.81720511642336" lon="9.365663312433131"><ele>935.5</ele><time>2026-04-28T11:10:34.939Z</time></trkpt><trkpt lat="39.8169656534178" lon="9.36526948366544"><ele>928.0</ele><time>2026-04-28T11:10:35.939Z</time></trkpt><trkpt lat="39.81674568134339" lon="9.364941037693288"><ele>937.0</ele><time>2026-04-28T11:10:36.94Z</time></trkpt><trkpt lat="39.816559550419605" lon="9.364674607870382"><ele>946.0</ele><time>2026-04-28T11:10:37.939Z</time></trkpt><trkpt lat="39.816400938974056" lon="9.364434470046753"><ele>946.0</ele><time>2026-04-28T11:10:38.939Z</time></trkpt><trkpt lat="39.816269017225935" lon="9.36421608805035"><ele>946.0</ele><time>2026-04-28T11:10:39.939Z</time></trkpt><trkpt lat="39.81610702737654" lon="9.36403584791633"><ele>946.0</ele><time>2026-04-28T11:10:40.939Z</time></trkpt><trkpt lat="39.815856054869954" lon="9.363927699382797"><ele>946.5</ele><time>2026-04-28T11:10:41.939Z</time></trkpt><trkpt lat="39.81552989432664" lon="9.36383051141176"><ele>947.0</ele><time>2026-04-28T11:10:42.94Z</time></trkpt><trkpt lat="39.81525346780279" lon="9.36370132192961"><ele>958.0</ele><time>2026-04-28T11:10:43.939Z</time></trkpt><trkpt lat="39.81506275724691" lon="9.363528630017933"><ele>969.0</ele><time>2026-04-28T11:10:44.939Z</time></trkpt><trkpt lat="39.81491660398256" lon="9.363278874350943"><ele>963.5</ele><time>2026-04-28T11:10:45.94Z</time></trkpt><trkpt lat="39.814773641404976" lon="9.3630122204058"><ele>958.0</ele><time>2026-04-28T11:10:46.94Z</time></trkpt><trkpt lat="39.814566710692645" lon="9.362779379099308"><ele>966.5</ele><time>2026-04-28T11:10:47.94Z</time></trkpt><trkpt lat="39.81429257544576" lon="9.362585665851046"><ele>975.0</ele><time>2026-04-28T11:10:48.94Z</time></trkpt><trkpt lat="39.81404750201039" lon="9.362409715124546"><ele>975.0</ele><time>2026-04-28T11:10:49.94Z</time></trkpt><trkpt lat="39.81385619194285" lon="9.36227859257726"><ele>975.0</ele><time>2026-04-28T11:10:50.94Z</time></trkpt><trkpt lat="39.81364376376794" lon="9.362218584078608"><ele>975.0</ele><time>2026-04-28T11:10:51.94Z</time></trkpt><trkpt lat="39.81341080321404" lon="9.362228588101548"><ele>976.6666666666667</ele><time>2026-04-28T11:10:52.94Z</time></trkpt><trkpt lat="39.81321179177205" lon="9.362242477919107"><ele>978.3333333333334</ele><time>2026-04-28T11:10:53.939Z</time></trkpt><trkpt lat="39.81305275842984" lon="9.362274828013748"><ele>980.0</ele><time>2026-04-28T11:10:54.939Z</time></trkpt><trkpt lat="39.81291550439599" lon="9.362410910619142"><ele>980.0</ele><time>2026-04-28T11:10:55.939Z</time></trkpt><trkpt lat="39.81279535490593" lon="9.362679446611777"><ele>980.0</ele><time>2026-04-28T11:10:56.939Z</time></trkpt><trkpt lat="39.812655409722105" lon="9.36311964449485"><ele>974.5</ele><time>2026-04-28T11:10:57.939Z</time></trkpt><trkpt lat="39.8125309817003" lon="9.36350392751748"><ele>969.0</ele><time>2026-04-28T11:10:58.939Z</time></trkpt><trkpt lat="39.81240973671349" lon="9.363908988474153"><ele>968.0</ele><time>2026-04-28T11:10:59.939Z</time></trkpt><trkpt lat="39.81231645462434" lon="9.36429628992145"><ele>967.0</ele><time>2026-04-28T11:11:00.939Z</time></trkpt><trkpt lat="39.81221150942934" lon="9.364623107475161"><ele>967.0</ele><time>2026-04-28T11:11:01.939Z</time></trkpt><trkpt lat="39.812001463355024" lon="9.364870186890075"><ele>967.0</ele><time>2026-04-28T11:11:02.939Z</time></trkpt><trkpt lat="39.81172706946269" lon="9.365188966962618"><ele>967.5</ele><time>2026-04-28T11:11:03.939Z</time></trkpt><trkpt lat="39.811425933485296" lon="9.365569712304875"><ele>968.0</ele><time>2026-04-28T11:11:04.939Z</time></trkpt><trkpt lat="39.81114199638895" lon="9.365928017392454"><ele>967.0</ele><time>2026-04-28T11:11:05.939Z</time></trkpt><trkpt lat="39.81087229755202" lon="9.36626835186151"><ele>966.0</ele><time>2026-04-28T11:11:06.939Z</time></trkpt><trkpt lat="39.81066653963748" lon="9.366537079179698"><ele>967.3333333333333</ele><time>2026-04-28T11:11:07.939Z</time></trkpt><trkpt lat="39.81054397996328" lon="9.366698674250456"><ele>968.6666666666666</ele><time>2026-04-28T11:11:08.939Z</time></trkpt><trkpt lat="39.81042959612831" lon="9.367002349430742"><ele>970.0</ele><time>2026-04-28T11:11:09.939Z</time></trkpt><trkpt lat="39.81036569852433" lon="9.367297662295428"><ele>970.0</ele><time>2026-04-28T11:11:10.939Z</time></trkpt><trkpt lat="39.81039094383507" lon="9.36753283626308"><ele>970.0</ele><time>2026-04-28T11:11:11.939Z</time></trkpt><trkpt lat="39.810486561291306" lon="9.367714355431481"><ele>970.0</ele><time>2026-04-28T11:11:12.939Z</time></trkpt><trkpt lat="39.810653287396555" lon="9.367854040238592"><ele>970.0</ele><time>2026-04-28T11:11:13.939Z</time></trkpt><trkpt lat="39.81092635888933" lon="9.3679830085397"><ele>970.0</ele><time>2026-04-28T11:11:14.939Z</time></trkpt><trkpt lat="39.811120092021014" lon="9.368162923074577"><ele>974.3333333333333</ele><time>2026-04-28T11:11:15.939Z</time></trkpt><trkpt lat="39.811286125140306" lon="9.368351124582972"><ele>978.6666666666667</ele><time>2026-04-28T11:11:16.939Z</time></trkpt><trkpt lat="39.81138153566181" lon="9.368520402438003"><ele>983.0</ele><time>2026-04-28T11:11:17.939Z</time></trkpt><trkpt lat="39.81132291269074" lon="9.36870118168962"><ele>981.6666666666667</ele><time>2026-04-28T11:11:18.939Z</time></trkpt><trkpt lat="39.811261913840355" lon="9.368891705541024"><ele>980.3333333333333</ele><time>2026-04-28T11:11:19.939Z</time></trkpt><trkpt lat="39.81108703210075" lon="9.369007314224351"><ele>979.0</ele><time>2026-04-28T11:11:20.939Z</time></trkpt><trkpt lat="39.81081252734465" lon="9.369059748866212"><ele>972.5</ele><time>2026-04-28T11:11:21.939Z</time></trkpt><trkpt lat="39.810503974901955" lon="9.369073473982672"><ele>966.0</ele><time>2026-04-28T11:11:22.939Z</time></trkpt><trkpt lat="39.81006252123028" lon="9.36910343262084"><ele>964.5</ele><time>2026-04-28T11:11:23.939Z</time></trkpt><trkpt lat="39.80970183834111" lon="9.369174098951568"><ele>963.0</ele><time>2026-04-28T11:11:24.939Z</time></trkpt><trkpt lat="39.80938630919902" lon="9.369265038254737"><ele>960.5</ele><time>2026-04-28T11:11:25.939Z</time></trkpt><trkpt lat="39.809105905087264" lon="9.369296821094064"><ele>958.0</ele><time>2026-04-28T11:11:26.939Z</time></trkpt><trkpt lat="39.80886660633265" lon="9.369375809795145"><ele>958.0</ele><time>2026-04-28T11:11:27.939Z</time></trkpt><trkpt lat="39.80860966451842" lon="9.36957688119811"><ele>958.0</ele><time>2026-04-28T11:11:28.939Z</time></trkpt><trkpt lat="39.80834300480253" lon="9.369751656410406"><ele>960.0</ele><time>2026-04-28T11:11:29.939Z</time></trkpt><trkpt lat="39.80808972025906" lon="9.369907104055008"><ele>962.0</ele><time>2026-04-28T11:11:30.939Z</time></trkpt><trkpt lat="39.807898763668746" lon="9.370099400843062"><ele>962.0</ele><time>2026-04-28T11:11:31.939Z</time></trkpt><trkpt lat="39.80771595673665" lon="9.37039100155293"><ele>962.0</ele><time>2026-04-28T11:11:32.939Z</time></trkpt><trkpt lat="39.80748663553643" lon="9.37067824343214"><ele>959.5</ele><time>2026-04-28T11:11:33.939Z</time></trkpt><trkpt lat="39.80729327377359" lon="9.370943563010034"><ele>957.0</ele><time>2026-04-28T11:11:34.939Z</time></trkpt><trkpt lat="39.80716923633215" lon="9.371217153978797"><ele>957.0</ele><time>2026-04-28T11:11:35.939Z</time></trkpt><trkpt lat="39.80710985008141" lon="9.371592497485311"><ele>957.0</ele><time>2026-04-28T11:11:36.939Z</time></trkpt><trkpt lat="39.806991462570025" lon="9.372017797293447"><ele>955.0</ele><time>2026-04-28T11:11:37.939Z</time></trkpt><trkpt lat="39.806871285061234" lon="9.372465629824605"><ele>953.0</ele><time>2026-04-28T11:11:38.939Z</time></trkpt><trkpt lat="39.80675486928263" lon="9.372861555426207"><ele>949.5</ele><time>2026-04-28T11:11:39.939Z</time></trkpt><trkpt lat="39.80665807777995" lon="9.373183912620249"><ele>946.0</ele><time>2026-04-28T11:11:40.939Z</time></trkpt><trkpt lat="39.80652396561923" lon="9.373444930372694"><ele>946.0</ele><time>2026-04-28T11:11:41.939Z</time></trkpt><trkpt lat="39.80634188612132" lon="9.373699128396302"><ele>946.0</ele><time>2026-04-28T11:11:42.939Z</time></trkpt><trkpt lat="39.80612059436759" lon="9.374000057100053"><ele>942.0</ele><time>2026-04-28T11:11:43.939Z</time></trkpt><trkpt lat="39.80587053367097" lon="9.374309814919025"><ele>938.0</ele><time>2026-04-28T11:11:44.939Z</time></trkpt><trkpt lat="39.805550244319015" lon="9.374628285143112"><ele>937.0</ele><time>2026-04-28T11:11:45.939Z</time></trkpt><trkpt lat="39.80520668737359" lon="9.374961498600436"><ele>936.0</ele><time>2026-04-28T11:11:46.939Z</time></trkpt><trkpt lat="39.80491006270907" lon="9.375254271490284"><ele>935.0</ele><time>2026-04-28T11:11:47.939Z</time></trkpt><trkpt lat="39.804633493600114" lon="9.375528169108984"><ele>934.0</ele><time>2026-04-28T11:11:48.939Z</time></trkpt><trkpt lat="39.804382477004694" lon="9.375787011008079"><ele>932.0</ele><time>2026-04-28T11:11:49.939Z</time></trkpt><trkpt lat="39.804151919481384" lon="9.376026165272961"><ele>930.0</ele><time>2026-04-28T11:11:50.939Z</time></trkpt><trkpt lat="39.80393242370936" lon="9.376278313767138"><ele>934.5</ele><time>2026-04-28T11:11:51.939Z</time></trkpt><trkpt lat="39.803731004968064" lon="9.376587884085419"><ele>939.0</ele><time>2026-04-28T11:11:52.939Z</time></trkpt><trkpt lat="39.80356464869309" lon="9.376926418639055"><ele>935.0</ele><time>2026-04-28T11:11:53.939Z</time></trkpt><trkpt lat="39.80344624422003" lon="9.377254857932114"><ele>931.0</ele><time>2026-04-28T11:11:54.939Z</time></trkpt><trkpt lat="39.803358891208404" lon="9.37754207298773"><ele>931.0</ele><time>2026-04-28T11:11:55.939Z</time></trkpt><trkpt lat="39.803282488040125" lon="9.377798593856333"><ele>931.0</ele><time>2026-04-28T11:11:56.939Z</time></trkpt><trkpt lat="39.80325149305053" lon="9.378080375219099"><ele>931.0</ele><time>2026-04-28T11:11:57.939Z</time></trkpt><trkpt lat="39.803282436030614" lon="9.378416561997424"><ele>930.0</ele><time>2026-04-28T11:11:58.939Z</time></trkpt><trkpt lat="39.80336570181544" lon="9.3787912328268"><ele>929.0</ele><time>2026-04-28T11:11:59.939Z</time></trkpt><trkpt lat="39.80347760750087" lon="9.379142302738469"><ele>925.3333333333334</ele><time>2026-04-28T11:12:00.938Z</time></trkpt><trkpt lat="39.80357135040001" lon="9.379415526017498"><ele>921.6666666666667</ele><time>2026-04-28T11:12:01.938Z</time></trkpt><trkpt lat="39.803685297760765" lon="9.379603283428011"><ele>918.0</ele><time>2026-04-28T11:12:02.938Z</time></trkpt><trkpt lat="39.803847555480615" lon="9.379744753163662"><ele>918.0</ele><time>2026-04-28T11:12:03.938Z</time></trkpt><trkpt lat="39.80408303353749" lon="9.379825707032676"><ele>918.0</ele><time>2026-04-28T11:12:04.938Z</time></trkpt><trkpt lat="39.80435074909612" lon="9.379837136549412"><ele>917.0</ele><time>2026-04-28T11:12:05.938Z</time></trkpt><trkpt lat="39.804649921941376" lon="9.379773316760092"><ele>916.0</ele><time>2026-04-28T11:12:06.938Z</time></trkpt><trkpt lat="39.80492788249671" lon="9.379710853461754"><ele>916.0</ele><time>2026-04-28T11:12:07.938Z</time></trkpt><trkpt lat="39.80515269534549" lon="9.379701691894168"><ele>916.0</ele><time>2026-04-28T11:12:08.938Z</time></trkpt><trkpt lat="39.80535249910575" lon="9.379769633034304"><ele>916.0</ele><time>2026-04-28T11:12:09.938Z</time></trkpt><trkpt lat="39.80553954140825" lon="9.379943534384473"><ele>918.5</ele><time>2026-04-28T11:12:10.938Z</time></trkpt><trkpt lat="39.80570074429527" lon="9.380204904846138"><ele>921.0</ele><time>2026-04-28T11:12:11.938Z</time></trkpt><trkpt lat="39.805831640579136" lon="9.380527180790173"><ele>921.0</ele><time>2026-04-28T11:12:12.938Z</time></trkpt><trkpt lat="39.8059094275007" lon="9.380914523411585"><ele>921.0</ele><time>2026-04-28T11:12:13.938Z</time></trkpt><trkpt lat="39.8059682582931" lon="9.381307179547724"><ele>927.0</ele><time>2026-04-28T11:12:14.938Z</time></trkpt><trkpt lat="39.80603576372372" lon="9.381614418812518"><ele>933.0</ele><time>2026-04-28T11:12:15.938Z</time></trkpt><trkpt lat="39.806072852593594" lon="9.38180889658396"><ele>939.0</ele><time>2026-04-28T11:12:16.938Z</time></trkpt><trkpt lat="39.80604336631609" lon="9.382020875291378"><ele>929.5</ele><time>2026-04-28T11:12:17.938Z</time></trkpt><trkpt lat="39.805905826397606" lon="9.382249678084959"><ele>920.0</ele><time>2026-04-28T11:12:18.938Z</time></trkpt><trkpt lat="39.80572345679471" lon="9.382498385091708"><ele>920.0</ele><time>2026-04-28T11:12:19.938Z</time></trkpt><trkpt lat="39.8054746103543" lon="9.382708512038453"><ele>920.0</ele><time>2026-04-28T11:12:20.938Z</time></trkpt><trkpt lat="39.805196552692614" lon="9.382917471860498"><ele>917.5</ele><time>2026-04-28T11:12:21.938Z</time></trkpt><trkpt lat="39.80495606129813" lon="9.383190983018395"><ele>915.0</ele><time>2026-04-28T11:12:22.938Z</time></trkpt><trkpt lat="39.804759319159785" lon="9.383517710472324"><ele>915.0</ele><time>2026-04-28T11:12:23.938Z</time></trkpt><trkpt lat="39.80457577909908" lon="9.383775283986912"><ele>915.0</ele><time>2026-04-28T11:12:24.938Z</time></trkpt><trkpt lat="39.804409802045875" lon="9.383965192524856"><ele>911.3333333333333</ele><time>2026-04-28T11:12:25.938Z</time></trkpt><trkpt lat="39.80428857714828" lon="9.384141133963041"><ele>907.6666666666666</ele><time>2026-04-28T11:12:26.938Z</time></trkpt><trkpt lat="39.80423496799925" lon="9.38437973259024"><ele>904.0</ele><time>2026-04-28T11:12:27.938Z</time></trkpt><trkpt lat="39.80425817822173" lon="9.384657588531402"><ele>906.5</ele><time>2026-04-28T11:12:28.938Z</time></trkpt><trkpt lat="39.80433379202737" lon="9.384925979374056"><ele>909.0</ele><time>2026-04-28T11:12:29.938Z</time></trkpt><trkpt lat="39.80449814361933" lon="9.385223457751607"><ele>903.0</ele><time>2026-04-28T11:12:30.938Z</time></trkpt><trkpt lat="39.80468997414234" lon="9.385582802814366"><ele>897.0</ele><time>2026-04-28T11:12:31.938Z</time></trkpt><trkpt lat="39.804881432454174" lon="9.385972320435098"><ele>894.0</ele><time>2026-04-28T11:12:32.938Z</time></trkpt><trkpt lat="39.80506437199211" lon="9.386370545817442"><ele>891.0</ele><time>2026-04-28T11:12:33.938Z</time></trkpt><trkpt lat="39.80522815177112" lon="9.386747180847363"><ele>891.0</ele><time>2026-04-28T11:12:34.938Z</time></trkpt><trkpt lat="39.805344655729414" lon="9.387062639449931"><ele>891.0</ele><time>2026-04-28T11:12:35.938Z</time></trkpt><trkpt lat="39.80542689812449" lon="9.387353198406245"><ele>887.3333333333333</ele><time>2026-04-28T11:12:36.938Z</time></trkpt><trkpt lat="39.80545628366782" lon="9.387611675978054"><ele>883.6666666666666</ele><time>2026-04-28T11:12:37.938Z</time></trkpt><trkpt lat="39.80542041709243" lon="9.387871187878007"><ele>880.0</ele><time>2026-04-28T11:12:38.938Z</time></trkpt><trkpt lat="39.80528415506823" lon="9.388149851944094"><ele>878.0</ele><time>2026-04-28T11:12:39.939Z</time></trkpt><trkpt lat="39.80507579374368" lon="9.38845766122479"><ele>876.0</ele><time>2026-04-28T11:12:40.939Z</time></trkpt><trkpt lat="39.80482328586213" lon="9.388769670717117"><ele>876.0</ele><time>2026-04-28T11:12:41.939Z</time></trkpt><trkpt lat="39.804506374439306" lon="9.389083949893818"><ele>876.0</ele><time>2026-04-28T11:12:42.939Z</time></trkpt><trkpt lat="39.80420024195709" lon="9.389375001216266"><ele>872.5</ele><time>2026-04-28T11:12:43.939Z</time></trkpt><trkpt lat="39.803947363697304" lon="9.389640059238456"><ele>869.0</ele><time>2026-04-28T11:12:44.939Z</time></trkpt><trkpt lat="39.803767999764794" lon="9.389823352574975"><ele>869.0</ele><time>2026-04-28T11:12:45.94Z</time></trkpt><trkpt lat="39.803658991858484" lon="9.389946703395282"><ele>869.0</ele><time>2026-04-28T11:12:46.939Z</time></trkpt><trkpt lat="39.80359371371727" lon="9.390055689702104"><ele>869.0</ele><time>2026-04-28T11:12:47.939Z</time></trkpt><trkpt lat="39.80359664146973" lon="9.390213128622568"><ele>869.0</ele><time>2026-04-28T11:12:48.939Z</time></trkpt><trkpt lat="39.80368010429403" lon="9.390416310351771"><ele>866.0</ele><time>2026-04-28T11:12:49.939Z</time></trkpt><trkpt lat="39.80380395210559" lon="9.390685268642807"><ele>863.0</ele><time>2026-04-28T11:12:50.939Z</time></trkpt><trkpt lat="39.803874560843894" lon="9.390977727495322"><ele>863.0</ele><time>2026-04-28T11:12:51.939Z</time></trkpt><trkpt lat="39.8038466166647" lon="9.391279391946853"><ele>863.0</ele><time>2026-04-28T11:12:52.939Z</time></trkpt><trkpt lat="39.80378027750168" lon="9.391518679233416"><ele>863.0</ele><time>2026-04-28T11:12:53.939Z</time></trkpt><trkpt lat="39.80376948396338" lon="9.391676189261835"><ele>859.5</ele><time>2026-04-28T11:12:54.939Z</time></trkpt><trkpt lat="39.803842174276554" lon="9.3917594265357"><ele>856.0</ele><time>2026-04-28T11:12:55.939Z</time></trkpt><trkpt lat="39.80397352225699" lon="9.391785436968854"><ele>852.5</ele><time>2026-04-28T11:12:56.939Z</time></trkpt><trkpt lat="39.80418070962247" lon="9.3917478626099"><ele>849.0</ele><time>2026-04-28T11:12:57.939Z</time></trkpt><trkpt lat="39.80445202927811" lon="9.391691286121219"><ele>844.0</ele><time>2026-04-28T11:12:58.939Z</time></trkpt><trkpt lat="39.80471317903539" lon="9.391631199003527"><ele>839.0</ele><time>2026-04-28T11:12:59.939Z</time></trkpt><trkpt lat="39.80491321080719" lon="9.391526890226826"><ele>839.0</ele><time>2026-04-28T11:13:00.939Z</time></trkpt><trkpt lat="39.805054132828026" lon="9.391347535340437"><ele>839.0</ele><time>2026-04-28T11:13:01.939Z</time></trkpt><trkpt lat="39.80515694085373" lon="9.39116339855589"><ele>839.0</ele><time>2026-04-28T11:13:02.939Z</time></trkpt><trkpt lat="39.80524218432871" lon="9.39106067143606"><ele>841.3333333333334</ele><time>2026-04-28T11:13:03.939Z</time></trkpt><trkpt lat="39.80538132564132" lon="9.391057458119203"><ele>843.6666666666667</ele><time>2026-04-28T11:13:04.939Z</time></trkpt><trkpt lat="39.80557040329201" lon="9.39115087352695"><ele>846.0</ele><time>2026-04-28T11:13:05.939Z</time></trkpt><trkpt lat="39.805758750070645" lon="9.391232515592963"><ele>846.0</ele><time>2026-04-28T11:13:06.939Z</time></trkpt><trkpt lat="39.80592373229448" lon="9.391230001717732"><ele>846.0</ele><time>2026-04-28T11:13:07.939Z</time></trkpt><trkpt lat="39.80608908192667" lon="9.391138120251087"><ele>846.0</ele><time>2026-04-28T11:13:08.939Z</time></trkpt><trkpt lat="39.80623516957967" lon="9.391002420660445"><ele>843.3333333333333</ele><time>2026-04-28T11:13:09.939Z</time></trkpt><trkpt lat="39.806328034488985" lon="9.390780689676344"><ele>840.6666666666666</ele><time>2026-04-28T11:13:10.939Z</time></trkpt><trkpt lat="39.80641670538524" lon="9.390474142726028"><ele>838.0</ele><time>2026-04-28T11:13:11.939Z</time></trkpt><trkpt lat="39.80657646651555" lon="9.390158899641111"><ele>838.0</ele><time>2026-04-28T11:13:12.939Z</time></trkpt><trkpt lat="39.80675196934956" lon="9.389904635779681"><ele>838.0</ele><time>2026-04-28T11:13:13.938Z</time></trkpt><trkpt lat="39.80690110882941" lon="9.38967627941725"><ele>838.5</ele><time>2026-04-28T11:13:14.938Z</time></trkpt><trkpt lat="39.807012303260755" lon="9.389495854484867"><ele>839.0</ele><time>2026-04-28T11:13:15.938Z</time></trkpt><trkpt lat="39.8071031505468" lon="9.389385327059355"><ele>839.5</ele><time>2026-04-28T11:13:16.938Z</time></trkpt><trkpt lat="39.80719742462191" lon="9.389355039113898"><ele>840.0</ele><time>2026-04-28T11:13:17.938Z</time></trkpt><trkpt lat="39.80729410487355" lon="9.389418742785073"><ele>840.0</ele><time>2026-04-28T11:13:18.938Z</time></trkpt><trkpt lat="39.80735163277609" lon="9.389590343201776"><ele>840.0</ele><time>2026-04-28T11:13:19.938Z</time></trkpt><trkpt lat="39.80742044416032" lon="9.389716814014646"><ele>840.0</ele><time>2026-04-28T11:13:20.938Z</time></trkpt><trkpt lat="39.80729134453155" lon="9.390209012170951"><ele>836.5</ele><time>2026-04-28T11:13:21.938Z</time></trkpt><trkpt lat="39.80716035006624" lon="9.390489196356658"><ele>833.0</ele><time>2026-04-28T11:13:22.938Z</time></trkpt><trkpt lat="39.80705340147267" lon="9.390724118881717"><ele>831.3333333333334</ele><time>2026-04-28T11:13:23.938Z</time></trkpt><trkpt lat="39.80704722357851" lon="9.39096364881068"><ele>829.6666666666667</ele><time>2026-04-28T11:13:24.938Z</time></trkpt><trkpt lat="39.8070570599357" lon="9.391168548262948"><ele>828.0</ele><time>2026-04-28T11:13:25.938Z</time></trkpt><trkpt lat="39.807126207138424" lon="9.391328743711506"><ele>822.0</ele><time>2026-04-28T11:13:26.938Z</time></trkpt><trkpt lat="39.80723761619819" lon="9.391461951134227"><ele>816.0</ele><time>2026-04-28T11:13:27.938Z</time></trkpt><trkpt lat="39.80736667557847" lon="9.391453641451799"><ele>810.0</ele><time>2026-04-28T11:13:28.938Z</time></trkpt><trkpt lat="39.80752405162238" lon="9.391387848015958"><ele>804.0</ele><time>2026-04-28T11:13:29.938Z</time></trkpt><trkpt lat="39.80776180321449" lon="9.391202070606186"><ele>803.5</ele><time>2026-04-28T11:13:30.938Z</time></trkpt><trkpt lat="39.8080010665912" lon="9.390958700018976"><ele>803.0</ele><time>2026-04-28T11:13:31.938Z</time></trkpt><trkpt lat="39.80813739790986" lon="9.390661825635403"><ele>809.0</ele><time>2026-04-28T11:13:32.938Z</time></trkpt><trkpt lat="39.8082486867058" lon="9.390357070015025"><ele>815.0</ele><time>2026-04-28T11:13:33.938Z</time></trkpt><trkpt lat="39.80831337000234" lon="9.390010600117359"><ele>815.0</ele><time>2026-04-28T11:13:34.938Z</time></trkpt><trkpt lat="39.808359681333414" lon="9.389711712487554"><ele>815.0</ele><time>2026-04-28T11:13:35.938Z</time></trkpt><trkpt lat="39.80847216091139" lon="9.389530258517738"><ele>815.0</ele><time>2026-04-28T11:13:36.938Z</time></trkpt><trkpt lat="39.80865314071144" lon="9.389315274910585"><ele>816.6666666666667</ele><time>2026-04-28T11:13:37.938Z</time></trkpt><trkpt lat="39.80879690236464" lon="9.389085104770784"><ele>818.3333333333333</ele><time>2026-04-28T11:13:38.938Z</time></trkpt><trkpt lat="39.808924993081995" lon="9.38887387370274"><ele>820.0</ele><time>2026-04-28T11:13:39.938Z</time></trkpt><trkpt lat="39.80905867606238" lon="9.388759856263754"><ele>820.0</ele><time>2026-04-28T11:13:40.938Z</time></trkpt><trkpt lat="39.80921168283052" lon="9.388677471079202"><ele>820.0</ele><time>2026-04-28T11:13:41.938Z</time></trkpt><trkpt lat="39.80940311439626" lon="9.388611896004722"><ele>820.0</ele><time>2026-04-28T11:13:42.938Z</time></trkpt><trkpt lat="39.80961845065892" lon="9.388530165508083"><ele>809.0</ele><time>2026-04-28T11:13:43.938Z</time></trkpt><trkpt lat="39.80984251940152" lon="9.388387333544623"><ele>798.0</ele><time>2026-04-28T11:13:44.938Z</time></trkpt><trkpt lat="39.81007181106701" lon="9.388242907941441"><ele>798.0</ele><time>2026-04-28T11:13:45.938Z</time></trkpt><trkpt lat="39.810296866203124" lon="9.38808185826322"><ele>798.0</ele><time>2026-04-28T11:13:46.938Z</time></trkpt><trkpt lat="39.810563877552006" lon="9.387903615987895"><ele>798.0</ele><time>2026-04-28T11:13:47.938Z</time></trkpt><trkpt lat="39.81081381147306" lon="9.38774425556323"><ele>798.0</ele><time>2026-04-28T11:13:48.938Z</time></trkpt><trkpt lat="39.81105118012466" lon="9.387582113550355"><ele>787.0</ele><time>2026-04-28T11:13:49.938Z</time></trkpt><trkpt lat="39.81127226566584" lon="9.387418780959504"><ele>776.0</ele><time>2026-04-28T11:13:50.938Z</time></trkpt><trkpt lat="39.811465819530795" lon="9.387258364759408"><ele>781.6666666666667</ele><time>2026-04-28T11:13:51.938Z</time></trkpt><trkpt lat="39.811629378582126" lon="9.38705995281908"><ele>787.3333333333333</ele><time>2026-04-28T11:13:52.938Z</time></trkpt><trkpt lat="39.81175289270613" lon="9.386840146158784"><ele>793.0</ele><time>2026-04-28T11:13:53.938Z</time></trkpt><trkpt lat="39.81182228701249" lon="9.386691358678435"><ele>788.75</ele><time>2026-04-28T11:13:54.938Z</time></trkpt><trkpt lat="39.81189819198828" lon="9.386728769865416"><ele>784.5</ele><time>2026-04-28T11:13:56.938Z</time></trkpt><trkpt lat="39.811911686087846" lon="9.386861286180618"><ele>780.25</ele><time>2026-04-28T11:13:57.938Z</time></trkpt><trkpt lat="39.81182837891926" lon="9.387058203397876"><ele>776.0</ele><time>2026-04-28T11:13:58.938Z</time></trkpt><trkpt lat="39.81165876159761" lon="9.38729952554809"><ele>776.0</ele><time>2026-04-28T11:13:59.938Z</time></trkpt><trkpt lat="39.81147235670673" lon="9.387547629769621"><ele>776.0</ele><time>2026-04-28T11:14:00.938Z</time></trkpt><trkpt lat="39.81131427944948" lon="9.387750554472962"><ele>776.0</ele><time>2026-04-28T11:14:01.938Z</time></trkpt><trkpt lat="39.81114705097015" lon="9.38791362538379"><ele>776.0</ele><time>2026-04-28T11:14:02.938Z</time></trkpt><trkpt lat="39.810958480281215" lon="9.388028033531102"><ele>776.0</ele><time>2026-04-28T11:14:03.938Z</time></trkpt><trkpt lat="39.81080365035293" lon="9.388152659430064"><ele>775.3333333333334</ele><time>2026-04-28T11:14:04.938Z</time></trkpt><trkpt lat="39.81069718346089" lon="9.388405048735098"><ele>774.6666666666667</ele><time>2026-04-28T11:14:05.938Z</time></trkpt><trkpt lat="39.810564329943496" lon="9.38861813656836"><ele>774.0</ele><time>2026-04-28T11:14:06.938Z</time></trkpt><trkpt lat="39.81039929417888" lon="9.388797559655218"><ele>774.3333333333333</ele><time>2026-04-28T11:14:07.938Z</time></trkpt><trkpt lat="39.810254875800624" lon="9.388938977578329"><ele>774.6666666666666</ele><time>2026-04-28T11:14:08.938Z</time></trkpt><trkpt lat="39.81018406401701" lon="9.389151992981928"><ele>775.0</ele><time>2026-04-28T11:14:09.938Z</time></trkpt><trkpt lat="39.810118934459574" lon="9.389451551785916"><ele>769.5</ele><time>2026-04-28T11:14:10.938Z</time></trkpt><trkpt lat="39.81006544599215" lon="9.389774020320113"><ele>764.0</ele><time>2026-04-28T11:14:11.938Z</time></trkpt><trkpt lat="39.810006977816755" lon="9.390052941423075"><ele>764.0</ele><time>2026-04-28T11:14:12.938Z</time></trkpt><trkpt lat="39.8099460461459" lon="9.390273981503354"><ele>764.0</ele><time>2026-04-28T11:14:13.938Z</time></trkpt><trkpt lat="39.80984834755987" lon="9.390476101961712"><ele>764.0</ele><time>2026-04-28T11:14:14.938Z</time></trkpt><trkpt lat="39.80969575412718" lon="9.390651978346556"><ele>765.5</ele><time>2026-04-28T11:14:15.938Z</time></trkpt><trkpt lat="39.80948463463002" lon="9.390790333204444"><ele>767.0</ele><time>2026-04-28T11:14:16.938Z</time></trkpt><trkpt lat="39.809298200636555" lon="9.391009246267151"><ele>767.0</ele><time>2026-04-28T11:14:17.938Z</time></trkpt><trkpt lat="39.80915583201334" lon="9.391227904153984"><ele>767.0</ele><time>2026-04-28T11:14:18.938Z</time></trkpt><trkpt lat="39.80907203493834" lon="9.39137162679293"><ele>767.0</ele><time>2026-04-28T11:14:19.937Z</time></trkpt><trkpt lat="39.80901046834986" lon="9.391499824341185"><ele>763.8</ele><time>2026-04-28T11:14:20.937Z</time></trkpt><trkpt lat="39.80896604261" lon="9.391645037528294"><ele>760.6</ele><time>2026-04-28T11:14:21.937Z</time></trkpt><trkpt lat="39.80893335553071" lon="9.391781231774782"><ele>757.4</ele><time>2026-04-28T11:14:22.937Z</time></trkpt><trkpt lat="39.808926077307504" lon="9.391913041441603"><ele>754.1999999999999</ele><time>2026-04-28T11:14:23.937Z</time></trkpt><trkpt lat="39.808924303265705" lon="9.392042910621974"><ele>751.0</ele><time>2026-04-28T11:14:24.937Z</time></trkpt><trkpt lat="39.80891815634848" lon="9.392178780826375"><ele>749.4</ele><time>2026-04-28T11:14:25.937Z</time></trkpt><trkpt lat="39.8089035978894" lon="9.392317831211408"><ele>747.8</ele><time>2026-04-28T11:14:26.937Z</time></trkpt><trkpt lat="39.80888520793314" lon="9.392462578875811"><ele>746.1999999999999</ele><time>2026-04-28T11:14:27.937Z</time></trkpt><trkpt lat="39.808865584530984" lon="9.392603159273644"><ele>744.5999999999999</ele><time>2026-04-28T11:14:28.937Z</time></trkpt><trkpt lat="39.80883415578149" lon="9.392734218156468"><ele>743.0</ele><time>2026-04-28T11:14:29.937Z</time></trkpt><trkpt lat="39.80879125844301" lon="9.392849782876338"><ele>743.0</ele><time>2026-04-28T11:14:30.937Z</time></trkpt><trkpt lat="39.80874558538566" lon="9.392964455645151"><ele>743.0</ele><time>2026-04-28T11:14:31.937Z</time></trkpt><trkpt lat="39.808697888267844" lon="9.393072172002276"><ele>743.0</ele><time>2026-04-28T11:14:32.937Z</time></trkpt><trkpt lat="39.808651173452304" lon="9.393199904075399"><ele>743.0</ele><time>2026-04-28T11:14:33.937Z</time></trkpt><trkpt lat="39.80862932755633" lon="9.393325417148834"><ele>743.0</ele><time>2026-04-28T11:14:34.937Z</time></trkpt><trkpt lat="39.80859663856231" lon="9.393453831248362"><ele>741.4</ele><time>2026-04-28T11:14:35.937Z</time></trkpt><trkpt lat="39.80856894638748" lon="9.393587473035513"><ele>739.8</ele><time>2026-04-28T11:14:36.937Z</time></trkpt><trkpt lat="39.80855327218797" lon="9.393728183756927"><ele>738.2</ele><time>2026-04-28T11:14:37.937Z</time></trkpt><trkpt lat="39.808528929443376" lon="9.393865118339013"><ele>736.6</ele><time>2026-04-28T11:14:38.937Z</time></trkpt><trkpt lat="39.808521800546885" lon="9.394002045586115"><ele>735.0</ele><time>2026-04-28T11:14:39.937Z</time></trkpt><trkpt lat="39.80852109310349" lon="9.394138929683894"><ele>733.2</ele><time>2026-04-28T11:14:40.937Z</time></trkpt><trkpt lat="39.80853046058819" lon="9.394259955850742"><ele>731.4</ele><time>2026-04-28T11:14:41.937Z</time></trkpt><trkpt lat="39.8085369880642" lon="9.39439075156843"><ele>729.5999999999999</ele><time>2026-04-28T11:14:42.937Z</time></trkpt><trkpt lat="39.80853684551664" lon="9.394517317654131"><ele>727.8</ele><time>2026-04-28T11:14:43.937Z</time></trkpt><trkpt lat="39.808540201471146" lon="9.394636029703449"><ele>726.0</ele><time>2026-04-28T11:14:44.939Z</time></trkpt><trkpt lat="39.808540642648914" lon="9.394750625876597"><ele>725.1666666666666</ele><time>2026-04-28T11:14:45.938Z</time></trkpt><trkpt lat="39.80854678432744" lon="9.394852992731787"><ele>724.3333333333334</ele><time>2026-04-28T11:14:46.938Z</time></trkpt><trkpt lat="39.8085404601608" lon="9.394957800077782"><ele>723.5</ele><time>2026-04-28T11:14:47.939Z</time></trkpt><trkpt lat="39.80853049771835" lon="9.395057534077123"><ele>722.6666666666667</ele><time>2026-04-28T11:14:48.938Z</time></trkpt><trkpt lat="39.808515142847426" lon="9.39515760352211"><ele>721.8333333333334</ele><time>2026-04-28T11:14:49.938Z</time></trkpt><trkpt lat="39.80850440127829" lon="9.395260220020115"><ele>721.0</ele><time>2026-04-28T11:14:50.938Z</time></trkpt><trkpt lat="39.80849244297708" lon="9.39535969925781"><ele>723.6666666666667</ele><time>2026-04-28T11:14:51.938Z</time></trkpt><trkpt lat="39.808480187499306" lon="9.395463982578812"><ele>726.3333333333334</ele><time>2026-04-28T11:14:52.938Z</time></trkpt><trkpt lat="39.808462465337506" lon="9.395567275847577"><ele>729.0</ele><time>2026-04-28T11:14:53.938Z</time></trkpt><trkpt lat="39.80844615787733" lon="9.395664625966948"><ele>731.6666666666666</ele><time>2026-04-28T11:14:54.938Z</time></trkpt><trkpt lat="39.80842677401921" lon="9.395770635601709"><ele>734.3333333333333</ele><time>2026-04-28T11:14:55.938Z</time></trkpt><trkpt lat="39.80840245708942" lon="9.39586648672657"><ele>737.0</ele><time>2026-04-28T11:14:56.938Z</time></trkpt><trkpt lat="39.80837879809405" lon="9.395965754713338"><ele>737.0</ele><time>2026-04-28T11:14:57.938Z</time></trkpt><trkpt lat="39.80836339276027" lon="9.396064534282209"><ele>737.0</ele><time>2026-04-28T11:14:58.938Z</time></trkpt><trkpt lat="39.80834408678579" lon="9.396166743509863"><ele>737.0</ele><time>2026-04-28T11:14:59.938Z</time></trkpt><trkpt lat="39.808321047665665" lon="9.396265470253125"><ele>737.0</ele><time>2026-04-28T11:15:00.938Z</time></trkpt><trkpt lat="39.80830744938378" lon="9.396365765485154"><ele>737.0</ele><time>2026-04-28T11:15:01.938Z</time></trkpt><trkpt lat="39.80831180721441" lon="9.396464053464308"><ele>737.0</ele><time>2026-04-28T11:15:02.938Z</time></trkpt><trkpt lat="39.80832886978949" lon="9.396563721630965"><ele>736.0</ele><time>2026-04-28T11:15:03.938Z</time></trkpt><trkpt lat="39.80835908292603" lon="9.39667006327956"><ele>735.0</ele><time>2026-04-28T11:15:04.938Z</time></trkpt><trkpt lat="39.80838379807599" lon="9.396776540260802"><ele>734.0</ele><time>2026-04-28T11:15:05.938Z</time></trkpt><trkpt lat="39.80839979246589" lon="9.396875642053729"><ele>733.0</ele><time>2026-04-28T11:15:06.938Z</time></trkpt><trkpt lat="39.80841162717135" lon="9.396983513885768"><ele>732.0</ele><time>2026-04-28T11:15:07.938Z</time></trkpt><trkpt lat="39.80842362491387" lon="9.397085516781045"><ele>731.0</ele><time>2026-04-28T11:15:08.938Z</time></trkpt><trkpt lat="39.80841604505802" lon="9.39718909497009"><ele>730.5999999999999</ele><time>2026-04-28T11:15:09.938Z</time></trkpt><trkpt lat="39.808430750132864" lon="9.397303096083531"><ele>730.2</ele><time>2026-04-28T11:15:10.938Z</time></trkpt><trkpt lat="39.80844635651996" lon="9.39741945881488"><ele>729.8</ele><time>2026-04-28T11:15:11.938Z</time></trkpt><trkpt lat="39.80847568056025" lon="9.397537009545507"><ele>729.4000000000001</ele><time>2026-04-28T11:15:12.938Z</time></trkpt><trkpt lat="39.8085106140036" lon="9.397670472665329"><ele>729.0</ele><time>2026-04-28T11:15:13.938Z</time></trkpt><trkpt lat="39.808541950453815" lon="9.397802018613591"><ele>723.6</ele><time>2026-04-28T11:15:14.938Z</time></trkpt><trkpt lat="39.80856802763424" lon="9.397936341835747"><ele>718.2</ele><time>2026-04-28T11:15:15.938Z</time></trkpt><trkpt lat="39.80858652054118" lon="9.398069126446057"><ele>712.8000000000001</ele><time>2026-04-28T11:15:16.938Z</time></trkpt><trkpt lat="39.80860938668942" lon="9.398213187214514"><ele>707.4000000000001</ele><time>2026-04-28T11:15:17.938Z</time></trkpt><trkpt lat="39.8086090448056" lon="9.398354505510042"><ele>702.0</ele><time>2026-04-28T11:15:18.938Z</time></trkpt><trkpt lat="39.808610144537916" lon="9.398491264457379"><ele>702.0</ele><time>2026-04-28T11:15:19.938Z</time></trkpt><trkpt lat="39.80857418552558" lon="9.398632894156993"><ele>702.0</ele><time>2026-04-28T11:15:20.938Z</time></trkpt><trkpt lat="39.8085276655985" lon="9.39876620978116"><ele>702.0</ele><time>2026-04-28T11:15:21.938Z</time></trkpt><trkpt lat="39.80848198859906" lon="9.398887873933129"><ele>702.0</ele><time>2026-04-28T11:15:22.938Z</time></trkpt><trkpt lat="39.80844305186107" lon="9.398996088878317"><ele>702.0</ele><time>2026-04-28T11:15:23.938Z</time></trkpt><trkpt lat="39.80844590872947" lon="9.399093929303072"><ele>702.0</ele><time>2026-04-28T11:15:24.938Z</time></trkpt><trkpt lat="39.808501950619544" lon="9.399167661599222"><ele>702.0</ele><time>2026-04-28T11:15:25.937Z</time></trkpt><trkpt lat="39.80860140247559" lon="9.399155340407729"><ele>702.0</ele><time>2026-04-28T11:15:26.937Z</time></trkpt><trkpt lat="39.808691672653566" lon="9.399061285073211"><ele>702.0</ele><time>2026-04-28T11:15:27.937Z</time></trkpt><trkpt lat="39.808755509685675" lon="9.398930844034009"><ele>702.0</ele><time>2026-04-28T11:15:28.937Z</time></trkpt><trkpt lat="39.80879300761972" lon="9.398807146515331"><ele>702.0</ele><time>2026-04-28T11:15:29.937Z</time></trkpt><trkpt lat="39.80881585224664" lon="9.39867412893979"><ele>702.0</ele><time>2026-04-28T11:15:30.937Z</time></trkpt><trkpt lat="39.80882008875836" lon="9.398532977490994"><ele>702.0</ele><time>2026-04-28T11:15:31.937Z</time></trkpt><trkpt lat="39.808831703305884" lon="9.398383521387215"><ele>702.0</ele><time>2026-04-28T11:15:32.937Z</time></trkpt><trkpt lat="39.80883438700003" lon="9.398233624828745"><ele>702.0</ele><time>2026-04-28T11:15:33.937Z</time></trkpt><trkpt lat="39.80883809796584" lon="9.39808436029027"><ele>701.6</ele><time>2026-04-28T11:15:34.937Z</time></trkpt><trkpt lat="39.808844510225995" lon="9.397938966374747"><ele>701.2</ele><time>2026-04-28T11:15:35.937Z</time></trkpt><trkpt lat="39.80884425167004" lon="9.397797309024494"><ele>700.8</ele><time>2026-04-28T11:15:36.937Z</time></trkpt><trkpt lat="39.80884854267892" lon="9.397659884358337"><ele>700.4</ele><time>2026-04-28T11:15:37.937Z</time></trkpt><trkpt lat="39.80885545744825" lon="9.397521430799271"><ele>700.0</ele><time>2026-04-28T11:15:38.937Z</time></trkpt><trkpt lat="39.80885351112256" lon="9.397383747152887"><ele>700.0</ele><time>2026-04-28T11:15:39.937Z</time></trkpt><trkpt lat="39.8088604919687" lon="9.397245491437083"><ele>700.0</ele><time>2026-04-28T11:15:40.937Z</time></trkpt><trkpt lat="39.808865639581164" lon="9.397105337782678"><ele>700.0</ele><time>2026-04-28T11:15:41.937Z</time></trkpt><trkpt lat="39.80888233250407" lon="9.396961546585972"><ele>700.0</ele><time>2026-04-28T11:15:42.937Z</time></trkpt><trkpt lat="39.8089220044983" lon="9.396827630331922"><ele>700.0</ele><time>2026-04-28T11:15:43.937Z</time></trkpt><trkpt lat="39.808999896749164" lon="9.396718368855714"><ele>701.5</ele><time>2026-04-28T11:15:44.937Z</time></trkpt><trkpt lat="39.80908975328928" lon="9.396624174280939"><ele>703.0</ele><time>2026-04-28T11:15:45.937Z</time></trkpt><trkpt lat="39.80917257430211" lon="9.396534991410299"><ele>704.5</ele><time>2026-04-28T11:15:46.937Z</time></trkpt><trkpt lat="39.809251977806476" lon="9.396413158326574"><ele>706.0</ele><time>2026-04-28T11:15:47.937Z</time></trkpt><trkpt lat="39.80932227193442" lon="9.396286964526425"><ele>702.75</ele><time>2026-04-28T11:15:48.937Z</time></trkpt><trkpt lat="39.80938589959575" lon="9.396155227400765"><ele>699.5</ele><time>2026-04-28T11:15:49.937Z</time></trkpt><trkpt lat="39.80945130270087" lon="9.396028331302166"><ele>696.25</ele><time>2026-04-28T11:15:50.937Z</time></trkpt><trkpt lat="39.80950761308716" lon="9.395897437533034"><ele>693.0</ele><time>2026-04-28T11:15:51.937Z</time></trkpt><trkpt lat="39.80956680527349" lon="9.39577560703303"><ele>693.0</ele><time>2026-04-28T11:15:52.937Z</time></trkpt><trkpt lat="39.809631574132275" lon="9.395660520924888"><ele>693.0</ele><time>2026-04-28T11:15:53.937Z</time></trkpt><trkpt lat="39.80968703500836" lon="9.395545949321884"><ele>693.0</ele><time>2026-04-28T11:15:54.937Z</time></trkpt><trkpt lat="39.8097388962701" lon="9.395429358646014"><ele>693.0</ele><time>2026-04-28T11:15:55.937Z</time></trkpt><trkpt lat="39.809776493594775" lon="9.395304679722544"><ele>693.0</ele><time>2026-04-28T11:15:56.937Z</time></trkpt><trkpt lat="39.80980297296047" lon="9.395174630867064"><ele>694.2</ele><time>2026-04-28T11:15:57.937Z</time></trkpt><trkpt lat="39.809827207108654" lon="9.39504438227407"><ele>695.4</ele><time>2026-04-28T11:15:58.937Z</time></trkpt><trkpt lat="39.80984287728269" lon="9.394916898813475"><ele>696.6</ele><time>2026-04-28T11:15:59.937Z</time></trkpt><trkpt lat="39.80986328925143" lon="9.394786864525"><ele>697.8000000000001</ele><time>2026-04-28T11:16:00.937Z</time></trkpt><trkpt lat="39.80988238981304" lon="9.394660605468776"><ele>699.0</ele><time>2026-04-28T11:16:01.937Z</time></trkpt><trkpt lat="39.809913719054975" lon="9.394539673978514"><ele>700.0</ele><time>2026-04-28T11:16:02.937Z</time></trkpt><trkpt lat="39.809938405068394" lon="9.394417854705507"><ele>701.0</ele><time>2026-04-28T11:16:03.937Z</time></trkpt><trkpt lat="39.809963135764384" lon="9.394311034573382"><ele>702.0</ele><time>2026-04-28T11:16:04.937Z</time></trkpt><trkpt lat="39.8099928706633" lon="9.394214320341922"><ele>703.0</ele><time>2026-04-28T11:16:05.937Z</time></trkpt><trkpt lat="39.81002528688208" lon="9.394141544043746"><ele>704.0</ele><time>2026-04-28T11:16:06.937Z</time></trkpt><trkpt lat="39.81007854722712" lon="9.394025064578747"><ele>705.0</ele><time>2026-04-28T11:16:08.937Z</time></trkpt><trkpt lat="39.81010329125635" lon="9.393935568113438"><ele>705.0</ele><time>2026-04-28T11:16:10.937Z</time></trkpt></trkseg><trkseg><trkpt lat="39.810193630210904" lon="9.393773153733376"><ele>697.0</ele><time>2026-04-28T12:18:39.928Z</time></trkpt><trkpt lat="39.81028160310368" lon="9.393679154955267"><ele>697.0</ele><time>2026-04-28T12:18:41.928Z</time></trkpt><trkpt lat="39.81036292893665" lon="9.39357156562481"><ele>697.0</ele><time>2026-04-28T12:18:43.928Z</time></trkpt><trkpt lat="39.81046558639743" lon="9.393469222670127"><ele>697.0</ele><time>2026-04-28T12:18:45.928Z</time></trkpt><trkpt lat="39.81052570706908" lon="9.393428523046374"><ele>697.0</ele><time>2026-04-28T12:18:46.928Z</time></trkpt><trkpt lat="39.81057724443394" lon="9.393378331937496"><ele>697.0</ele><time>2026-04-28T12:18:47.928Z</time></trkpt><trkpt lat="39.81063364799488" lon="9.393328944676455"><ele>697.0</ele><time>2026-04-28T12:18:48.928Z</time></trkpt><trkpt lat="39.81069251984324" lon="9.393265320395919"><ele>697.0</ele><time>2026-04-28T12:18:49.928Z</time></trkpt><trkpt lat="39.81075083350489" lon="9.393203074510108"><ele>697.0</ele><time>2026-04-28T12:18:50.928Z</time></trkpt><trkpt lat="39.810804374722636" lon="9.39314225793324"><ele>697.0</ele><time>2026-04-28T12:18:51.928Z</time></trkpt><trkpt lat="39.81085747508092" lon="9.393072989708172"><ele>697.0</ele><time>2026-04-28T12:18:52.928Z</time></trkpt><trkpt lat="39.810911506775845" lon="9.392992193814322"><ele>697.0</ele><time>2026-04-28T12:18:53.928Z</time></trkpt><trkpt lat="39.810956831450646" lon="9.392907535493153"><ele>697.8</ele><time>2026-04-28T12:18:54.928Z</time></trkpt><trkpt lat="39.810988080198406" lon="9.392835296143762"><ele>698.6</ele><time>2026-04-28T12:18:55.928Z</time></trkpt><trkpt lat="39.8110377491997" lon="9.392683557936843"><ele>699.4</ele><time>2026-04-28T12:18:57.927Z</time></trkpt><trkpt lat="39.8110851073476" lon="9.392587413852652"><ele>700.1999999999999</ele><time>2026-04-28T12:18:58.928Z</time></trkpt><trkpt lat="39.81112988582212" lon="9.39248405449026"><ele>701.0</ele><time>2026-04-28T12:18:59.928Z</time></trkpt><trkpt lat="39.8111698584736" lon="9.39236285423463"><ele>699.5999999999999</ele><time>2026-04-28T12:19:00.928Z</time></trkpt><trkpt lat="39.81123448784592" lon="9.392286590455393"><ele>698.2</ele><time>2026-04-28T12:19:01.928Z</time></trkpt><trkpt lat="39.811314036569236" lon="9.392200825691807"><ele>696.8</ele><time>2026-04-28T12:19:02.927Z</time></trkpt><trkpt lat="39.811388829801025" lon="9.392116456950513"><ele>695.4000000000001</ele><time>2026-04-28T12:19:03.927Z</time></trkpt><trkpt lat="39.81146912048658" lon="9.392056313293567"><ele>694.0</ele><time>2026-04-28T12:19:04.928Z</time></trkpt><trkpt lat="39.81153580612271" lon="9.391991048225183"><ele>694.0</ele><time>2026-04-28T12:19:05.927Z</time></trkpt><trkpt lat="39.81159745859045" lon="9.391923102325693"><ele>694.0</ele><time>2026-04-28T12:19:06.927Z</time></trkpt><trkpt lat="39.811663567189456" lon="9.391846725365918"><ele>694.0</ele><time>2026-04-28T12:19:07.927Z</time></trkpt><trkpt lat="39.81172926162601" lon="9.391764511951617"><ele>694.0</ele><time>2026-04-28T12:19:08.927Z</time></trkpt><trkpt lat="39.811808817275" lon="9.39169171213346"><ele>694.0</ele><time>2026-04-28T12:19:09.927Z</time></trkpt><trkpt lat="39.81191058056557" lon="9.39167178778579"><ele>691.0</ele><time>2026-04-28T12:19:10.927Z</time></trkpt><trkpt lat="39.81201362462803" lon="9.391699447363242"><ele>688.0</ele><time>2026-04-28T12:19:11.927Z</time></trkpt><trkpt lat="39.81210502663692" lon="9.391728805601673"><ele>685.0</ele><time>2026-04-28T12:19:12.927Z</time></trkpt><trkpt lat="39.81220037603007" lon="9.391699022144145"><ele>682.0</ele><time>2026-04-28T12:19:13.927Z</time></trkpt><trkpt lat="39.81228363133063" lon="9.391603343248539"><ele>679.0</ele><time>2026-04-28T12:19:14.927Z</time></trkpt><trkpt lat="39.81234930490479" lon="9.391490846218046"><ele>679.0</ele><time>2026-04-28T12:19:15.927Z</time></trkpt><trkpt lat="39.812430998310624" lon="9.391397179810221"><ele>679.0</ele><time>2026-04-28T12:19:16.927Z</time></trkpt><trkpt lat="39.81252077377569" lon="9.391322085626193"><ele>679.0</ele><time>2026-04-28T12:19:17.927Z</time></trkpt><trkpt lat="39.81262200119793" lon="9.391270509647013"><ele>679.0</ele><time>2026-04-28T12:19:18.927Z</time></trkpt><trkpt lat="39.812741207447374" lon="9.39125208468865"><ele>679.0</ele><time>2026-04-28T12:19:19.927Z</time></trkpt><trkpt lat="39.81285165445394" lon="9.391219214527528"><ele>677.0</ele><time>2026-04-28T12:19:20.927Z</time></trkpt><trkpt lat="39.812953923803335" lon="9.391168156581072"><ele>675.0</ele><time>2026-04-28T12:19:21.927Z</time></trkpt><trkpt lat="39.81304672090689" lon="9.391090386501384"><ele>673.0</ele><time>2026-04-28T12:19:22.927Z</time></trkpt><trkpt lat="39.81310150013005" lon="9.390983482300841"><ele>671.0</ele><time>2026-04-28T12:19:23.927Z</time></trkpt><trkpt lat="39.81313074129699" lon="9.390849947869121"><ele>669.0</ele><time>2026-04-28T12:19:24.927Z</time></trkpt><trkpt lat="39.81311210939944" lon="9.390701389003667"><ele>669.0</ele><time>2026-04-28T12:19:25.927Z</time></trkpt><trkpt lat="39.813099774010496" lon="9.39055489592688"><ele>669.0</ele><time>2026-04-28T12:19:26.927Z</time></trkpt><trkpt lat="39.81309826264347" lon="9.390411684306368"><ele>669.0</ele><time>2026-04-28T12:19:27.927Z</time></trkpt><trkpt lat="39.81313111020444" lon="9.390269572530102"><ele>669.0</ele><time>2026-04-28T12:19:28.927Z</time></trkpt><trkpt lat="39.81319566579712" lon="9.390128543150407"><ele>670.4000000000001</ele><time>2026-04-28T12:19:29.927Z</time></trkpt><trkpt lat="39.81326380345484" lon="9.390017198191822"><ele>671.8</ele><time>2026-04-28T12:19:30.927Z</time></trkpt><trkpt lat="39.8133374929258" lon="9.389902553017269"><ele>673.2</ele><time>2026-04-28T12:19:31.927Z</time></trkpt><trkpt lat="39.81340993515513" lon="9.389800703008197"><ele>674.5999999999999</ele><time>2026-04-28T12:19:32.927Z</time></trkpt><trkpt lat="39.81350165548893" lon="9.389749706770461"><ele>676.0</ele><time>2026-04-28T12:19:33.927Z</time></trkpt><trkpt lat="39.81361453903176" lon="9.389746871882114"><ele>676.0</ele><time>2026-04-28T12:19:34.927Z</time></trkpt><trkpt lat="39.813728297600875" lon="9.389780128143268"><ele>676.0</ele><time>2026-04-28T12:19:35.927Z</time></trkpt><trkpt lat="39.81384139134356" lon="9.389810233335238"><ele>676.0</ele><time>2026-04-28T12:19:36.927Z</time></trkpt><trkpt lat="39.81395115596717" lon="9.389856943755793"><ele>676.0</ele><time>2026-04-28T12:19:37.927Z</time></trkpt><trkpt lat="39.8140652283436" lon="9.3899393975972"><ele>676.0</ele><time>2026-04-28T12:19:38.927Z</time></trkpt><trkpt lat="39.81416502595578" lon="9.390038273292623"><ele>676.0</ele><time>2026-04-28T12:19:39.927Z</time></trkpt><trkpt lat="39.81426841607497" lon="9.390133429995108"><ele>676.0</ele><time>2026-04-28T12:19:40.927Z</time></trkpt><trkpt lat="39.81438048836288" lon="9.390208745359303"><ele>676.0</ele><time>2026-04-28T12:19:41.927Z</time></trkpt><trkpt lat="39.8144973923367" lon="9.390252854840428"><ele>676.25</ele><time>2026-04-28T12:19:42.927Z</time></trkpt><trkpt lat="39.81462434607571" lon="9.390280569171038"><ele>676.5</ele><time>2026-04-28T12:19:43.927Z</time></trkpt><trkpt lat="39.81473134429337" lon="9.390270883512867"><ele>676.75</ele><time>2026-04-28T12:19:44.927Z</time></trkpt><trkpt lat="39.81482974481438" lon="9.390252916642295"><ele>677.0</ele><time>2026-04-28T12:19:45.927Z</time></trkpt><trkpt lat="39.81494174599464" lon="9.390221997657422"><ele>677.0</ele><time>2026-04-28T12:19:46.927Z</time></trkpt><trkpt lat="39.81504003004444" lon="9.390188708434522"><ele>677.0</ele><time>2026-04-28T12:19:47.927Z</time></trkpt><trkpt lat="39.81514703028551" lon="9.390173891485665"><ele>677.0</ele><time>2026-04-28T12:19:48.927Z</time></trkpt><trkpt lat="39.815236340737606" lon="9.390150435627978"><ele>677.0</ele><time>2026-04-28T12:19:49.927Z</time></trkpt><trkpt lat="39.815342618013716" lon="9.390153137899391"><ele>677.0</ele><time>2026-04-28T12:19:50.927Z</time></trkpt><trkpt lat="39.815459715701174" lon="9.39015992144665"><ele>675.6</ele><time>2026-04-28T12:19:51.927Z</time></trkpt><trkpt lat="39.815569719330234" lon="9.3901395326616"><ele>674.2</ele><time>2026-04-28T12:19:52.927Z</time></trkpt><trkpt lat="39.815682453327774" lon="9.390096983120918"><ele>672.8</ele><time>2026-04-28T12:19:53.927Z</time></trkpt><trkpt lat="39.815767720470234" lon="9.390015169114148"><ele>671.4</ele><time>2026-04-28T12:19:54.927Z</time></trkpt><trkpt lat="39.81584942622488" lon="9.389912596045876"><ele>670.0</ele><time>2026-04-28T12:19:55.927Z</time></trkpt><trkpt lat="39.81590834841298" lon="9.389819042861362"><ele>677.0</ele><time>2026-04-28T12:19:56.927Z</time></trkpt><trkpt lat="39.81600190096883" lon="9.389826107162865"><ele>684.0</ele><time>2026-04-28T12:19:57.927Z</time></trkpt><trkpt lat="39.8160923846616" lon="9.38990201012601"><ele>691.0</ele><time>2026-04-28T12:19:58.927Z</time></trkpt><trkpt lat="39.81617217044757" lon="9.390026999901695"><ele>698.0</ele><time>2026-04-28T12:19:59.926Z</time></trkpt><trkpt lat="39.81622082121069" lon="9.39017655362062"><ele>698.0</ele><time>2026-04-28T12:20:00.926Z</time></trkpt><trkpt lat="39.816231862783475" lon="9.390342707075968"><ele>698.0</ele><time>2026-04-28T12:20:01.926Z</time></trkpt><trkpt lat="39.81623949255272" lon="9.390505314394657"><ele>698.0</ele><time>2026-04-28T12:20:02.926Z</time></trkpt><trkpt lat="39.816216275423656" lon="9.39066423120092"><ele>698.0</ele><time>2026-04-28T12:20:03.926Z</time></trkpt><trkpt lat="39.8162132958853" lon="9.390820699372046"><ele>697.75</ele><time>2026-04-28T12:20:04.926Z</time></trkpt><trkpt lat="39.81623903963099" lon="9.39097729582373"><ele>697.5</ele><time>2026-04-28T12:20:05.926Z</time></trkpt><trkpt lat="39.816247277082965" lon="9.39112142469304"><ele>697.25</ele><time>2026-04-28T12:20:06.926Z</time></trkpt><trkpt lat="39.81619489504235" lon="9.391248269855966"><ele>697.0</ele><time>2026-04-28T12:20:07.926Z</time></trkpt><trkpt lat="39.81609462602714" lon="9.391349263189143"><ele>697.0</ele><time>2026-04-28T12:20:08.926Z</time></trkpt><trkpt lat="39.81601600646255" lon="9.39146040682372"><ele>697.0</ele><time>2026-04-28T12:20:09.926Z</time></trkpt><trkpt lat="39.81596066001184" lon="9.391600564609677"><ele>697.0</ele><time>2026-04-28T12:20:10.926Z</time></trkpt><trkpt lat="39.81592865527117" lon="9.39175845887146"><ele>697.0</ele><time>2026-04-28T12:20:11.926Z</time></trkpt><trkpt lat="39.81589709738163" lon="9.391936051441908"><ele>685.75</ele><time>2026-04-28T12:20:12.926Z</time></trkpt><trkpt lat="39.81586159703988" lon="9.392104280829047"><ele>674.5</ele><time>2026-04-28T12:20:13.926Z</time></trkpt><trkpt lat="39.815811486850556" lon="9.392273492832054"><ele>663.25</ele><time>2026-04-28T12:20:14.926Z</time></trkpt><trkpt lat="39.81576696991784" lon="9.392441493412786"><ele>652.0</ele><time>2026-04-28T12:20:15.926Z</time></trkpt><trkpt lat="39.81571910542102" lon="9.392613487272019"><ele>652.0</ele><time>2026-04-28T12:20:16.926Z</time></trkpt><trkpt lat="39.815667954738956" lon="9.39278176778001"><ele>652.0</ele><time>2026-04-28T12:20:17.926Z</time></trkpt><trkpt lat="39.815625440273216" lon="9.392956780437006"><ele>652.0</ele><time>2026-04-28T12:20:18.926Z</time></trkpt><trkpt lat="39.81563330464134" lon="9.393146251856615"><ele>652.0</ele><time>2026-04-28T12:20:19.926Z</time></trkpt><trkpt lat="39.815669090832" lon="9.393331825049536"><ele>652.5</ele><time>2026-04-28T12:20:20.926Z</time></trkpt><trkpt lat="39.81570471090823" lon="9.393515086802042"><ele>653.0</ele><time>2026-04-28T12:20:21.926Z</time></trkpt><trkpt lat="39.815721012020276" lon="9.393699552440719"><ele>653.5</ele><time>2026-04-28T12:20:22.926Z</time></trkpt><trkpt lat="39.81573931038079" lon="9.393882661205579"><ele>654.0</ele><time>2026-04-28T12:20:23.926Z</time></trkpt><trkpt lat="39.81577511215196" lon="9.394059783781755"><ele>650.5</ele><time>2026-04-28T12:20:24.926Z</time></trkpt><trkpt lat="39.8158424138296" lon="9.394228976129908"><ele>647.0</ele><time>2026-04-28T12:20:25.926Z</time></trkpt><trkpt lat="39.81592375488873" lon="9.394377934529262"><ele>643.5</ele><time>2026-04-28T12:20:26.926Z</time></trkpt><trkpt lat="39.8159962044019" lon="9.394542133002144"><ele>640.0</ele><time>2026-04-28T12:20:27.926Z</time></trkpt><trkpt lat="39.81599824504665" lon="9.394706851750202"><ele>640.5</ele><time>2026-04-28T12:20:28.926Z</time></trkpt><trkpt lat="39.81591897817747" lon="9.394867378147959"><ele>641.0</ele><time>2026-04-28T12:20:29.926Z</time></trkpt><trkpt lat="39.815834394034475" lon="9.395028678002392"><ele>641.5</ele><time>2026-04-28T12:20:30.926Z</time></trkpt><trkpt lat="39.81577468714267" lon="9.395206080721515"><ele>642.0</ele><time>2026-04-28T12:20:31.926Z</time></trkpt><trkpt lat="39.81571711065168" lon="9.395391349139555"><ele>646.0</ele><time>2026-04-28T12:20:32.926Z</time></trkpt><trkpt lat="39.815660253652574" lon="9.395582076594136"><ele>650.0</ele><time>2026-04-28T12:20:33.926Z</time></trkpt><trkpt lat="39.815595598951155" lon="9.395774944489625"><ele>654.0</ele><time>2026-04-28T12:20:34.926Z</time></trkpt><trkpt lat="39.81552351311602" lon="9.395971290249959"><ele>654.0</ele><time>2026-04-28T12:20:35.926Z</time></trkpt><trkpt lat="39.81543376282427" lon="9.396153266859805"><ele>654.0</ele><time>2026-04-28T12:20:36.926Z</time></trkpt><trkpt lat="39.81533122990122" lon="9.396318571470342"><ele>654.0</ele><time>2026-04-28T12:20:37.926Z</time></trkpt><trkpt lat="39.81524349869131" lon="9.39649339793285"><ele>660.0</ele><time>2026-04-28T12:20:38.926Z</time></trkpt><trkpt lat="39.815198709093224" lon="9.3966782147936"><ele>666.0</ele><time>2026-04-28T12:20:39.926Z</time></trkpt><trkpt lat="39.815205250029436" lon="9.396876810269388"><ele>672.0</ele><time>2026-04-28T12:20:40.926Z</time></trkpt><trkpt lat="39.815218671070014" lon="9.397079159121787"><ele>677.0</ele><time>2026-04-28T12:20:41.926Z</time></trkpt><trkpt lat="39.81520180746338" lon="9.397274502989596"><ele>682.0</ele><time>2026-04-28T12:20:42.926Z</time></trkpt><trkpt lat="39.81518467786328" lon="9.39747722702134"><ele>687.0</ele><time>2026-04-28T12:20:43.926Z</time></trkpt><trkpt lat="39.815185721260605" lon="9.397694271253876"><ele>687.0</ele><time>2026-04-28T12:20:44.926Z</time></trkpt><trkpt lat="39.81518681695383" lon="9.397916336522657"><ele>687.0</ele><time>2026-04-28T12:20:45.926Z</time></trkpt><trkpt lat="39.81517091147413" lon="9.398142507488332"><ele>687.0</ele><time>2026-04-28T12:20:46.926Z</time></trkpt><trkpt lat="39.81514396909035" lon="9.398374321727685"><ele>667.0</ele><time>2026-04-28T12:20:47.926Z</time></trkpt><trkpt lat="39.81511965773419" lon="9.398600538345786"><ele>647.0</ele><time>2026-04-28T12:20:48.926Z</time></trkpt><trkpt lat="39.81510592419953" lon="9.398816872377566"><ele>627.0</ele><time>2026-04-28T12:20:49.926Z</time></trkpt><trkpt lat="39.81508979555577" lon="9.399022281452849"><ele>625.6666666666666</ele><time>2026-04-28T12:20:50.926Z</time></trkpt><trkpt lat="39.81508534400193" lon="9.39921236494062"><ele>624.3333333333333</ele><time>2026-04-28T12:20:51.926Z</time></trkpt><trkpt lat="39.815108343532835" lon="9.399397855844331"><ele>623.0</ele><time>2026-04-28T12:20:52.926Z</time></trkpt><trkpt lat="39.81517788854622" lon="9.39958469865706"><ele>629.3333333333333</ele><time>2026-04-28T12:20:53.926Z</time></trkpt><trkpt lat="39.815264449144806" lon="9.399757345719696"><ele>635.6666666666666</ele><time>2026-04-28T12:20:54.926Z</time></trkpt><trkpt lat="39.815358017093615" lon="9.399940270507186"><ele>642.0</ele><time>2026-04-28T12:20:55.926Z</time></trkpt><trkpt lat="39.81546853919998" lon="9.40010948389409"><ele>642.0</ele><time>2026-04-28T12:20:56.926Z</time></trkpt><trkpt lat="39.81558937119948" lon="9.400269960111924"><ele>642.0</ele><time>2026-04-28T12:20:57.926Z</time></trkpt><trkpt lat="39.81571830873432" lon="9.400421694954002"><ele>642.0</ele><time>2026-04-28T12:20:58.926Z</time></trkpt><trkpt lat="39.81586349568855" lon="9.40055082489592"><ele>644.0</ele><time>2026-04-28T12:20:59.926Z</time></trkpt><trkpt lat="39.816020720817384" lon="9.400635395400128"><ele>646.0</ele><time>2026-04-28T12:21:00.926Z</time></trkpt><trkpt lat="39.81616906802365" lon="9.4007289439609"><ele>648.0</ele><time>2026-04-28T12:21:01.925Z</time></trkpt><trkpt lat="39.81627908062102" lon="9.400883209594639"><ele>648.0</ele><time>2026-04-28T12:21:02.925Z</time></trkpt><trkpt lat="39.81633640770881" lon="9.401081789316931"><ele>648.0</ele><time>2026-04-28T12:21:03.925Z</time></trkpt><trkpt lat="39.81638685743701" lon="9.401275663935591"><ele>648.0</ele><time>2026-04-28T12:21:04.925Z</time></trkpt><trkpt lat="39.816479311538664" lon="9.401442935313863"><ele>638.6666666666666</ele><time>2026-04-28T12:21:05.924Z</time></trkpt><trkpt lat="39.81659518509614" lon="9.401574151915248"><ele>629.3333333333333</ele><time>2026-04-28T12:21:06.924Z</time></trkpt><trkpt lat="39.816722548527196" lon="9.401695283758208"><ele>620.0</ele><time>2026-04-28T12:21:07.925Z</time></trkpt><trkpt lat="39.81679799394317" lon="9.40186449808487"><ele>625.3333333333333</ele><time>2026-04-28T12:21:08.924Z</time></trkpt><trkpt lat="39.81683658445557" lon="9.402052123573974"><ele>630.6666666666666</ele><time>2026-04-28T12:21:09.924Z</time></trkpt><trkpt lat="39.81685744540639" lon="9.402251205116332"><ele>636.0</ele><time>2026-04-28T12:21:10.925Z</time></trkpt><trkpt lat="39.81683033284433" lon="9.402457989569244"><ele>636.0</ele><time>2026-04-28T12:21:11.924Z</time></trkpt><trkpt lat="39.816813031231135" lon="9.40264032555068"><ele>636.0</ele><time>2026-04-28T12:21:12.924Z</time></trkpt><trkpt lat="39.8168428437053" lon="9.402801353092157"><ele>636.0</ele><time>2026-04-28T12:21:13.925Z</time></trkpt><trkpt lat="39.816910491642204" lon="9.402969481552743"><ele>636.0</ele><time>2026-04-28T12:21:14.924Z</time></trkpt><trkpt lat="39.816986654634654" lon="9.40313841881434"><ele>631.0</ele><time>2026-04-28T12:21:15.924Z</time></trkpt><trkpt lat="39.81700482889111" lon="9.403329315454224"><ele>626.0</ele><time>2026-04-28T12:21:16.924Z</time></trkpt><trkpt lat="39.81699064810778" lon="9.403537197596606"><ele>621.0</ele><time>2026-04-28T12:21:17.924Z</time></trkpt><trkpt lat="39.81697792044074" lon="9.403734996606863"><ele>618.25</ele><time>2026-04-28T12:21:18.924Z</time></trkpt><trkpt lat="39.81697934242573" lon="9.403926889978258"><ele>615.5</ele><time>2026-04-28T12:21:19.924Z</time></trkpt><trkpt lat="39.8169890757058" lon="9.4041035192418"><ele>612.75</ele><time>2026-04-28T12:21:20.924Z</time></trkpt><trkpt lat="39.817020338771506" lon="9.404254909317471"><ele>610.0</ele><time>2026-04-28T12:21:21.924Z</time></trkpt><trkpt lat="39.81709888408728" lon="9.404361755426587"><ele>610.0</ele><time>2026-04-28T12:21:22.924Z</time></trkpt><trkpt lat="39.81721409900605" lon="9.404412727997316"><ele>610.0</ele><time>2026-04-28T12:21:23.924Z</time></trkpt><trkpt lat="39.81735019577407" lon="9.404440451550979"><ele>610.0</ele><time>2026-04-28T12:21:24.924Z</time></trkpt><trkpt lat="39.81749528487532" lon="9.404482291904229"><ele>610.0</ele><time>2026-04-28T12:21:25.924Z</time></trkpt><trkpt lat="39.81764389442429" lon="9.404535032520455"><ele>606.6666666666667</ele><time>2026-04-28T12:21:26.924Z</time></trkpt><trkpt lat="39.81780004545769" lon="9.404558423028066"><ele>603.3333333333334</ele><time>2026-04-28T12:21:27.924Z</time></trkpt><trkpt lat="39.817952084981364" lon="9.404545848445116"><ele>600.0</ele><time>2026-04-28T12:21:28.924Z</time></trkpt><trkpt lat="39.81809201970192" lon="9.404499324128302"><ele>600.0</ele><time>2026-04-28T12:21:29.924Z</time></trkpt><trkpt lat="39.81821950430882" lon="9.40440933628703"><ele>600.0</ele><time>2026-04-28T12:21:30.924Z</time></trkpt><trkpt lat="39.81833971664088" lon="9.404308398648238"><ele>600.0</ele><time>2026-04-28T12:21:31.924Z</time></trkpt><trkpt lat="39.818476844957296" lon="9.404252841362622"><ele>600.0</ele><time>2026-04-28T12:21:32.924Z</time></trkpt><trkpt lat="39.81861581922477" lon="9.404222273234485"><ele>595.5</ele><time>2026-04-28T12:21:33.924Z</time></trkpt><trkpt lat="39.818738581873696" lon="9.404140125146403"><ele>591.0</ele><time>2026-04-28T12:21:34.924Z</time></trkpt><trkpt lat="39.81884778840499" lon="9.404019791510956"><ele>586.5</ele><time>2026-04-28T12:21:35.924Z</time></trkpt><trkpt lat="39.8189671644868" lon="9.403934501307559"><ele>582.0</ele><time>2026-04-28T12:21:36.924Z</time></trkpt><trkpt lat="39.81910618520429" lon="9.403925887060337"><ele>582.0</ele><time>2026-04-28T12:21:37.924Z</time></trkpt><trkpt lat="39.81924805920005" lon="9.403928894602366"><ele>582.0</ele><time>2026-04-28T12:21:38.924Z</time></trkpt><trkpt lat="39.81939136570009" lon="9.403872287662052"><ele>582.0</ele><time>2026-04-28T12:21:39.924Z</time></trkpt><trkpt lat="39.81952317187201" lon="9.403777052608552"><ele>582.0</ele><time>2026-04-28T12:21:40.924Z</time></trkpt><trkpt lat="39.81965951894436" lon="9.403694982082737"><ele>585.6666666666666</ele><time>2026-04-28T12:21:41.924Z</time></trkpt><trkpt lat="39.819802859036116" lon="9.403655442752584"><ele>589.3333333333333</ele><time>2026-04-28T12:21:42.924Z</time></trkpt><trkpt lat="39.81995368317461" lon="9.403638257348325"><ele>593.0</ele><time>2026-04-28T12:21:43.924Z</time></trkpt><trkpt lat="39.82010635943576" lon="9.403616676277323"><ele>593.0</ele><time>2026-04-28T12:21:44.924Z</time></trkpt><trkpt lat="39.820258144347854" lon="9.403577244349844"><ele>593.0</ele><time>2026-04-28T12:21:45.924Z</time></trkpt><trkpt lat="39.8204068239145" lon="9.403542303116454"><ele>593.0</ele><time>2026-04-28T12:21:46.924Z</time></trkpt><trkpt lat="39.82055018159442" lon="9.403538118973598"><ele>593.0</ele><time>2026-04-28T12:21:47.924Z</time></trkpt><trkpt lat="39.820693074791755" lon="9.403563327959997"><ele>593.0</ele><time>2026-04-28T12:21:48.924Z</time></trkpt><trkpt lat="39.820833596198916" lon="9.403631174033318"><ele>593.0</ele><time>2026-04-28T12:21:49.924Z</time></trkpt><trkpt lat="39.820967970826736" lon="9.403721706546392"><ele>593.0</ele><time>2026-04-28T12:21:50.924Z</time></trkpt><trkpt lat="39.82110481665341" lon="9.403819698850317"><ele>589.0</ele><time>2026-04-28T12:21:51.924Z</time></trkpt><trkpt lat="39.82124392704229" lon="9.403912295831015"><ele>585.0</ele><time>2026-04-28T12:21:52.924Z</time></trkpt><trkpt lat="39.821373462088054" lon="9.404001692950715"><ele>581.0</ele><time>2026-04-28T12:21:53.924Z</time></trkpt><trkpt lat="39.82148753306498" lon="9.404103650337248"><ele>577.0</ele><time>2026-04-28T12:21:54.924Z</time></trkpt><trkpt lat="39.82157023738545" lon="9.404254271639944"><ele>577.0</ele><time>2026-04-28T12:21:55.924Z</time></trkpt><trkpt lat="39.821644300976516" lon="9.404416986906512"><ele>577.0</ele><time>2026-04-28T12:21:56.924Z</time></trkpt><trkpt lat="39.82176744143823" lon="9.40453603299179"><ele>577.0</ele><time>2026-04-28T12:21:57.924Z</time></trkpt><trkpt lat="39.821902724868806" lon="9.404636594748226"><ele>572.0</ele><time>2026-04-28T12:21:58.924Z</time></trkpt><trkpt lat="39.8220440977427" lon="9.404728248598687"><ele>567.0</ele><time>2026-04-28T12:21:59.924Z</time></trkpt><trkpt lat="39.8221908848344" lon="9.40482518849784"><ele>562.0</ele><time>2026-04-28T12:22:00.924Z</time></trkpt><trkpt lat="39.822345092141795" lon="9.404915834083006"><ele>562.0</ele><time>2026-04-28T12:22:01.924Z</time></trkpt><trkpt lat="39.82251261921739" lon="9.404957723800011"><ele>562.0</ele><time>2026-04-28T12:22:02.924Z</time></trkpt><trkpt lat="39.82269368714937" lon="9.404961533148303"><ele>562.0</ele><time>2026-04-28T12:22:03.924Z</time></trkpt><trkpt lat="39.822870255864004" lon="9.404936081856258"><ele>558.6666666666667</ele><time>2026-04-28T12:22:04.924Z</time></trkpt><trkpt lat="39.8230455871524" lon="9.404918228232185"><ele>555.3333333333334</ele><time>2026-04-28T12:22:05.924Z</time></trkpt><trkpt lat="39.823227603386265" lon="9.404903227021391"><ele>552.0</ele><time>2026-04-28T12:22:06.924Z</time></trkpt><trkpt lat="39.82340374559239" lon="9.404870583292743"><ele>547.0</ele><time>2026-04-28T12:22:07.924Z</time></trkpt><trkpt lat="39.82357380689831" lon="9.404812536024412"><ele>542.0</ele><time>2026-04-28T12:22:08.924Z</time></trkpt><trkpt lat="39.82374822941585" lon="9.404768817091652"><ele>537.0</ele><time>2026-04-28T12:22:09.924Z</time></trkpt><trkpt lat="39.82392387528021" lon="9.404733007628263"><ele>537.0</ele><time>2026-04-28T12:22:10.924Z</time></trkpt><trkpt lat="39.824089416922405" lon="9.404712754067177"><ele>537.0</ele><time>2026-04-28T12:22:11.924Z</time></trkpt><trkpt lat="39.82425254483603" lon="9.404713334137822"><ele>537.0</ele><time>2026-04-28T12:22:12.924Z</time></trkpt><trkpt lat="39.82441109382663" lon="9.404686894504227"><ele>539.3333333333334</ele><time>2026-04-28T12:22:13.924Z</time></trkpt><trkpt lat="39.8245566460497" lon="9.404592120594474"><ele>541.6666666666667</ele><time>2026-04-28T12:22:14.924Z</time></trkpt><trkpt lat="39.82467810012706" lon="9.404450085492678"><ele>544.0</ele><time>2026-04-28T12:22:15.924Z</time></trkpt><trkpt lat="39.82478222826003" lon="9.404291294326494"><ele>544.0</ele><time>2026-04-28T12:22:16.924Z</time></trkpt><trkpt lat="39.824890835224906" lon="9.404146946543138"><ele>544.0</ele><time>2026-04-28T12:22:17.924Z</time></trkpt><trkpt lat="39.82499041422085" lon="9.404015989012551"><ele>544.0</ele><time>2026-04-28T12:22:18.923Z</time></trkpt><trkpt lat="39.82506482148535" lon="9.403889276347401"><ele>544.0</ele><time>2026-04-28T12:22:19.923Z</time></trkpt><trkpt lat="39.825141676271" lon="9.403805913032835"><ele>546.75</ele><time>2026-04-28T12:22:20.923Z</time></trkpt><trkpt lat="39.82523544478075" lon="9.403805677968048"><ele>549.5</ele><time>2026-04-28T12:22:21.923Z</time></trkpt><trkpt lat="39.82532312543609" lon="9.403894896295078"><ele>552.25</ele><time>2026-04-28T12:22:22.923Z</time></trkpt><trkpt lat="39.82535868859718" lon="9.404043465318859"><ele>555.0</ele><time>2026-04-28T12:22:23.923Z</time></trkpt><trkpt lat="39.82539374817312" lon="9.404208491302388"><ele>555.0</ele><time>2026-04-28T12:22:24.923Z</time></trkpt><trkpt lat="39.82547420146731" lon="9.404367248935177"><ele>555.0</ele><time>2026-04-28T12:22:25.923Z</time></trkpt><trkpt lat="39.8255956897046" lon="9.40449420410368"><ele>555.0</ele><time>2026-04-28T12:22:26.923Z</time></trkpt><trkpt lat="39.82571886540687" lon="9.404622967298852"><ele>547.6666666666666</ele><time>2026-04-28T12:22:27.923Z</time></trkpt><trkpt lat="39.82581424535154" lon="9.404782213482171"><ele>540.3333333333333</ele><time>2026-04-28T12:22:28.923Z</time></trkpt><trkpt lat="39.825892274040314" lon="9.40495909054631"><ele>533.0</ele><time>2026-04-28T12:22:29.923Z</time></trkpt><trkpt lat="39.825959830815144" lon="9.40514920183926"><ele>537.0</ele><time>2026-04-28T12:22:30.923Z</time></trkpt><trkpt lat="39.826016798472125" lon="9.405346369681169"><ele>541.0</ele><time>2026-04-28T12:22:31.923Z</time></trkpt><trkpt lat="39.82608774115329" lon="9.405522458976138"><ele>545.0</ele><time>2026-04-28T12:22:32.923Z</time></trkpt><trkpt lat="39.82619049435178" lon="9.405658716951514"><ele>545.0</ele><time>2026-04-28T12:22:33.923Z</time></trkpt><trkpt lat="39.82631824648681" lon="9.405714207141873"><ele>545.0</ele><time>2026-04-28T12:22:34.923Z</time></trkpt><trkpt lat="39.82644804918774" lon="9.40568182380271"><ele>545.0</ele><time>2026-04-28T12:22:35.923Z</time></trkpt><trkpt lat="39.826575687199366" lon="9.405575662132591"><ele>545.0</ele><time>2026-04-28T12:22:36.923Z</time></trkpt><trkpt lat="39.82669587410891" lon="9.405423116826734"><ele>540.3333333333333</ele><time>2026-04-28T12:22:37.923Z</time></trkpt><trkpt lat="39.82683135927729" lon="9.405269654641511"><ele>535.6666666666666</ele><time>2026-04-28T12:22:38.923Z</time></trkpt><trkpt lat="39.82698179991314" lon="9.405180119120082"><ele>531.0</ele><time>2026-04-28T12:22:39.923Z</time></trkpt><trkpt lat="39.82715362009109" lon="9.405163222293325"><ele>531.0</ele><time>2026-04-28T12:22:40.923Z</time></trkpt><trkpt lat="39.82734358168668" lon="9.405188157203169"><ele>531.0</ele><time>2026-04-28T12:22:41.923Z</time></trkpt><trkpt lat="39.827537090928026" lon="9.405197124093958"><ele>531.0</ele><time>2026-04-28T12:22:42.923Z</time></trkpt><trkpt lat="39.827721803339614" lon="9.40519767494895"><ele>530.3333333333334</ele><time>2026-04-28T12:22:43.923Z</time></trkpt><trkpt lat="39.82789308335586" lon="9.4051660586584"><ele>529.6666666666667</ele><time>2026-04-28T12:22:44.923Z</time></trkpt><trkpt lat="39.828035223476164" lon="9.405113983635683"><ele>529.0</ele><time>2026-04-28T12:22:45.923Z</time></trkpt><trkpt lat="39.82816616653423" lon="9.405132815078284"><ele>529.0</ele><time>2026-04-28T12:22:46.923Z</time></trkpt><trkpt lat="39.82827041804561" lon="9.405251346750982"><ele>529.0</ele><time>2026-04-28T12:22:47.923Z</time></trkpt><trkpt lat="39.82839382028702" lon="9.405374001029863"><ele>529.0</ele><time>2026-04-28T12:22:48.923Z</time></trkpt><trkpt lat="39.82856256601721" lon="9.405464067229833"><ele>520.6666666666667</ele><time>2026-04-28T12:22:49.923Z</time></trkpt><trkpt lat="39.82875296374204" lon="9.405520262859957"><ele>512.3333333333334</ele><time>2026-04-28T12:22:50.923Z</time></trkpt><trkpt lat="39.82893532714714" lon="9.405523601962942"><ele>504.0</ele><time>2026-04-28T12:22:51.923Z</time></trkpt><trkpt lat="39.829117573317475" lon="9.405503896169744"><ele>504.0</ele><time>2026-04-28T12:22:52.923Z</time></trkpt><trkpt lat="39.82928521045587" lon="9.405523412008844"><ele>504.0</ele><time>2026-04-28T12:22:53.923Z</time></trkpt><trkpt lat="39.82941808081892" lon="9.405634449992831"><ele>504.0</ele><time>2026-04-28T12:22:54.923Z</time></trkpt><trkpt lat="39.82953544342607" lon="9.405754241278892"><ele>504.5</ele><time>2026-04-28T12:22:55.923Z</time></trkpt><trkpt lat="39.829665456647476" lon="9.405812120361942"><ele>505.0</ele><time>2026-04-28T12:22:56.923Z</time></trkpt><trkpt lat="39.829796214568894" lon="9.405786588164656"><ele>505.5</ele><time>2026-04-28T12:22:57.923Z</time></trkpt><trkpt lat="39.829925683963815" lon="9.405739922928728"><ele>506.0</ele><time>2026-04-28T12:22:58.923Z</time></trkpt><trkpt lat="39.83003821693635" lon="9.405793620375368"><ele>506.0</ele><time>2026-04-28T12:22:59.923Z</time></trkpt><trkpt lat="39.83009643938812" lon="9.4059299639704"><ele>506.0</ele><time>2026-04-28T12:23:00.923Z</time></trkpt><trkpt lat="39.83008712186882" lon="9.406086123533285"><ele>506.0</ele><time>2026-04-28T12:23:01.923Z</time></trkpt><trkpt lat="39.8300689803475" lon="9.406261371530647"><ele>506.0</ele><time>2026-04-28T12:23:02.923Z</time></trkpt><trkpt lat="39.8301321842681" lon="9.406414937434333"><ele>502.3333333333333</ele><time>2026-04-28T12:23:03.923Z</time></trkpt><trkpt lat="39.83025098619709" lon="9.406500741501349"><ele>498.66666666666663</ele><time>2026-04-28T12:23:04.923Z</time></trkpt><trkpt lat="39.83040373077843" lon="9.406500770087742"><ele>495.0</ele><time>2026-04-28T12:23:05.923Z</time></trkpt><trkpt lat="39.83056464210587" lon="9.406472637521421"><ele>495.0</ele><time>2026-04-28T12:23:06.923Z</time></trkpt><trkpt lat="39.83071801326414" lon="9.406447902995655"><ele>495.0</ele><time>2026-04-28T12:23:07.922Z</time></trkpt><trkpt lat="39.83084029714725" lon="9.406498304624721"><ele>495.0</ele><time>2026-04-28T12:23:08.922Z</time></trkpt><trkpt lat="39.83095452282611" lon="9.406636361046703"><ele>495.0</ele><time>2026-04-28T12:23:09.922Z</time></trkpt><trkpt lat="39.83108311839896" lon="9.406779607017535"><ele>494.66666666666663</ele><time>2026-04-28T12:23:10.923Z</time></trkpt><trkpt lat="39.83122674407739" lon="9.406898076917422"><ele>494.3333333333333</ele><time>2026-04-28T12:23:11.922Z</time></trkpt><trkpt lat="39.83134790985179" lon="9.407035816113572"><ele>494.0</ele><time>2026-04-28T12:23:12.922Z</time></trkpt><trkpt lat="39.83148124038841" lon="9.407140602267766"><ele>495.5</ele><time>2026-04-28T12:23:13.922Z</time></trkpt><trkpt lat="39.831635615115076" lon="9.407201821323794"><ele>497.0</ele><time>2026-04-28T12:23:14.922Z</time></trkpt><trkpt lat="39.8317837076652" lon="9.40723259366371"><ele>498.5</ele><time>2026-04-28T12:23:15.922Z</time></trkpt><trkpt lat="39.83187775355744" lon="9.407341948473356"><ele>500.0</ele><time>2026-04-28T12:23:16.923Z</time></trkpt><trkpt lat="39.83192574274762" lon="9.40753688805045"><ele>500.0</ele><time>2026-04-28T12:23:17.922Z</time></trkpt><trkpt lat="39.83197247648454" lon="9.407728113069357"><ele>500.0</ele><time>2026-04-28T12:23:18.922Z</time></trkpt><trkpt lat="39.83200152146458" lon="9.407957817263311"><ele>500.0</ele><time>2026-04-28T12:23:19.922Z</time></trkpt><trkpt lat="39.83201604997018" lon="9.408198720115845"><ele>501.3333333333333</ele><time>2026-04-28T12:23:20.922Z</time></trkpt><trkpt lat="39.831999157139194" lon="9.40842805838645"><ele>502.66666666666663</ele><time>2026-04-28T12:23:21.922Z</time></trkpt><trkpt lat="39.83193208519444" lon="9.408635616452349"><ele>504.0</ele><time>2026-04-28T12:23:22.922Z</time></trkpt><trkpt lat="39.83183254257933" lon="9.408813737807684"><ele>507.33333333333337</ele><time>2026-04-28T12:23:23.922Z</time></trkpt><trkpt lat="39.83169326133797" lon="9.408964336999407"><ele>510.6666666666667</ele><time>2026-04-28T12:23:24.922Z</time></trkpt><trkpt lat="39.83156130480156" lon="9.409133972981389"><ele>514.0</ele><time>2026-04-28T12:23:25.922Z</time></trkpt><trkpt lat="39.83149120586729" lon="9.409368292117188"><ele>514.0</ele><time>2026-04-28T12:23:26.922Z</time></trkpt><trkpt lat="39.831464707094035" lon="9.409630546742527"><ele>514.0</ele><time>2026-04-28T12:23:27.922Z</time></trkpt><trkpt lat="39.8314885175105" lon="9.40988184464179"><ele>514.0</ele><time>2026-04-28T12:23:28.922Z</time></trkpt><trkpt lat="39.83152900660088" lon="9.410134824839162"><ele>514.6666666666667</ele><time>2026-04-28T12:23:29.922Z</time></trkpt><trkpt lat="39.831551723199276" lon="9.410394303875204"><ele>515.3333333333334</ele><time>2026-04-28T12:23:30.922Z</time></trkpt><trkpt lat="39.83150885076807" lon="9.410647484076263"><ele>516.0</ele><time>2026-04-28T12:23:31.921Z</time></trkpt><trkpt lat="39.83140203626426" lon="9.410856871557975"><ele>517.25</ele><time>2026-04-28T12:23:32.921Z</time></trkpt><trkpt lat="39.83130196399279" lon="9.411037864608584"><ele>518.5</ele><time>2026-04-28T12:23:33.921Z</time></trkpt><trkpt lat="39.83127176951887" lon="9.411207370735546"><ele>519.75</ele><time>2026-04-28T12:23:34.921Z</time></trkpt><trkpt lat="39.83130829747723" lon="9.411350661453486"><ele>521.0</ele><time>2026-04-28T12:23:35.921Z</time></trkpt><trkpt lat="39.831405527513155" lon="9.411464319964848"><ele>522.5</ele><time>2026-04-28T12:23:36.921Z</time></trkpt><trkpt lat="39.83152520955508" lon="9.411576944029015"><ele>524.0</ele><time>2026-04-28T12:23:37.921Z</time></trkpt><trkpt lat="39.8315799874654" lon="9.411739139145302"><ele>525.5</ele><time>2026-04-28T12:23:38.921Z</time></trkpt><trkpt lat="39.8315743019359" lon="9.411932563316931"><ele>527.0</ele><time>2026-04-28T12:23:39.921Z</time></trkpt><trkpt lat="39.83155681683484" lon="9.412140691228915"><ele>529.0</ele><time>2026-04-28T12:23:40.921Z</time></trkpt><trkpt lat="39.8315333504594" lon="9.412376957812487"><ele>531.0</ele><time>2026-04-28T12:23:41.921Z</time></trkpt><trkpt lat="39.831525668430174" lon="9.412620343728417"><ele>533.0</ele><time>2026-04-28T12:23:42.921Z</time></trkpt><trkpt lat="39.831545943818135" lon="9.412850996115978"><ele>538.6666666666666</ele><time>2026-04-28T12:23:43.921Z</time></trkpt><trkpt lat="39.83160472405987" lon="9.413065735264391"><ele>544.3333333333334</ele><time>2026-04-28T12:23:44.921Z</time></trkpt><trkpt lat="39.83168410060172" lon="9.41324841489562"><ele>550.0</ele><time>2026-04-28T12:23:45.921Z</time></trkpt><trkpt lat="39.8317615293045" lon="9.413426778966864"><ele>549.5</ele><time>2026-04-28T12:23:46.921Z</time></trkpt><trkpt lat="39.83181921841869" lon="9.413611528827378"><ele>549.0</ele><time>2026-04-28T12:23:47.921Z</time></trkpt><trkpt lat="39.831864626281565" lon="9.413766383719372"><ele>548.5</ele><time>2026-04-28T12:23:48.921Z</time></trkpt><trkpt lat="39.831870233194905" lon="9.413885033597554"><ele>548.0</ele><time>2026-04-28T12:23:49.921Z</time></trkpt><trkpt lat="39.83181274994883" lon="9.413967423780429"><ele>548.5</ele><time>2026-04-28T12:23:50.921Z</time></trkpt><trkpt lat="39.83174564080284" lon="9.413939617031463"><ele>549.0</ele><time>2026-04-28T12:23:51.921Z</time></trkpt><trkpt lat="39.831695045860386" lon="9.4138258734378"><ele>549.5</ele><time>2026-04-28T12:23:52.921Z</time></trkpt><trkpt lat="39.83169522352812" lon="9.41362602322848"><ele>550.0</ele><time>2026-04-28T12:23:53.921Z</time></trkpt><trkpt lat="39.83165281901084" lon="9.413399212272626"><ele>550.0</ele><time>2026-04-28T12:23:54.921Z</time></trkpt><trkpt lat="39.83154116790345" lon="9.41316262323716"><ele>550.0</ele><time>2026-04-28T12:23:55.921Z</time></trkpt><trkpt lat="39.83144321714035" lon="9.41292768362905"><ele>550.0</ele><time>2026-04-28T12:23:56.921Z</time></trkpt><trkpt lat="39.831356265174676" lon="9.412694957390528"><ele>544.3333333333334</ele><time>2026-04-28T12:23:57.921Z</time></trkpt><trkpt lat="39.83128658030797" lon="9.412484525691022"><ele>538.6666666666666</ele><time>2026-04-28T12:23:58.921Z</time></trkpt><trkpt lat="39.83122442225407" lon="9.412307228868944"><ele>533.0</ele><time>2026-04-28T12:23:59.921Z</time></trkpt><trkpt lat="39.831118147843135" lon="9.412177361470585"><ele>531.0</ele><time>2026-04-28T12:24:00.921Z</time></trkpt><trkpt lat="39.83097650758896" lon="9.412105573669292"><ele>529.0</ele><time>2026-04-28T12:24:01.921Z</time></trkpt><trkpt lat="39.83081453124334" lon="9.412051826474315"><ele>527.0</ele><time>2026-04-28T12:24:02.921Z</time></trkpt><trkpt lat="39.8306673769912" lon="9.412009894242225"><ele>533.75</ele><time>2026-04-28T12:24:03.921Z</time></trkpt><trkpt lat="39.830557555106516" lon="9.411923849572423"><ele>540.5</ele><time>2026-04-28T12:24:04.921Z</time></trkpt><trkpt lat="39.830502060752664" lon="9.411787887595345"><ele>547.25</ele><time>2026-04-28T12:24:05.921Z</time></trkpt><trkpt lat="39.83052143518437" lon="9.41161615153323"><ele>554.0</ele><time>2026-04-28T12:24:06.921Z</time></trkpt><trkpt lat="39.83057772587762" lon="9.411423962285959"><ele>553.3333333333333</ele><time>2026-04-28T12:24:07.921Z</time></trkpt><trkpt lat="39.830613743841944" lon="9.411212049298552"><ele>552.6666666666666</ele><time>2026-04-28T12:24:08.921Z</time></trkpt><trkpt lat="39.830607134507474" lon="9.410954342893662"><ele>552.0</ele><time>2026-04-28T12:24:09.921Z</time></trkpt><trkpt lat="39.83059039596159" lon="9.410679681223074"><ele>552.3333333333334</ele><time>2026-04-28T12:24:10.921Z</time></trkpt><trkpt lat="39.830552785546544" lon="9.410399463715217"><ele>552.6666666666667</ele><time>2026-04-28T12:24:11.921Z</time></trkpt><trkpt lat="39.83052769908409" lon="9.410141174447638"><ele>553.0</ele><time>2026-04-28T12:24:12.921Z</time></trkpt><trkpt lat="39.83047180173607" lon="9.40991964539054"><ele>553.0</ele><time>2026-04-28T12:24:13.921Z</time></trkpt><trkpt lat="39.83038263012095" lon="9.409737313839246"><ele>553.0</ele><time>2026-04-28T12:24:14.921Z</time></trkpt><trkpt lat="39.830243276496276" lon="9.409608467870248"><ele>553.0</ele><time>2026-04-28T12:24:15.921Z</time></trkpt><trkpt lat="39.83007963531503" lon="9.409514563123507"><ele>554.6666666666667</ele><time>2026-04-28T12:24:16.921Z</time></trkpt><trkpt lat="39.82990586484454" lon="9.409436506474307"><ele>556.3333333333334</ele><time>2026-04-28T12:24:17.921Z</time></trkpt><trkpt lat="39.82974631902737" lon="9.409370796568323"><ele>558.0</ele><time>2026-04-28T12:24:18.921Z</time></trkpt><trkpt lat="39.82963160403867" lon="9.409325295987552"><ele>558.0</ele><time>2026-04-28T12:24:19.921Z</time></trkpt><trkpt lat="39.829545771482785" lon="9.409346065171063"><ele>558.0</ele><time>2026-04-28T12:24:20.921Z</time></trkpt><trkpt lat="39.829504084437076" lon="9.4094423071333"><ele>558.0</ele><time>2026-04-28T12:24:21.921Z</time></trkpt><trkpt lat="39.829525646573835" lon="9.409546903281155"><ele>558.0</ele><time>2026-04-28T12:24:22.921Z</time></trkpt><trkpt lat="39.829638133338314" lon="9.409602427010586"><ele>558.0</ele><time>2026-04-28T12:24:23.921Z</time></trkpt><trkpt lat="39.82979425059957" lon="9.409597904298131"><ele>558.0</ele><time>2026-04-28T12:24:24.921Z</time></trkpt><trkpt lat="39.82994095504404" lon="9.409645423445701"><ele>558.0</ele><time>2026-04-28T12:24:25.921Z</time></trkpt><trkpt lat="39.8300704512306" lon="9.409752580240301"><ele>558.0</ele><time>2026-04-28T12:24:26.921Z</time></trkpt><trkpt lat="39.830173388575574" lon="9.409928860423275"><ele>556.3333333333334</ele><time>2026-04-28T12:24:27.921Z</time></trkpt><trkpt lat="39.83022801384157" lon="9.410140178018436"><ele>554.6666666666667</ele><time>2026-04-28T12:24:28.921Z</time></trkpt><trkpt lat="39.8302293837214" lon="9.410387566762903"><ele>553.0</ele><time>2026-04-28T12:24:29.921Z</time></trkpt><trkpt lat="39.83020593278841" lon="9.410638565115308"><ele>552.6666666666667</ele><time>2026-04-28T12:24:30.921Z</time></trkpt><trkpt lat="39.83018970896368" lon="9.410876593837582"><ele>552.3333333333334</ele><time>2026-04-28T12:24:31.921Z</time></trkpt><trkpt lat="39.83014557766658" lon="9.411124214250627"><ele>552.0</ele><time>2026-04-28T12:24:32.921Z</time></trkpt><trkpt lat="39.83008133943602" lon="9.411372429321656"><ele>565.6666666666666</ele><time>2026-04-28T12:24:33.921Z</time></trkpt><trkpt lat="39.82999828015675" lon="9.411605049686335"><ele>579.3333333333333</ele><time>2026-04-28T12:24:34.921Z</time></trkpt><trkpt lat="39.829916110241264" lon="9.411823314125902"><ele>593.0</ele><time>2026-04-28T12:24:35.921Z</time></trkpt><trkpt lat="39.829844274585675" lon="9.412021198116411"><ele>593.5</ele><time>2026-04-28T12:24:36.921Z</time></trkpt><trkpt lat="39.82978965531685" lon="9.412207656544457"><ele>594.0</ele><time>2026-04-28T12:24:37.921Z</time></trkpt><trkpt lat="39.829764806910006" lon="9.412377709507439"><ele>594.5</ele><time>2026-04-28T12:24:38.92Z</time></trkpt><trkpt lat="39.82978626270326" lon="9.412519402906973"><ele>595.0</ele><time>2026-04-28T12:24:39.92Z</time></trkpt><trkpt lat="39.829887770901195" lon="9.41264372167662"><ele>595.0</ele><time>2026-04-28T12:24:40.92Z</time></trkpt><trkpt lat="39.83004809176901" lon="9.412728500140524"><ele>595.0</ele><time>2026-04-28T12:24:41.92Z</time></trkpt><trkpt lat="39.83024150919901" lon="9.412798137523396"><ele>595.0</ele><time>2026-04-28T12:24:42.92Z</time></trkpt><trkpt lat="39.830436502901804" lon="9.41288314573415"><ele>593.6666666666667</ele><time>2026-04-28T12:24:43.92Z</time></trkpt><trkpt lat="39.83058350846549" lon="9.413023552311577"><ele>592.3333333333334</ele><time>2026-04-28T12:24:44.92Z</time></trkpt><trkpt lat="39.83068739160028" lon="9.41321123521848"><ele>591.0</ele><time>2026-04-28T12:24:45.92Z</time></trkpt><trkpt lat="39.830757043630065" lon="9.413465940984123"><ele>591.0</ele><time>2026-04-28T12:24:46.92Z</time></trkpt><trkpt lat="39.83082235814367" lon="9.41373244838518"><ele>591.0</ele><time>2026-04-28T12:24:47.92Z</time></trkpt><trkpt lat="39.83088125690758" lon="9.413995118188359"><ele>591.0</ele><time>2026-04-28T12:24:48.92Z</time></trkpt><trkpt lat="39.83091148323655" lon="9.41427184012163"><ele>595.6666666666666</ele><time>2026-04-28T12:24:49.92Z</time></trkpt><trkpt lat="39.83089591667159" lon="9.414557979577616"><ele>600.3333333333333</ele><time>2026-04-28T12:24:50.92Z</time></trkpt><trkpt lat="39.83089801163489" lon="9.41484779607804"><ele>605.0</ele><time>2026-04-28T12:24:51.92Z</time></trkpt><trkpt lat="39.830952134480654" lon="9.415131666803882"><ele>606.6666666666666</ele><time>2026-04-28T12:24:52.92Z</time></trkpt><trkpt lat="39.83102578108383" lon="9.415392247289699"><ele>608.3333333333334</ele><time>2026-04-28T12:24:53.92Z</time></trkpt><trkpt lat="39.831109240388336" lon="9.415615192074657"><ele>610.0</ele><time>2026-04-28T12:24:54.92Z</time></trkpt><trkpt lat="39.83121653923561" lon="9.415783540457713"><ele>610.0</ele><time>2026-04-28T12:24:55.92Z</time></trkpt><trkpt lat="39.831359357424525" lon="9.415896373053997"><ele>610.0</ele><time>2026-04-28T12:24:56.92Z</time></trkpt><trkpt lat="39.83153371243689" lon="9.415947010262014"><ele>610.0</ele><time>2026-04-28T12:24:57.92Z</time></trkpt><trkpt lat="39.831712904086714" lon="9.415985077145463"><ele>608.6666666666667</ele><time>2026-04-28T12:24:58.92Z</time></trkpt><trkpt lat="39.83188709885975" lon="9.41605919780153"><ele>607.3333333333334</ele><time>2026-04-28T12:24:59.92Z</time></trkpt><trkpt lat="39.83203245452678" lon="9.416168880533002"><ele>606.0</ele><time>2026-04-28T12:25:00.92Z</time></trkpt><trkpt lat="39.83210937622037" lon="9.416333227928025"><ele>606.0</ele><time>2026-04-28T12:25:01.92Z</time></trkpt><trkpt lat="39.83211180536275" lon="9.41652623466613"><ele>606.0</ele><time>2026-04-28T12:25:02.92Z</time></trkpt><trkpt lat="39.83205076087738" lon="9.416745918647957"><ele>606.0</ele><time>2026-04-28T12:25:03.92Z</time></trkpt><trkpt lat="39.83200107360082" lon="9.416975394016672"><ele>609.6666666666666</ele><time>2026-04-28T12:25:04.92Z</time></trkpt><trkpt lat="39.83196450394398" lon="9.417180163558601"><ele>613.3333333333333</ele><time>2026-04-28T12:25:05.92Z</time></trkpt><trkpt lat="39.83199151530559" lon="9.41737289692759"><ele>617.0</ele><time>2026-04-28T12:25:06.92Z</time></trkpt><trkpt lat="39.83206782494258" lon="9.417563404144019"><ele>617.0</ele><time>2026-04-28T12:25:07.92Z</time></trkpt><trkpt lat="39.83219802286156" lon="9.41772169480801"><ele>617.0</ele><time>2026-04-28T12:25:08.92Z</time></trkpt><trkpt lat="39.83235320067903" lon="9.417856955250857"><ele>617.0</ele><time>2026-04-28T12:25:09.92Z</time></trkpt><trkpt lat="39.83249500829851" lon="9.41802714262088"><ele>621.0</ele><time>2026-04-28T12:25:10.92Z</time></trkpt><trkpt lat="39.8325774763549" lon="9.418250969329252"><ele>625.0</ele><time>2026-04-28T12:25:11.92Z</time></trkpt><trkpt lat="39.83266127362282" lon="9.418491897190997"><ele>629.0</ele><time>2026-04-28T12:25:12.92Z</time></trkpt><trkpt lat="39.83274334257334" lon="9.418760030227284"><ele>624.6666666666666</ele><time>2026-04-28T12:25:13.921Z</time></trkpt><trkpt lat="39.832834861928866" lon="9.41901951130762"><ele>620.3333333333334</ele><time>2026-04-28T12:25:14.92Z</time></trkpt><trkpt lat="39.83293191223498" lon="9.419284425511306"><ele>616.0</ele><time>2026-04-28T12:25:15.92Z</time></trkpt><trkpt lat="39.83301684055317" lon="9.419532410110206"><ele>622.6666666666667</ele><time>2026-04-28T12:25:16.92Z</time></trkpt><trkpt lat="39.83309438955141" lon="9.419736527927114"><ele>629.3333333333334</ele><time>2026-04-28T12:25:17.92Z</time></trkpt><trkpt lat="39.83320065621388" lon="9.41989711947543"><ele>636.0</ele><time>2026-04-28T12:25:18.92Z</time></trkpt><trkpt lat="39.83337028727875" lon="9.420003127514972"><ele>632.0</ele><time>2026-04-28T12:25:19.92Z</time></trkpt><trkpt lat="39.83355697781643" lon="9.420087775761091"><ele>628.0</ele><time>2026-04-28T12:25:20.92Z</time></trkpt><trkpt lat="39.833737188573714" lon="9.420177680114243"><ele>624.0</ele><time>2026-04-28T12:25:21.92Z</time></trkpt><trkpt lat="39.833880987032195" lon="9.420263373271595"><ele>624.0</ele><time>2026-04-28T12:25:22.92Z</time></trkpt><trkpt lat="39.833980166430216" lon="9.42038471909802"><ele>624.0</ele><time>2026-04-28T12:25:23.92Z</time></trkpt><trkpt lat="39.83401926169687" lon="9.420575289779851"><ele>624.0</ele><time>2026-04-28T12:25:24.92Z</time></trkpt><trkpt lat="39.83401533253695" lon="9.420800623525055"><ele>627.6666666666666</ele><time>2026-04-28T12:25:25.92Z</time></trkpt><trkpt lat="39.834032813303196" lon="9.421037250348967"><ele>631.3333333333333</ele><time>2026-04-28T12:25:26.92Z</time></trkpt><trkpt lat="39.83408781435339" lon="9.421280054285303"><ele>635.0</ele><time>2026-04-28T12:25:27.92Z</time></trkpt><trkpt lat="39.83415387305205" lon="9.42152278735443"><ele>638.3333333333333</ele><time>2026-04-28T12:25:28.92Z</time></trkpt><trkpt lat="39.83422047352706" lon="9.421754149743261"><ele>641.6666666666666</ele><time>2026-04-28T12:25:29.92Z</time></trkpt><trkpt lat="39.834259156163924" lon="9.421984112411252"><ele>645.0</ele><time>2026-04-28T12:25:30.92Z</time></trkpt><trkpt lat="39.83423119078005" lon="9.422228873058035"><ele>646.0</ele><time>2026-04-28T12:25:31.92Z</time></trkpt><trkpt lat="39.83416829452982" lon="9.422479481291338"><ele>647.0</ele><time>2026-04-28T12:25:32.92Z</time></trkpt><trkpt lat="39.83410535617138" lon="9.42273827670532"><ele>648.0</ele><time>2026-04-28T12:25:33.92Z</time></trkpt><trkpt lat="39.83405058558627" lon="9.422995399764083"><ele>649.0</ele><time>2026-04-28T12:25:34.92Z</time></trkpt><trkpt lat="39.83401314144623" lon="9.423232703714277"><ele>650.0</ele><time>2026-04-28T12:25:35.92Z</time></trkpt><trkpt lat="39.83401288944195" lon="9.423455677484636"><ele>651.0</ele><time>2026-04-28T12:25:36.92Z</time></trkpt><trkpt lat="39.83408425108703" lon="9.423666451337965"><ele>651.6666666666666</ele><time>2026-04-28T12:25:37.92Z</time></trkpt><trkpt lat="39.83414367256804" lon="9.423862318295475"><ele>652.3333333333333</ele><time>2026-04-28T12:25:38.92Z</time></trkpt><trkpt lat="39.834133186559804" lon="9.42405898759158"><ele>653.0</ele><time>2026-04-28T12:25:39.92Z</time></trkpt><trkpt lat="39.834067556915834" lon="9.424224929232249"><ele>653.0</ele><time>2026-04-28T12:25:40.92Z</time></trkpt><trkpt lat="39.83395195189578" lon="9.42438021741216"><ele>653.0</ele><time>2026-04-28T12:25:41.92Z</time></trkpt><trkpt lat="39.83387030322208" lon="9.424559121970697"><ele>653.0</ele><time>2026-04-28T12:25:42.92Z</time></trkpt><trkpt lat="39.83384607703497" lon="9.424761984216396"><ele>655.6666666666666</ele><time>2026-04-28T12:25:43.92Z</time></trkpt><trkpt lat="39.833872204824445" lon="9.424989146611122"><ele>658.3333333333334</ele><time>2026-04-28T12:25:44.92Z</time></trkpt><trkpt lat="39.83393228061343" lon="9.425215859482059"><ele>661.0</ele><time>2026-04-28T12:25:45.92Z</time></trkpt><trkpt lat="39.8340392344361" lon="9.425447230639893"><ele>664.6666666666667</ele><time>2026-04-28T12:25:46.92Z</time></trkpt><trkpt lat="39.83416365646534" lon="9.425692661680634"><ele>668.3333333333334</ele><time>2026-04-28T12:25:47.92Z</time></trkpt><trkpt lat="39.834245290522354" lon="9.42596006356833"><ele>672.0</ele><time>2026-04-28T12:25:48.92Z</time></trkpt><trkpt lat="39.834288045942124" lon="9.426220796555652"><ele>674.3333333333334</ele><time>2026-04-28T12:25:49.92Z</time></trkpt><trkpt lat="39.83431271321581" lon="9.426443165567258"><ele>676.6666666666667</ele><time>2026-04-28T12:25:50.92Z</time></trkpt><trkpt lat="39.83432357020852" lon="9.426649739701954"><ele>679.0</ele><time>2026-04-28T12:25:51.92Z</time></trkpt><trkpt lat="39.83430169639961" lon="9.426849149466625"><ele>679.0</ele><time>2026-04-28T12:25:52.92Z</time></trkpt><trkpt lat="39.83423069633619" lon="9.427057418173307"><ele>679.0</ele><time>2026-04-28T12:25:53.92Z</time></trkpt><trkpt lat="39.83414993537893" lon="9.427263017139584"><ele>679.0</ele><time>2026-04-28T12:25:54.92Z</time></trkpt><trkpt lat="39.834031421885015" lon="9.427458666094223"><ele>678.3333333333334</ele><time>2026-04-28T12:25:55.92Z</time></trkpt><trkpt lat="39.83388987260376" lon="9.427660803518096"><ele>677.6666666666666</ele><time>2026-04-28T12:25:56.92Z</time></trkpt><trkpt lat="39.83376109976216" lon="9.427888564816152"><ele>677.0</ele><time>2026-04-28T12:25:57.92Z</time></trkpt><trkpt lat="39.83363079245057" lon="9.428114427574977"><ele>677.6666666666666</ele><time>2026-04-28T12:25:58.92Z</time></trkpt><trkpt lat="39.833520299471665" lon="9.42835955154689"><ele>678.3333333333334</ele><time>2026-04-28T12:25:59.92Z</time></trkpt><trkpt lat="39.83342753183745" lon="9.42861725690971"><ele>679.0</ele><time>2026-04-28T12:26:00.92Z</time></trkpt><trkpt lat="39.833351246151814" lon="9.428867744774866"><ele>679.0</ele><time>2026-04-28T12:26:01.92Z</time></trkpt><trkpt lat="39.83326393530926" lon="9.429104500032643"><ele>679.0</ele><time>2026-04-28T12:26:02.92Z</time></trkpt><trkpt lat="39.833164064006425" lon="9.429320998897571"><ele>679.0</ele><time>2026-04-28T12:26:03.92Z</time></trkpt><trkpt lat="39.833081204298665" lon="9.42954502014732"><ele>678.3333333333334</ele><time>2026-04-28T12:26:04.92Z</time></trkpt><trkpt lat="39.833041481250156" lon="9.429796104740138"><ele>677.6666666666666</ele><time>2026-04-28T12:26:05.92Z</time></trkpt><trkpt lat="39.83298888470735" lon="9.430045881031699"><ele>677.0</ele><time>2026-04-28T12:26:06.92Z</time></trkpt><trkpt lat="39.83289208635221" lon="9.430257859426296"><ele>677.0</ele><time>2026-04-28T12:26:07.92Z</time></trkpt><trkpt lat="39.83285136187635" lon="9.430460850576422"><ele>677.0</ele><time>2026-04-28T12:26:08.92Z</time></trkpt><trkpt lat="39.83286483597691" lon="9.430679579618134"><ele>677.0</ele><time>2026-04-28T12:26:09.92Z</time></trkpt><trkpt lat="39.83290902646802" lon="9.430916039161124"><ele>678.0</ele><time>2026-04-28T12:26:10.92Z</time></trkpt><trkpt lat="39.832925260503" lon="9.43117600765586"><ele>679.0</ele><time>2026-04-28T12:26:11.92Z</time></trkpt><trkpt lat="39.83290494439264" lon="9.431448997446806"><ele>680.0</ele><time>2026-04-28T12:26:12.92Z</time></trkpt><trkpt lat="39.83286588934911" lon="9.431721467813816"><ele>681.3333333333333</ele><time>2026-04-28T12:26:13.92Z</time></trkpt><trkpt lat="39.832826176957255" lon="9.431975300619373"><ele>682.6666666666666</ele><time>2026-04-28T12:26:14.919Z</time></trkpt><trkpt lat="39.83281164970938" lon="9.43220682641314"><ele>684.0</ele><time>2026-04-28T12:26:15.919Z</time></trkpt><trkpt lat="39.83283744714515" lon="9.432413350096917"><ele>684.3333333333334</ele><time>2026-04-28T12:26:16.919Z</time></trkpt><trkpt lat="39.83285951863261" lon="9.432604821670866"><ele>684.6666666666667</ele><time>2026-04-28T12:26:17.919Z</time></trkpt><trkpt lat="39.83284809740177" lon="9.43281594151515"><ele>685.0</ele><time>2026-04-28T12:26:18.919Z</time></trkpt><trkpt lat="39.83275477250088" lon="9.433010472058838"><ele>690.0</ele><time>2026-04-28T12:26:19.919Z</time></trkpt><trkpt lat="39.83262662708363" lon="9.433197665606361"><ele>695.0</ele><time>2026-04-28T12:26:20.919Z</time></trkpt><trkpt lat="39.83250489619751" lon="9.433400817621404"><ele>700.0</ele><time>2026-04-28T12:26:21.919Z</time></trkpt><trkpt lat="39.83240279583454" lon="9.433592608660376"><ele>698.0</ele><time>2026-04-28T12:26:22.919Z</time></trkpt><trkpt lat="39.832368027493885" lon="9.433810018782257"><ele>696.0</ele><time>2026-04-28T12:26:23.919Z</time></trkpt><trkpt lat="39.832377612325615" lon="9.434037824059748"><ele>694.0</ele><time>2026-04-28T12:26:24.919Z</time></trkpt><trkpt lat="39.832371399691176" lon="9.434263058981715"><ele>694.0</ele><time>2026-04-28T12:26:25.919Z</time></trkpt><trkpt lat="39.832297063436975" lon="9.434451464493756"><ele>694.0</ele><time>2026-04-28T12:26:26.919Z</time></trkpt><trkpt lat="39.8321730101772" lon="9.434608481125096"><ele>694.0</ele><time>2026-04-28T12:26:27.919Z</time></trkpt><trkpt lat="39.83207317348524" lon="9.43479734098901"><ele>694.3333333333334</ele><time>2026-04-28T12:26:28.919Z</time></trkpt><trkpt lat="39.83202811041759" lon="9.435010353486142"><ele>694.6666666666666</ele><time>2026-04-28T12:26:29.919Z</time></trkpt><trkpt lat="39.832031565228135" lon="9.435253369464833"><ele>695.0</ele><time>2026-04-28T12:26:30.919Z</time></trkpt><trkpt lat="39.83205947997224" lon="9.435513550944542"><ele>695.0</ele><time>2026-04-28T12:26:31.919Z</time></trkpt><trkpt lat="39.83209577095379" lon="9.435783281399702"><ele>695.0</ele><time>2026-04-28T12:26:32.919Z</time></trkpt><trkpt lat="39.83214365505755" lon="9.436077186718027"><ele>695.0</ele><time>2026-04-28T12:26:33.919Z</time></trkpt><trkpt lat="39.83217724166861" lon="9.43636523254837"><ele>695.0</ele><time>2026-04-28T12:26:34.919Z</time></trkpt><trkpt lat="39.832182031859176" lon="9.436650768565602"><ele>695.0</ele><time>2026-04-28T12:26:35.919Z</time></trkpt><trkpt lat="39.83217743607308" lon="9.436935171524457"><ele>695.0</ele><time>2026-04-28T12:26:36.919Z</time></trkpt><trkpt lat="39.83216326595525" lon="9.437224228864402"><ele>695.0</ele><time>2026-04-28T12:26:37.919Z</time></trkpt><trkpt lat="39.83214637130912" lon="9.437503219737179"><ele>695.0</ele><time>2026-04-28T12:26:38.919Z</time></trkpt><trkpt lat="39.83210979642784" lon="9.437781438348809"><ele>695.0</ele><time>2026-04-28T12:26:39.919Z</time></trkpt><trkpt lat="39.83207027904479" lon="9.43804915020918"><ele>696.6666666666666</ele><time>2026-04-28T12:26:40.919Z</time></trkpt><trkpt lat="39.832039870279814" lon="9.438300248135073"><ele>698.3333333333334</ele><time>2026-04-28T12:26:41.919Z</time></trkpt><trkpt lat="39.83205905855213" lon="9.43853939011777"><ele>700.0</ele><time>2026-04-28T12:26:42.919Z</time></trkpt><trkpt lat="39.832134646265324" lon="9.438762958802887"><ele>703.6666666666667</ele><time>2026-04-28T12:26:43.919Z</time></trkpt><trkpt lat="39.83225102492836" lon="9.438969416481955"><ele>707.3333333333334</ele><time>2026-04-28T12:26:44.919Z</time></trkpt><trkpt lat="39.83238086740305" lon="9.439181351581988"><ele>711.0</ele><time>2026-04-28T12:26:45.919Z</time></trkpt><trkpt lat="39.83251540840599" lon="9.439397899838793"><ele>710.3333333333334</ele><time>2026-04-28T12:26:46.919Z</time></trkpt><trkpt lat="39.83265708915551" lon="9.439616896399922"><ele>709.6666666666667</ele><time>2026-04-28T12:26:47.919Z</time></trkpt><trkpt lat="39.832808025663894" lon="9.439823969011902"><ele>709.0</ele><time>2026-04-28T12:26:48.919Z</time></trkpt><trkpt lat="39.83295924238806" lon="9.440001614172623"><ele>710.6666666666667</ele><time>2026-04-28T12:26:49.919Z</time></trkpt><trkpt lat="39.83309885328703" lon="9.440145960818544"><ele>712.3333333333334</ele><time>2026-04-28T12:26:50.919Z</time></trkpt><trkpt lat="39.83319866052688" lon="9.440308934857743"><ele>714.0</ele><time>2026-04-28T12:26:51.919Z</time></trkpt><trkpt lat="39.83326338540396" lon="9.440520538255461"><ele>715.0</ele><time>2026-04-28T12:26:52.919Z</time></trkpt><trkpt lat="39.83327911326271" lon="9.440764940833441"><ele>716.0</ele><time>2026-04-28T12:26:53.919Z</time></trkpt><trkpt lat="39.83330015649604" lon="9.440998296641359"><ele>717.0</ele><time>2026-04-28T12:26:54.919Z</time></trkpt><trkpt lat="39.83332701354046" lon="9.441213948253557"><ele>718.0</ele><time>2026-04-28T12:26:55.919Z</time></trkpt><trkpt lat="39.83338555910275" lon="9.44139351118232"><ele>719.0</ele><time>2026-04-28T12:26:56.919Z</time></trkpt><trkpt lat="39.83349414060189" lon="9.441537655929675"><ele>720.0</ele><time>2026-04-28T12:26:57.919Z</time></trkpt><trkpt lat="39.83359670978331" lon="9.44164878167263"><ele>721.0</ele><time>2026-04-28T12:26:58.919Z</time></trkpt><trkpt lat="39.833685189174254" lon="9.441735120175155"><ele>721.1999999999999</ele><time>2026-04-28T12:26:59.919Z</time></trkpt><trkpt lat="39.833777319160646" lon="9.441813574344526"><ele>721.4</ele><time>2026-04-28T12:27:00.919Z</time></trkpt><trkpt lat="39.83387436932877" lon="9.441810542501667"><ele>721.6</ele><time>2026-04-28T12:27:01.919Z</time></trkpt><trkpt lat="39.833956448816195" lon="9.441769305712304"><ele>721.8</ele><time>2026-04-28T12:27:02.919Z</time></trkpt><trkpt lat="39.834044390804365" lon="9.441733792703205"><ele>722.0</ele><time>2026-04-28T12:27:03.919Z</time></trkpt><trkpt lat="39.83413374432675" lon="9.441717607307215"><ele>722.0</ele><time>2026-04-28T12:27:04.919Z</time></trkpt><trkpt lat="39.83422900564653" lon="9.441744605342377"><ele>722.0</ele><time>2026-04-28T12:27:05.919Z</time></trkpt><trkpt lat="39.83433007120753" lon="9.44181079827268"><ele>722.0</ele><time>2026-04-28T12:27:06.919Z</time></trkpt><trkpt lat="39.83442299446706" lon="9.441911913104363"><ele>722.0</ele><time>2026-04-28T12:27:07.919Z</time></trkpt><trkpt lat="39.834517838992404" lon="9.442029648079098"><ele>724.3333333333333</ele><time>2026-04-28T12:27:08.919Z</time></trkpt><trkpt lat="39.834605717193874" lon="9.44218611887564"><ele>726.6666666666666</ele><time>2026-04-28T12:27:09.919Z</time></trkpt><trkpt lat="39.834681524658095" lon="9.442361264886587"><ele>729.0</ele><time>2026-04-28T12:27:10.919Z</time></trkpt><trkpt lat="39.83472771732386" lon="9.44254506774334"><ele>729.0</ele><time>2026-04-28T12:27:11.919Z</time></trkpt><trkpt lat="39.83473487274542" lon="9.442741392598546"><ele>729.0</ele><time>2026-04-28T12:27:12.919Z</time></trkpt><trkpt lat="39.83474035050981" lon="9.442941982652563"><ele>729.0</ele><time>2026-04-28T12:27:13.919Z</time></trkpt><trkpt lat="39.83473565381852" lon="9.443144676196948"><ele>729.3333333333334</ele><time>2026-04-28T12:27:14.919Z</time></trkpt><trkpt lat="39.834736444606534" lon="9.443349210654395"><ele>729.6666666666667</ele><time>2026-04-28T12:27:15.919Z</time></trkpt><trkpt lat="39.83473590064031" lon="9.443563425492977"><ele>730.0</ele><time>2026-04-28T12:27:16.919Z</time></trkpt><trkpt lat="39.83473611462272" lon="9.4437737930763"><ele>731.3333333333334</ele><time>2026-04-28T12:27:17.919Z</time></trkpt><trkpt lat="39.83474431836679" lon="9.443996702141233"><ele>732.6666666666666</ele><time>2026-04-28T12:27:18.919Z</time></trkpt><trkpt lat="39.83475403575911" lon="9.444211965444358"><ele>734.0</ele><time>2026-04-28T12:27:19.918Z</time></trkpt><trkpt lat="39.83477587622481" lon="9.444424937892274"><ele>734.0</ele><time>2026-04-28T12:27:20.918Z</time></trkpt><trkpt lat="39.834835726317415" lon="9.444618441763156"><ele>734.0</ele><time>2026-04-28T12:27:21.918Z</time></trkpt><trkpt lat="39.83493125778606" lon="9.444791255783242"><ele>734.0</ele><time>2026-04-28T12:27:22.918Z</time></trkpt><trkpt lat="39.83505099067465" lon="9.444961175410771"><ele>737.6666666666666</ele><time>2026-04-28T12:27:23.919Z</time></trkpt><trkpt lat="39.83515692454678" lon="9.445150352424102"><ele>741.3333333333334</ele><time>2026-04-28T12:27:24.919Z</time></trkpt><trkpt lat="39.83525122209304" lon="9.44536317356061"><ele>745.0</ele><time>2026-04-28T12:27:25.919Z</time></trkpt><trkpt lat="39.83534750563162" lon="9.445592921818376"><ele>745.0</ele><time>2026-04-28T12:27:26.918Z</time></trkpt><trkpt lat="39.83544057837163" lon="9.445833678418321"><ele>745.0</ele><time>2026-04-28T12:27:27.918Z</time></trkpt><trkpt lat="39.83553681813654" lon="9.44606068243175"><ele>745.0</ele><time>2026-04-28T12:27:28.919Z</time></trkpt><trkpt lat="39.83564238283291" lon="9.446274616149985"><ele>742.3333333333334</ele><time>2026-04-28T12:27:29.918Z</time></trkpt><trkpt lat="39.83574226335849" lon="9.44647173645184"><ele>739.6666666666666</ele><time>2026-04-28T12:27:30.918Z</time></trkpt><trkpt lat="39.83577887280888" lon="9.446685948033512"><ele>737.0</ele><time>2026-04-28T12:27:31.919Z</time></trkpt><trkpt lat="39.83580725873643" lon="9.446898149264142"><ele>737.0</ele><time>2026-04-28T12:27:32.919Z</time></trkpt><trkpt lat="39.83588959533001" lon="9.447091355238596"><ele>737.0</ele><time>2026-04-28T12:27:33.919Z</time></trkpt><trkpt lat="39.836019635692736" lon="9.447274898086535"><ele>737.0</ele><time>2026-04-28T12:27:34.919Z</time></trkpt><trkpt lat="39.836152667679144" lon="9.447461451450307"><ele>738.6666666666666</ele><time>2026-04-28T12:27:35.919Z</time></trkpt><trkpt lat="39.83629372749093" lon="9.447667124712638"><ele>740.3333333333334</ele><time>2026-04-28T12:27:36.919Z</time></trkpt><trkpt lat="39.83641865624451" lon="9.44790574141368"><ele>742.0</ele><time>2026-04-28T12:27:37.919Z</time></trkpt><trkpt lat="39.83653743690115" lon="9.448158731612228"><ele>742.0</ele><time>2026-04-28T12:27:38.919Z</time></trkpt><trkpt lat="39.83665675904119" lon="9.448424813293837"><ele>742.0</ele><time>2026-04-28T12:27:39.919Z</time></trkpt><trkpt lat="39.836775105300404" lon="9.448693824869892"><ele>751.5</ele><time>2026-04-28T12:27:40.919Z</time></trkpt><trkpt lat="39.83689719468826" lon="9.448959777242344"><ele>761.0</ele><time>2026-04-28T12:27:41.919Z</time></trkpt><trkpt lat="39.837028083544716" lon="9.449226976957338"><ele>761.0</ele><time>2026-04-28T12:27:42.919Z</time></trkpt><trkpt lat="39.83716615512271" lon="9.449484162743271"><ele>761.0</ele><time>2026-04-28T12:27:43.919Z</time></trkpt><trkpt lat="39.83730133440777" lon="9.449741067409578"><ele>762.0</ele><time>2026-04-28T12:27:44.919Z</time></trkpt><trkpt lat="39.837431517823276" lon="9.449985091131019"><ele>763.0</ele><time>2026-04-28T12:27:45.919Z</time></trkpt><trkpt lat="39.83756631779662" lon="9.450209849401558"><ele>764.0</ele><time>2026-04-28T12:27:46.919Z</time></trkpt><trkpt lat="39.837736613857174" lon="9.450381058178323"><ele>757.0</ele><time>2026-04-28T12:27:47.919Z</time></trkpt><trkpt lat="39.837943041782474" lon="9.450495552760783"><ele>750.0</ele><time>2026-04-28T12:27:48.919Z</time></trkpt><trkpt lat="39.83816160304205" lon="9.45058641493899"><ele>750.0</ele><time>2026-04-28T12:27:49.919Z</time></trkpt><trkpt lat="39.838387887672376" lon="9.450676858932182"><ele>750.0</ele><time>2026-04-28T12:27:50.919Z</time></trkpt><trkpt lat="39.838605755799385" lon="9.450798189003166"><ele>750.3333333333334</ele><time>2026-04-28T12:27:51.919Z</time></trkpt><trkpt lat="39.838797336931535" lon="9.450963375738597"><ele>750.6666666666667</ele><time>2026-04-28T12:27:52.919Z</time></trkpt><trkpt lat="39.83894796515973" lon="9.45116567674786"><ele>751.0</ele><time>2026-04-28T12:27:53.918Z</time></trkpt><trkpt lat="39.83906710364955" lon="9.451375783623416"><ele>751.0</ele><time>2026-04-28T12:27:54.918Z</time></trkpt><trkpt lat="39.83919458629819" lon="9.45155073513084"><ele>751.0</ele><time>2026-04-28T12:27:55.918Z</time></trkpt><trkpt lat="39.83936438303319" lon="9.451628462679945"><ele>751.0</ele><time>2026-04-28T12:27:56.918Z</time></trkpt><trkpt lat="39.83957430143684" lon="9.451599838543343"><ele>751.6666666666667</ele><time>2026-04-28T12:27:57.918Z</time></trkpt><trkpt lat="39.83979529829416" lon="9.451534061017501"><ele>752.3333333333334</ele><time>2026-04-28T12:27:58.918Z</time></trkpt><trkpt lat="39.84001200182716" lon="9.451533577791386"><ele>753.0</ele><time>2026-04-28T12:27:59.918Z</time></trkpt><trkpt lat="39.84021114926785" lon="9.451641565446506"><ele>757.5</ele><time>2026-04-28T12:28:00.918Z</time></trkpt><trkpt lat="39.8404067647629" lon="9.45180607607274"><ele>762.0</ele><time>2026-04-28T12:28:01.918Z</time></trkpt><trkpt lat="39.840600680689086" lon="9.452006537334292"><ele>762.5</ele><time>2026-04-28T12:28:02.918Z</time></trkpt><trkpt lat="39.840796739615975" lon="9.452199378459824"><ele>763.0</ele><time>2026-04-28T12:28:03.918Z</time></trkpt><trkpt lat="39.84100397476818" lon="9.452366179207004"><ele>763.0</ele><time>2026-04-28T12:28:04.918Z</time></trkpt><trkpt lat="39.84122434171278" lon="9.452501317868528"><ele>763.0</ele><time>2026-04-28T12:28:05.918Z</time></trkpt><trkpt lat="39.841448221696716" lon="9.45263468012347"><ele>763.0</ele><time>2026-04-28T12:28:06.918Z</time></trkpt><trkpt lat="39.84165308850128" lon="9.452789256502864"><ele>763.0</ele><time>2026-04-28T12:28:07.918Z</time></trkpt><trkpt lat="39.841840888263796" lon="9.45296331779738"><ele>764.0</ele><time>2026-04-28T12:28:08.918Z</time></trkpt><trkpt lat="39.8420210699276" lon="9.453144013309322"><ele>765.0</ele><time>2026-04-28T12:28:09.918Z</time></trkpt><trkpt lat="39.84219021386251" lon="9.453320694767033"><ele>766.0</ele><time>2026-04-28T12:28:10.918Z</time></trkpt><trkpt lat="39.842363059519435" lon="9.453491831139123"><ele>766.0</ele><time>2026-04-28T12:28:11.918Z</time></trkpt><trkpt lat="39.84254297964565" lon="9.453643026900403"><ele>766.0</ele><time>2026-04-28T12:28:12.918Z</time></trkpt><trkpt lat="39.8427422664145" lon="9.453759896914901"><ele>766.0</ele><time>2026-04-28T12:28:13.918Z</time></trkpt><trkpt lat="39.84294759186584" lon="9.45384847111091"><ele>763.6666666666667</ele><time>2026-04-28T12:28:14.918Z</time></trkpt><trkpt lat="39.84314778279484" lon="9.453944513688247"><ele>761.3333333333334</ele><time>2026-04-28T12:28:15.918Z</time></trkpt><trkpt lat="39.843333182597476" lon="9.454087398069026"><ele>759.0</ele><time>2026-04-28T12:28:16.918Z</time></trkpt><trkpt lat="39.84350545735751" lon="9.454263046705618"><ele>760.0</ele><time>2026-04-28T12:28:17.918Z</time></trkpt><trkpt lat="39.843678348535036" lon="9.454443186830407"><ele>761.0</ele><time>2026-04-28T12:28:18.918Z</time></trkpt><trkpt lat="39.84385902832996" lon="9.454605697508228"><ele>762.0</ele><time>2026-04-28T12:28:19.918Z</time></trkpt><trkpt lat="39.84402853564938" lon="9.454756814369107"><ele>762.0</ele><time>2026-04-28T12:28:20.918Z</time></trkpt><trkpt lat="39.84419598954559" lon="9.454905079311866"><ele>762.0</ele><time>2026-04-28T12:28:21.918Z</time></trkpt><trkpt lat="39.844371173155366" lon="9.455041321175738"><ele>762.0</ele><time>2026-04-28T12:28:22.918Z</time></trkpt><trkpt lat="39.84455120571582" lon="9.45516181128525"><ele>762.0</ele><time>2026-04-28T12:28:23.918Z</time></trkpt><trkpt lat="39.84473117472596" lon="9.455288795767654"><ele>762.0</ele><time>2026-04-28T12:28:24.918Z</time></trkpt><trkpt lat="39.8448972357865" lon="9.455451822631325"><ele>762.0</ele><time>2026-04-28T12:28:25.918Z</time></trkpt><trkpt lat="39.84505537876829" lon="9.455615264210453"><ele>768.3333333333333</ele><time>2026-04-28T12:28:26.918Z</time></trkpt><trkpt lat="39.84522724075471" lon="9.45574698548274"><ele>774.6666666666666</ele><time>2026-04-28T12:28:27.918Z</time></trkpt><trkpt lat="39.84540578333736" lon="9.455875100725029"><ele>781.0</ele><time>2026-04-28T12:28:28.918Z</time></trkpt><trkpt lat="39.845551118809844" lon="9.456038001519769"><ele>781.0</ele><time>2026-04-28T12:28:29.918Z</time></trkpt><trkpt lat="39.84567122827562" lon="9.456225031520363"><ele>781.0</ele><time>2026-04-28T12:28:30.918Z</time></trkpt><trkpt lat="39.8458262425825" lon="9.456366868002128"><ele>781.0</ele><time>2026-04-28T12:28:31.918Z</time></trkpt><trkpt lat="39.84601062650209" lon="9.456463292576343"><ele>779.3333333333333</ele><time>2026-04-28T12:28:32.918Z</time></trkpt><trkpt lat="39.84620485554467" lon="9.456515014502921"><ele>777.6666666666667</ele><time>2026-04-28T12:28:33.918Z</time></trkpt><trkpt lat="39.84639835888699" lon="9.45656778152745"><ele>776.0</ele><time>2026-04-28T12:28:34.918Z</time></trkpt><trkpt lat="39.846576063899604" lon="9.456629659558779"><ele>776.0</ele><time>2026-04-28T12:28:35.918Z</time></trkpt><trkpt lat="39.84672619100936" lon="9.456717838144245"><ele>776.0</ele><time>2026-04-28T12:28:36.918Z</time></trkpt><trkpt lat="39.8468229990335" lon="9.456874068671695"><ele>776.0</ele><time>2026-04-28T12:28:37.918Z</time></trkpt><trkpt lat="39.8468903967181" lon="9.457058938129345"><ele>776.0</ele><time>2026-04-28T12:28:38.918Z</time></trkpt><trkpt lat="39.84700925879369" lon="9.457193291039973"><ele>776.0</ele><time>2026-04-28T12:28:39.918Z</time></trkpt><trkpt lat="39.847172814805376" lon="9.457260062192764"><ele>776.0</ele><time>2026-04-28T12:28:40.918Z</time></trkpt><trkpt lat="39.84736275521726" lon="9.457272851428948"><ele>776.0</ele><time>2026-04-28T12:28:41.918Z</time></trkpt><trkpt lat="39.847556491032044" lon="9.457299563769771"><ele>776.0</ele><time>2026-04-28T12:28:42.918Z</time></trkpt><trkpt lat="39.847735431838444" lon="9.457388133488044"><ele>776.0</ele><time>2026-04-28T12:28:43.918Z</time></trkpt><trkpt lat="39.84787589801856" lon="9.457564802082443"><ele>777.6666666666667</ele><time>2026-04-28T12:28:44.918Z</time></trkpt><trkpt lat="39.848001332906954" lon="9.457774510406693"><ele>779.3333333333333</ele><time>2026-04-28T12:28:45.918Z</time></trkpt><trkpt lat="39.8481327180961" lon="9.457984722631446"><ele>781.0</ele><time>2026-04-28T12:28:46.918Z</time></trkpt><trkpt lat="39.84827922252831" lon="9.458185287556251"><ele>781.0</ele><time>2026-04-28T12:28:47.918Z</time></trkpt><trkpt lat="39.848440048389634" lon="9.458371488937905"><ele>781.0</ele><time>2026-04-28T12:28:48.918Z</time></trkpt><trkpt lat="39.84862651228119" lon="9.458537731212664"><ele>781.0</ele><time>2026-04-28T12:28:49.918Z</time></trkpt><trkpt lat="39.848827354951055" lon="9.458684268925511"><ele>782.0</ele><time>2026-04-28T12:28:50.918Z</time></trkpt><trkpt lat="39.84903466315218" lon="9.458830355746045"><ele>783.0</ele><time>2026-04-28T12:28:51.918Z</time></trkpt><trkpt lat="39.84923425941791" lon="9.458978568224916"><ele>783.0</ele><time>2026-04-28T12:28:52.918Z</time></trkpt><trkpt lat="39.8494403842836" lon="9.459122413782021"><ele>783.0</ele><time>2026-04-28T12:28:53.918Z</time></trkpt><trkpt lat="39.84964919962926" lon="9.459259658724534"><ele>783.0</ele><time>2026-04-28T12:28:54.918Z</time></trkpt><trkpt lat="39.84986174028226" lon="9.459391517361615"><ele>783.0</ele><time>2026-04-28T12:28:55.918Z</time></trkpt><trkpt lat="39.85008594500855" lon="9.45949602430536"><ele>781.5</ele><time>2026-04-28T12:28:56.918Z</time></trkpt><trkpt lat="39.850310173092495" lon="9.459593372347697"><ele>780.0</ele><time>2026-04-28T12:28:57.918Z</time></trkpt><trkpt lat="39.850531822437134" lon="9.459689822552656"><ele>780.0</ele><time>2026-04-28T12:28:58.918Z</time></trkpt><trkpt lat="39.850747402771674" lon="9.459807982874686"><ele>780.0</ele><time>2026-04-28T12:28:59.918Z</time></trkpt><trkpt lat="39.85095179358296" lon="9.459945822056834"><ele>784.5</ele><time>2026-04-28T12:29:00.917Z</time></trkpt><trkpt lat="39.85114304268832" lon="9.46011497825098"><ele>789.0</ele><time>2026-04-28T12:29:01.917Z</time></trkpt><trkpt lat="39.851327319267575" lon="9.460295660094442"><ele>783.0</ele><time>2026-04-28T12:29:02.917Z</time></trkpt><trkpt lat="39.851511536349975" lon="9.460469870556452"><ele>777.0</ele><time>2026-04-28T12:29:03.917Z</time></trkpt><trkpt lat="39.85170006676429" lon="9.460640514309546"><ele>780.0</ele><time>2026-04-28T12:29:04.917Z</time></trkpt><trkpt lat="39.85188921741499" lon="9.460819728508723"><ele>783.0</ele><time>2026-04-28T12:29:05.917Z</time></trkpt><trkpt lat="39.85207728015612" lon="9.460998075074711"><ele>783.0</ele><time>2026-04-28T12:29:06.917Z</time></trkpt><trkpt lat="39.85226343658457" lon="9.461177903792969"><ele>783.0</ele><time>2026-04-28T12:29:07.917Z</time></trkpt><trkpt lat="39.85244992679439" lon="9.461361073629377"><ele>783.0</ele><time>2026-04-28T12:29:08.917Z</time></trkpt><trkpt lat="39.8526393840302" lon="9.461540821161304"><ele>783.0</ele><time>2026-04-28T12:29:09.917Z</time></trkpt><trkpt lat="39.85282485450673" lon="9.461713619443682"><ele>783.0</ele><time>2026-04-28T12:29:10.917Z</time></trkpt><trkpt lat="39.85301005463738" lon="9.461886140830146"><ele>783.0</ele><time>2026-04-28T12:29:11.917Z</time></trkpt><trkpt lat="39.853193699092394" lon="9.46205422354032"><ele>783.6666666666667</ele><time>2026-04-28T12:29:12.917Z</time></trkpt><trkpt lat="39.853380201324306" lon="9.462210113931247"><ele>784.3333333333334</ele><time>2026-04-28T12:29:13.917Z</time></trkpt><trkpt lat="39.8535705043256" lon="9.46235463898994"><ele>785.0</ele><time>2026-04-28T12:29:14.917Z</time></trkpt><trkpt lat="39.853766013167466" lon="9.46249315594362"><ele>785.0</ele><time>2026-04-28T12:29:15.917Z</time></trkpt><trkpt lat="39.85396197678751" lon="9.462630536159066"><ele>785.0</ele><time>2026-04-28T12:29:16.917Z</time></trkpt><trkpt lat="39.85415329075973" lon="9.462763366216047"><ele>785.0</ele><time>2026-04-28T12:29:17.917Z</time></trkpt><trkpt lat="39.8543438019167" lon="9.462902544695794"><ele>783.6666666666667</ele><time>2026-04-28T12:29:18.917Z</time></trkpt><trkpt lat="39.8545315519641" lon="9.46304221013948"><ele>782.3333333333333</ele><time>2026-04-28T12:29:19.917Z</time></trkpt><trkpt lat="39.85472320229235" lon="9.463183140299018"><ele>781.0</ele><time>2026-04-28T12:29:20.917Z</time></trkpt><trkpt lat="39.85491663921273" lon="9.463323545629557"><ele>781.0</ele><time>2026-04-28T12:29:21.917Z</time></trkpt><trkpt lat="39.855108718209365" lon="9.463459674582888"><ele>781.0</ele><time>2026-04-28T12:29:22.917Z</time></trkpt><trkpt lat="39.855299683505145" lon="9.4635952744631"><ele>781.0</ele><time>2026-04-28T12:29:23.917Z</time></trkpt><trkpt lat="39.8554915674031" lon="9.463729814418668"><ele>782.3333333333333</ele><time>2026-04-28T12:29:24.917Z</time></trkpt><trkpt lat="39.855681393287206" lon="9.463862694533251"><ele>783.6666666666667</ele><time>2026-04-28T12:29:25.917Z</time></trkpt><trkpt lat="39.855867508306694" lon="9.46400166731831"><ele>785.0</ele><time>2026-04-28T12:29:26.917Z</time></trkpt><trkpt lat="39.856051019107475" lon="9.464141707664105"><ele>785.0</ele><time>2026-04-28T12:29:27.917Z</time></trkpt><trkpt lat="39.85622930085532" lon="9.46428140788454"><ele>785.0</ele><time>2026-04-28T12:29:28.917Z</time></trkpt><trkpt lat="39.8564087089504" lon="9.464408054897595"><ele>785.0</ele><time>2026-04-28T12:29:29.917Z</time></trkpt><trkpt lat="39.856588265779266" lon="9.464529948801976"><ele>787.0</ele><time>2026-04-28T12:29:30.918Z</time></trkpt><trkpt lat="39.856758726850174" lon="9.464655855082576"><ele>789.0</ele><time>2026-04-28T12:29:31.917Z</time></trkpt><trkpt lat="39.85691620479412" lon="9.46478476944328"><ele>791.0</ele><time>2026-04-28T12:29:32.917Z</time></trkpt><trkpt lat="39.857076476310056" lon="9.464902212459826"><ele>791.3333333333334</ele><time>2026-04-28T12:29:33.917Z</time></trkpt><trkpt lat="39.85723061517206" lon="9.465008156459328"><ele>791.6666666666667</ele><time>2026-04-28T12:29:34.917Z</time></trkpt><trkpt lat="39.85738145029191" lon="9.465093677325992"><ele>792.0</ele><time>2026-04-28T12:29:35.917Z</time></trkpt><trkpt lat="39.857536959943424" lon="9.465158231647472"><ele>793.6666666666667</ele><time>2026-04-28T12:29:36.917Z</time></trkpt><trkpt lat="39.857697509993415" lon="9.465221200924153"><ele>795.3333333333334</ele><time>2026-04-28T12:29:37.917Z</time></trkpt><trkpt lat="39.8578557524361" lon="9.465304193295175"><ele>797.0</ele><time>2026-04-28T12:29:38.917Z</time></trkpt><trkpt lat="39.85800318998891" lon="9.46540842288448"><ele>796.25</ele><time>2026-04-28T12:29:39.917Z</time></trkpt><trkpt lat="39.85815072499003" lon="9.465483666387806"><ele>795.5</ele><time>2026-04-28T12:29:40.917Z</time></trkpt><trkpt lat="39.858291120059626" lon="9.465528959722697"><ele>794.75</ele><time>2026-04-28T12:29:41.917Z</time></trkpt><trkpt lat="39.85842159656685" lon="9.465550243244936"><ele>794.0</ele><time>2026-04-28T12:29:42.917Z</time></trkpt><trkpt lat="39.85853156182122" lon="9.465567206735757"><ele>794.0</ele><time>2026-04-28T12:29:43.917Z</time></trkpt><trkpt lat="39.858621864914646" lon="9.465604040919244"><ele>794.0</ele><time>2026-04-28T12:29:44.917Z</time></trkpt><trkpt lat="39.85869418862396" lon="9.46566905815002"><ele>794.0</ele><time>2026-04-28T12:29:45.917Z</time></trkpt><trkpt lat="39.85874912631176" lon="9.465776665506722"><ele>794.0</ele><time>2026-04-28T12:29:46.917Z</time></trkpt><trkpt lat="39.85879044089749" lon="9.4659064247788"><ele>794.0</ele><time>2026-04-28T12:29:47.917Z</time></trkpt><trkpt lat="39.858826842527215" lon="9.466042093756677"><ele>794.0</ele><time>2026-04-28T12:29:48.917Z</time></trkpt><trkpt lat="39.85888745934283" lon="9.466173488784863"><ele>794.0</ele><time>2026-04-28T12:29:49.917Z</time></trkpt><trkpt lat="39.85898116642989" lon="9.466269684291197"><ele>794.0</ele><time>2026-04-28T12:29:50.917Z</time></trkpt><trkpt lat="39.85909791836491" lon="9.466364423577778"><ele>794.0</ele><time>2026-04-28T12:29:51.917Z</time></trkpt><trkpt lat="39.859228201548646" lon="9.466462587816151"><ele>792.6666666666667</ele><time>2026-04-28T12:29:52.917Z</time></trkpt><trkpt lat="39.85935475284028" lon="9.466581624355092"><ele>791.3333333333333</ele><time>2026-04-28T12:29:53.917Z</time></trkpt><trkpt lat="39.859472709141116" lon="9.46671582279383"><ele>790.0</ele><time>2026-04-28T12:29:54.917Z</time></trkpt><trkpt lat="39.85956483192906" lon="9.466878469982639"><ele>790.0</ele><time>2026-04-28T12:29:55.917Z</time></trkpt><trkpt lat="39.85963553130447" lon="9.467055405381307"><ele>790.0</ele><time>2026-04-28T12:29:56.917Z</time></trkpt><trkpt lat="39.85969032701429" lon="9.467244281541994"><ele>790.0</ele><time>2026-04-28T12:29:57.917Z</time></trkpt><trkpt lat="39.85974112561731" lon="9.467450463374517"><ele>786.6666666666666</ele><time>2026-04-28T12:29:58.917Z</time></trkpt><trkpt lat="39.85978981929206" lon="9.467672661955342"><ele>783.3333333333333</ele><time>2026-04-28T12:29:59.917Z</time></trkpt><trkpt lat="39.859840773061016" lon="9.467893347483377"><ele>780.0</ele><time>2026-04-28T12:30:00.917Z</time></trkpt><trkpt lat="39.85990104352836" lon="9.46811610532034"><ele>780.0</ele><time>2026-04-28T12:30:01.917Z</time></trkpt><trkpt lat="39.85997102457977" lon="9.468332626121036"><ele>780.0</ele><time>2026-04-28T12:30:02.917Z</time></trkpt><trkpt lat="39.86003463654051" lon="9.468557830460904"><ele>780.0</ele><time>2026-04-28T12:30:03.917Z</time></trkpt><trkpt lat="39.86008337427978" lon="9.468798536748746"><ele>771.6666666666666</ele><time>2026-04-28T12:30:04.917Z</time></trkpt><trkpt lat="39.86012566684694" lon="9.46902198331942"><ele>763.3333333333333</ele><time>2026-04-28T12:30:05.917Z</time></trkpt><trkpt lat="39.860174947376585" lon="9.469223276519207"><ele>755.0</ele><time>2026-04-28T12:30:06.917Z</time></trkpt><trkpt lat="39.860237906318815" lon="9.469434246786374"><ele>756.0</ele><time>2026-04-28T12:30:07.917Z</time></trkpt><trkpt lat="39.86031863314719" lon="9.469660946108405"><ele>757.0</ele><time>2026-04-28T12:30:08.917Z</time></trkpt><trkpt lat="39.8604205084614" lon="9.469887829491812"><ele>758.0</ele><time>2026-04-28T12:30:09.917Z</time></trkpt><trkpt lat="39.86052373171903" lon="9.470121216672458"><ele>758.0</ele><time>2026-04-28T12:30:10.917Z</time></trkpt><trkpt lat="39.860621382080055" lon="9.470365926160351"><ele>758.0</ele><time>2026-04-28T12:30:11.917Z</time></trkpt><trkpt lat="39.8607073214699" lon="9.470622211282414"><ele>758.0</ele><time>2026-04-28T12:30:12.917Z</time></trkpt><trkpt lat="39.860780642512076" lon="9.470878007539987"><ele>755.0</ele><time>2026-04-28T12:30:13.917Z</time></trkpt><trkpt lat="39.86085604618785" lon="9.471098825780615"><ele>752.0</ele><time>2026-04-28T12:30:14.917Z</time></trkpt><trkpt lat="39.86092438639574" lon="9.471281173571958"><ele>749.0</ele><time>2026-04-28T12:30:15.917Z</time></trkpt><trkpt lat="39.86102149382562" lon="9.471410813221302"><ele>749.0</ele><time>2026-04-28T12:30:16.917Z</time></trkpt><trkpt lat="39.86111814260078" lon="9.471495902886709"><ele>749.0</ele><time>2026-04-28T12:30:17.917Z</time></trkpt><trkpt lat="39.86124484895356" lon="9.471538468633156"><ele>749.0</ele><time>2026-04-28T12:30:18.917Z</time></trkpt><trkpt lat="39.861370359929076" lon="9.471596291134885"><ele>749.0</ele><time>2026-04-28T12:30:19.917Z</time></trkpt><trkpt lat="39.8614463399906" lon="9.471791624045748"><ele>749.0</ele><time>2026-04-28T12:30:20.917Z</time></trkpt><trkpt lat="39.86146606402152" lon="9.472075596360266"><ele>749.0</ele><time>2026-04-28T12:30:21.917Z</time></trkpt><trkpt lat="39.86150535760604" lon="9.47235216797778"><ele>749.0</ele><time>2026-04-28T12:30:22.917Z</time></trkpt><trkpt lat="39.861604887028726" lon="9.472561118364604"><ele>747.6666666666666</ele><time>2026-04-28T12:30:24.917Z</time></trkpt><trkpt lat="39.86161512252996" lon="9.472761071877446"><ele>746.3333333333334</ele><time>2026-04-28T12:30:25.917Z</time></trkpt><trkpt lat="39.861556975960895" lon="9.472934395997767"><ele>745.0</ele><time>2026-04-28T12:30:26.917Z</time></trkpt><trkpt lat="39.861440811017474" lon="9.47307081672868"><ele>742.6666666666667</ele><time>2026-04-28T12:30:27.917Z</time></trkpt><trkpt lat="39.86130090141305" lon="9.473214643149113"><ele>740.3333333333334</ele><time>2026-04-28T12:30:28.917Z</time></trkpt><trkpt lat="39.86120160289919" lon="9.473429543358522"><ele>738.0</ele><time>2026-04-28T12:30:29.917Z</time></trkpt><trkpt lat="39.86111740094091" lon="9.473667594542228"><ele>733.6666666666666</ele><time>2026-04-28T12:30:30.917Z</time></trkpt><trkpt lat="39.86105364603451" lon="9.473891441931292"><ele>729.3333333333333</ele><time>2026-04-28T12:30:31.917Z</time></trkpt><trkpt lat="39.86103525931794" lon="9.474134783126706"><ele>725.0</ele><time>2026-04-28T12:30:32.916Z</time></trkpt><trkpt lat="39.8610539666129" lon="9.474406471798387"><ele>720.0</ele><time>2026-04-28T12:30:33.916Z</time></trkpt><trkpt lat="39.861080394821464" lon="9.474655329106577"><ele>715.0</ele><time>2026-04-28T12:30:34.916Z</time></trkpt><trkpt lat="39.86109092412532" lon="9.474889568813191"><ele>710.0</ele><time>2026-04-28T12:30:35.916Z</time></trkpt><trkpt lat="39.86105637296993" lon="9.475095345499554"><ele>710.0</ele><time>2026-04-28T12:30:36.916Z</time></trkpt><trkpt lat="39.86096825070751" lon="9.475262825652857"><ele>710.0</ele><time>2026-04-28T12:30:37.916Z</time></trkpt><trkpt lat="39.860830428381966" lon="9.47534003996657"><ele>710.0</ele><time>2026-04-28T12:30:38.916Z</time></trkpt><trkpt lat="39.860657735370744" lon="9.47535693702999"><ele>713.3333333333333</ele><time>2026-04-28T12:30:39.916Z</time></trkpt><trkpt lat="39.86049322644136" lon="9.475401641160158"><ele>716.6666666666666</ele><time>2026-04-28T12:30:40.916Z</time></trkpt><trkpt lat="39.860377149742426" lon="9.475522673662454"><ele>720.0</ele><time>2026-04-28T12:30:41.916Z</time></trkpt><trkpt lat="39.86030392475076" lon="9.475689077963747"><ele>720.0</ele><time>2026-04-28T12:30:42.916Z</time></trkpt><trkpt lat="39.86032816227316" lon="9.475952533148275"><ele>720.0</ele><time>2026-04-28T12:30:43.916Z</time></trkpt><trkpt lat="39.86033599157911" lon="9.476227725899044"><ele>720.0</ele><time>2026-04-28T12:30:44.916Z</time></trkpt><trkpt lat="39.86032971084574" lon="9.476496211335848"><ele>714.6666666666666</ele><time>2026-04-28T12:30:45.916Z</time></trkpt><trkpt lat="39.86034162089927" lon="9.476779385881239"><ele>709.3333333333333</ele><time>2026-04-28T12:30:46.916Z</time></trkpt><trkpt lat="39.86031016590704" lon="9.476965571280168"><ele>704.0</ele><time>2026-04-28T12:30:47.916Z</time></trkpt><trkpt lat="39.86022187177727" lon="9.477109982685475"><ele>707.3333333333333</ele><time>2026-04-28T12:30:48.916Z</time></trkpt><trkpt lat="39.86007641174216" lon="9.477240608334462"><ele>710.6666666666666</ele><time>2026-04-28T12:30:49.916Z</time></trkpt><trkpt lat="39.85991354257472" lon="9.47739621419264"><ele>714.0</ele><time>2026-04-28T12:30:50.916Z</time></trkpt><trkpt lat="39.85973836837868" lon="9.477562743965485"><ele>714.0</ele><time>2026-04-28T12:30:51.916Z</time></trkpt><trkpt lat="39.85958136814763" lon="9.477678036599029"><ele>714.0</ele><time>2026-04-28T12:30:52.916Z</time></trkpt><trkpt lat="39.859411238721144" lon="9.477740905603762"><ele>714.0</ele><time>2026-04-28T12:30:53.916Z</time></trkpt><trkpt lat="39.8592709756954" lon="9.477876187416399"><ele>714.0</ele><time>2026-04-28T12:30:54.916Z</time></trkpt><trkpt lat="39.85916396482535" lon="9.478096661147767"><ele>714.0</ele><time>2026-04-28T12:30:55.916Z</time></trkpt><trkpt lat="39.859054142531555" lon="9.478344080745103"><ele>714.0</ele><time>2026-04-28T12:30:56.916Z</time></trkpt><trkpt lat="39.85890954535225" lon="9.478585889003877"><ele>703.5</ele><time>2026-04-28T12:30:57.916Z</time></trkpt><trkpt lat="39.85876790906969" lon="9.478817884516944"><ele>693.0</ele><time>2026-04-28T12:30:58.916Z</time></trkpt><trkpt lat="39.85861535645529" lon="9.479036229796604"><ele>693.0</ele><time>2026-04-28T12:30:59.916Z</time></trkpt><trkpt lat="39.85845809817081" lon="9.479244767419312"><ele>693.0</ele><time>2026-04-28T12:31:00.916Z</time></trkpt><trkpt lat="39.858320198989354" lon="9.47946115286648"><ele>693.0</ele><time>2026-04-28T12:31:01.916Z</time></trkpt><trkpt lat="39.858224729512266" lon="9.4796969097508"><ele>693.3333333333334</ele><time>2026-04-28T12:31:02.916Z</time></trkpt><trkpt lat="39.85814694140769" lon="9.479919401740084"><ele>693.6666666666667</ele><time>2026-04-28T12:31:03.916Z</time></trkpt><trkpt lat="39.85803812673767" lon="9.480098813967874"><ele>694.0</ele><time>2026-04-28T12:31:04.916Z</time></trkpt><trkpt lat="39.857879353603245" lon="9.480250395628374"><ele>694.0</ele><time>2026-04-28T12:31:05.916Z</time></trkpt><trkpt lat="39.85769908696151" lon="9.48039326927987"><ele>694.0</ele><time>2026-04-28T12:31:06.916Z</time></trkpt><trkpt lat="39.857506450456064" lon="9.480523188158044"><ele>694.0</ele><time>2026-04-28T12:31:07.916Z</time></trkpt><trkpt lat="39.85730258590758" lon="9.480606561326683"><ele>695.3333333333334</ele><time>2026-04-28T12:31:08.916Z</time></trkpt><trkpt lat="39.8571002506791" lon="9.480667571591185"><ele>696.6666666666666</ele><time>2026-04-28T12:31:09.916Z</time></trkpt><trkpt lat="39.85691473747483" lon="9.480704400731257"><ele>698.0</ele><time>2026-04-28T12:31:10.916Z</time></trkpt><trkpt lat="39.856762950331145" lon="9.480823508187889"><ele>698.0</ele><time>2026-04-28T12:31:11.916Z</time></trkpt><trkpt lat="39.85663386667855" lon="9.481031666247814"><ele>698.0</ele><time>2026-04-28T12:31:12.916Z</time></trkpt><trkpt lat="39.856500631230354" lon="9.481241472909392"><ele>698.0</ele><time>2026-04-28T12:31:13.916Z</time></trkpt><trkpt lat="39.8563645418741" lon="9.481434832093571"><ele>693.0</ele><time>2026-04-28T12:31:14.916Z</time></trkpt><trkpt lat="39.85621160026087" lon="9.481577321048647"><ele>688.0</ele><time>2026-04-28T12:31:15.916Z</time></trkpt><trkpt lat="39.85602300739267" lon="9.481632433478158"><ele>683.0</ele><time>2026-04-28T12:31:16.916Z</time></trkpt><trkpt lat="39.855818150191446" lon="9.48165933515534"><ele>683.0</ele><time>2026-04-28T12:31:17.916Z</time></trkpt><trkpt lat="39.855615043406914" lon="9.481676325615235"><ele>683.0</ele><time>2026-04-28T12:31:18.916Z</time></trkpt><trkpt lat="39.855408910747464" lon="9.481676665144342"><ele>683.0</ele><time>2026-04-28T12:31:19.916Z</time></trkpt><trkpt lat="39.85519656468943" lon="9.481656890814934"><ele>683.3333333333333</ele><time>2026-04-28T12:31:20.916Z</time></trkpt><trkpt lat="39.85497697321119" lon="9.481658446297912"><ele>683.6666666666666</ele><time>2026-04-28T12:31:21.916Z</time></trkpt><trkpt lat="39.85476523151027" lon="9.481684386574626"><ele>684.0</ele><time>2026-04-28T12:31:22.916Z</time></trkpt><trkpt lat="39.854572986656365" lon="9.481755828310707"><ele>684.0</ele><time>2026-04-28T12:31:23.916Z</time></trkpt><trkpt lat="39.854401719130216" lon="9.481840385601952"><ele>684.0</ele><time>2026-04-28T12:31:24.916Z</time></trkpt><trkpt lat="39.854249102518004" lon="9.481930494925797"><ele>684.0</ele><time>2026-04-28T12:31:25.916Z</time></trkpt><trkpt lat="39.85413142493636" lon="9.482061277670963"><ele>679.3333333333334</ele><time>2026-04-28T12:31:26.916Z</time></trkpt><trkpt lat="39.85406620214149" lon="9.48225609120511"><ele>674.6666666666667</ele><time>2026-04-28T12:31:27.916Z</time></trkpt><trkpt lat="39.85404077479008" lon="9.48249475359091"><ele>670.0</ele><time>2026-04-28T12:31:28.916Z</time></trkpt><trkpt lat="39.85397802138864" lon="9.482729921723102"><ele>670.0</ele><time>2026-04-28T12:31:29.916Z</time></trkpt><trkpt lat="39.853833695083985" lon="9.482891100853868"><ele>670.0</ele><time>2026-04-28T12:31:30.916Z</time></trkpt><trkpt lat="39.85367628871543" lon="9.483034682608102"><ele>670.0</ele><time>2026-04-28T12:31:31.916Z</time></trkpt><trkpt lat="39.853525377342024" lon="9.483185881546055"><ele>669.6666666666667</ele><time>2026-04-28T12:31:32.916Z</time></trkpt><trkpt lat="39.85335513868583" lon="9.483300100950544"><ele>669.3333333333334</ele><time>2026-04-28T12:31:33.916Z</time></trkpt><trkpt lat="39.853189155167996" lon="9.48340257278275"><ele>669.0</ele><time>2026-04-28T12:31:34.917Z</time></trkpt><trkpt lat="39.853099495536384" lon="9.483604027033644"><ele>659.3333333333334</ele><time>2026-04-28T12:31:35.917Z</time></trkpt><trkpt lat="39.85301770801327" lon="9.483804688142925"><ele>649.6666666666667</ele><time>2026-04-28T12:31:36.917Z</time></trkpt><trkpt lat="39.8528808927101" lon="9.483956621298088"><ele>640.0</ele><time>2026-04-28T12:31:37.916Z</time></trkpt><trkpt lat="39.85271502307947" lon="9.484026741239854"><ele>645.0</ele><time>2026-04-28T12:31:38.916Z</time></trkpt><trkpt lat="39.8525208212577" lon="9.484051209265271"><ele>650.0</ele><time>2026-04-28T12:31:39.916Z</time></trkpt><trkpt lat="39.85232730350288" lon="9.484082988023"><ele>655.0</ele><time>2026-04-28T12:31:40.916Z</time></trkpt><trkpt lat="39.852141857175894" lon="9.484123684603578"><ele>655.0</ele><time>2026-04-28T12:31:41.916Z</time></trkpt><trkpt lat="39.85196974883784" lon="9.484177835619716"><ele>655.0</ele><time>2026-04-28T12:31:42.916Z</time></trkpt><trkpt lat="39.851804987896635" lon="9.48420673531958"><ele>655.0</ele><time>2026-04-28T12:31:43.915Z</time></trkpt><trkpt lat="39.85164475797478" lon="9.484195959016583"><ele>655.6666666666667</ele><time>2026-04-28T12:31:44.915Z</time></trkpt><trkpt lat="39.85149252037571" lon="9.484142755336968"><ele>656.3333333333334</ele><time>2026-04-28T12:31:45.915Z</time></trkpt><trkpt lat="39.85132618589809" lon="9.484044392646124"><ele>657.0</ele><time>2026-04-28T12:31:46.915Z</time></trkpt><trkpt lat="39.85115281513159" lon="9.484019129637021"><ele>657.0</ele><time>2026-04-28T12:31:47.915Z</time></trkpt><trkpt lat="39.850978718542045" lon="9.484062325949852"><ele>657.0</ele><time>2026-04-28T12:31:48.915Z</time></trkpt><trkpt lat="39.8508122105475" lon="9.484058855597157"><ele>657.0</ele><time>2026-04-28T12:31:49.915Z</time></trkpt><trkpt lat="39.85066262972056" lon="9.484041413829555"><ele>655.5</ele><time>2026-04-28T12:31:50.915Z</time></trkpt><trkpt lat="39.850535680445596" lon="9.484099980263672"><ele>654.0</ele><time>2026-04-28T12:31:51.915Z</time></trkpt><trkpt lat="39.85042997351582" lon="9.484217826388855"><ele>652.5</ele><time>2026-04-28T12:31:52.915Z</time></trkpt><trkpt lat="39.850352247567024" lon="9.484334900422295"><ele>651.0</ele><time>2026-04-28T12:31:53.915Z</time></trkpt><trkpt lat="39.85031055059791" lon="9.484433977599208"><ele>651.0</ele><time>2026-04-28T12:31:54.915Z</time></trkpt><trkpt lat="39.850336356778726" lon="9.48454559750341"><ele>651.0</ele><time>2026-04-28T12:31:55.915Z</time></trkpt><trkpt lat="39.8504206021746" lon="9.484579250699506"><ele>651.0</ele><time>2026-04-28T12:31:56.915Z</time></trkpt><trkpt lat="39.850528970116606" lon="9.48451284761481"><ele>651.0</ele><time>2026-04-28T12:31:57.915Z</time></trkpt><trkpt lat="39.85061491385969" lon="9.484349052135485"><ele>651.0</ele><time>2026-04-28T12:31:58.915Z</time></trkpt><trkpt lat="39.85069142023096" lon="9.484222334646539"><ele>651.0</ele><time>2026-04-28T12:31:59.915Z</time></trkpt><trkpt lat="39.85080363842011" lon="9.484207090935485"><ele>651.0</ele><time>2026-04-28T12:32:00.915Z</time></trkpt><trkpt lat="39.85094784774598" lon="9.48429135202849"><ele>651.0</ele><time>2026-04-28T12:32:01.915Z</time></trkpt><trkpt lat="39.851097790983964" lon="9.484386086502829"><ele>652.5</ele><time>2026-04-28T12:32:02.915Z</time></trkpt><trkpt lat="39.85124217180139" lon="9.484451507009085"><ele>654.0</ele><time>2026-04-28T12:32:03.915Z</time></trkpt><trkpt lat="39.85133646786115" lon="9.484541280781409"><ele>655.5</ele><time>2026-04-28T12:32:04.915Z</time></trkpt><trkpt lat="39.85137646208872" lon="9.484683251880075"><ele>657.0</ele><time>2026-04-28T12:32:05.915Z</time></trkpt><trkpt lat="39.85138465644925" lon="9.484859843191611"><ele>649.3333333333334</ele><time>2026-04-28T12:32:06.915Z</time></trkpt><trkpt lat="39.85146151656662" lon="9.484996848324746"><ele>641.6666666666667</ele><time>2026-04-28T12:32:07.915Z</time></trkpt><trkpt lat="39.85160418887529" lon="9.48505993661227"><ele>634.0</ele><time>2026-04-28T12:32:08.915Z</time></trkpt><trkpt lat="39.851795419392964" lon="9.485082276819663"><ele>632.0</ele><time>2026-04-28T12:32:09.915Z</time></trkpt><trkpt lat="39.851987644485334" lon="9.485134442316108"><ele>630.0</ele><time>2026-04-28T12:32:10.915Z</time></trkpt><trkpt lat="39.85215924229399" lon="9.485191372994837"><ele>628.0</ele><time>2026-04-28T12:32:11.915Z</time></trkpt><trkpt lat="39.85234514997871" lon="9.485201233484121"><ele>628.0</ele><time>2026-04-28T12:32:12.915Z</time></trkpt><trkpt lat="39.85254384616342" lon="9.485141390153137"><ele>628.0</ele><time>2026-04-28T12:32:13.915Z</time></trkpt><trkpt lat="39.852749264732466" lon="9.485044524775025"><ele>628.0</ele><time>2026-04-28T12:32:14.915Z</time></trkpt><trkpt lat="39.85294687562209" lon="9.484920551556657"><ele>622.0</ele><time>2026-04-28T12:32:15.915Z</time></trkpt><trkpt lat="39.85312637632833" lon="9.484775721000776"><ele>616.0</ele><time>2026-04-28T12:32:16.915Z</time></trkpt><trkpt lat="39.853299717554684" lon="9.484658429683316"><ele>610.0</ele><time>2026-04-28T12:32:17.915Z</time></trkpt><trkpt lat="39.853473720053785" lon="9.484616602231682"><ele>613.6666666666667</ele><time>2026-04-28T12:32:18.915Z</time></trkpt><trkpt lat="39.853657088823724" lon="9.484646251083102"><ele>617.3333333333334</ele><time>2026-04-28T12:32:19.915Z</time></trkpt><trkpt lat="39.85383143785829" lon="9.484605927762955"><ele>621.0</ele><time>2026-04-28T12:32:20.915Z</time></trkpt><trkpt lat="39.85399927752971" lon="9.484476880415922"><ele>621.0</ele><time>2026-04-28T12:32:21.915Z</time></trkpt><trkpt lat="39.854163266170424" lon="9.484311693892332"><ele>621.0</ele><time>2026-04-28T12:32:22.915Z</time></trkpt><trkpt lat="39.85435200311304" lon="9.484230174878373"><ele>621.0</ele><time>2026-04-28T12:32:23.915Z</time></trkpt><trkpt lat="39.85454536739197" lon="9.484219058574235"><ele>617.0</ele><time>2026-04-28T12:32:24.915Z</time></trkpt><trkpt lat="39.85473471365373" lon="9.48422822296667"><ele>613.0</ele><time>2026-04-28T12:32:25.915Z</time></trkpt><trkpt lat="39.854919654719886" lon="9.484285365907196"><ele>609.0</ele><time>2026-04-28T12:32:26.915Z</time></trkpt><trkpt lat="39.85508400974378" lon="9.484393607985897"><ele>608.5</ele><time>2026-04-28T12:32:27.915Z</time></trkpt><trkpt lat="39.85522458816047" lon="9.484464971697168"><ele>608.0</ele><time>2026-04-28T12:32:28.915Z</time></trkpt><trkpt lat="39.85534571918985" lon="9.484446479498214"><ele>607.5</ele><time>2026-04-28T12:32:29.915Z</time></trkpt><trkpt lat="39.85545075716663" lon="9.484334115156178"><ele>607.0</ele><time>2026-04-28T12:32:30.915Z</time></trkpt><trkpt lat="39.85554001339453" lon="9.484187602231078"><ele>607.0</ele><time>2026-04-28T12:32:31.915Z</time></trkpt><trkpt lat="39.85564092216101" lon="9.484166420202309"><ele>607.0</ele><time>2026-04-28T12:32:32.915Z</time></trkpt><trkpt lat="39.85575911118237" lon="9.48428834326784"><ele>607.0</ele><time>2026-04-28T12:32:33.915Z</time></trkpt><trkpt lat="39.85589595715682" lon="9.484450558918091"><ele>607.0</ele><time>2026-04-28T12:32:34.915Z</time></trkpt><trkpt lat="39.85605562546918" lon="9.484528214283726"><ele>604.0</ele><time>2026-04-28T12:32:35.915Z</time></trkpt><trkpt lat="39.85625230272578" lon="9.484532146508815"><ele>601.0</ele><time>2026-04-28T12:32:36.915Z</time></trkpt><trkpt lat="39.85642762246377" lon="9.484499068717009"><ele>598.0</ele><time>2026-04-28T12:32:37.915Z</time></trkpt><trkpt lat="39.856580692567775" lon="9.484443923347078"><ele>598.0</ele><time>2026-04-28T12:32:38.915Z</time></trkpt><trkpt lat="39.85673492093799" lon="9.484327682989283"><ele>598.0</ele><time>2026-04-28T12:32:39.915Z</time></trkpt><trkpt lat="39.85683625627857" lon="9.484186186116979"><ele>598.0</ele><time>2026-04-28T12:32:40.915Z</time></trkpt><trkpt lat="39.85692947131961" lon="9.484090645931648"><ele>598.0</ele><time>2026-04-28T12:32:41.915Z</time></trkpt><trkpt lat="39.85707089559754" lon="9.484125098504787"><ele>595.4</ele><time>2026-04-28T12:32:42.915Z</time></trkpt><trkpt lat="39.857201339941895" lon="9.484128588514006"><ele>592.8</ele><time>2026-04-28T12:32:43.915Z</time></trkpt><trkpt lat="39.85730946403593" lon="9.484041015875892"><ele>590.2</ele><time>2026-04-28T12:32:44.914Z</time></trkpt><trkpt lat="39.857363144217445" lon="9.483927898953388"><ele>587.6</ele><time>2026-04-28T12:32:45.914Z</time></trkpt><trkpt lat="39.857429428353505" lon="9.483914017813467"><ele>585.0</ele><time>2026-04-28T12:32:46.914Z</time></trkpt><trkpt lat="39.85746519446155" lon="9.484011813141667"><ele>585.0</ele><time>2026-04-28T12:32:47.914Z</time></trkpt><trkpt lat="39.857417762853444" lon="9.484152233206958"><ele>585.0</ele><time>2026-04-28T12:32:48.914Z</time></trkpt><trkpt lat="39.85729403263397" lon="9.484267374940925"><ele>585.0</ele><time>2026-04-28T12:32:49.914Z</time></trkpt><trkpt lat="39.857131825513946" lon="9.484366607028937"><ele>585.0</ele><time>2026-04-28T12:32:50.914Z</time></trkpt><trkpt lat="39.85696763976686" lon="9.48445154659108"><ele>585.0</ele><time>2026-04-28T12:32:51.914Z</time></trkpt><trkpt lat="39.856802226899" lon="9.484539316952517"><ele>585.0</ele><time>2026-04-28T12:32:52.914Z</time></trkpt><trkpt lat="39.856640173430094" lon="9.484717734941654"><ele>585.0</ele><time>2026-04-28T12:32:53.914Z</time></trkpt><trkpt lat="39.85648338509594" lon="9.484898357012126"><ele>581.3333333333334</ele><time>2026-04-28T12:32:54.914Z</time></trkpt><trkpt lat="39.856346478719736" lon="9.48509091986469"><ele>577.6666666666667</ele><time>2026-04-28T12:32:55.914Z</time></trkpt><trkpt lat="39.85621983310104" lon="9.48527567241102"><ele>574.0</ele><time>2026-04-28T12:32:56.914Z</time></trkpt><trkpt lat="39.85609089014441" lon="9.485422339680024"><ele>570.3333333333334</ele><time>2026-04-28T12:32:57.914Z</time></trkpt><trkpt lat="39.855922201082294" lon="9.485533985742817"><ele>566.6666666666666</ele><time>2026-04-28T12:32:58.914Z</time></trkpt><trkpt lat="39.855752206528614" lon="9.485643810888588"><ele>563.0</ele><time>2026-04-28T12:32:59.914Z</time></trkpt><trkpt lat="39.855582179836084" lon="9.485778357781545"><ele>563.0</ele><time>2026-04-28T12:33:00.914Z</time></trkpt><trkpt lat="39.85542924410819" lon="9.485929067679578"><ele>563.0</ele><time>2026-04-28T12:33:01.914Z</time></trkpt><trkpt lat="39.855296524061245" lon="9.48606800133898"><ele>563.0</ele><time>2026-04-28T12:33:02.914Z</time></trkpt><trkpt lat="39.85520194956217" lon="9.48621217840535"><ele>566.25</ele><time>2026-04-28T12:33:03.914Z</time></trkpt><trkpt lat="39.85509415366573" lon="9.486319800168253"><ele>569.5</ele><time>2026-04-28T12:33:04.914Z</time></trkpt><trkpt lat="39.85493910549252" lon="9.486347417950109"><ele>572.75</ele><time>2026-04-28T12:33:05.914Z</time></trkpt><trkpt lat="39.85479810470276" lon="9.486281057095773"><ele>576.0</ele><time>2026-04-28T12:33:06.914Z</time></trkpt><trkpt lat="39.85467192542151" lon="9.486230059073979"><ele>569.0</ele><time>2026-04-28T12:33:07.914Z</time></trkpt><trkpt lat="39.85457238171146" lon="9.48629009977855"><ele>562.0</ele><time>2026-04-28T12:33:08.914Z</time></trkpt><trkpt lat="39.85446774533363" lon="9.486430217981455"><ele>555.0</ele><time>2026-04-28T12:33:09.914Z</time></trkpt><trkpt lat="39.85439669102362" lon="9.486600978675341"><ele>548.0</ele><time>2026-04-28T12:33:10.914Z</time></trkpt><trkpt lat="39.85430326865378" lon="9.48679143580848"><ele>545.75</ele><time>2026-04-28T12:33:11.914Z</time></trkpt><trkpt lat="39.854203996225216" lon="9.486948695290469"><ele>543.5</ele><time>2026-04-28T12:33:12.914Z</time></trkpt><trkpt lat="39.85412369320526" lon="9.487089613452222"><ele>541.25</ele><time>2026-04-28T12:33:13.914Z</time></trkpt><trkpt lat="39.854050361080304" lon="9.487227105992442"><ele>539.0</ele><time>2026-04-28T12:33:14.914Z</time></trkpt><trkpt lat="39.85397759654798" lon="9.487348812701327"><ele>539.0</ele><time>2026-04-28T12:33:15.914Z</time></trkpt><trkpt lat="39.85389260807601" lon="9.487450207165022"><ele>539.0</ele><time>2026-04-28T12:33:16.914Z</time></trkpt><trkpt lat="39.85377234139561" lon="9.48749724368993"><ele>539.0</ele><time>2026-04-28T12:33:17.914Z</time></trkpt><trkpt lat="39.85362381574497" lon="9.487534967405725"><ele>539.0</ele><time>2026-04-28T12:33:18.914Z</time></trkpt><trkpt lat="39.85346409360952" lon="9.487590814704804"><ele>541.3333333333333</ele><time>2026-04-28T12:33:19.914Z</time></trkpt><trkpt lat="39.853279223640925" lon="9.487634614248881"><ele>543.6666666666666</ele><time>2026-04-28T12:33:20.914Z</time></trkpt><trkpt lat="39.853089346467975" lon="9.48767585334345"><ele>546.0</ele><time>2026-04-28T12:33:21.914Z</time></trkpt><trkpt lat="39.852918208510914" lon="9.487739918465486"><ele>546.0</ele><time>2026-04-28T12:33:22.914Z</time></trkpt><trkpt lat="39.85277066353422" lon="9.487860987476484"><ele>546.0</ele><time>2026-04-28T12:33:23.914Z</time></trkpt><trkpt lat="39.85266946048555" lon="9.488028686472859"><ele>546.0</ele><time>2026-04-28T12:33:24.914Z</time></trkpt><trkpt lat="39.852602714377454" lon="9.48819180232234"><ele>542.25</ele><time>2026-04-28T12:33:25.914Z</time></trkpt><trkpt lat="39.85252768755084" lon="9.488295419994023"><ele>538.5</ele><time>2026-04-28T12:33:26.914Z</time></trkpt><trkpt lat="39.85241285896814" lon="9.488293654408297"><ele>534.75</ele><time>2026-04-28T12:33:27.914Z</time></trkpt><trkpt lat="39.852288045200055" lon="9.488213097933262"><ele>531.0</ele><time>2026-04-28T12:33:28.914Z</time></trkpt><trkpt lat="39.85213927454209" lon="9.488117658456257"><ele>531.0</ele><time>2026-04-28T12:33:29.914Z</time></trkpt><trkpt lat="39.85196718205379" lon="9.488049544627502"><ele>531.0</ele><time>2026-04-28T12:33:30.914Z</time></trkpt><trkpt lat="39.85177335533576" lon="9.48808001069194"><ele>531.0</ele><time>2026-04-28T12:33:31.914Z</time></trkpt><trkpt lat="39.851576394671916" lon="9.488155097253678"><ele>530.3333333333334</ele><time>2026-04-28T12:33:32.914Z</time></trkpt><trkpt lat="39.851390759402136" lon="9.488215305847916"><ele>529.6666666666667</ele><time>2026-04-28T12:33:33.914Z</time></trkpt><trkpt lat="39.851250452657055" lon="9.488350087792515"><ele>529.0</ele><time>2026-04-28T12:33:34.914Z</time></trkpt><trkpt lat="39.8511490009535" lon="9.488549623352927"><ele>529.0</ele><time>2026-04-28T12:33:35.914Z</time></trkpt><trkpt lat="39.85101596352767" lon="9.48875304056511"><ele>529.0</ele><time>2026-04-28T12:33:36.915Z</time></trkpt><trkpt lat="39.850964185916006" lon="9.488832932573061"><ele>529.0</ele><time>2026-04-28T12:33:37.915Z</time></trkpt><trkpt lat="39.850870597141196" lon="9.48890876137691"><ele>529.0</ele><time>2026-04-28T12:33:38.915Z</time></trkpt><trkpt lat="39.85076261738247" lon="9.488928590674712"><ele>526.3333333333334</ele><time>2026-04-28T12:33:39.915Z</time></trkpt><trkpt lat="39.85066393384987" lon="9.48887811918358"><ele>523.6666666666667</ele><time>2026-04-28T12:33:40.916Z</time></trkpt><trkpt lat="39.85057793637366" lon="9.488812262221908"><ele>521.0</ele><time>2026-04-28T12:33:41.916Z</time></trkpt><trkpt lat="39.85049685233098" lon="9.488803989480614"><ele>518.3333333333334</ele><time>2026-04-28T12:33:42.915Z</time></trkpt><trkpt lat="39.85044959748558" lon="9.488863141709274"><ele>515.6666666666666</ele><time>2026-04-28T12:33:43.915Z</time></trkpt><trkpt lat="39.85045918572281" lon="9.488949106810342"><ele>513.0</ele><time>2026-04-28T12:33:44.915Z</time></trkpt><trkpt lat="39.850514614135555" lon="9.489025680360733"><ele>513.0</ele><time>2026-04-28T12:33:45.916Z</time></trkpt><trkpt lat="39.85059266559236" lon="9.489061557252246"><ele>513.0</ele><time>2026-04-28T12:33:46.915Z</time></trkpt><trkpt lat="39.85067924138687" lon="9.489084527168107"><ele>513.0</ele><time>2026-04-28T12:33:47.915Z</time></trkpt><trkpt lat="39.85078063033463" lon="9.489117746259403"><ele>513.0</ele><time>2026-04-28T12:33:48.915Z</time></trkpt><trkpt lat="39.85087941093806" lon="9.489139828810453"><ele>513.0</ele><time>2026-04-28T12:33:49.915Z</time></trkpt><trkpt lat="39.85096486418619" lon="9.48915504946742"><ele>513.1999999999999</ele><time>2026-04-28T12:33:50.915Z</time></trkpt><trkpt lat="39.85103736086093" lon="9.489154758707814"><ele>513.4</ele><time>2026-04-28T12:33:51.915Z</time></trkpt><trkpt lat="39.851157399541485" lon="9.489119609546693"><ele>513.5999999999999</ele><time>2026-04-28T12:33:53.915Z</time></trkpt><trkpt lat="39.85127802557064" lon="9.489083493725477"><ele>513.8</ele><time>2026-04-28T12:33:55.915Z</time></trkpt><trkpt lat="39.85134253627056" lon="9.489060033277028"><ele>514.0</ele><time>2026-04-28T12:33:56.915Z</time></trkpt><trkpt lat="39.85141140904769" lon="9.489043266645067"><ele>514.0</ele><time>2026-04-28T12:33:57.915Z</time></trkpt><trkpt lat="39.85148104865668" lon="9.489056173922297"><ele>514.0</ele><time>2026-04-28T12:33:58.915Z</time></trkpt><trkpt lat="39.8515452173348" lon="9.48920503115339"><ele>514.0</ele><time>2026-04-28T12:34:00.915Z</time></trkpt><trkpt lat="39.85154324996748" lon="9.489325572361563"><ele>514.0</ele><time>2026-04-28T12:34:01.915Z</time></trkpt><trkpt lat="39.85153756570205" lon="9.489463309080245"><ele>514.0</ele><time>2026-04-28T12:34:02.915Z</time></trkpt><trkpt lat="39.85155211264034" lon="9.489602499433088"><ele>509.0</ele><time>2026-04-28T12:34:03.915Z</time></trkpt><trkpt lat="39.851616270107854" lon="9.489729088970803"><ele>504.0</ele><time>2026-04-28T12:34:04.915Z</time></trkpt><trkpt lat="39.85172584580266" lon="9.489812668858914"><ele>499.0</ele><time>2026-04-28T12:34:05.915Z</time></trkpt><trkpt lat="39.8518611241846" lon="9.489851100636308"><ele>494.0</ele><time>2026-04-28T12:34:06.914Z</time></trkpt><trkpt lat="39.8520212232467" lon="9.489869546430112"><ele>494.0</ele><time>2026-04-28T12:34:07.914Z</time></trkpt><trkpt lat="39.85218225608849" lon="9.489886828613095"><ele>494.0</ele><time>2026-04-28T12:34:08.914Z</time></trkpt><trkpt lat="39.85233369278924" lon="9.489917434396162"><ele>494.0</ele><time>2026-04-28T12:34:09.914Z</time></trkpt><trkpt lat="39.85249440933621" lon="9.489926021413297"><ele>487.66666666666663</ele><time>2026-04-28T12:34:10.914Z</time></trkpt><trkpt lat="39.85266048088402" lon="9.489882464712753"><ele>481.33333333333337</ele><time>2026-04-28T12:34:11.914Z</time></trkpt><trkpt lat="39.85282494351021" lon="9.48981092902983"><ele>475.0</ele><time>2026-04-28T12:34:12.914Z</time></trkpt><trkpt lat="39.85299306197485" lon="9.489721404505444"><ele>475.0</ele><time>2026-04-28T12:34:13.914Z</time></trkpt><trkpt lat="39.85316288402383" lon="9.489626274556663"><ele>475.0</ele><time>2026-04-28T12:34:14.914Z</time></trkpt><trkpt lat="39.85333906425292" lon="9.48955357072147"><ele>475.0</ele><time>2026-04-28T12:34:15.914Z</time></trkpt><trkpt lat="39.85351225173167" lon="9.4894948553198"><ele>479.6666666666667</ele><time>2026-04-28T12:34:16.914Z</time></trkpt><trkpt lat="39.85369204927861" lon="9.489440131060931"><ele>484.33333333333337</ele><time>2026-04-28T12:34:17.914Z</time></trkpt><trkpt lat="39.853872236687344" lon="9.48937578318128"><ele>489.0</ele><time>2026-04-28T12:34:18.914Z</time></trkpt><trkpt lat="39.85405391163741" lon="9.489296966928665"><ele>489.0</ele><time>2026-04-28T12:34:19.914Z</time></trkpt><trkpt lat="39.85424305679097" lon="9.489239883888535"><ele>489.0</ele><time>2026-04-28T12:34:20.914Z</time></trkpt><trkpt lat="39.854440729641794" lon="9.489217134917165"><ele>489.0</ele><time>2026-04-28T12:34:21.914Z</time></trkpt><trkpt lat="39.85463728898781" lon="9.489186490502078"><ele>484.33333333333337</ele><time>2026-04-28T12:34:22.914Z</time></trkpt><trkpt lat="39.854826588328784" lon="9.489113956109346"><ele>479.6666666666667</ele><time>2026-04-28T12:34:23.914Z</time></trkpt><trkpt lat="39.85501006866052" lon="9.489021368486993"><ele>475.0</ele><time>2026-04-28T12:34:24.914Z</time></trkpt><trkpt lat="39.85518019610486" lon="9.488921595265237"><ele>471.0</ele><time>2026-04-28T12:34:25.914Z</time></trkpt><trkpt lat="39.85535745698148" lon="9.488835998744703"><ele>467.0</ele><time>2026-04-28T12:34:26.914Z</time></trkpt><trkpt lat="39.85554156643471" lon="9.488790699288096"><ele>463.0</ele><time>2026-04-28T12:34:27.914Z</time></trkpt><trkpt lat="39.85573384270869" lon="9.488813861756867"><ele>463.0</ele><time>2026-04-28T12:34:28.914Z</time></trkpt><trkpt lat="39.855935322109765" lon="9.488851325075814"><ele>463.0</ele><time>2026-04-28T12:34:29.914Z</time></trkpt><trkpt lat="39.85612780995737" lon="9.488854478157785"><ele>463.0</ele><time>2026-04-28T12:34:30.914Z</time></trkpt><trkpt lat="39.8563233654516" lon="9.488862895799622"><ele>464.6666666666667</ele><time>2026-04-28T12:34:31.914Z</time></trkpt><trkpt lat="39.85650575187701" lon="9.488891662533842"><ele>466.33333333333337</ele><time>2026-04-28T12:34:32.914Z</time></trkpt><trkpt lat="39.856667466342216" lon="9.48892799807319"><ele>468.0</ele><time>2026-04-28T12:34:33.914Z</time></trkpt><trkpt lat="39.856800605940236" lon="9.48898406552166"><ele>472.75</ele><time>2026-04-28T12:34:34.914Z</time></trkpt><trkpt lat="39.85690147363515" lon="9.48911291406572"><ele>477.5</ele><time>2026-04-28T12:34:35.914Z</time></trkpt><trkpt lat="39.85695923868666" lon="9.48928705436165"><ele>482.25</ele><time>2026-04-28T12:34:36.914Z</time></trkpt><trkpt lat="39.85696326284642" lon="9.489471477508681"><ele>487.0</ele><time>2026-04-28T12:34:37.914Z</time></trkpt><trkpt lat="39.856903893975925" lon="9.489615579707879"><ele>487.33333333333337</ele><time>2026-04-28T12:34:38.914Z</time></trkpt><trkpt lat="39.85676696666788" lon="9.489707735188919"><ele>487.66666666666663</ele><time>2026-04-28T12:34:39.914Z</time></trkpt><trkpt lat="39.856597231182484" lon="9.489772849036308"><ele>488.0</ele><time>2026-04-28T12:34:40.914Z</time></trkpt><trkpt lat="39.85643206812191" lon="9.489820181861267"><ele>488.0</ele><time>2026-04-28T12:34:41.914Z</time></trkpt><trkpt lat="39.85625622405282" lon="9.489866849657036"><ele>488.0</ele><time>2026-04-28T12:34:42.914Z</time></trkpt><trkpt lat="39.85607598179506" lon="9.489921436060026"><ele>488.0</ele><time>2026-04-28T12:34:43.914Z</time></trkpt><trkpt lat="39.85592697061379" lon="9.490014063566013"><ele>487.3333333333333</ele><time>2026-04-28T12:34:44.914Z</time></trkpt><trkpt lat="39.85583446690753" lon="9.490142511067877"><ele>486.66666666666663</ele><time>2026-04-28T12:34:45.914Z</time></trkpt><trkpt lat="39.8557897276299" lon="9.490336065025321"><ele>486.0</ele><time>2026-04-28T12:34:46.914Z</time></trkpt><trkpt lat="39.8557277689149" lon="9.49055371694693"><ele>486.0</ele><time>2026-04-28T12:34:47.914Z</time></trkpt><trkpt lat="39.85560394281102" lon="9.490761016270653"><ele>486.0</ele><time>2026-04-28T12:34:48.914Z</time></trkpt><trkpt lat="39.85547576517346" lon="9.49096978034538"><ele>486.0</ele><time>2026-04-28T12:34:49.914Z</time></trkpt><trkpt lat="39.85536687876847" lon="9.491185270751568"><ele>484.66666666666663</ele><time>2026-04-28T12:34:50.914Z</time></trkpt><trkpt lat="39.85524316321444" lon="9.491389174103366"><ele>483.3333333333333</ele><time>2026-04-28T12:34:51.914Z</time></trkpt><trkpt lat="39.85508347906398" lon="9.491543647168514"><ele>482.0</ele><time>2026-04-28T12:34:52.914Z</time></trkpt><trkpt lat="39.854941169558266" lon="9.491707710661597"><ele>482.0</ele><time>2026-04-28T12:34:53.914Z</time></trkpt><trkpt lat="39.85482122629185" lon="9.491910123998332"><ele>482.0</ele><time>2026-04-28T12:34:54.914Z</time></trkpt><trkpt lat="39.85471386259017" lon="9.49213145973341"><ele>482.0</ele><time>2026-04-28T12:34:55.914Z</time></trkpt><trkpt lat="39.85459962153263" lon="9.492354755056008"><ele>479.0</ele><time>2026-04-28T12:34:56.914Z</time></trkpt><trkpt lat="39.85448019758094" lon="9.492581864582839"><ele>476.0</ele><time>2026-04-28T12:34:57.914Z</time></trkpt><trkpt lat="39.854319653721056" lon="9.492761193913978"><ele>473.0</ele><time>2026-04-28T12:34:58.914Z</time></trkpt><trkpt lat="39.8541391848929" lon="9.492887317480424"><ele>479.3333333333333</ele><time>2026-04-28T12:34:59.914Z</time></trkpt><trkpt lat="39.853968333153055" lon="9.492999309711296"><ele>485.66666666666663</ele><time>2026-04-28T12:35:00.914Z</time></trkpt><trkpt lat="39.85383977014046" lon="9.493147472081805"><ele>492.0</ele><time>2026-04-28T12:35:01.914Z</time></trkpt><trkpt lat="39.85376213137584" lon="9.49335114171882"><ele>492.0</ele><time>2026-04-28T12:35:02.914Z</time></trkpt><trkpt lat="39.85368048789949" lon="9.493577827314693"><ele>492.0</ele><time>2026-04-28T12:35:03.914Z</time></trkpt><trkpt lat="39.85358742779356" lon="9.493815669826002"><ele>492.0</ele><time>2026-04-28T12:35:04.914Z</time></trkpt><trkpt lat="39.85347407986817" lon="9.494054323493122"><ele>490.33333333333337</ele><time>2026-04-28T12:35:05.914Z</time></trkpt><trkpt lat="39.85334998151631" lon="9.494281808295218"><ele>488.6666666666667</ele><time>2026-04-28T12:35:06.914Z</time></trkpt><trkpt lat="39.85320778006669" lon="9.494476313260115"><ele>487.0</ele><time>2026-04-28T12:35:07.914Z</time></trkpt><trkpt lat="39.853041012365274" lon="9.49461149824739"><ele>487.33333333333337</ele><time>2026-04-28T12:35:08.914Z</time></trkpt><trkpt lat="39.85284880999975" lon="9.494684872239763"><ele>487.66666666666663</ele><time>2026-04-28T12:35:09.914Z</time></trkpt><trkpt lat="39.85267402778414" lon="9.4947861077372"><ele>488.0</ele><time>2026-04-28T12:35:10.914Z</time></trkpt><trkpt lat="39.852531199442126" lon="9.494944071364369"><ele>488.0</ele><time>2026-04-28T12:35:11.914Z</time></trkpt><trkpt lat="39.85242750546273" lon="9.495152628238365"><ele>488.0</ele><time>2026-04-28T12:35:12.914Z</time></trkpt><trkpt lat="39.8523598370134" lon="9.49538734569779"><ele>488.0</ele><time>2026-04-28T12:35:13.913Z</time></trkpt><trkpt lat="39.85233407354196" lon="9.495637307797539"><ele>494.0</ele><time>2026-04-28T12:35:14.913Z</time></trkpt><trkpt lat="39.85230583966415" lon="9.495861355374007"><ele>500.0</ele><time>2026-04-28T12:35:15.913Z</time></trkpt><trkpt lat="39.852241230265676" lon="9.496027092084478"><ele>506.0</ele><time>2026-04-28T12:35:16.913Z</time></trkpt><trkpt lat="39.8521139336079" lon="9.496141948352978"><ele>504.0</ele><time>2026-04-28T12:35:17.913Z</time></trkpt><trkpt lat="39.85199352483222" lon="9.496300481526024"><ele>502.0</ele><time>2026-04-28T12:35:18.913Z</time></trkpt><trkpt lat="39.85186556411065" lon="9.49646944367982"><ele>500.0</ele><time>2026-04-28T12:35:19.913Z</time></trkpt><trkpt lat="39.85171669509697" lon="9.49664156367409"><ele>500.0</ele><time>2026-04-28T12:35:20.913Z</time></trkpt><trkpt lat="39.85156904774327" lon="9.496821813024686"><ele>500.0</ele><time>2026-04-28T12:35:21.913Z</time></trkpt><trkpt lat="39.85142875667702" lon="9.49701236121578"><ele>500.0</ele><time>2026-04-28T12:35:22.913Z</time></trkpt><trkpt lat="39.851294000034095" lon="9.497202185458237"><ele>505.3333333333333</ele><time>2026-04-28T12:35:23.913Z</time></trkpt><trkpt lat="39.85118214194924" lon="9.49738848232476"><ele>510.66666666666663</ele><time>2026-04-28T12:35:24.913Z</time></trkpt><trkpt lat="39.851111040493684" lon="9.497586165998008"><ele>516.0</ele><time>2026-04-28T12:35:25.913Z</time></trkpt><trkpt lat="39.85101805067905" lon="9.497743589222377"><ele>520.6666666666666</ele><time>2026-04-28T12:35:26.913Z</time></trkpt><trkpt lat="39.85087899875684" lon="9.497838625949825"><ele>525.3333333333333</ele><time>2026-04-28T12:35:27.913Z</time></trkpt><trkpt lat="39.8507117695239" lon="9.497902256145224"><ele>530.0</ele><time>2026-04-28T12:35:28.913Z</time></trkpt><trkpt lat="39.85053379562511" lon="9.497953109784552"><ele>530.0</ele><time>2026-04-28T12:35:29.913Z</time></trkpt><trkpt lat="39.85034388244717" lon="9.497962760785539"><ele>530.0</ele><time>2026-04-28T12:35:30.913Z</time></trkpt><trkpt lat="39.850152293173224" lon="9.497938903211363"><ele>530.0</ele><time>2026-04-28T12:35:31.913Z</time></trkpt><trkpt lat="39.84997197368504" lon="9.49791124649628"><ele>530.3333333333333</ele><time>2026-04-28T12:35:32.913Z</time></trkpt><trkpt lat="39.84980759990166" lon="9.497887953418592"><ele>530.6666666666666</ele><time>2026-04-28T12:35:33.913Z</time></trkpt><trkpt lat="39.84965877349716" lon="9.497895796645574"><ele>531.0</ele><time>2026-04-28T12:35:34.913Z</time></trkpt><trkpt lat="39.84952816083728" lon="9.49796631585592"><ele>531.0</ele><time>2026-04-28T12:35:35.913Z</time></trkpt><trkpt lat="39.84944596176966" lon="9.4980892226221"><ele>531.0</ele><time>2026-04-28T12:35:36.913Z</time></trkpt><trkpt lat="39.84939278251757" lon="9.498254299139322"><ele>531.0</ele><time>2026-04-28T12:35:37.913Z</time></trkpt><trkpt lat="39.849336222054916" lon="9.49841465230401"><ele>531.0</ele><time>2026-04-28T12:35:38.913Z</time></trkpt><trkpt lat="39.84925046071299" lon="9.498506460822103"><ele>532.25</ele><time>2026-04-28T12:35:39.913Z</time></trkpt><trkpt lat="39.849129235016086" lon="9.498544805630564"><ele>533.5</ele><time>2026-04-28T12:35:40.913Z</time></trkpt><trkpt lat="39.849017288928714" lon="9.498590347714394"><ele>534.75</ele><time>2026-04-28T12:35:41.913Z</time></trkpt><trkpt lat="39.848924151194616" lon="9.498699527409324"><ele>536.0</ele><time>2026-04-28T12:35:42.914Z</time></trkpt><trkpt lat="39.848852131673674" lon="9.498838107054668"><ele>536.0</ele><time>2026-04-28T12:35:43.914Z</time></trkpt><trkpt lat="39.8488022217839" lon="9.498991364091768"><ele>536.0</ele><time>2026-04-28T12:35:44.914Z</time></trkpt><trkpt lat="39.848781715913304" lon="9.4991590825487"><ele>536.0</ele><time>2026-04-28T12:35:45.915Z</time></trkpt><trkpt lat="39.848762749091385" lon="9.499315780578602"><ele>536.0</ele><time>2026-04-28T12:35:46.914Z</time></trkpt><trkpt lat="39.84874220950625" lon="9.499469196296657"><ele>540.75</ele><time>2026-04-28T12:35:47.914Z</time></trkpt><trkpt lat="39.848699411561846" lon="9.499614819066524"><ele>545.5</ele><time>2026-04-28T12:35:48.914Z</time></trkpt><trkpt lat="39.84864257666023" lon="9.499741192623455"><ele>550.25</ele><time>2026-04-28T12:35:49.914Z</time></trkpt><trkpt lat="39.848570066967454" lon="9.499855596386166"><ele>555.0</ele><time>2026-04-28T12:35:50.914Z</time></trkpt><trkpt lat="39.84849345129815" lon="9.49997100176287"><ele>547.5</ele><time>2026-04-28T12:35:51.915Z</time></trkpt><trkpt lat="39.84841496488812" lon="9.500083583791554"><ele>540.0</ele><time>2026-04-28T12:35:52.914Z</time></trkpt><trkpt lat="39.84833173325674" lon="9.500193672833918"><ele>532.5</ele><time>2026-04-28T12:35:53.914Z</time></trkpt><trkpt lat="39.8482501837455" lon="9.500306732986623"><ele>525.0</ele><time>2026-04-28T12:35:54.915Z</time></trkpt><trkpt lat="39.848176068493764" lon="9.500407331799456"><ele>525.0</ele><time>2026-04-28T12:35:55.914Z</time></trkpt><trkpt lat="39.84809255684393" lon="9.500464840321111"><ele>525.0</ele><time>2026-04-28T12:35:56.914Z</time></trkpt><trkpt lat="39.84799362268972" lon="9.50045686017479"><ele>525.0</ele><time>2026-04-28T12:35:57.914Z</time></trkpt><trkpt lat="39.84789426445273" lon="9.500406583947674"><ele>525.0</ele><time>2026-04-28T12:35:58.914Z</time></trkpt><trkpt lat="39.84779208570873" lon="9.500353557819187"><ele>525.0</ele><time>2026-04-28T12:35:59.914Z</time></trkpt><trkpt lat="39.847687980863824" lon="9.50035461714206"><ele>522.6</ele><time>2026-04-28T12:36:00.914Z</time></trkpt><trkpt lat="39.84758697432142" lon="9.500415820822631"><ele>520.2</ele><time>2026-04-28T12:36:01.914Z</time></trkpt><trkpt lat="39.84750410675803" lon="9.500509250396146"><ele>517.8</ele><time>2026-04-28T12:36:02.914Z</time></trkpt><trkpt lat="39.84743498024923" lon="9.500625881335353"><ele>515.4</ele><time>2026-04-28T12:36:03.914Z</time></trkpt><trkpt lat="39.847373356416014" lon="9.500747266551748"><ele>513.0</ele><time>2026-04-28T12:36:04.914Z</time></trkpt><trkpt lat="39.8473054914855" lon="9.500871429072252"><ele>520.75</ele><time>2026-04-28T12:36:05.914Z</time></trkpt><trkpt lat="39.84722333905618" lon="9.500974395081466"><ele>528.5</ele><time>2026-04-28T12:36:06.914Z</time></trkpt><trkpt lat="39.8471231574036" lon="9.50105548219918"><ele>536.25</ele><time>2026-04-28T12:36:07.914Z</time></trkpt><trkpt lat="39.84699888500587" lon="9.5011104867152"><ele>544.0</ele><time>2026-04-28T12:36:08.914Z</time></trkpt><trkpt lat="39.84687832407799" lon="9.50115228042546"><ele>546.75</ele><time>2026-04-28T12:36:09.913Z</time></trkpt><trkpt lat="39.84675094150093" lon="9.501167202502721"><ele>549.5</ele><time>2026-04-28T12:36:10.913Z</time></trkpt><trkpt lat="39.84661750965261" lon="9.501187596225014"><ele>552.25</ele><time>2026-04-28T12:36:11.913Z</time></trkpt><trkpt lat="39.84648650412157" lon="9.501218618660237"><ele>555.0</ele><time>2026-04-28T12:36:12.913Z</time></trkpt><trkpt lat="39.84636831101966" lon="9.5012583540547"><ele>555.0</ele><time>2026-04-28T12:36:13.913Z</time></trkpt><trkpt lat="39.846282437588016" lon="9.501353661328142"><ele>555.0</ele><time>2026-04-28T12:36:14.913Z</time></trkpt><trkpt lat="39.846275331975576" lon="9.501485951680579"><ele>555.0</ele><time>2026-04-28T12:36:15.913Z</time></trkpt><trkpt lat="39.846321560945384" lon="9.501600895928105"><ele>555.0</ele><time>2026-04-28T12:36:16.913Z</time></trkpt><trkpt lat="39.84642230870407" lon="9.501653435485757"><ele>555.0</ele><time>2026-04-28T12:36:17.913Z</time></trkpt><trkpt lat="39.84654983201825" lon="9.501633886931405"><ele>555.0</ele><time>2026-04-28T12:36:18.913Z</time></trkpt><trkpt lat="39.84667834953317" lon="9.501608785604395"><ele>555.0</ele><time>2026-04-28T12:36:19.913Z</time></trkpt><trkpt lat="39.846826308854766" lon="9.501569909112009"><ele>555.0</ele><time>2026-04-28T12:36:20.913Z</time></trkpt><trkpt lat="39.846976039160616" lon="9.501537892002075"><ele>555.0</ele><time>2026-04-28T12:36:21.913Z</time></trkpt><trkpt lat="39.84713221212285" lon="9.501492515805342"><ele>551.3333333333334</ele><time>2026-04-28T12:36:22.913Z</time></trkpt><trkpt lat="39.84728375811307" lon="9.501423328190377"><ele>547.6666666666667</ele><time>2026-04-28T12:36:23.913Z</time></trkpt><trkpt lat="39.847414497277036" lon="9.501294124636267"><ele>544.0</ele><time>2026-04-28T12:36:24.913Z</time></trkpt><trkpt lat="39.847517465319335" lon="9.501133582327222"><ele>544.0</ele><time>2026-04-28T12:36:25.913Z</time></trkpt><trkpt lat="39.847613520096814" lon="9.500993298368591"><ele>544.0</ele><time>2026-04-28T12:36:26.913Z</time></trkpt><trkpt lat="39.84771310213303" lon="9.50090335383601"><ele>544.0</ele><time>2026-04-28T12:36:27.913Z</time></trkpt><trkpt lat="39.84783747846588" lon="9.500918791747619"><ele>544.0</ele><time>2026-04-28T12:36:28.913Z</time></trkpt><trkpt lat="39.8479323826181" lon="9.501009628269514"><ele>547.5</ele><time>2026-04-28T12:36:29.913Z</time></trkpt><trkpt lat="39.847991415063305" lon="9.501153150687358"><ele>551.0</ele><time>2026-04-28T12:36:30.913Z</time></trkpt><trkpt lat="39.84806800976173" lon="9.501262864845815"><ele>554.5</ele><time>2026-04-28T12:36:31.913Z</time></trkpt><trkpt lat="39.84817005913473" lon="9.501292860459392"><ele>558.0</ele><time>2026-04-28T12:36:32.913Z</time></trkpt><trkpt lat="39.84826621107299" lon="9.501222497652986"><ele>558.0</ele><time>2026-04-28T12:36:33.913Z</time></trkpt><trkpt lat="39.848348198187715" lon="9.50106799345279"><ele>558.0</ele><time>2026-04-28T12:36:34.913Z</time></trkpt><trkpt lat="39.84846108704637" lon="9.50092509795761"><ele>558.0</ele><time>2026-04-28T12:36:35.913Z</time></trkpt><trkpt lat="39.84861057582431" lon="9.500822755036943"><ele>565.3333333333334</ele><time>2026-04-28T12:36:36.913Z</time></trkpt><trkpt lat="39.84876904947085" lon="9.500707756715858"><ele>572.6666666666667</ele><time>2026-04-28T12:36:37.913Z</time></trkpt><trkpt lat="39.8489378844879" lon="9.500624374800793"><ele>580.0</ele><time>2026-04-28T12:36:38.913Z</time></trkpt><trkpt lat="39.84910170103781" lon="9.500529671866293"><ele>580.0</ele><time>2026-04-28T12:36:39.913Z</time></trkpt><trkpt lat="39.84926697316676" lon="9.50042544296153"><ele>580.0</ele><time>2026-04-28T12:36:40.913Z</time></trkpt><trkpt lat="39.84941625180145" lon="9.500293178701444"><ele>580.0</ele><time>2026-04-28T12:36:41.913Z</time></trkpt><trkpt lat="39.849555633899705" lon="9.500125257273705"><ele>580.6666666666667</ele><time>2026-04-28T12:36:42.913Z</time></trkpt><trkpt lat="39.84970159280978" lon="9.499962548894308"><ele>581.3333333333334</ele><time>2026-04-28T12:36:43.913Z</time></trkpt><trkpt lat="39.849876758782884" lon="9.49984775976912"><ele>582.0</ele><time>2026-04-28T12:36:44.913Z</time></trkpt><trkpt lat="39.8500629525075" lon="9.499749497198886"><ele>586.0</ele><time>2026-04-28T12:36:45.913Z</time></trkpt><trkpt lat="39.850255642137576" lon="9.499662940306598"><ele>590.0</ele><time>2026-04-28T12:36:46.913Z</time></trkpt><trkpt lat="39.85044304306624" lon="9.499593698115174"><ele>594.0</ele><time>2026-04-28T12:36:47.913Z</time></trkpt><trkpt lat="39.850625025902026" lon="9.499559241065024"><ele>594.6666666666666</ele><time>2026-04-28T12:36:48.913Z</time></trkpt><trkpt lat="39.85081536943199" lon="9.499564136057229"><ele>595.3333333333333</ele><time>2026-04-28T12:36:49.913Z</time></trkpt><trkpt lat="39.85100750396723" lon="9.499603680541"><ele>596.0</ele><time>2026-04-28T12:36:50.913Z</time></trkpt><trkpt lat="39.85121080158174" lon="9.499655749720048"><ele>596.0</ele><time>2026-04-28T12:36:51.913Z</time></trkpt><trkpt lat="39.8513835280888" lon="9.499698684408932"><ele>596.0</ele><time>2026-04-28T12:36:52.913Z</time></trkpt><trkpt lat="39.851541333809266" lon="9.499729665776268"><ele>596.0</ele><time>2026-04-28T12:36:53.913Z</time></trkpt><trkpt lat="39.851679472115265" lon="9.499761413021318"><ele>598.75</ele><time>2026-04-28T12:36:54.913Z</time></trkpt><trkpt lat="39.8518026629824" lon="9.499784344622475"><ele>601.5</ele><time>2026-04-28T12:36:55.913Z</time></trkpt><trkpt lat="39.85192812707968" lon="9.499816471326243"><ele>604.25</ele><time>2026-04-28T12:36:56.913Z</time></trkpt><trkpt lat="39.85205406952539" lon="9.499843831414879"><ele>607.0</ele><time>2026-04-28T12:36:57.913Z</time></trkpt><trkpt lat="39.85217866568755" lon="9.499858686810654"><ele>607.0</ele><time>2026-04-28T12:36:58.913Z</time></trkpt><trkpt lat="39.852291976262634" lon="9.499855265003601"><ele>607.0</ele><time>2026-04-28T12:36:59.913Z</time></trkpt><trkpt lat="39.85238325011014" lon="9.499819760212908"><ele>607.0</ele><time>2026-04-28T12:37:00.913Z</time></trkpt><trkpt lat="39.85245036864737" lon="9.499751858814008"><ele>607.0</ele><time>2026-04-28T12:37:01.913Z</time></trkpt><trkpt lat="39.852506465097036" lon="9.499664151785591"><ele>607.0</ele><time>2026-04-28T12:37:02.913Z</time></trkpt><trkpt lat="39.852554671962984" lon="9.499572978196657"><ele>607.6666666666667</ele><time>2026-04-28T12:37:03.913Z</time></trkpt><trkpt lat="39.85260107260263" lon="9.49948037409361"><ele>608.3333333333334</ele><time>2026-04-28T12:37:04.913Z</time></trkpt><trkpt lat="39.85265833375172" lon="9.499419707445607"><ele>609.0</ele><time>2026-04-28T12:37:05.913Z</time></trkpt><trkpt lat="39.852722940331105" lon="9.499387094070064"><ele>609.6666666666666</ele><time>2026-04-28T12:37:06.913Z</time></trkpt><trkpt lat="39.85281409375313" lon="9.499445441418462"><ele>610.3333333333333</ele><time>2026-04-28T12:37:08.913Z</time></trkpt><trkpt lat="39.85283337504191" lon="9.499582438342102"><ele>611.0</ele><time>2026-04-28T12:37:10.913Z</time></trkpt><trkpt lat="39.85281839451425" lon="9.499667954254024"><ele>610.0</ele><time>2026-04-28T12:37:11.913Z</time></trkpt><trkpt lat="39.85274915801679" lon="9.499774756715164"><ele>609.0</ele><time>2026-04-28T12:37:12.913Z</time></trkpt><trkpt lat="39.852644142980076" lon="9.499905488012283"><ele>608.0</ele><time>2026-04-28T12:37:13.913Z</time></trkpt><trkpt lat="39.85252458916535" lon="9.500049377833323"><ele>607.0</ele><time>2026-04-28T12:37:14.913Z</time></trkpt><trkpt lat="39.852382995068226" lon="9.500180802607193"><ele>607.0</ele><time>2026-04-28T12:37:15.912Z</time></trkpt><trkpt lat="39.85221676954017" lon="9.500267095673971"><ele>607.0</ele><time>2026-04-28T12:37:16.912Z</time></trkpt><trkpt lat="39.852039914675586" lon="9.500310976514633"><ele>607.0</ele><time>2026-04-28T12:37:17.912Z</time></trkpt><trkpt lat="39.85186519829131" lon="9.500363598380922"><ele>611.3333333333334</ele><time>2026-04-28T12:37:18.912Z</time></trkpt><trkpt lat="39.85170946644139" lon="9.500449280575976"><ele>615.6666666666666</ele><time>2026-04-28T12:37:19.912Z</time></trkpt><trkpt lat="39.85155848530702" lon="9.500519475563953"><ele>620.0</ele><time>2026-04-28T12:37:20.912Z</time></trkpt><trkpt lat="39.85141864044671" lon="9.500625287611186"><ele>620.0</ele><time>2026-04-28T12:37:21.912Z</time></trkpt><trkpt lat="39.8512852515938" lon="9.500732087090343"><ele>620.0</ele><time>2026-04-28T12:37:22.912Z</time></trkpt><trkpt lat="39.85114126792785" lon="9.500770192964888"><ele>620.0</ele><time>2026-04-28T12:37:23.912Z</time></trkpt><trkpt lat="39.85099653221947" lon="9.500701233526037"><ele>619.3333333333333</ele><time>2026-04-28T12:37:24.912Z</time></trkpt><trkpt lat="39.85084972218129" lon="9.500632317303502"><ele>618.6666666666666</ele><time>2026-04-28T12:37:25.912Z</time></trkpt><trkpt lat="39.85069957269953" lon="9.500594250911686"><ele>618.0</ele><time>2026-04-28T12:37:26.912Z</time></trkpt><trkpt lat="39.85053995622177" lon="9.500621154577088"><ele>618.0</ele><time>2026-04-28T12:37:27.912Z</time></trkpt><trkpt lat="39.85039425237289" lon="9.500737001002335"><ele>618.0</ele><time>2026-04-28T12:37:28.912Z</time></trkpt><trkpt lat="39.8502665199446" lon="9.500894768784924"><ele>618.0</ele><time>2026-04-28T12:37:29.912Z</time></trkpt><trkpt lat="39.85015343885365" lon="9.501084739767109"><ele>623.0</ele><time>2026-04-28T12:37:30.912Z</time></trkpt><trkpt lat="39.8500476455936" lon="9.501295515143456"><ele>628.0</ele><time>2026-04-28T12:37:31.912Z</time></trkpt><trkpt lat="39.84991346498776" lon="9.501472081681156"><ele>633.0</ele><time>2026-04-28T12:37:32.912Z</time></trkpt><trkpt lat="39.84975777130389" lon="9.501596616112373"><ele>633.0</ele><time>2026-04-28T12:37:33.912Z</time></trkpt><trkpt lat="39.849607303824094" lon="9.501715015749644"><ele>633.0</ele><time>2026-04-28T12:37:34.912Z</time></trkpt><trkpt lat="39.84949951299656" lon="9.501852756381115"><ele>633.0</ele><time>2026-04-28T12:37:35.912Z</time></trkpt><trkpt lat="39.849468144082486" lon="9.502058129761902"><ele>637.3333333333334</ele><time>2026-04-28T12:37:36.912Z</time></trkpt><trkpt lat="39.849477154258054" lon="9.50228760342293"><ele>641.6666666666667</ele><time>2026-04-28T12:37:37.912Z</time></trkpt><trkpt lat="39.849467694151365" lon="9.502503138793937"><ele>646.0</ele><time>2026-04-28T12:37:38.912Z</time></trkpt><trkpt lat="39.84939717421144" lon="9.502669094160504"><ele>646.0</ele><time>2026-04-28T12:37:39.912Z</time></trkpt><trkpt lat="39.84931118205033" lon="9.502839143952707"><ele>646.0</ele><time>2026-04-28T12:37:40.912Z</time></trkpt><trkpt lat="39.84919056527391" lon="9.502974927108179"><ele>646.0</ele><time>2026-04-28T12:37:41.912Z</time></trkpt><trkpt lat="39.8490632805388" lon="9.503094399264395"><ele>648.0</ele><time>2026-04-28T12:37:42.912Z</time></trkpt><trkpt lat="39.84893677322551" lon="9.503208005835013"><ele>650.0</ele><time>2026-04-28T12:37:43.912Z</time></trkpt><trkpt lat="39.848817382811966" lon="9.503330855459224"><ele>652.0</ele><time>2026-04-28T12:37:44.912Z</time></trkpt><trkpt lat="39.84869910230667" lon="9.503459083138033"><ele>652.0</ele><time>2026-04-28T12:37:45.912Z</time></trkpt><trkpt lat="39.84857454342549" lon="9.503583727415073"><ele>652.0</ele><time>2026-04-28T12:37:46.912Z</time></trkpt><trkpt lat="39.84844606176772" lon="9.503706461588465"><ele>652.0</ele><time>2026-04-28T12:37:47.912Z</time></trkpt><trkpt lat="39.84832585412552" lon="9.503819944154221"><ele>654.0</ele><time>2026-04-28T12:37:48.913Z</time></trkpt><trkpt lat="39.84820051970905" lon="9.503933699701067"><ele>656.0</ele><time>2026-04-28T12:37:49.913Z</time></trkpt><trkpt lat="39.84807659993631" lon="9.50401902485253"><ele>658.0</ele><time>2026-04-28T12:37:50.913Z</time></trkpt><trkpt lat="39.84795047777936" lon="9.504071630150072"><ele>660.0</ele><time>2026-04-28T12:37:51.913Z</time></trkpt><trkpt lat="39.847824787244285" lon="9.504112214602157"><ele>660.0</ele><time>2026-04-28T12:37:52.913Z</time></trkpt><trkpt lat="39.84771551612605" lon="9.504154611844179"><ele>660.0</ele><time>2026-04-28T12:37:53.913Z</time></trkpt><trkpt lat="39.84763345686523" lon="9.504233625605782"><ele>660.0</ele><time>2026-04-28T12:37:54.914Z</time></trkpt><trkpt lat="39.84758520954163" lon="9.504352443899815"><ele>660.0</ele><time>2026-04-28T12:37:55.913Z</time></trkpt><trkpt lat="39.8475898362628" lon="9.504488019376502"><ele>660.0</ele><time>2026-04-28T12:37:56.913Z</time></trkpt><trkpt lat="39.84763742857381" lon="9.504624214638651"><ele>662.5</ele><time>2026-04-28T12:37:57.913Z</time></trkpt><trkpt lat="39.84771878826856" lon="9.504753437860114"><ele>665.0</ele><time>2026-04-28T12:37:58.914Z</time></trkpt><trkpt lat="39.84780228065665" lon="9.504868835925596"><ele>667.5</ele><time>2026-04-28T12:37:59.914Z</time></trkpt><trkpt lat="39.84788041963602" lon="9.504979255659755"><ele>670.0</ele><time>2026-04-28T12:38:00.913Z</time></trkpt><trkpt lat="39.84793780093494" lon="9.505098598444816"><ele>670.0</ele><time>2026-04-28T12:38:01.914Z</time></trkpt><trkpt lat="39.84795329898973" lon="9.505217397234944"><ele>670.0</ele><time>2026-04-28T12:38:02.914Z</time></trkpt><trkpt lat="39.84790177134882" lon="9.505288064610715"><ele>670.0</ele><time>2026-04-28T12:38:03.914Z</time></trkpt><trkpt lat="39.84783263000308" lon="9.505294490783557"><ele>670.0</ele><time>2026-04-28T12:38:04.914Z</time></trkpt><trkpt lat="39.84775704426418" lon="9.505240850885546"><ele>670.0</ele><time>2026-04-28T12:38:05.914Z</time></trkpt><trkpt lat="39.84767642983414" lon="9.505200988131817"><ele>670.0</ele><time>2026-04-28T12:38:06.913Z</time></trkpt><trkpt lat="39.847594912698455" lon="9.505219630154327"><ele>669.8</ele><time>2026-04-28T12:38:07.913Z</time></trkpt><trkpt lat="39.847527150133274" lon="9.505312103356971"><ele>669.6</ele><time>2026-04-28T12:38:08.913Z</time></trkpt><trkpt lat="39.84749907484473" lon="9.505427793639475"><ele>669.4000000000001</ele><time>2026-04-28T12:38:09.913Z</time></trkpt><trkpt lat="39.84751042053344" lon="9.505551228010185"><ele>669.2</ele><time>2026-04-28T12:38:10.913Z</time></trkpt><trkpt lat="39.847566102770564" lon="9.505657953262503"><ele>669.0</ele><time>2026-04-28T12:38:11.913Z</time></trkpt><trkpt lat="39.84764544968395" lon="9.505720308404047"><ele>670.0</ele><time>2026-04-28T12:38:12.913Z</time></trkpt><trkpt lat="39.84774648022926" lon="9.505741214444106"><ele>671.0</ele><time>2026-04-28T12:38:13.913Z</time></trkpt><trkpt lat="39.84784485069139" lon="9.505749482598416"><ele>672.0</ele><time>2026-04-28T12:38:14.913Z</time></trkpt><trkpt lat="39.84793985422163" lon="9.505738401674774"><ele>673.0</ele><time>2026-04-28T12:38:15.913Z</time></trkpt><trkpt lat="39.848036332968555" lon="9.505691601126818"><ele>674.0</ele><time>2026-04-28T12:38:16.913Z</time></trkpt><trkpt lat="39.848124814069884" lon="9.50561233562252"><ele>674.0</ele><time>2026-04-28T12:38:17.913Z</time></trkpt><trkpt lat="39.84821616697135" lon="9.50553895467986"><ele>674.0</ele><time>2026-04-28T12:38:18.913Z</time></trkpt><trkpt lat="39.84830725683834" lon="9.505463038162658"><ele>674.0</ele><time>2026-04-28T12:38:19.913Z</time></trkpt><trkpt lat="39.84839294420838" lon="9.505364358088444"><ele>674.0</ele><time>2026-04-28T12:38:20.913Z</time></trkpt><trkpt lat="39.84845871344671" lon="9.505244837047728"><ele>674.0</ele><time>2026-04-28T12:38:21.913Z</time></trkpt><trkpt lat="39.848504375721106" lon="9.505107542107044"><ele>674.25</ele><time>2026-04-28T12:38:22.913Z</time></trkpt><trkpt lat="39.84853995689075" lon="9.504966232197791"><ele>674.5</ele><time>2026-04-28T12:38:23.913Z</time></trkpt><trkpt lat="39.84857779683981" lon="9.504825350438049"><ele>674.75</ele><time>2026-04-28T12:38:24.913Z</time></trkpt><trkpt lat="39.84863153866356" lon="9.504689099379107"><ele>675.0</ele><time>2026-04-28T12:38:25.913Z</time></trkpt><trkpt lat="39.84869742914679" lon="9.504564805165534"><ele>675.0</ele><time>2026-04-28T12:38:26.913Z</time></trkpt><trkpt lat="39.8487715848758" lon="9.504451479566919"><ele>675.0</ele><time>2026-04-28T12:38:27.913Z</time></trkpt><trkpt lat="39.84885550344013" lon="9.504340637053827"><ele>675.0</ele><time>2026-04-28T12:38:28.913Z</time></trkpt><trkpt lat="39.848950693251524" lon="9.50423876251909"><ele>675.0</ele><time>2026-04-28T12:38:29.913Z</time></trkpt><trkpt lat="39.849049088019086" lon="9.504144057845206"><ele>675.0</ele><time>2026-04-28T12:38:30.913Z</time></trkpt><trkpt lat="39.84915281125815" lon="9.504065918987058"><ele>675.0</ele><time>2026-04-28T12:38:31.913Z</time></trkpt><trkpt lat="39.84925599648617" lon="9.503983811225254"><ele>675.0</ele><time>2026-04-28T12:38:32.913Z</time></trkpt><trkpt lat="39.84936410287208" lon="9.50389581568801"><ele>675.0</ele><time>2026-04-28T12:38:33.913Z</time></trkpt><trkpt lat="39.849482065596796" lon="9.50381218615892"><ele>674.0</ele><time>2026-04-28T12:38:34.913Z</time></trkpt><trkpt lat="39.849600950778324" lon="9.503723156685874"><ele>673.0</ele><time>2026-04-28T12:38:35.913Z</time></trkpt><trkpt lat="39.849715722366106" lon="9.503625269356665"><ele>672.0</ele><time>2026-04-28T12:38:36.913Z</time></trkpt><trkpt lat="39.849837015265535" lon="9.5035555584842"><ele>671.0</ele><time>2026-04-28T12:38:37.913Z</time></trkpt><trkpt lat="39.849965883058246" lon="9.503530165498287"><ele>671.0</ele><time>2026-04-28T12:38:38.913Z</time></trkpt><trkpt lat="39.850100797472265" lon="9.503515662763188"><ele>671.0</ele><time>2026-04-28T12:38:39.913Z</time></trkpt><trkpt lat="39.85024266431486" lon="9.50353321549818"><ele>671.0</ele><time>2026-04-28T12:38:40.913Z</time></trkpt><trkpt lat="39.85038599232771" lon="9.503572965353092"><ele>671.0</ele><time>2026-04-28T12:38:41.913Z</time></trkpt><trkpt lat="39.85053239520931" lon="9.503600142275415"><ele>673.25</ele><time>2026-04-28T12:38:42.913Z</time></trkpt><trkpt lat="39.85068093424748" lon="9.503608207912137"><ele>675.5</ele><time>2026-04-28T12:38:43.913Z</time></trkpt><trkpt lat="39.85082180710046" lon="9.503571833302098"><ele>677.75</ele><time>2026-04-28T12:38:44.913Z</time></trkpt><trkpt lat="39.85095452131811" lon="9.5035356282079"><ele>680.0</ele><time>2026-04-28T12:38:45.913Z</time></trkpt><trkpt lat="39.851089693333584" lon="9.503499103244751"><ele>688.0</ele><time>2026-04-28T12:38:46.913Z</time></trkpt><trkpt lat="39.851217687152975" lon="9.503425146070931"><ele>696.0</ele><time>2026-04-28T12:38:47.913Z</time></trkpt><trkpt lat="39.85131021966865" lon="9.503295493585359"><ele>704.0</ele><time>2026-04-28T12:38:48.913Z</time></trkpt><trkpt lat="39.85138073959244" lon="9.503139299267158"><ele>712.0</ele><time>2026-04-28T12:38:49.913Z</time></trkpt><trkpt lat="39.85144618401968" lon="9.502976116429693"><ele>710.5</ele><time>2026-04-28T12:38:50.913Z</time></trkpt><trkpt lat="39.851522673108235" lon="9.50281705820202"><ele>709.0</ele><time>2026-04-28T12:38:51.913Z</time></trkpt><trkpt lat="39.85161948077868" lon="9.502674387083792"><ele>707.5</ele><time>2026-04-28T12:38:52.913Z</time></trkpt><trkpt lat="39.85171994877786" lon="9.50255230287214"><ele>706.0</ele><time>2026-04-28T12:38:53.913Z</time></trkpt><trkpt lat="39.8518283859091" lon="9.502463870524473"><ele>706.0</ele><time>2026-04-28T12:38:54.913Z</time></trkpt><trkpt lat="39.85194308576191" lon="9.50242683815752"><ele>706.0</ele><time>2026-04-28T12:38:55.913Z</time></trkpt><trkpt lat="39.85206047529689" lon="9.502415921072506"><ele>706.0</ele><time>2026-04-28T12:38:56.913Z</time></trkpt><trkpt lat="39.852177188197025" lon="9.502425874336078"><ele>706.0</ele><time>2026-04-28T12:38:57.913Z</time></trkpt><trkpt lat="39.85229478056875" lon="9.502437541564062"><ele>706.0</ele><time>2026-04-28T12:38:58.913Z</time></trkpt><trkpt lat="39.852418984964544" lon="9.502403065971942"><ele>706.0</ele><time>2026-04-28T12:38:59.913Z</time></trkpt><trkpt lat="39.852557505858634" lon="9.502317026171282"><ele>706.0</ele><time>2026-04-28T12:39:00.913Z</time></trkpt><trkpt lat="39.85269340925397" lon="9.502204423650392"><ele>706.0</ele><time>2026-04-28T12:39:01.913Z</time></trkpt><trkpt lat="39.85282294809527" lon="9.502050186868038"><ele>708.3333333333334</ele><time>2026-04-28T12:39:02.913Z</time></trkpt><trkpt lat="39.85294592678829" lon="9.50187543982719"><ele>710.6666666666666</ele><time>2026-04-28T12:39:03.913Z</time></trkpt><trkpt lat="39.85306409808884" lon="9.50168938232377"><ele>713.0</ele><time>2026-04-28T12:39:04.913Z</time></trkpt><trkpt lat="39.853175481701605" lon="9.501499914387795"><ele>713.0</ele><time>2026-04-28T12:39:05.913Z</time></trkpt><trkpt lat="39.85328486951018" lon="9.501305189561075"><ele>713.0</ele><time>2026-04-28T12:39:06.913Z</time></trkpt><trkpt lat="39.85340692773192" lon="9.50112004489884"><ele>713.0</ele><time>2026-04-28T12:39:07.913Z</time></trkpt><trkpt lat="39.85355044798967" lon="9.500966738524491"><ele>711.3333333333333</ele><time>2026-04-28T12:39:08.913Z</time></trkpt><trkpt lat="39.853709647796535" lon="9.500873962971552"><ele>709.6666666666666</ele><time>2026-04-28T12:39:09.913Z</time></trkpt><trkpt lat="39.85388028318412" lon="9.500842061191456"><ele>708.0</ele><time>2026-04-28T12:39:10.913Z</time></trkpt><trkpt lat="39.854056547125595" lon="9.500860922857498"><ele>708.0</ele><time>2026-04-28T12:39:11.913Z</time></trkpt><trkpt lat="39.85422427540962" lon="9.500906985343885"><ele>708.0</ele><time>2026-04-28T12:39:12.913Z</time></trkpt><trkpt lat="39.85437494951969" lon="9.50095674374759"><ele>708.0</ele><time>2026-04-28T12:39:13.912Z</time></trkpt><trkpt lat="39.85451600019708" lon="9.500965986780761"><ele>719.0</ele><time>2026-04-28T12:39:14.912Z</time></trkpt><trkpt lat="39.854637311882534" lon="9.500879814255631"><ele>730.0</ele><time>2026-04-28T12:39:15.912Z</time></trkpt><trkpt lat="39.85473108212393" lon="9.500723622671392"><ele>741.0</ele><time>2026-04-28T12:39:16.912Z</time></trkpt><trkpt lat="39.85479744064303" lon="9.50051855799226"><ele>733.6666666666666</ele><time>2026-04-28T12:39:17.912Z</time></trkpt><trkpt lat="39.85487654336495" lon="9.50031140179581"><ele>726.3333333333333</ele><time>2026-04-28T12:39:18.912Z</time></trkpt><trkpt lat="39.85494335641341" lon="9.500111273817144"><ele>719.0</ele><time>2026-04-28T12:39:19.912Z</time></trkpt><trkpt lat="39.85497947042944" lon="9.49989722187214"><ele>719.0</ele><time>2026-04-28T12:39:20.912Z</time></trkpt><trkpt lat="39.85499701092556" lon="9.49967389516321"><ele>719.0</ele><time>2026-04-28T12:39:21.912Z</time></trkpt><trkpt lat="39.855042037206694" lon="9.499485950885811"><ele>719.0</ele><time>2026-04-28T12:39:22.912Z</time></trkpt><trkpt lat="39.855164755157055" lon="9.499360286794264"><ele>728.0</ele><time>2026-04-28T12:39:23.912Z</time></trkpt><trkpt lat="39.85532574046145" lon="9.49924138786432"><ele>737.0</ele><time>2026-04-28T12:39:24.912Z</time></trkpt><trkpt lat="39.85545267143875" lon="9.499091067669388"><ele>746.0</ele><time>2026-04-28T12:39:25.912Z</time></trkpt><trkpt lat="39.85556823036145" lon="9.498929160860994"><ele>746.0</ele><time>2026-04-28T12:39:26.912Z</time></trkpt><trkpt lat="39.85568612359065" lon="9.498762431393546"><ele>746.0</ele><time>2026-04-28T12:39:27.912Z</time></trkpt><trkpt lat="39.855803362069196" lon="9.49857792750297"><ele>746.0</ele><time>2026-04-28T12:39:28.912Z</time></trkpt><trkpt lat="39.855892503192926" lon="9.49840861268918"><ele>742.6666666666666</ele><time>2026-04-28T12:39:29.912Z</time></trkpt><trkpt lat="39.85601005266428" lon="9.498220229371347"><ele>739.3333333333334</ele><time>2026-04-28T12:39:30.912Z</time></trkpt><trkpt lat="39.856130180521774" lon="9.498022085209225"><ele>736.0</ele><time>2026-04-28T12:39:31.912Z</time></trkpt><trkpt lat="39.85624873127032" lon="9.497826318130404"><ele>736.0</ele><time>2026-04-28T12:39:32.912Z</time></trkpt><trkpt lat="39.85633326178792" lon="9.497602863684087"><ele>736.0</ele><time>2026-04-28T12:39:33.912Z</time></trkpt><trkpt lat="39.85637742971712" lon="9.497372530728553"><ele>736.0</ele><time>2026-04-28T12:39:34.912Z</time></trkpt><trkpt lat="39.85641390816504" lon="9.497171615955553"><ele>736.75</ele><time>2026-04-28T12:39:35.912Z</time></trkpt><trkpt lat="39.85646749510537" lon="9.497012071260654"><ele>737.5</ele><time>2026-04-28T12:39:36.912Z</time></trkpt><trkpt lat="39.856569024462026" lon="9.496927183659027"><ele>738.25</ele><time>2026-04-28T12:39:37.912Z</time></trkpt><trkpt lat="39.85671495703084" lon="9.49690290795584"><ele>739.0</ele><time>2026-04-28T12:39:38.912Z</time></trkpt><trkpt lat="39.85688216951263" lon="9.496911284852452"><ele>739.0</ele><time>2026-04-28T12:39:39.912Z</time></trkpt><trkpt lat="39.8570585707868" lon="9.496973738554873"><ele>739.0</ele><time>2026-04-28T12:39:40.912Z</time></trkpt><trkpt lat="39.857228920041656" lon="9.497055367272122"><ele>739.0</ele><time>2026-04-28T12:39:41.912Z</time></trkpt><trkpt lat="39.857399691197145" lon="9.497136951122163"><ele>745.6666666666667</ele><time>2026-04-28T12:39:42.912Z</time></trkpt><trkpt lat="39.85755699360562" lon="9.497184032198268"><ele>752.3333333333334</ele><time>2026-04-28T12:39:43.912Z</time></trkpt><trkpt lat="39.85767883903555" lon="9.497145972227298"><ele>759.0</ele><time>2026-04-28T12:39:44.912Z</time></trkpt><trkpt lat="39.85779063008277" lon="9.496990188964462"><ele>761.3333333333334</ele><time>2026-04-28T12:39:45.912Z</time></trkpt><trkpt lat="39.857850304655074" lon="9.496769641807736"><ele>763.6666666666667</ele><time>2026-04-28T12:39:46.912Z</time></trkpt><trkpt lat="39.85785874831805" lon="9.496506700290022"><ele>766.0</ele><time>2026-04-28T12:39:47.912Z</time></trkpt><trkpt lat="39.85786085969859" lon="9.496250805766092"><ele>766.0</ele><time>2026-04-28T12:39:48.912Z</time></trkpt><trkpt lat="39.857893416325176" lon="9.496033606686481"><ele>766.0</ele><time>2026-04-28T12:39:49.912Z</time></trkpt><trkpt lat="39.85792189128222" lon="9.495829352406693"><ele>766.0</ele><time>2026-04-28T12:39:50.912Z</time></trkpt><trkpt lat="39.857987661743316" lon="9.495658472154457"><ele>766.0</ele><time>2026-04-28T12:39:51.912Z</time></trkpt><trkpt lat="39.858110288545255" lon="9.495518728894842"><ele>766.0</ele><time>2026-04-28T12:39:52.912Z</time></trkpt><trkpt lat="39.85825935940053" lon="9.495390395886771"><ele>766.0</ele><time>2026-04-28T12:39:53.912Z</time></trkpt><trkpt lat="39.858404025815716" lon="9.495257479848283"><ele>769.5</ele><time>2026-04-28T12:39:54.912Z</time></trkpt><trkpt lat="39.85851143728349" lon="9.495111088301648"><ele>773.0</ele><time>2026-04-28T12:39:55.912Z</time></trkpt><trkpt lat="39.85858865308036" lon="9.494971197697309"><ele>776.5</ele><time>2026-04-28T12:39:56.912Z</time></trkpt><trkpt lat="39.85865996319399" lon="9.494853577896695"><ele>780.0</ele><time>2026-04-28T12:39:57.912Z</time></trkpt><trkpt lat="39.858740717744006" lon="9.494768055227068"><ele>780.0</ele><time>2026-04-28T12:39:58.911Z</time></trkpt><trkpt lat="39.85883661879363" lon="9.494728713457713"><ele>780.0</ele><time>2026-04-28T12:39:59.911Z</time></trkpt><trkpt lat="39.858926376887915" lon="9.49470474441256"><ele>780.0</ele><time>2026-04-28T12:40:00.912Z</time></trkpt><trkpt lat="39.85901123236029" lon="9.494679627401139"><ele>780.0</ele><time>2026-04-28T12:40:01.911Z</time></trkpt><trkpt lat="39.85908067176784" lon="9.494632285677033"><ele>780.0</ele><time>2026-04-28T12:40:02.911Z</time></trkpt><trkpt lat="39.859141173491814" lon="9.494566043148765"><ele>780.0</ele><time>2026-04-28T12:40:03.912Z</time></trkpt><trkpt lat="39.859186838756955" lon="9.49443259441648"><ele>781.75</ele><time>2026-04-28T12:40:04.912Z</time></trkpt><trkpt lat="39.85922403521174" lon="9.494269834860914"><ele>783.5</ele><time>2026-04-28T12:40:05.912Z</time></trkpt><trkpt lat="39.85925162137216" lon="9.494080280749674"><ele>785.25</ele><time>2026-04-28T12:40:06.912Z</time></trkpt><trkpt lat="39.85931586094984" lon="9.493896598378054"><ele>787.0</ele><time>2026-04-28T12:40:07.912Z</time></trkpt><trkpt lat="39.85942613455551" lon="9.493747578773622"><ele>787.0</ele><time>2026-04-28T12:40:08.912Z</time></trkpt><trkpt lat="39.85953183281667" lon="9.493592405769602"><ele>787.0</ele><time>2026-04-28T12:40:09.912Z</time></trkpt><trkpt lat="39.8595993890205" lon="9.4934121197077"><ele>787.0</ele><time>2026-04-28T12:40:10.912Z</time></trkpt><trkpt lat="39.85966677203979" lon="9.4932196032019"><ele>787.0</ele><time>2026-04-28T12:40:11.912Z</time></trkpt><trkpt lat="39.8597802023887" lon="9.493046937853645"><ele>787.0</ele><time>2026-04-28T12:40:12.911Z</time></trkpt><trkpt lat="39.859902932397816" lon="9.492876211565767"><ele>787.0</ele><time>2026-04-28T12:40:13.911Z</time></trkpt><trkpt lat="39.86000538107706" lon="9.492683994823523"><ele>781.0</ele><time>2026-04-28T12:40:14.911Z</time></trkpt><trkpt lat="39.86010597671173" lon="9.492500706511942"><ele>775.0</ele><time>2026-04-28T12:40:15.911Z</time></trkpt><trkpt lat="39.860237124053526" lon="9.492327721581404"><ele>769.0</ele><time>2026-04-28T12:40:16.911Z</time></trkpt><trkpt lat="39.86038327476456" lon="9.492161054145278"><ele>772.0</ele><time>2026-04-28T12:40:17.911Z</time></trkpt><trkpt lat="39.86053739697947" lon="9.491989460870904"><ele>775.0</ele><time>2026-04-28T12:40:18.911Z</time></trkpt><trkpt lat="39.86069569207973" lon="9.491809450190996"><ele>778.0</ele><time>2026-04-28T12:40:19.911Z</time></trkpt><trkpt lat="39.860855241763986" lon="9.491621223995582"><ele>784.6666666666666</ele><time>2026-04-28T12:40:20.911Z</time></trkpt><trkpt lat="39.86101284802807" lon="9.49142702197805"><ele>791.3333333333333</ele><time>2026-04-28T12:40:21.911Z</time></trkpt><trkpt lat="39.86116071980363" lon="9.491217746462592"><ele>798.0</ele><time>2026-04-28T12:40:22.911Z</time></trkpt><trkpt lat="39.861297573163384" lon="9.491009134328909"><ele>798.0</ele><time>2026-04-28T12:40:23.911Z</time></trkpt><trkpt lat="39.861429856477535" lon="9.490828741901169"><ele>798.0</ele><time>2026-04-28T12:40:24.911Z</time></trkpt><trkpt lat="39.86158105287182" lon="9.490708912254798"><ele>798.0</ele><time>2026-04-28T12:40:25.911Z</time></trkpt><trkpt lat="39.86175063833406" lon="9.490667443010869"><ele>805.0</ele><time>2026-04-28T12:40:26.911Z</time></trkpt><trkpt lat="39.861877360941094" lon="9.490574271620758"><ele>812.0</ele><time>2026-04-28T12:40:27.911Z</time></trkpt><trkpt lat="39.86196495056467" lon="9.49041183735955"><ele>819.0</ele><time>2026-04-28T12:40:28.911Z</time></trkpt><trkpt lat="39.862001435767304" lon="9.490195429657373"><ele>819.0</ele><time>2026-04-28T12:40:29.911Z</time></trkpt><trkpt lat="39.86204934367778" lon="9.48995111960536"><ele>819.0</ele><time>2026-04-28T12:40:30.911Z</time></trkpt><trkpt lat="39.86213272138168" lon="9.489705048023605"><ele>819.0</ele><time>2026-04-28T12:40:31.911Z</time></trkpt><trkpt lat="39.86222927054957" lon="9.489480151415568"><ele>811.6666666666667</ele><time>2026-04-28T12:40:32.911Z</time></trkpt><trkpt lat="39.86232923067471" lon="9.489304545139337"><ele>804.3333333333334</ele><time>2026-04-28T12:40:33.911Z</time></trkpt><trkpt lat="39.86245994764307" lon="9.48918972723857"><ele>797.0</ele><time>2026-04-28T12:40:34.911Z</time></trkpt><trkpt lat="39.86259398163038" lon="9.489082080084964"><ele>800.0</ele><time>2026-04-28T12:40:35.911Z</time></trkpt><trkpt lat="39.86267831982771" lon="9.488875891411478"><ele>803.0</ele><time>2026-04-28T12:40:36.911Z</time></trkpt><trkpt lat="39.86276676001019" lon="9.488665932724757"><ele>806.0</ele><time>2026-04-28T12:40:37.911Z</time></trkpt><trkpt lat="39.86290517524206" lon="9.48850205702696"><ele>806.0</ele><time>2026-04-28T12:40:38.911Z</time></trkpt><trkpt lat="39.86307441823839" lon="9.488375620789492"><ele>806.0</ele><time>2026-04-28T12:40:39.911Z</time></trkpt><trkpt lat="39.863268470811505" lon="9.488260969409861"><ele>806.0</ele><time>2026-04-28T12:40:40.911Z</time></trkpt><trkpt lat="39.86346420129955" lon="9.488132833777891"><ele>806.3333333333334</ele><time>2026-04-28T12:40:41.911Z</time></trkpt><trkpt lat="39.86364882911797" lon="9.487997129705366"><ele>806.6666666666667</ele><time>2026-04-28T12:40:42.911Z</time></trkpt><trkpt lat="39.86383098696377" lon="9.487857366475284"><ele>807.0</ele><time>2026-04-28T12:40:43.911Z</time></trkpt><trkpt lat="39.86401773412052" lon="9.487710639257857"><ele>807.0</ele><time>2026-04-28T12:40:44.911Z</time></trkpt><trkpt lat="39.86420632311129" lon="9.487563574817298"><ele>807.0</ele><time>2026-04-28T12:40:45.911Z</time></trkpt><trkpt lat="39.864373409281846" lon="9.487417233917032"><ele>807.0</ele><time>2026-04-28T12:40:46.911Z</time></trkpt><trkpt lat="39.864497765287354" lon="9.487251714345192"><ele>802.3333333333333</ele><time>2026-04-28T12:40:47.911Z</time></trkpt><trkpt lat="39.86458554488902" lon="9.487039731840415"><ele>797.6666666666666</ele><time>2026-04-28T12:40:48.911Z</time></trkpt><trkpt lat="39.864638488721006" lon="9.486826465364052"><ele>793.0</ele><time>2026-04-28T12:40:49.911Z</time></trkpt><trkpt lat="39.864700693033" lon="9.486659487728838"><ele>793.0</ele><time>2026-04-28T12:40:50.911Z</time></trkpt><trkpt lat="39.86478566544673" lon="9.486607411221621"><ele>793.0</ele><time>2026-04-28T12:40:51.911Z</time></trkpt><trkpt lat="39.86487500649031" lon="9.48666018669378"><ele>793.0</ele><time>2026-04-28T12:40:52.911Z</time></trkpt><trkpt lat="39.86495562907875" lon="9.486832660396393"><ele>793.0</ele><time>2026-04-28T12:40:53.911Z</time></trkpt><trkpt lat="39.865013110539664" lon="9.487020641815391"><ele>796.6666666666666</ele><time>2026-04-28T12:40:54.911Z</time></trkpt><trkpt lat="39.864974415752904" lon="9.487191195109363"><ele>800.3333333333333</ele><time>2026-04-28T12:40:55.911Z</time></trkpt><trkpt lat="39.86490964893035" lon="9.487399231996353"><ele>804.0</ele><time>2026-04-28T12:40:56.911Z</time></trkpt><trkpt lat="39.86490860826247" lon="9.487622725769215"><ele>804.0</ele><time>2026-04-28T12:40:57.911Z</time></trkpt><trkpt lat="39.86494989586047" lon="9.487857545333203"><ele>804.0</ele><time>2026-04-28T12:40:58.911Z</time></trkpt><trkpt lat="39.86502037463645" lon="9.488080609901232"><ele>804.0</ele><time>2026-04-28T12:40:59.911Z</time></trkpt><trkpt lat="39.86506392275388" lon="9.488327315122028"><ele>803.0</ele><time>2026-04-28T12:41:00.911Z</time></trkpt><trkpt lat="39.86511965721579" lon="9.488549638360373"><ele>802.0</ele><time>2026-04-28T12:41:01.911Z</time></trkpt><trkpt lat="39.86522753018312" lon="9.488706609092805"><ele>801.0</ele><time>2026-04-28T12:41:02.911Z</time></trkpt><trkpt lat="39.86538019730817" lon="9.488829444176055"><ele>808.6666666666667</ele><time>2026-04-28T12:41:03.911Z</time></trkpt><trkpt lat="39.865517110802664" lon="9.488963634511126"><ele>816.3333333333334</ele><time>2026-04-28T12:41:04.911Z</time></trkpt><trkpt lat="39.86563677655522" lon="9.48909848133794"><ele>824.0</ele><time>2026-04-28T12:41:05.911Z</time></trkpt><trkpt lat="39.86577451604776" lon="9.489163397369753"><ele>824.0</ele><time>2026-04-28T12:41:06.911Z</time></trkpt><trkpt lat="39.8659323468268" lon="9.48923605626115"><ele>824.0</ele><time>2026-04-28T12:41:07.911Z</time></trkpt><trkpt lat="39.866047665252744" lon="9.489402318225261"><ele>824.0</ele><time>2026-04-28T12:41:08.911Z</time></trkpt><trkpt lat="39.86615177620282" lon="9.489620902675377"><ele>826.3333333333334</ele><time>2026-04-28T12:41:09.911Z</time></trkpt><trkpt lat="39.866210506768354" lon="9.489893610505318"><ele>828.6666666666667</ele><time>2026-04-28T12:41:10.911Z</time></trkpt><trkpt lat="39.866238013991904" lon="9.490184523492932"><ele>831.0</ele><time>2026-04-28T12:41:11.911Z</time></trkpt><trkpt lat="39.8662909116356" lon="9.490453098884572"><ele>835.0</ele><time>2026-04-28T12:41:12.911Z</time></trkpt><trkpt lat="39.86642194665072" lon="9.490644867481093"><ele>839.0</ele><time>2026-04-28T12:41:13.911Z</time></trkpt><trkpt lat="39.866571168556455" lon="9.49079852093443"><ele>843.0</ele><time>2026-04-28T12:41:14.911Z</time></trkpt><trkpt lat="39.86669729483673" lon="9.490990698931911"><ele>843.0</ele><time>2026-04-28T12:41:15.911Z</time></trkpt><trkpt lat="39.866818599732426" lon="9.491199723492471"><ele>843.0</ele><time>2026-04-28T12:41:16.911Z</time></trkpt><trkpt lat="39.866931756906666" lon="9.491413532578203"><ele>843.0</ele><time>2026-04-28T12:41:17.911Z</time></trkpt><trkpt lat="39.86700708304494" lon="9.491652332462241"><ele>843.0</ele><time>2026-04-28T12:41:18.91Z</time></trkpt><trkpt lat="39.867055071691354" lon="9.491910508529259"><ele>843.0</ele><time>2026-04-28T12:41:19.91Z</time></trkpt><trkpt lat="39.86710296048375" lon="9.492166724274545"><ele>843.0</ele><time>2026-04-28T12:41:20.91Z</time></trkpt><trkpt lat="39.86714685772693" lon="9.49242384324055"><ele>845.0</ele><time>2026-04-28T12:41:21.91Z</time></trkpt><trkpt lat="39.867162692807895" lon="9.492693927720351"><ele>847.0</ele><time>2026-04-28T12:41:22.91Z</time></trkpt><trkpt lat="39.867146322633715" lon="9.492970983099331"><ele>849.0</ele><time>2026-04-28T12:41:23.91Z</time></trkpt><trkpt lat="39.867159828198446" lon="9.493249271217692"><ele>849.3333333333333</ele><time>2026-04-28T12:41:24.91Z</time></trkpt><trkpt lat="39.86719039610431" lon="9.49352581135874"><ele>849.6666666666666</ele><time>2026-04-28T12:41:25.91Z</time></trkpt><trkpt lat="39.8672213924892" lon="9.493770910971866"><ele>850.0</ele><time>2026-04-28T12:41:26.91Z</time></trkpt><trkpt lat="39.86731165036735" lon="9.493968592694133"><ele>854.3333333333333</ele><time>2026-04-28T12:41:27.91Z</time></trkpt><trkpt lat="39.86744657332417" lon="9.494120417595733"><ele>858.6666666666667</ele><time>2026-04-28T12:41:28.91Z</time></trkpt><trkpt lat="39.867613053778605" lon="9.49426000318471"><ele>863.0</ele><time>2026-04-28T12:41:29.91Z</time></trkpt><trkpt lat="39.86778591233554" lon="9.494428257004415"><ele>862.6666666666667</ele><time>2026-04-28T12:41:30.91Z</time></trkpt><trkpt lat="39.86795258743831" lon="9.494624441202415"><ele>862.3333333333333</ele><time>2026-04-28T12:41:31.91Z</time></trkpt><trkpt lat="39.8681046541143" lon="9.49480444265908"><ele>862.0</ele><time>2026-04-28T12:41:32.91Z</time></trkpt><trkpt lat="39.86824474750547" lon="9.494959598494791"><ele>862.0</ele><time>2026-04-28T12:41:33.91Z</time></trkpt><trkpt lat="39.8683372975402" lon="9.495104871406541"><ele>862.0</ele><time>2026-04-28T12:41:34.91Z</time></trkpt><trkpt lat="39.86835912765658" lon="9.495272728648088"><ele>862.0</ele><time>2026-04-28T12:41:35.91Z</time></trkpt><trkpt lat="39.86834484944205" lon="9.495467202812787"><ele>862.0</ele><time>2026-04-28T12:41:36.91Z</time></trkpt><trkpt lat="39.86843533205304" lon="9.495645690392966"><ele>868.6666666666666</ele><time>2026-04-28T12:41:37.91Z</time></trkpt><trkpt lat="39.868525384007576" lon="9.495817029821435"><ele>875.3333333333333</ele><time>2026-04-28T12:41:38.91Z</time></trkpt><trkpt lat="39.868544116388016" lon="9.496032856075935"><ele>882.0</ele><time>2026-04-28T12:41:39.91Z</time></trkpt><trkpt lat="39.868474735449844" lon="9.49626783046803"><ele>882.0</ele><time>2026-04-28T12:41:40.91Z</time></trkpt><trkpt lat="39.868381157040766" lon="9.496504553938534"><ele>882.0</ele><time>2026-04-28T12:41:41.91Z</time></trkpt><trkpt lat="39.8683037934636" lon="9.496732619877193"><ele>882.0</ele><time>2026-04-28T12:41:42.91Z</time></trkpt><trkpt lat="39.86826788804405" lon="9.496938356651258"><ele>883.0</ele><time>2026-04-28T12:41:43.91Z</time></trkpt><trkpt lat="39.868298766169474" lon="9.497155777366439"><ele>884.0</ele><time>2026-04-28T12:41:44.91Z</time></trkpt><trkpt lat="39.86836476400202" lon="9.497388924256132"><ele>885.0</ele><time>2026-04-28T12:41:45.91Z</time></trkpt><trkpt lat="39.86838972172523" lon="9.497639603583957"><ele>885.0</ele><time>2026-04-28T12:41:46.91Z</time></trkpt><trkpt lat="39.86836530362219" lon="9.497900437063809"><ele>885.0</ele><time>2026-04-28T12:41:47.91Z</time></trkpt><trkpt lat="39.868322771066225" lon="9.498152007014498"><ele>885.0</ele><time>2026-04-28T12:41:48.91Z</time></trkpt><trkpt lat="39.8682955027074" lon="9.498407797191957"><ele>885.6666666666667</ele><time>2026-04-28T12:41:49.91Z</time></trkpt><trkpt lat="39.8682181083408" lon="9.498647922814486"><ele>886.3333333333334</ele><time>2026-04-28T12:41:50.91Z</time></trkpt><trkpt lat="39.86812358856427" lon="9.49888009657247"><ele>887.0</ele><time>2026-04-28T12:41:51.91Z</time></trkpt><trkpt lat="39.868055809626526" lon="9.499127647390223"><ele>887.0</ele><time>2026-04-28T12:41:52.91Z</time></trkpt><trkpt lat="39.86802542869624" lon="9.499390830180893"><ele>887.0</ele><time>2026-04-28T12:41:53.91Z</time></trkpt><trkpt lat="39.86803145131916" lon="9.49965253372107"><ele>887.0</ele><time>2026-04-28T12:41:54.91Z</time></trkpt><trkpt lat="39.86802219221339" lon="9.499909259583742"><ele>888.6666666666667</ele><time>2026-04-28T12:41:55.91Z</time></trkpt><trkpt lat="39.86796487314136" lon="9.50015051427177"><ele>890.3333333333333</ele><time>2026-04-28T12:41:56.91Z</time></trkpt><trkpt lat="39.867899537922725" lon="9.500353835134066"><ele>892.0</ele><time>2026-04-28T12:41:57.91Z</time></trkpt><trkpt lat="39.86789042584856" lon="9.500535539872732"><ele>894.6666666666666</ele><time>2026-04-28T12:41:58.91Z</time></trkpt><trkpt lat="39.867959992471135" lon="9.500679114827177"><ele>897.3333333333333</ele><time>2026-04-28T12:41:59.91Z</time></trkpt><trkpt lat="39.8680943257123" lon="9.500761883433857"><ele>900.0</ele><time>2026-04-28T12:42:00.91Z</time></trkpt><trkpt lat="39.86825682136437" lon="9.500834531644731"><ele>900.0</ele><time>2026-04-28T12:42:01.911Z</time></trkpt><trkpt lat="39.86838442169716" lon="9.500989491096481"><ele>900.0</ele><time>2026-04-28T12:42:02.91Z</time></trkpt><trkpt lat="39.86846902190663" lon="9.501177989154991"><ele>900.0</ele><time>2026-04-28T12:42:03.91Z</time></trkpt><trkpt lat="39.868522330181584" lon="9.501389838884181"><ele>907.6666666666667</ele><time>2026-04-28T12:42:04.91Z</time></trkpt><trkpt lat="39.86854784897554" lon="9.501616963156227"><ele>915.3333333333334</ele><time>2026-04-28T12:42:05.91Z</time></trkpt><trkpt lat="39.86856836664633" lon="9.501880853017154"><ele>923.0</ele><time>2026-04-28T12:42:06.911Z</time></trkpt><trkpt lat="39.868589304570975" lon="9.502125869165749"><ele>923.3333333333334</ele><time>2026-04-28T12:42:07.91Z</time></trkpt><trkpt lat="39.86859639733408" lon="9.502376330828179"><ele>923.6666666666667</ele><time>2026-04-28T12:42:08.91Z</time></trkpt><trkpt lat="39.86853085416069" lon="9.502630667252566"><ele>924.0</ele><time>2026-04-28T12:42:09.91Z</time></trkpt><trkpt lat="39.86844989704583" lon="9.50287269512365"><ele>922.3333333333333</ele><time>2026-04-28T12:42:10.91Z</time></trkpt><trkpt lat="39.86837409240294" lon="9.503119410083036"><ele>920.6666666666666</ele><time>2026-04-28T12:42:11.91Z</time></trkpt><trkpt lat="39.86829958530861" lon="9.503357780870402"><ele>919.0</ele><time>2026-04-28T12:42:12.91Z</time></trkpt><trkpt lat="39.868248003945226" lon="9.50357189599432"><ele>920.0</ele><time>2026-04-28T12:42:13.911Z</time></trkpt><trkpt lat="39.86825161986407" lon="9.50377784356583"><ele>921.0</ele><time>2026-04-28T12:42:14.911Z</time></trkpt><trkpt lat="39.86833867506051" lon="9.503965808241325"><ele>922.0</ele><time>2026-04-28T12:42:15.911Z</time></trkpt><trkpt lat="39.868434407207374" lon="9.504149618774433"><ele>923.6666666666666</ele><time>2026-04-28T12:42:16.911Z</time></trkpt><trkpt lat="39.86850655739015" lon="9.504381303601704"><ele>925.3333333333333</ele><time>2026-04-28T12:42:17.911Z</time></trkpt><trkpt lat="39.86858181615283" lon="9.5045861451694"><ele>927.0</ele><time>2026-04-28T12:42:18.911Z</time></trkpt><trkpt lat="39.86870810627235" lon="9.504760579173585"><ele>927.0</ele><time>2026-04-28T12:42:19.91Z</time></trkpt><trkpt lat="39.86883618362926" lon="9.504951270286247"><ele>927.0</ele><time>2026-04-28T12:42:20.91Z</time></trkpt><trkpt lat="39.86896109793616" lon="9.50516034854579"><ele>927.0</ele><time>2026-04-28T12:42:21.91Z</time></trkpt><trkpt lat="39.86904700517761" lon="9.505402256450395"><ele>927.0</ele><time>2026-04-28T12:42:22.91Z</time></trkpt><trkpt lat="39.86909927300125" lon="9.505665204408942"><ele>927.0</ele><time>2026-04-28T12:42:23.91Z</time></trkpt><trkpt lat="39.86912613415971" lon="9.50594055153887"><ele>927.0</ele><time>2026-04-28T12:42:24.91Z</time></trkpt><trkpt lat="39.86914579531508" lon="9.506218057334134"><ele>927.6666666666667</ele><time>2026-04-28T12:42:25.91Z</time></trkpt><trkpt lat="39.8691696722616" lon="9.506479401956351"><ele>928.3333333333334</ele><time>2026-04-28T12:42:26.91Z</time></trkpt><trkpt lat="39.86918731900105" lon="9.506753345311866"><ele>929.0</ele><time>2026-04-28T12:42:27.91Z</time></trkpt><trkpt lat="39.869214810462175" lon="9.507021842357082"><ele>929.3333333333334</ele><time>2026-04-28T12:42:28.91Z</time></trkpt><trkpt lat="39.869215848566014" lon="9.507264737603535"><ele>929.6666666666667</ele><time>2026-04-28T12:42:29.91Z</time></trkpt><trkpt lat="39.86916768086709" lon="9.507476778679543"><ele>930.0</ele><time>2026-04-28T12:42:30.91Z</time></trkpt><trkpt lat="39.869075267039065" lon="9.50769727654924"><ele>930.0</ele><time>2026-04-28T12:42:31.91Z</time></trkpt><trkpt lat="39.86899139197892" lon="9.507890271696239"><ele>930.0</ele><time>2026-04-28T12:42:32.91Z</time></trkpt><trkpt lat="39.86896702883355" lon="9.508077730775828"><ele>930.0</ele><time>2026-04-28T12:42:33.91Z</time></trkpt><trkpt lat="39.86901382485832" lon="9.508271160334658"><ele>931.3333333333333</ele><time>2026-04-28T12:42:34.91Z</time></trkpt><trkpt lat="39.86912424140235" lon="9.508463905091643"><ele>932.6666666666666</ele><time>2026-04-28T12:42:35.91Z</time></trkpt><trkpt lat="39.869218042147445" lon="9.508689891408157"><ele>934.0</ele><time>2026-04-28T12:42:36.91Z</time></trkpt><trkpt lat="39.86932113274644" lon="9.508943176805044"><ele>936.0</ele><time>2026-04-28T12:42:37.91Z</time></trkpt><trkpt lat="39.86942634288781" lon="9.509202416829188"><ele>938.0</ele><time>2026-04-28T12:42:38.91Z</time></trkpt><trkpt lat="39.86952235018231" lon="9.509467127421912"><ele>939.6666666666667</ele><time>2026-04-28T12:42:39.91Z</time></trkpt><trkpt lat="39.86958771527532" lon="9.50972677922955"><ele>941.3333333333333</ele><time>2026-04-28T12:42:40.91Z</time></trkpt><trkpt lat="39.869605808652175" lon="9.509956710265937"><ele>943.0</ele><time>2026-04-28T12:42:41.91Z</time></trkpt><trkpt lat="39.869646657206" lon="9.51014032246881"><ele>943.0</ele><time>2026-04-28T12:42:42.91Z</time></trkpt><trkpt lat="39.86974720207996" lon="9.510258635166778"><ele>943.0</ele><time>2026-04-28T12:42:43.91Z</time></trkpt><trkpt lat="39.86988328187895" lon="9.510280716391154"><ele>943.0</ele><time>2026-04-28T12:42:44.91Z</time></trkpt><trkpt lat="39.87005208600536" lon="9.510285281300732"><ele>943.0</ele><time>2026-04-28T12:42:45.91Z</time></trkpt><trkpt lat="39.87024833854793" lon="9.510357123307383"><ele>945.6666666666666</ele><time>2026-04-28T12:42:46.91Z</time></trkpt><trkpt lat="39.87041096639187" lon="9.510490006262925"><ele>948.3333333333333</ele><time>2026-04-28T12:42:47.91Z</time></trkpt><trkpt lat="39.8705758286322" lon="9.510656436889917"><ele>951.0</ele><time>2026-04-28T12:42:48.91Z</time></trkpt><trkpt lat="39.87069915007687" lon="9.510833619078467"><ele>951.0</ele><time>2026-04-28T12:42:49.91Z</time></trkpt><trkpt lat="39.87082944795696" lon="9.511024320389629"><ele>951.0</ele><time>2026-04-28T12:42:50.91Z</time></trkpt><trkpt lat="39.87096329382118" lon="9.511214378295314"><ele>951.0</ele><time>2026-04-28T12:42:51.91Z</time></trkpt><trkpt lat="39.87109730584682" lon="9.511402226706881"><ele>952.3333333333333</ele><time>2026-04-28T12:42:52.91Z</time></trkpt><trkpt lat="39.8712223149899" lon="9.511605620225206"><ele>953.6666666666666</ele><time>2026-04-28T12:42:53.91Z</time></trkpt><trkpt lat="39.87132611775343" lon="9.511822687180226"><ele>955.0</ele><time>2026-04-28T12:42:54.91Z</time></trkpt><trkpt lat="39.871419902800525" lon="9.512071665411062"><ele>957.6666666666666</ele><time>2026-04-28T12:42:55.91Z</time></trkpt><trkpt lat="39.871505469090984" lon="9.5123103364395"><ele>960.3333333333333</ele><time>2026-04-28T12:42:56.91Z</time></trkpt><trkpt lat="39.871579996151596" lon="9.51256889208316"><ele>963.0</ele><time>2026-04-28T12:42:57.91Z</time></trkpt><trkpt lat="39.87165113768052" lon="9.512826134138017"><ele>965.3333333333333</ele><time>2026-04-28T12:42:58.91Z</time></trkpt><trkpt lat="39.871718266353724" lon="9.513094699566091"><ele>967.6666666666666</ele><time>2026-04-28T12:42:59.91Z</time></trkpt><trkpt lat="39.87177305733086" lon="9.513357981653623"><ele>970.0</ele><time>2026-04-28T12:43:00.91Z</time></trkpt><trkpt lat="39.87181710176302" lon="9.513598985391978"><ele>967.6666666666666</ele><time>2026-04-28T12:43:01.91Z</time></trkpt><trkpt lat="39.87187748805446" lon="9.513819795507167"><ele>965.3333333333333</ele><time>2026-04-28T12:43:02.91Z</time></trkpt><trkpt lat="39.87197081947701" lon="9.514014330598402"><ele>963.0</ele><time>2026-04-28T12:43:03.91Z</time></trkpt><trkpt lat="39.8720935521616" lon="9.51418807413799"><ele>963.0</ele><time>2026-04-28T12:43:04.91Z</time></trkpt><trkpt lat="39.8722567548635" lon="9.5143127812095"><ele>963.0</ele><time>2026-04-28T12:43:05.91Z</time></trkpt><trkpt lat="39.87243488431882" lon="9.514385567918431"><ele>963.0</ele><time>2026-04-28T12:43:06.91Z</time></trkpt><trkpt lat="39.87262322930942" lon="9.514346923354589"><ele>962.6666666666667</ele><time>2026-04-28T12:43:07.91Z</time></trkpt><trkpt lat="39.872815635441015" lon="9.514299100488127"><ele>962.3333333333334</ele><time>2026-04-28T12:43:08.91Z</time></trkpt><trkpt lat="39.87300644844872" lon="9.514312315951713"><ele>962.0</ele><time>2026-04-28T12:43:09.91Z</time></trkpt><trkpt lat="39.873193663877686" lon="9.514378093112546"><ele>962.0</ele><time>2026-04-28T12:43:10.91Z</time></trkpt><trkpt lat="39.87338091368343" lon="9.514374000869447"><ele>962.0</ele><time>2026-04-28T12:43:11.91Z</time></trkpt><trkpt lat="39.87356886479277" lon="9.514304983209227"><ele>962.0</ele><time>2026-04-28T12:43:12.91Z</time></trkpt><trkpt lat="39.87373661453606" lon="9.51424344423462"><ele>960.0</ele><time>2026-04-28T12:43:13.91Z</time></trkpt><trkpt lat="39.87386357392093" lon="9.514144135704036"><ele>958.0</ele><time>2026-04-28T12:43:14.91Z</time></trkpt><trkpt lat="39.873925674973144" lon="9.513956625655629"><ele>956.0</ele><time>2026-04-28T12:43:15.91Z</time></trkpt><trkpt lat="39.873940129419374" lon="9.513734559043098"><ele>956.0</ele><time>2026-04-28T12:43:16.91Z</time></trkpt><trkpt lat="39.87395364200296" lon="9.51349669660842"><ele>956.0</ele><time>2026-04-28T12:43:17.91Z</time></trkpt><trkpt lat="39.87402170906334" lon="9.513287651603973"><ele>956.0</ele><time>2026-04-28T12:43:18.91Z</time></trkpt><trkpt lat="39.87414504076698" lon="9.5131138441237"><ele>952.6666666666667</ele><time>2026-04-28T12:43:19.91Z</time></trkpt><trkpt lat="39.8742775049479" lon="9.512932055493414"><ele>949.3333333333333</ele><time>2026-04-28T12:43:20.91Z</time></trkpt><trkpt lat="39.87440283879022" lon="9.512744151123938"><ele>946.0</ele><time>2026-04-28T12:43:21.91Z</time></trkpt><trkpt lat="39.8745324241393" lon="9.512551758758455"><ele>946.0</ele><time>2026-04-28T12:43:22.91Z</time></trkpt><trkpt lat="39.87466935423997" lon="9.512358791046276"><ele>946.0</ele><time>2026-04-28T12:43:23.91Z</time></trkpt><trkpt lat="39.874811227811556" lon="9.51218077942946"><ele>946.0</ele><time>2026-04-28T12:43:24.91Z</time></trkpt><trkpt lat="39.874979660043316" lon="9.512034794079717"><ele>947.0</ele><time>2026-04-28T12:43:25.91Z</time></trkpt><trkpt lat="39.875172161678215" lon="9.511938163201531"><ele>948.0</ele><time>2026-04-28T12:43:26.909Z</time></trkpt><trkpt lat="39.8753587838921" lon="9.511821514143893"><ele>949.0</ele><time>2026-04-28T12:43:27.909Z</time></trkpt><trkpt lat="39.875531080823414" lon="9.511660170735817"><ele>949.0</ele><time>2026-04-28T12:43:28.909Z</time></trkpt><trkpt lat="39.875697208240574" lon="9.511480950955642"><ele>949.0</ele><time>2026-04-28T12:43:29.909Z</time></trkpt><trkpt lat="39.87587181283031" lon="9.511300662697156"><ele>949.0</ele><time>2026-04-28T12:43:30.909Z</time></trkpt><trkpt lat="39.87605538492858" lon="9.511142104674917"><ele>953.3333333333333</ele><time>2026-04-28T12:43:31.909Z</time></trkpt><trkpt lat="39.87623824009736" lon="9.510991965767088"><ele>957.6666666666667</ele><time>2026-04-28T12:43:32.909Z</time></trkpt><trkpt lat="39.87643301034143" lon="9.510865805707168"><ele>962.0</ele><time>2026-04-28T12:43:33.909Z</time></trkpt><trkpt lat="39.87664560363231" lon="9.510770944805923"><ele>957.3333333333334</ele><time>2026-04-28T12:43:34.909Z</time></trkpt><trkpt lat="39.876853936663395" lon="9.510671642612841"><ele>952.6666666666667</ele><time>2026-04-28T12:43:35.909Z</time></trkpt><trkpt lat="39.87705394355584" lon="9.510560160064866"><ele>948.0</ele><time>2026-04-28T12:43:36.909Z</time></trkpt><trkpt lat="39.87725160118715" lon="9.51047770347732"><ele>948.0</ele><time>2026-04-28T12:43:37.909Z</time></trkpt><trkpt lat="39.877455885213266" lon="9.510444694878482"><ele>948.0</ele><time>2026-04-28T12:43:38.909Z</time></trkpt><trkpt lat="39.877669472881855" lon="9.510428220437115"><ele>948.0</ele><time>2026-04-28T12:43:39.909Z</time></trkpt><trkpt lat="39.87788896935756" lon="9.510406869077086"><ele>953.3333333333333</ele><time>2026-04-28T12:43:40.909Z</time></trkpt><trkpt lat="39.87810700314706" lon="9.51037225118799"><ele>958.6666666666666</ele><time>2026-04-28T12:43:41.909Z</time></trkpt><trkpt lat="39.878331828334915" lon="9.51032485455488"><ele>964.0</ele><time>2026-04-28T12:43:42.909Z</time></trkpt><trkpt lat="39.87855479398878" lon="9.51027090190375"><ele>964.0</ele><time>2026-04-28T12:43:43.909Z</time></trkpt><trkpt lat="39.87876596277587" lon="9.510224178869334"><ele>964.0</ele><time>2026-04-28T12:43:44.909Z</time></trkpt><trkpt lat="39.87896371610317" lon="9.51019077898103"><ele>964.0</ele><time>2026-04-28T12:43:45.909Z</time></trkpt><trkpt lat="39.87915491753393" lon="9.51021643400654"><ele>962.0</ele><time>2026-04-28T12:43:46.909Z</time></trkpt><trkpt lat="39.87934558195249" lon="9.510299363259838"><ele>960.0</ele><time>2026-04-28T12:43:47.909Z</time></trkpt><trkpt lat="39.87954107625529" lon="9.51031892120027"><ele>958.0</ele><time>2026-04-28T12:43:48.909Z</time></trkpt><trkpt lat="39.879740245203934" lon="9.51027354312372"><ele>958.0</ele><time>2026-04-28T12:43:49.909Z</time></trkpt><trkpt lat="39.87993589552047" lon="9.510203697151388"><ele>958.0</ele><time>2026-04-28T12:43:50.909Z</time></trkpt><trkpt lat="39.88011782643089" lon="9.510133706928123"><ele>958.0</ele><time>2026-04-28T12:43:51.909Z</time></trkpt><trkpt lat="39.880288777876885" lon="9.510073315082455"><ele>957.6666666666666</ele><time>2026-04-28T12:43:52.909Z</time></trkpt><trkpt lat="39.88044249704328" lon="9.510058584854832"><ele>957.3333333333333</ele><time>2026-04-28T12:43:53.909Z</time></trkpt><trkpt lat="39.88059661980126" lon="9.510150477948773"><ele>957.0</ele><time>2026-04-28T12:43:54.909Z</time></trkpt><trkpt lat="39.88072834068738" lon="9.510316546586838"><ele>957.3333333333333</ele><time>2026-04-28T12:43:55.909Z</time></trkpt><trkpt lat="39.880863675283244" lon="9.510430868775643"><ele>957.6666666666666</ele><time>2026-04-28T12:43:56.909Z</time></trkpt><trkpt lat="39.88100301146577" lon="9.510464485268326"><ele>958.0</ele><time>2026-04-28T12:43:57.909Z</time></trkpt><trkpt lat="39.881140148638245" lon="9.5103810796792"><ele>958.0</ele><time>2026-04-28T12:43:58.909Z</time></trkpt><trkpt lat="39.8812893119768" lon="9.510225805918974"><ele>958.0</ele><time>2026-04-28T12:43:59.909Z</time></trkpt><trkpt lat="39.88146168689266" lon="9.510072375842725"><ele>958.0</ele><time>2026-04-28T12:44:00.909Z</time></trkpt><trkpt lat="39.88162950538318" lon="9.50992693061842"><ele>956.0</ele><time>2026-04-28T12:44:01.909Z</time></trkpt><trkpt lat="39.88180509817863" lon="9.509776943382887"><ele>954.0</ele><time>2026-04-28T12:44:02.909Z</time></trkpt><trkpt lat="39.88198551940378" lon="9.509624495117261"><ele>952.0</ele><time>2026-04-28T12:44:03.909Z</time></trkpt><trkpt lat="39.88215145561708" lon="9.509472930475631"><ele>952.0</ele><time>2026-04-28T12:44:04.909Z</time></trkpt><trkpt lat="39.88230498642196" lon="9.509332860667405"><ele>952.0</ele><time>2026-04-28T12:44:05.909Z</time></trkpt><trkpt lat="39.88245288527448" lon="9.509205508580854"><ele>952.0</ele><time>2026-04-28T12:44:06.91Z</time></trkpt><trkpt lat="39.88259506489348" lon="9.50909372801663"><ele>953.6666666666666</ele><time>2026-04-28T12:44:07.909Z</time></trkpt><trkpt lat="39.88273069734542" lon="9.508989400089371"><ele>955.3333333333333</ele><time>2026-04-28T12:44:08.909Z</time></trkpt><trkpt lat="39.882863544269895" lon="9.508894432261242"><ele>957.0</ele><time>2026-04-28T12:44:09.91Z</time></trkpt><trkpt lat="39.88299969038447" lon="9.508804757721814"><ele>953.6666666666667</ele><time>2026-04-28T12:44:10.909Z</time></trkpt><trkpt lat="39.88315802099179" lon="9.508718754042578"><ele>950.3333333333334</ele><time>2026-04-28T12:44:11.909Z</time></trkpt><trkpt lat="39.88331509580534" lon="9.50863880362283"><ele>947.0</ele><time>2026-04-28T12:44:12.909Z</time></trkpt><trkpt lat="39.88346075238245" lon="9.508548038757642"><ele>946.3333333333334</ele><time>2026-04-28T12:44:13.909Z</time></trkpt><trkpt lat="39.883631538164074" lon="9.50847498305359"><ele>945.6666666666667</ele><time>2026-04-28T12:44:14.909Z</time></trkpt><trkpt lat="39.88380921822296" lon="9.508437742305672"><ele>945.0</ele><time>2026-04-28T12:44:15.909Z</time></trkpt><trkpt lat="39.88395809002686" lon="9.508360505399315"><ele>945.0</ele><time>2026-04-28T12:44:16.91Z</time></trkpt><trkpt lat="39.884064975811114" lon="9.508214656597954"><ele>945.0</ele><time>2026-04-28T12:44:17.91Z</time></trkpt><trkpt lat="39.88413084014983" lon="9.507998714211672"><ele>945.0</ele><time>2026-04-28T12:44:18.909Z</time></trkpt><trkpt lat="39.88425253308857" lon="9.50782696400832"><ele>943.0</ele><time>2026-04-28T12:44:19.909Z</time></trkpt><trkpt lat="39.88443775885921" lon="9.507670890919787"><ele>941.0</ele><time>2026-04-28T12:44:20.909Z</time></trkpt><trkpt lat="39.884636834872964" lon="9.507544507167875"><ele>939.0</ele><time>2026-04-28T12:44:21.909Z</time></trkpt><trkpt lat="39.88482818532653" lon="9.507413274555692"><ele>939.0</ele><time>2026-04-28T12:44:22.909Z</time></trkpt><trkpt lat="39.88498919695468" lon="9.507272249048219"><ele>939.0</ele><time>2026-04-28T12:44:23.909Z</time></trkpt><trkpt lat="39.88512124266747" lon="9.50717149909829"><ele>939.0</ele><time>2026-04-28T12:44:24.909Z</time></trkpt><trkpt lat="39.88526061981242" lon="9.507164779904194"><ele>935.25</ele><time>2026-04-28T12:44:25.909Z</time></trkpt><trkpt lat="39.88536762161998" lon="9.507248402516158"><ele>931.5</ele><time>2026-04-28T12:44:26.909Z</time></trkpt><trkpt lat="39.885414453566156" lon="9.507382815191791"><ele>927.75</ele><time>2026-04-28T12:44:27.909Z</time></trkpt><trkpt lat="39.885373031167966" lon="9.507535541473612"><ele>924.0</ele><time>2026-04-28T12:44:28.909Z</time></trkpt><trkpt lat="39.88534715120478" lon="9.507787960446715"><ele>922.6666666666667</ele><time>2026-04-28T12:44:29.909Z</time></trkpt><trkpt lat="39.88533658785636" lon="9.508049456633847"><ele>921.3333333333334</ele><time>2026-04-28T12:44:30.909Z</time></trkpt><trkpt lat="39.885319871349516" lon="9.508312049051266"><ele>920.0</ele><time>2026-04-28T12:44:31.909Z</time></trkpt><trkpt lat="39.8853231506067" lon="9.508584254676446"><ele>920.6666666666667</ele><time>2026-04-28T12:44:32.909Z</time></trkpt><trkpt lat="39.88534448436937" lon="9.508845711631334"><ele>921.3333333333333</ele><time>2026-04-28T12:44:33.909Z</time></trkpt><trkpt lat="39.88536365683337" lon="9.50909459219067"><ele>922.0</ele><time>2026-04-28T12:44:34.909Z</time></trkpt><trkpt lat="39.885429212360236" lon="9.509293237997873"><ele>922.0</ele><time>2026-04-28T12:44:35.909Z</time></trkpt><trkpt lat="39.88555933878085" lon="9.509427070936283"><ele>922.0</ele><time>2026-04-28T12:44:36.909Z</time></trkpt><trkpt lat="39.885736141329495" lon="9.509520165716133"><ele>922.0</ele><time>2026-04-28T12:44:37.909Z</time></trkpt><trkpt lat="39.88593723808009" lon="9.509566236926036"><ele>920.6666666666666</ele><time>2026-04-28T12:44:38.909Z</time></trkpt><trkpt lat="39.886148812505574" lon="9.509607734444462"><ele>919.3333333333333</ele><time>2026-04-28T12:44:39.909Z</time></trkpt><trkpt lat="39.88634880774579" lon="9.50965843724838"><ele>918.0</ele><time>2026-04-28T12:44:40.909Z</time></trkpt><trkpt lat="39.8865637831919" lon="9.509722455443338"><ele>916.0</ele><time>2026-04-28T12:44:41.909Z</time></trkpt><trkpt lat="39.886790450245314" lon="9.509787298233881"><ele>914.0</ele><time>2026-04-28T12:44:42.909Z</time></trkpt><trkpt lat="39.887024149716645" lon="9.509854225040824"><ele>914.0</ele><time>2026-04-28T12:44:43.909Z</time></trkpt><trkpt lat="39.88726559608505" lon="9.509916218721546"><ele>914.0</ele><time>2026-04-28T12:44:44.909Z</time></trkpt><trkpt lat="39.88750754108715" lon="9.509970800108448"><ele>911.5</ele><time>2026-04-28T12:44:45.909Z</time></trkpt><trkpt lat="39.88774331736731" lon="9.510022362114944"><ele>909.0</ele><time>2026-04-28T12:44:46.909Z</time></trkpt><trkpt lat="39.887971545220566" lon="9.510071037779559"><ele>909.0</ele><time>2026-04-28T12:44:47.909Z</time></trkpt><trkpt lat="39.88817690698762" lon="9.510112441706413"><ele>909.0</ele><time>2026-04-28T12:44:48.909Z</time></trkpt><trkpt lat="39.88836496979284" lon="9.510173431335218"><ele>909.0</ele><time>2026-04-28T12:44:49.909Z</time></trkpt><trkpt lat="39.888537292572074" lon="9.510127979437307"><ele>908.6666666666667</ele><time>2026-04-28T12:44:50.909Z</time></trkpt><trkpt lat="39.88871235602769" lon="9.509983903409703"><ele>908.3333333333334</ele><time>2026-04-28T12:44:51.909Z</time></trkpt><trkpt lat="39.88887006588066" lon="9.50979074387999"><ele>908.0</ele><time>2026-04-28T12:44:52.909Z</time></trkpt><trkpt lat="39.88900260546076" lon="9.509570701850905"><ele>908.0</ele><time>2026-04-28T12:44:53.908Z</time></trkpt><trkpt lat="39.88915355326739" lon="9.509416611835457"><ele>908.0</ele><time>2026-04-28T12:44:54.908Z</time></trkpt><trkpt lat="39.88933409401404" lon="9.509355373507887"><ele>908.0</ele><time>2026-04-28T12:44:55.908Z</time></trkpt><trkpt lat="39.88952006053193" lon="9.509393487412439"><ele>908.0</ele><time>2026-04-28T12:44:56.908Z</time></trkpt><trkpt lat="39.88968941941897" lon="9.509516217441982"><ele>908.0</ele><time>2026-04-28T12:44:57.908Z</time></trkpt><trkpt lat="39.889820174351684" lon="9.509713206434292"><ele>908.0</ele><time>2026-04-28T12:44:58.908Z</time></trkpt><trkpt lat="39.88996499358274" lon="9.509884077213224"><ele>908.3333333333334</ele><time>2026-04-28T12:44:59.908Z</time></trkpt><trkpt lat="39.89014752855686" lon="9.509966452687054"><ele>908.6666666666667</ele><time>2026-04-28T12:45:00.908Z</time></trkpt><trkpt lat="39.89036750652233" lon="9.509967622177252"><ele>909.0</ele><time>2026-04-28T12:45:01.908Z</time></trkpt><trkpt lat="39.890571931000274" lon="9.509977967202378"><ele>909.0</ele><time>2026-04-28T12:45:02.908Z</time></trkpt><trkpt lat="39.89075868775996" lon="9.510038348681315"><ele>909.0</ele><time>2026-04-28T12:45:03.908Z</time></trkpt><trkpt lat="39.89091999577751" lon="9.510180452801617"><ele>909.0</ele><time>2026-04-28T12:45:04.908Z</time></trkpt><trkpt lat="39.891055856815115" lon="9.510378401885674"><ele>908.5</ele><time>2026-04-28T12:45:05.908Z</time></trkpt><trkpt lat="39.89119968112447" lon="9.510606254681216"><ele>908.0</ele><time>2026-04-28T12:45:06.908Z</time></trkpt><trkpt lat="39.89134659612917" lon="9.510835918212372"><ele>908.0</ele><time>2026-04-28T12:45:07.908Z</time></trkpt><trkpt lat="39.89151241322107" lon="9.51103365560104"><ele>908.0</ele><time>2026-04-28T12:45:08.908Z</time></trkpt><trkpt lat="39.891676200149234" lon="9.511199621876436"><ele>908.0</ele><time>2026-04-28T12:45:09.908Z</time></trkpt><trkpt lat="39.891817886232005" lon="9.511354374519776"><ele>908.0</ele><time>2026-04-28T12:45:10.908Z</time></trkpt><trkpt lat="39.89192204841483" lon="9.51153470094257"><ele>908.0</ele><time>2026-04-28T12:45:11.908Z</time></trkpt><trkpt lat="39.89196816683951" lon="9.511757202697792"><ele>908.0</ele><time>2026-04-28T12:45:12.908Z</time></trkpt><trkpt lat="39.89194645764776" lon="9.512015056729119"><ele>908.3333333333334</ele><time>2026-04-28T12:45:13.908Z</time></trkpt><trkpt lat="39.891889239900195" lon="9.51229372515629"><ele>908.6666666666667</ele><time>2026-04-28T12:45:14.908Z</time></trkpt><trkpt lat="39.891823941836826" lon="9.51256360057063"><ele>909.0</ele><time>2026-04-28T12:45:15.908Z</time></trkpt><trkpt lat="39.891792524620996" lon="9.51283295579662"><ele>905.5</ele><time>2026-04-28T12:45:16.908Z</time></trkpt><trkpt lat="39.891712757348635" lon="9.513114714563676"><ele>902.0</ele><time>2026-04-28T12:45:17.908Z</time></trkpt><trkpt lat="39.89161738981755" lon="9.513375018357856"><ele>902.0</ele><time>2026-04-28T12:45:18.908Z</time></trkpt><trkpt lat="39.891499258827075" lon="9.51362086395523"><ele>902.0</ele><time>2026-04-28T12:45:19.908Z</time></trkpt><trkpt lat="39.89137651509879" lon="9.513831543241404"><ele>902.0</ele><time>2026-04-28T12:45:20.908Z</time></trkpt><trkpt lat="39.89129088594255" lon="9.513989768962515"><ele>900.5</ele><time>2026-04-28T12:45:21.908Z</time></trkpt><trkpt lat="39.89124538332701" lon="9.514143540879898"><ele>899.0</ele><time>2026-04-28T12:45:22.908Z</time></trkpt><trkpt lat="39.89129598582977" lon="9.514304795243476"><ele>897.5</ele><time>2026-04-28T12:45:23.908Z</time></trkpt><trkpt lat="39.89142276189544" lon="9.514428188671719"><ele>896.0</ele><time>2026-04-28T12:45:24.908Z</time></trkpt><trkpt lat="39.89159554152371" lon="9.514515907153143"><ele>893.0</ele><time>2026-04-28T12:45:25.908Z</time></trkpt><trkpt lat="39.891744247565505" lon="9.51466796717172"><ele>890.0</ele><time>2026-04-28T12:45:26.908Z</time></trkpt><trkpt lat="39.891855506380395" lon="9.514889687368424"><ele>887.0</ele><time>2026-04-28T12:45:27.908Z</time></trkpt><trkpt lat="39.89195826059049" lon="9.515122588385333"><ele>885.3333333333334</ele><time>2026-04-28T12:45:28.908Z</time></trkpt><trkpt lat="39.89202666903023" lon="9.515359582227209"><ele>883.6666666666667</ele><time>2026-04-28T12:45:29.908Z</time></trkpt><trkpt lat="39.89208267556921" lon="9.515576812603813"><ele>882.0</ele><time>2026-04-28T12:45:30.908Z</time></trkpt><trkpt lat="39.89214710580905" lon="9.515766379785143"><ele>880.0</ele><time>2026-04-28T12:45:31.908Z</time></trkpt><trkpt lat="39.89226537460821" lon="9.515874085706585"><ele>878.0</ele><time>2026-04-28T12:45:32.908Z</time></trkpt><trkpt lat="39.892410856381545" lon="9.515896931350616"><ele>876.0</ele><time>2026-04-28T12:45:33.908Z</time></trkpt><trkpt lat="39.89257070182176" lon="9.515814828042156"><ele>871.6666666666667</ele><time>2026-04-28T12:45:34.908Z</time></trkpt><trkpt lat="39.89271450559325" lon="9.51568971443684"><ele>867.3333333333334</ele><time>2026-04-28T12:45:35.908Z</time></trkpt><trkpt lat="39.89282659423405" lon="9.515524049197383"><ele>863.0</ele><time>2026-04-28T12:45:36.908Z</time></trkpt><trkpt lat="39.89287636145937" lon="9.515322743443072"><ele>863.0</ele><time>2026-04-28T12:45:37.908Z</time></trkpt><trkpt lat="39.892858877001515" lon="9.515074982735428"><ele>863.0</ele><time>2026-04-28T12:45:38.908Z</time></trkpt><trkpt lat="39.89283218947459" lon="9.514823684235923"><ele>863.0</ele><time>2026-04-28T12:45:39.908Z</time></trkpt><trkpt lat="39.892842207227304" lon="9.514626329472764"><ele>867.0</ele><time>2026-04-28T12:45:40.908Z</time></trkpt><trkpt lat="39.8929040701627" lon="9.514479457799176"><ele>871.0</ele><time>2026-04-28T12:45:41.908Z</time></trkpt><trkpt lat="39.893015688253456" lon="9.51442823876588"><ele>875.0</ele><time>2026-04-28T12:45:42.908Z</time></trkpt><trkpt lat="39.893151953265416" lon="9.51446474600631"><ele>879.0</ele><time>2026-04-28T12:45:43.908Z</time></trkpt><trkpt lat="39.89331610217967" lon="9.514534525980125"><ele>870.3333333333333</ele><time>2026-04-28T12:45:44.908Z</time></trkpt><trkpt lat="39.89350709382239" lon="9.514608100100427"><ele>861.6666666666666</ele><time>2026-04-28T12:45:45.908Z</time></trkpt><trkpt lat="39.893695289075275" lon="9.514655627525425"><ele>853.0</ele><time>2026-04-28T12:45:46.908Z</time></trkpt><trkpt lat="39.89387764373472" lon="9.514638788213627"><ele>854.3333333333333</ele><time>2026-04-28T12:45:47.908Z</time></trkpt><trkpt lat="39.89406202824341" lon="9.514560003992658"><ele>855.6666666666667</ele><time>2026-04-28T12:45:48.908Z</time></trkpt><trkpt lat="39.89421698863988" lon="9.51442702791423"><ele>857.0</ele><time>2026-04-28T12:45:49.908Z</time></trkpt><trkpt lat="39.89433020518992" lon="9.514257564624135"><ele>857.0</ele><time>2026-04-28T12:45:50.908Z</time></trkpt><trkpt lat="39.89442214746302" lon="9.514143936614227"><ele>857.0</ele><time>2026-04-28T12:45:51.908Z</time></trkpt><trkpt lat="39.89454535982773" lon="9.514127000281118"><ele>857.0</ele><time>2026-04-28T12:45:52.908Z</time></trkpt><trkpt lat="39.89468748565216" lon="9.514221839652313"><ele>857.0</ele><time>2026-04-28T12:45:53.908Z</time></trkpt><trkpt lat="39.89484888522445" lon="9.514290947836042"><ele>857.0</ele><time>2026-04-28T12:45:54.908Z</time></trkpt><trkpt lat="39.8950277169373" lon="9.514288333548432"><ele>857.0</ele><time>2026-04-28T12:45:55.908Z</time></trkpt><trkpt lat="39.895208500142516" lon="9.514250904247502"><ele>857.0</ele><time>2026-04-28T12:45:56.908Z</time></trkpt><trkpt lat="39.89538623622194" lon="9.514214522617197"><ele>855.3333333333334</ele><time>2026-04-28T12:45:57.908Z</time></trkpt><trkpt lat="39.89555923986077" lon="9.514201229292185"><ele>853.6666666666667</ele><time>2026-04-28T12:45:58.908Z</time></trkpt><trkpt lat="39.89572604328401" lon="9.514246453691955"><ele>852.0</ele><time>2026-04-28T12:45:59.907Z</time></trkpt><trkpt lat="39.8958894106314" lon="9.514332181095277"><ele>852.3333333333333</ele><time>2026-04-28T12:46:00.907Z</time></trkpt><trkpt lat="39.896038576819095" lon="9.514430280108044"><ele>852.6666666666666</ele><time>2026-04-28T12:46:01.907Z</time></trkpt><trkpt lat="39.8961735369354" lon="9.514535467972559"><ele>853.0</ele><time>2026-04-28T12:46:02.907Z</time></trkpt><trkpt lat="39.89627819201606" lon="9.514664789916585"><ele>853.0</ele><time>2026-04-28T12:46:03.907Z</time></trkpt><trkpt lat="39.896351131641985" lon="9.51481550744675"><ele>853.0</ele><time>2026-04-28T12:46:04.907Z</time></trkpt><trkpt lat="39.89640127605159" lon="9.514979412463575"><ele>853.0</ele><time>2026-04-28T12:46:05.907Z</time></trkpt><trkpt lat="39.89644036958746" lon="9.515149565023421"><ele>853.0</ele><time>2026-04-28T12:46:06.907Z</time></trkpt><trkpt lat="39.89647041965098" lon="9.515310058031377"><ele>850.9999999999999</ele><time>2026-04-28T12:46:07.907Z</time></trkpt><trkpt lat="39.89648531060629" lon="9.515462690454793"><ele>849.0</ele><time>2026-04-28T12:46:08.907Z</time></trkpt><trkpt lat="39.89648871984688" lon="9.515594210580366"><ele>847.0</ele><time>2026-04-28T12:46:09.907Z</time></trkpt><trkpt lat="39.89645634388922" lon="9.51568321840977"><ele>845.0</ele><time>2026-04-28T12:46:10.907Z</time></trkpt><trkpt lat="39.89638759546866" lon="9.515705954238628"><ele>842.9999999999999</ele><time>2026-04-28T12:46:11.907Z</time></trkpt><trkpt lat="39.896329522105184" lon="9.515646967912312"><ele>841.0</ele><time>2026-04-28T12:46:12.909Z</time></trkpt><trkpt lat="39.896292532452904" lon="9.515537999623609"><ele>840.9999999999999</ele><time>2026-04-28T12:46:13.908Z</time></trkpt><trkpt lat="39.896271431608916" lon="9.515434203233305"><ele>841.0</ele><time>2026-04-28T12:46:14.908Z</time></trkpt><trkpt lat="39.89625061563032" lon="9.51533217990237"><ele>841.0</ele><time>2026-04-28T12:46:15.909Z</time></trkpt><trkpt lat="39.89621359819828" lon="9.515233136438294"><ele>841.0</ele><time>2026-04-28T12:46:16.908Z</time></trkpt><trkpt lat="39.89615528690891" lon="9.515145353653413"><ele>840.9999999999999</ele><time>2026-04-28T12:46:17.908Z</time></trkpt><trkpt lat="39.89607338202165" lon="9.515087134650695"><ele>841.0</ele><time>2026-04-28T12:46:18.908Z</time></trkpt><trkpt lat="39.895976615331385" lon="9.515064955936438"><ele>840.8</ele><time>2026-04-28T12:46:19.908Z</time></trkpt><trkpt lat="39.89587503759318" lon="9.515096668891776"><ele>840.5999999999999</ele><time>2026-04-28T12:46:20.908Z</time></trkpt><trkpt lat="39.89579162452483" lon="9.5151522163217"><ele>840.4</ele><time>2026-04-28T12:46:21.908Z</time></trkpt><trkpt lat="39.89571628934058" lon="9.515208151507151"><ele>840.2</ele><time>2026-04-28T12:46:22.908Z</time></trkpt><trkpt lat="39.895644247342716" lon="9.515269676112984"><ele>840.0</ele><time>2026-04-28T12:46:23.908Z</time></trkpt><trkpt lat="39.89557742317863" lon="9.515334300621278"><ele>840.0</ele><time>2026-04-28T12:46:24.908Z</time></trkpt><trkpt lat="39.895519908808296" lon="9.515402974580354"><ele>840.0</ele><time>2026-04-28T12:46:25.908Z</time></trkpt><trkpt lat="39.895479506067495" lon="9.515484284214617"><ele>840.0</ele><time>2026-04-28T12:46:26.908Z</time></trkpt><trkpt lat="39.89545648052386" lon="9.51557729609711"><ele>840.0</ele><time>2026-04-28T12:46:27.908Z</time></trkpt><trkpt lat="39.89543809140029" lon="9.515663344599563"><ele>840.0</ele><time>2026-04-28T12:46:28.908Z</time></trkpt><trkpt lat="39.89541481297673" lon="9.515755514664292"><ele>840.0</ele><time>2026-04-28T12:46:29.908Z</time></trkpt><trkpt lat="39.89539232682179" lon="9.515846445795987"><ele>840.0</ele><time>2026-04-28T12:46:30.908Z</time></trkpt><trkpt lat="39.89536089355034" lon="9.5159371186769"><ele>838.6</ele><time>2026-04-28T12:46:31.908Z</time></trkpt><trkpt lat="39.895328033973136" lon="9.516037035526717"><ele>837.2</ele><time>2026-04-28T12:46:32.908Z</time></trkpt><trkpt lat="39.89527401263871" lon="9.51613943262472"><ele>835.8</ele><time>2026-04-28T12:46:33.908Z</time></trkpt><trkpt lat="39.89518545364094" lon="9.516241090177578"><ele>834.4</ele><time>2026-04-28T12:46:34.908Z</time></trkpt><trkpt lat="39.89509359041094" lon="9.516345804643612"><ele>833.0</ele><time>2026-04-28T12:46:35.908Z</time></trkpt><trkpt lat="39.89498312812824" lon="9.516467343253789"><ele>830.5</ele><time>2026-04-28T12:46:36.908Z</time></trkpt><trkpt lat="39.894883545845865" lon="9.51660815063003"><ele>828.0</ele><time>2026-04-28T12:46:37.908Z</time></trkpt><trkpt lat="39.894795664631864" lon="9.51676757915356"><ele>825.5</ele><time>2026-04-28T12:46:38.908Z</time></trkpt><trkpt lat="39.89473175189243" lon="9.516943356834572"><ele>823.0</ele><time>2026-04-28T12:46:39.908Z</time></trkpt><trkpt lat="39.89470984580272" lon="9.517134969175604"><ele>819.0</ele><time>2026-04-28T12:46:40.908Z</time></trkpt><trkpt lat="39.8947550021399" lon="9.517322528885927"><ele>815.0</ele><time>2026-04-28T12:46:41.908Z</time></trkpt><trkpt lat="39.89479855307357" lon="9.517521173489019"><ele>811.0</ele><time>2026-04-28T12:46:42.908Z</time></trkpt><trkpt lat="39.894782334057794" lon="9.517724046159625"><ele>805.6666666666666</ele><time>2026-04-28T12:46:43.908Z</time></trkpt><trkpt lat="39.894697507027374" lon="9.51791883092626"><ele>800.3333333333333</ele><time>2026-04-28T12:46:44.908Z</time></trkpt><trkpt lat="39.89458179045322" lon="9.518112292304965"><ele>795.0</ele><time>2026-04-28T12:46:45.908Z</time></trkpt><trkpt lat="39.894473811984426" lon="9.518300061717543"><ele>795.0</ele><time>2026-04-28T12:46:46.908Z</time></trkpt><trkpt lat="39.89437220893843" lon="9.518493697296352"><ele>795.0</ele><time>2026-04-28T12:46:47.908Z</time></trkpt><trkpt lat="39.8942592715993" lon="9.518682134159908"><ele>795.0</ele><time>2026-04-28T12:46:48.908Z</time></trkpt><trkpt lat="39.8941251720335" lon="9.518855521987668"><ele>795.0</ele><time>2026-04-28T12:46:49.908Z</time></trkpt><trkpt lat="39.89396874761299" lon="9.519006328634045"><ele>795.0</ele><time>2026-04-28T12:46:50.908Z</time></trkpt><trkpt lat="39.89381105217043" lon="9.51915674081089"><ele>795.0</ele><time>2026-04-28T12:46:51.908Z</time></trkpt><trkpt lat="39.89367562022964" lon="9.51933272906393"><ele>795.0</ele><time>2026-04-28T12:46:52.908Z</time></trkpt><trkpt lat="39.89355748506483" lon="9.519527071795443"><ele>795.0</ele><time>2026-04-28T12:46:53.908Z</time></trkpt><trkpt lat="39.893442023411325" lon="9.519730500173464"><ele>795.0</ele><time>2026-04-28T12:46:54.908Z</time></trkpt><trkpt lat="39.893296190439486" lon="9.519896902519582"><ele>794.6666666666667</ele><time>2026-04-28T12:46:55.908Z</time></trkpt><trkpt lat="39.89314295503884" lon="9.520024699148111"><ele>794.3333333333334</ele><time>2026-04-28T12:46:56.908Z</time></trkpt><trkpt lat="39.89298506265843" lon="9.5201046549123"><ele>794.0</ele><time>2026-04-28T12:46:57.908Z</time></trkpt><trkpt lat="39.89281295099227" lon="9.520160709825799"><ele>794.0</ele><time>2026-04-28T12:46:58.908Z</time></trkpt><trkpt lat="39.89265412333793" lon="9.520273138521269"><ele>794.0</ele><time>2026-04-28T12:46:59.908Z</time></trkpt><trkpt lat="39.89251342300796" lon="9.520433800556315"><ele>794.0</ele><time>2026-04-28T12:47:00.908Z</time></trkpt><trkpt lat="39.89235125266185" lon="9.520566394422918"><ele>790.0</ele><time>2026-04-28T12:47:01.908Z</time></trkpt><trkpt lat="39.892183744999784" lon="9.52068105293261"><ele>786.0</ele><time>2026-04-28T12:47:02.908Z</time></trkpt><trkpt lat="39.892034135968075" lon="9.520829899926325"><ele>782.0</ele><time>2026-04-28T12:47:03.908Z</time></trkpt><trkpt lat="39.891903229216446" lon="9.521006155822034"><ele>782.0</ele><time>2026-04-28T12:47:04.908Z</time></trkpt><trkpt lat="39.89176109200816" lon="9.52114533094526"><ele>782.0</ele><time>2026-04-28T12:47:05.908Z</time></trkpt><trkpt lat="39.89159348343186" lon="9.521238060998325"><ele>782.0</ele><time>2026-04-28T12:47:06.908Z</time></trkpt><trkpt lat="39.89141144174665" lon="9.521281738578534"><ele>780.0</ele><time>2026-04-28T12:47:07.908Z</time></trkpt><trkpt lat="39.89124076835239" lon="9.521314159873633"><ele>778.0</ele><time>2026-04-28T12:47:08.908Z</time></trkpt><trkpt lat="39.89108070739823" lon="9.521340508168075"><ele>776.0</ele><time>2026-04-28T12:47:09.908Z</time></trkpt><trkpt lat="39.89093645157343" lon="9.521316820210338"><ele>779.3333333333334</ele><time>2026-04-28T12:47:10.908Z</time></trkpt><trkpt lat="39.89080743838937" lon="9.52120286396976"><ele>782.6666666666667</ele><time>2026-04-28T12:47:11.908Z</time></trkpt><trkpt lat="39.89068358465425" lon="9.521079224637829"><ele>786.0</ele><time>2026-04-28T12:47:12.908Z</time></trkpt><trkpt lat="39.89059290575447" lon="9.520940646423501"><ele>786.0</ele><time>2026-04-28T12:47:13.908Z</time></trkpt><trkpt lat="39.890577300888424" lon="9.52076720074431"><ele>786.0</ele><time>2026-04-28T12:47:14.908Z</time></trkpt><trkpt lat="39.890588716746244" lon="9.52063424437861"><ele>786.0</ele><time>2026-04-28T12:47:15.908Z</time></trkpt><trkpt lat="39.89055670564643" lon="9.52047649689939"><ele>786.0</ele><time>2026-04-28T12:47:16.908Z</time></trkpt><trkpt lat="39.89045443421912" lon="9.52038359257266"><ele>786.0</ele><time>2026-04-28T12:47:17.908Z</time></trkpt><trkpt lat="39.89031233662753" lon="9.520390007031255"><ele>786.0</ele><time>2026-04-28T12:47:18.908Z</time></trkpt><trkpt lat="39.89016917841477" lon="9.520491159293218"><ele>786.0</ele><time>2026-04-28T12:47:19.908Z</time></trkpt><trkpt lat="39.890074883499864" lon="9.52070265623526"><ele>786.0</ele><time>2026-04-28T12:47:20.908Z</time></trkpt><trkpt lat="39.890053928793826" lon="9.520943725237121"><ele>786.0</ele><time>2026-04-28T12:47:21.908Z</time></trkpt><trkpt lat="39.89003338257457" lon="9.521176140424696"><ele>786.0</ele><time>2026-04-28T12:47:22.908Z</time></trkpt><trkpt lat="39.889992071469386" lon="9.5214170522112"><ele>780.6666666666667</ele><time>2026-04-28T12:47:23.908Z</time></trkpt><trkpt lat="39.88995977652985" lon="9.521659220008688"><ele>775.3333333333334</ele><time>2026-04-28T12:47:24.907Z</time></trkpt><trkpt lat="39.889917596920895" lon="9.521891813856554"><ele>770.0</ele><time>2026-04-28T12:47:25.907Z</time></trkpt><trkpt lat="39.889860966122164" lon="9.522111457076162"><ele>763.3333333333334</ele><time>2026-04-28T12:47:26.907Z</time></trkpt><trkpt lat="39.88974134495856" lon="9.522332395399353"><ele>756.6666666666667</ele><time>2026-04-28T12:47:27.907Z</time></trkpt><trkpt lat="39.88962281332809" lon="9.52254361645875"><ele>750.0</ele><time>2026-04-28T12:47:28.907Z</time></trkpt><trkpt lat="39.88952037035897" lon="9.522778005202586"><ele>750.3333333333334</ele><time>2026-04-28T12:47:29.907Z</time></trkpt><trkpt lat="39.8894608117295" lon="9.523017956885942"><ele>750.6666666666667</ele><time>2026-04-28T12:47:30.907Z</time></trkpt><trkpt lat="39.889375123237606" lon="9.523218375133682"><ele>751.0</ele><time>2026-04-28T12:47:31.907Z</time></trkpt><trkpt lat="39.88923610229669" lon="9.523378473816361"><ele>751.0</ele><time>2026-04-28T12:47:32.907Z</time></trkpt><trkpt lat="39.889067456120266" lon="9.523518046004073"><ele>751.0</ele><time>2026-04-28T12:47:33.907Z</time></trkpt><trkpt lat="39.88888200345468" lon="9.523649635160288"><ele>751.0</ele><time>2026-04-28T12:47:34.907Z</time></trkpt><trkpt lat="39.88869261528608" lon="9.523786244296991"><ele>747.0</ele><time>2026-04-28T12:47:35.907Z</time></trkpt><trkpt lat="39.88850059646891" lon="9.523918348583996"><ele>743.0</ele><time>2026-04-28T12:47:36.907Z</time></trkpt><trkpt lat="39.888311323540066" lon="9.524033496326945"><ele>739.0</ele><time>2026-04-28T12:47:37.907Z</time></trkpt><trkpt lat="39.888120588633505" lon="9.524108699842571"><ele>739.0</ele><time>2026-04-28T12:47:38.907Z</time></trkpt><trkpt lat="39.88793662848125" lon="9.524154120918569"><ele>739.0</ele><time>2026-04-28T12:47:39.907Z</time></trkpt><trkpt lat="39.88777638492377" lon="9.52419524149978"><ele>739.0</ele><time>2026-04-28T12:47:40.907Z</time></trkpt><trkpt lat="39.887645890384334" lon="9.524265856817982"><ele>740.0</ele><time>2026-04-28T12:47:41.907Z</time></trkpt><trkpt lat="39.88757050100005" lon="9.524384857723923"><ele>741.0</ele><time>2026-04-28T12:47:42.907Z</time></trkpt><trkpt lat="39.887581388430874" lon="9.524580574653852"><ele>742.0</ele><time>2026-04-28T12:47:43.907Z</time></trkpt><trkpt lat="39.88764092410924" lon="9.524807375386667"><ele>735.0</ele><time>2026-04-28T12:47:44.907Z</time></trkpt><trkpt lat="39.88770933000412" lon="9.525050971718528"><ele>728.0</ele><time>2026-04-28T12:47:45.907Z</time></trkpt><trkpt lat="39.88775012545918" lon="9.525277169576881"><ele>721.0</ele><time>2026-04-28T12:47:46.907Z</time></trkpt><trkpt lat="39.88781111508188" lon="9.525494911693288"><ele>719.6666666666667</ele><time>2026-04-28T12:47:47.907Z</time></trkpt><trkpt lat="39.88794817749617" lon="9.525666825951719"><ele>718.3333333333334</ele><time>2026-04-28T12:47:48.907Z</time></trkpt><trkpt lat="39.88810724655776" lon="9.525796425652194"><ele>717.0</ele><time>2026-04-28T12:47:49.907Z</time></trkpt><trkpt lat="39.888177966366584" lon="9.525939706470558"><ele>717.0</ele><time>2026-04-28T12:47:50.907Z</time></trkpt><trkpt lat="39.88813894371663" lon="9.526100785611806"><ele>717.0</ele><time>2026-04-28T12:47:51.907Z</time></trkpt><trkpt lat="39.888084667979165" lon="9.5263228140935"><ele>717.0</ele><time>2026-04-28T12:47:52.907Z</time></trkpt><trkpt lat="39.888023530157916" lon="9.526568445777006"><ele>713.3333333333334</ele><time>2026-04-28T12:47:53.907Z</time></trkpt><trkpt lat="39.887957677240685" lon="9.526796871575852"><ele>709.6666666666667</ele><time>2026-04-28T12:47:54.907Z</time></trkpt><trkpt lat="39.887872082340465" lon="9.52701336310809"><ele>706.0</ele><time>2026-04-28T12:47:55.907Z</time></trkpt><trkpt lat="39.88774531028152" lon="9.527198127356689"><ele>703.0</ele><time>2026-04-28T12:47:56.907Z</time></trkpt><trkpt lat="39.88762012716788" lon="9.527375998999883"><ele>700.0</ele><time>2026-04-28T12:47:57.907Z</time></trkpt><trkpt lat="39.887475564161775" lon="9.527567886570905"><ele>697.0</ele><time>2026-04-28T12:47:58.907Z</time></trkpt><trkpt lat="39.8873264200246" lon="9.527733373446543"><ele>697.6666666666667</ele><time>2026-04-28T12:47:59.907Z</time></trkpt><trkpt lat="39.887136222850124" lon="9.527874799547883"><ele>698.3333333333334</ele><time>2026-04-28T12:48:00.907Z</time></trkpt><trkpt lat="39.8869153677889" lon="9.527953650168811"><ele>699.0</ele><time>2026-04-28T12:48:01.907Z</time></trkpt><trkpt lat="39.886742973830586" lon="9.52798963448596"><ele>701.5</ele><time>2026-04-28T12:48:02.907Z</time></trkpt><trkpt lat="39.88656259061859" lon="9.528012764572988"><ele>704.0</ele><time>2026-04-28T12:48:03.907Z</time></trkpt><trkpt lat="39.886403767768634" lon="9.528049197002263"><ele>706.5</ele><time>2026-04-28T12:48:04.907Z</time></trkpt><trkpt lat="39.88633593590985" lon="9.528148857730939"><ele>709.0</ele><time>2026-04-28T12:48:05.907Z</time></trkpt><trkpt lat="39.886359358706926" lon="9.528273859688904"><ele>709.0</ele><time>2026-04-28T12:48:06.907Z</time></trkpt><trkpt lat="39.88644596408495" lon="9.528344468339103"><ele>709.0</ele><time>2026-04-28T12:48:07.907Z</time></trkpt><trkpt lat="39.88657885025268" lon="9.528323038574007"><ele>709.0</ele><time>2026-04-28T12:48:08.907Z</time></trkpt><trkpt lat="39.88674053893989" lon="9.528273096597358"><ele>709.0</ele><time>2026-04-28T12:48:09.907Z</time></trkpt><trkpt lat="39.88690248946413" lon="9.52823355315845"><ele>705.6666666666667</ele><time>2026-04-28T12:48:10.907Z</time></trkpt><trkpt lat="39.887079967149525" lon="9.52820221454003"><ele>702.3333333333334</ele><time>2026-04-28T12:48:11.907Z</time></trkpt><trkpt lat="39.88726333372474" lon="9.52817288869897"><ele>699.0</ele><time>2026-04-28T12:48:12.907Z</time></trkpt><trkpt lat="39.8874459916763" lon="9.528140752057515"><ele>696.0</ele><time>2026-04-28T12:48:13.907Z</time></trkpt><trkpt lat="39.88761779415497" lon="9.52809351552829"><ele>693.0</ele><time>2026-04-28T12:48:14.907Z</time></trkpt><trkpt lat="39.88777362065903" lon="9.528055279937117"><ele>690.0</ele><time>2026-04-28T12:48:15.907Z</time></trkpt><trkpt lat="39.88791475868867" lon="9.52807854654551"><ele>690.0</ele><time>2026-04-28T12:48:16.907Z</time></trkpt><trkpt lat="39.8880481172609" lon="9.528177196354289"><ele>690.0</ele><time>2026-04-28T12:48:17.907Z</time></trkpt><trkpt lat="39.888152762554796" lon="9.528351909508173"><ele>690.0</ele><time>2026-04-28T12:48:18.908Z</time></trkpt><trkpt lat="39.88822457278132" lon="9.528568991449621"><ele>688.3333333333334</ele><time>2026-04-28T12:48:19.907Z</time></trkpt><trkpt lat="39.88827048821123" lon="9.528821932924775"><ele>686.6666666666667</ele><time>2026-04-28T12:48:20.907Z</time></trkpt><trkpt lat="39.88831298441943" lon="9.529075481415934"><ele>685.0</ele><time>2026-04-28T12:48:21.908Z</time></trkpt><trkpt lat="39.88834853615934" lon="9.529305435499445"><ele>685.0</ele><time>2026-04-28T12:48:22.907Z</time></trkpt><trkpt lat="39.8883350384018" lon="9.5295104573215"><ele>685.0</ele><time>2026-04-28T12:48:23.907Z</time></trkpt><trkpt lat="39.888273771972024" lon="9.529676270959223"><ele>685.0</ele><time>2026-04-28T12:48:24.907Z</time></trkpt><trkpt lat="39.888152427619254" lon="9.529755378811533"><ele>685.0</ele><time>2026-04-28T12:48:25.908Z</time></trkpt><trkpt lat="39.888010984831965" lon="9.529718715635832"><ele>685.0</ele><time>2026-04-28T12:48:26.907Z</time></trkpt><trkpt lat="39.88787663116532" lon="9.529596205444978"><ele>685.0</ele><time>2026-04-28T12:48:27.907Z</time></trkpt><trkpt lat="39.88772396095613" lon="9.529446163121724"><ele>685.0</ele><time>2026-04-28T12:48:28.907Z</time></trkpt><trkpt lat="39.8875402714081" lon="9.529313286049739"><ele>685.6666666666667</ele><time>2026-04-28T12:48:29.907Z</time></trkpt><trkpt lat="39.88735669882953" lon="9.529213747472223"><ele>686.3333333333334</ele><time>2026-04-28T12:48:30.907Z</time></trkpt><trkpt lat="39.88719531626917" lon="9.529145459869225"><ele>687.0</ele><time>2026-04-28T12:48:31.907Z</time></trkpt><trkpt lat="39.88704404381588" lon="9.529137447542222"><ele>687.0</ele><time>2026-04-28T12:48:32.907Z</time></trkpt><trkpt lat="39.886892886586665" lon="9.529221106251082"><ele>687.0</ele><time>2026-04-28T12:48:33.907Z</time></trkpt><trkpt lat="39.88674205941898" lon="9.529368081674376"><ele>687.0</ele><time>2026-04-28T12:48:34.907Z</time></trkpt><trkpt lat="39.88658197256131" lon="9.529509965145671"><ele>681.3333333333334</ele><time>2026-04-28T12:48:35.907Z</time></trkpt><trkpt lat="39.88641716852546" lon="9.529650054176109"><ele>675.6666666666667</ele><time>2026-04-28T12:48:36.907Z</time></trkpt><trkpt lat="39.886261723980965" lon="9.52979154264497"><ele>670.0</ele><time>2026-04-28T12:48:37.907Z</time></trkpt><trkpt lat="39.886130612887456" lon="9.529970542629721"><ele>670.0</ele><time>2026-04-28T12:48:38.907Z</time></trkpt><trkpt lat="39.88601415740206" lon="9.530154251221916"><ele>670.0</ele><time>2026-04-28T12:48:39.907Z</time></trkpt><trkpt lat="39.885941276656716" lon="9.530382632093046"><ele>670.0</ele><time>2026-04-28T12:48:40.907Z</time></trkpt><trkpt lat="39.88587749402049" lon="9.530577588792084"><ele>667.75</ele><time>2026-04-28T12:48:41.907Z</time></trkpt><trkpt lat="39.88581981778037" lon="9.5307532756972"><ele>665.5</ele><time>2026-04-28T12:48:42.907Z</time></trkpt><trkpt lat="39.88576524044542" lon="9.53090759811287"><ele>663.25</ele><time>2026-04-28T12:48:43.907Z</time></trkpt><trkpt lat="39.88571070404045" lon="9.531027756578458"><ele>661.0</ele><time>2026-04-28T12:48:44.907Z</time></trkpt><trkpt lat="39.88565244325234" lon="9.531104778875722"><ele>661.0</ele><time>2026-04-28T12:48:45.907Z</time></trkpt><trkpt lat="39.885516783426695" lon="9.531122610266223"><ele>661.0</ele><time>2026-04-28T12:48:47.907Z</time></trkpt><trkpt lat="39.88542221503621" lon="9.531075792728295"><ele>661.0</ele><time>2026-04-28T12:48:48.907Z</time></trkpt><trkpt lat="39.885314675266635" lon="9.531026790888811"><ele>661.0</ele><time>2026-04-28T12:48:49.907Z</time></trkpt><trkpt lat="39.88520318747895" lon="9.530986592264258"><ele>661.5999999999999</ele><time>2026-04-28T12:48:50.907Z</time></trkpt><trkpt lat="39.88508909403568" lon="9.530953628788765"><ele>662.2</ele><time>2026-04-28T12:48:51.907Z</time></trkpt><trkpt lat="39.88497991845957" lon="9.530932203189005"><ele>662.8</ele><time>2026-04-28T12:48:52.907Z</time></trkpt><trkpt lat="39.884873854784274" lon="9.53094583877661"><ele>663.4000000000001</ele><time>2026-04-28T12:48:53.907Z</time></trkpt><trkpt lat="39.88479312214497" lon="9.531024378000476"><ele>664.0</ele><time>2026-04-28T12:48:54.907Z</time></trkpt><trkpt lat="39.8847205886222" lon="9.531137696761014"><ele>664.0</ele><time>2026-04-28T12:48:55.907Z</time></trkpt><trkpt lat="39.88463541784958" lon="9.53122348651915"><ele>664.0</ele><time>2026-04-28T12:48:56.907Z</time></trkpt><trkpt lat="39.88454192552747" lon="9.53128234331198"><ele>664.0</ele><time>2026-04-28T12:48:57.907Z</time></trkpt><trkpt lat="39.88444208123868" lon="9.531333522694641"><ele>664.0</ele><time>2026-04-28T12:48:58.907Z</time></trkpt><trkpt lat="39.88433788670676" lon="9.531385808600309"><ele>664.0</ele><time>2026-04-28T12:48:59.907Z</time></trkpt><trkpt lat="39.884227513154094" lon="9.531445616457034"><ele>660.6</ele><time>2026-04-28T12:49:00.907Z</time></trkpt><trkpt lat="39.88411722950895" lon="9.531497181454904"><ele>657.2</ele><time>2026-04-28T12:49:01.907Z</time></trkpt><trkpt lat="39.88400387734086" lon="9.531517211972643"><ele>653.8000000000001</ele><time>2026-04-28T12:49:02.907Z</time></trkpt><trkpt lat="39.88389592868062" lon="9.531516805622566"><ele>650.4000000000001</ele><time>2026-04-28T12:49:03.907Z</time></trkpt><trkpt lat="39.88380213128057" lon="9.531540902509198"><ele>647.0</ele><time>2026-04-28T12:49:04.907Z</time></trkpt><trkpt lat="39.883726465414725" lon="9.53163373447191"><ele>647.0</ele><time>2026-04-28T12:49:05.907Z</time></trkpt><trkpt lat="39.88367032209731" lon="9.53176103563831"><ele>647.0</ele><time>2026-04-28T12:49:06.907Z</time></trkpt><trkpt lat="39.88360206487618" lon="9.531877394662978"><ele>647.0</ele><time>2026-04-28T12:49:07.907Z</time></trkpt><trkpt lat="39.8835097517835" lon="9.53196229163271"><ele>647.0</ele><time>2026-04-28T12:49:08.907Z</time></trkpt><trkpt lat="39.88340080548711" lon="9.532021638334038"><ele>644.6</ele><time>2026-04-28T12:49:09.907Z</time></trkpt><trkpt lat="39.883285126757684" lon="9.532066105900796"><ele>642.2</ele><time>2026-04-28T12:49:10.907Z</time></trkpt><trkpt lat="39.88318466728092" lon="9.532132211625132"><ele>639.8</ele><time>2026-04-28T12:49:11.907Z</time></trkpt><trkpt lat="39.88309856146682" lon="9.532219980580505"><ele>637.4</ele><time>2026-04-28T12:49:12.907Z</time></trkpt><trkpt lat="39.88302152023814" lon="9.532309779057478"><ele>635.0</ele><time>2026-04-28T12:49:13.907Z</time></trkpt><trkpt lat="39.88293769812522" lon="9.532387270170569"><ele>635.0</ele><time>2026-04-28T12:49:14.907Z</time></trkpt><trkpt lat="39.88284175065422" lon="9.532426784373753"><ele>635.0</ele><time>2026-04-28T12:49:15.907Z</time></trkpt><trkpt lat="39.88275098890363" lon="9.53240908970988"><ele>635.0</ele><time>2026-04-28T12:49:16.907Z</time></trkpt><trkpt lat="39.88267345204798" lon="9.532374147331527"><ele>635.0</ele><time>2026-04-28T12:49:17.907Z</time></trkpt><trkpt lat="39.8826013189272" lon="9.532351179853285"><ele>635.0</ele><time>2026-04-28T12:49:18.907Z</time></trkpt><trkpt lat="39.8825352660643" lon="9.532337693261466"><ele>635.0</ele><time>2026-04-28T12:49:19.907Z</time></trkpt><trkpt lat="39.88246581714553" lon="9.532353459263001"><ele>633.8333333333333</ele><time>2026-04-28T12:49:20.907Z</time></trkpt><trkpt lat="39.882391801767206" lon="9.532404491157997"><ele>632.6666666666666</ele><time>2026-04-28T12:49:21.907Z</time></trkpt><trkpt lat="39.882335962808895" lon="9.53248359267615"><ele>631.5</ele><time>2026-04-28T12:49:22.907Z</time></trkpt><trkpt lat="39.8822985122586" lon="9.532591597804771"><ele>630.3333333333334</ele><time>2026-04-28T12:49:23.907Z</time></trkpt><trkpt lat="39.882295419591856" lon="9.532697192347367"><ele>629.1666666666667</ele><time>2026-04-28T12:49:24.907Z</time></trkpt><trkpt lat="39.88228902931863" lon="9.532813286186913"><ele>628.0</ele><time>2026-04-28T12:49:25.907Z</time></trkpt><trkpt lat="39.88228141319142" lon="9.532926413372797"><ele>628.0</ele><time>2026-04-28T12:49:26.907Z</time></trkpt><trkpt lat="39.88227480989444" lon="9.533023280847923"><ele>628.0</ele><time>2026-04-28T12:49:27.906Z</time></trkpt><trkpt lat="39.882264838365586" lon="9.533123148878273"><ele>628.0</ele><time>2026-04-28T12:49:28.906Z</time></trkpt><trkpt lat="39.88225829611193" lon="9.533224173414263"><ele>628.0</ele><time>2026-04-28T12:49:29.906Z</time></trkpt><trkpt lat="39.88225564137776" lon="9.533330328684926"><ele>628.0</ele><time>2026-04-28T12:49:30.906Z</time></trkpt><trkpt lat="39.882250737510795" lon="9.533434964737152"><ele>628.0</ele><time>2026-04-28T12:49:31.906Z</time></trkpt><trkpt lat="39.88224176486449" lon="9.533532303393509"><ele>627.9999999999999</ele><time>2026-04-28T12:49:32.906Z</time></trkpt><trkpt lat="39.88222045142138" lon="9.533624407971088"><ele>628.0</ele><time>2026-04-28T12:49:33.906Z</time></trkpt><trkpt lat="39.882198942404884" lon="9.533713743812012"><ele>628.0</ele><time>2026-04-28T12:49:34.906Z</time></trkpt><trkpt lat="39.88216026649464" lon="9.533793005642147"><ele>628.0</ele><time>2026-04-28T12:49:35.906Z</time></trkpt><trkpt lat="39.88210794467127" lon="9.533870777023074"><ele>628.0</ele><time>2026-04-28T12:49:36.906Z</time></trkpt><trkpt lat="39.88205629003833" lon="9.53394307935933"><ele>627.9999999999999</ele><time>2026-04-28T12:49:37.906Z</time></trkpt><trkpt lat="39.88200197760128" lon="9.534013129283082"><ele>628.0</ele><time>2026-04-28T12:49:38.906Z</time></trkpt><trkpt lat="39.88194494685829" lon="9.53407643796821"><ele>625.9999999999999</ele><time>2026-04-28T12:49:39.906Z</time></trkpt><trkpt lat="39.881883924698464" lon="9.534137941450343"><ele>624.0</ele><time>2026-04-28T12:49:40.906Z</time></trkpt><trkpt lat="39.88182888584326" lon="9.534197432160179"><ele>622.0</ele><time>2026-04-28T12:49:41.906Z</time></trkpt><trkpt lat="39.8817793588164" lon="9.534260555186608"><ele>620.0</ele><time>2026-04-28T12:49:42.906Z</time></trkpt><trkpt lat="39.8817291429186" lon="9.534327917663994"><ele>618.0</ele><time>2026-04-28T12:49:43.906Z</time></trkpt><trkpt lat="39.8816803306377" lon="9.534396063918868"><ele>615.9999999999999</ele><time>2026-04-28T12:49:44.906Z</time></trkpt><trkpt lat="39.88164278800578" lon="9.534470665950408"><ele>614.0</ele><time>2026-04-28T12:49:45.906Z</time></trkpt><trkpt lat="39.881595845686824" lon="9.53453602559639"><ele>614.5</ele><time>2026-04-28T12:49:46.906Z</time></trkpt><trkpt lat="39.8815430019535" lon="9.534609212407501"><ele>615.0</ele><time>2026-04-28T12:49:47.906Z</time></trkpt><trkpt lat="39.88148862539903" lon="9.534682567427648"><ele>615.5</ele><time>2026-04-28T12:49:48.906Z</time></trkpt><trkpt lat="39.88142771226351" lon="9.53476916637256"><ele>616.0</ele><time>2026-04-28T12:49:49.906Z</time></trkpt><trkpt lat="39.88136614662271" lon="9.534859662310696"><ele>616.5</ele><time>2026-04-28T12:49:50.906Z</time></trkpt><trkpt lat="39.88129956378334" lon="9.534941042224098"><ele>617.0</ele><time>2026-04-28T12:49:51.906Z</time></trkpt><trkpt lat="39.881231118601136" lon="9.535024878798575"><ele>617.0</ele><time>2026-04-28T12:49:52.906Z</time></trkpt><trkpt lat="39.88116151037859" lon="9.535107939066892"><ele>617.0</ele><time>2026-04-28T12:49:53.906Z</time></trkpt><trkpt lat="39.88109801394357" lon="9.535197982653099"><ele>617.0</ele><time>2026-04-28T12:49:54.906Z</time></trkpt><trkpt lat="39.88104134270721" lon="9.53528927683675"><ele>617.0</ele><time>2026-04-28T12:49:55.906Z</time></trkpt><trkpt lat="39.880983570260845" lon="9.535383947223664"><ele>617.0</ele><time>2026-04-28T12:49:56.906Z</time></trkpt><trkpt lat="39.88092416021361" lon="9.535469543130276"><ele>617.1666666666666</ele><time>2026-04-28T12:49:57.906Z</time></trkpt><trkpt lat="39.88087243791443" lon="9.535548579316597"><ele>617.3333333333333</ele><time>2026-04-28T12:49:58.906Z</time></trkpt><trkpt lat="39.880827574411036" lon="9.535616893254101"><ele>617.5</ele><time>2026-04-28T12:49:59.906Z</time></trkpt><trkpt lat="39.88076839560672" lon="9.535657271414346"><ele>617.6666666666666</ele><time>2026-04-28T12:50:00.906Z</time></trkpt><trkpt lat="39.88066079147297" lon="9.535679158371446"><ele>617.8333333333334</ele><time>2026-04-28T12:50:02.906Z</time></trkpt><trkpt lat="39.880547701084716" lon="9.535708451363227"><ele>618.0</ele><time>2026-04-28T12:50:04.906Z</time></trkpt><trkpt lat="39.880434702775716" lon="9.535750607825864"><ele>618.0000000000001</ele><time>2026-04-28T12:50:06.906Z</time></trkpt><trkpt lat="39.8803722480605" lon="9.535796998140784"><ele>618.0</ele><time>2026-04-28T12:50:07.906Z</time></trkpt><trkpt lat="39.88032709523578" lon="9.535872394885228"><ele>618.0</ele><time>2026-04-28T12:50:08.906Z</time></trkpt><trkpt lat="39.8802869924488" lon="9.535942681580917"><ele>618.0</ele><time>2026-04-28T12:50:09.906Z</time></trkpt><trkpt lat="39.88024359923136" lon="9.536020186041023"><ele>618.0</ele><time>2026-04-28T12:50:10.906Z</time></trkpt><trkpt lat="39.88020416043067" lon="9.536093158814833"><ele>618.0000000000001</ele><time>2026-04-28T12:50:11.906Z</time></trkpt><trkpt lat="39.88016924034938" lon="9.536169047401826"><ele>618.0</ele><time>2026-04-28T12:50:12.906Z</time></trkpt><trkpt lat="39.88015209376841" lon="9.536260473438112"><ele>613.8</ele><time>2026-04-28T12:50:13.906Z</time></trkpt><trkpt lat="39.88013981160457" lon="9.536376085158231"><ele>609.5999999999999</ele><time>2026-04-28T12:50:14.906Z</time></trkpt><trkpt lat="39.880141301975165" lon="9.536502627127666"><ele>605.4000000000001</ele><time>2026-04-28T12:50:15.906Z</time></trkpt><trkpt lat="39.88013978097153" lon="9.536615197925494"><ele>601.2</ele><time>2026-04-28T12:50:16.906Z</time></trkpt><trkpt lat="39.880148713988085" lon="9.536731451680028"><ele>597.0</ele><time>2026-04-28T12:50:17.906Z</time></trkpt><trkpt lat="39.88015448188479" lon="9.536848713971692"><ele>597.0</ele><time>2026-04-28T12:50:18.906Z</time></trkpt><trkpt lat="39.88017846103269" lon="9.536971300236972"><ele>597.0</ele><time>2026-04-28T12:50:19.906Z</time></trkpt><trkpt lat="39.88019439118263" lon="9.537112779146407"><ele>597.0</ele><time>2026-04-28T12:50:20.906Z</time></trkpt><trkpt lat="39.880189749985526" lon="9.53725328539295"><ele>597.0</ele><time>2026-04-28T12:50:21.906Z</time></trkpt><trkpt lat="39.88016627689965" lon="9.537382141389141"><ele>597.0</ele><time>2026-04-28T12:50:22.906Z</time></trkpt><trkpt lat="39.880130646211605" lon="9.53749446969379"><ele>597.6666666666666</ele><time>2026-04-28T12:50:23.906Z</time></trkpt><trkpt lat="39.88007885483536" lon="9.537595717659196"><ele>598.3333333333334</ele><time>2026-04-28T12:50:24.907Z</time></trkpt><trkpt lat="39.88004201586145" lon="9.537696498608309"><ele>599.0</ele><time>2026-04-28T12:50:25.907Z</time></trkpt><trkpt lat="39.8800013321616" lon="9.537803312314724"><ele>599.6666666666667</ele><time>2026-04-28T12:50:26.907Z</time></trkpt><trkpt lat="39.879959080617034" lon="9.537906911883546"><ele>600.3333333333334</ele><time>2026-04-28T12:50:27.907Z</time></trkpt><trkpt lat="39.87991586970407" lon="9.538007348558878"><ele>601.0</ele><time>2026-04-28T12:50:28.906Z</time></trkpt><trkpt lat="39.87987090690304" lon="9.538106174346993"><ele>601.0</ele><time>2026-04-28T12:50:29.906Z</time></trkpt><trkpt lat="39.879828769488455" lon="9.538211820244937"><ele>601.0</ele><time>2026-04-28T12:50:30.907Z</time></trkpt><trkpt lat="39.87978832727592" lon="9.538324321969435"><ele>601.0</ele><time>2026-04-28T12:50:31.906Z</time></trkpt><trkpt lat="39.87974676228964" lon="9.538437728071953"><ele>601.0</ele><time>2026-04-28T12:50:32.906Z</time></trkpt><trkpt lat="39.87971032563297" lon="9.538553841234352"><ele>601.0</ele><time>2026-04-28T12:50:33.907Z</time></trkpt><trkpt lat="39.87967781211948" lon="9.53866649101396"><ele>599.6666666666667</ele><time>2026-04-28T12:50:34.907Z</time></trkpt><trkpt lat="39.87964562609384" lon="9.538775977053985"><ele>598.3333333333334</ele><time>2026-04-28T12:50:35.907Z</time></trkpt><trkpt lat="39.87961933996115" lon="9.538876322223913"><ele>597.0</ele><time>2026-04-28T12:50:36.907Z</time></trkpt><trkpt lat="39.879617890901585" lon="9.538958640015347"><ele>595.6666666666666</ele><time>2026-04-28T12:50:37.907Z</time></trkpt><trkpt lat="39.87965125390099" lon="9.53904900111702"><ele>594.3333333333333</ele><time>2026-04-28T12:50:39.907Z</time></trkpt><trkpt lat="39.8796749760128" lon="9.53912559595918"><ele>593.0</ele><time>2026-04-28T12:50:42.907Z</time></trkpt><trkpt lat="39.87958370178311" lon="9.539314670172061"><ele>592.9999999999999</ele><time>2026-04-28T12:57:27.905Z</time></trkpt><trkpt lat="39.87953860773886" lon="9.539401772871576"><ele>593.0</ele><time>2026-04-28T12:57:31.905Z</time></trkpt><trkpt lat="39.87951692655396" lon="9.539484226067934"><ele>593.0</ele><time>2026-04-28T12:57:33.905Z</time></trkpt><trkpt lat="39.87950689657511" lon="9.539575537773661"><ele>593.0</ele><time>2026-04-28T12:57:35.905Z</time></trkpt><trkpt lat="39.879506773887634" lon="9.539666599128868"><ele>593.0</ele><time>2026-04-28T12:57:37.905Z</time></trkpt><trkpt lat="39.879509293125885" lon="9.539769965396003"><ele>592.9999999999999</ele><time>2026-04-28T12:57:39.905Z</time></trkpt><trkpt lat="39.8794949224378" lon="9.539863561204442"><ele>593.0</ele><time>2026-04-28T12:57:41.905Z</time></trkpt><trkpt lat="39.87945716598529" lon="9.539932227948773"><ele>591.8</ele><time>2026-04-28T12:57:43.905Z</time></trkpt><trkpt lat="39.87938739942857" lon="9.539995108678209"><ele>590.5999999999999</ele><time>2026-04-28T12:57:45.905Z</time></trkpt><trkpt lat="39.87933601448184" lon="9.540058151327901"><ele>589.4000000000001</ele><time>2026-04-28T12:57:47.905Z</time></trkpt><trkpt lat="39.87926857220742" lon="9.540113902609006"><ele>588.2</ele><time>2026-04-28T12:57:49.905Z</time></trkpt><trkpt lat="39.87918034216592" lon="9.540176227816195"><ele>587.0</ele><time>2026-04-28T12:57:51.905Z</time></trkpt><trkpt lat="39.87905979343749" lon="9.54027006349874"><ele>590.0</ele><time>2026-04-28T12:57:54.905Z</time></trkpt><trkpt lat="39.87905754648257" lon="9.54042559569138"><ele>593.0</ele><time>2026-04-28T12:57:56.905Z</time></trkpt><trkpt lat="39.879089910036726" lon="9.540509718301148"><ele>596.0</ele><time>2026-04-28T12:57:57.905Z</time></trkpt><trkpt lat="39.87911503502984" lon="9.540642810832548"><ele>599.0</ele><time>2026-04-28T12:57:59.904Z</time></trkpt><trkpt lat="39.879163364310095" lon="9.540760630279431"><ele>602.0</ele><time>2026-04-28T12:58:01.904Z</time></trkpt><trkpt lat="39.879200975940535" lon="9.540828915790064"><ele>602.0</ele><time>2026-04-28T12:58:02.904Z</time></trkpt><trkpt lat="39.87924781926735" lon="9.540946908719429"><ele>602.0</ele><time>2026-04-28T12:58:04.904Z</time></trkpt><trkpt lat="39.87928886041799" lon="9.541059338835998"><ele>602.0</ele><time>2026-04-28T12:58:06.904Z</time></trkpt><trkpt lat="39.879323609871484" lon="9.541155162036858"><ele>602.0</ele><time>2026-04-28T12:58:08.904Z</time></trkpt><trkpt lat="39.8793464047495" lon="9.541268478982461"><ele>602.0</ele><time>2026-04-28T12:58:10.904Z</time></trkpt><trkpt lat="39.87940631782167" lon="9.54136600940531"><ele>600.5</ele><time>2026-04-28T12:58:12.904Z</time></trkpt><trkpt lat="39.87944784073585" lon="9.541471542694406"><ele>599.0</ele><time>2026-04-28T12:58:14.904Z</time></trkpt><trkpt lat="39.879485010276866" lon="9.541580286760803"><ele>597.5</ele><time>2026-04-28T12:58:16.904Z</time></trkpt><trkpt lat="39.879523827746894" lon="9.541649189009886"><ele>596.0</ele><time>2026-04-28T12:58:18.904Z</time></trkpt><trkpt lat="39.87956042804747" lon="9.541734392349204"><ele>594.5</ele><time>2026-04-28T12:58:20.904Z</time></trkpt><trkpt lat="39.87960092892613" lon="9.541815451349446"><ele>593.0</ele><time>2026-04-28T12:58:23.904Z</time></trkpt><trkpt lat="39.879669704975164" lon="9.541870261547235"><ele>593.0</ele><time>2026-04-28T12:58:33.904Z</time></trkpt><trkpt lat="39.879740640595784" lon="9.541849693943039"><ele>593.0</ele><time>2026-04-28T12:58:35.904Z</time></trkpt><trkpt lat="39.879867137259104" lon="9.541782199784048"><ele>593.0</ele><time>2026-04-28T12:58:37.904Z</time></trkpt><trkpt lat="39.879973566752184" lon="9.541740804955285"><ele>593.0</ele><time>2026-04-28T12:58:39.904Z</time></trkpt><trkpt lat="39.880047344548146" lon="9.541685700558752"><ele>593.0</ele><time>2026-04-28T12:58:41.904Z</time></trkpt><trkpt lat="39.88013798632941" lon="9.541605474852656"><ele>590.0</ele><time>2026-04-28T12:58:43.904Z</time></trkpt><trkpt lat="39.88022789680608" lon="9.54150058062354"><ele>587.0</ele><time>2026-04-28T12:58:45.904Z</time></trkpt><trkpt lat="39.88032582533227" lon="9.54140266126021"><ele>584.0</ele><time>2026-04-28T12:58:47.904Z</time></trkpt><trkpt lat="39.88041707019171" lon="9.541289554466701"><ele>581.0</ele><time>2026-04-28T12:58:49.905Z</time></trkpt><trkpt lat="39.88046073744679" lon="9.541221878624208"><ele>578.0</ele><time>2026-04-28T12:58:50.905Z</time></trkpt><trkpt lat="39.88051057642144" lon="9.54114576970639"><ele>578.0</ele><time>2026-04-28T12:58:51.905Z</time></trkpt><trkpt lat="39.88054782257059" lon="9.541062640871036"><ele>578.0</ele><time>2026-04-28T12:58:52.905Z</time></trkpt><trkpt lat="39.88056155986562" lon="9.540968773265844"><ele>578.0</ele><time>2026-04-28T12:58:53.905Z</time></trkpt><trkpt lat="39.88049903396238" lon="9.540825060638229"><ele>578.0</ele><time>2026-04-28T12:58:55.904Z</time></trkpt><trkpt lat="39.88042248624929" lon="9.540784828547787"><ele>578.0</ele><time>2026-04-28T12:58:56.904Z</time></trkpt><trkpt lat="39.88034365002104" lon="9.540786234689074"><ele>578.0</ele><time>2026-04-28T12:58:57.905Z</time></trkpt><trkpt lat="39.88026298631127" lon="9.540802715723002"><ele>578.0</ele><time>2026-04-28T12:58:58.905Z</time></trkpt><trkpt lat="39.88017389332103" lon="9.540792807334931"><ele>578.0</ele><time>2026-04-28T12:58:59.905Z</time></trkpt><trkpt lat="39.880092634538684" lon="9.540790953853588"><ele>578.0</ele><time>2026-04-28T12:59:00.904Z</time></trkpt><trkpt lat="39.88001944831815" lon="9.540779441897094"><ele>578.0</ele><time>2026-04-28T12:59:01.904Z</time></trkpt><trkpt lat="39.87995213982052" lon="9.540748079635447"><ele>578.0</ele><time>2026-04-28T12:59:02.904Z</time></trkpt><trkpt lat="39.87985755843665" lon="9.540629639689186"><ele>578.0</ele><time>2026-04-28T12:59:04.904Z</time></trkpt><trkpt lat="39.879840992089555" lon="9.540544783140517"><ele>577.1666666666666</ele><time>2026-04-28T12:59:05.904Z</time></trkpt><trkpt lat="39.87985655352819" lon="9.54045231801949"><ele>576.3333333333333</ele><time>2026-04-28T12:59:06.904Z</time></trkpt><trkpt lat="39.879913927275716" lon="9.540371004822061"><ele>575.5</ele><time>2026-04-28T12:59:07.904Z</time></trkpt><trkpt lat="39.8799669746768" lon="9.540288025961353"><ele>574.6666666666666</ele><time>2026-04-28T12:59:08.904Z</time></trkpt><trkpt lat="39.88002194375477" lon="9.540182768887817"><ele>573.8333333333334</ele><time>2026-04-28T12:59:09.904Z</time></trkpt><trkpt lat="39.88008372613966" lon="9.540086600235425"><ele>573.0</ele><time>2026-04-28T12:59:10.904Z</time></trkpt><trkpt lat="39.88013099880158" lon="9.539978243367571"><ele>573.0</ele><time>2026-04-28T12:59:11.904Z</time></trkpt><trkpt lat="39.8801909187947" lon="9.539873132039283"><ele>573.0</ele><time>2026-04-28T12:59:12.904Z</time></trkpt><trkpt lat="39.88025295717854" lon="9.53977389257136"><ele>573.0</ele><time>2026-04-28T12:59:13.904Z</time></trkpt><trkpt lat="39.8803136826928" lon="9.539666642672845"><ele>573.0</ele><time>2026-04-28T12:59:14.904Z</time></trkpt><trkpt lat="39.88037216697047" lon="9.539557425622085"><ele>573.0</ele><time>2026-04-28T12:59:15.904Z</time></trkpt><trkpt lat="39.880425196333434" lon="9.539440726954197"><ele>571.6</ele><time>2026-04-28T12:59:16.904Z</time></trkpt><trkpt lat="39.88047404957493" lon="9.539319190516686"><ele>570.1999999999999</ele><time>2026-04-28T12:59:17.904Z</time></trkpt><trkpt lat="39.88052231247485" lon="9.539199645971552"><ele>568.8</ele><time>2026-04-28T12:59:18.904Z</time></trkpt><trkpt lat="39.880561937682515" lon="9.53907267120124"><ele>567.4</ele><time>2026-04-28T12:59:19.904Z</time></trkpt><trkpt lat="39.880602914900706" lon="9.538943393335689"><ele>566.0</ele><time>2026-04-28T12:59:20.904Z</time></trkpt><trkpt lat="39.88066085931758" lon="9.538823398553147"><ele>566.0</ele><time>2026-04-28T12:59:21.904Z</time></trkpt><trkpt lat="39.880751047563784" lon="9.53872876460175"><ele>566.0</ele><time>2026-04-28T12:59:22.904Z</time></trkpt><trkpt lat="39.88085673578627" lon="9.538671438717262"><ele>566.0</ele><time>2026-04-28T12:59:23.904Z</time></trkpt><trkpt lat="39.88096637774644" lon="9.538615526989767"><ele>566.0</ele><time>2026-04-28T12:59:24.904Z</time></trkpt><trkpt lat="39.881083373631455" lon="9.53854797667235"><ele>563.25</ele><time>2026-04-28T12:59:25.904Z</time></trkpt><trkpt lat="39.88119459998728" lon="9.53846265436476"><ele>560.5</ele><time>2026-04-28T12:59:26.904Z</time></trkpt><trkpt lat="39.881304224965795" lon="9.538370745099009"><ele>557.75</ele><time>2026-04-28T12:59:27.904Z</time></trkpt><trkpt lat="39.88140311825141" lon="9.538264818428075"><ele>555.0</ele><time>2026-04-28T12:59:28.904Z</time></trkpt><trkpt lat="39.88147927623277" lon="9.53814799273309"><ele>555.0</ele><time>2026-04-28T12:59:29.904Z</time></trkpt><trkpt lat="39.88154739908805" lon="9.538029181327904"><ele>555.0</ele><time>2026-04-28T12:59:30.904Z</time></trkpt><trkpt lat="39.8816369194362" lon="9.537914527422709"><ele>555.0</ele><time>2026-04-28T12:59:31.904Z</time></trkpt><trkpt lat="39.88174073506164" lon="9.537825150268823"><ele>555.0</ele><time>2026-04-28T12:59:32.904Z</time></trkpt><trkpt lat="39.88186316378791" lon="9.537760271051141"><ele>553.75</ele><time>2026-04-28T12:59:33.904Z</time></trkpt><trkpt lat="39.88199009641608" lon="9.53771039052291"><ele>552.5</ele><time>2026-04-28T12:59:34.904Z</time></trkpt><trkpt lat="39.8821225754714" lon="9.537655615248696"><ele>551.25</ele><time>2026-04-28T12:59:35.904Z</time></trkpt><trkpt lat="39.88224604904821" lon="9.537565353464469"><ele>550.0</ele><time>2026-04-28T12:59:36.904Z</time></trkpt><trkpt lat="39.88236146837369" lon="9.53745057545204"><ele>550.0</ele><time>2026-04-28T12:59:37.904Z</time></trkpt><trkpt lat="39.88247326503598" lon="9.53733402077862"><ele>550.0</ele><time>2026-04-28T12:59:38.904Z</time></trkpt><trkpt lat="39.88257890623283" lon="9.537237464898318"><ele>550.0</ele><time>2026-04-28T12:59:39.904Z</time></trkpt><trkpt lat="39.882707761356514" lon="9.537161263971594"><ele>550.0</ele><time>2026-04-28T12:59:40.904Z</time></trkpt><trkpt lat="39.88284725254629" lon="9.537114725811803"><ele>550.25</ele><time>2026-04-28T12:59:41.904Z</time></trkpt><trkpt lat="39.88298942982469" lon="9.53707507408178"><ele>550.5</ele><time>2026-04-28T12:59:42.904Z</time></trkpt><trkpt lat="39.88313435066606" lon="9.537031036712206"><ele>550.75</ele><time>2026-04-28T12:59:43.904Z</time></trkpt><trkpt lat="39.88327159864703" lon="9.536987611506676"><ele>551.0</ele><time>2026-04-28T12:59:44.904Z</time></trkpt><trkpt lat="39.88340887181323" lon="9.536954208481367"><ele>552.75</ele><time>2026-04-28T12:59:45.904Z</time></trkpt><trkpt lat="39.88354448843802" lon="9.536958649654368"><ele>554.5</ele><time>2026-04-28T12:59:46.904Z</time></trkpt><trkpt lat="39.88367815563813" lon="9.53701681306052"><ele>556.25</ele><time>2026-04-28T12:59:47.904Z</time></trkpt><trkpt lat="39.88379281574848" lon="9.537113488970137"><ele>558.0</ele><time>2026-04-28T12:59:48.904Z</time></trkpt><trkpt lat="39.88389233779234" lon="9.537237864718756"><ele>552.5</ele><time>2026-04-28T12:59:49.904Z</time></trkpt><trkpt lat="39.88397620821546" lon="9.53737620937494"><ele>547.0</ele><time>2026-04-28T12:59:50.904Z</time></trkpt><trkpt lat="39.88408112196164" lon="9.537499416270773"><ele>541.5</ele><time>2026-04-28T12:59:51.904Z</time></trkpt><trkpt lat="39.88420368860467" lon="9.537585422885941"><ele>536.0</ele><time>2026-04-28T12:59:52.904Z</time></trkpt><trkpt lat="39.884334472235" lon="9.537623604404159"><ele>535.0</ele><time>2026-04-28T12:59:53.904Z</time></trkpt><trkpt lat="39.88447823737441" lon="9.53762279414416"><ele>534.0</ele><time>2026-04-28T12:59:54.904Z</time></trkpt><trkpt lat="39.884614280774706" lon="9.537591808233351"><ele>533.0</ele><time>2026-04-28T12:59:55.904Z</time></trkpt><trkpt lat="39.884749338081434" lon="9.537562723592972"><ele>532.0</ele><time>2026-04-28T12:59:56.904Z</time></trkpt><trkpt lat="39.8848816195211" lon="9.537545294547488"><ele>532.0</ele><time>2026-04-28T12:59:57.904Z</time></trkpt><trkpt lat="39.88501473186811" lon="9.537520139793104"><ele>532.0</ele><time>2026-04-28T12:59:58.904Z</time></trkpt><trkpt lat="39.885144478251895" lon="9.53747739744006"><ele>532.0</ele><time>2026-04-28T12:59:59.904Z</time></trkpt><trkpt lat="39.885265367501965" lon="9.5374461107526"><ele>532.0</ele><time>2026-04-28T13:00:00.904Z</time></trkpt><trkpt lat="39.885367875315474" lon="9.53743447236955"><ele>531.6666666666667</ele><time>2026-04-28T13:00:01.904Z</time></trkpt><trkpt lat="39.885444827160796" lon="9.53747299547339"><ele>531.3333333333334</ele><time>2026-04-28T13:00:02.904Z</time></trkpt><trkpt lat="39.88549767655562" lon="9.537552593291212"><ele>531.0</ele><time>2026-04-28T13:00:03.904Z</time></trkpt><trkpt lat="39.88556284951874" lon="9.537679980986843"><ele>530.6666666666666</ele><time>2026-04-28T13:00:05.904Z</time></trkpt><trkpt lat="39.885608639813555" lon="9.53774647770159"><ele>530.3333333333333</ele><time>2026-04-28T13:00:06.903Z</time></trkpt><trkpt lat="39.88567016561875" lon="9.537814397424285"><ele>530.0</ele><time>2026-04-28T13:00:07.903Z</time></trkpt><trkpt lat="39.88573253662248" lon="9.537898061348292"><ele>528.4</ele><time>2026-04-28T13:00:08.903Z</time></trkpt><trkpt lat="39.885798171269286" lon="9.53798184208136"><ele>526.8</ele><time>2026-04-28T13:00:09.903Z</time></trkpt><trkpt lat="39.885871126140124" lon="9.538053204239564"><ele>525.2</ele><time>2026-04-28T13:00:10.903Z</time></trkpt><trkpt lat="39.88595935186617" lon="9.538088332042205"><ele>523.6</ele><time>2026-04-28T13:00:11.903Z</time></trkpt><trkpt lat="39.88605853417891" lon="9.53805135679786"><ele>522.0</ele><time>2026-04-28T13:00:12.903Z</time></trkpt><trkpt lat="39.88613489804101" lon="9.537960375159761"><ele>523.25</ele><time>2026-04-28T13:00:13.903Z</time></trkpt><trkpt lat="39.88620809853252" lon="9.537847917533442"><ele>524.5</ele><time>2026-04-28T13:00:14.903Z</time></trkpt><trkpt lat="39.886280282583144" lon="9.537725055180715"><ele>525.75</ele><time>2026-04-28T13:00:15.903Z</time></trkpt><trkpt lat="39.8863792617824" lon="9.537651569817386"><ele>527.0</ele><time>2026-04-28T13:00:16.903Z</time></trkpt><trkpt lat="39.88650112920449" lon="9.537622752162488"><ele>527.0</ele><time>2026-04-28T13:00:17.903Z</time></trkpt><trkpt lat="39.88662743363401" lon="9.5376518642476"><ele>527.0</ele><time>2026-04-28T13:00:18.903Z</time></trkpt><trkpt lat="39.88675078222063" lon="9.537695571657489"><ele>527.0</ele><time>2026-04-28T13:00:19.903Z</time></trkpt><trkpt lat="39.88688171427702" lon="9.537695517698833"><ele>527.0</ele><time>2026-04-28T13:00:20.903Z</time></trkpt><trkpt lat="39.88701280229983" lon="9.537645688885673"><ele>525.0</ele><time>2026-04-28T13:00:21.903Z</time></trkpt><trkpt lat="39.88712012142918" lon="9.537532314916307"><ele>523.0</ele><time>2026-04-28T13:00:22.903Z</time></trkpt><trkpt lat="39.88720982142919" lon="9.537401395329574"><ele>521.0</ele><time>2026-04-28T13:00:23.903Z</time></trkpt><trkpt lat="39.88730384616384" lon="9.53730713874774"><ele>519.0</ele><time>2026-04-28T13:00:24.903Z</time></trkpt><trkpt lat="39.88741444357277" lon="9.537286979888405"><ele>519.0</ele><time>2026-04-28T13:00:25.903Z</time></trkpt><trkpt lat="39.8875198202539" lon="9.53735520803981"><ele>519.0</ele><time>2026-04-28T13:00:26.903Z</time></trkpt><trkpt lat="39.887608219436395" lon="9.537475438338435"><ele>519.0</ele><time>2026-04-28T13:00:27.903Z</time></trkpt><trkpt lat="39.88767037555157" lon="9.537638885750367"><ele>519.0</ele><time>2026-04-28T13:00:28.903Z</time></trkpt><trkpt lat="39.887747287891735" lon="9.53779202871281"><ele>512.75</ele><time>2026-04-28T13:00:29.903Z</time></trkpt><trkpt lat="39.887868634691564" lon="9.53789300621501"><ele>506.5</ele><time>2026-04-28T13:00:30.903Z</time></trkpt><trkpt lat="39.888007096584744" lon="9.53793198021347"><ele>500.25</ele><time>2026-04-28T13:00:31.903Z</time></trkpt><trkpt lat="39.888153874582336" lon="9.537943929167891"><ele>494.0</ele><time>2026-04-28T13:00:32.903Z</time></trkpt><trkpt lat="39.88830991793986" lon="9.537942441888033"><ele>494.3333333333333</ele><time>2026-04-28T13:00:33.903Z</time></trkpt><trkpt lat="39.888465373607" lon="9.537973038104084"><ele>494.66666666666663</ele><time>2026-04-28T13:00:34.903Z</time></trkpt><trkpt lat="39.888608019664794" lon="9.538047082823091"><ele>495.0</ele><time>2026-04-28T13:00:35.903Z</time></trkpt><trkpt lat="39.888736087278886" lon="9.538140062914811"><ele>495.0</ele><time>2026-04-28T13:00:36.903Z</time></trkpt><trkpt lat="39.88886238885211" lon="9.538217028026102"><ele>495.0</ele><time>2026-04-28T13:00:37.903Z</time></trkpt><trkpt lat="39.88899057862194" lon="9.538225230820895"><ele>495.0</ele><time>2026-04-28T13:00:38.903Z</time></trkpt><trkpt lat="39.88911572212774" lon="9.538166848322728"><ele>495.0</ele><time>2026-04-28T13:00:39.903Z</time></trkpt><trkpt lat="39.88923592647806" lon="9.53806214379041"><ele>493.75</ele><time>2026-04-28T13:00:40.903Z</time></trkpt><trkpt lat="39.889367265770105" lon="9.537987686589299"><ele>492.5</ele><time>2026-04-28T13:00:41.903Z</time></trkpt><trkpt lat="39.889517744037015" lon="9.537978279081223"><ele>491.25</ele><time>2026-04-28T13:00:42.903Z</time></trkpt><trkpt lat="39.88967077007162" lon="9.537984848312895"><ele>490.0</ele><time>2026-04-28T13:00:43.903Z</time></trkpt><trkpt lat="39.889826040959846" lon="9.537986402639671"><ele>490.0</ele><time>2026-04-28T13:00:44.903Z</time></trkpt><trkpt lat="39.88997907204905" lon="9.538009736891803"><ele>490.0</ele><time>2026-04-28T13:00:45.903Z</time></trkpt><trkpt lat="39.890120458816575" lon="9.538084291208703"><ele>490.0</ele><time>2026-04-28T13:00:46.903Z</time></trkpt><trkpt lat="39.89025284106961" lon="9.53818889726286"><ele>490.6666666666667</ele><time>2026-04-28T13:00:47.903Z</time></trkpt><trkpt lat="39.89038345096915" lon="9.538299290199369"><ele>491.33333333333337</ele><time>2026-04-28T13:00:48.903Z</time></trkpt><trkpt lat="39.89051652607471" lon="9.53840439048489"><ele>492.0</ele><time>2026-04-28T13:00:49.903Z</time></trkpt><trkpt lat="39.89065394405569" lon="9.538482948308376"><ele>492.0</ele><time>2026-04-28T13:00:50.903Z</time></trkpt><trkpt lat="39.890785403370494" lon="9.538529391970647"><ele>492.0</ele><time>2026-04-28T13:00:51.903Z</time></trkpt><trkpt lat="39.890932933777286" lon="9.538539471048347"><ele>492.0</ele><time>2026-04-28T13:00:52.903Z</time></trkpt><trkpt lat="39.89107164529173" lon="9.538569498882289"><ele>492.0</ele><time>2026-04-28T13:00:53.903Z</time></trkpt><trkpt lat="39.891166066842906" lon="9.538667788007777"><ele>494.0</ele><time>2026-04-28T13:00:54.905Z</time></trkpt><trkpt lat="39.891214833763186" lon="9.53881398595394"><ele>496.0</ele><time>2026-04-28T13:00:55.905Z</time></trkpt><trkpt lat="39.89120815509772" lon="9.538974681395308"><ele>498.0</ele><time>2026-04-28T13:00:56.904Z</time></trkpt><trkpt lat="39.89117389375647" lon="9.539140580659717"><ele>500.0</ele><time>2026-04-28T13:00:57.904Z</time></trkpt><trkpt lat="39.89114599423972" lon="9.539308460073494"><ele>500.0</ele><time>2026-04-28T13:00:58.905Z</time></trkpt><trkpt lat="39.89112904277635" lon="9.539488132525598"><ele>500.0</ele><time>2026-04-28T13:00:59.904Z</time></trkpt><trkpt lat="39.8911131113693" lon="9.539669263416403"><ele>500.0</ele><time>2026-04-28T13:01:00.905Z</time></trkpt><trkpt lat="39.89109777550865" lon="9.539857067320671"><ele>500.0</ele><time>2026-04-28T13:01:01.904Z</time></trkpt><trkpt lat="39.89108234095523" lon="9.540060333755145"><ele>498.66666666666663</ele><time>2026-04-28T13:01:02.904Z</time></trkpt><trkpt lat="39.89106701956469" lon="9.540270175381218"><ele>497.33333333333337</ele><time>2026-04-28T13:01:03.905Z</time></trkpt><trkpt lat="39.891049263443904" lon="9.540485788478858"><ele>496.0</ele><time>2026-04-28T13:01:04.904Z</time></trkpt><trkpt lat="39.89103370226957" lon="9.540697307265294"><ele>493.33333333333337</ele><time>2026-04-28T13:01:05.904Z</time></trkpt><trkpt lat="39.891009013702835" lon="9.540908610255022"><ele>490.66666666666663</ele><time>2026-04-28T13:01:06.904Z</time></trkpt><trkpt lat="39.890984907756966" lon="9.541102745277225"><ele>488.0</ele><time>2026-04-28T13:01:07.904Z</time></trkpt><trkpt lat="39.89096450772664" lon="9.541288352999938"><ele>485.0</ele><time>2026-04-28T13:01:08.904Z</time></trkpt><trkpt lat="39.890965405336914" lon="9.54146794540625"><ele>482.0</ele><time>2026-04-28T13:01:09.904Z</time></trkpt><trkpt lat="39.89100128266622" lon="9.54163784968519"><ele>479.0</ele><time>2026-04-28T13:01:10.904Z</time></trkpt><trkpt lat="39.89107963552726" lon="9.541780834693567"><ele>476.0</ele><time>2026-04-28T13:01:11.904Z</time></trkpt><trkpt lat="39.89118155038263" lon="9.541908280469729"><ele>476.0</ele><time>2026-04-28T13:01:12.904Z</time></trkpt><trkpt lat="39.8912956432764" lon="9.542013555037041"><ele>476.0</ele><time>2026-04-28T13:01:13.904Z</time></trkpt><trkpt lat="39.89140382499798" lon="9.54209912601695"><ele>476.0</ele><time>2026-04-28T13:01:14.904Z</time></trkpt><trkpt lat="39.89149057446735" lon="9.542199156443246"><ele>476.0</ele><time>2026-04-28T13:01:15.904Z</time></trkpt><trkpt lat="39.891527751662586" lon="9.542340243593303"><ele>474.25</ele><time>2026-04-28T13:01:16.904Z</time></trkpt><trkpt lat="39.891514352271855" lon="9.542506342926124"><ele>472.5</ele><time>2026-04-28T13:01:17.904Z</time></trkpt><trkpt lat="39.89146530929634" lon="9.542664951396233"><ele>470.75</ele><time>2026-04-28T13:01:18.904Z</time></trkpt><trkpt lat="39.89141549494135" lon="9.542837131290925"><ele>469.0</ele><time>2026-04-28T13:01:19.904Z</time></trkpt><trkpt lat="39.89137783705876" lon="9.543019378384049"><ele>469.0</ele><time>2026-04-28T13:01:20.904Z</time></trkpt><trkpt lat="39.89136308267525" lon="9.543209217256573"><ele>469.0</ele><time>2026-04-28T13:01:21.904Z</time></trkpt><trkpt lat="39.89138458646861" lon="9.543401308400098"><ele>469.0</ele><time>2026-04-28T13:01:22.904Z</time></trkpt><trkpt lat="39.89142454040587" lon="9.54359433352904"><ele>469.0</ele><time>2026-04-28T13:01:23.904Z</time></trkpt><trkpt lat="39.8914473821061" lon="9.543776521899156"><ele>467.75</ele><time>2026-04-28T13:01:24.904Z</time></trkpt><trkpt lat="39.891445023004" lon="9.54396387064541"><ele>466.5</ele><time>2026-04-28T13:01:25.904Z</time></trkpt><trkpt lat="39.89141719440556" lon="9.544149563533233"><ele>465.25</ele><time>2026-04-28T13:01:26.904Z</time></trkpt><trkpt lat="39.89138336237997" lon="9.5443352801937"><ele>464.0</ele><time>2026-04-28T13:01:27.904Z</time></trkpt><trkpt lat="39.89135009864593" lon="9.544524407921136"><ele>460.0</ele><time>2026-04-28T13:01:28.904Z</time></trkpt><trkpt lat="39.89131151269147" lon="9.544714576074165"><ele>456.0</ele><time>2026-04-28T13:01:29.904Z</time></trkpt><trkpt lat="39.89126464420937" lon="9.544904325704909"><ele>452.0</ele><time>2026-04-28T13:01:30.904Z</time></trkpt><trkpt lat="39.891212961982006" lon="9.545092344683681"><ele>452.0</ele><time>2026-04-28T13:01:31.904Z</time></trkpt><trkpt lat="39.89114147707896" lon="9.545266244461912"><ele>452.0</ele><time>2026-04-28T13:01:32.903Z</time></trkpt><trkpt lat="39.8910667882795" lon="9.545432757715547"><ele>452.0</ele><time>2026-04-28T13:01:33.903Z</time></trkpt><trkpt lat="39.891008679065415" lon="9.545588697902565"><ele>452.0</ele><time>2026-04-28T13:01:34.903Z</time></trkpt><trkpt lat="39.89099508998709" lon="9.545742938687395"><ele>449.6</ele><time>2026-04-28T13:01:35.903Z</time></trkpt><trkpt lat="39.89102285562916" lon="9.545888448832153"><ele>447.20000000000005</ele><time>2026-04-28T13:01:36.903Z</time></trkpt><trkpt lat="39.891101160191816" lon="9.54598236115623"><ele>444.8</ele><time>2026-04-28T13:01:37.903Z</time></trkpt><trkpt lat="39.89119832707571" lon="9.546002185105193"><ele>442.4</ele><time>2026-04-28T13:01:38.903Z</time></trkpt><trkpt lat="39.89130273944848" lon="9.545959523558539"><ele>440.0</ele><time>2026-04-28T13:01:39.903Z</time></trkpt><trkpt lat="39.89140496009568" lon="9.545864529657498"><ele>440.0</ele><time>2026-04-28T13:01:40.903Z</time></trkpt><trkpt lat="39.89161375031534" lon="9.545640230680293"><ele>440.0</ele><time>2026-04-28T13:01:42.903Z</time></trkpt><trkpt lat="39.89170230416672" lon="9.545501999275888"><ele>440.0</ele><time>2026-04-28T13:01:43.903Z</time></trkpt><trkpt lat="39.89175295829237" lon="9.545345797137099"><ele>438.25</ele><time>2026-04-28T13:01:44.903Z</time></trkpt><trkpt lat="39.89178073392007" lon="9.545185734882772"><ele>436.5</ele><time>2026-04-28T13:01:45.903Z</time></trkpt><trkpt lat="39.89181508780683" lon="9.54503449215323"><ele>434.75</ele><time>2026-04-28T13:01:46.903Z</time></trkpt><trkpt lat="39.89187697355871" lon="9.5449115047347"><ele>433.0</ele><time>2026-04-28T13:01:47.903Z</time></trkpt><trkpt lat="39.89196896016868" lon="9.544809147788863"><ele>433.0</ele><time>2026-04-28T13:01:48.903Z</time></trkpt><trkpt lat="39.8920824962785" lon="9.544728525669944"><ele>433.0</ele><time>2026-04-28T13:01:49.903Z</time></trkpt><trkpt lat="39.89220277888585" lon="9.54468033152058"><ele>433.0</ele><time>2026-04-28T13:01:50.903Z</time></trkpt><trkpt lat="39.892332679358" lon="9.544677864918526"><ele>433.0</ele><time>2026-04-28T13:01:51.903Z</time></trkpt><trkpt lat="39.89244926676187" lon="9.544658376435343"><ele>433.0</ele><time>2026-04-28T13:01:52.903Z</time></trkpt><trkpt lat="39.89254111233841" lon="9.544572512733039"><ele>433.0</ele><time>2026-04-28T13:01:53.903Z</time></trkpt><trkpt lat="39.892607601403164" lon="9.54443980446739"><ele>433.0</ele><time>2026-04-28T13:01:54.903Z</time></trkpt><trkpt lat="39.89265776815883" lon="9.544284557431975"><ele>433.0</ele><time>2026-04-28T13:01:55.903Z</time></trkpt><trkpt lat="39.89273297471363" lon="9.544134936741456"><ele>433.75</ele><time>2026-04-28T13:01:56.903Z</time></trkpt><trkpt lat="39.892837269344824" lon="9.544017706977106"><ele>434.5</ele><time>2026-04-28T13:01:57.903Z</time></trkpt><trkpt lat="39.89294461491957" lon="9.543904101801996"><ele>435.25</ele><time>2026-04-28T13:01:58.903Z</time></trkpt><trkpt lat="39.89302427470852" lon="9.543772553014662"><ele>436.0</ele><time>2026-04-28T13:01:59.903Z</time></trkpt><trkpt lat="39.89308538266354" lon="9.54361849708312"><ele>436.0</ele><time>2026-04-28T13:02:00.903Z</time></trkpt><trkpt lat="39.893124370363175" lon="9.543453347760838"><ele>436.0</ele><time>2026-04-28T13:02:01.903Z</time></trkpt><trkpt lat="39.89314995633796" lon="9.54329808176545"><ele>436.0</ele><time>2026-04-28T13:02:02.903Z</time></trkpt><trkpt lat="39.893190365215055" lon="9.543158262688525"><ele>436.0</ele><time>2026-04-28T13:02:03.903Z</time></trkpt><trkpt lat="39.893267375782486" lon="9.543034569604824"><ele>436.0</ele><time>2026-04-28T13:02:04.903Z</time></trkpt><trkpt lat="39.89335830756686" lon="9.54294402955269"><ele>436.0</ele><time>2026-04-28T13:02:05.903Z</time></trkpt><trkpt lat="39.89343743284381" lon="9.542829606490768"><ele>436.0</ele><time>2026-04-28T13:02:06.903Z</time></trkpt><trkpt lat="39.893493237833404" lon="9.542697379876683"><ele>436.0</ele><time>2026-04-28T13:02:07.903Z</time></trkpt><trkpt lat="39.89352542811774" lon="9.54255915179312"><ele>433.6666666666667</ele><time>2026-04-28T13:02:08.903Z</time></trkpt><trkpt lat="39.893580321264615" lon="9.542448811193085"><ele>431.33333333333337</ele><time>2026-04-28T13:02:09.903Z</time></trkpt><trkpt lat="39.89364111186704" lon="9.542386554874248"><ele>429.0</ele><time>2026-04-28T13:02:10.903Z</time></trkpt><trkpt lat="39.893713826202024" lon="9.542378117942963"><ele>426.66666666666663</ele><time>2026-04-28T13:02:11.903Z</time></trkpt><trkpt lat="39.89378412431558" lon="9.542443680098824"><ele>424.3333333333333</ele><time>2026-04-28T13:02:12.903Z</time></trkpt><trkpt lat="39.89382895952533" lon="9.542552682910951"><ele>422.0</ele><time>2026-04-28T13:02:13.903Z</time></trkpt><trkpt lat="39.89385139536146" lon="9.542683327702868"><ele>422.0</ele><time>2026-04-28T13:02:14.903Z</time></trkpt><trkpt lat="39.89386998068969" lon="9.542820062546538"><ele>422.0</ele><time>2026-04-28T13:02:15.903Z</time></trkpt><trkpt lat="39.8938883208483" lon="9.542949842943724"><ele>422.0</ele><time>2026-04-28T13:02:16.903Z</time></trkpt><trkpt lat="39.89389262352794" lon="9.543081528569497"><ele>422.0</ele><time>2026-04-28T13:02:17.903Z</time></trkpt><trkpt lat="39.89389361824115" lon="9.543213870059736"><ele>422.0</ele><time>2026-04-28T13:02:18.903Z</time></trkpt><trkpt lat="39.89388984557881" lon="9.543348269688869"><ele>421.0</ele><time>2026-04-28T13:02:19.903Z</time></trkpt><trkpt lat="39.89385142720487" lon="9.543466036717028"><ele>420.0</ele><time>2026-04-28T13:02:20.903Z</time></trkpt><trkpt lat="39.89381793654587" lon="9.543580330770457"><ele>419.0</ele><time>2026-04-28T13:02:21.903Z</time></trkpt><trkpt lat="39.89377120013682" lon="9.543684364291702"><ele>418.0</ele><time>2026-04-28T13:02:22.903Z</time></trkpt><trkpt lat="39.893721246612294" lon="9.543776187957226"><ele>417.0</ele><time>2026-04-28T13:02:23.903Z</time></trkpt><trkpt lat="39.89367676442595" lon="9.543861294791762"><ele>416.0</ele><time>2026-04-28T13:02:24.903Z</time></trkpt><trkpt lat="39.893632623399355" lon="9.543940781743908"><ele>415.0</ele><time>2026-04-28T13:02:25.903Z</time></trkpt><trkpt lat="39.89353406178792" lon="9.544044615160368"><ele>414.0</ele><time>2026-04-28T13:02:27.903Z</time></trkpt><trkpt lat="39.893480903014385" lon="9.544089391412905"><ele>413.0</ele><time>2026-04-28T13:02:28.903Z</time></trkpt><trkpt lat="39.893424920505495" lon="9.544197225408057"><ele>412.0</ele><time>2026-04-28T13:02:30.903Z</time></trkpt><trkpt lat="39.893359274147905" lon="9.544327102104646"><ele>413.25</ele><time>2026-04-28T13:02:32.903Z</time></trkpt><trkpt lat="39.89329289404976" lon="9.544457692654307"><ele>414.5</ele><time>2026-04-28T13:02:34.903Z</time></trkpt><trkpt lat="39.893217700738575" lon="9.544570647198633"><ele>415.75</ele><time>2026-04-28T13:02:36.903Z</time></trkpt><trkpt lat="39.893138467457106" lon="9.544691482395448"><ele>417.0</ele><time>2026-04-28T13:02:38.903Z</time></trkpt><trkpt lat="39.893058705666796" lon="9.54482047840767"><ele>417.0</ele><time>2026-04-28T13:02:40.902Z</time></trkpt><trkpt lat="39.89301153648401" lon="9.544888377852468"><ele>417.0</ele><time>2026-04-28T13:02:41.902Z</time></trkpt><trkpt lat="39.89295932377088" lon="9.544945007968241"><ele>417.0</ele><time>2026-04-28T13:02:42.902Z</time></trkpt><trkpt lat="39.89290549154414" lon="9.545003699086799"><ele>417.0</ele><time>2026-04-28T13:02:43.902Z</time></trkpt><trkpt lat="39.89286057182278" lon="9.54507073191781"><ele>417.0</ele><time>2026-04-28T13:02:44.902Z</time></trkpt><trkpt lat="39.89281497881343" lon="9.545137945878336"><ele>417.0</ele><time>2026-04-28T13:02:45.902Z</time></trkpt><trkpt lat="39.892769651018625" lon="9.545206369830575"><ele>417.0</ele><time>2026-04-28T13:02:46.902Z</time></trkpt><trkpt lat="39.892725578978144" lon="9.545278718453186"><ele>417.0</ele><time>2026-04-28T13:02:47.902Z</time></trkpt><trkpt lat="39.89268217745244" lon="9.545347360782705"><ele>417.0</ele><time>2026-04-28T13:02:48.902Z</time></trkpt><trkpt lat="39.89263005750683" lon="9.545415135743863"><ele>417.0</ele><time>2026-04-28T13:02:49.902Z</time></trkpt><trkpt lat="39.89258694925415" lon="9.545484291986872"><ele>417.0</ele><time>2026-04-28T13:02:50.902Z</time></trkpt><trkpt lat="39.892531280262105" lon="9.5455375511073"><ele>417.0</ele><time>2026-04-28T13:02:51.902Z</time></trkpt><trkpt lat="39.89243229967859" lon="9.545668398473891"><ele>417.0</ele><time>2026-04-28T13:02:53.902Z</time></trkpt><trkpt lat="39.89239739674942" lon="9.545741169948652"><ele>417.0</ele><time>2026-04-28T13:02:54.902Z</time></trkpt><trkpt lat="39.89235172719946" lon="9.545806162032193"><ele>417.0</ele><time>2026-04-28T13:02:55.902Z</time></trkpt><trkpt lat="39.892311228421846" lon="9.545881354911357"><ele>417.0</ele><time>2026-04-28T13:02:56.902Z</time></trkpt><trkpt lat="39.892275412294445" lon="9.545954065192664"><ele>417.0</ele><time>2026-04-28T13:02:57.902Z</time></trkpt><trkpt lat="39.892251462539186" lon="9.546047419411106"><ele>417.0</ele><time>2026-04-28T13:02:58.902Z</time></trkpt><trkpt lat="39.892254046310576" lon="9.546143534612714"><ele>417.0</ele><time>2026-04-28T13:02:59.902Z</time></trkpt><trkpt lat="39.89226260741975" lon="9.546242861738964"><ele>417.0</ele><time>2026-04-28T13:03:00.904Z</time></trkpt><trkpt lat="39.892270453242375" lon="9.546344946534616"><ele>417.0</ele><time>2026-04-28T13:03:01.903Z</time></trkpt><trkpt lat="39.892293883504195" lon="9.54645387749528"><ele>417.0</ele><time>2026-04-28T13:03:02.903Z</time></trkpt><trkpt lat="39.8923172047219" lon="9.54656181312806"><ele>417.0</ele><time>2026-04-28T13:03:03.904Z</time></trkpt><trkpt lat="39.89234648925343" lon="9.546668236281855"><ele>417.0</ele><time>2026-04-28T13:03:04.904Z</time></trkpt><trkpt lat="39.89238109578994" lon="9.546775671663159"><ele>417.0</ele><time>2026-04-28T13:03:05.903Z</time></trkpt><trkpt lat="39.89241418923299" lon="9.546877484472706"><ele>417.0</ele><time>2026-04-28T13:03:06.903Z</time></trkpt><trkpt lat="39.89244712552807" lon="9.546966731630459"><ele>417.0</ele><time>2026-04-28T13:03:08.903Z</time></trkpt><trkpt lat="39.89251113096484" lon="9.54699554073317"><ele>417.0</ele><time>2026-04-28T13:03:11.904Z</time></trkpt><trkpt lat="39.892570986870474" lon="9.547099077209038"><ele>417.0</ele><time>2026-04-28T13:03:13.903Z</time></trkpt><trkpt lat="39.89263755941014" lon="9.547230521451658"><ele>417.0</ele><time>2026-04-28T13:03:15.903Z</time></trkpt><trkpt lat="39.892650375899166" lon="9.547325007279273"><ele>417.0</ele><time>2026-04-28T13:03:16.903Z</time></trkpt><trkpt lat="39.89267384093258" lon="9.54741028998866"><ele>417.0</ele><time>2026-04-28T13:03:17.903Z</time></trkpt><trkpt lat="39.89269103311888" lon="9.547497605085335"><ele>412.8333333333333</ele><time>2026-04-28T13:03:18.903Z</time></trkpt><trkpt lat="39.892698731730654" lon="9.547594079860845"><ele>408.66666666666663</ele><time>2026-04-28T13:03:19.903Z</time></trkpt><trkpt lat="39.89269496669439" lon="9.547695866852813"><ele>404.5</ele><time>2026-04-28T13:03:20.903Z</time></trkpt><trkpt lat="39.8926839269294" lon="9.54780253463281"><ele>400.3333333333333</ele><time>2026-04-28T13:03:21.903Z</time></trkpt><trkpt lat="39.89266653313215" lon="9.547912092757755"><ele>396.16666666666663</ele><time>2026-04-28T13:03:22.903Z</time></trkpt><trkpt lat="39.8926459059504" lon="9.548016557257702"><ele>392.0</ele><time>2026-04-28T13:03:23.903Z</time></trkpt><trkpt lat="39.892626631262786" lon="9.548120248562004"><ele>390.8333333333333</ele><time>2026-04-28T13:03:24.903Z</time></trkpt><trkpt lat="39.89260723692553" lon="9.548226571124605"><ele>389.66666666666663</ele><time>2026-04-28T13:03:25.903Z</time></trkpt><trkpt lat="39.89258808049565" lon="9.548335327198851"><ele>388.5</ele><time>2026-04-28T13:03:26.903Z</time></trkpt><trkpt lat="39.89256863373472" lon="9.548448867523666"><ele>387.33333333333337</ele><time>2026-04-28T13:03:27.903Z</time></trkpt><trkpt lat="39.89254603692941" lon="9.548564948830577"><ele>386.1666666666667</ele><time>2026-04-28T13:03:28.903Z</time></trkpt><trkpt lat="39.892534761866024" lon="9.548681710213858"><ele>385.0</ele><time>2026-04-28T13:03:29.903Z</time></trkpt><trkpt lat="39.89251699921052" lon="9.54879650193329"><ele>389.0</ele><time>2026-04-28T13:03:30.903Z</time></trkpt><trkpt lat="39.89248987003958" lon="9.5489152693083"><ele>393.0</ele><time>2026-04-28T13:03:31.902Z</time></trkpt><trkpt lat="39.892452528979376" lon="9.54901810368264"><ele>397.0</ele><time>2026-04-28T13:03:32.902Z</time></trkpt><trkpt lat="39.8924044859248" lon="9.549125160547211"><ele>401.0</ele><time>2026-04-28T13:03:33.902Z</time></trkpt><trkpt lat="39.892341312423085" lon="9.54922013105056"><ele>405.0</ele><time>2026-04-28T13:03:34.902Z</time></trkpt><trkpt lat="39.892266839717514" lon="9.549304348848105"><ele>405.0</ele><time>2026-04-28T13:03:35.902Z</time></trkpt><trkpt lat="39.89219294275771" lon="9.549382123925419"><ele>405.0</ele><time>2026-04-28T13:03:36.902Z</time></trkpt><trkpt lat="39.892109517444375" lon="9.549441247815166"><ele>405.0</ele><time>2026-04-28T13:03:37.902Z</time></trkpt><trkpt lat="39.89201391776775" lon="9.549485681962219"><ele>405.0</ele><time>2026-04-28T13:03:38.902Z</time></trkpt><trkpt lat="39.891916716483784" lon="9.549512495255524"><ele>405.0</ele><time>2026-04-28T13:03:39.902Z</time></trkpt><trkpt lat="39.891820518822236" lon="9.549529982149606"><ele>403.0</ele><time>2026-04-28T13:03:40.902Z</time></trkpt><trkpt lat="39.89172514722379" lon="9.549545803355846"><ele>401.0</ele><time>2026-04-28T13:03:41.902Z</time></trkpt><trkpt lat="39.8916301811583" lon="9.54955040953568"><ele>399.0</ele><time>2026-04-28T13:03:42.902Z</time></trkpt><trkpt lat="39.89153842586498" lon="9.549565703833096"><ele>397.0</ele><time>2026-04-28T13:03:43.902Z</time></trkpt><trkpt lat="39.891445750200745" lon="9.549578937647594"><ele>395.0</ele><time>2026-04-28T13:03:44.902Z</time></trkpt><trkpt lat="39.891355775361625" lon="9.54958967386785"><ele>394.99999999999994</ele><time>2026-04-28T13:03:45.902Z</time></trkpt><trkpt lat="39.89126917942348" lon="9.54960668376696"><ele>395.0</ele><time>2026-04-28T13:03:46.902Z</time></trkpt><trkpt lat="39.89118449707614" lon="9.5496179346415"><ele>395.0</ele><time>2026-04-28T13:03:47.902Z</time></trkpt><trkpt lat="39.89110364333209" lon="9.54962267881622"><ele>395.0</ele><time>2026-04-28T13:03:48.902Z</time></trkpt><trkpt lat="39.89101621246231" lon="9.549632216210224"><ele>394.99999999999994</ele><time>2026-04-28T13:03:49.902Z</time></trkpt><trkpt lat="39.89092886569028" lon="9.5496415558349"><ele>395.0</ele><time>2026-04-28T13:03:50.902Z</time></trkpt><trkpt lat="39.8908395097886" lon="9.54963927088476"><ele>394.0</ele><time>2026-04-28T13:03:51.902Z</time></trkpt><trkpt lat="39.890747203591694" lon="9.549635037508738"><ele>393.0</ele><time>2026-04-28T13:03:52.902Z</time></trkpt><trkpt lat="39.89065079248202" lon="9.54962792727054"><ele>392.0</ele><time>2026-04-28T13:03:53.902Z</time></trkpt><trkpt lat="39.89055059611793" lon="9.549612090794811"><ele>391.0</ele><time>2026-04-28T13:03:54.902Z</time></trkpt><trkpt lat="39.89044786155064" lon="9.54958205123145"><ele>390.0</ele><time>2026-04-28T13:03:55.902Z</time></trkpt><trkpt lat="39.8903452777593" lon="9.549533406480064"><ele>392.6</ele><time>2026-04-28T13:03:56.902Z</time></trkpt><trkpt lat="39.890246447819216" lon="9.54946712704442"><ele>395.2</ele><time>2026-04-28T13:03:57.902Z</time></trkpt><trkpt lat="39.89015054870123" lon="9.54939969812361"><ele>397.79999999999995</ele><time>2026-04-28T13:03:58.902Z</time></trkpt><trkpt lat="39.890060764279305" lon="9.549325838244718"><ele>400.4</ele><time>2026-04-28T13:03:59.902Z</time></trkpt><trkpt lat="39.88997498789897" lon="9.549257735892969"><ele>403.0</ele><time>2026-04-28T13:04:00.902Z</time></trkpt><trkpt lat="39.889906072289286" lon="9.549171698293367"><ele>403.0</ele><time>2026-04-28T13:04:01.902Z</time></trkpt><trkpt lat="39.88985556328602" lon="9.549065156991057"><ele>403.0</ele><time>2026-04-28T13:04:02.902Z</time></trkpt><trkpt lat="39.8898141755454" lon="9.548964035982433"><ele>403.0</ele><time>2026-04-28T13:04:03.902Z</time></trkpt><trkpt lat="39.88977451707758" lon="9.548879323021318"><ele>403.0</ele><time>2026-04-28T13:04:04.902Z</time></trkpt><trkpt lat="39.889683596471016" lon="9.548806915132275"><ele>403.0</ele><time>2026-04-28T13:04:06.902Z</time></trkpt><trkpt lat="39.88960189665041" lon="9.54884214574329"><ele>403.0</ele><time>2026-04-28T13:04:08.902Z</time></trkpt><trkpt lat="39.889539953201506" lon="9.548976124141506"><ele>403.0</ele><time>2026-04-28T13:04:10.902Z</time></trkpt><trkpt lat="39.889520869563285" lon="9.549069038689531"><ele>403.0</ele><time>2026-04-28T13:04:11.902Z</time></trkpt><trkpt lat="39.88949688827136" lon="9.549185318967174"><ele>403.0</ele><time>2026-04-28T13:04:12.902Z</time></trkpt><trkpt lat="39.88948404490111" lon="9.54930689952735"><ele>403.0</ele><time>2026-04-28T13:04:13.902Z</time></trkpt><trkpt lat="39.889497009628485" lon="9.549429159192517"><ele>400.75</ele><time>2026-04-28T13:04:14.902Z</time></trkpt><trkpt lat="39.88954980768172" lon="9.54955480695553"><ele>398.5</ele><time>2026-04-28T13:04:15.902Z</time></trkpt><trkpt lat="39.88962708722152" lon="9.549665068741763"><ele>396.25</ele><time>2026-04-28T13:04:16.902Z</time></trkpt><trkpt lat="39.88971457938765" lon="9.549770729400933"><ele>394.0</ele><time>2026-04-28T13:04:17.902Z</time></trkpt><trkpt lat="39.889816268989904" lon="9.549883355578189"><ele>394.0</ele><time>2026-04-28T13:04:18.902Z</time></trkpt><trkpt lat="39.889907387912125" lon="9.550003037367766"><ele>394.0</ele><time>2026-04-28T13:04:19.902Z</time></trkpt><trkpt lat="39.89000704299719" lon="9.55012977954548"><ele>394.0</ele><time>2026-04-28T13:04:20.902Z</time></trkpt><trkpt lat="39.89011732491295" lon="9.5502499908813"><ele>394.0</ele><time>2026-04-28T13:04:21.902Z</time></trkpt><trkpt lat="39.89021479935137" lon="9.550376893112325"><ele>390.0</ele><time>2026-04-28T13:04:22.902Z</time></trkpt><trkpt lat="39.890269774351836" lon="9.550530629668994"><ele>386.0</ele><time>2026-04-28T13:04:23.902Z</time></trkpt><trkpt lat="39.89026955382921" lon="9.550683383299244"><ele>382.0</ele><time>2026-04-28T13:04:24.902Z</time></trkpt><trkpt lat="39.89021363890286" lon="9.550841453548266"><ele>378.0</ele><time>2026-04-28T13:04:25.902Z</time></trkpt><trkpt lat="39.89012413660717" lon="9.550998646606411"><ele>377.6666666666667</ele><time>2026-04-28T13:04:26.902Z</time></trkpt><trkpt lat="39.89002689814002" lon="9.55115404524007"><ele>377.33333333333337</ele><time>2026-04-28T13:04:27.902Z</time></trkpt><trkpt lat="39.889925260413726" lon="9.551311808630208"><ele>377.0</ele><time>2026-04-28T13:04:28.902Z</time></trkpt><trkpt lat="39.88981014103203" lon="9.551465217015988"><ele>377.0</ele><time>2026-04-28T13:04:29.902Z</time></trkpt><trkpt lat="39.889688104286954" lon="9.551604663409133"><ele>377.0</ele><time>2026-04-28T13:04:30.902Z</time></trkpt><trkpt lat="39.889587940243615" lon="9.551770517225647"><ele>377.0</ele><time>2026-04-28T13:04:31.902Z</time></trkpt><trkpt lat="39.88955188107367" lon="9.551976606085248"><ele>374.6666666666667</ele><time>2026-04-28T13:04:32.902Z</time></trkpt><trkpt lat="39.88955429269144" lon="9.552197462412506"><ele>372.3333333333333</ele><time>2026-04-28T13:04:33.902Z</time></trkpt><trkpt lat="39.889547630120525" lon="9.552430657199006"><ele>370.0</ele><time>2026-04-28T13:04:34.902Z</time></trkpt><trkpt lat="39.88952105768594" lon="9.552653910670394"><ele>369.3333333333333</ele><time>2026-04-28T13:04:35.902Z</time></trkpt><trkpt lat="39.88950112710994" lon="9.552876941309272"><ele>368.6666666666667</ele><time>2026-04-28T13:04:36.902Z</time></trkpt><trkpt lat="39.88949928738177" lon="9.553107674795699"><ele>368.0</ele><time>2026-04-28T13:04:37.902Z</time></trkpt><trkpt lat="39.889510438847815" lon="9.553339523816515"><ele>368.0</ele><time>2026-04-28T13:04:38.901Z</time></trkpt><trkpt lat="39.88952222952938" lon="9.55355885425639"><ele>368.0</ele><time>2026-04-28T13:04:39.901Z</time></trkpt><trkpt lat="39.8894941956018" lon="9.553758752035526"><ele>368.0</ele><time>2026-04-28T13:04:40.901Z</time></trkpt><trkpt lat="39.88941196481385" lon="9.553925150319529"><ele>367.33333333333337</ele><time>2026-04-28T13:04:41.901Z</time></trkpt><trkpt lat="39.88928147498864" lon="9.554052105881"><ele>366.6666666666667</ele><time>2026-04-28T13:04:42.901Z</time></trkpt><trkpt lat="39.889141389337524" lon="9.554164794190976"><ele>366.0</ele><time>2026-04-28T13:04:43.901Z</time></trkpt><trkpt lat="39.889009927989406" lon="9.554285922885272"><ele>368.0</ele><time>2026-04-28T13:04:44.901Z</time></trkpt><trkpt lat="39.88890001386222" lon="9.554425581202425"><ele>370.0</ele><time>2026-04-28T13:04:45.901Z</time></trkpt><trkpt lat="39.88883149898192" lon="9.554597263391592"><ele>372.0</ele><time>2026-04-28T13:04:46.901Z</time></trkpt><trkpt lat="39.888830968383076" lon="9.554781476912526"><ele>374.0</ele><time>2026-04-28T13:04:47.901Z</time></trkpt><trkpt lat="39.888891989949606" lon="9.554946280659953"><ele>374.0</ele><time>2026-04-28T13:04:48.901Z</time></trkpt><trkpt lat="39.88900698200993" lon="9.555068401980618"><ele>374.0</ele><time>2026-04-28T13:04:49.901Z</time></trkpt><trkpt lat="39.88914624404405" lon="9.555139632969732"><ele>374.0</ele><time>2026-04-28T13:04:50.901Z</time></trkpt><trkpt lat="39.88930586238743" lon="9.55512373944346"><ele>372.6666666666667</ele><time>2026-04-28T13:04:51.901Z</time></trkpt><trkpt lat="39.88946044136654" lon="9.555029037418464"><ele>371.3333333333333</ele><time>2026-04-28T13:04:52.901Z</time></trkpt><trkpt lat="39.88961203124569" lon="9.554930529975797"><ele>370.0</ele><time>2026-04-28T13:04:53.901Z</time></trkpt><trkpt lat="39.88973093049244" lon="9.554896749325412"><ele>370.0</ele><time>2026-04-28T13:04:54.901Z</time></trkpt><trkpt lat="39.88984197343289" lon="9.55496337402933"><ele>370.0</ele><time>2026-04-28T13:04:55.901Z</time></trkpt><trkpt lat="39.88991811131319" lon="9.555104417835143"><ele>370.0</ele><time>2026-04-28T13:04:56.901Z</time></trkpt><trkpt lat="39.88994828110362" lon="9.555294992731783"><ele>370.0</ele><time>2026-04-28T13:04:57.901Z</time></trkpt><trkpt lat="39.889976075559396" lon="9.555499341389334"><ele>370.3333333333333</ele><time>2026-04-28T13:04:58.901Z</time></trkpt><trkpt lat="39.89000143296426" lon="9.555712983586334"><ele>370.6666666666667</ele><time>2026-04-28T13:04:59.901Z</time></trkpt><trkpt lat="39.89002720089672" lon="9.555925913940968"><ele>371.0</ele><time>2026-04-28T13:05:00.901Z</time></trkpt><trkpt lat="39.89005795180354" lon="9.55612518754236"><ele>365.33333333333337</ele><time>2026-04-28T13:05:01.901Z</time></trkpt><trkpt lat="39.89013609728409" lon="9.556289470623758"><ele>359.6666666666667</ele><time>2026-04-28T13:05:02.901Z</time></trkpt><trkpt lat="39.890264096204945" lon="9.55640565759421"><ele>354.0</ele><time>2026-04-28T13:05:03.901Z</time></trkpt><trkpt lat="39.89040904705851" lon="9.556497508181799"><ele>354.0</ele><time>2026-04-28T13:05:04.901Z</time></trkpt><trkpt lat="39.890545019005124" lon="9.556591424395576"><ele>354.0</ele><time>2026-04-28T13:05:05.901Z</time></trkpt><trkpt lat="39.89062350929382" lon="9.556735866592922"><ele>354.0</ele><time>2026-04-28T13:05:06.902Z</time></trkpt><trkpt lat="39.89062636590443" lon="9.556918388765572"><ele>354.0</ele><time>2026-04-28T13:05:07.902Z</time></trkpt><trkpt lat="39.89059246786807" lon="9.557099296566438"><ele>354.0</ele><time>2026-04-28T13:05:08.902Z</time></trkpt><trkpt lat="39.89056620738504" lon="9.55730457218614"><ele>354.0</ele><time>2026-04-28T13:05:09.903Z</time></trkpt><trkpt lat="39.89057534972933" lon="9.557534321510765"><ele>354.0</ele><time>2026-04-28T13:05:10.903Z</time></trkpt><trkpt lat="39.890641580981104" lon="9.557728870686827"><ele>352.0</ele><time>2026-04-28T13:05:11.903Z</time></trkpt><trkpt lat="39.890769321721095" lon="9.557880939209072"><ele>350.0</ele><time>2026-04-28T13:05:12.903Z</time></trkpt><trkpt lat="39.89091965662655" lon="9.558025971525431"><ele>348.0</ele><time>2026-04-28T13:05:13.903Z</time></trkpt><trkpt lat="39.8910767190201" lon="9.558172798502586"><ele>348.0</ele><time>2026-04-28T13:05:14.903Z</time></trkpt><trkpt lat="39.89123157692916" lon="9.558303764753115"><ele>348.0</ele><time>2026-04-28T13:05:15.903Z</time></trkpt><trkpt lat="39.89139148025182" lon="9.558423151442904"><ele>348.0</ele><time>2026-04-28T13:05:16.902Z</time></trkpt><trkpt lat="39.891551144607035" lon="9.558548550337253"><ele>348.0</ele><time>2026-04-28T13:05:17.902Z</time></trkpt><trkpt lat="39.891705283696815" lon="9.558668676584304"><ele>348.0</ele><time>2026-04-28T13:05:18.903Z</time></trkpt><trkpt lat="39.89185198145176" lon="9.558772794610775"><ele>348.0</ele><time>2026-04-28T13:05:19.902Z</time></trkpt><trkpt lat="39.89199723137628" lon="9.558864588185214"><ele>344.25</ele><time>2026-04-28T13:05:20.902Z</time></trkpt><trkpt lat="39.892132981212434" lon="9.558965056574364"><ele>340.5</ele><time>2026-04-28T13:05:21.902Z</time></trkpt><trkpt lat="39.89222068499718" lon="9.559111787859116"><ele>336.75</ele><time>2026-04-28T13:05:22.902Z</time></trkpt><trkpt lat="39.892221150458724" lon="9.559303990874941"><ele>333.0</ele><time>2026-04-28T13:05:23.902Z</time></trkpt><trkpt lat="39.89217891360805" lon="9.559502622936241"><ele>327.0</ele><time>2026-04-28T13:05:24.902Z</time></trkpt><trkpt lat="39.89207574348305" lon="9.559712288432534"><ele>321.0</ele><time>2026-04-28T13:05:25.902Z</time></trkpt><trkpt lat="39.89197428768975" lon="9.559916546094664"><ele>315.0</ele><time>2026-04-28T13:05:26.902Z</time></trkpt><trkpt lat="39.89191770299106" lon="9.560152665445324"><ele>311.6666666666667</ele><time>2026-04-28T13:05:27.902Z</time></trkpt><trkpt lat="39.89185445748351" lon="9.560393307921439"><ele>308.33333333333337</ele><time>2026-04-28T13:05:28.902Z</time></trkpt><trkpt lat="39.89175342991804" lon="9.5606161205477"><ele>305.0</ele><time>2026-04-28T13:05:29.902Z</time></trkpt><trkpt lat="39.8916772730859" lon="9.560830216163467"><ele>315.6666666666667</ele><time>2026-04-28T13:05:30.902Z</time></trkpt><trkpt lat="39.89166782338417" lon="9.561073046686591"><ele>326.3333333333333</ele><time>2026-04-28T13:05:31.902Z</time></trkpt><trkpt lat="39.89166690181423" lon="9.561322825024355"><ele>337.0</ele><time>2026-04-28T13:05:32.902Z</time></trkpt><trkpt lat="39.891647988690664" lon="9.561565204351988"><ele>337.0</ele><time>2026-04-28T13:05:33.902Z</time></trkpt><trkpt lat="39.89160306612533" lon="9.561806552768502"><ele>337.0</ele><time>2026-04-28T13:05:34.902Z</time></trkpt><trkpt lat="39.891545850305995" lon="9.56204058355955"><ele>337.0</ele><time>2026-04-28T13:05:35.902Z</time></trkpt><trkpt lat="39.891484948235494" lon="9.562270480114368"><ele>333.66666666666663</ele><time>2026-04-28T13:05:36.902Z</time></trkpt><trkpt lat="39.891439331354086" lon="9.562504514423168"><ele>330.3333333333333</ele><time>2026-04-28T13:05:37.902Z</time></trkpt><trkpt lat="39.891416336390606" lon="9.562741396882478"><ele>327.0</ele><time>2026-04-28T13:05:38.902Z</time></trkpt><trkpt lat="39.89140524285427" lon="9.562978160089301"><ele>326.6666666666667</ele><time>2026-04-28T13:05:39.902Z</time></trkpt><trkpt lat="39.891394612011936" lon="9.563214573859518"><ele>326.33333333333337</ele><time>2026-04-28T13:05:40.902Z</time></trkpt><trkpt lat="39.89137249517504" lon="9.563447930829316"><ele>326.0</ele><time>2026-04-28T13:05:41.902Z</time></trkpt><trkpt lat="39.891332411646125" lon="9.563671528478508"><ele>329.33333333333337</ele><time>2026-04-28T13:05:42.902Z</time></trkpt><trkpt lat="39.89123714867217" lon="9.563859085061372"><ele>332.6666666666667</ele><time>2026-04-28T13:05:43.902Z</time></trkpt><trkpt lat="39.89112006399911" lon="9.56402963944635"><ele>336.0</ele><time>2026-04-28T13:05:44.902Z</time></trkpt><trkpt lat="39.891007351044735" lon="9.56419869223766"><ele>336.6666666666667</ele><time>2026-04-28T13:05:45.902Z</time></trkpt><trkpt lat="39.89088693381733" lon="9.564371446287499"><ele>337.33333333333337</ele><time>2026-04-28T13:05:46.902Z</time></trkpt><trkpt lat="39.89072563189621" lon="9.564522743399998"><ele>338.0</ele><time>2026-04-28T13:05:47.902Z</time></trkpt><trkpt lat="39.8905766132618" lon="9.564657799546344"><ele>341.0</ele><time>2026-04-28T13:05:48.902Z</time></trkpt><trkpt lat="39.890442431106614" lon="9.56482054882304"><ele>344.0</ele><time>2026-04-28T13:05:49.902Z</time></trkpt><trkpt lat="39.8903292513871" lon="9.565015606777871"><ele>347.0</ele><time>2026-04-28T13:05:50.902Z</time></trkpt><trkpt lat="39.89026374177249" lon="9.565258464665456"><ele>349.6666666666667</ele><time>2026-04-28T13:05:51.902Z</time></trkpt><trkpt lat="39.89021102950847" lon="9.565502009727929"><ele>352.3333333333333</ele><time>2026-04-28T13:05:52.902Z</time></trkpt><trkpt lat="39.89017347083138" lon="9.565753112851729"><ele>355.0</ele><time>2026-04-28T13:05:53.902Z</time></trkpt><trkpt lat="39.890197584532366" lon="9.56598877099624"><ele>355.0</ele><time>2026-04-28T13:05:54.902Z</time></trkpt><trkpt lat="39.89024874294132" lon="9.566175634176359"><ele>355.0</ele><time>2026-04-28T13:05:55.902Z</time></trkpt><trkpt lat="39.89029350267627" lon="9.566317976358134"><ele>355.0</ele><time>2026-04-28T13:05:56.902Z</time></trkpt><trkpt lat="39.89029157764007" lon="9.56647571878634"><ele>355.0</ele><time>2026-04-28T13:05:57.902Z</time></trkpt><trkpt lat="39.89020140874442" lon="9.566744908102109"><ele>351.0</ele><time>2026-04-28T13:05:58.902Z</time></trkpt><trkpt lat="39.89022203259498" lon="9.56699926009271"><ele>347.0</ele><time>2026-04-28T13:05:59.902Z</time></trkpt><trkpt lat="39.890296940640184" lon="9.567209058421037"><ele>343.0</ele><time>2026-04-28T13:06:00.902Z</time></trkpt><trkpt lat="39.890369134200114" lon="9.567336282399388"><ele>336.66666666666663</ele><time>2026-04-28T13:06:01.902Z</time></trkpt><trkpt lat="39.890404704451434" lon="9.567499673553698"><ele>330.3333333333333</ele><time>2026-04-28T13:06:02.902Z</time></trkpt><trkpt lat="39.8903667286851" lon="9.567639071717732"><ele>324.0</ele><time>2026-04-28T13:06:03.902Z</time></trkpt><trkpt lat="39.89023882758803" lon="9.56786677893954"><ele>316.0</ele><time>2026-04-28T13:06:04.902Z</time></trkpt><trkpt lat="39.890188561689136" lon="9.5681388284106"><ele>308.0</ele><time>2026-04-28T13:06:05.902Z</time></trkpt><trkpt lat="39.890180447963594" lon="9.568366324583684"><ele>300.0</ele><time>2026-04-28T13:06:06.902Z</time></trkpt><trkpt lat="39.89039394171677" lon="9.568205132735475"><ele>300.0</ele><time>2026-04-28T13:06:07.901Z</time></trkpt><trkpt lat="39.89056546375179" lon="9.568200204278504"><ele>300.0</ele><time>2026-04-28T13:06:08.901Z</time></trkpt><trkpt lat="39.890744584846075" lon="9.568200135006157"><ele>300.0</ele><time>2026-04-28T13:06:09.901Z</time></trkpt><trkpt lat="39.89092632535495" lon="9.568219678361931"><ele>296.3333333333333</ele><time>2026-04-28T13:06:10.901Z</time></trkpt><trkpt lat="39.89109550919701" lon="9.568233917345268"><ele>292.66666666666663</ele><time>2026-04-28T13:06:11.901Z</time></trkpt><trkpt lat="39.891261394373956" lon="9.568160421642927"><ele>289.0</ele><time>2026-04-28T13:06:12.901Z</time></trkpt><trkpt lat="39.89140743681242" lon="9.568032372532572"><ele>293.0</ele><time>2026-04-28T13:06:13.901Z</time></trkpt><trkpt lat="39.89153706252902" lon="9.567859986074133"><ele>297.0</ele><time>2026-04-28T13:06:14.901Z</time></trkpt><trkpt lat="39.891664983443654" lon="9.56770814338307"><ele>301.0</ele><time>2026-04-28T13:06:15.901Z</time></trkpt><trkpt lat="39.89180623113814" lon="9.567601619429201"><ele>301.0</ele><time>2026-04-28T13:06:16.901Z</time></trkpt><trkpt lat="39.89195987402614" lon="9.567577159186616"><ele>301.0</ele><time>2026-04-28T13:06:17.901Z</time></trkpt><trkpt lat="39.89212006546386" lon="9.567635755499664"><ele>301.0</ele><time>2026-04-28T13:06:18.901Z</time></trkpt><trkpt lat="39.89228094803127" lon="9.567602525854257"><ele>301.0</ele><time>2026-04-28T13:06:19.901Z</time></trkpt><trkpt lat="39.89243963318395" lon="9.567539442092531"><ele>301.0</ele><time>2026-04-28T13:06:20.901Z</time></trkpt><trkpt lat="39.89259488467655" lon="9.567581956826652"><ele>301.0</ele><time>2026-04-28T13:06:21.901Z</time></trkpt><trkpt lat="39.892745312173034" lon="9.567700628628302"><ele>298.3333333333333</ele><time>2026-04-28T13:06:22.901Z</time></trkpt><trkpt lat="39.89290621115135" lon="9.567768036073169"><ele>295.6666666666667</ele><time>2026-04-28T13:06:23.901Z</time></trkpt><trkpt lat="39.89307532470823" lon="9.567796624443698"><ele>293.0</ele><time>2026-04-28T13:06:24.901Z</time></trkpt><trkpt lat="39.893235275399384" lon="9.567813701767676"><ele>293.0</ele><time>2026-04-28T13:06:25.901Z</time></trkpt><trkpt lat="39.89338103323737" lon="9.567799374598227"><ele>293.0</ele><time>2026-04-28T13:06:26.901Z</time></trkpt><trkpt lat="39.89350212353044" lon="9.567757760855343"><ele>293.0</ele><time>2026-04-28T13:06:27.901Z</time></trkpt><trkpt lat="39.89358409838369" lon="9.567711278876923"><ele>293.0</ele><time>2026-04-28T13:06:28.901Z</time></trkpt><trkpt lat="39.893660842046785" lon="9.567854135997534"><ele>289.5</ele><time>2026-04-28T13:06:30.901Z</time></trkpt><trkpt lat="39.8935336972897" lon="9.568016457008463"><ele>286.0</ele><time>2026-04-28T13:06:31.901Z</time></trkpt><trkpt lat="39.89344651968962" lon="9.568133606122759"><ele>282.5</ele><time>2026-04-28T13:06:32.901Z</time></trkpt><trkpt lat="39.8933628529602" lon="9.568259469304842"><ele>279.0</ele><time>2026-04-28T13:06:33.901Z</time></trkpt><trkpt lat="39.89328920093367" lon="9.568391176363352"><ele>279.0</ele><time>2026-04-28T13:06:34.901Z</time></trkpt><trkpt lat="39.89320927158977" lon="9.568528301282175"><ele>279.0</ele><time>2026-04-28T13:06:35.901Z</time></trkpt><trkpt lat="39.893117308079155" lon="9.568656885203769"><ele>279.0</ele><time>2026-04-28T13:06:36.901Z</time></trkpt><trkpt lat="39.893008802150455" lon="9.568781155240863"><ele>279.0</ele><time>2026-04-28T13:06:37.901Z</time></trkpt><trkpt lat="39.89288662933778" lon="9.568890525380498"><ele>279.0</ele><time>2026-04-28T13:06:38.901Z</time></trkpt><trkpt lat="39.89277455817387" lon="9.569016443945847"><ele>279.0</ele><time>2026-04-28T13:06:39.901Z</time></trkpt><trkpt lat="39.892700029559705" lon="9.569181366751405"><ele>279.0</ele><time>2026-04-28T13:06:40.901Z</time></trkpt><trkpt lat="39.89269209324525" lon="9.569373204109224"><ele>279.0</ele><time>2026-04-28T13:06:41.901Z</time></trkpt><trkpt lat="39.892754942475364" lon="9.56954058378835"><ele>279.0</ele><time>2026-04-28T13:06:42.901Z</time></trkpt><trkpt lat="39.89287151911559" lon="9.569659571380189"><ele>279.0</ele><time>2026-04-28T13:06:43.901Z</time></trkpt><trkpt lat="39.89302874993294" lon="9.56971907389212"><ele>279.0</ele><time>2026-04-28T13:06:44.901Z</time></trkpt><trkpt lat="39.89318124582544" lon="9.569754713052367"><ele>279.0</ele><time>2026-04-28T13:06:45.901Z</time></trkpt><trkpt lat="39.893300688003414" lon="9.569859534141607"><ele>279.0</ele><time>2026-04-28T13:06:46.901Z</time></trkpt><trkpt lat="39.89333793915755" lon="9.570057616171177"><ele>279.0</ele><time>2026-04-28T13:06:47.901Z</time></trkpt><trkpt lat="39.89330997546747" lon="9.570288348692344"><ele>278.0</ele><time>2026-04-28T13:06:48.901Z</time></trkpt><trkpt lat="39.89325896885725" lon="9.570508695856237"><ele>277.0</ele><time>2026-04-28T13:06:49.901Z</time></trkpt><trkpt lat="39.893204897382624" lon="9.57071496953288"><ele>276.0</ele><time>2026-04-28T13:06:50.901Z</time></trkpt><trkpt lat="39.89310307298456" lon="9.570889134766002"><ele>276.0</ele><time>2026-04-28T13:06:51.901Z</time></trkpt><trkpt lat="39.89298586900037" lon="9.571050233382875"><ele>276.0</ele><time>2026-04-28T13:06:52.901Z</time></trkpt><trkpt lat="39.89291562959164" lon="9.571255414038047"><ele>276.0</ele><time>2026-04-28T13:06:53.901Z</time></trkpt><trkpt lat="39.89287972884616" lon="9.571478266279712"><ele>277.3333333333333</ele><time>2026-04-28T13:06:54.901Z</time></trkpt><trkpt lat="39.89283989294861" lon="9.57169542468825"><ele>278.66666666666663</ele><time>2026-04-28T13:06:55.901Z</time></trkpt><trkpt lat="39.892802640439996" lon="9.571914366659735"><ele>280.0</ele><time>2026-04-28T13:06:56.901Z</time></trkpt><trkpt lat="39.892765503175184" lon="9.572128940717997"><ele>276.75</ele><time>2026-04-28T13:06:57.901Z</time></trkpt><trkpt lat="39.89272267829599" lon="9.5723278576142"><ele>273.5</ele><time>2026-04-28T13:06:58.901Z</time></trkpt><trkpt lat="39.89270394249022" lon="9.572494612313672"><ele>270.25</ele><time>2026-04-28T13:06:59.901Z</time></trkpt><trkpt lat="39.892753437102044" lon="9.572642417252627"><ele>267.0</ele><time>2026-04-28T13:07:00.901Z</time></trkpt><trkpt lat="39.8928729946715" lon="9.572749308002974"><ele>267.0</ele><time>2026-04-28T13:07:01.901Z</time></trkpt><trkpt lat="39.89306357866998" lon="9.572796701739218"><ele>267.0</ele><time>2026-04-28T13:07:02.901Z</time></trkpt><trkpt lat="39.89324080349134" lon="9.572844655884182"><ele>267.0</ele><time>2026-04-28T13:07:03.901Z</time></trkpt><trkpt lat="39.89341959718848" lon="9.572914261064819"><ele>269.0</ele><time>2026-04-28T13:07:04.901Z</time></trkpt><trkpt lat="39.89356762086133" lon="9.572977642499776"><ele>271.0</ele><time>2026-04-28T13:07:05.901Z</time></trkpt><trkpt lat="39.893685132162304" lon="9.573057131160528"><ele>273.0</ele><time>2026-04-28T13:07:06.901Z</time></trkpt><trkpt lat="39.89372335333765" lon="9.573183524390984"><ele>275.0</ele><time>2026-04-28T13:07:07.901Z</time></trkpt><trkpt lat="39.893670211956895" lon="9.573332825437154"><ele>275.0</ele><time>2026-04-28T13:07:08.901Z</time></trkpt><trkpt lat="39.89356857613022" lon="9.573459272706655"><ele>275.0</ele><time>2026-04-28T13:07:09.901Z</time></trkpt><trkpt lat="39.89343566073823" lon="9.573560805813093"><ele>275.0</ele><time>2026-04-28T13:07:10.901Z</time></trkpt><trkpt lat="39.89330332785275" lon="9.573692016535903"><ele>270.0</ele><time>2026-04-28T13:07:11.901Z</time></trkpt><trkpt lat="39.893164298214074" lon="9.573856582179323"><ele>265.0</ele><time>2026-04-28T13:07:12.902Z</time></trkpt><trkpt lat="39.89301192938765" lon="9.574030441925375"><ele>260.0</ele><time>2026-04-28T13:07:13.902Z</time></trkpt><trkpt lat="39.89286593569571" lon="9.574200019164895"><ele>260.0</ele><time>2026-04-28T13:07:14.902Z</time></trkpt><trkpt lat="39.89272981619262" lon="9.574355230404608"><ele>260.0</ele><time>2026-04-28T13:07:15.902Z</time></trkpt><trkpt lat="39.89260714609033" lon="9.574497572257986"><ele>260.0</ele><time>2026-04-28T13:07:16.901Z</time></trkpt><trkpt lat="39.89250501748306" lon="9.574646403320623"><ele>253.0</ele><time>2026-04-28T13:07:17.901Z</time></trkpt><trkpt lat="39.89245526709364" lon="9.574827835824879"><ele>246.0</ele><time>2026-04-28T13:07:18.902Z</time></trkpt><trkpt lat="39.89248079790109" lon="9.575040909884274"><ele>239.0</ele><time>2026-04-28T13:07:19.902Z</time></trkpt><trkpt lat="39.89255774594102" lon="9.575272828613324"><ele>245.0</ele><time>2026-04-28T13:07:20.902Z</time></trkpt><trkpt lat="39.892626878863" lon="9.575516755473865"><ele>251.0</ele><time>2026-04-28T13:07:21.902Z</time></trkpt><trkpt lat="39.89266588764494" lon="9.575779114293697"><ele>257.0</ele><time>2026-04-28T13:07:22.902Z</time></trkpt><trkpt lat="39.892665382466475" lon="9.576050490637247"><ele>254.33333333333334</ele><time>2026-04-28T13:07:23.902Z</time></trkpt><trkpt lat="39.8926526647043" lon="9.576293991276525"><ele>251.66666666666669</ele><time>2026-04-28T13:07:24.902Z</time></trkpt><trkpt lat="39.8926151618401" lon="9.57649649166566"><ele>249.0</ele><time>2026-04-28T13:07:25.902Z</time></trkpt><trkpt lat="39.892531408131035" lon="9.576649323438591"><ele>244.33333333333331</ele><time>2026-04-28T13:07:26.902Z</time></trkpt><trkpt lat="39.892390056536925" lon="9.576745504795271"><ele>239.66666666666666</ele><time>2026-04-28T13:07:27.902Z</time></trkpt><trkpt lat="39.89223955757743" lon="9.576850512071463"><ele>235.0</ele><time>2026-04-28T13:07:28.902Z</time></trkpt><trkpt lat="39.892127422818966" lon="9.577034194466671"><ele>235.0</ele><time>2026-04-28T13:07:29.902Z</time></trkpt><trkpt lat="39.89207108336916" lon="9.577281605427055"><ele>235.0</ele><time>2026-04-28T13:07:30.902Z</time></trkpt><trkpt lat="39.8920299859097" lon="9.57750584017683"><ele>235.0</ele><time>2026-04-28T13:07:31.902Z</time></trkpt><trkpt lat="39.89199068531261" lon="9.577710116808747"><ele>235.0</ele><time>2026-04-28T13:07:32.902Z</time></trkpt><trkpt lat="39.892004951654116" lon="9.577910679488829"><ele>235.0</ele><time>2026-04-28T13:07:33.902Z</time></trkpt><trkpt lat="39.89207190360879" lon="9.578114792991581"><ele>235.0</ele><time>2026-04-28T13:07:34.902Z</time></trkpt><trkpt lat="39.892170648047376" lon="9.578344188817992"><ele>235.0</ele><time>2026-04-28T13:07:35.902Z</time></trkpt><trkpt lat="39.892178161955506" lon="9.578591198894914"><ele>235.0</ele><time>2026-04-28T13:07:36.902Z</time></trkpt><trkpt lat="39.89210546906461" lon="9.578796966966179"><ele>235.0</ele><time>2026-04-28T13:07:37.902Z</time></trkpt><trkpt lat="39.89203896421323" lon="9.578963538139956"><ele>233.33333333333331</ele><time>2026-04-28T13:07:38.902Z</time></trkpt><trkpt lat="39.892060957439945" lon="9.57914528752985"><ele>231.66666666666669</ele><time>2026-04-28T13:07:39.901Z</time></trkpt><trkpt lat="39.892142728153246" lon="9.579320055679494"><ele>230.0</ele><time>2026-04-28T13:07:40.901Z</time></trkpt><trkpt lat="39.89226471049531" lon="9.57950648280154"><ele>226.66666666666669</ele><time>2026-04-28T13:07:41.901Z</time></trkpt><trkpt lat="39.89234617963574" lon="9.579740385424833"><ele>223.33333333333331</ele><time>2026-04-28T13:07:42.901Z</time></trkpt><trkpt lat="39.89233830016865" lon="9.579983993620674"><ele>220.0</ele><time>2026-04-28T13:07:43.901Z</time></trkpt><trkpt lat="39.892258397079104" lon="9.580218037961545"><ele>216.33333333333331</ele><time>2026-04-28T13:07:44.901Z</time></trkpt><trkpt lat="39.892170330201026" lon="9.580425890888012"><ele>212.66666666666669</ele><time>2026-04-28T13:07:45.901Z</time></trkpt><trkpt lat="39.89212640902062" lon="9.58062908759595"><ele>209.0</ele><time>2026-04-28T13:07:46.901Z</time></trkpt><trkpt lat="39.89212641964425" lon="9.580843078540049"><ele>209.0</ele><time>2026-04-28T13:07:47.901Z</time></trkpt><trkpt lat="39.89218478789285" lon="9.581044760979143"><ele>209.0</ele><time>2026-04-28T13:07:48.901Z</time></trkpt><trkpt lat="39.89229075264026" lon="9.581169446669525"><ele>209.0</ele><time>2026-04-28T13:07:49.901Z</time></trkpt><trkpt lat="39.89241301452062" lon="9.581229117022112"><ele>209.0</ele><time>2026-04-28T13:07:50.901Z</time></trkpt><trkpt lat="39.89258424869623" lon="9.581213443877433"><ele>205.66666666666669</ele><time>2026-04-28T13:07:51.901Z</time></trkpt><trkpt lat="39.892774928567256" lon="9.581166159228705"><ele>202.33333333333331</ele><time>2026-04-28T13:07:52.901Z</time></trkpt><trkpt lat="39.892957865768174" lon="9.581169194380617"><ele>199.0</ele><time>2026-04-28T13:07:53.901Z</time></trkpt><trkpt lat="39.8931357540434" lon="9.581187210212644"><ele>199.0</ele><time>2026-04-28T13:07:54.901Z</time></trkpt><trkpt lat="39.893274572403335" lon="9.581168492710942"><ele>199.0</ele><time>2026-04-28T13:07:55.901Z</time></trkpt><trkpt lat="39.89337173445159" lon="9.581058049523515"><ele>199.0</ele><time>2026-04-28T13:07:56.901Z</time></trkpt><trkpt lat="39.89341555392053" lon="9.580872458771331"><ele>199.0</ele><time>2026-04-28T13:07:57.901Z</time></trkpt><trkpt lat="39.893431250634514" lon="9.58067423819866"><ele>202.33333333333331</ele><time>2026-04-28T13:07:58.901Z</time></trkpt><trkpt lat="39.89352982938195" lon="9.58051929920192"><ele>205.66666666666669</ele><time>2026-04-28T13:07:59.901Z</time></trkpt><trkpt lat="39.89367611530893" lon="9.580410030309723"><ele>209.0</ele><time>2026-04-28T13:08:00.901Z</time></trkpt><trkpt lat="39.8938423280328" lon="9.580336906808457"><ele>209.0</ele><time>2026-04-28T13:08:01.901Z</time></trkpt><trkpt lat="39.894019468384855" lon="9.580303560304365"><ele>209.0</ele><time>2026-04-28T13:08:02.901Z</time></trkpt><trkpt lat="39.89420621480418" lon="9.580316735197336"><ele>209.0</ele><time>2026-04-28T13:08:03.901Z</time></trkpt><trkpt lat="39.89439796103476" lon="9.580316354290837"><ele>207.33333333333334</ele><time>2026-04-28T13:08:04.901Z</time></trkpt><trkpt lat="39.89458265189952" lon="9.580328654276272"><ele>205.66666666666669</ele><time>2026-04-28T13:08:05.901Z</time></trkpt><trkpt lat="39.89476817357197" lon="9.580405351674774"><ele>204.0</ele><time>2026-04-28T13:08:06.901Z</time></trkpt><trkpt lat="39.8949568781487" lon="9.580518500486631"><ele>190.66666666666666</ele><time>2026-04-28T13:08:07.901Z</time></trkpt><trkpt lat="39.89513729878645" lon="9.58058566245329"><ele>177.33333333333331</ele><time>2026-04-28T13:08:08.901Z</time></trkpt><trkpt lat="39.895315016885924" lon="9.580587578160044"><ele>164.0</ele><time>2026-04-28T13:08:09.901Z</time></trkpt><trkpt lat="39.89548407276369" lon="9.580539461473286"><ele>164.0</ele><time>2026-04-28T13:08:10.901Z</time></trkpt><trkpt lat="39.89564113514583" lon="9.580413490484734"><ele>164.0</ele><time>2026-04-28T13:08:11.901Z</time></trkpt><trkpt lat="39.89577076458574" lon="9.580253709137857"><ele>164.0</ele><time>2026-04-28T13:08:12.901Z</time></trkpt><trkpt lat="39.89590986661256" lon="9.580122056748397"><ele>169.33333333333331</ele><time>2026-04-28T13:08:13.901Z</time></trkpt><trkpt lat="39.89607651085744" lon="9.580072565024956"><ele>174.66666666666666</ele><time>2026-04-28T13:08:14.901Z</time></trkpt><trkpt lat="39.89623957896839" lon="9.580088168032132"><ele>180.0</ele><time>2026-04-28T13:08:15.901Z</time></trkpt><trkpt lat="39.89638593343502" lon="9.580032625857063"><ele>180.0</ele><time>2026-04-28T13:08:16.901Z</time></trkpt><trkpt lat="39.89653598215282" lon="9.579955454573561"><ele>180.0</ele><time>2026-04-28T13:08:17.901Z</time></trkpt><trkpt lat="39.896672383739855" lon="9.579997386182121"><ele>180.0</ele><time>2026-04-28T13:08:18.901Z</time></trkpt><trkpt lat="39.8968317563725" lon="9.580119997474107"><ele>177.0</ele><time>2026-04-28T13:08:19.901Z</time></trkpt><trkpt lat="39.89698743087538" lon="9.58018530752796"><ele>174.0</ele><time>2026-04-28T13:08:20.901Z</time></trkpt><trkpt lat="39.8971633228683" lon="9.580153234113393"><ele>171.0</ele><time>2026-04-28T13:08:21.901Z</time></trkpt><trkpt lat="39.897334137019165" lon="9.580043559637248"><ele>171.0</ele><time>2026-04-28T13:08:22.901Z</time></trkpt><trkpt lat="39.89748951745568" lon="9.579905546775276"><ele>171.0</ele><time>2026-04-28T13:08:23.901Z</time></trkpt><trkpt lat="39.89760632193908" lon="9.57973491772331"><ele>171.0</ele><time>2026-04-28T13:08:24.901Z</time></trkpt><trkpt lat="39.89770241140215" lon="9.579541263687371"><ele>170.5</ele><time>2026-04-28T13:08:25.901Z</time></trkpt><trkpt lat="39.89776892582707" lon="9.57934565947855"><ele>170.0</ele><time>2026-04-28T13:08:26.901Z</time></trkpt><trkpt lat="39.897845594902115" lon="9.579203378306094"><ele>169.5</ele><time>2026-04-28T13:08:27.901Z</time></trkpt><trkpt lat="39.89790305335001" lon="9.579115808563596"><ele>169.0</ele><time>2026-04-28T13:08:28.901Z</time></trkpt><trkpt lat="39.89796995798797" lon="9.579078593116247"><ele>169.0</ele><time>2026-04-28T13:08:29.901Z</time></trkpt><trkpt lat="39.89803393332146" lon="9.579120004486292"><ele>169.0</ele><time>2026-04-28T13:08:30.901Z</time></trkpt><trkpt lat="39.89804135129389" lon="9.579236393513963"><ele>169.0</ele><time>2026-04-28T13:08:31.901Z</time></trkpt><trkpt lat="39.897956584813116" lon="9.579349782105643"><ele>169.0</ele><time>2026-04-28T13:08:32.901Z</time></trkpt><trkpt lat="39.897839870785376" lon="9.579443113869136"><ele>169.0</ele><time>2026-04-28T13:08:33.901Z</time></trkpt><trkpt lat="39.89773896547422" lon="9.57956414597762"><ele>169.5</ele><time>2026-04-28T13:08:34.901Z</time></trkpt><trkpt lat="39.89767102040447" lon="9.57972529975093"><ele>170.0</ele><time>2026-04-28T13:08:35.901Z</time></trkpt><trkpt lat="39.89762943909636" lon="9.579917372447804"><ele>170.5</ele><time>2026-04-28T13:08:36.901Z</time></trkpt><trkpt lat="39.8975902097727" lon="9.580108514800473"><ele>171.0</ele><time>2026-04-28T13:08:37.901Z</time></trkpt><trkpt lat="39.89755415314042" lon="9.580271626601842"><ele>169.66666666666666</ele><time>2026-04-28T13:08:38.901Z</time></trkpt><trkpt lat="39.89752398755584" lon="9.580406927011959"><ele>168.33333333333334</ele><time>2026-04-28T13:08:39.901Z</time></trkpt><trkpt lat="39.89750079263231" lon="9.58049099659578"><ele>167.0</ele><time>2026-04-28T13:08:40.901Z</time></trkpt><trkpt lat="39.89747020889465" lon="9.580582725409627"><ele>165.66666666666669</ele><time>2026-04-28T13:08:43.901Z</time></trkpt><trkpt lat="39.897517299699636" lon="9.580646858953832"><ele>164.33333333333334</ele><time>2026-04-28T13:11:52.901Z</time></trkpt><trkpt lat="39.89757748291927" lon="9.580770478722842"><ele>163.0</ele><time>2026-04-28T13:11:54.901Z</time></trkpt><trkpt lat="39.8976266924964" lon="9.580854719607869"><ele>162.0</ele><time>2026-04-28T13:11:55.901Z</time></trkpt><trkpt lat="39.897699388472375" lon="9.580944366301258"><ele>161.0</ele><time>2026-04-28T13:11:56.901Z</time></trkpt><trkpt lat="39.89778351730592" lon="9.581012716797636"><ele>160.0</ele><time>2026-04-28T13:11:57.901Z</time></trkpt><trkpt lat="39.897880920997636" lon="9.581069939418716"><ele>159.0</ele><time>2026-04-28T13:11:58.901Z</time></trkpt><trkpt lat="39.89798593386813" lon="9.58111699310299"><ele>158.0</ele><time>2026-04-28T13:11:59.901Z</time></trkpt><trkpt lat="39.89808932085866" lon="9.58114862515448"><ele>158.0</ele><time>2026-04-28T13:12:00.901Z</time></trkpt><trkpt lat="39.89820166765866" lon="9.581162022130307"><ele>158.0</ele><time>2026-04-28T13:12:01.901Z</time></trkpt><trkpt lat="39.89831071218141" lon="9.58113259800817"><ele>158.0</ele><time>2026-04-28T13:12:02.901Z</time></trkpt><trkpt lat="39.89841071997664" lon="9.581057979306612"><ele>158.0</ele><time>2026-04-28T13:12:03.901Z</time></trkpt><trkpt lat="39.898488894545224" lon="9.580941566885592"><ele>160.0</ele><time>2026-04-28T13:12:04.901Z</time></trkpt><trkpt lat="39.89857409463323" lon="9.580806392804053"><ele>162.0</ele><time>2026-04-28T13:12:05.901Z</time></trkpt><trkpt lat="39.89865432703072" lon="9.580655543307694"><ele>164.0</ele><time>2026-04-28T13:12:06.901Z</time></trkpt><trkpt lat="39.89875167472543" lon="9.580496612336598"><ele>166.0</ele><time>2026-04-28T13:12:07.901Z</time></trkpt><trkpt lat="39.89884741590946" lon="9.580362929396228"><ele>164.0</ele><time>2026-04-28T13:12:08.901Z</time></trkpt><trkpt lat="39.89893981817997" lon="9.580245323961027"><ele>162.0</ele><time>2026-04-28T13:12:09.901Z</time></trkpt><trkpt lat="39.89903856509493" lon="9.580152583656817"><ele>160.0</ele><time>2026-04-28T13:12:10.901Z</time></trkpt><trkpt lat="39.89915830742519" lon="9.580083168512804"><ele>158.0</ele><time>2026-04-28T13:12:11.901Z</time></trkpt><trkpt lat="39.89929211118603" lon="9.58005572766611"><ele>158.0</ele><time>2026-04-28T13:12:12.901Z</time></trkpt><trkpt lat="39.899438429975476" lon="9.58004125767747"><ele>158.0</ele><time>2026-04-28T13:12:13.901Z</time></trkpt><trkpt lat="39.899583443021704" lon="9.580011978897662"><ele>158.0</ele><time>2026-04-28T13:12:14.901Z</time></trkpt><trkpt lat="39.89973113747393" lon="9.579934944549995"><ele>158.0</ele><time>2026-04-28T13:12:15.901Z</time></trkpt><trkpt lat="39.89987024926525" lon="9.579810836544281"><ele>158.0</ele><time>2026-04-28T13:12:16.901Z</time></trkpt><trkpt lat="39.90001496544166" lon="9.579702640681589"><ele>158.0</ele><time>2026-04-28T13:12:17.901Z</time></trkpt><trkpt lat="39.90016763602288" lon="9.579601004552309"><ele>153.66666666666666</ele><time>2026-04-28T13:12:18.901Z</time></trkpt><trkpt lat="39.900319073203484" lon="9.579512783171616"><ele>149.33333333333334</ele><time>2026-04-28T13:12:19.901Z</time></trkpt><trkpt lat="39.90047218487897" lon="9.57944937843907"><ele>145.0</ele><time>2026-04-28T13:12:20.901Z</time></trkpt><trkpt lat="39.90064566845307" lon="9.579399334441796"><ele>145.0</ele><time>2026-04-28T13:12:21.901Z</time></trkpt><trkpt lat="39.900815353645314" lon="9.579355887865107"><ele>145.0</ele><time>2026-04-28T13:12:22.901Z</time></trkpt><trkpt lat="39.900980926689265" lon="9.57934490143779"><ele>145.0</ele><time>2026-04-28T13:12:23.901Z</time></trkpt><trkpt lat="39.901144775187" lon="9.579388020836559"><ele>145.0</ele><time>2026-04-28T13:12:24.901Z</time></trkpt><trkpt lat="39.90128578856309" lon="9.579464296679438"><ele>145.0</ele><time>2026-04-28T13:12:25.901Z</time></trkpt><trkpt lat="39.90138784123199" lon="9.579565572424144"><ele>145.0</ele><time>2026-04-28T13:12:26.901Z</time></trkpt><trkpt lat="39.90144646066331" lon="9.579723002058202"><ele>145.0</ele><time>2026-04-28T13:12:27.901Z</time></trkpt><trkpt lat="39.90145918574572" lon="9.579930500232184"><ele>144.5</ele><time>2026-04-28T13:12:28.901Z</time></trkpt><trkpt lat="39.901471230106104" lon="9.580136420945168"><ele>144.0</ele><time>2026-04-28T13:12:29.901Z</time></trkpt><trkpt lat="39.901522222782724" lon="9.580317080017217"><ele>143.5</ele><time>2026-04-28T13:12:30.901Z</time></trkpt><trkpt lat="39.9016091532713" lon="9.580446779296599"><ele>143.0</ele><time>2026-04-28T13:12:31.901Z</time></trkpt><trkpt lat="39.90172822934328" lon="9.580482550052764"><ele>140.5</ele><time>2026-04-28T13:12:32.901Z</time></trkpt><trkpt lat="39.9019029365513" lon="9.580486221917292"><ele>138.0</ele><time>2026-04-28T13:12:33.901Z</time></trkpt><trkpt lat="39.90205783097039" lon="9.580471704550153"><ele>135.5</ele><time>2026-04-28T13:12:34.901Z</time></trkpt><trkpt lat="39.902150566008714" lon="9.58053988141782"><ele>133.0</ele><time>2026-04-28T13:12:35.901Z</time></trkpt><trkpt lat="39.90219154751936" lon="9.580689143638004"><ele>133.0</ele><time>2026-04-28T13:12:36.901Z</time></trkpt><trkpt lat="39.90220881142049" lon="9.58087273852753"><ele>133.0</ele><time>2026-04-28T13:12:37.901Z</time></trkpt><trkpt lat="39.902235129645526" lon="9.581034986468167"><ele>133.0</ele><time>2026-04-28T13:12:38.901Z</time></trkpt><trkpt lat="39.902319320717496" lon="9.581129750520308"><ele>133.0</ele><time>2026-04-28T13:12:39.901Z</time></trkpt><trkpt lat="39.902434243791625" lon="9.581129522432475"><ele>130.0</ele><time>2026-04-28T13:12:40.901Z</time></trkpt><trkpt lat="39.902584215704685" lon="9.581061157633151"><ele>127.0</ele><time>2026-04-28T13:12:41.901Z</time></trkpt><trkpt lat="39.90275075117898" lon="9.58096375013031"><ele>124.0</ele><time>2026-04-28T13:12:42.901Z</time></trkpt><trkpt lat="39.902926051623666" lon="9.580865994736651"><ele>124.0</ele><time>2026-04-28T13:12:43.901Z</time></trkpt><trkpt lat="39.90306776401746" lon="9.580728792721642"><ele>124.0</ele><time>2026-04-28T13:12:44.901Z</time></trkpt><trkpt lat="39.90318981517299" lon="9.580562274194813"><ele>124.0</ele><time>2026-04-28T13:12:45.901Z</time></trkpt><trkpt lat="39.903328728485484" lon="9.580440342445211"><ele>122.33333333333334</ele><time>2026-04-28T13:12:46.901Z</time></trkpt><trkpt lat="39.90349538870153" lon="9.58038993727091"><ele>120.66666666666666</ele><time>2026-04-28T13:12:47.9Z</time></trkpt><trkpt lat="39.90365647382315" lon="9.580364476289025"><ele>119.0</ele><time>2026-04-28T13:12:48.9Z</time></trkpt><trkpt lat="39.903779661018554" lon="9.580277657589527"><ele>119.0</ele><time>2026-04-28T13:12:49.9Z</time></trkpt><trkpt lat="39.90388034902078" lon="9.580129980584015"><ele>119.0</ele><time>2026-04-28T13:12:50.9Z</time></trkpt><trkpt lat="39.90398425170171" lon="9.579992925669679"><ele>119.0</ele><time>2026-04-28T13:12:51.9Z</time></trkpt><trkpt lat="39.90410939555273" lon="9.579943622926868"><ele>119.0</ele><time>2026-04-28T13:12:52.9Z</time></trkpt><trkpt lat="39.90425849689401" lon="9.579987901583188"><ele>118.0</ele><time>2026-04-28T13:12:53.9Z</time></trkpt><trkpt lat="39.90440516120266" lon="9.58006446060963"><ele>117.0</ele><time>2026-04-28T13:12:54.9Z</time></trkpt><trkpt lat="39.90450822675862" lon="9.580173304993204"><ele>116.0</ele><time>2026-04-28T13:12:55.9Z</time></trkpt><trkpt lat="39.90454339297542" lon="9.580327796636581"><ele>115.0</ele><time>2026-04-28T13:12:56.9Z</time></trkpt><trkpt lat="39.90449597872826" lon="9.580498197205127"><ele>116.0</ele><time>2026-04-28T13:12:57.9Z</time></trkpt><trkpt lat="39.9044112306482" lon="9.58068268678056"><ele>117.0</ele><time>2026-04-28T13:12:58.9Z</time></trkpt><trkpt lat="39.904315888881634" lon="9.580874479441867"><ele>118.0</ele><time>2026-04-28T13:12:59.9Z</time></trkpt><trkpt lat="39.90422372231" lon="9.581051949153768"><ele>114.66666666666667</ele><time>2026-04-28T13:13:00.9Z</time></trkpt><trkpt lat="39.90413821376566" lon="9.581229179529338"><ele>111.33333333333334</ele><time>2026-04-28T13:13:01.9Z</time></trkpt><trkpt lat="39.90404927135493" lon="9.581403283047418"><ele>108.0</ele><time>2026-04-28T13:13:02.9Z</time></trkpt><trkpt lat="39.903974515285974" lon="9.581589192368723"><ele>108.0</ele><time>2026-04-28T13:13:03.9Z</time></trkpt><trkpt lat="39.903937468638894" lon="9.581788857164195"><ele>108.0</ele><time>2026-04-28T13:13:04.9Z</time></trkpt><trkpt lat="39.903953341476935" lon="9.581989894307267"><ele>108.0</ele><time>2026-04-28T13:13:05.9Z</time></trkpt><trkpt lat="39.90400312378917" lon="9.582188827977749"><ele>107.0</ele><time>2026-04-28T13:13:06.9Z</time></trkpt><trkpt lat="39.90407972124877" lon="9.582382081602791"><ele>106.0</ele><time>2026-04-28T13:13:07.9Z</time></trkpt><trkpt lat="39.90418214448211" lon="9.58256130804953"><ele>105.0</ele><time>2026-04-28T13:13:08.9Z</time></trkpt><trkpt lat="39.90430068445802" lon="9.58273808573033"><ele>101.33333333333333</ele><time>2026-04-28T13:13:09.9Z</time></trkpt><trkpt lat="39.90441824027659" lon="9.582914262621173"><ele>97.66666666666666</ele><time>2026-04-28T13:13:10.9Z</time></trkpt><trkpt lat="39.90455715062173" lon="9.583083972318827"><ele>94.0</ele><time>2026-04-28T13:13:11.9Z</time></trkpt><trkpt lat="39.904712931836215" lon="9.583235770109004"><ele>94.0</ele><time>2026-04-28T13:13:12.9Z</time></trkpt><trkpt lat="39.90487235262302" lon="9.583382031625064"><ele>94.0</ele><time>2026-04-28T13:13:13.9Z</time></trkpt><trkpt lat="39.905027125081254" lon="9.58353504306297"><ele>94.0</ele><time>2026-04-28T13:13:14.9Z</time></trkpt><trkpt lat="39.90517904374109" lon="9.583698637527082"><ele>94.33333333333333</ele><time>2026-04-28T13:13:15.9Z</time></trkpt><trkpt lat="39.90533564019542" lon="9.583861585238948"><ele>94.66666666666667</ele><time>2026-04-28T13:13:16.9Z</time></trkpt><trkpt lat="39.90549264184546" lon="9.584012234760458"><ele>95.0</ele><time>2026-04-28T13:13:17.9Z</time></trkpt><trkpt lat="39.905659066169285" lon="9.58414361099352"><ele>95.0</ele><time>2026-04-28T13:13:18.9Z</time></trkpt><trkpt lat="39.9058326205669" lon="9.584239580188976"><ele>95.0</ele><time>2026-04-28T13:13:19.9Z</time></trkpt><trkpt lat="39.90601993673807" lon="9.584310086748674"><ele>95.0</ele><time>2026-04-28T13:13:20.9Z</time></trkpt><trkpt lat="39.90621413340359" lon="9.584376742994726"><ele>95.0</ele><time>2026-04-28T13:13:21.9Z</time></trkpt><trkpt lat="39.90641541405327" lon="9.584443674171656"><ele>95.0</ele><time>2026-04-28T13:13:22.9Z</time></trkpt><trkpt lat="39.90661809355233" lon="9.584512910050641"><ele>95.0</ele><time>2026-04-28T13:13:23.9Z</time></trkpt><trkpt lat="39.90682244413371" lon="9.584587652546709"><ele>93.66666666666667</ele><time>2026-04-28T13:13:24.9Z</time></trkpt><trkpt lat="39.907026311789934" lon="9.584682854225305"><ele>92.33333333333333</ele><time>2026-04-28T13:13:25.9Z</time></trkpt><trkpt lat="39.90722464167227" lon="9.584794381319114"><ele>91.0</ele><time>2026-04-28T13:13:26.9Z</time></trkpt><trkpt lat="39.90741352232576" lon="9.584921857459312"><ele>91.66666666666666</ele><time>2026-04-28T13:13:27.9Z</time></trkpt><trkpt lat="39.90759891249681" lon="9.585054348316728"><ele>92.33333333333333</ele><time>2026-04-28T13:13:28.9Z</time></trkpt><trkpt lat="39.90777874356356" lon="9.585207078425578"><ele>93.0</ele><time>2026-04-28T13:13:29.9Z</time></trkpt><trkpt lat="39.907944465305384" lon="9.585376006041848"><ele>91.0</ele><time>2026-04-28T13:13:30.9Z</time></trkpt><trkpt lat="39.908099690818005" lon="9.585558945627"><ele>89.0</ele><time>2026-04-28T13:13:31.9Z</time></trkpt><trkpt lat="39.90824624406932" lon="9.58575075522099"><ele>87.0</ele><time>2026-04-28T13:13:32.9Z</time></trkpt><trkpt lat="39.908390175181864" lon="9.58595341572857"><ele>87.33333333333333</ele><time>2026-04-28T13:13:33.9Z</time></trkpt><trkpt lat="39.908517277278314" lon="9.586164169230512"><ele>87.66666666666666</ele><time>2026-04-28T13:13:34.9Z</time></trkpt><trkpt lat="39.90863486815593" lon="9.586384814456858"><ele>88.0</ele><time>2026-04-28T13:13:35.9Z</time></trkpt><trkpt lat="39.90874461755782" lon="9.5866101840079"><ele>88.33333333333333</ele><time>2026-04-28T13:13:36.9Z</time></trkpt><trkpt lat="39.908863380694825" lon="9.586827472461092"><ele>88.66666666666667</ele><time>2026-04-28T13:13:37.901Z</time></trkpt><trkpt lat="39.908972292897566" lon="9.587037096355372"><ele>89.0</ele><time>2026-04-28T13:13:38.901Z</time></trkpt><trkpt lat="39.909044916478514" lon="9.587243524048656"><ele>89.0</ele><time>2026-04-28T13:13:39.901Z</time></trkpt><trkpt lat="39.90906779009893" lon="9.587484897252612"><ele>89.0</ele><time>2026-04-28T13:13:40.9Z</time></trkpt><trkpt lat="39.90908408876083" lon="9.587739655437758"><ele>89.0</ele><time>2026-04-28T13:13:41.9Z</time></trkpt><trkpt lat="39.90914451535433" lon="9.587980967033422"><ele>90.0</ele><time>2026-04-28T13:13:42.9Z</time></trkpt><trkpt lat="39.90923629415677" lon="9.588200742975316"><ele>91.0</ele><time>2026-04-28T13:13:43.901Z</time></trkpt><trkpt lat="39.90936667495104" lon="9.588407927378547"><ele>92.0</ele><time>2026-04-28T13:13:44.901Z</time></trkpt><trkpt lat="39.90953195581374" lon="9.5885725083079"><ele>92.0</ele><time>2026-04-28T13:13:45.9Z</time></trkpt><trkpt lat="39.90970415740018" lon="9.588660014890825"><ele>92.0</ele><time>2026-04-28T13:13:46.9Z</time></trkpt><trkpt lat="39.90989054205837" lon="9.588716828181898"><ele>92.0</ele><time>2026-04-28T13:13:47.9Z</time></trkpt><trkpt lat="39.910086632760226" lon="9.588779120211187"><ele>90.0</ele><time>2026-04-28T13:13:48.9Z</time></trkpt><trkpt lat="39.91026198138884" lon="9.588889884401162"><ele>88.0</ele><time>2026-04-28T13:13:49.9Z</time></trkpt><trkpt lat="39.91042203854619" lon="9.5890549340773"><ele>86.0</ele><time>2026-04-28T13:13:50.9Z</time></trkpt><trkpt lat="39.910558965064666" lon="9.589248724358562"><ele>86.0</ele><time>2026-04-28T13:13:51.9Z</time></trkpt><trkpt lat="39.910682263567615" lon="9.589478562779364"><ele>86.0</ele><time>2026-04-28T13:13:52.9Z</time></trkpt><trkpt lat="39.9108098140926" lon="9.589714781737134"><ele>86.0</ele><time>2026-04-28T13:13:53.9Z</time></trkpt><trkpt lat="39.91093474293624" lon="9.589950462248053"><ele>85.33333333333334</ele><time>2026-04-28T13:13:54.9Z</time></trkpt><trkpt lat="39.91105456895683" lon="9.590192833811438"><ele>84.66666666666667</ele><time>2026-04-28T13:13:55.9Z</time></trkpt><trkpt lat="39.91117630792446" lon="9.590437291983012"><ele>84.0</ele><time>2026-04-28T13:13:56.9Z</time></trkpt><trkpt lat="39.911298780079946" lon="9.590681597696609"><ele>83.0</ele><time>2026-04-28T13:13:57.9Z</time></trkpt><trkpt lat="39.911421306631254" lon="9.590928898952333"><ele>82.0</ele><time>2026-04-28T13:13:58.9Z</time></trkpt><trkpt lat="39.9115433702957" lon="9.59117812371345"><ele>80.33333333333333</ele><time>2026-04-28T13:13:59.9Z</time></trkpt><trkpt lat="39.911663519173146" lon="9.591418529269033"><ele>78.66666666666667</ele><time>2026-04-28T13:14:00.9Z</time></trkpt><trkpt lat="39.91178129892751" lon="9.5916573106711"><ele>77.0</ele><time>2026-04-28T13:14:01.9Z</time></trkpt><trkpt lat="39.91189665276123" lon="9.591896977663906"><ele>79.33333333333334</ele><time>2026-04-28T13:14:02.9Z</time></trkpt><trkpt lat="39.91200867214161" lon="9.592136564756451"><ele>81.66666666666667</ele><time>2026-04-28T13:14:03.9Z</time></trkpt><trkpt lat="39.912106984994686" lon="9.592385944325088"><ele>84.0</ele><time>2026-04-28T13:14:04.9Z</time></trkpt><trkpt lat="39.912164251207834" lon="9.592651929750636"><ele>85.0</ele><time>2026-04-28T13:14:05.9Z</time></trkpt><trkpt lat="39.91218667366399" lon="9.59292624451109"><ele>86.0</ele><time>2026-04-28T13:14:06.9Z</time></trkpt><trkpt lat="39.9121655764541" lon="9.593195387236872"><ele>87.0</ele><time>2026-04-28T13:14:07.9Z</time></trkpt><trkpt lat="39.91209310540334" lon="9.593453818864107"><ele>87.0</ele><time>2026-04-28T13:14:08.9Z</time></trkpt><trkpt lat="39.911964056545656" lon="9.593664341836238"><ele>87.0</ele><time>2026-04-28T13:14:09.9Z</time></trkpt><trkpt lat="39.911796963167184" lon="9.593826229645527"><ele>87.0</ele><time>2026-04-28T13:14:10.9Z</time></trkpt><trkpt lat="39.91161872246475" lon="9.593961987847413"><ele>86.0</ele><time>2026-04-28T13:14:11.9Z</time></trkpt><trkpt lat="39.91147271668204" lon="9.594150654684416"><ele>85.0</ele><time>2026-04-28T13:14:12.9Z</time></trkpt><trkpt lat="39.91135545902943" lon="9.594399503254692"><ele>84.0</ele><time>2026-04-28T13:14:13.9Z</time></trkpt><trkpt lat="39.91126264145088" lon="9.59466782005914"><ele>82.33333333333333</ele><time>2026-04-28T13:14:14.9Z</time></trkpt><trkpt lat="39.911173446750034" lon="9.594923916843223"><ele>80.66666666666666</ele><time>2026-04-28T13:14:15.9Z</time></trkpt><trkpt lat="39.911086095137165" lon="9.595156587957096"><ele>79.0</ele><time>2026-04-28T13:14:16.9Z</time></trkpt><trkpt lat="39.911036151149816" lon="9.595374375206804"><ele>79.0</ele><time>2026-04-28T13:14:17.9Z</time></trkpt><trkpt lat="39.91105435941994" lon="9.595601974097894"><ele>79.0</ele><time>2026-04-28T13:14:18.9Z</time></trkpt><trkpt lat="39.911126290278794" lon="9.595813139198041"><ele>79.0</ele><time>2026-04-28T13:14:19.9Z</time></trkpt><trkpt lat="39.911255825223826" lon="9.595991057013634"><ele>79.0</ele><time>2026-04-28T13:14:20.9Z</time></trkpt><trkpt lat="39.91143174088894" lon="9.596129620699477"><ele>79.0</ele><time>2026-04-28T13:14:21.9Z</time></trkpt><trkpt lat="39.9116229368682" lon="9.596246088625564"><ele>79.0</ele><time>2026-04-28T13:14:22.9Z</time></trkpt><trkpt lat="39.91178770315921" lon="9.596409506016247"><ele>77.33333333333333</ele><time>2026-04-28T13:14:23.9Z</time></trkpt><trkpt lat="39.91194602439903" lon="9.59659570296919"><ele>75.66666666666667</ele><time>2026-04-28T13:14:24.9Z</time></trkpt><trkpt lat="39.91208955712429" lon="9.596804007822902"><ele>74.0</ele><time>2026-04-28T13:14:25.9Z</time></trkpt><trkpt lat="39.91221166633505" lon="9.597038223324985"><ele>72.66666666666667</ele><time>2026-04-28T13:14:26.9Z</time></trkpt><trkpt lat="39.91232260063857" lon="9.597279618600114"><ele>71.33333333333333</ele><time>2026-04-28T13:14:27.9Z</time></trkpt><trkpt lat="39.91246184648713" lon="9.597490556373085"><ele>70.0</ele><time>2026-04-28T13:14:28.9Z</time></trkpt><trkpt lat="39.91263362849702" lon="9.59767287681125"><ele>72.0</ele><time>2026-04-28T13:14:29.9Z</time></trkpt><trkpt lat="39.912813047569195" lon="9.597859154300682"><ele>74.0</ele><time>2026-04-28T13:14:30.9Z</time></trkpt><trkpt lat="39.91298643948059" lon="9.598050745090951"><ele>74.0</ele><time>2026-04-28T13:14:31.9Z</time></trkpt><trkpt lat="39.91315131945552" lon="9.598239463543486"><ele>74.0</ele><time>2026-04-28T13:14:32.9Z</time></trkpt><trkpt lat="39.913315662764504" lon="9.598416926046124"><ele>74.0</ele><time>2026-04-28T13:14:33.9Z</time></trkpt><trkpt lat="39.913467742314836" lon="9.598578083801796"><ele>77.66666666666667</ele><time>2026-04-28T13:14:34.9Z</time></trkpt><trkpt lat="39.913597830293924" lon="9.598763220645424"><ele>81.33333333333333</ele><time>2026-04-28T13:14:35.9Z</time></trkpt><trkpt lat="39.9136605971066" lon="9.598975998323262"><ele>85.0</ele><time>2026-04-28T13:14:36.9Z</time></trkpt><trkpt lat="39.91366122275905" lon="9.599214337432523"><ele>85.0</ele><time>2026-04-28T13:14:37.9Z</time></trkpt><trkpt lat="39.913625757965114" lon="9.599435184907527"><ele>85.0</ele><time>2026-04-28T13:14:38.9Z</time></trkpt><trkpt lat="39.91351550226531" lon="9.5996320432626"><ele>85.0</ele><time>2026-04-28T13:14:39.9Z</time></trkpt><trkpt lat="39.91339868635025" lon="9.59980734636237"><ele>83.0</ele><time>2026-04-28T13:14:40.9Z</time></trkpt><trkpt lat="39.91333269285075" lon="9.599986585233323"><ele>81.0</ele><time>2026-04-28T13:14:41.9Z</time></trkpt><trkpt lat="39.91336260901292" lon="9.600194172905608"><ele>79.0</ele><time>2026-04-28T13:14:42.9Z</time></trkpt><trkpt lat="39.91346042162561" lon="9.600373464890211"><ele>79.0</ele><time>2026-04-28T13:14:43.9Z</time></trkpt><trkpt lat="39.913557068670706" lon="9.600548721820948"><ele>79.0</ele><time>2026-04-28T13:14:44.9Z</time></trkpt><trkpt lat="39.91360932309217" lon="9.600766019780558"><ele>79.0</ele><time>2026-04-28T13:14:45.9Z</time></trkpt><trkpt lat="39.91361682971723" lon="9.601018599255944"><ele>84.66666666666666</ele><time>2026-04-28T13:14:46.9Z</time></trkpt><trkpt lat="39.913582396325126" lon="9.601270685014862"><ele>90.33333333333333</ele><time>2026-04-28T13:14:47.9Z</time></trkpt><trkpt lat="39.9135068027091" lon="9.60151062506747"><ele>96.0</ele><time>2026-04-28T13:14:48.9Z</time></trkpt><trkpt lat="39.913415314619975" lon="9.601741510762166"><ele>92.66666666666667</ele><time>2026-04-28T13:14:49.9Z</time></trkpt><trkpt lat="39.91330315744063" lon="9.601949341184795"><ele>89.33333333333334</ele><time>2026-04-28T13:14:50.9Z</time></trkpt><trkpt lat="39.91317313588904" lon="9.602142044643248"><ele>86.0</ele><time>2026-04-28T13:14:51.899Z</time></trkpt><trkpt lat="39.91302981827866" lon="9.602325727911598"><ele>86.0</ele><time>2026-04-28T13:14:52.899Z</time></trkpt><trkpt lat="39.9128686564137" lon="9.602489150140725"><ele>86.0</ele><time>2026-04-28T13:14:53.899Z</time></trkpt><trkpt lat="39.91268875025431" lon="9.602631787949697"><ele>86.0</ele><time>2026-04-28T13:14:54.899Z</time></trkpt><trkpt lat="39.91251474094294" lon="9.602771386305253"><ele>83.0</ele><time>2026-04-28T13:14:55.899Z</time></trkpt><trkpt lat="39.91235724533665" lon="9.602909688546951"><ele>80.0</ele><time>2026-04-28T13:14:56.899Z</time></trkpt><trkpt lat="39.91222623860549" lon="9.603060341922841"><ele>77.0</ele><time>2026-04-28T13:14:57.899Z</time></trkpt><trkpt lat="39.91213106811558" lon="9.603231442596103"><ele>77.0</ele><time>2026-04-28T13:14:58.899Z</time></trkpt><trkpt lat="39.91207113882558" lon="9.603416011162254"><ele>77.0</ele><time>2026-04-28T13:14:59.899Z</time></trkpt><trkpt lat="39.912042416409854" lon="9.603601007013381"><ele>77.0</ele><time>2026-04-28T13:15:00.899Z</time></trkpt><trkpt lat="39.91205389604839" lon="9.603775860322365"><ele>77.0</ele><time>2026-04-28T13:15:01.899Z</time></trkpt><trkpt lat="39.912124468933634" lon="9.603926653651362"><ele>75.0</ele><time>2026-04-28T13:15:02.899Z</time></trkpt><trkpt lat="39.91224197484156" lon="9.604046486599932"><ele>73.0</ele><time>2026-04-28T13:15:03.899Z</time></trkpt><trkpt lat="39.912397511337076" lon="9.604172135922484"><ele>71.0</ele><time>2026-04-28T13:15:04.899Z</time></trkpt><trkpt lat="39.91253986251177" lon="9.604318282938337"><ele>70.0</ele><time>2026-04-28T13:15:05.899Z</time></trkpt><trkpt lat="39.91266397444985" lon="9.604473058190434"><ele>69.0</ele><time>2026-04-28T13:15:06.899Z</time></trkpt><trkpt lat="39.91277240619347" lon="9.604620164643773"><ele>68.0</ele><time>2026-04-28T13:15:07.899Z</time></trkpt><trkpt lat="39.91286115053608" lon="9.604779919996309"><ele>68.0</ele><time>2026-04-28T13:15:08.899Z</time></trkpt><trkpt lat="39.91293069034387" lon="9.604956140507374"><ele>68.0</ele><time>2026-04-28T13:15:09.899Z</time></trkpt><trkpt lat="39.91301357398709" lon="9.605099652921183"><ele>68.0</ele><time>2026-04-28T13:15:10.899Z</time></trkpt><trkpt lat="39.91311593259088" lon="9.60518541349172"><ele>68.0</ele><time>2026-04-28T13:15:11.899Z</time></trkpt><trkpt lat="39.913221861528726" lon="9.60523296320726"><ele>68.0</ele><time>2026-04-28T13:15:12.899Z</time></trkpt><trkpt lat="39.9133633752033" lon="9.605242089808977"><ele>68.0</ele><time>2026-04-28T13:15:13.899Z</time></trkpt><trkpt lat="39.91351619069532" lon="9.60523392661484"><ele>68.0</ele><time>2026-04-28T13:15:14.899Z</time></trkpt><trkpt lat="39.91368297924928" lon="9.6052135595524"><ele>69.0</ele><time>2026-04-28T13:15:15.899Z</time></trkpt><trkpt lat="39.913845275446405" lon="9.605232103503354"><ele>70.0</ele><time>2026-04-28T13:15:16.899Z</time></trkpt><trkpt lat="39.913998858790656" lon="9.60529478028604"><ele>71.0</ele><time>2026-04-28T13:15:17.899Z</time></trkpt><trkpt lat="39.91415464808995" lon="9.605397913564252"><ele>67.33333333333334</ele><time>2026-04-28T13:15:18.899Z</time></trkpt><trkpt lat="39.91431095362215" lon="9.605507160947097"><ele>63.66666666666667</ele><time>2026-04-28T13:15:19.899Z</time></trkpt><trkpt lat="39.91446833327735" lon="9.605601675003811"><ele>60.0</ele><time>2026-04-28T13:15:20.899Z</time></trkpt><trkpt lat="39.91463210520565" lon="9.605657409296041"><ele>60.0</ele><time>2026-04-28T13:15:21.899Z</time></trkpt><trkpt lat="39.91479037707096" lon="9.605724086100823"><ele>60.0</ele><time>2026-04-28T13:15:22.899Z</time></trkpt><trkpt lat="39.914940466194324" lon="9.60580674641692"><ele>60.0</ele><time>2026-04-28T13:15:23.899Z</time></trkpt><trkpt lat="39.91508249630179" lon="9.605914743003835"><ele>59.33333333333333</ele><time>2026-04-28T13:15:24.899Z</time></trkpt><trkpt lat="39.91520196517806" lon="9.606081608437318"><ele>58.666666666666664</ele><time>2026-04-28T13:15:25.899Z</time></trkpt><trkpt lat="39.91531819304349" lon="9.60627122849355"><ele>58.0</ele><time>2026-04-28T13:15:26.899Z</time></trkpt><trkpt lat="39.91543227166328" lon="9.606494598836573"><ele>57.666666666666664</ele><time>2026-04-28T13:15:27.899Z</time></trkpt><trkpt lat="39.91555117071607" lon="9.606734248819812"><ele>57.33333333333333</ele><time>2026-04-28T13:15:28.899Z</time></trkpt><trkpt lat="39.9156671634902" lon="9.606989888530597"><ele>57.0</ele><time>2026-04-28T13:15:29.899Z</time></trkpt><trkpt lat="39.915789457132966" lon="9.607249975839535"><ele>56.0</ele><time>2026-04-28T13:15:30.899Z</time></trkpt><trkpt lat="39.91591216696959" lon="9.607516752303733"><ele>55.0</ele><time>2026-04-28T13:15:31.899Z</time></trkpt><trkpt lat="39.91604224831427" lon="9.60777576773717"><ele>54.5</ele><time>2026-04-28T13:15:32.899Z</time></trkpt><trkpt lat="39.91617068498414" lon="9.608034343698465"><ele>54.0</ele><time>2026-04-28T13:15:33.899Z</time></trkpt><trkpt lat="39.91629969186306" lon="9.60829363175753"><ele>54.0</ele><time>2026-04-28T13:15:34.899Z</time></trkpt><trkpt lat="39.91643296964509" lon="9.608552159744365"><ele>54.0</ele><time>2026-04-28T13:15:35.899Z</time></trkpt><trkpt lat="39.91656569436956" lon="9.60880876644955"><ele>53.5</ele><time>2026-04-28T13:15:36.899Z</time></trkpt><trkpt lat="39.91669030895551" lon="9.609059449096684"><ele>53.0</ele><time>2026-04-28T13:15:37.898Z</time></trkpt><trkpt lat="39.91681710162047" lon="9.609314801095254"><ele>52.5</ele><time>2026-04-28T13:15:38.898Z</time></trkpt><trkpt lat="39.91694767260394" lon="9.609568533810215"><ele>52.0</ele><time>2026-04-28T13:15:39.9Z</time></trkpt><trkpt lat="39.91708143771727" lon="9.609816184229116"><ele>52.0</ele><time>2026-04-28T13:15:40.899Z</time></trkpt><trkpt lat="39.91720298218654" lon="9.610052468137612"><ele>52.0</ele><time>2026-04-28T13:15:41.899Z</time></trkpt><trkpt lat="39.917311458315865" lon="9.6102786829389"><ele>52.0</ele><time>2026-04-28T13:15:42.899Z</time></trkpt><trkpt lat="39.91737327794279" lon="9.610508333500512"><ele>52.33333333333333</ele><time>2026-04-28T13:15:43.899Z</time></trkpt><trkpt lat="39.91735995345885" lon="9.610748340581555"><ele>52.66666666666667</ele><time>2026-04-28T13:15:44.899Z</time></trkpt><trkpt lat="39.917296273113834" lon="9.610983771587753"><ele>53.0</ele><time>2026-04-28T13:15:45.899Z</time></trkpt><trkpt lat="39.917179400883185" lon="9.611183991358093"><ele>53.333333333333336</ele><time>2026-04-28T13:15:46.899Z</time></trkpt><trkpt lat="39.91701624128515" lon="9.611337047855628"><ele>53.66666666666667</ele><time>2026-04-28T13:15:47.899Z</time></trkpt><trkpt lat="39.91683213615438" lon="9.61146374220617"><ele>54.0</ele><time>2026-04-28T13:15:48.899Z</time></trkpt><trkpt lat="39.916645158529505" lon="9.611593200145062"><ele>54.0</ele><time>2026-04-28T13:15:49.898Z</time></trkpt><trkpt lat="39.91645773809476" lon="9.611728231858644"><ele>54.0</ele><time>2026-04-28T13:15:50.898Z</time></trkpt><trkpt lat="39.916274237641105" lon="9.611860700731045"><ele>54.0</ele><time>2026-04-28T13:15:51.898Z</time></trkpt><trkpt lat="39.91608921246197" lon="9.611995195114133"><ele>55.33333333333333</ele><time>2026-04-28T13:15:52.898Z</time></trkpt><trkpt lat="39.91590723071796" lon="9.61213309907102"><ele>56.666666666666664</ele><time>2026-04-28T13:15:53.898Z</time></trkpt><trkpt lat="39.91573267222141" lon="9.612259483195778"><ele>58.0</ele><time>2026-04-28T13:15:54.898Z</time></trkpt><trkpt lat="39.915577987635125" lon="9.612388525628807"><ele>58.0</ele><time>2026-04-28T13:15:55.898Z</time></trkpt><trkpt lat="39.915460340244984" lon="9.612571822286283"><ele>58.0</ele><time>2026-04-28T13:15:56.898Z</time></trkpt><trkpt lat="39.91535173079457" lon="9.612780780648599"><ele>58.0</ele><time>2026-04-28T13:15:57.898Z</time></trkpt><trkpt lat="39.91520209084553" lon="9.612929903331677"><ele>59.0</ele><time>2026-04-28T13:15:58.898Z</time></trkpt><trkpt lat="39.915031781173305" lon="9.613038975907227"><ele>60.0</ele><time>2026-04-28T13:15:59.898Z</time></trkpt><trkpt lat="39.91488287854989" lon="9.613156418087769"><ele>61.0</ele><time>2026-04-28T13:16:00.898Z</time></trkpt><trkpt lat="39.91478201091958" lon="9.613311846482247"><ele>61.0</ele><time>2026-04-28T13:16:01.898Z</time></trkpt><trkpt lat="39.914742208306876" lon="9.61350316853192"><ele>61.0</ele><time>2026-04-28T13:16:02.898Z</time></trkpt><trkpt lat="39.914776264043844" lon="9.613716418379896"><ele>61.0</ele><time>2026-04-28T13:16:03.898Z</time></trkpt><trkpt lat="39.9148795887586" lon="9.613912176056115"><ele>61.666666666666664</ele><time>2026-04-28T13:16:04.898Z</time></trkpt><trkpt lat="39.91503430186803" lon="9.614063168959602"><ele>62.33333333333333</ele><time>2026-04-28T13:16:05.898Z</time></trkpt><trkpt lat="39.91519750079574" lon="9.614225132825117"><ele>63.0</ele><time>2026-04-28T13:16:06.898Z</time></trkpt><trkpt lat="39.915345612686984" lon="9.614378558191818"><ele>63.0</ele><time>2026-04-28T13:16:07.898Z</time></trkpt><trkpt lat="39.91551342427454" lon="9.614461613936054"><ele>63.0</ele><time>2026-04-28T13:16:08.898Z</time></trkpt><trkpt lat="39.91570951667381" lon="9.614454923916854"><ele>63.0</ele><time>2026-04-28T13:16:09.898Z</time></trkpt><trkpt lat="39.91590246189764" lon="9.614410904187494"><ele>63.33333333333333</ele><time>2026-04-28T13:16:10.898Z</time></trkpt><trkpt lat="39.91606490874667" lon="9.614439944957638"><ele>63.666666666666664</ele><time>2026-04-28T13:16:11.898Z</time></trkpt><trkpt lat="39.91619086343041" lon="9.614566921827292"><ele>64.0</ele><time>2026-04-28T13:16:12.898Z</time></trkpt><trkpt lat="39.91627223885278" lon="9.614776993370178"><ele>64.0</ele><time>2026-04-28T13:16:13.898Z</time></trkpt><trkpt lat="39.91629300151684" lon="9.615038312021282"><ele>64.0</ele><time>2026-04-28T13:16:14.898Z</time></trkpt><trkpt lat="39.916327318406125" lon="9.615282493616586"><ele>64.0</ele><time>2026-04-28T13:16:15.898Z</time></trkpt><trkpt lat="39.91642523922901" lon="9.615477839427024"><ele>64.66666666666666</ele><time>2026-04-28T13:16:16.898Z</time></trkpt><trkpt lat="39.916586310979696" lon="9.615614402328891"><ele>65.33333333333333</ele><time>2026-04-28T13:16:17.898Z</time></trkpt><trkpt lat="39.91677283749391" lon="9.615737569288935"><ele>66.0</ele><time>2026-04-28T13:16:18.898Z</time></trkpt><trkpt lat="39.916961827013004" lon="9.615880848887267"><ele>66.0</ele><time>2026-04-28T13:16:19.898Z</time></trkpt><trkpt lat="39.91710673412913" lon="9.616079719272966"><ele>66.0</ele><time>2026-04-28T13:16:20.898Z</time></trkpt><trkpt lat="39.91720881204603" lon="9.61630803650257"><ele>66.0</ele><time>2026-04-28T13:16:21.898Z</time></trkpt><trkpt lat="39.917314580752894" lon="9.61652403560587"><ele>64.33333333333333</ele><time>2026-04-28T13:16:22.898Z</time></trkpt><trkpt lat="39.917446701760504" lon="9.616727296408776"><ele>62.666666666666664</ele><time>2026-04-28T13:16:23.898Z</time></trkpt><trkpt lat="39.917599465351344" lon="9.616919634766163"><ele>61.0</ele><time>2026-04-28T13:16:24.898Z</time></trkpt><trkpt lat="39.917755150954065" lon="9.617119324799319"><ele>55.33333333333333</ele><time>2026-04-28T13:16:25.898Z</time></trkpt><trkpt lat="39.91790498018185" lon="9.617328661560368"><ele>49.666666666666664</ele><time>2026-04-28T13:16:26.898Z</time></trkpt><trkpt lat="39.91805536908266" lon="9.617541762219746"><ele>44.0</ele><time>2026-04-28T13:16:27.898Z</time></trkpt><trkpt lat="39.918202008685135" lon="9.617761105998808"><ele>44.0</ele><time>2026-04-28T13:16:28.898Z</time></trkpt><trkpt lat="39.91834599197165" lon="9.617982888964526"><ele>44.0</ele><time>2026-04-28T13:16:29.898Z</time></trkpt><trkpt lat="39.91849055040874" lon="9.618205989127457"><ele>44.0</ele><time>2026-04-28T13:16:30.898Z</time></trkpt><trkpt lat="39.91863089872982" lon="9.618426097978892"><ele>44.0</ele><time>2026-04-28T13:16:31.898Z</time></trkpt><trkpt lat="39.91877049411888" lon="9.618646513102199"><ele>44.0</ele><time>2026-04-28T13:16:32.898Z</time></trkpt><trkpt lat="39.91890753752306" lon="9.618861613761542"><ele>44.0</ele><time>2026-04-28T13:16:33.898Z</time></trkpt><trkpt lat="39.919040953113274" lon="9.619064333162695"><ele>43.0</ele><time>2026-04-28T13:16:34.898Z</time></trkpt><trkpt lat="39.91919725496197" lon="9.619204090754964"><ele>42.0</ele><time>2026-04-28T13:16:35.898Z</time></trkpt><trkpt lat="39.91939139577543" lon="9.619284605308453"><ele>41.0</ele><time>2026-04-28T13:16:36.898Z</time></trkpt><trkpt lat="39.919601807088085" lon="9.619345885370326"><ele>41.0</ele><time>2026-04-28T13:16:37.898Z</time></trkpt><trkpt lat="39.919817813300696" lon="9.619409840927405"><ele>41.0</ele><time>2026-04-28T13:16:38.898Z</time></trkpt><trkpt lat="39.92003521353703" lon="9.61948546368976"><ele>41.0</ele><time>2026-04-28T13:16:39.898Z</time></trkpt><trkpt lat="39.92025038002329" lon="9.619563795454242"><ele>38.5</ele><time>2026-04-28T13:16:40.898Z</time></trkpt><trkpt lat="39.92047661155066" lon="9.619634056110785"><ele>36.0</ele><time>2026-04-28T13:16:41.898Z</time></trkpt><trkpt lat="39.920704846587164" lon="9.619706447057261"><ele>38.0</ele><time>2026-04-28T13:16:42.898Z</time></trkpt><trkpt lat="39.920924328113415" lon="9.619771591979054"><ele>40.0</ele><time>2026-04-28T13:16:43.898Z</time></trkpt><trkpt lat="39.92114167690714" lon="9.619843771523866"><ele>42.0</ele><time>2026-04-28T13:16:44.898Z</time></trkpt><trkpt lat="39.92135018589142" lon="9.619944010658179"><ele>42.0</ele><time>2026-04-28T13:16:45.897Z</time></trkpt><trkpt lat="39.92154317822202" lon="9.620088649440216"><ele>42.0</ele><time>2026-04-28T13:16:46.897Z</time></trkpt><trkpt lat="39.92172138898153" lon="9.620262284464077"><ele>42.0</ele><time>2026-04-28T13:16:47.897Z</time></trkpt><trkpt lat="39.9218798407506" lon="9.620465871667529"><ele>45.0</ele><time>2026-04-28T13:16:48.897Z</time></trkpt><trkpt lat="39.92202819162467" lon="9.620685518358025"><ele>48.0</ele><time>2026-04-28T13:16:49.897Z</time></trkpt><trkpt lat="39.922169173157414" lon="9.620917149823711"><ele>44.5</ele><time>2026-04-28T13:16:50.897Z</time></trkpt><trkpt lat="39.9223099298601" lon="9.62115204938201"><ele>41.0</ele><time>2026-04-28T13:16:51.897Z</time></trkpt><trkpt lat="39.92245730156109" lon="9.621382827162972"><ele>44.33333333333333</ele><time>2026-04-28T13:16:52.897Z</time></trkpt><trkpt lat="39.92259973425367" lon="9.621605806247498"><ele>47.666666666666664</ele><time>2026-04-28T13:16:53.897Z</time></trkpt><trkpt lat="39.92272828713425" lon="9.621818872282306"><ele>51.0</ele><time>2026-04-28T13:16:54.897Z</time></trkpt><trkpt lat="39.9228278065872" lon="9.62203844900963"><ele>51.66666666666667</ele><time>2026-04-28T13:16:55.897Z</time></trkpt><trkpt lat="39.92284456072068" lon="9.622278088508699"><ele>52.333333333333336</ele><time>2026-04-28T13:16:56.897Z</time></trkpt><trkpt lat="39.922817667246385" lon="9.622521193539878"><ele>53.0</ele><time>2026-04-28T13:16:57.897Z</time></trkpt><trkpt lat="39.92280361701483" lon="9.622768627653537"><ele>50.333333333333336</ele><time>2026-04-28T13:16:58.897Z</time></trkpt><trkpt lat="39.92279215434287" lon="9.623016591991405"><ele>47.66666666666667</ele><time>2026-04-28T13:16:59.897Z</time></trkpt><trkpt lat="39.92271703897492" lon="9.623248859817474"><ele>45.0</ele><time>2026-04-28T13:17:00.897Z</time></trkpt><trkpt lat="39.9226646842312" lon="9.62346545832025"><ele>42.666666666666664</ele><time>2026-04-28T13:17:01.897Z</time></trkpt><trkpt lat="39.92267325214167" lon="9.623697927256229"><ele>40.33333333333333</ele><time>2026-04-28T13:17:02.897Z</time></trkpt><trkpt lat="39.92273155043366" lon="9.623938188669399"><ele>38.0</ele><time>2026-04-28T13:17:03.897Z</time></trkpt><trkpt lat="39.92282451194839" lon="9.624174236721185"><ele>38.0</ele><time>2026-04-28T13:17:04.897Z</time></trkpt><trkpt lat="39.922930873504164" lon="9.624438432831422"><ele>38.0</ele><time>2026-04-28T13:17:05.897Z</time></trkpt><trkpt lat="39.923007841395695" lon="9.624702488657718"><ele>38.0</ele><time>2026-04-28T13:17:06.897Z</time></trkpt><trkpt lat="39.92309095023544" lon="9.624968070899367"><ele>37.0</ele><time>2026-04-28T13:17:07.897Z</time></trkpt><trkpt lat="39.92317039185507" lon="9.62523755520516"><ele>36.0</ele><time>2026-04-28T13:17:08.897Z</time></trkpt><trkpt lat="39.923241665631245" lon="9.625506540869434"><ele>35.0</ele><time>2026-04-28T13:17:09.897Z</time></trkpt><trkpt lat="39.92329290613754" lon="9.625770559564055"><ele>34.33333333333333</ele><time>2026-04-28T13:17:10.897Z</time></trkpt><trkpt lat="39.9233348186425" lon="9.626008536497405"><ele>33.666666666666664</ele><time>2026-04-28T13:17:11.897Z</time></trkpt><trkpt lat="39.92341967431229" lon="9.626200431545447"><ele>33.0</ele><time>2026-04-28T13:17:12.897Z</time></trkpt><trkpt lat="39.92355848419838" lon="9.626344381042527"><ele>32.666666666666664</ele><time>2026-04-28T13:17:13.897Z</time></trkpt><trkpt lat="39.92374353890776" lon="9.626446664468768"><ele>32.33333333333333</ele><time>2026-04-28T13:17:14.897Z</time></trkpt><trkpt lat="39.92392618846577" lon="9.626550130731356"><ele>32.0</ele><time>2026-04-28T13:17:15.897Z</time></trkpt><trkpt lat="39.92409830301248" lon="9.626673542763717"><ele>32.666666666666664</ele><time>2026-04-28T13:17:16.897Z</time></trkpt><trkpt lat="39.92426534944711" lon="9.626800915609747"><ele>33.333333333333336</ele><time>2026-04-28T13:17:17.897Z</time></trkpt><trkpt lat="39.92441325048199" lon="9.626939522571513"><ele>34.0</ele><time>2026-04-28T13:17:18.897Z</time></trkpt><trkpt lat="39.92452126396592" lon="9.627104738434864"><ele>34.333333333333336</ele><time>2026-04-28T13:17:19.897Z</time></trkpt><trkpt lat="39.924609180847696" lon="9.627269427887395"><ele>34.666666666666664</ele><time>2026-04-28T13:17:20.897Z</time></trkpt><trkpt lat="39.924657339185494" lon="9.627456212222546"><ele>35.0</ele><time>2026-04-28T13:17:21.897Z</time></trkpt><trkpt lat="39.92467557966384" lon="9.627658044556124"><ele>36.33333333333333</ele><time>2026-04-28T13:17:22.897Z</time></trkpt><trkpt lat="39.924640857385945" lon="9.627855937296346"><ele>37.666666666666664</ele><time>2026-04-28T13:17:23.897Z</time></trkpt><trkpt lat="39.9245742173165" lon="9.628043792761881"><ele>39.0</ele><time>2026-04-28T13:17:24.897Z</time></trkpt><trkpt lat="39.924484205699734" lon="9.62822411208153"><ele>39.0</ele><time>2026-04-28T13:17:25.897Z</time></trkpt><trkpt lat="39.92438256099282" lon="9.628392726687611"><ele>39.0</ele><time>2026-04-28T13:17:26.897Z</time></trkpt><trkpt lat="39.924281411555775" lon="9.628561044032612"><ele>39.0</ele><time>2026-04-28T13:17:27.897Z</time></trkpt><trkpt lat="39.924196757549424" lon="9.62872333119451"><ele>38.0</ele><time>2026-04-28T13:17:28.897Z</time></trkpt><trkpt lat="39.924123411092665" lon="9.62887975130636"><ele>37.0</ele><time>2026-04-28T13:17:29.897Z</time></trkpt><trkpt lat="39.92405795011801" lon="9.629038605782261"><ele>36.0</ele><time>2026-04-28T13:17:30.897Z</time></trkpt><trkpt lat="39.923990452312864" lon="9.629206142279454"><ele>35.0</ele><time>2026-04-28T13:17:31.897Z</time></trkpt><trkpt lat="39.92392007747254" lon="9.629377207346192"><ele>35.0</ele><time>2026-04-28T13:17:32.897Z</time></trkpt><trkpt lat="39.92385506851336" lon="9.629569334687654"><ele>35.0</ele><time>2026-04-28T13:17:33.897Z</time></trkpt><trkpt lat="39.923800465076845" lon="9.629800485093044"><ele>35.0</ele><time>2026-04-28T13:17:34.897Z</time></trkpt><trkpt lat="39.923739006204194" lon="9.630068544217693"><ele>35.5</ele><time>2026-04-28T13:17:35.897Z</time></trkpt><trkpt lat="39.923670643628014" lon="9.630357170251937"><ele>36.0</ele><time>2026-04-28T13:17:36.897Z</time></trkpt><trkpt lat="39.92360423201235" lon="9.630661240053652"><ele>36.0</ele><time>2026-04-28T13:17:37.897Z</time></trkpt><trkpt lat="39.92353981415139" lon="9.63095089386836"><ele>36.0</ele><time>2026-04-28T13:17:38.897Z</time></trkpt><trkpt lat="39.92347838068122" lon="9.63122022474598"><ele>36.0</ele><time>2026-04-28T13:17:39.897Z</time></trkpt><trkpt lat="39.92343320389158" lon="9.631473037757607"><ele>36.666666666666664</ele><time>2026-04-28T13:17:40.897Z</time></trkpt><trkpt lat="39.92343414758214" lon="9.631711181785029"><ele>37.33333333333333</ele><time>2026-04-28T13:17:41.897Z</time></trkpt><trkpt lat="39.92349656835929" lon="9.631931912320061"><ele>38.0</ele><time>2026-04-28T13:17:42.898Z</time></trkpt><trkpt lat="39.92359734874715" lon="9.632140601395955"><ele>36.0</ele><time>2026-04-28T13:17:43.898Z</time></trkpt><trkpt lat="39.923764841230046" lon="9.632293185410322"><ele>34.0</ele><time>2026-04-28T13:17:44.898Z</time></trkpt><trkpt lat="39.923962828063644" lon="9.63242834001209"><ele>32.0</ele><time>2026-04-28T13:17:45.898Z</time></trkpt><trkpt lat="39.924167066408856" lon="9.632568955029107"><ele>30.0</ele><time>2026-04-28T13:17:46.898Z</time></trkpt><trkpt lat="39.92437770074214" lon="9.632717845233165"><ele>28.0</ele><time>2026-04-28T13:17:47.898Z</time></trkpt><trkpt lat="39.92458175957049" lon="9.632869084465577"><ele>28.0</ele><time>2026-04-28T13:17:48.898Z</time></trkpt><trkpt lat="39.924782635073" lon="9.633010638539226"><ele>28.0</ele><time>2026-04-28T13:17:49.898Z</time></trkpt><trkpt lat="39.92498425258868" lon="9.633138841857642"><ele>33.0</ele><time>2026-04-28T13:17:50.898Z</time></trkpt><trkpt lat="39.92518880210958" lon="9.6332448636687"><ele>38.0</ele><time>2026-04-28T13:17:51.898Z</time></trkpt><trkpt lat="39.92539313167278" lon="9.633346801726988"><ele>43.0</ele><time>2026-04-28T13:17:52.897Z</time></trkpt><trkpt lat="39.925573915535395" lon="9.63347944414265"><ele>39.0</ele><time>2026-04-28T13:17:53.897Z</time></trkpt><trkpt lat="39.92573490422188" lon="9.633660138172475"><ele>35.0</ele><time>2026-04-28T13:17:54.898Z</time></trkpt><trkpt lat="39.92587662916269" lon="9.633865711790204"><ele>31.0</ele><time>2026-04-28T13:17:55.898Z</time></trkpt><trkpt lat="39.92602425395647" lon="9.634060007044306"><ele>31.0</ele><time>2026-04-28T13:17:56.898Z</time></trkpt><trkpt lat="39.92619554030876" lon="9.634220784411232"><ele>31.0</ele><time>2026-04-28T13:17:57.898Z</time></trkpt><trkpt lat="39.92638904982554" lon="9.634336075832575"><ele>31.0</ele><time>2026-04-28T13:17:58.898Z</time></trkpt><trkpt lat="39.92659170399544" lon="9.634421541538934"><ele>33.0</ele><time>2026-04-28T13:17:59.898Z</time></trkpt><trkpt lat="39.92679012930867" lon="9.634483750833734"><ele>35.0</ele><time>2026-04-28T13:18:00.898Z</time></trkpt><trkpt lat="39.926940909740715" lon="9.634611164632124"><ele>37.0</ele><time>2026-04-28T13:18:01.898Z</time></trkpt><trkpt lat="39.927011685247116" lon="9.634812831422874"><ele>37.0</ele><time>2026-04-28T13:18:02.898Z</time></trkpt><trkpt lat="39.92703072112027" lon="9.635058312482805"><ele>37.0</ele><time>2026-04-28T13:18:03.898Z</time></trkpt><trkpt lat="39.92702447891352" lon="9.635314592059759"><ele>37.0</ele><time>2026-04-28T13:18:04.898Z</time></trkpt><trkpt lat="39.92702286679101" lon="9.635594862585615"><ele>37.333333333333336</ele><time>2026-04-28T13:18:05.898Z</time></trkpt><trkpt lat="39.92702498618951" lon="9.635878144934592"><ele>37.666666666666664</ele><time>2026-04-28T13:18:06.898Z</time></trkpt><trkpt lat="39.92703184384043" lon="9.636170846700388"><ele>38.0</ele><time>2026-04-28T13:18:07.898Z</time></trkpt><trkpt lat="39.927036265457495" lon="9.636481112594275"><ele>38.0</ele><time>2026-04-28T13:18:08.898Z</time></trkpt><trkpt lat="39.92704247317944" lon="9.636787089755648"><ele>38.0</ele><time>2026-04-28T13:18:09.898Z</time></trkpt><trkpt lat="39.92705113024321" lon="9.637100906317349"><ele>39.5</ele><time>2026-04-28T13:18:10.898Z</time></trkpt><trkpt lat="39.92705494852269" lon="9.6374130161414"><ele>41.0</ele><time>2026-04-28T13:18:11.898Z</time></trkpt><trkpt lat="39.9270506670786" lon="9.637697760261249"><ele>44.666666666666664</ele><time>2026-04-28T13:18:12.898Z</time></trkpt><trkpt lat="39.927006164225524" lon="9.637957670176178"><ele>48.33333333333333</ele><time>2026-04-28T13:18:13.898Z</time></trkpt><trkpt lat="39.92692922912788" lon="9.638210717232031"><ele>52.0</ele><time>2026-04-28T13:18:14.898Z</time></trkpt><trkpt lat="39.92682075488323" lon="9.638453403404757"><ele>48.666666666666664</ele><time>2026-04-28T13:18:15.898Z</time></trkpt><trkpt lat="39.92669480928273" lon="9.63869092127536"><ele>45.33333333333333</ele><time>2026-04-28T13:18:16.898Z</time></trkpt><trkpt lat="39.92654979285831" lon="9.638916508775047"><ele>42.0</ele><time>2026-04-28T13:18:17.898Z</time></trkpt><trkpt lat="39.926391297290756" lon="9.639126331445695"><ele>42.0</ele><time>2026-04-28T13:18:18.898Z</time></trkpt><trkpt lat="39.92620354037837" lon="9.639317227933766"><ele>42.0</ele><time>2026-04-28T13:18:19.898Z</time></trkpt><trkpt lat="39.92601925551573" lon="9.639513387953254"><ele>40.0</ele><time>2026-04-28T13:18:20.898Z</time></trkpt><trkpt lat="39.925837212671496" lon="9.639709062879898"><ele>38.0</ele><time>2026-04-28T13:18:21.898Z</time></trkpt><trkpt lat="39.925656333035185" lon="9.63991220745235"><ele>38.0</ele><time>2026-04-28T13:18:22.898Z</time></trkpt><trkpt lat="39.9254762687721" lon="9.64011113851343"><ele>38.0</ele><time>2026-04-28T13:18:23.898Z</time></trkpt><trkpt lat="39.9253041576139" lon="9.640310047828557"><ele>36.5</ele><time>2026-04-28T13:18:24.898Z</time></trkpt><trkpt lat="39.9251333493419" lon="9.640512282299078"><ele>35.0</ele><time>2026-04-28T13:18:25.898Z</time></trkpt><trkpt lat="39.92497571934909" lon="9.640727714001063"><ele>35.0</ele><time>2026-04-28T13:18:26.898Z</time></trkpt><trkpt lat="39.92483036420227" lon="9.640950906907872"><ele>35.0</ele><time>2026-04-28T13:18:27.898Z</time></trkpt><trkpt lat="39.92468779121665" lon="9.641184007829972"><ele>42.0</ele><time>2026-04-28T13:18:28.898Z</time></trkpt><trkpt lat="39.92455302580816" lon="9.64142216164918"><ele>49.0</ele><time>2026-04-28T13:18:29.897Z</time></trkpt><trkpt lat="39.92441068936479" lon="9.64164635798785"><ele>49.0</ele><time>2026-04-28T13:18:30.897Z</time></trkpt><trkpt lat="39.924256185536784" lon="9.641866214926191"><ele>49.0</ele><time>2026-04-28T13:18:31.897Z</time></trkpt><trkpt lat="39.924094004510735" lon="9.642083454277065"><ele>46.33333333333333</ele><time>2026-04-28T13:18:32.897Z</time></trkpt><trkpt lat="39.923944699338264" lon="9.642300175354706"><ele>43.666666666666664</ele><time>2026-04-28T13:18:33.897Z</time></trkpt><trkpt lat="39.92380424553024" lon="9.64250391331545"><ele>41.0</ele><time>2026-04-28T13:18:34.897Z</time></trkpt><trkpt lat="39.92365956391627" lon="9.642683863605846"><ele>39.33333333333333</ele><time>2026-04-28T13:18:35.897Z</time></trkpt><trkpt lat="39.92351895245317" lon="9.64284771995322"><ele>37.666666666666664</ele><time>2026-04-28T13:18:36.897Z</time></trkpt><trkpt lat="39.9234240884281" lon="9.643021843359731"><ele>36.0</ele><time>2026-04-28T13:18:37.897Z</time></trkpt><trkpt lat="39.92338785226229" lon="9.64322879626817"><ele>36.0</ele><time>2026-04-28T13:18:38.897Z</time></trkpt><trkpt lat="39.92340580318271" lon="9.643433348865853"><ele>36.0</ele><time>2026-04-28T13:18:39.897Z</time></trkpt><trkpt lat="39.92346141930725" lon="9.643629240923564"><ele>36.0</ele><time>2026-04-28T13:18:40.897Z</time></trkpt><trkpt lat="39.92351131010634" lon="9.643836294431393"><ele>33.6</ele><time>2026-04-28T13:18:41.897Z</time></trkpt><trkpt lat="39.92354986798591" lon="9.643988970247218"><ele>31.200000000000003</ele><time>2026-04-28T13:18:42.897Z</time></trkpt><trkpt lat="39.923577184477196" lon="9.644125908117985"><ele>28.799999999999997</ele><time>2026-04-28T13:18:43.897Z</time></trkpt><trkpt lat="39.92361429519464" lon="9.644255804391243"><ele>26.4</ele><time>2026-04-28T13:18:44.897Z</time></trkpt><trkpt lat="39.92364600085812" lon="9.644383386275823"><ele>24.0</ele><time>2026-04-28T13:18:45.897Z</time></trkpt><trkpt lat="39.923681454515055" lon="9.644518312085872"><ele>23.5</ele><time>2026-04-28T13:18:46.897Z</time></trkpt><trkpt lat="39.92371857699193" lon="9.644659657730083"><ele>23.0</ele><time>2026-04-28T13:18:47.897Z</time></trkpt><trkpt lat="39.923756067904854" lon="9.644802537008687"><ele>22.5</ele><time>2026-04-28T13:18:48.897Z</time></trkpt><trkpt lat="39.92379535009236" lon="9.644951136473104"><ele>22.0</ele><time>2026-04-28T13:18:49.897Z</time></trkpt><trkpt lat="39.92383950847071" lon="9.645102440111447"><ele>22.0</ele><time>2026-04-28T13:18:50.897Z</time></trkpt><trkpt lat="39.92388083656072" lon="9.64525248538235"><ele>22.0</ele><time>2026-04-28T13:18:51.897Z</time></trkpt><trkpt lat="39.923919715578165" lon="9.645402419025533"><ele>22.0</ele><time>2026-04-28T13:18:52.897Z</time></trkpt><trkpt lat="39.923962195096216" lon="9.645550735509234"><ele>22.0</ele><time>2026-04-28T13:18:53.897Z</time></trkpt><trkpt lat="39.92400497248403" lon="9.645698194962897"><ele>21.75</ele><time>2026-04-28T13:18:54.897Z</time></trkpt><trkpt lat="39.92404714529194" lon="9.645848042229982"><ele>21.5</ele><time>2026-04-28T13:18:55.897Z</time></trkpt><trkpt lat="39.92408784657541" lon="9.645995654434902"><ele>21.25</ele><time>2026-04-28T13:18:56.897Z</time></trkpt><trkpt lat="39.924128223154554" lon="9.646137749458124"><ele>21.0</ele><time>2026-04-28T13:18:57.897Z</time></trkpt><trkpt lat="39.92416986086267" lon="9.6462840925843"><ele>20.75</ele><time>2026-04-28T13:18:58.897Z</time></trkpt><trkpt lat="39.92420980897168" lon="9.646426724816923"><ele>20.5</ele><time>2026-04-28T13:18:59.897Z</time></trkpt><trkpt lat="39.92424618758235" lon="9.646565070938445"><ele>20.25</ele><time>2026-04-28T13:19:00.897Z</time></trkpt><trkpt lat="39.92428627743424" lon="9.646704392257199"><ele>20.0</ele><time>2026-04-28T13:19:01.897Z</time></trkpt><trkpt lat="39.92432509247737" lon="9.646842964539292"><ele>20.8</ele><time>2026-04-28T13:19:02.897Z</time></trkpt><trkpt lat="39.92435877697318" lon="9.646973475703787"><ele>21.6</ele><time>2026-04-28T13:19:03.897Z</time></trkpt><trkpt lat="39.924391364162396" lon="9.647096162982109"><ele>22.4</ele><time>2026-04-28T13:19:04.897Z</time></trkpt><trkpt lat="39.92442509060453" lon="9.6472116954225"><ele>23.2</ele><time>2026-04-28T13:19:05.897Z</time></trkpt><trkpt lat="39.92445653201151" lon="9.647321969928424"><ele>24.0</ele><time>2026-04-28T13:19:06.897Z</time></trkpt><trkpt lat="39.92448813819833" lon="9.647427472452602"><ele>23.999999999999996</ele><time>2026-04-28T13:19:07.897Z</time></trkpt><trkpt lat="39.92450663056547" lon="9.647510546482485"><ele>24.0</ele><time>2026-04-28T13:19:08.897Z</time></trkpt><trkpt lat="39.9245330473321" lon="9.64762449595014"><ele>24.0</ele><time>2026-04-28T13:19:10.897Z</time></trkpt><trkpt lat="39.92455058968949" lon="9.647704671990503"><ele>24.0</ele><time>2026-04-28T13:19:13.897Z</time></trkpt><trkpt lat="39.92457484621939" lon="9.647780576169986"><ele>24.0</ele><time>2026-04-28T13:19:20.897Z</time></trkpt><trkpt lat="39.92459401546121" lon="9.647867610284905"><ele>23.999999999999996</ele><time>2026-04-28T13:19:23.897Z</time></trkpt><trkpt lat="39.92462608365016" lon="9.647940271945274"><ele>24.0</ele><time>2026-04-28T13:19:25.897Z</time></trkpt><trkpt lat="39.924713517240384" lon="9.647969414228436"><ele>24.0</ele><time>2026-04-28T13:19:27.897Z</time></trkpt><trkpt lat="39.92479353044802" lon="9.647971023753083"><ele>24.0</ele><time>2026-04-28T13:19:29.897Z</time></trkpt><trkpt lat="39.92487519420309" lon="9.647916205662142"><ele>24.0</ele><time>2026-04-28T13:19:31.897Z</time></trkpt><trkpt lat="39.92496244226986" lon="9.647835608778793"><ele>24.0</ele><time>2026-04-28T13:19:33.897Z</time></trkpt><trkpt lat="39.925055906978834" lon="9.647745250637064"><ele>24.0</ele><time>2026-04-28T13:19:35.897Z</time></trkpt><trkpt lat="39.92515518553479" lon="9.647655819855649"><ele>24.0</ele><time>2026-04-28T13:19:37.896Z</time></trkpt><trkpt lat="39.92524683710802" lon="9.647570071012986"><ele>24.0</ele><time>2026-04-28T13:19:39.896Z</time></trkpt><trkpt lat="39.92533910627196" lon="9.647480125327343"><ele>24.0</ele><time>2026-04-28T13:19:41.896Z</time></trkpt><trkpt lat="39.925392202756825" lon="9.64743378407121"><ele>24.0</ele><time>2026-04-28T13:19:42.896Z</time></trkpt><trkpt lat="39.92545059605746" lon="9.647392706660007"><ele>24.0</ele><time>2026-04-28T13:19:43.896Z</time></trkpt><trkpt lat="39.925518773467" lon="9.647351512842652"><ele>24.0</ele><time>2026-04-28T13:19:44.896Z</time></trkpt><trkpt lat="39.92559966162672" lon="9.647309050029532"><ele>24.0</ele><time>2026-04-28T13:19:45.896Z</time></trkpt><trkpt lat="39.925696704341014" lon="9.647256398126979"><ele>24.0</ele><time>2026-04-28T13:19:46.896Z</time></trkpt><trkpt lat="39.925814533426426" lon="9.647203373824302"><ele>24.0</ele><time>2026-04-28T13:19:47.896Z</time></trkpt><trkpt lat="39.92594487807833" lon="9.647159589033075"><ele>24.0</ele><time>2026-04-28T13:19:48.897Z</time></trkpt><trkpt lat="39.926087160912196" lon="9.647112631937707"><ele>24.0</ele><time>2026-04-28T13:19:49.897Z</time></trkpt><trkpt lat="39.926243304185036" lon="9.647069034112086"><ele>24.0</ele><time>2026-04-28T13:19:50.897Z</time></trkpt><trkpt lat="39.926408952513135" lon="9.647021242220996"><ele>24.0</ele><time>2026-04-28T13:19:51.897Z</time></trkpt><trkpt lat="39.92658428939105" lon="9.646973426065301"><ele>25.333333333333336</ele><time>2026-04-28T13:19:52.897Z</time></trkpt><trkpt lat="39.92676783104844" lon="9.646916439275385"><ele>26.666666666666668</ele><time>2026-04-28T13:19:53.897Z</time></trkpt><trkpt lat="39.92694980550527" lon="9.646856003507182"><ele>28.0</ele><time>2026-04-28T13:19:54.897Z</time></trkpt><trkpt lat="39.92715746750843" lon="9.646791737860134"><ele>28.0</ele><time>2026-04-28T13:19:55.897Z</time></trkpt><trkpt lat="39.92735778898487" lon="9.646723542043256"><ele>28.0</ele><time>2026-04-28T13:19:56.897Z</time></trkpt><trkpt lat="39.92756238061419" lon="9.646652963121499"><ele>28.0</ele><time>2026-04-28T13:19:57.897Z</time></trkpt><trkpt lat="39.92776920428186" lon="9.646581310281187"><ele>28.0</ele><time>2026-04-28T13:19:58.897Z</time></trkpt><trkpt lat="39.927985795441046" lon="9.646502434673693"><ele>28.0</ele><time>2026-04-28T13:19:59.897Z</time></trkpt><trkpt lat="39.928214294370875" lon="9.646434644278743"><ele>28.5</ele><time>2026-04-28T13:20:00.897Z</time></trkpt><trkpt lat="39.928445715933094" lon="9.646370064168432"><ele>29.0</ele><time>2026-04-28T13:20:01.897Z</time></trkpt><trkpt lat="39.92867831316078" lon="9.646304760497602"><ele>29.0</ele><time>2026-04-28T13:20:02.897Z</time></trkpt><trkpt lat="39.928914838705296" lon="9.646249015901487"><ele>29.0</ele><time>2026-04-28T13:20:03.897Z</time></trkpt><trkpt lat="39.92915897601344" lon="9.646220980451217"><ele>30.5</ele><time>2026-04-28T13:20:04.897Z</time></trkpt><trkpt lat="39.929406051597766" lon="9.646205500826444"><ele>32.0</ele><time>2026-04-28T13:20:05.897Z</time></trkpt><trkpt lat="39.92965458211826" lon="9.646202721911443"><ele>32.0</ele><time>2026-04-28T13:20:06.897Z</time></trkpt><trkpt lat="39.929903635082155" lon="9.646210084734738"><ele>32.0</ele><time>2026-04-28T13:20:07.897Z</time></trkpt><trkpt lat="39.930152189589286" lon="9.646233069331277"><ele>31.0</ele><time>2026-04-28T13:20:08.897Z</time></trkpt><trkpt lat="39.93039891693954" lon="9.646268845543064"><ele>30.0</ele><time>2026-04-28T13:20:09.897Z</time></trkpt><trkpt lat="39.93064263005389" lon="9.64630857519237"><ele>30.0</ele><time>2026-04-28T13:20:10.897Z</time></trkpt><trkpt lat="39.930886995301464" lon="9.646343900905471"><ele>30.0</ele><time>2026-04-28T13:20:11.897Z</time></trkpt><trkpt lat="39.931135722551275" lon="9.646374073316554"><ele>30.0</ele><time>2026-04-28T13:20:12.897Z</time></trkpt><trkpt lat="39.93138690652" lon="9.646408076662413"><ele>30.0</ele><time>2026-04-28T13:20:13.897Z</time></trkpt><trkpt lat="39.93163444566473" lon="9.646443050596226"><ele>28.5</ele><time>2026-04-28T13:20:14.897Z</time></trkpt><trkpt lat="39.93188329922582" lon="9.646477293593094"><ele>27.0</ele><time>2026-04-28T13:20:15.896Z</time></trkpt><trkpt lat="39.932131320790624" lon="9.646509257010207"><ele>27.0</ele><time>2026-04-28T13:20:16.896Z</time></trkpt><trkpt lat="39.932381846119526" lon="9.646545751336301"><ele>27.0</ele><time>2026-04-28T13:20:17.896Z</time></trkpt><trkpt lat="39.93262806408761" lon="9.646583524527236"><ele>27.0</ele><time>2026-04-28T13:20:18.896Z</time></trkpt><trkpt lat="39.93287975199335" lon="9.646620359000943"><ele>27.0</ele><time>2026-04-28T13:20:19.896Z</time></trkpt><trkpt lat="39.93313454068922" lon="9.6466600791756"><ele>27.0</ele><time>2026-04-28T13:20:20.896Z</time></trkpt><trkpt lat="39.93338773508327" lon="9.646696124346459"><ele>27.0</ele><time>2026-04-28T13:20:21.896Z</time></trkpt><trkpt lat="39.9336364797989" lon="9.646729721944418"><ele>27.5</ele><time>2026-04-28T13:20:22.896Z</time></trkpt><trkpt lat="39.93388351194958" lon="9.6467621535628"><ele>28.0</ele><time>2026-04-28T13:20:23.896Z</time></trkpt><trkpt lat="39.93413130405466" lon="9.646795911575227"><ele>28.5</ele><time>2026-04-28T13:20:24.896Z</time></trkpt><trkpt lat="39.93437793854099" lon="9.646830650345626"><ele>29.0</ele><time>2026-04-28T13:20:25.896Z</time></trkpt><trkpt lat="39.93462471214398" lon="9.646861030325045"><ele>29.0</ele><time>2026-04-28T13:20:26.896Z</time></trkpt><trkpt lat="39.934872198137825" lon="9.646899424797498"><ele>29.0</ele><time>2026-04-28T13:20:27.896Z</time></trkpt><trkpt lat="39.935122035943856" lon="9.646938038635446"><ele>27.0</ele><time>2026-04-28T13:20:28.896Z</time></trkpt><trkpt lat="39.93537838919711" lon="9.646973521658442"><ele>25.0</ele><time>2026-04-28T13:20:29.896Z</time></trkpt><trkpt lat="39.93563951835574" lon="9.647008951055886"><ele>24.5</ele><time>2026-04-28T13:20:30.896Z</time></trkpt><trkpt lat="39.93590375880825" lon="9.647042473809849"><ele>24.0</ele><time>2026-04-28T13:20:31.896Z</time></trkpt><trkpt lat="39.93616736121036" lon="9.647076002378741"><ele>24.0</ele><time>2026-04-28T13:20:32.896Z</time></trkpt><trkpt lat="39.936431939901496" lon="9.647111345850707"><ele>24.0</ele><time>2026-04-28T13:20:33.896Z</time></trkpt><trkpt lat="39.936695254229214" lon="9.647151722945894"><ele>24.5</ele><time>2026-04-28T13:20:34.896Z</time></trkpt><trkpt lat="39.93695814776184" lon="9.647189634037627"><ele>25.0</ele><time>2026-04-28T13:20:35.896Z</time></trkpt><trkpt lat="39.93722351886225" lon="9.647228583055668"><ele>25.0</ele><time>2026-04-28T13:20:36.896Z</time></trkpt><trkpt lat="39.93748329004686" lon="9.647265714465581"><ele>25.0</ele><time>2026-04-28T13:20:37.896Z</time></trkpt><trkpt lat="39.93773874101352" lon="9.647300448038209"><ele>25.5</ele><time>2026-04-28T13:20:38.896Z</time></trkpt><trkpt lat="39.937990587426754" lon="9.647336910585453"><ele>26.0</ele><time>2026-04-28T13:20:39.896Z</time></trkpt><trkpt lat="39.93824271734099" lon="9.647372140735001"><ele>26.0</ele><time>2026-04-28T13:20:40.896Z</time></trkpt><trkpt lat="39.93849692839345" lon="9.647406629414446"><ele>26.0</ele><time>2026-04-28T13:20:41.896Z</time></trkpt><trkpt lat="39.93875090433279" lon="9.64743858313676"><ele>26.0</ele><time>2026-04-28T13:20:42.896Z</time></trkpt><trkpt lat="39.939004887113875" lon="9.647469895512986"><ele>26.0</ele><time>2026-04-28T13:20:43.896Z</time></trkpt><trkpt lat="39.9392515969524" lon="9.64750326614063"><ele>27.0</ele><time>2026-04-28T13:20:44.896Z</time></trkpt><trkpt lat="39.93950671370508" lon="9.647540351956499"><ele>28.0</ele><time>2026-04-28T13:20:45.896Z</time></trkpt><trkpt lat="39.9397615096747" lon="9.647583016817658"><ele>28.0</ele><time>2026-04-28T13:20:46.896Z</time></trkpt><trkpt lat="39.94001262193577" lon="9.647614949841085"><ele>28.0</ele><time>2026-04-28T13:20:47.896Z</time></trkpt><trkpt lat="39.940266601522026" lon="9.64764847280653"><ele>27.0</ele><time>2026-04-28T13:20:48.896Z</time></trkpt><trkpt lat="39.94052143384171" lon="9.647682503748726"><ele>26.0</ele><time>2026-04-28T13:20:49.896Z</time></trkpt><trkpt lat="39.94078292564333" lon="9.647718127658482"><ele>25.5</ele><time>2026-04-28T13:20:50.896Z</time></trkpt><trkpt lat="39.94104000330148" lon="9.647753176422668"><ele>25.0</ele><time>2026-04-28T13:20:51.896Z</time></trkpt><trkpt lat="39.94130404991004" lon="9.647785267747176"><ele>24.5</ele><time>2026-04-28T13:20:52.896Z</time></trkpt><trkpt lat="39.941570232860386" lon="9.647824538748445"><ele>24.0</ele><time>2026-04-28T13:20:53.896Z</time></trkpt><trkpt lat="39.94183277795615" lon="9.647862413903914"><ele>24.0</ele><time>2026-04-28T13:20:54.896Z</time></trkpt><trkpt lat="39.9420938303734" lon="9.647902362549008"><ele>24.0</ele><time>2026-04-28T13:20:55.896Z</time></trkpt><trkpt lat="39.94235346789621" lon="9.647936101276537"><ele>24.0</ele><time>2026-04-28T13:20:56.896Z</time></trkpt><trkpt lat="39.9426117199459" lon="9.64796975223889"><ele>24.0</ele><time>2026-04-28T13:20:57.896Z</time></trkpt><trkpt lat="39.942869395786715" lon="9.64800519883196"><ele>24.0</ele><time>2026-04-28T13:20:58.896Z</time></trkpt><trkpt lat="39.943127938068514" lon="9.648041062488492"><ele>24.0</ele><time>2026-04-28T13:20:59.896Z</time></trkpt><trkpt lat="39.943381384897904" lon="9.648079620028398"><ele>22.5</ele><time>2026-04-28T13:21:00.896Z</time></trkpt><trkpt lat="39.94364175117161" lon="9.648117840427567"><ele>21.0</ele><time>2026-04-28T13:21:01.896Z</time></trkpt><trkpt lat="39.94390301530742" lon="9.64816127694806"><ele>21.0</ele><time>2026-04-28T13:21:02.896Z</time></trkpt><trkpt lat="39.94416669368238" lon="9.648206302235119"><ele>21.0</ele><time>2026-04-28T13:21:03.896Z</time></trkpt><trkpt lat="39.9444287217014" lon="9.648241992624373"><ele>20.5</ele><time>2026-04-28T13:21:04.896Z</time></trkpt><trkpt lat="39.94468953610421" lon="9.648276731941268"><ele>20.0</ele><time>2026-04-28T13:21:05.896Z</time></trkpt><trkpt lat="39.94495473781158" lon="9.648312840772778"><ele>19.0</ele><time>2026-04-28T13:21:06.896Z</time></trkpt><trkpt lat="39.94521836019112" lon="9.64834953594286"><ele>18.0</ele><time>2026-04-28T13:21:07.896Z</time></trkpt><trkpt lat="39.94548197606423" lon="9.648387618163675"><ele>18.0</ele><time>2026-04-28T13:21:08.896Z</time></trkpt><trkpt lat="39.945745578636064" lon="9.648424754997707"><ele>18.0</ele><time>2026-04-28T13:21:09.896Z</time></trkpt><trkpt lat="39.94600554937776" lon="9.648463602090793"><ele>19.0</ele><time>2026-04-28T13:21:10.896Z</time></trkpt><trkpt lat="39.946261036170306" lon="9.648500336004647"><ele>20.0</ele><time>2026-04-28T13:21:11.896Z</time></trkpt><trkpt lat="39.946517162002955" lon="9.648536326134309"><ele>22.0</ele><time>2026-04-28T13:21:12.896Z</time></trkpt><trkpt lat="39.946773225600694" lon="9.6485740149175"><ele>24.0</ele><time>2026-04-28T13:21:13.896Z</time></trkpt><trkpt lat="39.94703148761992" lon="9.648611703332746"><ele>23.0</ele><time>2026-04-28T13:21:14.896Z</time></trkpt><trkpt lat="39.94729307841945" lon="9.648648850889106"><ele>22.0</ele><time>2026-04-28T13:21:15.896Z</time></trkpt><trkpt lat="39.94755765391244" lon="9.64868572319138"><ele>21.5</ele><time>2026-04-28T13:21:16.896Z</time></trkpt><trkpt lat="39.94781888589209" lon="9.64872571171984"><ele>21.0</ele><time>2026-04-28T13:21:17.896Z</time></trkpt><trkpt lat="39.94808545137195" lon="9.648766688099032"><ele>21.0</ele><time>2026-04-28T13:21:18.896Z</time></trkpt><trkpt lat="39.94835297258308" lon="9.648802507287554"><ele>21.0</ele><time>2026-04-28T13:21:19.896Z</time></trkpt><trkpt lat="39.94861689236437" lon="9.648842622586457"><ele>20.0</ele><time>2026-04-28T13:21:20.896Z</time></trkpt><trkpt lat="39.94887735747987" lon="9.648899034471834"><ele>19.0</ele><time>2026-04-28T13:21:21.896Z</time></trkpt><trkpt lat="39.94913495286104" lon="9.648982496643642"><ele>20.0</ele><time>2026-04-28T13:21:22.895Z</time></trkpt><trkpt lat="39.94938111876261" lon="9.64908334563794"><ele>21.0</ele><time>2026-04-28T13:21:23.895Z</time></trkpt><trkpt lat="39.949623392434525" lon="9.649193847245755"><ele>21.0</ele><time>2026-04-28T13:21:24.895Z</time></trkpt><trkpt lat="39.949870195713565" lon="9.649318169541857"><ele>21.0</ele><time>2026-04-28T13:21:25.895Z</time></trkpt><trkpt lat="39.95011025822343" lon="9.649458470109783"><ele>20.0</ele><time>2026-04-28T13:21:26.895Z</time></trkpt><trkpt lat="39.95035173857536" lon="9.649609273559893"><ele>19.0</ele><time>2026-04-28T13:21:27.895Z</time></trkpt><trkpt lat="39.95059053353399" lon="9.649771096639707"><ele>19.0</ele><time>2026-04-28T13:21:28.895Z</time></trkpt><trkpt lat="39.950827272898394" lon="9.649932113445809"><ele>19.0</ele><time>2026-04-28T13:21:29.895Z</time></trkpt><trkpt lat="39.951063797350635" lon="9.650093140852755"><ele>18.5</ele><time>2026-04-28T13:21:30.895Z</time></trkpt><trkpt lat="39.951296691841655" lon="9.650247163981549"><ele>18.0</ele><time>2026-04-28T13:21:31.895Z</time></trkpt><trkpt lat="39.951532372655386" lon="9.650404725995196"><ele>16.5</ele><time>2026-04-28T13:21:32.895Z</time></trkpt><trkpt lat="39.95176815362673" lon="9.650566830464795"><ele>15.0</ele><time>2026-04-28T13:21:33.895Z</time></trkpt><trkpt lat="39.95199964419311" lon="9.650728328655958"><ele>15.0</ele><time>2026-04-28T13:21:34.895Z</time></trkpt><trkpt lat="39.9522358205082" lon="9.65089779944086"><ele>15.0</ele><time>2026-04-28T13:21:35.895Z</time></trkpt><trkpt lat="39.95246497788547" lon="9.651052669390827"><ele>15.0</ele><time>2026-04-28T13:21:36.895Z</time></trkpt><trkpt lat="39.952690565200704" lon="9.651205292849173"><ele>15.0</ele><time>2026-04-28T13:21:37.895Z</time></trkpt><trkpt lat="39.952925496954485" lon="9.651358472937373"><ele>15.0</ele><time>2026-04-28T13:21:38.895Z</time></trkpt><trkpt lat="39.95314974698755" lon="9.651512080525329"><ele>15.0</ele><time>2026-04-28T13:21:39.895Z</time></trkpt><trkpt lat="39.95337886115178" lon="9.651673960433369"><ele>12.5</ele><time>2026-04-28T13:21:40.895Z</time></trkpt><trkpt lat="39.9536088481142" lon="9.651838217099236"><ele>10.0</ele><time>2026-04-28T13:21:41.895Z</time></trkpt><trkpt lat="39.953840523584354" lon="9.652002393172191"><ele>10.0</ele><time>2026-04-28T13:21:42.895Z</time></trkpt><trkpt lat="39.954074051084746" lon="9.65216718477035"><ele>10.0</ele><time>2026-04-28T13:21:43.895Z</time></trkpt><trkpt lat="39.95430504361264" lon="9.652325258994578"><ele>9.5</ele><time>2026-04-28T13:21:44.895Z</time></trkpt><trkpt lat="39.9545386513334" lon="9.652484672522094"><ele>9.0</ele><time>2026-04-28T13:21:45.895Z</time></trkpt><trkpt lat="39.95477114978578" lon="9.652644132584282"><ele>8.5</ele><time>2026-04-28T13:21:46.895Z</time></trkpt><trkpt lat="39.955005209067835" lon="9.652803619689074"><ele>8.0</ele><time>2026-04-28T13:21:47.895Z</time></trkpt><trkpt lat="39.95524262232171" lon="9.65296622554857"><ele>7.5</ele><time>2026-04-28T13:21:48.895Z</time></trkpt><trkpt lat="39.955480155139156" lon="9.653129123906448"><ele>7.0</ele><time>2026-04-28T13:21:49.895Z</time></trkpt><trkpt lat="39.95571965609208" lon="9.653293062266249"><ele>7.0</ele><time>2026-04-28T13:21:50.895Z</time></trkpt><trkpt lat="39.95596004833857" lon="9.653455218532658"><ele>7.0</ele><time>2026-04-28T13:21:51.895Z</time></trkpt><trkpt lat="39.95619796539504" lon="9.653617347419114"><ele>7.5</ele><time>2026-04-28T13:21:52.895Z</time></trkpt><trkpt lat="39.956432043024" lon="9.653779341353273"><ele>8.0</ele><time>2026-04-28T13:21:53.895Z</time></trkpt><trkpt lat="39.95666605229788" lon="9.653937382583099"><ele>8.0</ele><time>2026-04-28T13:21:54.896Z</time></trkpt><trkpt lat="39.956899270692276" lon="9.65409619826073"><ele>8.0</ele><time>2026-04-28T13:21:55.896Z</time></trkpt><trkpt lat="39.95713562244335" lon="9.65425412410247"><ele>8.0</ele><time>2026-04-28T13:21:56.896Z</time></trkpt><trkpt lat="39.957370196400625" lon="9.654416819369263"><ele>8.0</ele><time>2026-04-28T13:21:57.896Z</time></trkpt><trkpt lat="39.957602959335844" lon="9.654582333032186"><ele>8.0</ele><time>2026-04-28T13:21:58.896Z</time></trkpt><trkpt lat="39.957834441784435" lon="9.654746856051673"><ele>8.0</ele><time>2026-04-28T13:21:59.896Z</time></trkpt><trkpt lat="39.95806570172185" lon="9.654910252709023"><ele>8.0</ele><time>2026-04-28T13:22:00.896Z</time></trkpt><trkpt lat="39.958299254122224" lon="9.655070725554463"><ele>8.0</ele><time>2026-04-28T13:22:01.895Z</time></trkpt><trkpt lat="39.95853353684007" lon="9.65522732065048"><ele>7.5</ele><time>2026-04-28T13:22:02.895Z</time></trkpt><trkpt lat="39.958766341596196" lon="9.6553827478162"><ele>7.0</ele><time>2026-04-28T13:22:03.895Z</time></trkpt><trkpt lat="39.95899522665962" lon="9.655537735612338"><ele>8.0</ele><time>2026-04-28T13:22:04.896Z</time></trkpt><trkpt lat="39.95921957003597" lon="9.655688231747279"><ele>9.0</ele><time>2026-04-28T13:22:05.896Z</time></trkpt><trkpt lat="39.959441891896454" lon="9.655841120488535"><ele>9.0</ele><time>2026-04-28T13:22:06.895Z</time></trkpt><trkpt lat="39.95965979255834" lon="9.65599764569815"><ele>9.0</ele><time>2026-04-28T13:22:07.895Z</time></trkpt><trkpt lat="39.9598795030158" lon="9.656156654204365"><ele>9.0</ele><time>2026-04-28T13:22:08.895Z</time></trkpt><trkpt lat="39.960098543570425" lon="9.65631505026711"><ele>9.0</ele><time>2026-04-28T13:22:09.895Z</time></trkpt><trkpt lat="39.96031556169866" lon="9.656466633103493"><ele>9.0</ele><time>2026-04-28T13:22:10.895Z</time></trkpt><trkpt lat="39.96053167214756" lon="9.656617339772923"><ele>9.0</ele><time>2026-04-28T13:22:11.895Z</time></trkpt><trkpt lat="39.96074639142843" lon="9.656765624921828"><ele>8.5</ele><time>2026-04-28T13:22:12.895Z</time></trkpt><trkpt lat="39.960968358652025" lon="9.656910849770687"><ele>8.0</ele><time>2026-04-28T13:22:13.895Z</time></trkpt><trkpt lat="39.961195874134546" lon="9.657041345211141"><ele>8.0</ele><time>2026-04-28T13:22:14.895Z</time></trkpt><trkpt lat="39.96141535720516" lon="9.6571800482357"><ele>8.0</ele><time>2026-04-28T13:22:15.895Z</time></trkpt><trkpt lat="39.96164584805949" lon="9.657305787732666"><ele>9.0</ele><time>2026-04-28T13:22:16.895Z</time></trkpt><trkpt lat="39.96189235445523" lon="9.657401872767307"><ele>10.0</ele><time>2026-04-28T13:22:17.895Z</time></trkpt><trkpt lat="39.96214256213546" lon="9.657467934096495"><ele>10.0</ele><time>2026-04-28T13:22:18.895Z</time></trkpt><trkpt lat="39.96239397903952" lon="9.657503190519815"><ele>10.0</ele><time>2026-04-28T13:22:19.895Z</time></trkpt><trkpt lat="39.96264439688294" lon="9.657512936145316"><ele>9.5</ele><time>2026-04-28T13:22:20.895Z</time></trkpt><trkpt lat="39.96289431864502" lon="9.657508123717529"><ele>9.0</ele><time>2026-04-28T13:22:21.895Z</time></trkpt><trkpt lat="39.96314184653914" lon="9.657495833173554"><ele>12.0</ele><time>2026-04-28T13:22:22.895Z</time></trkpt><trkpt lat="39.963389866419384" lon="9.657473318642955"><ele>15.0</ele><time>2026-04-28T13:22:23.895Z</time></trkpt><trkpt lat="39.9636201026792" lon="9.657454245024457"><ele>15.0</ele><time>2026-04-28T13:22:24.895Z</time></trkpt><trkpt lat="39.96383911621443" lon="9.657443358547173"><ele>15.0</ele><time>2026-04-28T13:22:25.895Z</time></trkpt><trkpt lat="39.964041515480936" lon="9.657456171313898"><ele>15.0</ele><time>2026-04-28T13:22:26.895Z</time></trkpt><trkpt lat="39.964236275919944" lon="9.65750241454985"><ele>14.333333333333332</ele><time>2026-04-28T13:22:27.895Z</time></trkpt><trkpt lat="39.96440861119032" lon="9.657577170010576"><ele>13.666666666666666</ele><time>2026-04-28T13:22:28.895Z</time></trkpt><trkpt lat="39.96456990174957" lon="9.657678107993561"><ele>13.0</ele><time>2026-04-28T13:22:29.895Z</time></trkpt><trkpt lat="39.96471981247096" lon="9.657784451189547"><ele>12.0</ele><time>2026-04-28T13:22:30.895Z</time></trkpt><trkpt lat="39.96486918984131" lon="9.657887483433722"><ele>11.0</ele><time>2026-04-28T13:22:31.895Z</time></trkpt><trkpt lat="39.96501357600522" lon="9.65798695877416"><ele>10.0</ele><time>2026-04-28T13:22:32.895Z</time></trkpt><trkpt lat="39.96515435173399" lon="9.658074968021051"><ele>9.0</ele><time>2026-04-28T13:22:33.895Z</time></trkpt><trkpt lat="39.96529005589183" lon="9.658162695641645"><ele>8.0</ele><time>2026-04-28T13:22:34.895Z</time></trkpt><trkpt lat="39.96541872129806" lon="9.658245846966908"><ele>7.0</ele><time>2026-04-28T13:22:35.895Z</time></trkpt><trkpt lat="39.96554300063182" lon="9.6583320415009"><ele>6.0</ele><time>2026-04-28T13:22:36.895Z</time></trkpt><trkpt lat="39.96566047291565" lon="9.65841546581766"><ele>6.0</ele><time>2026-04-28T13:22:37.895Z</time></trkpt><trkpt lat="39.96577688202938" lon="9.658495361983032"><ele>6.0</ele><time>2026-04-28T13:22:38.895Z</time></trkpt><trkpt lat="39.96588896037549" lon="9.658572712608006"><ele>6.0</ele><time>2026-04-28T13:22:39.895Z</time></trkpt><trkpt lat="39.965991447907975" lon="9.65865105563083"><ele>6.0</ele><time>2026-04-28T13:22:40.895Z</time></trkpt><trkpt lat="39.966090576726685" lon="9.658724308258684"><ele>5.8</ele><time>2026-04-28T13:22:41.895Z</time></trkpt><trkpt lat="39.96618456036528" lon="9.658788768724193"><ele>5.6</ele><time>2026-04-28T13:22:42.895Z</time></trkpt><trkpt lat="39.96627426769613" lon="9.658844876189367"><ele>5.4</ele><time>2026-04-28T13:22:43.895Z</time></trkpt><trkpt lat="39.966356900261964" lon="9.658902044422032"><ele>5.2</ele><time>2026-04-28T13:22:44.895Z</time></trkpt><trkpt lat="39.96643957741395" lon="9.65896526607477"><ele>5.0</ele><time>2026-04-28T13:22:45.895Z</time></trkpt><trkpt lat="39.9665272095292" lon="9.659029258546546"><ele>5.0</ele><time>2026-04-28T13:22:46.895Z</time></trkpt><trkpt lat="39.966616609836976" lon="9.659093269147034"><ele>5.0</ele><time>2026-04-28T13:22:47.895Z</time></trkpt><trkpt lat="39.96671136580991" lon="9.659161633731214"><ele>5.0</ele><time>2026-04-28T13:22:48.895Z</time></trkpt><trkpt lat="39.96680611390064" lon="9.65922802626695"><ele>5.0</ele><time>2026-04-28T13:22:49.895Z</time></trkpt><trkpt lat="39.966902704140004" lon="9.65929391495675"><ele>5.0</ele><time>2026-04-28T13:22:50.895Z</time></trkpt><trkpt lat="39.96700144636657" lon="9.659358703079082"><ele>5.5</ele><time>2026-04-28T13:22:51.895Z</time></trkpt><trkpt lat="39.96710085722955" lon="9.659425673048041"><ele>6.0</ele><time>2026-04-28T13:22:52.895Z</time></trkpt><trkpt lat="39.967199496872084" lon="9.659493721742551"><ele>6.5</ele><time>2026-04-28T13:22:53.895Z</time></trkpt><trkpt lat="39.96730078712254" lon="9.659564830926739"><ele>7.0</ele><time>2026-04-28T13:22:54.895Z</time></trkpt><trkpt lat="39.96740445083259" lon="9.659635090249463"><ele>7.25</ele><time>2026-04-28T13:22:55.895Z</time></trkpt><trkpt lat="39.967508048861305" lon="9.659708120643092"><ele>7.5</ele><time>2026-04-28T13:22:56.895Z</time></trkpt><trkpt lat="39.967610585028545" lon="9.659782726568913"><ele>7.75</ele><time>2026-04-28T13:22:57.895Z</time></trkpt><trkpt lat="39.96771543420977" lon="9.659854300799662"><ele>8.0</ele><time>2026-04-28T13:22:58.895Z</time></trkpt><trkpt lat="39.96782027135762" lon="9.659924209145872"><ele>8.0</ele><time>2026-04-28T13:22:59.895Z</time></trkpt><trkpt lat="39.96792407911571" lon="9.659998443269254"><ele>8.0</ele><time>2026-04-28T13:23:00.895Z</time></trkpt><trkpt lat="39.96802526738494" lon="9.660072938291645"><ele>8.0</ele><time>2026-04-28T13:23:01.895Z</time></trkpt><trkpt lat="39.96813179560002" lon="9.660150181003806"><ele>8.0</ele><time>2026-04-28T13:23:02.895Z</time></trkpt><trkpt lat="39.968236697520084" lon="9.660227844981835"><ele>8.0</ele><time>2026-04-28T13:23:03.895Z</time></trkpt><trkpt lat="39.96834403570947" lon="9.660300717215586"><ele>8.0</ele><time>2026-04-28T13:23:04.895Z</time></trkpt><trkpt lat="39.968452975532784" lon="9.660372028293068"><ele>8.0</ele><time>2026-04-28T13:23:05.895Z</time></trkpt><trkpt lat="39.96855817977706" lon="9.660447866358895"><ele>8.0</ele><time>2026-04-28T13:23:06.895Z</time></trkpt><trkpt lat="39.96866218634478" lon="9.660522898151026"><ele>8.0</ele><time>2026-04-28T13:23:07.895Z</time></trkpt><trkpt lat="39.9687697661485" lon="9.660595440274097"><ele>8.0</ele><time>2026-04-28T13:23:08.895Z</time></trkpt><trkpt lat="39.96887422154982" lon="9.660665214948736"><ele>8.0</ele><time>2026-04-28T13:23:09.895Z</time></trkpt><trkpt lat="39.968975426851316" lon="9.660738658280174"><ele>8.0</ele><time>2026-04-28T13:23:10.895Z</time></trkpt><trkpt lat="39.96907034817045" lon="9.6608016149549"><ele>8.0</ele><time>2026-04-28T13:23:11.894Z</time></trkpt><trkpt lat="39.969157210614185" lon="9.660860077996253"><ele>8.0</ele><time>2026-04-28T13:23:12.894Z</time></trkpt><trkpt lat="39.96924372561234" lon="9.660917949956968"><ele>8.0</ele><time>2026-04-28T13:23:13.894Z</time></trkpt><trkpt lat="39.96932165613563" lon="9.660978379017372"><ele>8.0</ele><time>2026-04-28T13:23:14.894Z</time></trkpt><trkpt lat="39.96938725440155" lon="9.66104057616938"><ele>8.0</ele><time>2026-04-28T13:23:15.894Z</time></trkpt><trkpt lat="39.96945884357312" lon="9.661097433936977"><ele>8.666666666666666</ele><time>2026-04-28T13:23:16.894Z</time></trkpt><trkpt lat="39.96953474219311" lon="9.661153925740228"><ele>9.333333333333332</ele><time>2026-04-28T13:23:17.894Z</time></trkpt><trkpt lat="39.969613882075876" lon="9.661197821391644"><ele>10.0</ele><time>2026-04-28T13:23:18.894Z</time></trkpt><trkpt lat="39.96968919883063" lon="9.66125257906549"><ele>10.666666666666666</ele><time>2026-04-28T13:23:19.894Z</time></trkpt><trkpt lat="39.9697651723482" lon="9.661311518715396"><ele>11.333333333333334</ele><time>2026-04-28T13:23:20.894Z</time></trkpt><trkpt lat="39.96985665909903" lon="9.661367970890522"><ele>12.0</ele><time>2026-04-28T13:23:21.894Z</time></trkpt><trkpt lat="39.96994405804826" lon="9.661424503832047"><ele>13.2</ele><time>2026-04-28T13:23:22.894Z</time></trkpt><trkpt lat="39.97003808727064" lon="9.661476709063114"><ele>14.399999999999999</ele><time>2026-04-28T13:23:23.894Z</time></trkpt><trkpt lat="39.97012142992034" lon="9.661542105998398"><ele>15.600000000000001</ele><time>2026-04-28T13:23:24.894Z</time></trkpt><trkpt lat="39.97019468330889" lon="9.661621338650257"><ele>16.8</ele><time>2026-04-28T13:23:25.894Z</time></trkpt><trkpt lat="39.970239350343654" lon="9.661732293938432"><ele>18.0</ele><time>2026-04-28T13:23:26.894Z</time></trkpt><trkpt lat="39.97026112607886" lon="9.661859682500705"><ele>17.8</ele><time>2026-04-28T13:23:27.894Z</time></trkpt><trkpt lat="39.970261688072505" lon="9.661998235321418"><ele>17.6</ele><time>2026-04-28T13:23:28.894Z</time></trkpt><trkpt lat="39.97027126848237" lon="9.662129367815002"><ele>17.4</ele><time>2026-04-28T13:23:29.894Z</time></trkpt><trkpt lat="39.97027845436947" lon="9.662269025728467"><ele>17.2</ele><time>2026-04-28T13:23:30.894Z</time></trkpt><trkpt lat="39.97029061220933" lon="9.662411401797174"><ele>17.0</ele><time>2026-04-28T13:23:31.894Z</time></trkpt><trkpt lat="39.970311682156975" lon="9.662552984781081"><ele>17.0</ele><time>2026-04-28T13:23:32.894Z</time></trkpt><trkpt lat="39.9703521678378" lon="9.662693966571357"><ele>17.0</ele><time>2026-04-28T13:23:33.894Z</time></trkpt><trkpt lat="39.9704060444911" lon="9.66282419247108"><ele>17.0</ele><time>2026-04-28T13:23:34.894Z</time></trkpt><trkpt lat="39.97046627729499" lon="9.662941298698527"><ele>17.0</ele><time>2026-04-28T13:23:35.894Z</time></trkpt><trkpt lat="39.97053284951532" lon="9.66305124480589"><ele>17.0</ele><time>2026-04-28T13:23:36.894Z</time></trkpt><trkpt lat="39.97060991507668" lon="9.663152105139163"><ele>17.0</ele><time>2026-04-28T13:23:37.894Z</time></trkpt><trkpt lat="39.9706835962434" lon="9.663258254954119"><ele>17.0</ele><time>2026-04-28T13:23:38.894Z</time></trkpt><trkpt lat="39.970765609293835" lon="9.663359885058428"><ele>17.0</ele><time>2026-04-28T13:23:39.894Z</time></trkpt><trkpt lat="39.9708408838215" lon="9.663463142091295"><ele>17.0</ele><time>2026-04-28T13:23:40.894Z</time></trkpt><trkpt lat="39.97092596345852" lon="9.663561593181976"><ele>17.0</ele><time>2026-04-28T13:23:41.894Z</time></trkpt><trkpt lat="39.97100552261044" lon="9.663664283882643"><ele>16.0</ele><time>2026-04-28T13:23:42.894Z</time></trkpt><trkpt lat="39.9710879534751" lon="9.66376123888399"><ele>15.0</ele><time>2026-04-28T13:23:43.894Z</time></trkpt><trkpt lat="39.97117486423231" lon="9.663853618729387"><ele>14.0</ele><time>2026-04-28T13:23:44.894Z</time></trkpt><trkpt lat="39.97126186687429" lon="9.663949066799507"><ele>13.0</ele><time>2026-04-28T13:23:45.894Z</time></trkpt><trkpt lat="39.97136366315745" lon="9.664032983777863"><ele>13.0</ele><time>2026-04-28T13:23:46.894Z</time></trkpt><trkpt lat="39.97147794824974" lon="9.664097939509361"><ele>13.0</ele><time>2026-04-28T13:23:47.894Z</time></trkpt><trkpt lat="39.97160631724483" lon="9.664135273328725"><ele>13.0</ele><time>2026-04-28T13:23:48.894Z</time></trkpt><trkpt lat="39.97173479419283" lon="9.664132112246289"><ele>13.0</ele><time>2026-04-28T13:23:49.894Z</time></trkpt><trkpt lat="39.971875136268736" lon="9.664093515526202"><ele>11.25</ele><time>2026-04-28T13:23:50.894Z</time></trkpt><trkpt lat="39.97201604301186" lon="9.66404356251526"><ele>9.5</ele><time>2026-04-28T13:23:51.894Z</time></trkpt><trkpt lat="39.97214015098665" lon="9.66398867557152"><ele>7.75</ele><time>2026-04-28T13:23:52.894Z</time></trkpt><trkpt lat="39.972267520892046" lon="9.663935706781995"><ele>6.0</ele><time>2026-04-28T13:23:53.894Z</time></trkpt><trkpt lat="39.9723988131529" lon="9.66389566250942"><ele>6.25</ele><time>2026-04-28T13:23:54.894Z</time></trkpt><trkpt lat="39.972528418560124" lon="9.6638506967155"><ele>6.5</ele><time>2026-04-28T13:23:55.894Z</time></trkpt><trkpt lat="39.972657945251925" lon="9.663800901099593"><ele>6.75</ele><time>2026-04-28T13:23:56.894Z</time></trkpt><trkpt lat="39.972788384226575" lon="9.663750384839696"><ele>7.0</ele><time>2026-04-28T13:23:57.894Z</time></trkpt><trkpt lat="39.972923363785554" lon="9.663697897599317"><ele>7.0</ele><time>2026-04-28T13:23:58.894Z</time></trkpt><trkpt lat="39.973058124763384" lon="9.663647307402268"><ele>7.0</ele><time>2026-04-28T13:23:59.894Z</time></trkpt><trkpt lat="39.973194722025305" lon="9.663596528743378"><ele>7.0</ele><time>2026-04-28T13:24:00.895Z</time></trkpt><trkpt lat="39.97333378366601" lon="9.663556356096205"><ele>7.0</ele><time>2026-04-28T13:24:01.895Z</time></trkpt><trkpt lat="39.97348081790945" lon="9.663527367437243"><ele>7.333333333333334</ele><time>2026-04-28T13:24:02.895Z</time></trkpt><trkpt lat="39.973631414469025" lon="9.663515086168655"><ele>7.666666666666666</ele><time>2026-04-28T13:24:03.895Z</time></trkpt><trkpt lat="39.97378357926748" lon="9.663515718538335"><ele>8.0</ele><time>2026-04-28T13:24:04.894Z</time></trkpt><trkpt lat="39.973936678842875" lon="9.663530673026088"><ele>8.0</ele><time>2026-04-28T13:24:05.894Z</time></trkpt><trkpt lat="39.97409303454699" lon="9.66355782077769"><ele>8.0</ele><time>2026-04-28T13:24:06.895Z</time></trkpt><trkpt lat="39.97424754986009" lon="9.663597431618866"><ele>8.0</ele><time>2026-04-28T13:24:07.895Z</time></trkpt><trkpt lat="39.97439718446983" lon="9.663653864452872"><ele>7.666666666666666</ele><time>2026-04-28T13:24:08.895Z</time></trkpt><trkpt lat="39.974549557398205" lon="9.663724180141104"><ele>7.333333333333334</ele><time>2026-04-28T13:24:09.895Z</time></trkpt><trkpt lat="39.97469841933871" lon="9.663806183095305"><ele>7.0</ele><time>2026-04-28T13:24:10.895Z</time></trkpt><trkpt lat="39.974836739830955" lon="9.663901152247885"><ele>7.0</ele><time>2026-04-28T13:24:11.895Z</time></trkpt><trkpt lat="39.974975537718905" lon="9.664000604734877"><ele>7.0</ele><time>2026-04-28T13:24:12.894Z</time></trkpt><trkpt lat="39.97510781087223" lon="9.664120655721335"><ele>7.0</ele><time>2026-04-28T13:24:13.894Z</time></trkpt><trkpt lat="39.97524192831319" lon="9.664243739540641"><ele>7.333333333333334</ele><time>2026-04-28T13:24:14.894Z</time></trkpt><trkpt lat="39.97537669246992" lon="9.66435819485263"><ele>7.666666666666666</ele><time>2026-04-28T13:24:15.894Z</time></trkpt><trkpt lat="39.975510812586485" lon="9.664476481786048"><ele>8.0</ele><time>2026-04-28T13:24:16.894Z</time></trkpt><trkpt lat="39.9756438659322" lon="9.664595235650108"><ele>8.333333333333332</ele><time>2026-04-28T13:24:17.894Z</time></trkpt><trkpt lat="39.97577577330404" lon="9.664716423814717"><ele>8.666666666666666</ele><time>2026-04-28T13:24:18.894Z</time></trkpt><trkpt lat="39.97590887947324" lon="9.66483069069969"><ele>9.0</ele><time>2026-04-28T13:24:19.894Z</time></trkpt><trkpt lat="39.97604968842066" lon="9.664932601389463"><ele>12.333333333333332</ele><time>2026-04-28T13:24:20.894Z</time></trkpt><trkpt lat="39.97619471303406" lon="9.665007938590167"><ele>15.666666666666666</ele><time>2026-04-28T13:24:21.894Z</time></trkpt><trkpt lat="39.97634331999987" lon="9.665062471967527"><ele>19.0</ele><time>2026-04-28T13:24:22.894Z</time></trkpt><trkpt lat="39.97649040191987" lon="9.665105352724012"><ele>19.0</ele><time>2026-04-28T13:24:23.894Z</time></trkpt><trkpt lat="39.976637455185504" lon="9.665143301404765"><ele>19.0</ele><time>2026-04-28T13:24:24.894Z</time></trkpt><trkpt lat="39.97678558884588" lon="9.665188167121803"><ele>19.0</ele><time>2026-04-28T13:24:25.894Z</time></trkpt><trkpt lat="39.97692442692884" lon="9.665224470147502"><ele>19.0</ele><time>2026-04-28T13:24:26.894Z</time></trkpt><trkpt lat="39.97706201857625" lon="9.66522290257946"><ele>18.25</ele><time>2026-04-28T13:24:27.894Z</time></trkpt><trkpt lat="39.977197095798665" lon="9.665156513468451"><ele>17.5</ele><time>2026-04-28T13:24:28.894Z</time></trkpt><trkpt lat="39.977298163859786" lon="9.665028163314503"><ele>16.75</ele><time>2026-04-28T13:24:29.894Z</time></trkpt><trkpt lat="39.977399017141536" lon="9.66488470049702"><ele>16.0</ele><time>2026-04-28T13:24:30.894Z</time></trkpt><trkpt lat="39.977492238484615" lon="9.66473229823526"><ele>16.666666666666664</ele><time>2026-04-28T13:24:31.894Z</time></trkpt><trkpt lat="39.97757802257714" lon="9.664570885751766"><ele>17.333333333333332</ele><time>2026-04-28T13:24:32.894Z</time></trkpt><trkpt lat="39.97765439182746" lon="9.664401967491534"><ele>18.0</ele><time>2026-04-28T13:24:33.894Z</time></trkpt><trkpt lat="39.97772887115491" lon="9.664232659521344"><ele>18.0</ele><time>2026-04-28T13:24:34.894Z</time></trkpt><trkpt lat="39.977794348092075" lon="9.664074480733467"><ele>18.0</ele><time>2026-04-28T13:24:35.894Z</time></trkpt><trkpt lat="39.97786208977946" lon="9.663925626528203"><ele>18.0</ele><time>2026-04-28T13:24:36.894Z</time></trkpt><trkpt lat="39.97794663627215" lon="9.663807407004096"><ele>18.0</ele><time>2026-04-28T13:24:37.894Z</time></trkpt><trkpt lat="39.978049099777756" lon="9.663726434848906"><ele>18.0</ele><time>2026-04-28T13:24:38.894Z</time></trkpt><trkpt lat="39.97816348924383" lon="9.66367351817631"><ele>18.0</ele><time>2026-04-28T13:24:39.894Z</time></trkpt><trkpt lat="39.9782797254079" lon="9.66366849042752"><ele>18.0</ele><time>2026-04-28T13:24:40.894Z</time></trkpt><trkpt lat="39.978382348182535" lon="9.663703006502782"><ele>18.0</ele><time>2026-04-28T13:24:41.894Z</time></trkpt><trkpt lat="39.9784652469397" lon="9.663713436765837"><ele>18.0</ele><time>2026-04-28T13:24:42.894Z</time></trkpt><trkpt lat="39.97855727126104" lon="9.663689220292168"><ele>18.2</ele><time>2026-04-28T13:24:44.894Z</time></trkpt><trkpt lat="39.97863405698822" lon="9.663636192930209"><ele>18.4</ele><time>2026-04-28T13:27:33.893Z</time></trkpt><trkpt lat="39.97876069515941" lon="9.663570771428605"><ele>18.599999999999998</ele><time>2026-04-28T13:27:35.893Z</time></trkpt><trkpt lat="39.978850917076954" lon="9.66352946143212"><ele>18.8</ele><time>2026-04-28T13:27:36.893Z</time></trkpt><trkpt lat="39.97895635644604" lon="9.663509425994812"><ele>19.0</ele><time>2026-04-28T13:27:37.893Z</time></trkpt><trkpt lat="39.97906626481625" lon="9.663489098713429"><ele>22.0</ele><time>2026-04-28T13:27:38.893Z</time></trkpt><trkpt lat="39.97917730930673" lon="9.663471376364594"><ele>25.0</ele><time>2026-04-28T13:27:39.893Z</time></trkpt><trkpt lat="39.97929792155473" lon="9.663449836146695"><ele>28.0</ele><time>2026-04-28T13:27:40.893Z</time></trkpt><trkpt lat="39.97943180318185" lon="9.663420596114577"><ele>31.0</ele><time>2026-04-28T13:27:41.893Z</time></trkpt><trkpt lat="39.97954893252369" lon="9.663375480120598"><ele>31.0</ele><time>2026-04-28T13:27:42.893Z</time></trkpt><trkpt lat="39.97966869046522" lon="9.663309168435578"><ele>31.0</ele><time>2026-04-28T13:27:43.893Z</time></trkpt><trkpt lat="39.9797941248694" lon="9.663225013953408"><ele>31.0</ele><time>2026-04-28T13:27:44.893Z</time></trkpt><trkpt lat="39.97992482761263" lon="9.663143436090955"><ele>31.0</ele><time>2026-04-28T13:27:45.893Z</time></trkpt><trkpt lat="39.98006133824777" lon="9.663049211888616"><ele>33.5</ele><time>2026-04-28T13:27:46.893Z</time></trkpt><trkpt lat="39.980183666586946" lon="9.662946716966063"><ele>36.0</ele><time>2026-04-28T13:27:47.893Z</time></trkpt><trkpt lat="39.980294196668844" lon="9.662838134985673"><ele>38.5</ele><time>2026-04-28T13:27:48.893Z</time></trkpt><trkpt lat="39.98041529796724" lon="9.662723930834488"><ele>41.0</ele><time>2026-04-28T13:27:49.893Z</time></trkpt><trkpt lat="39.98053789458968" lon="9.662602089413735"><ele>42.0</ele><time>2026-04-28T13:27:50.893Z</time></trkpt><trkpt lat="39.98064964208954" lon="9.662475185829088"><ele>43.0</ele><time>2026-04-28T13:27:51.893Z</time></trkpt><trkpt lat="39.98074385772192" lon="9.662353919684632"><ele>44.0</ele><time>2026-04-28T13:27:52.893Z</time></trkpt><trkpt lat="39.98084104062069" lon="9.662253551869822"><ele>45.0</ele><time>2026-04-28T13:27:53.893Z</time></trkpt><trkpt lat="39.98095039083459" lon="9.662191773281567"><ele>46.5</ele><time>2026-04-28T13:27:54.893Z</time></trkpt><trkpt lat="39.9810559421129" lon="9.662175777983629"><ele>48.0</ele><time>2026-04-28T13:27:55.893Z</time></trkpt><trkpt lat="39.98116555664289" lon="9.662205652406014"><ele>49.5</ele><time>2026-04-28T13:27:56.893Z</time></trkpt><trkpt lat="39.98127590917934" lon="9.662248712637972"><ele>51.0</ele><time>2026-04-28T13:27:57.893Z</time></trkpt><trkpt lat="39.98139360512014" lon="9.662276560824688"><ele>51.0</ele><time>2026-04-28T13:27:58.893Z</time></trkpt><trkpt lat="39.981511825014806" lon="9.662279690948004"><ele>51.0</ele><time>2026-04-28T13:27:59.893Z</time></trkpt><trkpt lat="39.98162697058803" lon="9.66225175292597"><ele>51.0</ele><time>2026-04-28T13:28:00.893Z</time></trkpt><trkpt lat="39.98173462952154" lon="9.66220373422081"><ele>51.0</ele><time>2026-04-28T13:28:01.893Z</time></trkpt><trkpt lat="39.98182692756615" lon="9.662148494424471"><ele>51.0</ele><time>2026-04-28T13:28:02.893Z</time></trkpt><trkpt lat="39.98192385556054" lon="9.662088901246758"><ele>51.0</ele><time>2026-04-28T13:28:03.893Z</time></trkpt><trkpt lat="39.98202513149992" lon="9.662026901217516"><ele>51.0</ele><time>2026-04-28T13:28:04.893Z</time></trkpt><trkpt lat="39.982130286229605" lon="9.661967793674151"><ele>51.0</ele><time>2026-04-28T13:28:05.893Z</time></trkpt><trkpt lat="39.982254891540634" lon="9.66191358966423"><ele>52.0</ele><time>2026-04-28T13:28:06.893Z</time></trkpt><trkpt lat="39.98240713896735" lon="9.66184098442481"><ele>53.0</ele><time>2026-04-28T13:28:07.893Z</time></trkpt><trkpt lat="39.98258253126532" lon="9.661761486677015"><ele>54.0</ele><time>2026-04-28T13:28:08.892Z</time></trkpt><trkpt lat="39.98277038337248" lon="9.661700090134255"><ele>55.0</ele><time>2026-04-28T13:28:09.892Z</time></trkpt><trkpt lat="39.982975824997766" lon="9.661622568156279"><ele>56.0</ele><time>2026-04-28T13:28:10.892Z</time></trkpt><trkpt lat="39.983192641139524" lon="9.661535408910147"><ele>57.0</ele><time>2026-04-28T13:28:11.892Z</time></trkpt><trkpt lat="39.983404794968116" lon="9.661444353366706"><ele>58.66666666666667</ele><time>2026-04-28T13:28:12.893Z</time></trkpt><trkpt lat="39.983606784936875" lon="9.66136105185184"><ele>60.333333333333336</ele><time>2026-04-28T13:28:13.893Z</time></trkpt><trkpt lat="39.98378931771183" lon="9.661279158330606"><ele>62.0</ele><time>2026-04-28T13:28:14.893Z</time></trkpt><trkpt lat="39.983950325936775" lon="9.661187118029803"><ele>62.66666666666667</ele><time>2026-04-28T13:28:15.894Z</time></trkpt><trkpt lat="39.9840663489454" lon="9.661050039378026"><ele>63.33333333333333</ele><time>2026-04-28T13:28:16.893Z</time></trkpt><trkpt lat="39.98414288818709" lon="9.660875802283071"><ele>64.0</ele><time>2026-04-28T13:28:17.893Z</time></trkpt><trkpt lat="39.98422305601791" lon="9.660680302823613"><ele>63.33333333333333</ele><time>2026-04-28T13:28:18.893Z</time></trkpt><trkpt lat="39.9843270149015" lon="9.660499433418329"><ele>62.66666666666667</ele><time>2026-04-28T13:28:19.893Z</time></trkpt><trkpt lat="39.98444982781582" lon="9.660333426663307"><ele>62.0</ele><time>2026-04-28T13:28:20.893Z</time></trkpt><trkpt lat="39.98458501247193" lon="9.660180959009766"><ele>62.0</ele><time>2026-04-28T13:28:21.894Z</time></trkpt><trkpt lat="39.98472204090524" lon="9.660047401532145"><ele>62.0</ele><time>2026-04-28T13:28:22.894Z</time></trkpt><trkpt lat="39.984878743974285" lon="9.65995251673821"><ele>62.0</ele><time>2026-04-28T13:28:23.894Z</time></trkpt><trkpt lat="39.985034739158806" lon="9.659869981477335"><ele>60.0</ele><time>2026-04-28T13:28:24.893Z</time></trkpt><trkpt lat="39.98518814369089" lon="9.65978584645447"><ele>58.0</ele><time>2026-04-28T13:28:25.893Z</time></trkpt><trkpt lat="39.98533112538038" lon="9.659704080116677"><ele>56.0</ele><time>2026-04-28T13:28:26.893Z</time></trkpt><trkpt lat="39.98546347450457" lon="9.659595858169265"><ele>59.0</ele><time>2026-04-28T13:28:27.893Z</time></trkpt><trkpt lat="39.98557031912688" lon="9.659446446433602"><ele>62.0</ele><time>2026-04-28T13:28:28.893Z</time></trkpt><trkpt lat="39.985666504073606" lon="9.659286143408972"><ele>65.0</ele><time>2026-04-28T13:28:29.893Z</time></trkpt><trkpt lat="39.98576589850333" lon="9.659129432055465"><ele>63.333333333333336</ele><time>2026-04-28T13:28:30.893Z</time></trkpt><trkpt lat="39.98586922596022" lon="9.65897756072371"><ele>61.66666666666667</ele><time>2026-04-28T13:28:31.893Z</time></trkpt><trkpt lat="39.98596762720606" lon="9.6588233263801"><ele>60.0</ele><time>2026-04-28T13:28:32.893Z</time></trkpt><trkpt lat="39.986063819373754" lon="9.658671116397679"><ele>61.5</ele><time>2026-04-28T13:28:33.893Z</time></trkpt><trkpt lat="39.98616345558282" lon="9.658524544848701"><ele>63.0</ele><time>2026-04-28T13:28:34.893Z</time></trkpt><trkpt lat="39.986260400437914" lon="9.658385015900292"><ele>64.5</ele><time>2026-04-28T13:28:35.893Z</time></trkpt><trkpt lat="39.986362214353655" lon="9.658255260226657"><ele>66.0</ele><time>2026-04-28T13:28:36.893Z</time></trkpt><trkpt lat="39.98646753917858" lon="9.658136164529788"><ele>66.0</ele><time>2026-04-28T13:28:37.893Z</time></trkpt><trkpt lat="39.98657914037991" lon="9.658044889558377"><ele>66.0</ele><time>2026-04-28T13:28:38.893Z</time></trkpt><trkpt lat="39.98670093822384" lon="9.657988573099088"><ele>66.0</ele><time>2026-04-28T13:28:39.892Z</time></trkpt><trkpt lat="39.98683303559436" lon="9.65795818501555"><ele>66.0</ele><time>2026-04-28T13:28:40.892Z</time></trkpt><trkpt lat="39.98696664656684" lon="9.657912036748057"><ele>65.25</ele><time>2026-04-28T13:28:41.892Z</time></trkpt><trkpt lat="39.98710460377213" lon="9.65785383415454"><ele>64.5</ele><time>2026-04-28T13:28:42.892Z</time></trkpt><trkpt lat="39.98724435915062" lon="9.657790061405112"><ele>63.75</ele><time>2026-04-28T13:28:43.892Z</time></trkpt><trkpt lat="39.98738589856009" lon="9.657716326714493"><ele>63.0</ele><time>2026-04-28T13:28:44.892Z</time></trkpt><trkpt lat="39.98752190311912" lon="9.657628270716605"><ele>64.5</ele><time>2026-04-28T13:28:45.892Z</time></trkpt><trkpt lat="39.98764979765125" lon="9.657533675943863"><ele>66.0</ele><time>2026-04-28T13:28:46.892Z</time></trkpt><trkpt lat="39.98777631805875" lon="9.65744250440508"><ele>67.5</ele><time>2026-04-28T13:28:47.892Z</time></trkpt><trkpt lat="39.98791098688089" lon="9.65736023407782"><ele>69.0</ele><time>2026-04-28T13:28:48.892Z</time></trkpt><trkpt lat="39.988029221838886" lon="9.657277093469405"><ele>69.0</ele><time>2026-04-28T13:28:49.892Z</time></trkpt><trkpt lat="39.98814899527465" lon="9.657183989826317"><ele>69.0</ele><time>2026-04-28T13:28:50.892Z</time></trkpt><trkpt lat="39.988273117128664" lon="9.657106649414562"><ele>69.0</ele><time>2026-04-28T13:28:51.892Z</time></trkpt><trkpt lat="39.9884036024628" lon="9.6570333336133"><ele>69.0</ele><time>2026-04-28T13:28:52.892Z</time></trkpt><trkpt lat="39.98853752611443" lon="9.656981454509943"><ele>70.0</ele><time>2026-04-28T13:28:53.892Z</time></trkpt><trkpt lat="39.98867729246112" lon="9.656965294007259"><ele>71.0</ele><time>2026-04-28T13:28:54.892Z</time></trkpt><trkpt lat="39.98881723802329" lon="9.656975324689368"><ele>72.0</ele><time>2026-04-28T13:28:55.892Z</time></trkpt><trkpt lat="39.98895564145433" lon="9.656985722177073"><ele>73.0</ele><time>2026-04-28T13:28:56.892Z</time></trkpt><trkpt lat="39.989092168095546" lon="9.656980265348068"><ele>74.25</ele><time>2026-04-28T13:28:57.892Z</time></trkpt><trkpt lat="39.98922842219345" lon="9.656956570316996"><ele>75.5</ele><time>2026-04-28T13:28:58.892Z</time></trkpt><trkpt lat="39.9893694003463" lon="9.656931589438969"><ele>76.75</ele><time>2026-04-28T13:28:59.892Z</time></trkpt><trkpt lat="39.98951218764622" lon="9.656921947895938"><ele>78.0</ele><time>2026-04-28T13:29:00.892Z</time></trkpt><trkpt lat="39.98965437663191" lon="9.656931491930033"><ele>79.5</ele><time>2026-04-28T13:29:01.892Z</time></trkpt><trkpt lat="39.98979984137899" lon="9.656964991212892"><ele>81.0</ele><time>2026-04-28T13:29:02.892Z</time></trkpt><trkpt lat="39.98994251069843" lon="9.657013086525144"><ele>82.5</ele><time>2026-04-28T13:29:03.892Z</time></trkpt><trkpt lat="39.99007936727758" lon="9.657060473059545"><ele>84.0</ele><time>2026-04-28T13:29:04.892Z</time></trkpt><trkpt lat="39.990213752465294" lon="9.657103115362759"><ele>85.25</ele><time>2026-04-28T13:29:05.892Z</time></trkpt><trkpt lat="39.99034749285061" lon="9.657144034315067"><ele>86.5</ele><time>2026-04-28T13:29:06.892Z</time></trkpt><trkpt lat="39.99047569847424" lon="9.657170453053837"><ele>87.75</ele><time>2026-04-28T13:29:07.892Z</time></trkpt><trkpt lat="39.99060106308034" lon="9.657166602605184"><ele>89.0</ele><time>2026-04-28T13:29:08.892Z</time></trkpt><trkpt lat="39.990725019648565" lon="9.657145621485634"><ele>86.25</ele><time>2026-04-28T13:29:09.892Z</time></trkpt><trkpt lat="39.99084408654048" lon="9.657115246989557"><ele>83.5</ele><time>2026-04-28T13:29:10.892Z</time></trkpt><trkpt lat="39.99096064355716" lon="9.657087113147133"><ele>80.75</ele><time>2026-04-28T13:29:11.892Z</time></trkpt><trkpt lat="39.99107716144349" lon="9.657079222746114"><ele>78.0</ele><time>2026-04-28T13:29:12.892Z</time></trkpt><trkpt lat="39.991183276044836" lon="9.657125256494583"><ele>78.0</ele><time>2026-04-28T13:29:13.892Z</time></trkpt><trkpt lat="39.99125466143799" lon="9.65723152585287"><ele>78.0</ele><time>2026-04-28T13:29:14.892Z</time></trkpt><trkpt lat="39.99127952939374" lon="9.657369485590612"><ele>78.0</ele><time>2026-04-28T13:29:15.892Z</time></trkpt><trkpt lat="39.991267954179534" lon="9.657514713103662"><ele>78.0</ele><time>2026-04-28T13:29:16.892Z</time></trkpt><trkpt lat="39.9912390147345" lon="9.657660785947863"><ele>78.0</ele><time>2026-04-28T13:29:17.892Z</time></trkpt><trkpt lat="39.99121452783033" lon="9.657802972731417"><ele>81.0</ele><time>2026-04-28T13:29:18.892Z</time></trkpt><trkpt lat="39.99119661862905" lon="9.65795247196613"><ele>84.0</ele><time>2026-04-28T13:29:19.892Z</time></trkpt><trkpt lat="39.991179924384795" lon="9.658100642099745"><ele>87.0</ele><time>2026-04-28T13:29:20.892Z</time></trkpt><trkpt lat="39.99116999487311" lon="9.65824187555122"><ele>90.0</ele><time>2026-04-28T13:29:21.892Z</time></trkpt><trkpt lat="39.991169778992614" lon="9.658372823914354"><ele>93.0</ele><time>2026-04-28T13:29:22.892Z</time></trkpt><trkpt lat="39.99118589517711" lon="9.658502330831531"><ele>93.0</ele><time>2026-04-28T13:29:23.892Z</time></trkpt><trkpt lat="39.99121925621875" lon="9.658626165994756"><ele>93.0</ele><time>2026-04-28T13:29:24.892Z</time></trkpt><trkpt lat="39.991284008520346" lon="9.658712995769722"><ele>93.0</ele><time>2026-04-28T13:29:25.892Z</time></trkpt><trkpt lat="39.991365871616594" lon="9.658782416572535"><ele>93.0</ele><time>2026-04-28T13:29:26.892Z</time></trkpt><trkpt lat="39.99145018357374" lon="9.65885068948875"><ele>93.0</ele><time>2026-04-28T13:29:27.892Z</time></trkpt><trkpt lat="39.99153835445453" lon="9.658913547877297"><ele>93.0</ele><time>2026-04-28T13:29:28.892Z</time></trkpt><trkpt lat="39.99163020146186" lon="9.658969427133247"><ele>93.0</ele><time>2026-04-28T13:29:29.892Z</time></trkpt><trkpt lat="39.99172185459064" lon="9.659027846856358"><ele>93.0</ele><time>2026-04-28T13:29:30.892Z</time></trkpt><trkpt lat="39.99181051337502" lon="9.659089209443561"><ele>93.0</ele><time>2026-04-28T13:29:31.892Z</time></trkpt><trkpt lat="39.99189972761972" lon="9.659154040880283"><ele>93.0</ele><time>2026-04-28T13:29:32.892Z</time></trkpt><trkpt lat="39.9919873691398" lon="9.659217366275966"><ele>92.4</ele><time>2026-04-28T13:29:33.892Z</time></trkpt><trkpt lat="39.99207221473369" lon="9.659282210129092"><ele>91.80000000000001</ele><time>2026-04-28T13:29:34.892Z</time></trkpt><trkpt lat="39.99216017228769" lon="9.659346036329252"><ele>91.2</ele><time>2026-04-28T13:29:35.892Z</time></trkpt><trkpt lat="39.992250238844846" lon="9.659405996924768"><ele>90.6</ele><time>2026-04-28T13:29:36.892Z</time></trkpt><trkpt lat="39.99233858947706" lon="9.65946441599001"><ele>90.0</ele><time>2026-04-28T13:29:37.892Z</time></trkpt><trkpt lat="39.992425740103954" lon="9.659526193599747"><ele>92.4</ele><time>2026-04-28T13:29:38.892Z</time></trkpt><trkpt lat="39.99251242537123" lon="9.659579421108448"><ele>94.8</ele><time>2026-04-28T13:29:39.892Z</time></trkpt><trkpt lat="39.99259681832735" lon="9.659615238795807"><ele>97.19999999999999</ele><time>2026-04-28T13:29:40.892Z</time></trkpt><trkpt lat="39.992685696130486" lon="9.659644824071554"><ele>99.6</ele><time>2026-04-28T13:29:41.892Z</time></trkpt><trkpt lat="39.99277544007435" lon="9.659681131204275"><ele>102.0</ele><time>2026-04-28T13:29:42.892Z</time></trkpt><trkpt lat="39.99286884072643" lon="9.659726543277191"><ele>102.0</ele><time>2026-04-28T13:29:43.892Z</time></trkpt><trkpt lat="39.99296454392046" lon="9.659783365992345"><ele>102.0</ele><time>2026-04-28T13:29:44.892Z</time></trkpt><trkpt lat="39.993054766454506" lon="9.659845058940352"><ele>102.0</ele><time>2026-04-28T13:29:45.892Z</time></trkpt><trkpt lat="39.99314176914526" lon="9.659908463524637"><ele>102.0</ele><time>2026-04-28T13:29:46.891Z</time></trkpt><trkpt lat="39.993230073206625" lon="9.659964241190547"><ele>102.0</ele><time>2026-04-28T13:29:47.891Z</time></trkpt><trkpt lat="39.993317325744506" lon="9.660033072799745"><ele>103.19999999999999</ele><time>2026-04-28T13:29:48.891Z</time></trkpt><trkpt lat="39.993394369507385" lon="9.660112307974744"><ele>104.4</ele><time>2026-04-28T13:29:49.891Z</time></trkpt><trkpt lat="39.99346636876962" lon="9.660198813732109"><ele>105.60000000000001</ele><time>2026-04-28T13:29:50.891Z</time></trkpt><trkpt lat="39.99353424577927" lon="9.660286669514438"><ele>106.80000000000001</ele><time>2026-04-28T13:29:51.891Z</time></trkpt><trkpt lat="39.99360133734474" lon="9.660375184796562"><ele>108.0</ele><time>2026-04-28T13:29:52.891Z</time></trkpt><trkpt lat="39.99366725024303" lon="9.660462294447848"><ele>108.2</ele><time>2026-04-28T13:29:53.891Z</time></trkpt><trkpt lat="39.99373505697189" lon="9.660550469978169"><ele>108.4</ele><time>2026-04-28T13:29:54.891Z</time></trkpt><trkpt lat="39.99380963094674" lon="9.660640926244833"><ele>108.60000000000001</ele><time>2026-04-28T13:29:55.891Z</time></trkpt><trkpt lat="39.993880664664935" lon="9.660735441686562"><ele>108.80000000000001</ele><time>2026-04-28T13:29:56.891Z</time></trkpt><trkpt lat="39.993956139173996" lon="9.660836025148027"><ele>109.0</ele><time>2026-04-28T13:29:57.891Z</time></trkpt><trkpt lat="39.99404492269002" lon="9.660912945460513"><ele>109.0</ele><time>2026-04-28T13:29:58.891Z</time></trkpt><trkpt lat="39.99413647546534" lon="9.660987060345821"><ele>109.0</ele><time>2026-04-28T13:29:59.891Z</time></trkpt><trkpt lat="39.99423295134209" lon="9.661054712383716"><ele>109.0</ele><time>2026-04-28T13:30:00.891Z</time></trkpt><trkpt lat="39.99432468205533" lon="9.661121179042206"><ele>109.0</ele><time>2026-04-28T13:30:01.891Z</time></trkpt><trkpt lat="39.99442076118048" lon="9.66118630627377"><ele>109.0</ele><time>2026-04-28T13:30:02.891Z</time></trkpt><trkpt lat="39.994510930273286" lon="9.661260519453885"><ele>111.80000000000001</ele><time>2026-04-28T13:30:03.891Z</time></trkpt><trkpt lat="39.994574225719525" lon="9.661370917591645"><ele>114.60000000000001</ele><time>2026-04-28T13:30:04.891Z</time></trkpt><trkpt lat="39.99459643894129" lon="9.66150573558219"><ele>117.4</ele><time>2026-04-28T13:30:05.891Z</time></trkpt><trkpt lat="39.99459043790084" lon="9.661654478418914"><ele>120.2</ele><time>2026-04-28T13:30:06.891Z</time></trkpt><trkpt lat="39.99462238030283" lon="9.661792042295113"><ele>123.0</ele><time>2026-04-28T13:30:07.891Z</time></trkpt><trkpt lat="39.994691400626785" lon="9.661912452141468"><ele>121.60000000000001</ele><time>2026-04-28T13:30:08.891Z</time></trkpt><trkpt lat="39.994779652078584" lon="9.66201533100823"><ele>120.20000000000002</ele><time>2026-04-28T13:30:09.891Z</time></trkpt><trkpt lat="39.994874875024045" lon="9.662109034131559"><ele>118.8</ele><time>2026-04-28T13:30:10.891Z</time></trkpt><trkpt lat="39.99494100335732" lon="9.66219185243349"><ele>117.4</ele><time>2026-04-28T13:30:11.891Z</time></trkpt><trkpt lat="39.99500407447205" lon="9.66229575662189"><ele>116.0</ele><time>2026-04-28T13:30:13.891Z</time></trkpt><trkpt lat="39.99506567750786" lon="9.662321381585214"><ele>118.8</ele><time>2026-04-28T13:30:23.892Z</time></trkpt><trkpt lat="39.99516010844771" lon="9.662421770924887"><ele>121.6</ele><time>2026-04-28T13:30:25.891Z</time></trkpt><trkpt lat="39.99523936308208" lon="9.66246975779451"><ele>124.4</ele><time>2026-04-28T13:30:26.891Z</time></trkpt><trkpt lat="39.995330824260414" lon="9.662506514144965"><ele>127.2</ele><time>2026-04-28T13:30:27.892Z</time></trkpt><trkpt lat="39.99542174850115" lon="9.662531138296846"><ele>130.0</ele><time>2026-04-28T13:30:28.891Z</time></trkpt><trkpt lat="39.995518158205044" lon="9.662551856578542"><ele>130.0</ele><time>2026-04-28T13:30:29.891Z</time></trkpt><trkpt lat="39.99561541869735" lon="9.662580877992854"><ele>130.0</ele><time>2026-04-28T13:30:30.892Z</time></trkpt><trkpt lat="39.9957174296414" lon="9.662621509458459"><ele>130.0</ele><time>2026-04-28T13:30:31.892Z</time></trkpt><trkpt lat="39.99583102078105" lon="9.662660258511687"><ele>130.0</ele><time>2026-04-28T13:30:32.892Z</time></trkpt><trkpt lat="39.99593889077245" lon="9.6626914787467"><ele>130.0</ele><time>2026-04-28T13:30:33.892Z</time></trkpt><trkpt lat="39.996053654004584" lon="9.662715530391447"><ele>130.5</ele><time>2026-04-28T13:30:34.892Z</time></trkpt><trkpt lat="39.996173032231304" lon="9.66273950778662"><ele>131.0</ele><time>2026-04-28T13:30:35.892Z</time></trkpt><trkpt lat="39.99629223929807" lon="9.662814569599472"><ele>131.5</ele><time>2026-04-28T13:30:36.892Z</time></trkpt><trkpt lat="39.996401442366164" lon="9.662932193916882"><ele>132.0</ele><time>2026-04-28T13:30:37.892Z</time></trkpt><trkpt lat="39.996506901226574" lon="9.663060623980552"><ele>132.0</ele><time>2026-04-28T13:30:38.892Z</time></trkpt><trkpt lat="39.99660887977441" lon="9.663195418329193"><ele>132.0</ele><time>2026-04-28T13:30:39.892Z</time></trkpt><trkpt lat="39.99671564809474" lon="9.663328766241259"><ele>132.0</ele><time>2026-04-28T13:30:40.892Z</time></trkpt><trkpt lat="39.996812228127304" lon="9.663459328385812"><ele>132.0</ele><time>2026-04-28T13:30:41.892Z</time></trkpt><trkpt lat="39.99688575035796" lon="9.663608206922477"><ele>135.0</ele><time>2026-04-28T13:30:42.892Z</time></trkpt><trkpt lat="39.996930891349464" lon="9.663769297911113"><ele>138.0</ele><time>2026-04-28T13:30:43.892Z</time></trkpt><trkpt lat="39.996945442015594" lon="9.663932354080378"><ele>141.0</ele><time>2026-04-28T13:30:44.892Z</time></trkpt><trkpt lat="39.996924719641775" lon="9.664088723197374"><ele>144.0</ele><time>2026-04-28T13:30:45.892Z</time></trkpt><trkpt lat="39.99687502057512" lon="9.664233052111925"><ele>144.0</ele><time>2026-04-28T13:30:46.892Z</time></trkpt><trkpt lat="39.99678799088556" lon="9.664334207755227"><ele>144.0</ele><time>2026-04-28T13:30:47.892Z</time></trkpt><trkpt lat="39.996684770912665" lon="9.664386270601874"><ele>144.0</ele><time>2026-04-28T13:30:48.892Z</time></trkpt><trkpt lat="39.99657880619024" lon="9.664400284510469"><ele>144.0</ele><time>2026-04-28T13:30:49.892Z</time></trkpt><trkpt lat="39.996482344908635" lon="9.664411361888257"><ele>144.0</ele><time>2026-04-28T13:30:50.892Z</time></trkpt><trkpt lat="39.996397805090304" lon="9.664446144786778"><ele>145.8</ele><time>2026-04-28T13:30:51.892Z</time></trkpt><trkpt lat="39.99632204172453" lon="9.664509482994418"><ele>147.60000000000002</ele><time>2026-04-28T13:30:52.892Z</time></trkpt><trkpt lat="39.996263790874444" lon="9.664609083572216"><ele>149.4</ele><time>2026-04-28T13:30:53.892Z</time></trkpt><trkpt lat="39.99622100623865" lon="9.664737218802964"><ele>151.20000000000002</ele><time>2026-04-28T13:30:54.892Z</time></trkpt><trkpt lat="39.99618376624273" lon="9.66486699518341"><ele>153.0</ele><time>2026-04-28T13:30:55.892Z</time></trkpt><trkpt lat="39.9961418962378" lon="9.664995174483028"><ele>153.0</ele><time>2026-04-28T13:30:56.892Z</time></trkpt><trkpt lat="39.996099895427776" lon="9.665119430212423"><ele>153.0</ele><time>2026-04-28T13:30:57.892Z</time></trkpt><trkpt lat="39.99605747084381" lon="9.6652453638924"><ele>153.0</ele><time>2026-04-28T13:30:58.892Z</time></trkpt><trkpt lat="39.99600389098968" lon="9.665363577649279"><ele>153.0</ele><time>2026-04-28T13:30:59.892Z</time></trkpt><trkpt lat="39.99594999499764" lon="9.665476656974924"><ele>153.0</ele><time>2026-04-28T13:31:00.892Z</time></trkpt><trkpt lat="39.99590731444545" lon="9.665589633580746"><ele>152.6</ele><time>2026-04-28T13:31:01.892Z</time></trkpt><trkpt lat="39.99588496600663" lon="9.665722479744097"><ele>152.20000000000002</ele><time>2026-04-28T13:31:02.892Z</time></trkpt><trkpt lat="39.99587407681592" lon="9.665855471239354"><ele>151.8</ele><time>2026-04-28T13:31:03.892Z</time></trkpt><trkpt lat="39.995859745514295" lon="9.665992154306338"><ele>151.4</ele><time>2026-04-28T13:31:04.892Z</time></trkpt><trkpt lat="39.99584410305741" lon="9.666128031565556"><ele>151.0</ele><time>2026-04-28T13:31:05.892Z</time></trkpt><trkpt lat="39.9958294291098" lon="9.666263146865136"><ele>151.0</ele><time>2026-04-28T13:31:06.892Z</time></trkpt><trkpt lat="39.99582101570139" lon="9.666396740314884"><ele>151.0</ele><time>2026-04-28T13:31:07.892Z</time></trkpt><trkpt lat="39.99580931664428" lon="9.6665298585651"><ele>151.0</ele><time>2026-04-28T13:31:08.892Z</time></trkpt><trkpt lat="39.995817430447396" lon="9.666663515336541"><ele>151.0</ele><time>2026-04-28T13:31:09.892Z</time></trkpt><trkpt lat="39.99586183429523" lon="9.666793171416955"><ele>151.0</ele><time>2026-04-28T13:31:10.891Z</time></trkpt><trkpt lat="39.99592021637041" lon="9.666917068399275"><ele>150.0</ele><time>2026-04-28T13:31:11.891Z</time></trkpt><trkpt lat="39.99598644879009" lon="9.667033855672447"><ele>149.0</ele><time>2026-04-28T13:31:12.891Z</time></trkpt><trkpt lat="39.996051685151" lon="9.667142536821945"><ele>148.0</ele><time>2026-04-28T13:31:13.891Z</time></trkpt><trkpt lat="39.99611269242374" lon="9.66724868074456"><ele>147.0</ele><time>2026-04-28T13:31:14.891Z</time></trkpt><trkpt lat="39.99619220401261" lon="9.667332384239764"><ele>146.0</ele><time>2026-04-28T13:31:15.891Z</time></trkpt><trkpt lat="39.996291013213344" lon="9.667359987776523"><ele>146.0</ele><time>2026-04-28T13:31:16.891Z</time></trkpt><trkpt lat="39.99639048855318" lon="9.66734400766591"><ele>146.0</ele><time>2026-04-28T13:31:17.891Z</time></trkpt><trkpt lat="39.99648888312567" lon="9.667294440103127"><ele>146.0</ele><time>2026-04-28T13:31:18.891Z</time></trkpt><trkpt lat="39.996596829767284" lon="9.667182850430878"><ele>146.0</ele><time>2026-04-28T13:31:19.891Z</time></trkpt><trkpt lat="39.99674524759975" lon="9.667012083326707"><ele>151.33333333333331</ele><time>2026-04-28T13:31:20.891Z</time></trkpt><trkpt lat="39.996928714556894" lon="9.666844487204488"><ele>156.66666666666666</ele><time>2026-04-28T13:31:21.891Z</time></trkpt><trkpt lat="39.99710309450509" lon="9.666689053917626"><ele>162.0</ele><time>2026-04-28T13:31:22.891Z</time></trkpt><trkpt lat="39.99727196981673" lon="9.666577468316126"><ele>162.0</ele><time>2026-04-28T13:31:23.891Z</time></trkpt><trkpt lat="39.99744292576255" lon="9.666531604348544"><ele>162.0</ele><time>2026-04-28T13:31:24.891Z</time></trkpt><trkpt lat="39.99760911757258" lon="9.66652797685024"><ele>162.0</ele><time>2026-04-28T13:31:25.891Z</time></trkpt><trkpt lat="39.99776842815422" lon="9.666521392627464"><ele>163.25</ele><time>2026-04-28T13:31:26.891Z</time></trkpt><trkpt lat="39.997921433486546" lon="9.666510717168874"><ele>164.5</ele><time>2026-04-28T13:31:27.891Z</time></trkpt><trkpt lat="39.9980669041921" lon="9.666504340831706"><ele>165.75</ele><time>2026-04-28T13:31:28.891Z</time></trkpt><trkpt lat="39.99819886593075" lon="9.666524152701982"><ele>167.0</ele><time>2026-04-28T13:31:29.891Z</time></trkpt><trkpt lat="39.99832521300435" lon="9.666553375149292"><ele>167.5</ele><time>2026-04-28T13:31:30.891Z</time></trkpt><trkpt lat="39.99844804833836" lon="9.666584228820723"><ele>168.0</ele><time>2026-04-28T13:31:31.891Z</time></trkpt><trkpt lat="39.99856641923891" lon="9.666601557800494"><ele>168.5</ele><time>2026-04-28T13:31:32.891Z</time></trkpt><trkpt lat="39.998682993047325" lon="9.666603078529606"><ele>169.0</ele><time>2026-04-28T13:31:33.891Z</time></trkpt><trkpt lat="39.998793540148455" lon="9.666596757687257"><ele>169.0</ele><time>2026-04-28T13:31:34.891Z</time></trkpt><trkpt lat="39.998904253339774" lon="9.666619607303959"><ele>169.0</ele><time>2026-04-28T13:31:35.891Z</time></trkpt><trkpt lat="39.99901285582658" lon="9.666651422197148"><ele>169.0</ele><time>2026-04-28T13:31:36.891Z</time></trkpt><trkpt lat="39.999117584329746" lon="9.666685693064093"><ele>169.0</ele><time>2026-04-28T13:31:37.891Z</time></trkpt><trkpt lat="39.99921372034135" lon="9.666727848037452"><ele>169.0</ele><time>2026-04-28T13:31:38.891Z</time></trkpt><trkpt lat="39.99931803535246" lon="9.666766175960362"><ele>168.2</ele><time>2026-04-28T13:31:39.891Z</time></trkpt><trkpt lat="39.99942475317416" lon="9.666800281066486"><ele>167.39999999999998</ele><time>2026-04-28T13:31:40.891Z</time></trkpt><trkpt lat="39.99953137490425" lon="9.666835562100564"><ele>166.6</ele><time>2026-04-28T13:31:41.891Z</time></trkpt><trkpt lat="39.999636318791" lon="9.66687414552708"><ele>165.8</ele><time>2026-04-28T13:31:42.891Z</time></trkpt><trkpt lat="39.99973948774052" lon="9.666916284337097"><ele>165.0</ele><time>2026-04-28T13:31:43.891Z</time></trkpt><trkpt lat="39.999842139073884" lon="9.666955825551437"><ele>168.0</ele><time>2026-04-28T13:31:44.891Z</time></trkpt><trkpt lat="39.999941670421215" lon="9.667001745062656"><ele>171.0</ele><time>2026-04-28T13:31:45.891Z</time></trkpt><trkpt lat="40.00003462302985" lon="9.667062931472927"><ele>174.0</ele><time>2026-04-28T13:31:46.891Z</time></trkpt><trkpt lat="40.000118781377545" lon="9.667148268099329"><ele>177.0</ele><time>2026-04-28T13:31:47.891Z</time></trkpt><trkpt lat="40.00018614655855" lon="9.667253127881565"><ele>180.0</ele><time>2026-04-28T13:31:48.891Z</time></trkpt><trkpt lat="40.000235525669645" lon="9.667374158593507"><ele>180.0</ele><time>2026-04-28T13:31:49.891Z</time></trkpt><trkpt lat="40.000284530832865" lon="9.667495590575196"><ele>180.0</ele><time>2026-04-28T13:31:50.891Z</time></trkpt><trkpt lat="40.00035586837046" lon="9.66759728093717"><ele>180.0</ele><time>2026-04-28T13:31:51.891Z</time></trkpt><trkpt lat="40.0004457694967" lon="9.667664375591794"><ele>180.0</ele><time>2026-04-28T13:31:52.891Z</time></trkpt><trkpt lat="40.00054228889848" lon="9.667709746460195"><ele>180.0</ele><time>2026-04-28T13:31:53.891Z</time></trkpt><trkpt lat="40.00064469763537" lon="9.667756128524267"><ele>181.8</ele><time>2026-04-28T13:31:54.891Z</time></trkpt><trkpt lat="40.00073518099967" lon="9.667829602555557"><ele>183.6</ele><time>2026-04-28T13:31:55.891Z</time></trkpt><trkpt lat="40.00081054476219" lon="9.66792525148573"><ele>185.39999999999998</ele><time>2026-04-28T13:31:56.891Z</time></trkpt><trkpt lat="40.00087093729102" lon="9.668033603554488"><ele>187.2</ele><time>2026-04-28T13:31:57.891Z</time></trkpt><trkpt lat="40.00092287841712" lon="9.6681579412776"><ele>189.0</ele><time>2026-04-28T13:31:58.891Z</time></trkpt><trkpt lat="40.00097267302182" lon="9.668285499383336"><ele>189.6</ele><time>2026-04-28T13:31:59.891Z</time></trkpt><trkpt lat="40.0010286503418" lon="9.668408446539171"><ele>190.2</ele><time>2026-04-28T13:32:00.891Z</time></trkpt><trkpt lat="40.00109165688087" lon="9.668526122717122"><ele>190.79999999999998</ele><time>2026-04-28T13:32:01.891Z</time></trkpt><trkpt lat="40.001169682681066" lon="9.668633146662167"><ele>191.39999999999998</ele><time>2026-04-28T13:32:02.891Z</time></trkpt><trkpt lat="40.00125823517892" lon="9.668728162347703"><ele>192.0</ele><time>2026-04-28T13:32:03.891Z</time></trkpt><trkpt lat="40.001347671607405" lon="9.668809699448733"><ele>194.8</ele><time>2026-04-28T13:32:04.891Z</time></trkpt><trkpt lat="40.00144576589076" lon="9.668881486694417"><ele>197.6</ele><time>2026-04-28T13:32:05.891Z</time></trkpt><trkpt lat="40.0015488160496" lon="9.668940027062506"><ele>200.4</ele><time>2026-04-28T13:32:06.891Z</time></trkpt><trkpt lat="40.00165305549138" lon="9.668991057852605"><ele>203.20000000000002</ele><time>2026-04-28T13:32:07.891Z</time></trkpt><trkpt lat="40.00175329554057" lon="9.669041084414935"><ele>206.0</ele><time>2026-04-28T13:32:08.891Z</time></trkpt><trkpt lat="40.00185516228462" lon="9.669087822810797"><ele>206.0</ele><time>2026-04-28T13:32:09.891Z</time></trkpt><trkpt lat="40.00195867099505" lon="9.66912647173678"><ele>206.0</ele><time>2026-04-28T13:32:10.891Z</time></trkpt><trkpt lat="40.00206445648843" lon="9.669136786523456"><ele>206.0</ele><time>2026-04-28T13:32:11.891Z</time></trkpt><trkpt lat="40.0021649761986" lon="9.669095676828261"><ele>206.0</ele><time>2026-04-28T13:32:12.891Z</time></trkpt><trkpt lat="40.00225845006796" lon="9.669026929658735"><ele>206.0</ele><time>2026-04-28T13:32:13.891Z</time></trkpt><trkpt lat="40.00234599308717" lon="9.668943335785148"><ele>206.0</ele><time>2026-04-28T13:32:14.891Z</time></trkpt><trkpt lat="40.00243601282784" lon="9.668867423052237"><ele>206.0</ele><time>2026-04-28T13:32:15.891Z</time></trkpt><trkpt lat="40.00253289750683" lon="9.66879747956447"><ele>206.0</ele><time>2026-04-28T13:32:16.89Z</time></trkpt><trkpt lat="40.00263088174806" lon="9.668749106011639"><ele>206.0</ele><time>2026-04-28T13:32:17.89Z</time></trkpt><trkpt lat="40.002729508588516" lon="9.668736902006158"><ele>206.0</ele><time>2026-04-28T13:32:18.89Z</time></trkpt><trkpt lat="40.00282575359027" lon="9.668768220766072"><ele>207.75</ele><time>2026-04-28T13:32:19.89Z</time></trkpt><trkpt lat="40.00292511817022" lon="9.668823402029924"><ele>209.5</ele><time>2026-04-28T13:32:20.89Z</time></trkpt><trkpt lat="40.00302690000921" lon="9.668885367724013"><ele>211.25</ele><time>2026-04-28T13:32:21.89Z</time></trkpt><trkpt lat="40.0031345593893" lon="9.668945886191954"><ele>213.0</ele><time>2026-04-28T13:32:22.89Z</time></trkpt><trkpt lat="40.00324405695096" lon="9.66899983287164"><ele>214.0</ele><time>2026-04-28T13:32:23.89Z</time></trkpt><trkpt lat="40.00334874255697" lon="9.669053482702568"><ele>215.0</ele><time>2026-04-28T13:32:24.891Z</time></trkpt><trkpt lat="40.003456972152385" lon="9.669085024851046"><ele>216.0</ele><time>2026-04-28T13:32:25.891Z</time></trkpt><trkpt lat="40.00357398791904" lon="9.669071051242247"><ele>217.0</ele><time>2026-04-28T13:32:26.891Z</time></trkpt><trkpt lat="40.003690679884095" lon="9.669009819415194"><ele>217.0</ele><time>2026-04-28T13:32:27.89Z</time></trkpt><trkpt lat="40.00379754301204" lon="9.668923577461664"><ele>217.0</ele><time>2026-04-28T13:32:28.89Z</time></trkpt><trkpt lat="40.00390050216" lon="9.668830006891032"><ele>217.0</ele><time>2026-04-28T13:32:29.89Z</time></trkpt><trkpt lat="40.00400365579976" lon="9.668748646938864"><ele>217.0</ele><time>2026-04-28T13:32:30.89Z</time></trkpt><trkpt lat="40.004100932839435" lon="9.668670046268378"><ele>213.39999999999998</ele><time>2026-04-28T13:32:31.891Z</time></trkpt><trkpt lat="40.004195373295445" lon="9.668601356396982"><ele>209.79999999999998</ele><time>2026-04-28T13:32:32.891Z</time></trkpt><trkpt lat="40.00429733236687" lon="9.66855839239205"><ele>206.2</ele><time>2026-04-28T13:32:33.89Z</time></trkpt><trkpt lat="40.00440525907465" lon="9.668560480213372"><ele>202.6</ele><time>2026-04-28T13:32:34.89Z</time></trkpt><trkpt lat="40.00451857023247" lon="9.668574269450415"><ele>199.0</ele><time>2026-04-28T13:32:35.89Z</time></trkpt><trkpt lat="40.00463394034054" lon="9.668583962691073"><ele>199.0</ele><time>2026-04-28T13:32:36.89Z</time></trkpt><trkpt lat="40.00474969089727" lon="9.668595763234858"><ele>199.0</ele><time>2026-04-28T13:32:37.89Z</time></trkpt><trkpt lat="40.00486239601879" lon="9.668607013863785"><ele>199.0</ele><time>2026-04-28T13:32:38.89Z</time></trkpt><trkpt lat="40.00497953460466" lon="9.668619288401361"><ele>199.0</ele><time>2026-04-28T13:32:39.89Z</time></trkpt><trkpt lat="40.00509485264308" lon="9.66862568643604"><ele>203.2</ele><time>2026-04-28T13:32:40.89Z</time></trkpt><trkpt lat="40.005209044450694" lon="9.66864112948376"><ele>207.39999999999998</ele><time>2026-04-28T13:32:41.89Z</time></trkpt><trkpt lat="40.00531571430602" lon="9.668647299180027"><ele>211.6</ele><time>2026-04-28T13:32:42.89Z</time></trkpt><trkpt lat="40.0054104504457" lon="9.668595774109509"><ele>215.8</ele><time>2026-04-28T13:32:43.89Z</time></trkpt><trkpt lat="40.005467453959376" lon="9.668493456953257"><ele>220.0</ele><time>2026-04-28T13:32:44.89Z</time></trkpt><trkpt lat="40.00548054896157" lon="9.668365630313234"><ele>220.0</ele><time>2026-04-28T13:32:45.89Z</time></trkpt><trkpt lat="40.005452371809774" lon="9.668203466453008"><ele>220.0</ele><time>2026-04-28T13:32:46.89Z</time></trkpt><trkpt lat="40.005410649306995" lon="9.668028364072946"><ele>220.0</ele><time>2026-04-28T13:32:47.89Z</time></trkpt><trkpt lat="40.0053582987825" lon="9.667843123422154"><ele>220.0</ele><time>2026-04-28T13:32:48.89Z</time></trkpt><trkpt lat="40.005277247394055" lon="9.667691403410862"><ele>219.75</ele><time>2026-04-28T13:32:49.89Z</time></trkpt><trkpt lat="40.00517628348912" lon="9.667544431104455"><ele>219.5</ele><time>2026-04-28T13:32:50.89Z</time></trkpt><trkpt lat="40.005082732571275" lon="9.667400868862098"><ele>219.25</ele><time>2026-04-28T13:32:51.89Z</time></trkpt><trkpt lat="40.00502987044389" lon="9.66725440560795"><ele>219.0</ele><time>2026-04-28T13:32:52.89Z</time></trkpt><trkpt lat="40.00504705842716" lon="9.667106418980042"><ele>219.0</ele><time>2026-04-28T13:32:53.89Z</time></trkpt><trkpt lat="40.00513125723236" lon="9.667015954738876"><ele>219.0</ele><time>2026-04-28T13:32:54.89Z</time></trkpt><trkpt lat="40.00525587676595" lon="9.66699042447582"><ele>219.0</ele><time>2026-04-28T13:32:55.89Z</time></trkpt><trkpt lat="40.00539346209949" lon="9.667000729071827"><ele>219.0</ele><time>2026-04-28T13:32:56.89Z</time></trkpt><trkpt lat="40.005531402868364" lon="9.66706280264568"><ele>219.0</ele><time>2026-04-28T13:32:57.89Z</time></trkpt><trkpt lat="40.00563582924705" lon="9.667188699931978"><ele>219.0</ele><time>2026-04-28T13:32:58.89Z</time></trkpt><trkpt lat="40.00568781474099" lon="9.667368403179106"><ele>219.0</ele><time>2026-04-28T13:32:59.89Z</time></trkpt><trkpt lat="40.005692482988884" lon="9.667577162210952"><ele>219.0</ele><time>2026-04-28T13:33:00.89Z</time></trkpt><trkpt lat="40.00570105371279" lon="9.667791318545289"><ele>219.33333333333331</ele><time>2026-04-28T13:33:01.89Z</time></trkpt><trkpt lat="40.005738741994534" lon="9.668000789129493"><ele>219.66666666666666</ele><time>2026-04-28T13:33:02.89Z</time></trkpt><trkpt lat="40.00581635559561" lon="9.66819609209322"><ele>220.0</ele><time>2026-04-28T13:33:03.89Z</time></trkpt><trkpt lat="40.00592640975931" lon="9.668350946450179"><ele>225.33333333333331</ele><time>2026-04-28T13:33:04.89Z</time></trkpt><trkpt lat="40.00606193016715" lon="9.668482901957505"><ele>230.66666666666669</ele><time>2026-04-28T13:33:05.89Z</time></trkpt><trkpt lat="40.00620631707521" lon="9.66861609150808"><ele>236.0</ele><time>2026-04-28T13:33:06.89Z</time></trkpt><trkpt lat="40.0063382283337" lon="9.66877458936391"><ele>240.33333333333334</ele><time>2026-04-28T13:33:07.89Z</time></trkpt><trkpt lat="40.00646222415939" lon="9.668945357167788"><ele>244.66666666666669</ele><time>2026-04-28T13:33:08.89Z</time></trkpt><trkpt lat="40.00658840114361" lon="9.669112152386997"><ele>249.0</ele><time>2026-04-28T13:33:09.89Z</time></trkpt><trkpt lat="40.006717086760844" lon="9.669280726177284"><ele>258.6666666666667</ele><time>2026-04-28T13:33:10.89Z</time></trkpt><trkpt lat="40.006852954257305" lon="9.669456393145936"><ele>268.33333333333337</ele><time>2026-04-28T13:33:11.89Z</time></trkpt><trkpt lat="40.0069855777999" lon="9.66962872884734"><ele>278.0</ele><time>2026-04-28T13:33:12.89Z</time></trkpt><trkpt lat="40.007122497188334" lon="9.669796868774254"><ele>278.0</ele><time>2026-04-28T13:33:13.89Z</time></trkpt><trkpt lat="40.007268455598556" lon="9.669952330541257"><ele>278.0</ele><time>2026-04-28T13:33:14.89Z</time></trkpt><trkpt lat="40.00741059832249" lon="9.670117277512244"><ele>278.0</ele><time>2026-04-28T13:33:15.89Z</time></trkpt><trkpt lat="40.00753581983918" lon="9.670309885289791"><ele>280.0</ele><time>2026-04-28T13:33:16.89Z</time></trkpt><trkpt lat="40.007640267379145" lon="9.67052372408508"><ele>282.0</ele><time>2026-04-28T13:33:17.89Z</time></trkpt><trkpt lat="40.00774229845021" lon="9.670709145129583"><ele>284.0</ele><time>2026-04-28T13:33:18.89Z</time></trkpt><trkpt lat="40.00784428285062" lon="9.670858580382014"><ele>284.0</ele><time>2026-04-28T13:33:19.89Z</time></trkpt><trkpt lat="40.007998385243404" lon="9.670906024201152"><ele>284.0</ele><time>2026-04-28T13:33:20.89Z</time></trkpt><trkpt lat="40.00816554678196" lon="9.670880064991334"><ele>284.0</ele><time>2026-04-28T13:33:21.89Z</time></trkpt><trkpt lat="40.008347688867715" lon="9.670890811769162"><ele>279.0</ele><time>2026-04-28T13:33:22.89Z</time></trkpt><trkpt lat="40.00852562389179" lon="9.670910492863849"><ele>274.0</ele><time>2026-04-28T13:33:23.89Z</time></trkpt><trkpt lat="40.00870861902067" lon="9.670864580427544"><ele>269.0</ele><time>2026-04-28T13:33:24.89Z</time></trkpt><trkpt lat="40.008893719193615" lon="9.670776277803261"><ele>269.0</ele><time>2026-04-28T13:33:25.89Z</time></trkpt><trkpt lat="40.00907152227441" lon="9.670703621873466"><ele>269.0</ele><time>2026-04-28T13:33:26.89Z</time></trkpt><trkpt lat="40.00924687850281" lon="9.670617187980975"><ele>269.0</ele><time>2026-04-28T13:33:27.89Z</time></trkpt><trkpt lat="40.00939908857024" lon="9.670550175736832"><ele>265.33333333333337</ele><time>2026-04-28T13:33:28.89Z</time></trkpt><trkpt lat="40.00950534444508" lon="9.670433007727233"><ele>261.6666666666667</ele><time>2026-04-28T13:33:29.89Z</time></trkpt><trkpt lat="40.009571491793736" lon="9.670244291257"><ele>258.0</ele><time>2026-04-28T13:33:30.89Z</time></trkpt><trkpt lat="40.0096109563577" lon="9.670021933904675"><ele>258.0</ele><time>2026-04-28T13:33:31.89Z</time></trkpt><trkpt lat="40.00965863594968" lon="9.669789683339307"><ele>258.0</ele><time>2026-04-28T13:33:32.889Z</time></trkpt><trkpt lat="40.009714968371355" lon="9.669550171089732"><ele>258.0</ele><time>2026-04-28T13:33:33.889Z</time></trkpt><trkpt lat="40.00979039467891" lon="9.669327558725831"><ele>252.75</ele><time>2026-04-28T13:33:34.889Z</time></trkpt><trkpt lat="40.009890675717486" lon="9.669153818046508"><ele>247.5</ele><time>2026-04-28T13:33:35.889Z</time></trkpt><trkpt lat="40.00998013428944" lon="9.668997784746947"><ele>242.25</ele><time>2026-04-28T13:33:36.889Z</time></trkpt><trkpt lat="40.01002570371513" lon="9.66884732573715"><ele>237.0</ele><time>2026-04-28T13:33:37.889Z</time></trkpt><trkpt lat="40.01002868364358" lon="9.668699595775655"><ele>244.39999999999998</ele><time>2026-04-28T13:33:38.889Z</time></trkpt><trkpt lat="40.01001116993703" lon="9.668565932325725"><ele>251.79999999999998</ele><time>2026-04-28T13:33:39.889Z</time></trkpt><trkpt lat="40.01001138225684" lon="9.668445813996026"><ele>259.2</ele><time>2026-04-28T13:33:40.889Z</time></trkpt><trkpt lat="40.01001730100803" lon="9.668354880348328"><ele>266.59999999999997</ele><time>2026-04-28T13:33:41.889Z</time></trkpt><trkpt lat="40.01004468407659" lon="9.668266865799445"><ele>274.0</ele><time>2026-04-28T13:33:42.889Z</time></trkpt><trkpt lat="40.01015086785664" lon="9.668196931546772"><ele>274.0</ele><time>2026-04-28T13:33:44.889Z</time></trkpt><trkpt lat="40.010231789287694" lon="9.668203563430462"><ele>274.0</ele><time>2026-04-28T13:33:45.889Z</time></trkpt><trkpt lat="40.010324757131066" lon="9.668246540441663"><ele>274.0</ele><time>2026-04-28T13:33:46.889Z</time></trkpt><trkpt lat="40.01041061113421" lon="9.66832128445179"><ele>274.0</ele><time>2026-04-28T13:33:47.889Z</time></trkpt><trkpt lat="40.01050059752048" lon="9.668389831405817"><ele>274.0</ele><time>2026-04-28T13:33:48.889Z</time></trkpt><trkpt lat="40.010579965133196" lon="9.668483780842188"><ele>277.66666666666663</ele><time>2026-04-28T13:33:49.889Z</time></trkpt><trkpt lat="40.01064824366588" lon="9.668631754674403"><ele>281.3333333333333</ele><time>2026-04-28T13:33:50.889Z</time></trkpt><trkpt lat="40.010722489630616" lon="9.668838717301568"><ele>285.0</ele><time>2026-04-28T13:33:51.889Z</time></trkpt><trkpt lat="40.01078804390144" lon="9.669085897697565"><ele>287.0</ele><time>2026-04-28T13:33:52.889Z</time></trkpt><trkpt lat="40.01085949157375" lon="9.669317070252768"><ele>289.0</ele><time>2026-04-28T13:33:53.889Z</time></trkpt><trkpt lat="40.010970991084754" lon="9.669509085072317"><ele>291.0</ele><time>2026-04-28T13:33:54.889Z</time></trkpt><trkpt lat="40.011101176398526" lon="9.669658072026293"><ele>296.0</ele><time>2026-04-28T13:33:55.889Z</time></trkpt><trkpt lat="40.011221474852526" lon="9.66977404669229"><ele>301.0</ele><time>2026-04-28T13:33:56.889Z</time></trkpt><trkpt lat="40.01129887986858" lon="9.66991613170026"><ele>306.0</ele><time>2026-04-28T13:33:57.889Z</time></trkpt><trkpt lat="40.0113202867559" lon="9.67008635211361"><ele>311.0</ele><time>2026-04-28T13:33:58.889Z</time></trkpt><trkpt lat="40.01128696007465" lon="9.670261821405166"><ele>313.0</ele><time>2026-04-28T13:33:59.889Z</time></trkpt><trkpt lat="40.01121788868288" lon="9.670441645505798"><ele>315.0</ele><time>2026-04-28T13:34:00.889Z</time></trkpt><trkpt lat="40.01115987920109" lon="9.670615471646773"><ele>317.0</ele><time>2026-04-28T13:34:01.889Z</time></trkpt><trkpt lat="40.011098733293636" lon="9.670791921391766"><ele>319.0</ele><time>2026-04-28T13:34:02.889Z</time></trkpt><trkpt lat="40.0110451128229" lon="9.670963751450534"><ele>319.0</ele><time>2026-04-28T13:34:03.889Z</time></trkpt><trkpt lat="40.010998664676" lon="9.671139564355181"><ele>319.0</ele><time>2026-04-28T13:34:04.889Z</time></trkpt><trkpt lat="40.01095432892676" lon="9.671318027945949"><ele>319.0</ele><time>2026-04-28T13:34:05.889Z</time></trkpt><trkpt lat="40.01091851450679" lon="9.671497146831392"><ele>319.0</ele><time>2026-04-28T13:34:06.889Z</time></trkpt><trkpt lat="40.010907553569865" lon="9.671685304150197"><ele>319.0</ele><time>2026-04-28T13:34:07.889Z</time></trkpt><trkpt lat="40.01093178251367" lon="9.671868000283865"><ele>319.0</ele><time>2026-04-28T13:34:08.889Z</time></trkpt><trkpt lat="40.01098887155899" lon="9.67204349963893"><ele>319.0</ele><time>2026-04-28T13:34:09.889Z</time></trkpt><trkpt lat="40.0110623160544" lon="9.672231363073562"><ele>324.0</ele><time>2026-04-28T13:34:10.889Z</time></trkpt><trkpt lat="40.01116197292834" lon="9.672408978977451"><ele>329.0</ele><time>2026-04-28T13:34:11.889Z</time></trkpt><trkpt lat="40.01129998435782" lon="9.672552285110104"><ele>334.0</ele><time>2026-04-28T13:34:12.889Z</time></trkpt><trkpt lat="40.01146425503959" lon="9.67268420238296"><ele>335.66666666666663</ele><time>2026-04-28T13:34:13.889Z</time></trkpt><trkpt lat="40.01163946790123" lon="9.67282540514144"><ele>337.3333333333333</ele><time>2026-04-28T13:34:14.889Z</time></trkpt><trkpt lat="40.01179777261437" lon="9.6729613961384"><ele>339.0</ele><time>2026-04-28T13:34:15.889Z</time></trkpt><trkpt lat="40.01192363356088" lon="9.673067477055408"><ele>339.0</ele><time>2026-04-28T13:34:16.889Z</time></trkpt><trkpt lat="40.01205072582843" lon="9.673096114177103"><ele>339.0</ele><time>2026-04-28T13:34:17.889Z</time></trkpt><trkpt lat="40.01217137906166" lon="9.672999123855993"><ele>339.0</ele><time>2026-04-28T13:34:18.889Z</time></trkpt><trkpt lat="40.012281348365654" lon="9.672816903406762"><ele>339.0</ele><time>2026-04-28T13:34:19.889Z</time></trkpt><trkpt lat="40.01240666575707" lon="9.672703667443168"><ele>340.0</ele><time>2026-04-28T13:34:20.889Z</time></trkpt><trkpt lat="40.0125563129554" lon="9.672667203998508"><ele>341.0</ele><time>2026-04-28T13:34:21.889Z</time></trkpt><trkpt lat="40.01271775357794" lon="9.672739784802099"><ele>342.0</ele><time>2026-04-28T13:34:22.889Z</time></trkpt><trkpt lat="40.01286481800302" lon="9.672897990854615"><ele>342.0</ele><time>2026-04-28T13:34:23.889Z</time></trkpt><trkpt lat="40.013011013551676" lon="9.673105427929281"><ele>342.0</ele><time>2026-04-28T13:34:24.889Z</time></trkpt><trkpt lat="40.01314457844119" lon="9.673305001617011"><ele>342.0</ele><time>2026-04-28T13:34:25.889Z</time></trkpt><trkpt lat="40.01324619624838" lon="9.673495462632403"><ele>342.3333333333333</ele><time>2026-04-28T13:34:26.889Z</time></trkpt><trkpt lat="40.01329812452651" lon="9.673730029672004"><ele>342.66666666666663</ele><time>2026-04-28T13:34:27.889Z</time></trkpt><trkpt lat="40.01335664925043" lon="9.673927552804368"><ele>343.0</ele><time>2026-04-28T13:34:28.889Z</time></trkpt><trkpt lat="40.01346854857556" lon="9.674090545082004"><ele>343.0</ele><time>2026-04-28T13:34:29.889Z</time></trkpt><trkpt lat="40.01359005993037" lon="9.674235179022462"><ele>343.0</ele><time>2026-04-28T13:34:30.889Z</time></trkpt><trkpt lat="40.01363114555963" lon="9.67442365332749"><ele>343.0</ele><time>2026-04-28T13:34:31.889Z</time></trkpt><trkpt lat="40.01361987527611" lon="9.674629692868328"><ele>345.75</ele><time>2026-04-28T13:34:32.889Z</time></trkpt><trkpt lat="40.01354736044682" lon="9.6748226901028"><ele>348.5</ele><time>2026-04-28T13:34:33.889Z</time></trkpt><trkpt lat="40.01350593971023" lon="9.674997265585258"><ele>351.25</ele><time>2026-04-28T13:34:34.889Z</time></trkpt><trkpt lat="40.01354682431218" lon="9.675160646035014"><ele>354.0</ele><time>2026-04-28T13:34:35.889Z</time></trkpt><trkpt lat="40.01363658559614" lon="9.675290848291285"><ele>356.5</ele><time>2026-04-28T13:34:36.889Z</time></trkpt><trkpt lat="40.0137389669667" lon="9.675380282573048"><ele>359.0</ele><time>2026-04-28T13:34:37.889Z</time></trkpt><trkpt lat="40.01381402754428" lon="9.675491427401365"><ele>361.5</ele><time>2026-04-28T13:34:38.889Z</time></trkpt><trkpt lat="40.013854981135744" lon="9.67562299904242"><ele>364.0</ele><time>2026-04-28T13:34:39.889Z</time></trkpt><trkpt lat="40.01385565840662" lon="9.675767764924508"><ele>364.0</ele><time>2026-04-28T13:34:40.889Z</time></trkpt><trkpt lat="40.013832077952365" lon="9.67590778300046"><ele>364.0</ele><time>2026-04-28T13:34:41.889Z</time></trkpt><trkpt lat="40.013799098005585" lon="9.676059650147804"><ele>364.0</ele><time>2026-04-28T13:34:42.889Z</time></trkpt><trkpt lat="40.013751382663145" lon="9.676237599896348"><ele>364.0</ele><time>2026-04-28T13:34:43.889Z</time></trkpt><trkpt lat="40.013654137987125" lon="9.676417999698739"><ele>365.0</ele><time>2026-04-28T13:34:44.889Z</time></trkpt><trkpt lat="40.01351967791338" lon="9.676580956035924"><ele>366.0</ele><time>2026-04-28T13:34:45.889Z</time></trkpt><trkpt lat="40.01339853919583" lon="9.676724690142406"><ele>367.0</ele><time>2026-04-28T13:34:46.889Z</time></trkpt><trkpt lat="40.013331365718614" lon="9.676871591599507"><ele>369.0</ele><time>2026-04-28T13:34:47.889Z</time></trkpt><trkpt lat="40.01333436537659" lon="9.67704994644443"><ele>371.0</ele><time>2026-04-28T13:34:48.889Z</time></trkpt><trkpt lat="40.01342016041804" lon="9.677241683992378"><ele>373.0</ele><time>2026-04-28T13:34:49.889Z</time></trkpt><trkpt lat="40.01356395919394" lon="9.677393981975346"><ele>373.0</ele><time>2026-04-28T13:34:50.889Z</time></trkpt><trkpt lat="40.01371336438481" lon="9.677515429076804"><ele>373.0</ele><time>2026-04-28T13:34:51.889Z</time></trkpt><trkpt lat="40.0138303124371" lon="9.677636301988613"><ele>373.0</ele><time>2026-04-28T13:34:52.889Z</time></trkpt><trkpt lat="40.01389994772766" lon="9.677770622361452"><ele>373.0</ele><time>2026-04-28T13:34:53.889Z</time></trkpt><trkpt lat="40.01395684492508" lon="9.677931874669593"><ele>381.3333333333333</ele><time>2026-04-28T13:34:54.889Z</time></trkpt><trkpt lat="40.013990425229636" lon="9.678142550806415"><ele>389.66666666666663</ele><time>2026-04-28T13:34:55.889Z</time></trkpt><trkpt lat="40.01398607465364" lon="9.678344691701248"><ele>398.0</ele><time>2026-04-28T13:34:56.889Z</time></trkpt><trkpt lat="40.0140345632626" lon="9.678512789092236"><ele>399.66666666666663</ele><time>2026-04-28T13:34:57.889Z</time></trkpt><trkpt lat="40.014155076594434" lon="9.678630037661266"><ele>401.33333333333337</ele><time>2026-04-28T13:34:58.889Z</time></trkpt><trkpt lat="40.0142900618322" lon="9.678665504675717"><ele>403.0</ele><time>2026-04-28T13:34:59.889Z</time></trkpt><trkpt lat="40.01445125863718" lon="9.678599801498779"><ele>390.33333333333337</ele><time>2026-04-28T13:35:00.889Z</time></trkpt><trkpt lat="40.014622453101296" lon="9.678482929337802"><ele>377.6666666666667</ele><time>2026-04-28T13:35:01.889Z</time></trkpt><trkpt lat="40.01481322887056" lon="9.67843200181487"><ele>365.0</ele><time>2026-04-28T13:35:02.889Z</time></trkpt><trkpt lat="40.015000964345916" lon="9.678495055590503"><ele>377.6666666666667</ele><time>2026-04-28T13:35:03.889Z</time></trkpt><trkpt lat="40.01517282504476" lon="9.678631105888211"><ele>390.33333333333337</ele><time>2026-04-28T13:35:04.889Z</time></trkpt><trkpt lat="40.015324308934844" lon="9.678693520299415"><ele>403.0</ele><time>2026-04-28T13:35:05.889Z</time></trkpt><trkpt lat="40.015497835098586" lon="9.678669958430358"><ele>408.6666666666667</ele><time>2026-04-28T13:35:06.889Z</time></trkpt><trkpt lat="40.01568799192819" lon="9.678582754898233"><ele>414.33333333333337</ele><time>2026-04-28T13:35:07.889Z</time></trkpt><trkpt lat="40.015877195114" lon="9.67863043788487"><ele>420.0</ele><time>2026-04-28T13:35:08.888Z</time></trkpt><trkpt lat="40.016075851797446" lon="9.678705790102805"><ele>420.0</ele><time>2026-04-28T13:35:09.888Z</time></trkpt><trkpt lat="40.01628285923602" lon="9.678709025149157"><ele>420.0</ele><time>2026-04-28T13:35:10.888Z</time></trkpt><trkpt lat="40.016484015938246" lon="9.678684311542392"><ele>420.0</ele><time>2026-04-28T13:35:11.888Z</time></trkpt><trkpt lat="40.01665390898685" lon="9.678637516559954"><ele>407.0</ele><time>2026-04-28T13:35:12.888Z</time></trkpt><trkpt lat="40.01680084139058" lon="9.678517754543497"><ele>394.0</ele><time>2026-04-28T13:35:13.888Z</time></trkpt><trkpt lat="40.01693610159329" lon="9.678333070347533"><ele>381.0</ele><time>2026-04-28T13:35:14.888Z</time></trkpt><trkpt lat="40.017082281172144" lon="9.678151198689498"><ele>381.0</ele><time>2026-04-28T13:35:15.888Z</time></trkpt><trkpt lat="40.01722694153942" lon="9.678035485108804"><ele>381.0</ele><time>2026-04-28T13:35:16.888Z</time></trkpt><trkpt lat="40.01737690683983" lon="9.678011379657882"><ele>381.0</ele><time>2026-04-28T13:35:17.888Z</time></trkpt><trkpt lat="40.017529140377555" lon="9.678084929672718"><ele>387.33333333333337</ele><time>2026-04-28T13:35:18.888Z</time></trkpt><trkpt lat="40.01766596033176" lon="9.678227928965889"><ele>393.6666666666667</ele><time>2026-04-28T13:35:19.888Z</time></trkpt><trkpt lat="40.01783524770925" lon="9.678298690986189"><ele>400.0</ele><time>2026-04-28T13:35:20.888Z</time></trkpt><trkpt lat="40.0180310841364" lon="9.678276103291003"><ele>400.0</ele><time>2026-04-28T13:35:21.888Z</time></trkpt><trkpt lat="40.01823946745916" lon="9.678226591621442"><ele>400.0</ele><time>2026-04-28T13:35:22.888Z</time></trkpt><trkpt lat="40.01844763408766" lon="9.678196910323749"><ele>400.0</ele><time>2026-04-28T13:35:23.888Z</time></trkpt><trkpt lat="40.01865617668217" lon="9.678206189319885"><ele>401.0</ele><time>2026-04-28T13:35:24.888Z</time></trkpt><trkpt lat="40.01886947746447" lon="9.678248831985476"><ele>402.0</ele><time>2026-04-28T13:35:25.888Z</time></trkpt><trkpt lat="40.019077766038755" lon="9.67830407958196"><ele>403.0</ele><time>2026-04-28T13:35:26.888Z</time></trkpt><trkpt lat="40.01928173413404" lon="9.67836430062942"><ele>404.33333333333337</ele><time>2026-04-28T13:35:27.888Z</time></trkpt><trkpt lat="40.019458944824144" lon="9.678423885372844"><ele>405.66666666666663</ele><time>2026-04-28T13:35:28.888Z</time></trkpt><trkpt lat="40.019609174431004" lon="9.678460953242343"><ele>407.0</ele><time>2026-04-28T13:35:29.888Z</time></trkpt><trkpt lat="40.019736835938545" lon="9.678400241090364"><ele>407.0</ele><time>2026-04-28T13:35:30.888Z</time></trkpt><trkpt lat="40.01983500982107" lon="9.678225385379083"><ele>407.0</ele><time>2026-04-28T13:35:31.888Z</time></trkpt><trkpt lat="40.01993441888455" lon="9.67799185801633"><ele>407.0</ele><time>2026-04-28T13:35:32.888Z</time></trkpt><trkpt lat="40.0200763635092" lon="9.677783032192679"><ele>403.66666666666663</ele><time>2026-04-28T13:35:33.888Z</time></trkpt><trkpt lat="40.02023400724131" lon="9.677639082016642"><ele>400.33333333333337</ele><time>2026-04-28T13:35:34.888Z</time></trkpt><trkpt lat="40.02033052386009" lon="9.67745894612478"><ele>397.0</ele><time>2026-04-28T13:35:35.888Z</time></trkpt><trkpt lat="40.020366979759004" lon="9.677207076266441"><ele>397.0</ele><time>2026-04-28T13:35:36.888Z</time></trkpt><trkpt lat="40.02037126440736" lon="9.676942203757399"><ele>397.0</ele><time>2026-04-28T13:35:37.888Z</time></trkpt><trkpt lat="40.02039372218816" lon="9.676709413274716"><ele>397.0</ele><time>2026-04-28T13:35:38.888Z</time></trkpt><trkpt lat="40.02049189021672" lon="9.676500780069258"><ele>392.0</ele><time>2026-04-28T13:35:39.888Z</time></trkpt><trkpt lat="40.0205461976631" lon="9.676256298071594"><ele>387.0</ele><time>2026-04-28T13:35:40.888Z</time></trkpt><trkpt lat="40.02059535852774" lon="9.675963518036973"><ele>382.0</ele><time>2026-04-28T13:35:41.888Z</time></trkpt><trkpt lat="40.02065662443087" lon="9.675665811271655"><ele>380.0</ele><time>2026-04-28T13:35:42.888Z</time></trkpt><trkpt lat="40.02072208457082" lon="9.67537849875857"><ele>378.0</ele><time>2026-04-28T13:35:43.888Z</time></trkpt><trkpt lat="40.02079932830602" lon="9.675106574915628"><ele>397.5</ele><time>2026-04-28T13:35:44.888Z</time></trkpt><trkpt lat="40.02090578441114" lon="9.674845823452827"><ele>417.0</ele><time>2026-04-28T13:35:45.888Z</time></trkpt><trkpt lat="40.02104924640506" lon="9.674590582462464"><ele>409.5</ele><time>2026-04-28T13:35:46.888Z</time></trkpt><trkpt lat="40.02120843272265" lon="9.674345265499161"><ele>402.0</ele><time>2026-04-28T13:35:47.888Z</time></trkpt><trkpt lat="40.021381880849134" lon="9.674108783757237"><ele>402.0</ele><time>2026-04-28T13:35:48.888Z</time></trkpt><trkpt lat="40.02155672347298" lon="9.67389312949998"><ele>402.0</ele><time>2026-04-28T13:35:49.888Z</time></trkpt><trkpt lat="40.02173727823575" lon="9.67369013410897"><ele>403.66666666666663</ele><time>2026-04-28T13:35:50.888Z</time></trkpt><trkpt lat="40.021903498524026" lon="9.673495888314298"><ele>405.3333333333333</ele><time>2026-04-28T13:35:51.888Z</time></trkpt><trkpt lat="40.0220337159611" lon="9.673273777150701"><ele>407.0</ele><time>2026-04-28T13:35:52.888Z</time></trkpt><trkpt lat="40.02215601676316" lon="9.673036659386202"><ele>407.0</ele><time>2026-04-28T13:35:53.888Z</time></trkpt><trkpt lat="40.0223242449515" lon="9.672839554877244"><ele>407.0</ele><time>2026-04-28T13:35:54.888Z</time></trkpt><trkpt lat="40.022512935243746" lon="9.672662894867488"><ele>416.5</ele><time>2026-04-28T13:35:55.888Z</time></trkpt><trkpt lat="40.02269606878643" lon="9.672480270452864"><ele>426.0</ele><time>2026-04-28T13:35:56.888Z</time></trkpt><trkpt lat="40.022863059601534" lon="9.67228733357563"><ele>426.0</ele><time>2026-04-28T13:35:57.888Z</time></trkpt><trkpt lat="40.02299079670509" lon="9.672045782835568"><ele>426.0</ele><time>2026-04-28T13:35:58.888Z</time></trkpt><trkpt lat="40.02310674792745" lon="9.67179104991573"><ele>433.0</ele><time>2026-04-28T13:35:59.888Z</time></trkpt><trkpt lat="40.02323614574767" lon="9.671559756371542"><ele>440.0</ele><time>2026-04-28T13:36:00.888Z</time></trkpt><trkpt lat="40.02341383615435" lon="9.671360532719945"><ele>440.0</ele><time>2026-04-28T13:36:01.888Z</time></trkpt><trkpt lat="40.02359072707074" lon="9.671167326924351"><ele>440.0</ele><time>2026-04-28T13:36:02.888Z</time></trkpt><trkpt lat="40.023763898478165" lon="9.670995628776604"><ele>440.0</ele><time>2026-04-28T13:36:03.888Z</time></trkpt><trkpt lat="40.02395092482688" lon="9.67089709524888"><ele>438.66666666666663</ele><time>2026-04-28T13:36:04.888Z</time></trkpt><trkpt lat="40.024156465899374" lon="9.670872233604648"><ele>437.33333333333337</ele><time>2026-04-28T13:36:05.888Z</time></trkpt><trkpt lat="40.02436203832918" lon="9.670884024615107"><ele>436.0</ele><time>2026-04-28T13:36:06.888Z</time></trkpt><trkpt lat="40.02453592251318" lon="9.670883176656515"><ele>436.0</ele><time>2026-04-28T13:36:07.888Z</time></trkpt><trkpt lat="40.02469763717873" lon="9.670814310025612"><ele>436.0</ele><time>2026-04-28T13:36:08.888Z</time></trkpt><trkpt lat="40.02485322208172" lon="9.670673677792976"><ele>436.0</ele><time>2026-04-28T13:36:09.888Z</time></trkpt><trkpt lat="40.02497412987196" lon="9.67045289105"><ele>437.5</ele><time>2026-04-28T13:36:10.888Z</time></trkpt><trkpt lat="40.02506976728543" lon="9.67017684290192"><ele>439.0</ele><time>2026-04-28T13:36:11.888Z</time></trkpt><trkpt lat="40.02518165427072" lon="9.669918821206828"><ele>439.0</ele><time>2026-04-28T13:36:12.888Z</time></trkpt><trkpt lat="40.02534259300506" lon="9.6697431382787"><ele>439.0</ele><time>2026-04-28T13:36:13.888Z</time></trkpt><trkpt lat="40.02551541193236" lon="9.669631214904136"><ele>439.0</ele><time>2026-04-28T13:36:14.887Z</time></trkpt><trkpt lat="40.02566321794349" lon="9.66955760133019"><ele>439.0</ele><time>2026-04-28T13:36:15.887Z</time></trkpt><trkpt lat="40.02579938717125" lon="9.669518116187279"><ele>439.0</ele><time>2026-04-28T13:36:16.887Z</time></trkpt><trkpt lat="40.0259123026346" lon="9.669462914754837"><ele>439.0</ele><time>2026-04-28T13:36:17.887Z</time></trkpt><trkpt lat="40.02600383178043" lon="9.669386354789788"><ele>439.0</ele><time>2026-04-28T13:36:18.887Z</time></trkpt><trkpt lat="40.0260894708861" lon="9.66930170950921"><ele>440.6</ele><time>2026-04-28T13:36:19.887Z</time></trkpt><trkpt lat="40.02616642686349" lon="9.669206547462844"><ele>442.2</ele><time>2026-04-28T13:36:20.887Z</time></trkpt><trkpt lat="40.026226234224225" lon="9.669092838691652"><ele>443.80000000000007</ele><time>2026-04-28T13:36:21.887Z</time></trkpt><trkpt lat="40.02627796993384" lon="9.668974938482357"><ele>445.40000000000003</ele><time>2026-04-28T13:36:22.887Z</time></trkpt><trkpt lat="40.02632782821306" lon="9.668857044219605"><ele>447.0</ele><time>2026-04-28T13:36:23.887Z</time></trkpt><trkpt lat="40.02637961696552" lon="9.668740435575916"><ele>447.0</ele><time>2026-04-28T13:36:24.887Z</time></trkpt><trkpt lat="40.02643396658134" lon="9.668628403830356"><ele>447.00000000000006</ele><time>2026-04-28T13:36:25.887Z</time></trkpt><trkpt lat="40.02649112785834" lon="9.66851417311113"><ele>447.00000000000006</ele><time>2026-04-28T13:36:26.887Z</time></trkpt><trkpt lat="40.026549765973535" lon="9.668411774348735"><ele>447.0</ele><time>2026-04-28T13:36:27.887Z</time></trkpt><trkpt lat="40.026616465313424" lon="9.668313266247509"><ele>447.0</ele><time>2026-04-28T13:36:28.887Z</time></trkpt><trkpt lat="40.02668658595769" lon="9.668217384829115"><ele>445.6</ele><time>2026-04-28T13:36:29.887Z</time></trkpt><trkpt lat="40.026758879455855" lon="9.668129354756923"><ele>444.20000000000005</ele><time>2026-04-28T13:36:30.887Z</time></trkpt><trkpt lat="40.026826887108584" lon="9.66804247225676"><ele>442.8</ele><time>2026-04-28T13:36:31.887Z</time></trkpt><trkpt lat="40.02689019124689" lon="9.667943019470265"><ele>441.4</ele><time>2026-04-28T13:36:32.887Z</time></trkpt><trkpt lat="40.0269489864095" lon="9.66783259205433"><ele>440.0</ele><time>2026-04-28T13:36:33.887Z</time></trkpt><trkpt lat="40.02700960533131" lon="9.667735940118007"><ele>439.99999999999994</ele><time>2026-04-28T13:36:34.887Z</time></trkpt><trkpt lat="40.02707708372582" lon="9.667644837721888"><ele>440.0</ele><time>2026-04-28T13:36:35.887Z</time></trkpt><trkpt lat="40.0271435132557" lon="9.667564747671566"><ele>440.0</ele><time>2026-04-28T13:36:36.888Z</time></trkpt><trkpt lat="40.02721728135334" lon="9.667488738397019"><ele>440.0</ele><time>2026-04-28T13:36:37.888Z</time></trkpt><trkpt lat="40.02728494557638" lon="9.66741802835597"><ele>439.99999999999994</ele><time>2026-04-28T13:36:38.888Z</time></trkpt><trkpt lat="40.027347906688284" lon="9.6673647709745"><ele>440.0</ele><time>2026-04-28T13:36:39.888Z</time></trkpt><trkpt lat="40.027404191776654" lon="9.667299954309966"><ele>439.99999999999994</ele><time>2026-04-28T13:36:41.888Z</time></trkpt><trkpt lat="40.027423237182155" lon="9.667181339447929"><ele>440.0</ele><time>2026-04-28T13:37:14.887Z</time></trkpt><trkpt lat="40.02747336685343" lon="9.667119880428507"><ele>440.0</ele><time>2026-04-28T13:37:15.887Z</time></trkpt><trkpt lat="40.02753051658009" lon="9.667052608591717"><ele>440.0</ele><time>2026-04-28T13:37:16.887Z</time></trkpt><trkpt lat="40.0275943601332" lon="9.666977274845724"><ele>439.99999999999994</ele><time>2026-04-28T13:37:17.887Z</time></trkpt><trkpt lat="40.02767161802464" lon="9.666933038498334"><ele>440.0</ele><time>2026-04-28T13:37:18.887Z</time></trkpt><trkpt lat="40.027758525755004" lon="9.666894892423796"><ele>440.8</ele><time>2026-04-28T13:37:19.887Z</time></trkpt><trkpt lat="40.02786109607278" lon="9.666875241501199"><ele>441.6</ele><time>2026-04-28T13:37:20.887Z</time></trkpt><trkpt lat="40.027955876604636" lon="9.666860047019787"><ele>442.4</ele><time>2026-04-28T13:37:21.887Z</time></trkpt><trkpt lat="40.02804812015309" lon="9.666840753722912"><ele>443.2</ele><time>2026-04-28T13:37:22.887Z</time></trkpt><trkpt lat="40.02814541710176" lon="9.666818634897137"><ele>444.0</ele><time>2026-04-28T13:37:23.887Z</time></trkpt><trkpt lat="40.028238468321504" lon="9.666792986315325"><ele>448.79999999999995</ele><time>2026-04-28T13:37:24.887Z</time></trkpt><trkpt lat="40.028329592337606" lon="9.666769236629012"><ele>453.59999999999997</ele><time>2026-04-28T13:37:25.887Z</time></trkpt><trkpt lat="40.02841940657279" lon="9.66673795604773"><ele>458.4</ele><time>2026-04-28T13:37:26.887Z</time></trkpt><trkpt lat="40.02850799667092" lon="9.666681737602438"><ele>463.2</ele><time>2026-04-28T13:37:27.887Z</time></trkpt><trkpt lat="40.02859498567124" lon="9.666637089748194"><ele>468.0</ele><time>2026-04-28T13:37:28.887Z</time></trkpt><trkpt lat="40.028671004672496" lon="9.666562130725868"><ele>468.0</ele><time>2026-04-28T13:37:29.887Z</time></trkpt><trkpt lat="40.02873970352825" lon="9.666481618614984"><ele>467.99999999999994</ele><time>2026-04-28T13:37:30.887Z</time></trkpt><trkpt lat="40.028801285869854" lon="9.666387187931637"><ele>467.99999999999994</ele><time>2026-04-28T13:37:31.887Z</time></trkpt><trkpt lat="40.028858327948456" lon="9.666283247774391"><ele>468.0</ele><time>2026-04-28T13:37:32.887Z</time></trkpt><trkpt lat="40.02892502967795" lon="9.666187577909188"><ele>468.0</ele><time>2026-04-28T13:37:33.887Z</time></trkpt><trkpt lat="40.02899894694627" lon="9.666102260672258"><ele>469.0</ele><time>2026-04-28T13:37:34.887Z</time></trkpt><trkpt lat="40.029059015964265" lon="9.66600717223531"><ele>469.99999999999994</ele><time>2026-04-28T13:37:35.887Z</time></trkpt><trkpt lat="40.029136123324825" lon="9.66593859961526"><ele>470.99999999999994</ele><time>2026-04-28T13:37:36.887Z</time></trkpt><trkpt lat="40.02922246309165" lon="9.665893059074548"><ele>472.0</ele><time>2026-04-28T13:37:37.887Z</time></trkpt><trkpt lat="40.029308991595514" lon="9.665854067086396"><ele>473.0</ele><time>2026-04-28T13:37:38.887Z</time></trkpt><trkpt lat="40.02938545762602" lon="9.665795128224522"><ele>472.99999999999994</ele><time>2026-04-28T13:37:39.887Z</time></trkpt><trkpt lat="40.029452595716016" lon="9.665714658248605"><ele>473.0</ele><time>2026-04-28T13:37:40.887Z</time></trkpt><trkpt lat="40.029505300211824" lon="9.6656159551499"><ele>473.0</ele><time>2026-04-28T13:37:41.887Z</time></trkpt><trkpt lat="40.02956063598761" lon="9.665530137592732"><ele>473.0</ele><time>2026-04-28T13:37:42.887Z</time></trkpt><trkpt lat="40.02960409237589" lon="9.665434505062288"><ele>472.99999999999994</ele><time>2026-04-28T13:37:43.887Z</time></trkpt><trkpt lat="40.029649395829686" lon="9.665338515314737"><ele>473.0</ele><time>2026-04-28T13:37:44.887Z</time></trkpt><trkpt lat="40.02969185913336" lon="9.665230902286089"><ele>474.49999999999994</ele><time>2026-04-28T13:37:45.887Z</time></trkpt><trkpt lat="40.02975301507112" lon="9.665141395662038"><ele>476.0</ele><time>2026-04-28T13:37:46.887Z</time></trkpt><trkpt lat="40.02979926923799" lon="9.665059261612331"><ele>477.5</ele><time>2026-04-28T13:37:47.887Z</time></trkpt><trkpt lat="40.02984981134007" lon="9.664978772444245"><ele>479.0</ele><time>2026-04-28T13:37:48.887Z</time></trkpt><trkpt lat="40.02990172988304" lon="9.664914517697612"><ele>480.49999999999994</ele><time>2026-04-28T13:37:49.887Z</time></trkpt><trkpt lat="40.02995404878275" lon="9.664834020115618"><ele>482.0</ele><time>2026-04-28T13:37:50.887Z</time></trkpt><trkpt lat="40.03002324094728" lon="9.664752046725745"><ele>482.0</ele><time>2026-04-28T13:37:51.887Z</time></trkpt><trkpt lat="40.03010302125618" lon="9.664682901282978"><ele>482.00000000000006</ele><time>2026-04-28T13:37:52.887Z</time></trkpt><trkpt lat="40.030179371770245" lon="9.664614556628019"><ele>482.00000000000006</ele><time>2026-04-28T13:37:53.887Z</time></trkpt><trkpt lat="40.03025604214144" lon="9.664531442521577"><ele>482.0</ele><time>2026-04-28T13:37:54.887Z</time></trkpt><trkpt lat="40.03033660273207" lon="9.66446456300246"><ele>482.0</ele><time>2026-04-28T13:37:55.887Z</time></trkpt><trkpt lat="40.03042259079607" lon="9.664409678153445"><ele>481.8</ele><time>2026-04-28T13:37:56.887Z</time></trkpt><trkpt lat="40.03051185428248" lon="9.664360247720955"><ele>481.6</ele><time>2026-04-28T13:37:57.887Z</time></trkpt><trkpt lat="40.03060154992773" lon="9.664315331904481"><ele>481.40000000000003</ele><time>2026-04-28T13:37:58.887Z</time></trkpt><trkpt lat="40.03068576640487" lon="9.66426312583436"><ele>481.20000000000005</ele><time>2026-04-28T13:37:59.887Z</time></trkpt><trkpt lat="40.030778695605754" lon="9.664219834769666"><ele>481.0</ele><time>2026-04-28T13:38:00.887Z</time></trkpt><trkpt lat="40.030868146720394" lon="9.664192415958246"><ele>481.0</ele><time>2026-04-28T13:38:01.887Z</time></trkpt><trkpt lat="40.0309536722426" lon="9.66416731544981"><ele>481.0</ele><time>2026-04-28T13:38:02.887Z</time></trkpt><trkpt lat="40.03103349149028" lon="9.664124839435864"><ele>481.0</ele><time>2026-04-28T13:38:03.887Z</time></trkpt><trkpt lat="40.03110489079402" lon="9.664056387285104"><ele>481.0</ele><time>2026-04-28T13:38:04.887Z</time></trkpt><trkpt lat="40.03117766448558" lon="9.66398108383987"><ele>481.0</ele><time>2026-04-28T13:38:05.887Z</time></trkpt><trkpt lat="40.03124668381126" lon="9.663890792796005"><ele>481.0</ele><time>2026-04-28T13:38:06.887Z</time></trkpt><trkpt lat="40.031305749625595" lon="9.663797000961937"><ele>481.0</ele><time>2026-04-28T13:38:07.887Z</time></trkpt><trkpt lat="40.03135415013063" lon="9.663687919689977"><ele>481.0</ele><time>2026-04-28T13:38:08.887Z</time></trkpt><trkpt lat="40.03141540327798" lon="9.663606828194442"><ele>481.0</ele><time>2026-04-28T13:38:09.887Z</time></trkpt><trkpt lat="40.031478253076365" lon="9.663520073066952"><ele>481.0</ele><time>2026-04-28T13:38:10.887Z</time></trkpt><trkpt lat="40.031549943721586" lon="9.663463024888362"><ele>481.20000000000005</ele><time>2026-04-28T13:38:11.887Z</time></trkpt><trkpt lat="40.03163697952365" lon="9.663402855385357"><ele>481.40000000000003</ele><time>2026-04-28T13:38:12.886Z</time></trkpt><trkpt lat="40.031697821856035" lon="9.6633055982789"><ele>481.6</ele><time>2026-04-28T13:38:13.886Z</time></trkpt><trkpt lat="40.03177464153948" lon="9.663238599213956"><ele>481.8</ele><time>2026-04-28T13:38:14.886Z</time></trkpt><trkpt lat="40.03184903976038" lon="9.663185142326205"><ele>482.0</ele><time>2026-04-28T13:38:15.886Z</time></trkpt><trkpt lat="40.031933108764534" lon="9.6631369843331"><ele>482.0</ele><time>2026-04-28T13:38:16.886Z</time></trkpt><trkpt lat="40.03200830749751" lon="9.663079067969989"><ele>482.00000000000006</ele><time>2026-04-28T13:38:17.886Z</time></trkpt><trkpt lat="40.03209320967652" lon="9.66301380420966"><ele>482.00000000000006</ele><time>2026-04-28T13:38:18.886Z</time></trkpt><trkpt lat="40.03216563279273" lon="9.66294089838721"><ele>482.0</ele><time>2026-04-28T13:38:19.886Z</time></trkpt><trkpt lat="40.03223391324767" lon="9.66286119419976"><ele>482.0</ele><time>2026-04-28T13:38:20.886Z</time></trkpt><trkpt lat="40.03230345858943" lon="9.662773344746578"><ele>482.6</ele><time>2026-04-28T13:38:21.886Z</time></trkpt><trkpt lat="40.03237015423101" lon="9.662668911558296"><ele>483.20000000000005</ele><time>2026-04-28T13:38:22.886Z</time></trkpt><trkpt lat="40.03244560958871" lon="9.662571203131446"><ele>483.8</ele><time>2026-04-28T13:38:23.886Z</time></trkpt><trkpt lat="40.03252320694465" lon="9.662479964285016"><ele>484.4</ele><time>2026-04-28T13:38:24.886Z</time></trkpt><trkpt lat="40.03259948832485" lon="9.662379441582354"><ele>485.0</ele><time>2026-04-28T13:38:25.886Z</time></trkpt><trkpt lat="40.032672803072074" lon="9.662266934315983"><ele>485.0</ele><time>2026-04-28T13:38:26.886Z</time></trkpt><trkpt lat="40.032740884347035" lon="9.662148441628178"><ele>485.0</ele><time>2026-04-28T13:38:27.886Z</time></trkpt><trkpt lat="40.032809893073896" lon="9.662030805477865"><ele>485.0</ele><time>2026-04-28T13:38:28.886Z</time></trkpt><trkpt lat="40.0328718985808" lon="9.661910959347528"><ele>485.0</ele><time>2026-04-28T13:38:29.886Z</time></trkpt><trkpt lat="40.03294378858123" lon="9.661793874181667"><ele>485.75</ele><time>2026-04-28T13:38:30.886Z</time></trkpt><trkpt lat="40.03302722356231" lon="9.661681938685193"><ele>486.5</ele><time>2026-04-28T13:38:31.886Z</time></trkpt><trkpt lat="40.033123130356294" lon="9.661591363960806"><ele>487.25</ele><time>2026-04-28T13:38:32.886Z</time></trkpt><trkpt lat="40.033224421199364" lon="9.66150482317845"><ele>488.0</ele><time>2026-04-28T13:38:33.886Z</time></trkpt><trkpt lat="40.03332972108697" lon="9.661437172814203"><ele>488.0</ele><time>2026-04-28T13:38:34.886Z</time></trkpt><trkpt lat="40.033440909373546" lon="9.661351519572486"><ele>488.0</ele><time>2026-04-28T13:38:35.886Z</time></trkpt><trkpt lat="40.03355305554683" lon="9.661257080894387"><ele>488.0</ele><time>2026-04-28T13:38:36.886Z</time></trkpt><trkpt lat="40.03366662548432" lon="9.661167742901632"><ele>488.0</ele><time>2026-04-28T13:38:37.886Z</time></trkpt><trkpt lat="40.03378194290083" lon="9.661074295131872"><ele>486.5</ele><time>2026-04-28T13:38:38.886Z</time></trkpt><trkpt lat="40.033900449495775" lon="9.660997740157931"><ele>485.0</ele><time>2026-04-28T13:38:39.886Z</time></trkpt><trkpt lat="40.03401776288222" lon="9.66093778605707"><ele>483.5</ele><time>2026-04-28T13:38:40.886Z</time></trkpt><trkpt lat="40.03414813679059" lon="9.660898699275556"><ele>482.0</ele><time>2026-04-28T13:38:41.886Z</time></trkpt><trkpt lat="40.03428460919089" lon="9.660866395065893"><ele>482.0</ele><time>2026-04-28T13:38:42.887Z</time></trkpt><trkpt lat="40.03442329594879" lon="9.660829755356415"><ele>482.0</ele><time>2026-04-28T13:38:43.887Z</time></trkpt><trkpt lat="40.034556424937584" lon="9.660771875230166"><ele>482.0</ele><time>2026-04-28T13:38:44.887Z</time></trkpt><trkpt lat="40.03467792811163" lon="9.660667823326383"><ele>482.0</ele><time>2026-04-28T13:38:45.887Z</time></trkpt><trkpt lat="40.03478211435579" lon="9.660545375400874"><ele>482.0</ele><time>2026-04-28T13:38:46.887Z</time></trkpt><trkpt lat="40.03488939450588" lon="9.660405670965666"><ele>482.0</ele><time>2026-04-28T13:38:47.887Z</time></trkpt><trkpt lat="40.03499941589618" lon="9.660274375534888"><ele>482.0</ele><time>2026-04-28T13:38:48.887Z</time></trkpt><trkpt lat="40.0351090834836" lon="9.660137758259063"><ele>481.75</ele><time>2026-04-28T13:38:49.887Z</time></trkpt><trkpt lat="40.03522178416586" lon="9.660005426964494"><ele>481.5</ele><time>2026-04-28T13:38:50.887Z</time></trkpt><trkpt lat="40.03533368467671" lon="9.659874200967003"><ele>481.25</ele><time>2026-04-28T13:38:51.887Z</time></trkpt><trkpt lat="40.03543685638561" lon="9.659751909042718"><ele>481.0</ele><time>2026-04-28T13:38:52.887Z</time></trkpt><trkpt lat="40.035519154931364" lon="9.659605969547899"><ele>481.0</ele><time>2026-04-28T13:38:53.887Z</time></trkpt><trkpt lat="40.0355916287527" lon="9.659460948835612"><ele>481.0</ele><time>2026-04-28T13:38:54.887Z</time></trkpt><trkpt lat="40.035654184765434" lon="9.659295147711758"><ele>481.0</ele><time>2026-04-28T13:38:55.886Z</time></trkpt><trkpt lat="40.03571510374747" lon="9.659129336300985"><ele>481.0</ele><time>2026-04-28T13:38:56.886Z</time></trkpt><trkpt lat="40.03577028843957" lon="9.658963416794492"><ele>481.75</ele><time>2026-04-28T13:38:57.886Z</time></trkpt><trkpt lat="40.03582002607105" lon="9.658793680222686"><ele>482.5</ele><time>2026-04-28T13:38:58.886Z</time></trkpt><trkpt lat="40.03587847273259" lon="9.658632176738156"><ele>483.25</ele><time>2026-04-28T13:38:59.886Z</time></trkpt><trkpt lat="40.03595339618774" lon="9.658504885844401"><ele>484.0</ele><time>2026-04-28T13:39:00.886Z</time></trkpt><trkpt lat="40.03603855980965" lon="9.658415658501166"><ele>484.0</ele><time>2026-04-28T13:39:01.886Z</time></trkpt><trkpt lat="40.03616168065727" lon="9.658332513420998"><ele>484.0</ele><time>2026-04-28T13:39:02.886Z</time></trkpt><trkpt lat="40.03627730209639" lon="9.658252593772495"><ele>484.0</ele><time>2026-04-28T13:39:03.886Z</time></trkpt><trkpt lat="40.036399264555385" lon="9.658175132905772"><ele>484.0</ele><time>2026-04-28T13:39:04.886Z</time></trkpt><trkpt lat="40.03651972370183" lon="9.658120905847088"><ele>484.0</ele><time>2026-04-28T13:39:05.886Z</time></trkpt><trkpt lat="40.03663600102264" lon="9.658097993275264"><ele>484.0</ele><time>2026-04-28T13:39:06.886Z</time></trkpt><trkpt lat="40.03676237935951" lon="9.658116670474199"><ele>484.0</ele><time>2026-04-28T13:39:07.886Z</time></trkpt><trkpt lat="40.03688536892011" lon="9.658148913424075"><ele>484.0</ele><time>2026-04-28T13:39:08.886Z</time></trkpt><trkpt lat="40.037013829752944" lon="9.65817431304727"><ele>487.0</ele><time>2026-04-28T13:39:09.886Z</time></trkpt><trkpt lat="40.037134059815855" lon="9.658186557353146"><ele>490.0</ele><time>2026-04-28T13:39:10.886Z</time></trkpt><trkpt lat="40.037254384471545" lon="9.658163304457828"><ele>493.0</ele><time>2026-04-28T13:39:11.886Z</time></trkpt><trkpt lat="40.03739453724719" lon="9.658115629369366"><ele>496.0</ele><time>2026-04-28T13:39:12.886Z</time></trkpt><trkpt lat="40.03754825895323" lon="9.658116034910622"><ele>496.6666666666667</ele><time>2026-04-28T13:39:13.886Z</time></trkpt><trkpt lat="40.037694013782584" lon="9.658125106390317"><ele>497.33333333333337</ele><time>2026-04-28T13:39:14.886Z</time></trkpt><trkpt lat="40.037852464466624" lon="9.658142426880188"><ele>498.0</ele><time>2026-04-28T13:39:15.886Z</time></trkpt><trkpt lat="40.03801201257948" lon="9.658131598860654"><ele>498.0</ele><time>2026-04-28T13:39:16.886Z</time></trkpt><trkpt lat="40.038161617659874" lon="9.658102652953316"><ele>498.0</ele><time>2026-04-28T13:39:17.886Z</time></trkpt><trkpt lat="40.038317621473134" lon="9.658080983795543"><ele>498.0</ele><time>2026-04-28T13:39:18.886Z</time></trkpt><trkpt lat="40.03848001539691" lon="9.658068522028508"><ele>502.66666666666663</ele><time>2026-04-28T13:39:19.886Z</time></trkpt><trkpt lat="40.03863946924879" lon="9.65806457782996"><ele>507.3333333333333</ele><time>2026-04-28T13:39:20.886Z</time></trkpt><trkpt lat="40.03881084846177" lon="9.658046192357041"><ele>512.0</ele><time>2026-04-28T13:39:21.886Z</time></trkpt><trkpt lat="40.03897820098146" lon="9.657987745955863"><ele>515.3333333333333</ele><time>2026-04-28T13:39:22.886Z</time></trkpt><trkpt lat="40.03914273808024" lon="9.657915567835634"><ele>518.6666666666666</ele><time>2026-04-28T13:39:23.886Z</time></trkpt><trkpt lat="40.03931083899648" lon="9.657832639841759"><ele>522.0</ele><time>2026-04-28T13:39:24.886Z</time></trkpt><trkpt lat="40.03947500421886" lon="9.657748800070266"><ele>514.0</ele><time>2026-04-28T13:39:25.886Z</time></trkpt><trkpt lat="40.039647450825825" lon="9.6576731417667"><ele>506.0</ele><time>2026-04-28T13:39:26.886Z</time></trkpt><trkpt lat="40.03982722218632" lon="9.657599399118817"><ele>498.0</ele><time>2026-04-28T13:39:27.886Z</time></trkpt><trkpt lat="40.040008361811346" lon="9.657524765451656"><ele>498.0</ele><time>2026-04-28T13:39:28.886Z</time></trkpt><trkpt lat="40.0401888308992" lon="9.6574465808626"><ele>498.0</ele><time>2026-04-28T13:39:29.886Z</time></trkpt><trkpt lat="40.04035359296445" lon="9.657327770065395"><ele>498.0</ele><time>2026-04-28T13:39:30.886Z</time></trkpt><trkpt lat="40.040509315966055" lon="9.65719818561031"><ele>498.0</ele><time>2026-04-28T13:39:31.886Z</time></trkpt><trkpt lat="40.040666584531365" lon="9.657086961891029"><ele>498.0</ele><time>2026-04-28T13:39:32.886Z</time></trkpt><trkpt lat="40.04083148825643" lon="9.656968528461642"><ele>498.0</ele><time>2026-04-28T13:39:33.886Z</time></trkpt><trkpt lat="40.04098901916694" lon="9.656847201947947"><ele>495.0</ele><time>2026-04-28T13:39:34.886Z</time></trkpt><trkpt lat="40.041146753215" lon="9.65672526537332"><ele>492.0</ele><time>2026-04-28T13:39:35.886Z</time></trkpt><trkpt lat="40.04130908655975" lon="9.656616340354788"><ele>489.0</ele><time>2026-04-28T13:39:36.886Z</time></trkpt><trkpt lat="40.0414794068373" lon="9.656503430825065"><ele>493.66666666666663</ele><time>2026-04-28T13:39:37.886Z</time></trkpt><trkpt lat="40.04166043666742" lon="9.656406328509483"><ele>498.3333333333333</ele><time>2026-04-28T13:39:38.886Z</time></trkpt><trkpt lat="40.04184340817922" lon="9.656334083961108"><ele>503.0</ele><time>2026-04-28T13:39:39.886Z</time></trkpt><trkpt lat="40.04202498573025" lon="9.656279630149744"><ele>503.0</ele><time>2026-04-28T13:39:40.886Z</time></trkpt><trkpt lat="40.042195282124254" lon="9.656190482940058"><ele>503.0</ele><time>2026-04-28T13:39:41.886Z</time></trkpt><trkpt lat="40.04234339289189" lon="9.656062243483937"><ele>503.0</ele><time>2026-04-28T13:39:42.886Z</time></trkpt><trkpt lat="40.04247807338761" lon="9.655916738739647"><ele>502.3333333333333</ele><time>2026-04-28T13:39:43.886Z</time></trkpt><trkpt lat="40.04258335909179" lon="9.65571862339194"><ele>501.66666666666663</ele><time>2026-04-28T13:39:44.886Z</time></trkpt><trkpt lat="40.04269718008779" lon="9.655545582861675"><ele>501.0</ele><time>2026-04-28T13:39:45.886Z</time></trkpt><trkpt lat="40.042846214119635" lon="9.655405122978886"><ele>501.0</ele><time>2026-04-28T13:39:46.886Z</time></trkpt><trkpt lat="40.04300806758023" lon="9.65528993965107"><ele>501.0</ele><time>2026-04-28T13:39:47.886Z</time></trkpt><trkpt lat="40.04317452450767" lon="9.655157568995483"><ele>501.0</ele><time>2026-04-28T13:39:48.886Z</time></trkpt><trkpt lat="40.04335820027542" lon="9.655031424917173"><ele>500.0</ele><time>2026-04-28T13:39:49.886Z</time></trkpt><trkpt lat="40.04353717519814" lon="9.654903500272741"><ele>499.0</ele><time>2026-04-28T13:39:50.885Z</time></trkpt><trkpt lat="40.043703621589046" lon="9.654748271096746"><ele>498.0</ele><time>2026-04-28T13:39:51.885Z</time></trkpt><trkpt lat="40.04387582790811" lon="9.654618113334474"><ele>498.0</ele><time>2026-04-28T13:39:52.885Z</time></trkpt><trkpt lat="40.04404731792358" lon="9.654488022654151"><ele>498.0</ele><time>2026-04-28T13:39:53.885Z</time></trkpt><trkpt lat="40.04420705678462" lon="9.654336901378418"><ele>498.0</ele><time>2026-04-28T13:39:54.885Z</time></trkpt><trkpt lat="40.044352225330165" lon="9.654158000696373"><ele>499.33333333333337</ele><time>2026-04-28T13:39:55.885Z</time></trkpt><trkpt lat="40.044478997817315" lon="9.653965439244379"><ele>500.6666666666667</ele><time>2026-04-28T13:39:56.885Z</time></trkpt><trkpt lat="40.044596027607035" lon="9.653759583017644"><ele>502.0</ele><time>2026-04-28T13:39:57.885Z</time></trkpt><trkpt lat="40.04470544174999" lon="9.653550287198138"><ele>508.33333333333337</ele><time>2026-04-28T13:39:58.885Z</time></trkpt><trkpt lat="40.04480581601376" lon="9.653327900403113"><ele>514.6666666666666</ele><time>2026-04-28T13:39:59.885Z</time></trkpt><trkpt lat="40.04491434428836" lon="9.653101904147693"><ele>521.0</ele><time>2026-04-28T13:40:00.885Z</time></trkpt><trkpt lat="40.04502246747813" lon="9.652878235703067"><ele>511.0</ele><time>2026-04-28T13:40:01.885Z</time></trkpt><trkpt lat="40.04513237274824" lon="9.652651899210241"><ele>501.0</ele><time>2026-04-28T13:40:02.885Z</time></trkpt><trkpt lat="40.04523808592045" lon="9.652421224148583"><ele>491.0</ele><time>2026-04-28T13:40:03.885Z</time></trkpt><trkpt lat="40.04533721209032" lon="9.652183534525594"><ele>485.3333333333333</ele><time>2026-04-28T13:40:04.885Z</time></trkpt><trkpt lat="40.04542799448957" lon="9.65194406751139"><ele>479.66666666666663</ele><time>2026-04-28T13:40:05.885Z</time></trkpt><trkpt lat="40.04552493364952" lon="9.65170838890587"><ele>474.0</ele><time>2026-04-28T13:40:06.885Z</time></trkpt><trkpt lat="40.04563731357349" lon="9.651484294172606"><ele>474.0</ele><time>2026-04-28T13:40:07.885Z</time></trkpt><trkpt lat="40.045767621388514" lon="9.651271813707417"><ele>474.0</ele><time>2026-04-28T13:40:08.885Z</time></trkpt><trkpt lat="40.04590921224604" lon="9.651064525108648"><ele>474.0</ele><time>2026-04-28T13:40:09.885Z</time></trkpt><trkpt lat="40.046052903951" lon="9.650858870981372"><ele>474.0</ele><time>2026-04-28T13:40:10.885Z</time></trkpt><trkpt lat="40.046198908668075" lon="9.650653277576637"><ele>474.0</ele><time>2026-04-28T13:40:11.885Z</time></trkpt><trkpt lat="40.04634820353876" lon="9.650447345940332"><ele>474.0</ele><time>2026-04-28T13:40:12.885Z</time></trkpt><trkpt lat="40.04649266864849" lon="9.65024519679134"><ele>487.66666666666663</ele><time>2026-04-28T13:40:13.885Z</time></trkpt><trkpt lat="40.04664151219651" lon="9.650046762139597"><ele>501.3333333333333</ele><time>2026-04-28T13:40:14.885Z</time></trkpt><trkpt lat="40.04678298338809" lon="9.649844232531844"><ele>515.0</ele><time>2026-04-28T13:40:15.885Z</time></trkpt><trkpt lat="40.04693828351233" lon="9.649649045284766"><ele>515.0</ele><time>2026-04-28T13:40:16.885Z</time></trkpt><trkpt lat="40.04710064616058" lon="9.649466170761185"><ele>515.0</ele><time>2026-04-28T13:40:17.885Z</time></trkpt><trkpt lat="40.047256044510576" lon="9.649302710337219"><ele>515.0</ele><time>2026-04-28T13:40:18.885Z</time></trkpt><trkpt lat="40.04742743783601" lon="9.649192676511758"><ele>520.3333333333333</ele><time>2026-04-28T13:40:19.885Z</time></trkpt><trkpt lat="40.04760709280966" lon="9.64911347846959"><ele>525.6666666666666</ele><time>2026-04-28T13:40:20.885Z</time></trkpt><trkpt lat="40.0477547216494" lon="9.648982149774492"><ele>531.0</ele><time>2026-04-28T13:40:21.885Z</time></trkpt><trkpt lat="40.04786107185374" lon="9.648779419429296"><ele>518.3333333333334</ele><time>2026-04-28T13:40:22.885Z</time></trkpt><trkpt lat="40.04794960354895" lon="9.648551632528559"><ele>505.6666666666667</ele><time>2026-04-28T13:40:23.885Z</time></trkpt><trkpt lat="40.04800371983229" lon="9.64829082364462"><ele>493.0</ele><time>2026-04-28T13:40:24.885Z</time></trkpt><trkpt lat="40.048035015197094" lon="9.648004874920566"><ele>487.0</ele><time>2026-04-28T13:40:25.885Z</time></trkpt><trkpt lat="40.04807522698799" lon="9.647722040437829"><ele>481.0</ele><time>2026-04-28T13:40:26.885Z</time></trkpt><trkpt lat="40.04813682220261" lon="9.647474778808947"><ele>475.0</ele><time>2026-04-28T13:40:27.885Z</time></trkpt><trkpt lat="40.04823706516869" lon="9.647252802414123"><ele>489.0</ele><time>2026-04-28T13:40:28.885Z</time></trkpt><trkpt lat="40.04835961339395" lon="9.647033520277947"><ele>503.0</ele><time>2026-04-28T13:40:29.885Z</time></trkpt><trkpt lat="40.04848560798318" lon="9.646798512452984"><ele>517.0</ele><time>2026-04-28T13:40:30.885Z</time></trkpt><trkpt lat="40.04861066487149" lon="9.646562902452775"><ele>517.0</ele><time>2026-04-28T13:40:31.885Z</time></trkpt><trkpt lat="40.048737905633224" lon="9.646321052944081"><ele>517.0</ele><time>2026-04-28T13:40:32.885Z</time></trkpt><trkpt lat="40.048872982126056" lon="9.646072294718186"><ele>528.5</ele><time>2026-04-28T13:40:33.885Z</time></trkpt><trkpt lat="40.04900682911133" lon="9.64582834152345"><ele>540.0</ele><time>2026-04-28T13:40:34.885Z</time></trkpt><trkpt lat="40.04913734413915" lon="9.645584231172334"><ele>540.0</ele><time>2026-04-28T13:40:35.885Z</time></trkpt><trkpt lat="40.04927212697183" lon="9.64534291555606"><ele>540.0</ele><time>2026-04-28T13:40:36.885Z</time></trkpt><trkpt lat="40.049407615326515" lon="9.645105272198633"><ele>527.5</ele><time>2026-04-28T13:40:37.885Z</time></trkpt><trkpt lat="40.04954062433014" lon="9.644862945476586"><ele>515.0</ele><time>2026-04-28T13:40:38.885Z</time></trkpt><trkpt lat="40.049676340467386" lon="9.644613677222022"><ele>502.5</ele><time>2026-04-28T13:40:39.885Z</time></trkpt><trkpt lat="40.04981427878173" lon="9.644364654700091"><ele>490.0</ele><time>2026-04-28T13:40:40.885Z</time></trkpt><trkpt lat="40.04994536601148" lon="9.644132229156865"><ele>501.0</ele><time>2026-04-28T13:40:41.885Z</time></trkpt><trkpt lat="40.050074787565926" lon="9.643929439156524"><ele>512.0</ele><time>2026-04-28T13:40:42.885Z</time></trkpt><trkpt lat="40.0501947363269" lon="9.643734855283135"><ele>523.0</ele><time>2026-04-28T13:40:43.885Z</time></trkpt><trkpt lat="40.05027693042403" lon="9.643514420623262"><ele>523.0</ele><time>2026-04-28T13:40:44.885Z</time></trkpt><trkpt lat="40.050324607673566" lon="9.643264601628294"><ele>523.0</ele><time>2026-04-28T13:40:45.885Z</time></trkpt><trkpt lat="40.05037914080335" lon="9.643000323259725"><ele>523.0</ele><time>2026-04-28T13:40:46.885Z</time></trkpt><trkpt lat="40.05045724615085" lon="9.642738775985391"><ele>517.6666666666667</ele><time>2026-04-28T13:40:47.886Z</time></trkpt><trkpt lat="40.05053991467903" lon="9.642469897889352"><ele>512.3333333333334</ele><time>2026-04-28T13:40:48.885Z</time></trkpt><trkpt lat="40.05062661225973" lon="9.642214811108616"><ele>507.0</ele><time>2026-04-28T13:40:49.885Z</time></trkpt><trkpt lat="40.05063529752822" lon="9.641925468462441"><ele>503.0</ele><time>2026-04-28T13:40:50.886Z</time></trkpt><trkpt lat="40.05062523224555" lon="9.64162566730647"><ele>499.0</ele><time>2026-04-28T13:40:51.886Z</time></trkpt><trkpt lat="40.05062349793482" lon="9.641322365746534"><ele>496.0</ele><time>2026-04-28T13:40:52.886Z</time></trkpt><trkpt lat="40.05068771755018" lon="9.641038063420737"><ele>493.0</ele><time>2026-04-28T13:40:53.886Z</time></trkpt><trkpt lat="40.050716908824995" lon="9.640745554702352"><ele>493.0</ele><time>2026-04-28T13:40:54.886Z</time></trkpt><trkpt lat="40.05073802623927" lon="9.640452648530253"><ele>493.0</ele><time>2026-04-28T13:40:55.886Z</time></trkpt><trkpt lat="40.0507438608984" lon="9.640167138773194"><ele>493.0</ele><time>2026-04-28T13:40:56.885Z</time></trkpt><trkpt lat="40.050749998767365" lon="9.639900068078566"><ele>492.6666666666667</ele><time>2026-04-28T13:40:57.886Z</time></trkpt><trkpt lat="40.050753915843025" lon="9.639652700981747"><ele>492.33333333333337</ele><time>2026-04-28T13:40:58.886Z</time></trkpt><trkpt lat="40.05077932668118" lon="9.639418425993117"><ele>492.0</ele><time>2026-04-28T13:40:59.885Z</time></trkpt><trkpt lat="40.050853774322114" lon="9.639190117249324"><ele>500.33333333333337</ele><time>2026-04-28T13:41:00.885Z</time></trkpt><trkpt lat="40.05094907290951" lon="9.638964207935194"><ele>508.6666666666667</ele><time>2026-04-28T13:41:01.885Z</time></trkpt><trkpt lat="40.051039751802115" lon="9.638729776283464"><ele>517.0</ele><time>2026-04-28T13:41:02.885Z</time></trkpt><trkpt lat="40.05112600815299" lon="9.638492030575705"><ele>517.0</ele><time>2026-04-28T13:41:03.885Z</time></trkpt><trkpt lat="40.05121021787153" lon="9.638262602075338"><ele>517.0</ele><time>2026-04-28T13:41:04.885Z</time></trkpt><trkpt lat="40.05129763023876" lon="9.63805718799748"><ele>517.0</ele><time>2026-04-28T13:41:05.885Z</time></trkpt><trkpt lat="40.05142665592852" lon="9.637911611777104"><ele>510.6666666666667</ele><time>2026-04-28T13:41:06.885Z</time></trkpt><trkpt lat="40.051567529262286" lon="9.637757920990161"><ele>504.33333333333337</ele><time>2026-04-28T13:41:07.885Z</time></trkpt><trkpt lat="40.05168201455496" lon="9.637564754807626"><ele>498.0</ele><time>2026-04-28T13:41:08.885Z</time></trkpt><trkpt lat="40.05175907141964" lon="9.637347392952329"><ele>512.0</ele><time>2026-04-28T13:41:09.885Z</time></trkpt><trkpt lat="40.051781124490525" lon="9.637117394222345"><ele>526.0</ele><time>2026-04-28T13:41:10.885Z</time></trkpt><trkpt lat="40.05180041992953" lon="9.636876014341233"><ele>540.0</ele><time>2026-04-28T13:41:11.885Z</time></trkpt><trkpt lat="40.051882191651664" lon="9.636655402812714"><ele>540.0</ele><time>2026-04-28T13:41:12.885Z</time></trkpt><trkpt lat="40.05199003795081" lon="9.63644460076385"><ele>540.0</ele><time>2026-04-28T13:41:13.885Z</time></trkpt><trkpt lat="40.05210461616926" lon="9.636282447023417"><ele>540.0</ele><time>2026-04-28T13:41:14.885Z</time></trkpt><trkpt lat="40.05217064262599" lon="9.636133359788781"><ele>538.3333333333334</ele><time>2026-04-28T13:41:15.885Z</time></trkpt><trkpt lat="40.0521469542603" lon="9.635974119577888"><ele>536.6666666666667</ele><time>2026-04-28T13:41:16.885Z</time></trkpt><trkpt lat="40.05203666027162" lon="9.635815536570878"><ele>535.0</ele><time>2026-04-28T13:41:17.885Z</time></trkpt><trkpt lat="40.05192975983246" lon="9.635652134551698"><ele>535.0</ele><time>2026-04-28T13:41:18.885Z</time></trkpt><trkpt lat="40.05185075848367" lon="9.635483550905054"><ele>535.0</ele><time>2026-04-28T13:41:19.885Z</time></trkpt><trkpt lat="40.0518511995109" lon="9.635315624525349"><ele>535.0</ele><time>2026-04-28T13:41:20.885Z</time></trkpt><trkpt lat="40.05193863738934" lon="9.63517689165942"><ele>535.0</ele><time>2026-04-28T13:41:21.885Z</time></trkpt><trkpt lat="40.05206554181405" lon="9.635087863043148"><ele>535.75</ele><time>2026-04-28T13:41:22.885Z</time></trkpt><trkpt lat="40.0521301454612" lon="9.634976973418977"><ele>536.5</ele><time>2026-04-28T13:41:23.885Z</time></trkpt><trkpt lat="40.052084250107434" lon="9.634807466729631"><ele>537.25</ele><time>2026-04-28T13:41:24.885Z</time></trkpt><trkpt lat="40.051969059588856" lon="9.634642326137367"><ele>538.0</ele><time>2026-04-28T13:41:25.885Z</time></trkpt><trkpt lat="40.0518231950201" lon="9.634457579518495"><ele>542.0</ele><time>2026-04-28T13:41:26.885Z</time></trkpt><trkpt lat="40.05171766948116" lon="9.634246839779776"><ele>546.0</ele><time>2026-04-28T13:41:27.885Z</time></trkpt><trkpt lat="40.051673164265374" lon="9.634014970909057"><ele>550.0</ele><time>2026-04-28T13:41:28.885Z</time></trkpt><trkpt lat="40.05165619775904" lon="9.63380877739445"><ele>550.0</ele><time>2026-04-28T13:41:29.885Z</time></trkpt><trkpt lat="40.051670675419004" lon="9.633579970547352"><ele>550.0</ele><time>2026-04-28T13:41:30.885Z</time></trkpt><trkpt lat="40.05171037526507" lon="9.633352728458508"><ele>550.0</ele><time>2026-04-28T13:41:31.885Z</time></trkpt><trkpt lat="40.05177911158007" lon="9.633140502966516"><ele>550.0</ele><time>2026-04-28T13:41:32.885Z</time></trkpt><trkpt lat="40.05217905457824" lon="9.632848069224197"><ele>554.0</ele><time>2026-04-28T13:41:33.885Z</time></trkpt><trkpt lat="40.05233009366646" lon="9.632689708465714"><ele>558.0</ele><time>2026-04-28T13:41:34.885Z</time></trkpt><trkpt lat="40.05248069859718" lon="9.632533971432418"><ele>562.0</ele><time>2026-04-28T13:41:35.885Z</time></trkpt><trkpt lat="40.052635830379344" lon="9.632352742690205"><ele>562.0</ele><time>2026-04-28T13:41:36.885Z</time></trkpt><trkpt lat="40.05278966560936" lon="9.632170788875815"><ele>562.0</ele><time>2026-04-28T13:41:37.885Z</time></trkpt><trkpt lat="40.052929364393734" lon="9.631975678847946"><ele>562.0</ele><time>2026-04-28T13:41:38.885Z</time></trkpt><trkpt lat="40.053049863090365" lon="9.631772860436621"><ele>553.0</ele><time>2026-04-28T13:41:39.885Z</time></trkpt><trkpt lat="40.05310819142589" lon="9.631514927054559"><ele>544.0</ele><time>2026-04-28T13:41:40.885Z</time></trkpt><trkpt lat="40.053167050726316" lon="9.631262040917395"><ele>535.0</ele><time>2026-04-28T13:41:41.885Z</time></trkpt><trkpt lat="40.05325601459139" lon="9.631031876967933"><ele>544.6666666666667</ele><time>2026-04-28T13:41:42.885Z</time></trkpt><trkpt lat="40.05337246359206" lon="9.630828074264251"><ele>554.3333333333334</ele><time>2026-04-28T13:41:43.885Z</time></trkpt><trkpt lat="40.05351309471871" lon="9.630680135369962"><ele>564.0</ele><time>2026-04-28T13:41:44.885Z</time></trkpt><trkpt lat="40.05360540808142" lon="9.630478526173206"><ele>560.6666666666666</ele><time>2026-04-28T13:41:45.885Z</time></trkpt><trkpt lat="40.05363213829364" lon="9.630228060695298"><ele>557.3333333333333</ele><time>2026-04-28T13:41:46.885Z</time></trkpt><trkpt lat="40.05363172853388" lon="9.629959736287905"><ele>554.0</ele><time>2026-04-28T13:41:47.885Z</time></trkpt><trkpt lat="40.05368426879525" lon="9.629702401505524"><ele>553.3333333333333</ele><time>2026-04-28T13:41:48.885Z</time></trkpt><trkpt lat="40.05375508428754" lon="9.629448843323678"><ele>552.6666666666666</ele><time>2026-04-28T13:41:49.885Z</time></trkpt><trkpt lat="40.05379469880843" lon="9.629194922099007"><ele>552.0</ele><time>2026-04-28T13:41:50.885Z</time></trkpt><trkpt lat="40.05378844972858" lon="9.628933180275586"><ele>552.0</ele><time>2026-04-28T13:41:51.885Z</time></trkpt><trkpt lat="40.05373048283623" lon="9.628691257487512"><ele>552.0</ele><time>2026-04-28T13:41:52.885Z</time></trkpt><trkpt lat="40.053657540938715" lon="9.628501454339712"><ele>552.0</ele><time>2026-04-28T13:41:53.884Z</time></trkpt><trkpt lat="40.05365519968874" lon="9.62832764916782"><ele>552.0</ele><time>2026-04-28T13:41:54.884Z</time></trkpt><trkpt lat="40.05375124919572" lon="9.628163274341539"><ele>552.0</ele><time>2026-04-28T13:41:55.884Z</time></trkpt><trkpt lat="40.05391101504637" lon="9.628087552275812"><ele>552.0</ele><time>2026-04-28T13:41:56.884Z</time></trkpt><trkpt lat="40.05410593427828" lon="9.628013399635613"><ele>558.6666666666666</ele><time>2026-04-28T13:41:57.884Z</time></trkpt><trkpt lat="40.05424743971267" lon="9.627803079348386"><ele>565.3333333333333</ele><time>2026-04-28T13:41:58.884Z</time></trkpt><trkpt lat="40.05434622352464" lon="9.627564054653178"><ele>572.0</ele><time>2026-04-28T13:41:59.884Z</time></trkpt><trkpt lat="40.05442664827857" lon="9.627321865095244"><ele>572.0</ele><time>2026-04-28T13:42:00.884Z</time></trkpt><trkpt lat="40.05447942622431" lon="9.627072830765067"><ele>572.0</ele><time>2026-04-28T13:42:01.884Z</time></trkpt><trkpt lat="40.05447275366773" lon="9.626842223798358"><ele>572.0</ele><time>2026-04-28T13:42:02.884Z</time></trkpt><trkpt lat="40.05437229689067" lon="9.626662297978836"><ele>572.3333333333333</ele><time>2026-04-28T13:42:03.884Z</time></trkpt><trkpt lat="40.05431655413413" lon="9.626427017515532"><ele>572.6666666666666</ele><time>2026-04-28T13:42:04.884Z</time></trkpt><trkpt lat="40.05435252364615" lon="9.626193478305199"><ele>573.0</ele><time>2026-04-28T13:42:05.884Z</time></trkpt><trkpt lat="40.05443100738417" lon="9.625962101057178"><ele>573.0</ele><time>2026-04-28T13:42:06.884Z</time></trkpt><trkpt lat="40.05454779312379" lon="9.625690424764311"><ele>573.0</ele><time>2026-04-28T13:42:07.884Z</time></trkpt><trkpt lat="40.05461416227174" lon="9.625439193895225"><ele>573.0</ele><time>2026-04-28T13:42:08.884Z</time></trkpt><trkpt lat="40.05471235232469" lon="9.625215286657802"><ele>575.6666666666666</ele><time>2026-04-28T13:42:09.884Z</time></trkpt><trkpt lat="40.054849511635005" lon="9.625011103339018"><ele>578.3333333333333</ele><time>2026-04-28T13:42:10.884Z</time></trkpt><trkpt lat="40.054995975573746" lon="9.624829534697158"><ele>581.0</ele><time>2026-04-28T13:42:11.884Z</time></trkpt><trkpt lat="40.05515631316381" lon="9.624694509383176"><ele>585.3333333333333</ele><time>2026-04-28T13:42:12.884Z</time></trkpt><trkpt lat="40.05533897431014" lon="9.624668884952346"><ele>589.6666666666666</ele><time>2026-04-28T13:42:13.884Z</time></trkpt><trkpt lat="40.05554324727807" lon="9.624756451432157"><ele>594.0</ele><time>2026-04-28T13:42:14.884Z</time></trkpt><trkpt lat="40.05571691771325" lon="9.624903983668942"><ele>595.6666666666666</ele><time>2026-04-28T13:42:15.884Z</time></trkpt><trkpt lat="40.055877678416685" lon="9.62498056737347"><ele>597.3333333333333</ele><time>2026-04-28T13:42:16.884Z</time></trkpt><trkpt lat="40.05605456445722" lon="9.62503886769104"><ele>599.0</ele><time>2026-04-28T13:42:17.884Z</time></trkpt><trkpt lat="40.05626503437605" lon="9.6249705439095"><ele>599.0</ele><time>2026-04-28T13:42:18.884Z</time></trkpt><trkpt lat="40.056442810105175" lon="9.624868557369318"><ele>599.0</ele><time>2026-04-28T13:42:19.884Z</time></trkpt><trkpt lat="40.05660319897438" lon="9.62466184782489"><ele>599.0</ele><time>2026-04-28T13:42:20.884Z</time></trkpt><trkpt lat="40.056745426852075" lon="9.624414505805301"><ele>603.3333333333333</ele><time>2026-04-28T13:42:21.884Z</time></trkpt><trkpt lat="40.05683611457372" lon="9.624151541077477"><ele>607.6666666666666</ele><time>2026-04-28T13:42:22.884Z</time></trkpt><trkpt lat="40.05686530620589" lon="9.6238724171824"><ele>612.0</ele><time>2026-04-28T13:42:23.884Z</time></trkpt><trkpt lat="40.05684570966701" lon="9.623591501009518"><ele>614.6666666666666</ele><time>2026-04-28T13:42:24.884Z</time></trkpt><trkpt lat="40.05682943700729" lon="9.623308167013576"><ele>617.3333333333333</ele><time>2026-04-28T13:42:25.884Z</time></trkpt><trkpt lat="40.05687357187101" lon="9.623024925701479"><ele>620.0</ele><time>2026-04-28T13:42:26.884Z</time></trkpt><trkpt lat="40.05695457507261" lon="9.622752209888693"><ele>622.3333333333333</ele><time>2026-04-28T13:42:27.884Z</time></trkpt><trkpt lat="40.05700079460342" lon="9.622486664760322"><ele>624.6666666666666</ele><time>2026-04-28T13:42:28.884Z</time></trkpt><trkpt lat="40.05697876506331" lon="9.622234426525308"><ele>627.0</ele><time>2026-04-28T13:42:29.884Z</time></trkpt><trkpt lat="40.05687567223891" lon="9.622030733311998"><ele>622.5</ele><time>2026-04-28T13:42:30.884Z</time></trkpt><trkpt lat="40.05668113648022" lon="9.621860884649047"><ele>618.0</ele><time>2026-04-28T13:42:31.884Z</time></trkpt><trkpt lat="40.05649910467256" lon="9.621699200054003"><ele>626.3333333333334</ele><time>2026-04-28T13:42:32.884Z</time></trkpt><trkpt lat="40.05639836652349" lon="9.621460992456603"><ele>634.6666666666667</ele><time>2026-04-28T13:42:33.884Z</time></trkpt><trkpt lat="40.056337614624816" lon="9.621183298623436"><ele>643.0</ele><time>2026-04-28T13:42:34.884Z</time></trkpt><trkpt lat="40.05627573781015" lon="9.620904746834002"><ele>643.0</ele><time>2026-04-28T13:42:35.884Z</time></trkpt><trkpt lat="40.05623343004688" lon="9.620613185487109"><ele>643.0</ele><time>2026-04-28T13:42:36.884Z</time></trkpt><trkpt lat="40.05619934634862" lon="9.620315609586477"><ele>643.0</ele><time>2026-04-28T13:42:37.884Z</time></trkpt><trkpt lat="40.05615878769283" lon="9.620016170775477"><ele>643.0</ele><time>2026-04-28T13:42:38.884Z</time></trkpt><trkpt lat="40.05610075736686" lon="9.619730008915035"><ele>641.0</ele><time>2026-04-28T13:42:39.884Z</time></trkpt><trkpt lat="40.056013707751376" lon="9.619452420145267"><ele>639.0</ele><time>2026-04-28T13:42:40.884Z</time></trkpt><trkpt lat="40.055901154932045" lon="9.619201538513193"><ele>642.6666666666666</ele><time>2026-04-28T13:42:41.884Z</time></trkpt><trkpt lat="40.05577428938486" lon="9.618969552623351"><ele>646.3333333333333</ele><time>2026-04-28T13:42:42.884Z</time></trkpt><trkpt lat="40.05570974854061" lon="9.618739861180105"><ele>650.0</ele><time>2026-04-28T13:42:43.884Z</time></trkpt><trkpt lat="40.055728718513684" lon="9.618478906769452"><ele>646.0</ele><time>2026-04-28T13:42:44.884Z</time></trkpt><trkpt lat="40.05580944266188" lon="9.618191603301849"><ele>642.0</ele><time>2026-04-28T13:42:45.884Z</time></trkpt><trkpt lat="40.0558988120242" lon="9.617902615149701"><ele>646.5</ele><time>2026-04-28T13:42:46.884Z</time></trkpt><trkpt lat="40.05596549014138" lon="9.617618219214503"><ele>651.0</ele><time>2026-04-28T13:42:47.884Z</time></trkpt><trkpt lat="40.055990280733" lon="9.617321153575322"><ele>651.0</ele><time>2026-04-28T13:42:48.884Z</time></trkpt><trkpt lat="40.05595943009501" lon="9.61704848172644"><ele>651.0</ele><time>2026-04-28T13:42:49.884Z</time></trkpt><trkpt lat="40.055881709004346" lon="9.61675688942796"><ele>651.0</ele><time>2026-04-28T13:42:50.884Z</time></trkpt><trkpt lat="40.05573740736158" lon="9.616491424663874"><ele>656.0</ele><time>2026-04-28T13:42:51.884Z</time></trkpt><trkpt lat="40.05562262350387" lon="9.616232457123868"><ele>661.0</ele><time>2026-04-28T13:42:52.884Z</time></trkpt><trkpt lat="40.055551928802046" lon="9.615993461069989"><ele>666.0</ele><time>2026-04-28T13:42:53.885Z</time></trkpt><trkpt lat="40.055422874581105" lon="9.615826930637931"><ele>666.0</ele><time>2026-04-28T13:42:54.885Z</time></trkpt><trkpt lat="40.05523801461119" lon="9.6157301326426"><ele>666.0</ele><time>2026-04-28T13:42:55.885Z</time></trkpt><trkpt lat="40.05509488040188" lon="9.61564236130158"><ele>666.0</ele><time>2026-04-28T13:42:56.885Z</time></trkpt><trkpt lat="40.05504434355484" lon="9.615534987960238"><ele>666.0</ele><time>2026-04-28T13:42:57.885Z</time></trkpt><trkpt lat="40.055092543225086" lon="9.615386254069627"><ele>666.0</ele><time>2026-04-28T13:42:58.885Z</time></trkpt><trkpt lat="40.055181394185404" lon="9.61526673809718"><ele>666.0</ele><time>2026-04-28T13:42:59.885Z</time></trkpt><trkpt lat="40.05532541550411" lon="9.615158937886214"><ele>666.0</ele><time>2026-04-28T13:43:00.885Z</time></trkpt><trkpt lat="40.05549801153562" lon="9.615056078450221"><ele>665.3333333333334</ele><time>2026-04-28T13:43:01.885Z</time></trkpt><trkpt lat="40.05568850999811" lon="9.61493821412119"><ele>664.6666666666667</ele><time>2026-04-28T13:43:02.885Z</time></trkpt><trkpt lat="40.05588830660644" lon="9.614801272810322"><ele>664.0</ele><time>2026-04-28T13:43:03.885Z</time></trkpt><trkpt lat="40.05608227828388" lon="9.614676742338144"><ele>664.0</ele><time>2026-04-28T13:43:04.885Z</time></trkpt><trkpt lat="40.056266665524184" lon="9.614581818697477"><ele>664.0</ele><time>2026-04-28T13:43:05.884Z</time></trkpt><trkpt lat="40.05643413320404" lon="9.61452469625548"><ele>664.0</ele><time>2026-04-28T13:43:06.885Z</time></trkpt><trkpt lat="40.05661083766584" lon="9.614568660044164"><ele>663.0</ele><time>2026-04-28T13:43:07.885Z</time></trkpt><trkpt lat="40.05678156965522" lon="9.614688688536342"><ele>662.0</ele><time>2026-04-28T13:43:08.885Z</time></trkpt><trkpt lat="40.05692781420411" lon="9.614795600060505"><ele>661.0</ele><time>2026-04-28T13:43:09.885Z</time></trkpt><trkpt lat="40.05703604541821" lon="9.614848647505593"><ele>661.0</ele><time>2026-04-28T13:43:10.885Z</time></trkpt><trkpt lat="40.05715366142632" lon="9.61485594633128"><ele>661.0</ele><time>2026-04-28T13:43:11.885Z</time></trkpt><trkpt lat="40.057309331346815" lon="9.614788343205491"><ele>661.0</ele><time>2026-04-28T13:43:12.885Z</time></trkpt><trkpt lat="40.0575208873147" lon="9.61468851585468"><ele>663.6666666666667</ele><time>2026-04-28T13:43:13.885Z</time></trkpt><trkpt lat="40.05770498768185" lon="9.614639466167667"><ele>666.3333333333334</ele><time>2026-04-28T13:43:14.885Z</time></trkpt><trkpt lat="40.057843539272355" lon="9.614708022618322"><ele>669.0</ele><time>2026-04-28T13:43:15.885Z</time></trkpt><trkpt lat="40.057979270315315" lon="9.614862205028365"><ele>669.0</ele><time>2026-04-28T13:43:16.885Z</time></trkpt><trkpt lat="40.05814020193201" lon="9.61503229614976"><ele>669.0</ele><time>2026-04-28T13:43:17.885Z</time></trkpt><trkpt lat="40.05831356877682" lon="9.615116487317039"><ele>669.0</ele><time>2026-04-28T13:43:18.885Z</time></trkpt><trkpt lat="40.058498684501934" lon="9.615142105547951"><ele>674.3333333333334</ele><time>2026-04-28T13:43:19.885Z</time></trkpt><trkpt lat="40.05870243430828" lon="9.615098753739948"><ele>679.6666666666667</ele><time>2026-04-28T13:43:20.885Z</time></trkpt><trkpt lat="40.058906858512046" lon="9.615049523088576"><ele>685.0</ele><time>2026-04-28T13:43:21.885Z</time></trkpt><trkpt lat="40.05910650048543" lon="9.615015584612085"><ele>685.6666666666667</ele><time>2026-04-28T13:43:22.884Z</time></trkpt><trkpt lat="40.059296270437926" lon="9.614951049945537"><ele>686.3333333333334</ele><time>2026-04-28T13:43:23.884Z</time></trkpt><trkpt lat="40.05947452054283" lon="9.614850628793867"><ele>687.0</ele><time>2026-04-28T13:43:24.884Z</time></trkpt><trkpt lat="40.059644714280196" lon="9.614704050589436"><ele>687.0</ele><time>2026-04-28T13:43:25.884Z</time></trkpt><trkpt lat="40.059790292291105" lon="9.614531691789816"><ele>687.0</ele><time>2026-04-28T13:43:26.884Z</time></trkpt><trkpt lat="40.05991095526895" lon="9.614322202827234"><ele>687.0</ele><time>2026-04-28T13:43:27.884Z</time></trkpt><trkpt lat="40.0600223826153" lon="9.614131680562531"><ele>689.6666666666666</ele><time>2026-04-28T13:43:28.884Z</time></trkpt><trkpt lat="40.06013544700657" lon="9.614028604841863"><ele>692.3333333333333</ele><time>2026-04-28T13:43:29.884Z</time></trkpt><trkpt lat="40.06030270171361" lon="9.61404435054206"><ele>695.0</ele><time>2026-04-28T13:43:30.884Z</time></trkpt><trkpt lat="40.06046413721194" lon="9.614023138426699"><ele>695.0</ele><time>2026-04-28T13:43:31.884Z</time></trkpt><trkpt lat="40.06065648395144" lon="9.613950199186393"><ele>695.0</ele><time>2026-04-28T13:43:32.884Z</time></trkpt><trkpt lat="40.06081740808177" lon="9.613755140970625"><ele>695.0</ele><time>2026-04-28T13:43:33.884Z</time></trkpt><trkpt lat="40.06097652264294" lon="9.613550274370523"><ele>700.0</ele><time>2026-04-28T13:43:34.884Z</time></trkpt><trkpt lat="40.06111542294515" lon="9.613376651797193"><ele>705.0</ele><time>2026-04-28T13:43:35.884Z</time></trkpt><trkpt lat="40.06122972009484" lon="9.613226201079206"><ele>710.0</ele><time>2026-04-28T13:43:36.884Z</time></trkpt><trkpt lat="40.06135854840734" lon="9.613159408353308"><ele>710.0</ele><time>2026-04-28T13:43:37.884Z</time></trkpt><trkpt lat="40.06153174726784" lon="9.613196655083458"><ele>710.0</ele><time>2026-04-28T13:43:38.884Z</time></trkpt><trkpt lat="40.061734818801405" lon="9.613296623613667"><ele>710.0</ele><time>2026-04-28T13:43:39.884Z</time></trkpt><trkpt lat="40.061930517328484" lon="9.613358213670972"><ele>710.0</ele><time>2026-04-28T13:43:40.884Z</time></trkpt><trkpt lat="40.06215107661632" lon="9.6133837605051"><ele>710.0</ele><time>2026-04-28T13:43:41.884Z</time></trkpt><trkpt lat="40.06237312765162" lon="9.613389880129656"><ele>710.0</ele><time>2026-04-28T13:43:42.884Z</time></trkpt><trkpt lat="40.06259022095069" lon="9.613379175581485"><ele>710.0</ele><time>2026-04-28T13:43:43.884Z</time></trkpt><trkpt lat="40.06280984465222" lon="9.613320291004596"><ele>710.0</ele><time>2026-04-28T13:43:44.884Z</time></trkpt><trkpt lat="40.063023896522076" lon="9.613220932419166"><ele>710.0</ele><time>2026-04-28T13:43:45.884Z</time></trkpt><trkpt lat="40.06322717309429" lon="9.613070809396673"><ele>710.0</ele><time>2026-04-28T13:43:46.884Z</time></trkpt><trkpt lat="40.0634135473715" lon="9.612887594371642"><ele>714.6666666666666</ele><time>2026-04-28T13:43:47.884Z</time></trkpt><trkpt lat="40.06358158410601" lon="9.612698858051877"><ele>719.3333333333334</ele><time>2026-04-28T13:43:48.884Z</time></trkpt><trkpt lat="40.06377409438139" lon="9.612557755758534"><ele>724.0</ele><time>2026-04-28T13:43:49.884Z</time></trkpt><trkpt lat="40.06399997699666" lon="9.612493757058402"><ele>723.0</ele><time>2026-04-28T13:43:50.884Z</time></trkpt><trkpt lat="40.064240992432374" lon="9.612508087049683"><ele>722.0</ele><time>2026-04-28T13:43:51.884Z</time></trkpt><trkpt lat="40.06448001836737" lon="9.612484274881599"><ele>722.0</ele><time>2026-04-28T13:43:52.884Z</time></trkpt><trkpt lat="40.064706944729096" lon="9.612438801806485"><ele>722.0</ele><time>2026-04-28T13:43:53.884Z</time></trkpt><trkpt lat="40.064925056583" lon="9.612389614348682"><ele>721.0</ele><time>2026-04-28T13:43:54.884Z</time></trkpt><trkpt lat="40.06513058557318" lon="9.612369381276189"><ele>720.0</ele><time>2026-04-28T13:43:55.884Z</time></trkpt><trkpt lat="40.06530973227952" lon="9.612417626969892"><ele>719.0</ele><time>2026-04-28T13:43:56.884Z</time></trkpt><trkpt lat="40.065459947992885" lon="9.612520098441745"><ele>719.0</ele><time>2026-04-28T13:43:57.884Z</time></trkpt><trkpt lat="40.065596929281796" lon="9.612551458377164"><ele>719.0</ele><time>2026-04-28T13:43:58.884Z</time></trkpt><trkpt lat="40.06577031575992" lon="9.61244601209514"><ele>719.0</ele><time>2026-04-28T13:43:59.884Z</time></trkpt><trkpt lat="40.06595894395295" lon="9.612302360038333"><ele>719.6666666666666</ele><time>2026-04-28T13:44:00.884Z</time></trkpt><trkpt lat="40.066161400779635" lon="9.612221540333282"><ele>720.3333333333334</ele><time>2026-04-28T13:44:01.884Z</time></trkpt><trkpt lat="40.066366715774144" lon="9.612176968205302"><ele>721.0</ele><time>2026-04-28T13:44:02.884Z</time></trkpt><trkpt lat="40.066570047415006" lon="9.612093433379544"><ele>715.3333333333334</ele><time>2026-04-28T13:44:03.884Z</time></trkpt><trkpt lat="40.0667629574372" lon="9.611967791034695"><ele>709.6666666666666</ele><time>2026-04-28T13:44:04.884Z</time></trkpt><trkpt lat="40.066956087334454" lon="9.611876446135506"><ele>704.0</ele><time>2026-04-28T13:44:05.884Z</time></trkpt><trkpt lat="40.06715463604602" lon="9.611855736131812"><ele>704.0</ele><time>2026-04-28T13:44:06.884Z</time></trkpt><trkpt lat="40.067349149761974" lon="9.611855166810532"><ele>704.0</ele><time>2026-04-28T13:44:07.884Z</time></trkpt><trkpt lat="40.06752285375493" lon="9.611780650780727"><ele>704.0</ele><time>2026-04-28T13:44:08.884Z</time></trkpt><trkpt lat="40.06770966971744" lon="9.611621312281693"><ele>707.6666666666666</ele><time>2026-04-28T13:44:09.884Z</time></trkpt><trkpt lat="40.06792256534179" lon="9.611527025910105"><ele>711.3333333333334</ele><time>2026-04-28T13:44:10.884Z</time></trkpt><trkpt lat="40.06813615785226" lon="9.611459885588726"><ele>715.0</ele><time>2026-04-28T13:44:11.884Z</time></trkpt><trkpt lat="40.068318010892234" lon="9.611349730028195"><ele>714.0</ele><time>2026-04-28T13:44:12.884Z</time></trkpt><trkpt lat="40.068473238693294" lon="9.611182703173617"><ele>713.0</ele><time>2026-04-28T13:44:13.884Z</time></trkpt><trkpt lat="40.06856804010248" lon="9.610935153830047"><ele>712.0</ele><time>2026-04-28T13:44:14.884Z</time></trkpt><trkpt lat="40.068645182543094" lon="9.6106874280503"><ele>712.0</ele><time>2026-04-28T13:44:15.884Z</time></trkpt><trkpt lat="40.06876427847663" lon="9.610536891853483"><ele>712.0</ele><time>2026-04-28T13:44:16.884Z</time></trkpt><trkpt lat="40.06895336880336" lon="9.610452538504408"><ele>712.0</ele><time>2026-04-28T13:44:17.884Z</time></trkpt><trkpt lat="40.06906649360464" lon="9.61027980607507"><ele>712.0</ele><time>2026-04-28T13:44:18.884Z</time></trkpt><trkpt lat="40.06923643686287" lon="9.610105944977077"><ele>712.0</ele><time>2026-04-28T13:44:19.884Z</time></trkpt><trkpt lat="40.06937324666226" lon="9.609944784681586"><ele>712.0</ele><time>2026-04-28T13:44:20.884Z</time></trkpt><trkpt lat="40.069564698444836" lon="9.60984376464037"><ele>712.0</ele><time>2026-04-28T13:44:21.884Z</time></trkpt><trkpt lat="40.06978108604872" lon="9.60974937393385"><ele>712.0</ele><time>2026-04-28T13:44:22.884Z</time></trkpt><trkpt lat="40.0699942564502" lon="9.609654510552819"><ele>709.6666666666667</ele><time>2026-04-28T13:44:23.884Z</time></trkpt><trkpt lat="40.0701947435351" lon="9.609552226811086"><ele>707.3333333333334</ele><time>2026-04-28T13:44:24.884Z</time></trkpt><trkpt lat="40.07038629305938" lon="9.609453774737664"><ele>705.0</ele><time>2026-04-28T13:44:25.884Z</time></trkpt><trkpt lat="40.07057074796062" lon="9.609394337691596"><ele>705.0</ele><time>2026-04-28T13:44:26.884Z</time></trkpt><trkpt lat="40.0707691959794" lon="9.60941263971364"><ele>705.0</ele><time>2026-04-28T13:44:27.884Z</time></trkpt><trkpt lat="40.0709708970718" lon="9.60950656810996"><ele>705.0</ele><time>2026-04-28T13:44:28.884Z</time></trkpt><trkpt lat="40.071176116288285" lon="9.60961657487044"><ele>715.5</ele><time>2026-04-28T13:44:29.883Z</time></trkpt><trkpt lat="40.07139464779525" lon="9.609680753350016"><ele>726.0</ele><time>2026-04-28T13:44:30.883Z</time></trkpt><trkpt lat="40.07162716193905" lon="9.609673216044122"><ele>728.0</ele><time>2026-04-28T13:44:31.883Z</time></trkpt><trkpt lat="40.071856897549836" lon="9.609597859586952"><ele>730.0</ele><time>2026-04-28T13:44:32.883Z</time></trkpt><trkpt lat="40.072069613188084" lon="9.609499805895812"><ele>730.3333333333334</ele><time>2026-04-28T13:44:33.883Z</time></trkpt><trkpt lat="40.072281673894864" lon="9.609450549255541"><ele>730.6666666666666</ele><time>2026-04-28T13:44:34.883Z</time></trkpt><trkpt lat="40.07250012625647" lon="9.609480931889928"><ele>731.0</ele><time>2026-04-28T13:44:35.883Z</time></trkpt><trkpt lat="40.07270968149125" lon="9.609530019198509"><ele>731.0</ele><time>2026-04-28T13:44:36.883Z</time></trkpt><trkpt lat="40.07288341072327" lon="9.609534126182607"><ele>731.0</ele><time>2026-04-28T13:44:37.883Z</time></trkpt><trkpt lat="40.073023837807305" lon="9.609418341616621"><ele>731.0</ele><time>2026-04-28T13:44:38.883Z</time></trkpt><trkpt lat="40.07312374792673" lon="9.609213814259277"><ele>723.3333333333333</ele><time>2026-04-28T13:44:39.883Z</time></trkpt><trkpt lat="40.07318991035679" lon="9.608946557787029"><ele>715.6666666666666</ele><time>2026-04-28T13:44:40.883Z</time></trkpt><trkpt lat="40.073200820949566" lon="9.608678209758763"><ele>708.0</ele><time>2026-04-28T13:44:41.883Z</time></trkpt><trkpt lat="40.07325914977701" lon="9.608447753775861"><ele>709.0</ele><time>2026-04-28T13:44:42.883Z</time></trkpt><trkpt lat="40.07339695263325" lon="9.608273338548488"><ele>710.0</ele><time>2026-04-28T13:44:43.883Z</time></trkpt><trkpt lat="40.073583024361994" lon="9.60812374757924"><ele>711.0</ele><time>2026-04-28T13:44:44.883Z</time></trkpt><trkpt lat="40.07377361844755" lon="9.607954682992728"><ele>705.3333333333334</ele><time>2026-04-28T13:44:45.883Z</time></trkpt><trkpt lat="40.0739219894138" lon="9.607744013951244"><ele>699.6666666666667</ele><time>2026-04-28T13:44:46.883Z</time></trkpt><trkpt lat="40.07403791609209" lon="9.607518686110136"><ele>694.0</ele><time>2026-04-28T13:44:47.883Z</time></trkpt><trkpt lat="40.07409139822742" lon="9.607237858788546"><ele>704.5</ele><time>2026-04-28T13:44:48.883Z</time></trkpt><trkpt lat="40.07411776178543" lon="9.606943554673089"><ele>715.0</ele><time>2026-04-28T13:44:49.883Z</time></trkpt><trkpt lat="40.074135693201896" lon="9.60664541821169"><ele>715.0</ele><time>2026-04-28T13:44:50.883Z</time></trkpt><trkpt lat="40.07417078948735" lon="9.606364487004432"><ele>715.0</ele><time>2026-04-28T13:44:51.883Z</time></trkpt><trkpt lat="40.07424141488425" lon="9.606108160939517"><ele>715.0</ele><time>2026-04-28T13:44:52.883Z</time></trkpt><trkpt lat="40.07437559554797" lon="9.605878314349379"><ele>710.5</ele><time>2026-04-28T13:44:53.883Z</time></trkpt><trkpt lat="40.07452237783849" lon="9.605643577234716"><ele>706.0</ele><time>2026-04-28T13:44:54.883Z</time></trkpt><trkpt lat="40.07467753545752" lon="9.60540913847568"><ele>708.3333333333334</ele><time>2026-04-28T13:44:55.883Z</time></trkpt><trkpt lat="40.07482480029428" lon="9.605189790074883"><ele>710.6666666666666</ele><time>2026-04-28T13:44:56.883Z</time></trkpt><trkpt lat="40.07496945811433" lon="9.604994624420875"><ele>713.0</ele><time>2026-04-28T13:44:57.883Z</time></trkpt><trkpt lat="40.07515973346393" lon="9.604863744629839"><ele>713.0</ele><time>2026-04-28T13:44:58.883Z</time></trkpt><trkpt lat="40.075372673528676" lon="9.604755976297605"><ele>713.0</ele><time>2026-04-28T13:44:59.884Z</time></trkpt><trkpt lat="40.075595565334645" lon="9.604647547005918"><ele>710.5</ele><time>2026-04-28T13:45:00.884Z</time></trkpt><trkpt lat="40.07579809108911" lon="9.604511325100061"><ele>708.0</ele><time>2026-04-28T13:45:01.884Z</time></trkpt><trkpt lat="40.07597185887329" lon="9.604320943942279"><ele>708.0</ele><time>2026-04-28T13:45:02.885Z</time></trkpt><trkpt lat="40.07614179004848" lon="9.604123554539195"><ele>708.0</ele><time>2026-04-28T13:45:03.884Z</time></trkpt><trkpt lat="40.07634438933809" lon="9.603965817970813"><ele>708.0</ele><time>2026-04-28T13:45:04.884Z</time></trkpt><trkpt lat="40.076546197256654" lon="9.60381514067278"><ele>708.0</ele><time>2026-04-28T13:45:05.885Z</time></trkpt><trkpt lat="40.07674063761555" lon="9.603656144231172"><ele>707.0</ele><time>2026-04-28T13:45:06.884Z</time></trkpt><trkpt lat="40.07692327151533" lon="9.60349930936678"><ele>706.0</ele><time>2026-04-28T13:45:07.884Z</time></trkpt><trkpt lat="40.07705711640082" lon="9.603324084782104"><ele>705.0</ele><time>2026-04-28T13:45:08.885Z</time></trkpt><trkpt lat="40.077127266048315" lon="9.603096957851047"><ele>705.0</ele><time>2026-04-28T13:45:09.884Z</time></trkpt><trkpt lat="40.07716529952873" lon="9.602836649517798"><ele>705.0</ele><time>2026-04-28T13:45:10.884Z</time></trkpt><trkpt lat="40.077216513549736" lon="9.602596939086084"><ele>705.0</ele><time>2026-04-28T13:45:11.884Z</time></trkpt><trkpt lat="40.077307710390556" lon="9.602438786564596"><ele>707.3333333333334</ele><time>2026-04-28T13:45:12.884Z</time></trkpt><trkpt lat="40.07744379131911" lon="9.60237425167438"><ele>709.6666666666667</ele><time>2026-04-28T13:45:13.884Z</time></trkpt><trkpt lat="40.07758569771302" lon="9.6024114625229"><ele>712.0</ele><time>2026-04-28T13:45:14.884Z</time></trkpt><trkpt lat="40.07771121042453" lon="9.602553779592892"><ele>712.0</ele><time>2026-04-28T13:45:15.884Z</time></trkpt><trkpt lat="40.07779570406377" lon="9.602797646938978"><ele>712.0</ele><time>2026-04-28T13:45:16.884Z</time></trkpt><trkpt lat="40.077868228037175" lon="9.603065472832414"><ele>712.0</ele><time>2026-04-28T13:45:17.884Z</time></trkpt><trkpt lat="40.07793126811984" lon="9.603345084476894"><ele>712.0</ele><time>2026-04-28T13:45:18.884Z</time></trkpt><trkpt lat="40.07799827505868" lon="9.603589694805972"><ele>712.0</ele><time>2026-04-28T13:45:19.884Z</time></trkpt><trkpt lat="40.07801802885427" lon="9.603798287928376"><ele>712.0</ele><time>2026-04-28T13:45:20.884Z</time></trkpt><trkpt lat="40.077954592983446" lon="9.604012334344562"><ele>712.0</ele><time>2026-04-28T13:45:21.884Z</time></trkpt><trkpt lat="40.077874933500915" lon="9.60423474423528"><ele>712.0</ele><time>2026-04-28T13:45:22.884Z</time></trkpt><trkpt lat="40.077800695299494" lon="9.604440417262209"><ele>712.0</ele><time>2026-04-28T13:45:23.884Z</time></trkpt><trkpt lat="40.07780437618207" lon="9.604612631688813"><ele>712.0</ele><time>2026-04-28T13:45:24.884Z</time></trkpt><trkpt lat="40.07788670822045" lon="9.604729645692975"><ele>712.0</ele><time>2026-04-28T13:45:25.884Z</time></trkpt><trkpt lat="40.07801184069521" lon="9.604752157873117"><ele>712.0</ele><time>2026-04-28T13:45:26.884Z</time></trkpt><trkpt lat="40.07814184683435" lon="9.604664473349978"><ele>712.0</ele><time>2026-04-28T13:45:27.884Z</time></trkpt><trkpt lat="40.07822059280097" lon="9.60448780325731"><ele>705.0</ele><time>2026-04-28T13:45:28.884Z</time></trkpt><trkpt lat="40.078268385277255" lon="9.604234795299625"><ele>698.0</ele><time>2026-04-28T13:45:29.884Z</time></trkpt><trkpt lat="40.07829861147678" lon="9.603950428287222"><ele>691.0</ele><time>2026-04-28T13:45:30.884Z</time></trkpt><trkpt lat="40.078357040641" lon="9.603695724618577"><ele>692.0</ele><time>2026-04-28T13:45:31.884Z</time></trkpt><trkpt lat="40.07842804094986" lon="9.603450892949429"><ele>693.0</ele><time>2026-04-28T13:45:32.884Z</time></trkpt><trkpt lat="40.07849405732603" lon="9.603209299558515"><ele>694.0</ele><time>2026-04-28T13:45:33.884Z</time></trkpt><trkpt lat="40.078565752850444" lon="9.602977352866787"><ele>696.6666666666667</ele><time>2026-04-28T13:45:34.884Z</time></trkpt><trkpt lat="40.07868137532566" lon="9.602777368171251"><ele>699.3333333333334</ele><time>2026-04-28T13:45:35.884Z</time></trkpt><trkpt lat="40.078832108485614" lon="9.60261390089145"><ele>702.0</ele><time>2026-04-28T13:45:36.884Z</time></trkpt><trkpt lat="40.079023034012955" lon="9.602504512089292"><ele>696.3333333333334</ele><time>2026-04-28T13:45:37.884Z</time></trkpt><trkpt lat="40.079216249392694" lon="9.602406097881573"><ele>690.6666666666667</ele><time>2026-04-28T13:45:38.884Z</time></trkpt><trkpt lat="40.079412239084185" lon="9.602291462803247"><ele>685.0</ele><time>2026-04-28T13:45:39.884Z</time></trkpt><trkpt lat="40.079627720697225" lon="9.602224386271322"><ele>685.0</ele><time>2026-04-28T13:45:40.884Z</time></trkpt><trkpt lat="40.07985026037658" lon="9.602183249599209"><ele>685.0</ele><time>2026-04-28T13:45:41.884Z</time></trkpt><trkpt lat="40.080060318032075" lon="9.602172083528831"><ele>685.0</ele><time>2026-04-28T13:45:42.884Z</time></trkpt><trkpt lat="40.08026164470218" lon="9.602210633948243"><ele>681.6666666666667</ele><time>2026-04-28T13:45:43.884Z</time></trkpt><trkpt lat="40.08044462763326" lon="9.602260962708344"><ele>678.3333333333334</ele><time>2026-04-28T13:45:44.884Z</time></trkpt><trkpt lat="40.08061860269702" lon="9.60223594635668"><ele>675.0</ele><time>2026-04-28T13:45:45.884Z</time></trkpt><trkpt lat="40.080767260475085" lon="9.602166442510928"><ele>672.25</ele><time>2026-04-28T13:45:46.884Z</time></trkpt><trkpt lat="40.08092088719674" lon="9.602110993075597"><ele>669.5</ele><time>2026-04-28T13:45:47.884Z</time></trkpt><trkpt lat="40.081055504076645" lon="9.602066783726698"><ele>666.75</ele><time>2026-04-28T13:45:48.884Z</time></trkpt><trkpt lat="40.08117134501221" lon="9.602036073798224"><ele>664.0</ele><time>2026-04-28T13:45:49.884Z</time></trkpt><trkpt lat="40.08127387433351" lon="9.602055057618584"><ele>664.0</ele><time>2026-04-28T13:45:50.884Z</time></trkpt><trkpt lat="40.08136115459763" lon="9.60211147079874"><ele>664.0</ele><time>2026-04-28T13:45:51.884Z</time></trkpt><trkpt lat="40.081441991040506" lon="9.60218072104268"><ele>664.0</ele><time>2026-04-28T13:45:52.884Z</time></trkpt><trkpt lat="40.08153594273832" lon="9.602229049082503"><ele>664.0</ele><time>2026-04-28T13:45:53.884Z</time></trkpt><trkpt lat="40.08163971223727" lon="9.602211497370917"><ele>664.0</ele><time>2026-04-28T13:45:54.884Z</time></trkpt><trkpt lat="40.08173771696601" lon="9.602153364362264"><ele>665.75</ele><time>2026-04-28T13:45:55.884Z</time></trkpt><trkpt lat="40.08183496774112" lon="9.602089241012056"><ele>667.5</ele><time>2026-04-28T13:45:56.884Z</time></trkpt><trkpt lat="40.08193973808452" lon="9.602024940716555"><ele>669.25</ele><time>2026-04-28T13:45:57.884Z</time></trkpt><trkpt lat="40.08205980203853" lon="9.601954319290655"><ele>671.0</ele><time>2026-04-28T13:45:58.884Z</time></trkpt><trkpt lat="40.082223069058" lon="9.601873976038467"><ele>671.0</ele><time>2026-04-28T13:45:59.884Z</time></trkpt><trkpt lat="40.08243028358058" lon="9.601851434351689"><ele>671.0</ele><time>2026-04-28T13:46:00.884Z</time></trkpt><trkpt lat="40.08267993490819" lon="9.601895138484585"><ele>666.6666666666666</ele><time>2026-04-28T13:46:01.884Z</time></trkpt><trkpt lat="40.08289524612828" lon="9.601965826769472"><ele>662.3333333333334</ele><time>2026-04-28T13:46:02.884Z</time></trkpt><trkpt lat="40.083082537975734" lon="9.601976347649735"><ele>658.0</ele><time>2026-04-28T13:46:03.884Z</time></trkpt><trkpt lat="40.08325633783294" lon="9.60188113614455"><ele>657.0</ele><time>2026-04-28T13:46:04.883Z</time></trkpt><trkpt lat="40.083414806622905" lon="9.601742436917862"><ele>656.0</ele><time>2026-04-28T13:46:05.883Z</time></trkpt><trkpt lat="40.08358241272579" lon="9.601676798944323"><ele>655.0</ele><time>2026-04-28T13:46:06.883Z</time></trkpt><trkpt lat="40.08373363834203" lon="9.601704174118371"><ele>655.0</ele><time>2026-04-28T13:46:07.883Z</time></trkpt><trkpt lat="40.083859493830296" lon="9.601802256598008"><ele>655.0</ele><time>2026-04-28T13:46:08.883Z</time></trkpt><trkpt lat="40.083970570999966" lon="9.601992085432466"><ele>655.0</ele><time>2026-04-28T13:46:09.883Z</time></trkpt><trkpt lat="40.084086933847175" lon="9.602190163048812"><ele>661.3333333333334</ele><time>2026-04-28T13:46:10.883Z</time></trkpt><trkpt lat="40.08420733413506" lon="9.602319579974484"><ele>667.6666666666666</ele><time>2026-04-28T13:46:11.883Z</time></trkpt><trkpt lat="40.084374662267514" lon="9.602374245117792"><ele>674.0</ele><time>2026-04-28T13:46:12.883Z</time></trkpt><trkpt lat="40.08456768626092" lon="9.602428744507202"><ele>674.0</ele><time>2026-04-28T13:46:13.883Z</time></trkpt><trkpt lat="40.08472892718292" lon="9.602570471730063"><ele>674.0</ele><time>2026-04-28T13:46:14.883Z</time></trkpt><trkpt lat="40.0848838487414" lon="9.602693936005961"><ele>674.0</ele><time>2026-04-28T13:46:15.883Z</time></trkpt><trkpt lat="40.08504829069661" lon="9.602805596864355"><ele>681.0</ele><time>2026-04-28T13:46:16.883Z</time></trkpt><trkpt lat="40.08520705937696" lon="9.602906019233172"><ele>688.0</ele><time>2026-04-28T13:46:17.883Z</time></trkpt><trkpt lat="40.085363009703" lon="9.602972035413847"><ele>695.0</ele><time>2026-04-28T13:46:18.883Z</time></trkpt><trkpt lat="40.085522821897634" lon="9.602962067370912"><ele>695.0</ele><time>2026-04-28T13:46:19.883Z</time></trkpt><trkpt lat="40.085671423057605" lon="9.602895589241369"><ele>695.0</ele><time>2026-04-28T13:46:20.883Z</time></trkpt><trkpt lat="40.08581560638337" lon="9.602788336644675"><ele>695.0</ele><time>2026-04-28T13:46:21.883Z</time></trkpt><trkpt lat="40.08597285059713" lon="9.602705710258467"><ele>695.0</ele><time>2026-04-28T13:46:22.883Z</time></trkpt><trkpt lat="40.086124453738464" lon="9.602723089057745"><ele>695.0</ele><time>2026-04-28T13:46:23.883Z</time></trkpt><trkpt lat="40.08625888413645" lon="9.602839063179264"><ele>695.0</ele><time>2026-04-28T13:46:24.883Z</time></trkpt><trkpt lat="40.08636923238538" lon="9.603006241012842"><ele>695.0</ele><time>2026-04-28T13:46:25.883Z</time></trkpt><trkpt lat="40.086503577300334" lon="9.603076573899859"><ele>695.0</ele><time>2026-04-28T13:46:26.883Z</time></trkpt><trkpt lat="40.086650806878396" lon="9.603035933448927"><ele>695.0</ele><time>2026-04-28T13:46:27.883Z</time></trkpt><trkpt lat="40.0868047218771" lon="9.602926737618839"><ele>684.3333333333333</ele><time>2026-04-28T13:46:28.883Z</time></trkpt><trkpt lat="40.08695257432219" lon="9.602801885723375"><ele>673.6666666666666</ele><time>2026-04-28T13:46:29.883Z</time></trkpt><trkpt lat="40.087113581850105" lon="9.602671469945474"><ele>663.0</ele><time>2026-04-28T13:46:30.883Z</time></trkpt><trkpt lat="40.08728522507053" lon="9.602539326177144"><ele>673.3333333333334</ele><time>2026-04-28T13:46:31.883Z</time></trkpt><trkpt lat="40.08746424101827" lon="9.60240115715135"><ele>683.6666666666667</ele><time>2026-04-28T13:46:32.883Z</time></trkpt><trkpt lat="40.087635393485904" lon="9.602275185538112"><ele>694.0</ele><time>2026-04-28T13:46:33.883Z</time></trkpt><trkpt lat="40.0878083079396" lon="9.602153753371212"><ele>694.0</ele><time>2026-04-28T13:46:34.883Z</time></trkpt><trkpt lat="40.08799049943574" lon="9.602034787199111"><ele>694.0</ele><time>2026-04-28T13:46:35.883Z</time></trkpt><trkpt lat="40.08816613158854" lon="9.601920037169648"><ele>694.0</ele><time>2026-04-28T13:46:36.883Z</time></trkpt><trkpt lat="40.08834183199799" lon="9.601801823044893"><ele>694.3333333333334</ele><time>2026-04-28T13:46:37.883Z</time></trkpt><trkpt lat="40.08852309585052" lon="9.601697135373458"><ele>694.6666666666666</ele><time>2026-04-28T13:46:38.883Z</time></trkpt><trkpt lat="40.088705139305176" lon="9.601576617592828"><ele>695.0</ele><time>2026-04-28T13:46:39.883Z</time></trkpt><trkpt lat="40.08888704299328" lon="9.601438380375166"><ele>695.0</ele><time>2026-04-28T13:46:40.883Z</time></trkpt><trkpt lat="40.08904236411015" lon="9.601284059051322"><ele>695.0</ele><time>2026-04-28T13:46:41.883Z</time></trkpt><trkpt lat="40.08921732573048" lon="9.601142990799111"><ele>695.0</ele><time>2026-04-28T13:46:42.883Z</time></trkpt><trkpt lat="40.089409649505924" lon="9.601032520097169"><ele>695.6666666666666</ele><time>2026-04-28T13:46:43.883Z</time></trkpt><trkpt lat="40.089597864063904" lon="9.600896364687971"><ele>696.3333333333334</ele><time>2026-04-28T13:46:44.883Z</time></trkpt><trkpt lat="40.089761025639106" lon="9.600722536938388"><ele>697.0</ele><time>2026-04-28T13:46:45.883Z</time></trkpt><trkpt lat="40.08989892892049" lon="9.600501636582592"><ele>697.5</ele><time>2026-04-28T13:46:46.883Z</time></trkpt><trkpt lat="40.090036616797946" lon="9.600236125870648"><ele>698.0</ele><time>2026-04-28T13:46:47.883Z</time></trkpt><trkpt lat="40.090161769628864" lon="9.59997874428504"><ele>698.0</ele><time>2026-04-28T13:46:48.883Z</time></trkpt><trkpt lat="40.09030855682944" lon="9.59974942479049"><ele>698.0</ele><time>2026-04-28T13:46:49.883Z</time></trkpt><trkpt lat="40.090509257473244" lon="9.599631360070823"><ele>698.0</ele><time>2026-04-28T13:46:50.883Z</time></trkpt><trkpt lat="40.090671899816336" lon="9.599477995841905"><ele>696.6666666666666</ele><time>2026-04-28T13:46:51.883Z</time></trkpt><trkpt lat="40.09087406410075" lon="9.599398611533477"><ele>695.3333333333334</ele><time>2026-04-28T13:46:52.883Z</time></trkpt><trkpt lat="40.09108853673805" lon="9.599297620987826"><ele>694.0</ele><time>2026-04-28T13:46:53.883Z</time></trkpt><trkpt lat="40.09130093602548" lon="9.599179603747556"><ele>694.0</ele><time>2026-04-28T13:46:54.883Z</time></trkpt><trkpt lat="40.091507402615385" lon="9.59905118781551"><ele>694.0</ele><time>2026-04-28T13:46:55.883Z</time></trkpt><trkpt lat="40.09171993489597" lon="9.598913346467274"><ele>702.0</ele><time>2026-04-28T13:46:56.883Z</time></trkpt><trkpt lat="40.09193775708904" lon="9.598787053786111"><ele>710.0</ele><time>2026-04-28T13:46:57.883Z</time></trkpt><trkpt lat="40.09214359976431" lon="9.598632763548432"><ele>704.5</ele><time>2026-04-28T13:46:58.883Z</time></trkpt><trkpt lat="40.09234765677292" lon="9.598479489232053"><ele>699.0</ele><time>2026-04-28T13:46:59.883Z</time></trkpt><trkpt lat="40.092555825374134" lon="9.598328377426226"><ele>699.0</ele><time>2026-04-28T13:47:00.883Z</time></trkpt><trkpt lat="40.092762652697026" lon="9.59816656617571"><ele>699.0</ele><time>2026-04-28T13:47:01.883Z</time></trkpt><trkpt lat="40.092957298090816" lon="9.597978508894924"><ele>697.5</ele><time>2026-04-28T13:47:02.883Z</time></trkpt><trkpt lat="40.09313825879599" lon="9.597761394962443"><ele>696.0</ele><time>2026-04-28T13:47:03.883Z</time></trkpt><trkpt lat="40.09330236528101" lon="9.597508235258989"><ele>696.0</ele><time>2026-04-28T13:47:04.883Z</time></trkpt><trkpt lat="40.09345811116032" lon="9.597249790079216"><ele>696.0</ele><time>2026-04-28T13:47:05.883Z</time></trkpt><trkpt lat="40.09361774272175" lon="9.59700212923427"><ele>678.0</ele><time>2026-04-28T13:47:06.883Z</time></trkpt><trkpt lat="40.09381201304024" lon="9.596829418560146"><ele>660.0</ele><time>2026-04-28T13:47:07.883Z</time></trkpt><trkpt lat="40.094013953381975" lon="9.59665887606934"><ele>676.0</ele><time>2026-04-28T13:47:08.884Z</time></trkpt><trkpt lat="40.09425025933865" lon="9.596567318452822"><ele>692.0</ele><time>2026-04-28T13:47:09.883Z</time></trkpt><trkpt lat="40.094520489521905" lon="9.596549817550503"><ele>692.0</ele><time>2026-04-28T13:47:10.883Z</time></trkpt><trkpt lat="40.094772390812594" lon="9.596507779761067"><ele>692.0</ele><time>2026-04-28T13:47:11.884Z</time></trkpt><trkpt lat="40.09502371887736" lon="9.59645977569359"><ele>701.0</ele><time>2026-04-28T13:47:12.884Z</time></trkpt><trkpt lat="40.0952751520048" lon="9.596426856903168"><ele>710.0</ele><time>2026-04-28T13:47:13.884Z</time></trkpt><trkpt lat="40.09552437018041" lon="9.596418149387631"><ele>710.5</ele><time>2026-04-28T13:47:14.884Z</time></trkpt><trkpt lat="40.095771487586966" lon="9.596448815248504"><ele>711.0</ele><time>2026-04-28T13:47:15.884Z</time></trkpt><trkpt lat="40.09601172618547" lon="9.596492766232348"><ele>711.0</ele><time>2026-04-28T13:47:16.884Z</time></trkpt><trkpt lat="40.09625603204967" lon="9.59653599541622"><ele>711.0</ele><time>2026-04-28T13:47:17.884Z</time></trkpt><trkpt lat="40.096501889204546" lon="9.596540541464933"><ele>710.0</ele><time>2026-04-28T13:47:18.883Z</time></trkpt><trkpt lat="40.096755808369124" lon="9.59654691945401"><ele>709.0</ele><time>2026-04-28T13:47:19.883Z</time></trkpt><trkpt lat="40.097013402816856" lon="9.59654617529381"><ele>709.0</ele><time>2026-04-28T13:47:20.883Z</time></trkpt><trkpt lat="40.09727499240215" lon="9.596558897921957"><ele>709.0</ele><time>2026-04-28T13:47:21.883Z</time></trkpt><trkpt lat="40.09753287719708" lon="9.596562254163313"><ele>707.0</ele><time>2026-04-28T13:47:22.883Z</time></trkpt><trkpt lat="40.09777158166074" lon="9.596603965582947"><ele>705.0</ele><time>2026-04-28T13:47:23.883Z</time></trkpt><trkpt lat="40.09799009487827" lon="9.59661165700274"><ele>705.0</ele><time>2026-04-28T13:47:24.883Z</time></trkpt><trkpt lat="40.0981687963704" lon="9.596548430642912"><ele>705.0</ele><time>2026-04-28T13:47:25.883Z</time></trkpt><trkpt lat="40.098313184877696" lon="9.596379058255538"><ele>705.0</ele><time>2026-04-28T13:47:26.883Z</time></trkpt><trkpt lat="40.098432060803006" lon="9.596103230890705"><ele>697.5</ele><time>2026-04-28T13:47:27.883Z</time></trkpt><trkpt lat="40.09854246036075" lon="9.595826621887849"><ele>690.0</ele><time>2026-04-28T13:47:28.883Z</time></trkpt><trkpt lat="40.09865736318272" lon="9.595498312655739"><ele>684.0</ele><time>2026-04-28T13:47:29.883Z</time></trkpt><trkpt lat="40.09878759221996" lon="9.595241836262199"><ele>678.0</ele><time>2026-04-28T13:47:30.883Z</time></trkpt><trkpt lat="40.09895770227583" lon="9.595025066092939"><ele>692.0</ele><time>2026-04-28T13:47:31.883Z</time></trkpt><trkpt lat="40.09917351513901" lon="9.594826004722764"><ele>706.0</ele><time>2026-04-28T13:47:32.883Z</time></trkpt><trkpt lat="40.09944886686757" lon="9.594608448113675"><ele>700.0</ele><time>2026-04-28T13:47:33.883Z</time></trkpt><trkpt lat="40.099768767803944" lon="9.594380403610524"><ele>694.0</ele><time>2026-04-28T13:47:34.883Z</time></trkpt><trkpt lat="40.100111786793136" lon="9.59413603882695"><ele>694.0</ele><time>2026-04-28T13:47:35.883Z</time></trkpt><trkpt lat="40.10038475461323" lon="9.593940364904679"><ele>694.0</ele><time>2026-04-28T13:47:36.883Z</time></trkpt><trkpt lat="40.100604668944236" lon="9.593774164313453"><ele>693.5</ele><time>2026-04-28T13:47:37.883Z</time></trkpt><trkpt lat="40.10077994440538" lon="9.59358571196665"><ele>693.0</ele><time>2026-04-28T13:47:38.883Z</time></trkpt><trkpt lat="40.10095578871058" lon="9.593339218491195"><ele>693.0</ele><time>2026-04-28T13:47:39.883Z</time></trkpt><trkpt lat="40.101136785352125" lon="9.593043154126145"><ele>693.0</ele><time>2026-04-28T13:47:40.883Z</time></trkpt><trkpt lat="40.10132158078404" lon="9.592757253281874"><ele>698.0</ele><time>2026-04-28T13:47:41.883Z</time></trkpt><trkpt lat="40.10149078007847" lon="9.592519305747928"><ele>703.0</ele><time>2026-04-28T13:47:42.883Z</time></trkpt><trkpt lat="40.101654459412636" lon="9.59232039815746"><ele>703.0</ele><time>2026-04-28T13:47:43.883Z</time></trkpt><trkpt lat="40.10177546248659" lon="9.592101357376677"><ele>703.0</ele><time>2026-04-28T13:47:44.883Z</time></trkpt><trkpt lat="40.101854318621754" lon="9.591894844992176"><ele>703.0</ele><time>2026-04-28T13:47:45.883Z</time></trkpt><trkpt lat="40.101995626769046" lon="9.591784808206594"><ele>692.6666666666667</ele><time>2026-04-28T13:47:46.883Z</time></trkpt><trkpt lat="40.10215707459625" lon="9.591717184790342"><ele>682.3333333333334</ele><time>2026-04-28T13:47:47.883Z</time></trkpt><trkpt lat="40.10228730155233" lon="9.59160444216704"><ele>672.0</ele><time>2026-04-28T13:47:48.883Z</time></trkpt><trkpt lat="40.10237806709619" lon="9.591435772372781"><ele>676.0</ele><time>2026-04-28T13:47:49.883Z</time></trkpt><trkpt lat="40.10246489612292" lon="9.591236889970451"><ele>680.0</ele><time>2026-04-28T13:47:50.883Z</time></trkpt><trkpt lat="40.10257687866011" lon="9.59105297680818"><ele>684.0</ele><time>2026-04-28T13:47:51.883Z</time></trkpt><trkpt lat="40.102713894298056" lon="9.59089063257668"><ele>684.0</ele><time>2026-04-28T13:47:52.883Z</time></trkpt><trkpt lat="40.10284883826574" lon="9.590715934949888"><ele>684.0</ele><time>2026-04-28T13:47:53.883Z</time></trkpt><trkpt lat="40.10297413441331" lon="9.59052095068857"><ele>684.0</ele><time>2026-04-28T13:47:54.883Z</time></trkpt><trkpt lat="40.103084886265464" lon="9.590319784173941"><ele>689.6666666666666</ele><time>2026-04-28T13:47:55.883Z</time></trkpt><trkpt lat="40.103201500609394" lon="9.590129470587677"><ele>695.3333333333333</ele><time>2026-04-28T13:47:56.883Z</time></trkpt><trkpt lat="40.103328520211015" lon="9.589934892405363"><ele>701.0</ele><time>2026-04-28T13:47:57.883Z</time></trkpt><trkpt lat="40.103455972077086" lon="9.58974386256306"><ele>701.0</ele><time>2026-04-28T13:47:58.883Z</time></trkpt><trkpt lat="40.10357905539302" lon="9.589550934651696"><ele>701.0</ele><time>2026-04-28T13:47:59.883Z</time></trkpt><trkpt lat="40.10368720418293" lon="9.589366824531167"><ele>701.0</ele><time>2026-04-28T13:48:00.883Z</time></trkpt><trkpt lat="40.103726524474276" lon="9.589153022867531"><ele>694.3333333333333</ele><time>2026-04-28T13:48:01.883Z</time></trkpt><trkpt lat="40.10370116560138" lon="9.588925382736326"><ele>687.6666666666666</ele><time>2026-04-28T13:48:02.883Z</time></trkpt><trkpt lat="40.10367130185615" lon="9.588676388650882"><ele>681.0</ele><time>2026-04-28T13:48:03.883Z</time></trkpt><trkpt lat="40.10372520645768" lon="9.588430424521665"><ele>679.3333333333334</ele><time>2026-04-28T13:48:04.883Z</time></trkpt><trkpt lat="40.103805168955304" lon="9.588229674892874"><ele>677.6666666666667</ele><time>2026-04-28T13:48:05.883Z</time></trkpt><trkpt lat="40.10385002016268" lon="9.588038886033432"><ele>676.0</ele><time>2026-04-28T13:48:06.883Z</time></trkpt><trkpt lat="40.10380211674194" lon="9.587835792087805"><ele>676.0</ele><time>2026-04-28T13:48:07.883Z</time></trkpt><trkpt lat="40.10371448057467" lon="9.587654624623106"><ele>676.0</ele><time>2026-04-28T13:48:08.883Z</time></trkpt><trkpt lat="40.10367559832384" lon="9.587471303278337"><ele>676.0</ele><time>2026-04-28T13:48:09.883Z</time></trkpt><trkpt lat="40.10371902522368" lon="9.58724531129224"><ele>676.0</ele><time>2026-04-28T13:48:10.883Z</time></trkpt><trkpt lat="40.10381694328824" lon="9.587040387897273"><ele>676.0</ele><time>2026-04-28T13:48:11.883Z</time></trkpt><trkpt lat="40.103904641039094" lon="9.586827885304238"><ele>676.0</ele><time>2026-04-28T13:48:12.883Z</time></trkpt><trkpt lat="40.10392861533921" lon="9.586601706500332"><ele>675.3333333333334</ele><time>2026-04-28T13:48:13.883Z</time></trkpt><trkpt lat="40.1038758528368" lon="9.586374305259437"><ele>674.6666666666666</ele><time>2026-04-28T13:48:14.883Z</time></trkpt><trkpt lat="40.103786333687985" lon="9.586179082669444"><ele>674.0</ele><time>2026-04-28T13:48:15.883Z</time></trkpt><trkpt lat="40.10373045855892" lon="9.586021107792677"><ele>674.0</ele><time>2026-04-28T13:48:16.883Z</time></trkpt><trkpt lat="40.103778750523645" lon="9.5858784869711"><ele>674.0</ele><time>2026-04-28T13:48:17.883Z</time></trkpt><trkpt lat="40.103889692962966" lon="9.585747733252285"><ele>674.0</ele><time>2026-04-28T13:48:18.883Z</time></trkpt><trkpt lat="40.10395617254858" lon="9.58556197776683"><ele>674.0</ele><time>2026-04-28T13:48:19.882Z</time></trkpt><trkpt lat="40.10395097494485" lon="9.58533399911925"><ele>679.0</ele><time>2026-04-28T13:48:20.882Z</time></trkpt><trkpt lat="40.10390088969653" lon="9.585094287591161"><ele>684.0</ele><time>2026-04-28T13:48:21.882Z</time></trkpt><trkpt lat="40.10381370177994" lon="9.584880345699814"><ele>689.0</ele><time>2026-04-28T13:48:22.882Z</time></trkpt><trkpt lat="40.10368341938984" lon="9.584689486087493"><ele>689.0</ele><time>2026-04-28T13:48:23.882Z</time></trkpt><trkpt lat="40.10352204472379" lon="9.584515719001976"><ele>689.0</ele><time>2026-04-28T13:48:24.882Z</time></trkpt><trkpt lat="40.103357238203316" lon="9.58441125049583"><ele>689.0</ele><time>2026-04-28T13:48:25.882Z</time></trkpt><trkpt lat="40.10322905371172" lon="9.584303003797915"><ele>686.3333333333333</ele><time>2026-04-28T13:48:26.882Z</time></trkpt><trkpt lat="40.1031528066538" lon="9.584110909944188"><ele>683.6666666666666</ele><time>2026-04-28T13:48:27.882Z</time></trkpt><trkpt lat="40.10314682855904" lon="9.583910159818616"><ele>681.0</ele><time>2026-04-28T13:48:28.882Z</time></trkpt><trkpt lat="40.10320557479493" lon="9.583731521498024"><ele>690.3333333333334</ele><time>2026-04-28T13:48:29.882Z</time></trkpt><trkpt lat="40.10332555591204" lon="9.583603875475491"><ele>699.6666666666667</ele><time>2026-04-28T13:48:30.882Z</time></trkpt><trkpt lat="40.1034995230522" lon="9.583466333081487"><ele>709.0</ele><time>2026-04-28T13:48:31.882Z</time></trkpt><trkpt lat="40.10366334070872" lon="9.583322750051579"><ele>709.0</ele><time>2026-04-28T13:48:32.882Z</time></trkpt><trkpt lat="40.10381699198621" lon="9.583177383802976"><ele>709.0</ele><time>2026-04-28T13:48:33.882Z</time></trkpt><trkpt lat="40.10397126530622" lon="9.583009687636936"><ele>709.0</ele><time>2026-04-28T13:48:34.882Z</time></trkpt><trkpt lat="40.1041276330578" lon="9.58284049365381"><ele>710.0</ele><time>2026-04-28T13:48:35.882Z</time></trkpt><trkpt lat="40.10428332725387" lon="9.582696626630918"><ele>711.0</ele><time>2026-04-28T13:48:36.882Z</time></trkpt><trkpt lat="40.104430184665446" lon="9.582576459015662"><ele>712.0</ele><time>2026-04-28T13:48:37.882Z</time></trkpt><trkpt lat="40.10457929250732" lon="9.582564462209778"><ele>712.0</ele><time>2026-04-28T13:48:38.882Z</time></trkpt><trkpt lat="40.1047266702168" lon="9.582537226804916"><ele>712.0</ele><time>2026-04-28T13:48:39.882Z</time></trkpt><trkpt lat="40.104861865422684" lon="9.582385099460986"><ele>712.0</ele><time>2026-04-28T13:48:40.882Z</time></trkpt><trkpt lat="40.10498727011305" lon="9.582198704454479"><ele>717.3333333333334</ele><time>2026-04-28T13:48:41.882Z</time></trkpt><trkpt lat="40.10511516264002" lon="9.582011627086732"><ele>722.6666666666666</ele><time>2026-04-28T13:48:42.882Z</time></trkpt><trkpt lat="40.10519554608734" lon="9.581785178456096"><ele>728.0</ele><time>2026-04-28T13:48:43.882Z</time></trkpt><trkpt lat="40.10523936942508" lon="9.581532367798726"><ele>728.0</ele><time>2026-04-28T13:48:44.882Z</time></trkpt><trkpt lat="40.10527559917676" lon="9.581312113527677"><ele>728.0</ele><time>2026-04-28T13:48:45.882Z</time></trkpt><trkpt lat="40.10528954841609" lon="9.581139789494442"><ele>728.0</ele><time>2026-04-28T13:48:46.882Z</time></trkpt><trkpt lat="40.105229775585435" lon="9.581005379833856"><ele>728.0</ele><time>2026-04-28T13:48:47.882Z</time></trkpt><trkpt lat="40.10509751440442" lon="9.580904517578206"><ele>726.6666666666666</ele><time>2026-04-28T13:48:48.882Z</time></trkpt><trkpt lat="40.104900698356815" lon="9.580860698097943"><ele>725.3333333333334</ele><time>2026-04-28T13:48:49.882Z</time></trkpt><trkpt lat="40.10468915432497" lon="9.58080854650679"><ele>724.0</ele><time>2026-04-28T13:48:50.882Z</time></trkpt><trkpt lat="40.1045025357213" lon="9.580726983490539"><ele>724.0</ele><time>2026-04-28T13:48:51.882Z</time></trkpt><trkpt lat="40.10438252453489" lon="9.58057216859117"><ele>724.0</ele><time>2026-04-28T13:48:52.882Z</time></trkpt><trkpt lat="40.104304232469275" lon="9.580380476428326"><ele>724.0</ele><time>2026-04-28T13:48:53.882Z</time></trkpt><trkpt lat="40.10425724030626" lon="9.580130775331323"><ele>729.0</ele><time>2026-04-28T13:48:54.882Z</time></trkpt><trkpt lat="40.10412867797592" lon="9.580000372005442"><ele>734.0</ele><time>2026-04-28T13:48:55.882Z</time></trkpt><trkpt lat="40.10393906632081" lon="9.579928542819014"><ele>739.0</ele><time>2026-04-28T13:48:56.882Z</time></trkpt><trkpt lat="40.10374282310518" lon="9.579847500815452"><ele>739.0</ele><time>2026-04-28T13:48:57.882Z</time></trkpt><trkpt lat="40.103536805736745" lon="9.57983191670216"><ele>739.0</ele><time>2026-04-28T13:48:58.882Z</time></trkpt><trkpt lat="40.103328093800265" lon="9.579866188385866"><ele>739.0</ele><time>2026-04-28T13:48:59.882Z</time></trkpt><trkpt lat="40.10313142917693" lon="9.579910565297974"><ele>740.6666666666667</ele><time>2026-04-28T13:49:00.882Z</time></trkpt><trkpt lat="40.102923527400684" lon="9.579950090998011"><ele>742.3333333333334</ele><time>2026-04-28T13:49:01.882Z</time></trkpt><trkpt lat="40.10270891914899" lon="9.580001776824746"><ele>744.0</ele><time>2026-04-28T13:49:02.882Z</time></trkpt><trkpt lat="40.102493865989025" lon="9.580028559855302"><ele>737.6666666666666</ele><time>2026-04-28T13:49:03.882Z</time></trkpt><trkpt lat="40.102286858121154" lon="9.580101886961186"><ele>731.3333333333333</ele><time>2026-04-28T13:49:04.882Z</time></trkpt><trkpt lat="40.102116564919534" lon="9.580186154646547"><ele>725.0</ele><time>2026-04-28T13:49:05.882Z</time></trkpt><trkpt lat="40.102024726404096" lon="9.580158639341676"><ele>725.0</ele><time>2026-04-28T13:49:06.882Z</time></trkpt><trkpt lat="40.10191502493746" lon="9.580036713166"><ele>725.0</ele><time>2026-04-28T13:49:07.882Z</time></trkpt><trkpt lat="40.101875586475096" lon="9.579818019470133"><ele>725.0</ele><time>2026-04-28T13:49:08.882Z</time></trkpt><trkpt lat="40.10176985914192" lon="9.579597645267022"><ele>728.0</ele><time>2026-04-28T13:49:09.882Z</time></trkpt><trkpt lat="40.10175992189713" lon="9.579319477713394"><ele>731.0</ele><time>2026-04-28T13:49:10.882Z</time></trkpt><trkpt lat="40.10179298035646" lon="9.579039843444285"><ele>734.0</ele><time>2026-04-28T13:49:11.883Z</time></trkpt><trkpt lat="40.101872487137975" lon="9.57875043392323"><ele>737.3333333333333</ele><time>2026-04-28T13:49:12.883Z</time></trkpt><trkpt lat="40.10193039400308" lon="9.578480824471871"><ele>740.6666666666666</ele><time>2026-04-28T13:49:13.883Z</time></trkpt><trkpt lat="40.1019251308863" lon="9.578234410905605"><ele>744.0</ele><time>2026-04-28T13:49:14.883Z</time></trkpt><trkpt lat="40.10184685522722" lon="9.578008408877542"><ele>743.3333333333334</ele><time>2026-04-28T13:49:15.883Z</time></trkpt><trkpt lat="40.10172665996671" lon="9.577846976183897"><ele>742.6666666666667</ele><time>2026-04-28T13:49:16.883Z</time></trkpt><trkpt lat="40.10150312071144" lon="9.57777491111329"><ele>742.0</ele><time>2026-04-28T13:49:17.883Z</time></trkpt><trkpt lat="40.101276106989964" lon="9.577704772384806"><ele>742.0</ele><time>2026-04-28T13:49:18.883Z</time></trkpt><trkpt lat="40.10109684719567" lon="9.57757673460608"><ele>742.0</ele><time>2026-04-28T13:49:19.883Z</time></trkpt><trkpt lat="40.100990366633624" lon="9.57740583140913"><ele>742.0</ele><time>2026-04-28T13:49:20.883Z</time></trkpt><trkpt lat="40.10094005849262" lon="9.577193985298313"><ele>747.0</ele><time>2026-04-28T13:49:21.883Z</time></trkpt><trkpt lat="40.100933059305156" lon="9.576924134051458"><ele>752.0</ele><time>2026-04-28T13:49:22.883Z</time></trkpt><trkpt lat="40.10095264800808" lon="9.576684798257363"><ele>757.0</ele><time>2026-04-28T13:49:23.883Z</time></trkpt><trkpt lat="40.10102363130992" lon="9.576465969216583"><ele>757.0</ele><time>2026-04-28T13:49:24.883Z</time></trkpt><trkpt lat="40.10112776336397" lon="9.576272879452306"><ele>757.0</ele><time>2026-04-28T13:49:25.883Z</time></trkpt><trkpt lat="40.101175494841236" lon="9.576121752782301"><ele>757.0</ele><time>2026-04-28T13:49:26.883Z</time></trkpt><trkpt lat="40.10113264962949" lon="9.576006733399959"><ele>757.0</ele><time>2026-04-28T13:49:27.883Z</time></trkpt><trkpt lat="40.101000030029574" lon="9.575955965146395"><ele>761.3333333333334</ele><time>2026-04-28T13:49:28.883Z</time></trkpt><trkpt lat="40.100809260036364" lon="9.575995508487392"><ele>765.6666666666667</ele><time>2026-04-28T13:49:29.883Z</time></trkpt><trkpt lat="40.10059246667789" lon="9.576058303310003"><ele>770.0</ele><time>2026-04-28T13:49:30.883Z</time></trkpt><trkpt lat="40.1003710547131" lon="9.576118539083312"><ele>771.5</ele><time>2026-04-28T13:49:31.883Z</time></trkpt><trkpt lat="40.1001485090611" lon="9.576156949122275"><ele>773.0</ele><time>2026-04-28T13:49:32.883Z</time></trkpt><trkpt lat="40.099926758307696" lon="9.576213346386435"><ele>760.6666666666667</ele><time>2026-04-28T13:49:33.883Z</time></trkpt><trkpt lat="40.09972531419101" lon="9.576257279032687"><ele>748.3333333333334</ele><time>2026-04-28T13:49:34.883Z</time></trkpt><trkpt lat="40.09955562126626" lon="9.576286921044526"><ele>736.0</ele><time>2026-04-28T13:49:35.883Z</time></trkpt><trkpt lat="40.09939644262802" lon="9.576239404868666"><ele>742.6666666666667</ele><time>2026-04-28T13:49:36.883Z</time></trkpt><trkpt lat="40.099236075598334" lon="9.576087527206477"><ele>749.3333333333334</ele><time>2026-04-28T13:49:37.883Z</time></trkpt><trkpt lat="40.09910057328785" lon="9.575891221534745"><ele>756.0</ele><time>2026-04-28T13:49:38.883Z</time></trkpt><trkpt lat="40.098988582540564" lon="9.57564916829832"><ele>756.0</ele><time>2026-04-28T13:49:39.883Z</time></trkpt><trkpt lat="40.098894405677186" lon="9.57537355416268"><ele>756.0</ele><time>2026-04-28T13:49:40.883Z</time></trkpt><trkpt lat="40.09877385694701" lon="9.57517397211129"><ele>756.0</ele><time>2026-04-28T13:49:41.883Z</time></trkpt><trkpt lat="40.09860236126205" lon="9.575036837993618"><ele>753.0</ele><time>2026-04-28T13:49:42.883Z</time></trkpt><trkpt lat="40.09837381619069" lon="9.57493410811859"><ele>750.0</ele><time>2026-04-28T13:49:43.883Z</time></trkpt><trkpt lat="40.0981423915599" lon="9.57481384314144"><ele>750.0</ele><time>2026-04-28T13:49:44.883Z</time></trkpt><trkpt lat="40.09791842497828" lon="9.574698573092022"><ele>750.0</ele><time>2026-04-28T13:49:45.883Z</time></trkpt><trkpt lat="40.09769479064291" lon="9.574634345205673"><ele>750.0</ele><time>2026-04-28T13:49:46.883Z</time></trkpt><trkpt lat="40.09747806082588" lon="9.574568460331601"><ele>750.0</ele><time>2026-04-28T13:49:47.883Z</time></trkpt><trkpt lat="40.09730866965025" lon="9.574454646317987"><ele>750.0</ele><time>2026-04-28T13:49:48.883Z</time></trkpt><trkpt lat="40.097184321958935" lon="9.574354183332918"><ele>748.3333333333334</ele><time>2026-04-28T13:49:49.883Z</time></trkpt><trkpt lat="40.09712414407457" lon="9.574199621986233"><ele>746.6666666666667</ele><time>2026-04-28T13:49:50.883Z</time></trkpt><trkpt lat="40.0971597390778" lon="9.574005168724451"><ele>745.0</ele><time>2026-04-28T13:49:51.883Z</time></trkpt><trkpt lat="40.09728282164643" lon="9.573814488230859"><ele>748.6666666666667</ele><time>2026-04-28T13:49:52.883Z</time></trkpt><trkpt lat="40.09745114228948" lon="9.57363042349961"><ele>752.3333333333334</ele><time>2026-04-28T13:49:53.883Z</time></trkpt><trkpt lat="40.09760583774993" lon="9.573434899773419"><ele>756.0</ele><time>2026-04-28T13:49:54.883Z</time></trkpt><trkpt lat="40.09770572865434" lon="9.573187964024914"><ele>756.0</ele><time>2026-04-28T13:49:55.883Z</time></trkpt><trkpt lat="40.09774140540966" lon="9.572898007010915"><ele>756.0</ele><time>2026-04-28T13:49:56.883Z</time></trkpt><trkpt lat="40.097744334368315" lon="9.572580252963398"><ele>754.0</ele><time>2026-04-28T13:49:57.883Z</time></trkpt><trkpt lat="40.097756024321974" lon="9.572298271019978"><ele>752.0</ele><time>2026-04-28T13:49:58.883Z</time></trkpt><trkpt lat="40.09770780931981" lon="9.572068795211178"><ele>750.0</ele><time>2026-04-28T13:49:59.883Z</time></trkpt><trkpt lat="40.09760294655192" lon="9.571850928302805"><ele>749.6666666666666</ele><time>2026-04-28T13:50:00.883Z</time></trkpt><trkpt lat="40.097520825106486" lon="9.571617640883606"><ele>749.3333333333333</ele><time>2026-04-28T13:50:01.883Z</time></trkpt><trkpt lat="40.09752509688557" lon="9.571366553187524"><ele>749.0</ele><time>2026-04-28T13:50:02.883Z</time></trkpt><trkpt lat="40.09758693078455" lon="9.571093568930188"><ele>750.3333333333333</ele><time>2026-04-28T13:50:03.882Z</time></trkpt><trkpt lat="40.09767310542305" lon="9.570821253175975"><ele>751.6666666666666</ele><time>2026-04-28T13:50:04.882Z</time></trkpt><trkpt lat="40.09774971560588" lon="9.570558588367861"><ele>753.0</ele><time>2026-04-28T13:50:05.882Z</time></trkpt><trkpt lat="40.09782188336501" lon="9.570305963518772"><ele>757.6666666666666</ele><time>2026-04-28T13:50:06.882Z</time></trkpt><trkpt lat="40.09791669538547" lon="9.570060316591636"><ele>762.3333333333333</ele><time>2026-04-28T13:50:07.882Z</time></trkpt><trkpt lat="40.0980419320985" lon="9.569834280102251"><ele>767.0</ele><time>2026-04-28T13:50:08.882Z</time></trkpt><trkpt lat="40.09817398921564" lon="9.56963003389055"><ele>763.6666666666666</ele><time>2026-04-28T13:50:09.882Z</time></trkpt><trkpt lat="40.098298065514264" lon="9.56943839149625"><ele>760.3333333333334</ele><time>2026-04-28T13:50:10.882Z</time></trkpt><trkpt lat="40.09840693035607" lon="9.569233761238932"><ele>757.0</ele><time>2026-04-28T13:50:11.882Z</time></trkpt><trkpt lat="40.098535171311916" lon="9.569016939396136"><ele>757.0</ele><time>2026-04-28T13:50:12.882Z</time></trkpt><trkpt lat="40.09869513429281" lon="9.56882925916351"><ele>757.0</ele><time>2026-04-28T13:50:13.882Z</time></trkpt><trkpt lat="40.09890185961329" lon="9.568708445760757"><ele>757.0</ele><time>2026-04-28T13:50:14.882Z</time></trkpt><trkpt lat="40.09911201414136" lon="9.56859760580427"><ele>754.6666666666667</ele><time>2026-04-28T13:50:15.882Z</time></trkpt><trkpt lat="40.09931135585" lon="9.568467536513031"><ele>752.3333333333334</ele><time>2026-04-28T13:50:16.882Z</time></trkpt><trkpt lat="40.09949077662397" lon="9.568330287725038"><ele>750.0</ele><time>2026-04-28T13:50:17.882Z</time></trkpt><trkpt lat="40.099648473932604" lon="9.568206912687208"><ele>750.0</ele><time>2026-04-28T13:50:18.882Z</time></trkpt><trkpt lat="40.099787059917624" lon="9.568078158519496"><ele>750.0</ele><time>2026-04-28T13:50:19.882Z</time></trkpt><trkpt lat="40.099891955464905" lon="9.567895757299425"><ele>750.0</ele><time>2026-04-28T13:50:20.882Z</time></trkpt><trkpt lat="40.09992919665015" lon="9.567675290238887"><ele>751.0</ele><time>2026-04-28T13:50:21.882Z</time></trkpt><trkpt lat="40.09991030276456" lon="9.567432948530955"><ele>752.0</ele><time>2026-04-28T13:50:22.882Z</time></trkpt><trkpt lat="40.09986178694173" lon="9.567197898938517"><ele>753.0</ele><time>2026-04-28T13:50:23.882Z</time></trkpt><trkpt lat="40.09979157686577" lon="9.566974657495384"><ele>749.6666666666666</ele><time>2026-04-28T13:50:24.882Z</time></trkpt><trkpt lat="40.099708476494165" lon="9.566765389192046"><ele>746.3333333333333</ele><time>2026-04-28T13:50:25.882Z</time></trkpt><trkpt lat="40.0995918022255" lon="9.566577507022565"><ele>743.0</ele><time>2026-04-28T13:50:26.882Z</time></trkpt><trkpt lat="40.099441333723156" lon="9.566430123958748"><ele>743.0</ele><time>2026-04-28T13:50:27.882Z</time></trkpt><trkpt lat="40.09927533021474" lon="9.566354069879928"><ele>743.0</ele><time>2026-04-28T13:50:28.882Z</time></trkpt><trkpt lat="40.09911689507204" lon="9.566285360138991"><ele>743.0</ele><time>2026-04-28T13:50:29.882Z</time></trkpt><trkpt lat="40.09900927843631" lon="9.56614265495876"><ele>743.6666666666666</ele><time>2026-04-28T13:50:30.882Z</time></trkpt><trkpt lat="40.098947306687755" lon="9.565932613837516"><ele>744.3333333333334</ele><time>2026-04-28T13:50:31.882Z</time></trkpt><trkpt lat="40.09889632218989" lon="9.56569082981593"><ele>745.0</ele><time>2026-04-28T13:50:32.882Z</time></trkpt><trkpt lat="40.09883887391662" lon="9.565449122767795"><ele>741.6666666666667</ele><time>2026-04-28T13:50:33.882Z</time></trkpt><trkpt lat="40.098742777823546" lon="9.565232455188774"><ele>738.3333333333334</ele><time>2026-04-28T13:50:34.882Z</time></trkpt><trkpt lat="40.09860093313099" lon="9.565057513913217"><ele>735.0</ele><time>2026-04-28T13:50:35.882Z</time></trkpt><trkpt lat="40.09842155076749" lon="9.564920953771962"><ele>735.0</ele><time>2026-04-28T13:50:36.882Z</time></trkpt><trkpt lat="40.098254862331096" lon="9.564790375314804"><ele>735.0</ele><time>2026-04-28T13:50:37.882Z</time></trkpt><trkpt lat="40.0981159492036" lon="9.564668672659971"><ele>735.0</ele><time>2026-04-28T13:50:38.882Z</time></trkpt><trkpt lat="40.098005845806846" lon="9.564558004305164"><ele>735.5</ele><time>2026-04-28T13:50:39.882Z</time></trkpt><trkpt lat="40.0979377545409" lon="9.564434590176923"><ele>736.0</ele><time>2026-04-28T13:50:40.882Z</time></trkpt><trkpt lat="40.0979448137686" lon="9.564272369680856"><ele>736.5</ele><time>2026-04-28T13:50:41.882Z</time></trkpt><trkpt lat="40.09801441901968" lon="9.564068975935887"><ele>737.0</ele><time>2026-04-28T13:50:42.882Z</time></trkpt><trkpt lat="40.09812439267545" lon="9.563844448787913"><ele>732.0</ele><time>2026-04-28T13:50:43.882Z</time></trkpt><trkpt lat="40.09825482951858" lon="9.563552052852367"><ele>727.0</ele><time>2026-04-28T13:50:44.882Z</time></trkpt><trkpt lat="40.098400664104055" lon="9.56322435512023"><ele>727.0</ele><time>2026-04-28T13:50:45.882Z</time></trkpt><trkpt lat="40.09851674615469" lon="9.562904379323994"><ele>727.0</ele><time>2026-04-28T13:50:46.882Z</time></trkpt><trkpt lat="40.09860816489228" lon="9.562650896573066"><ele>726.6666666666667</ele><time>2026-04-28T13:50:47.882Z</time></trkpt><trkpt lat="40.09868698949716" lon="9.562433442099042"><ele>726.3333333333334</ele><time>2026-04-28T13:50:48.882Z</time></trkpt><trkpt lat="40.09871228251828" lon="9.562227376032697"><ele>726.0</ele><time>2026-04-28T13:50:49.882Z</time></trkpt><trkpt lat="40.09864386373218" lon="9.561967393265455"><ele>726.0</ele><time>2026-04-28T13:50:50.882Z</time></trkpt><trkpt lat="40.0985248736445" lon="9.561684037266042"><ele>726.0</ele><time>2026-04-28T13:50:51.882Z</time></trkpt><trkpt lat="40.09844406167182" lon="9.5614239469829"><ele>726.0</ele><time>2026-04-28T13:50:52.882Z</time></trkpt><trkpt lat="40.09838096058843" lon="9.561228978596828"><ele>726.0</ele><time>2026-04-28T13:50:53.882Z</time></trkpt><trkpt lat="40.09827098020251" lon="9.561102234417733"><ele>726.0</ele><time>2026-04-28T13:50:54.882Z</time></trkpt><trkpt lat="40.09810338714864" lon="9.561049405677558"><ele>721.5</ele><time>2026-04-28T13:50:55.882Z</time></trkpt><trkpt lat="40.097872265733784" lon="9.561037026154247"><ele>717.0</ele><time>2026-04-28T13:50:56.882Z</time></trkpt><trkpt lat="40.097646239004455" lon="9.561002834241224"><ele>717.0</ele><time>2026-04-28T13:50:57.882Z</time></trkpt><trkpt lat="40.097471289910416" lon="9.560946359425813"><ele>717.0</ele><time>2026-04-28T13:50:58.882Z</time></trkpt><trkpt lat="40.09734462039332" lon="9.560831986422734"><ele>717.0</ele><time>2026-04-28T13:50:59.882Z</time></trkpt><trkpt lat="40.097275569880075" lon="9.560626604280461"><ele>718.3333333333334</ele><time>2026-04-28T13:51:00.882Z</time></trkpt><trkpt lat="40.09728857602976" lon="9.560375473019976"><ele>719.6666666666667</ele><time>2026-04-28T13:51:01.882Z</time></trkpt><trkpt lat="40.097362211902855" lon="9.560096992902292"><ele>721.0</ele><time>2026-04-28T13:51:02.882Z</time></trkpt><trkpt lat="40.09739871815834" lon="9.5598227955012"><ele>721.0</ele><time>2026-04-28T13:51:03.882Z</time></trkpt><trkpt lat="40.097340456206766" lon="9.559546642839635"><ele>721.0</ele><time>2026-04-28T13:51:04.882Z</time></trkpt><trkpt lat="40.09718970976603" lon="9.55930227054652"><ele>719.0</ele><time>2026-04-28T13:51:05.882Z</time></trkpt><trkpt lat="40.097051491087555" lon="9.559055582541387"><ele>717.0</ele><time>2026-04-28T13:51:06.882Z</time></trkpt><trkpt lat="40.09696276461975" lon="9.558819829748538"><ele>715.0</ele><time>2026-04-28T13:51:07.882Z</time></trkpt><trkpt lat="40.09694363068338" lon="9.55860835539287"><ele>714.3333333333334</ele><time>2026-04-28T13:51:08.882Z</time></trkpt><trkpt lat="40.09701144808944" lon="9.558358333136542"><ele>713.6666666666666</ele><time>2026-04-28T13:51:09.882Z</time></trkpt><trkpt lat="40.09714824776879" lon="9.558095904858892"><ele>713.0</ele><time>2026-04-28T13:51:10.881Z</time></trkpt><trkpt lat="40.09727503007368" lon="9.557819836797197"><ele>715.0</ele><time>2026-04-28T13:51:11.881Z</time></trkpt><trkpt lat="40.09736424240316" lon="9.557535469045902"><ele>717.0</ele><time>2026-04-28T13:51:12.881Z</time></trkpt><trkpt lat="40.09741316088703" lon="9.557246862865558"><ele>717.5</ele><time>2026-04-28T13:51:13.881Z</time></trkpt><trkpt lat="40.09740012968534" lon="9.556946934406355"><ele>718.0</ele><time>2026-04-28T13:51:14.881Z</time></trkpt><trkpt lat="40.09735614275816" lon="9.556637066997322"><ele>718.0</ele><time>2026-04-28T13:51:15.881Z</time></trkpt><trkpt lat="40.097319639307024" lon="9.556320997637703"><ele>718.0</ele><time>2026-04-28T13:51:16.881Z</time></trkpt><trkpt lat="40.09729577585996" lon="9.556005130029277"><ele>715.5</ele><time>2026-04-28T13:51:17.883Z</time></trkpt><trkpt lat="40.097280317344236" lon="9.555684317536196"><ele>713.0</ele><time>2026-04-28T13:51:18.882Z</time></trkpt><trkpt lat="40.09725370466967" lon="9.555378194641532"><ele>710.5</ele><time>2026-04-28T13:51:19.882Z</time></trkpt><trkpt lat="40.09719372360536" lon="9.555099261755064"><ele>708.0</ele><time>2026-04-28T13:51:20.882Z</time></trkpt><trkpt lat="40.09707796134981" lon="9.5548390173546"><ele>708.0</ele><time>2026-04-28T13:51:21.883Z</time></trkpt><trkpt lat="40.09692995598923" lon="9.554598014203703"><ele>708.0</ele><time>2026-04-28T13:51:22.883Z</time></trkpt><trkpt lat="40.09676698805532" lon="9.554342181597354"><ele>707.5</ele><time>2026-04-28T13:51:23.883Z</time></trkpt><trkpt lat="40.096613287376314" lon="9.554100703635134"><ele>707.0</ele><time>2026-04-28T13:51:24.882Z</time></trkpt><trkpt lat="40.09647000772611" lon="9.553862151017805"><ele>704.0</ele><time>2026-04-28T13:51:25.882Z</time></trkpt><trkpt lat="40.09634172494707" lon="9.553642279708317"><ele>701.0</ele><time>2026-04-28T13:51:26.883Z</time></trkpt><trkpt lat="40.09621550921333" lon="9.553482725872847"><ele>698.0</ele><time>2026-04-28T13:51:27.883Z</time></trkpt><trkpt lat="40.09603180783163" lon="9.55339772284833"><ele>698.0</ele><time>2026-04-28T13:51:28.883Z</time></trkpt><trkpt lat="40.095819669044666" lon="9.55336080693555"><ele>698.0</ele><time>2026-04-28T13:51:29.882Z</time></trkpt><trkpt lat="40.09560182843463" lon="9.553329462969208"><ele>698.0</ele><time>2026-04-28T13:51:30.883Z</time></trkpt><trkpt lat="40.095434276258416" lon="9.553252599310179"><ele>698.6666666666666</ele><time>2026-04-28T13:51:31.883Z</time></trkpt><trkpt lat="40.09533437208842" lon="9.55309639923702"><ele>699.3333333333334</ele><time>2026-04-28T13:51:32.883Z</time></trkpt><trkpt lat="40.09530242612271" lon="9.552879147935288"><ele>700.0</ele><time>2026-04-28T13:51:33.883Z</time></trkpt><trkpt lat="40.095331168545165" lon="9.552605583690065"><ele>696.5</ele><time>2026-04-28T13:51:34.883Z</time></trkpt><trkpt lat="40.0953681691078" lon="9.552291317803986"><ele>693.0</ele><time>2026-04-28T13:51:35.883Z</time></trkpt><trkpt lat="40.09539773446157" lon="9.551995502655927"><ele>690.0</ele><time>2026-04-28T13:51:36.882Z</time></trkpt><trkpt lat="40.09541800228783" lon="9.551694167096388"><ele>687.0</ele><time>2026-04-28T13:51:37.882Z</time></trkpt><trkpt lat="40.095432801523444" lon="9.551408100897609"><ele>688.6666666666666</ele><time>2026-04-28T13:51:38.882Z</time></trkpt><trkpt lat="40.09545116856907" lon="9.55113812668395"><ele>690.3333333333333</ele><time>2026-04-28T13:51:39.882Z</time></trkpt><trkpt lat="40.09546992293751" lon="9.55091355437172"><ele>692.0</ele><time>2026-04-28T13:51:40.882Z</time></trkpt><trkpt lat="40.095545713274" lon="9.55075498801725"><ele>692.0</ele><time>2026-04-28T13:51:41.882Z</time></trkpt><trkpt lat="40.09569635474372" lon="9.550667088334254"><ele>692.0</ele><time>2026-04-28T13:51:42.882Z</time></trkpt><trkpt lat="40.09588721846202" lon="9.550642455630827"><ele>692.0</ele><time>2026-04-28T13:51:43.882Z</time></trkpt><trkpt lat="40.096100688353665" lon="9.55063816940199"><ele>692.0</ele><time>2026-04-28T13:51:44.882Z</time></trkpt><trkpt lat="40.096289965026266" lon="9.550616967802942"><ele>692.0</ele><time>2026-04-28T13:51:45.882Z</time></trkpt><trkpt lat="40.09644527076469" lon="9.550492295523714"><ele>692.0</ele><time>2026-04-28T13:51:46.882Z</time></trkpt><trkpt lat="40.09646593549348" lon="9.550332388293958"><ele>694.3333333333333</ele><time>2026-04-28T13:51:47.882Z</time></trkpt><trkpt lat="40.09652417708748" lon="9.55005481198832"><ele>696.6666666666666</ele><time>2026-04-28T13:51:48.882Z</time></trkpt><trkpt lat="40.09658289968536" lon="9.549787837263391"><ele>699.0</ele><time>2026-04-28T13:51:49.882Z</time></trkpt><trkpt lat="40.09667187602478" lon="9.549497641117814"><ele>699.0</ele><time>2026-04-28T13:51:50.882Z</time></trkpt><trkpt lat="40.096751411298875" lon="9.549229300412119"><ele>699.0</ele><time>2026-04-28T13:51:51.882Z</time></trkpt><trkpt lat="40.09683533877034" lon="9.548961912639799"><ele>699.0</ele><time>2026-04-28T13:51:52.882Z</time></trkpt><trkpt lat="40.096917851897956" lon="9.548682309897677"><ele>701.6666666666666</ele><time>2026-04-28T13:51:53.882Z</time></trkpt><trkpt lat="40.09699358892294" lon="9.548408554547148"><ele>704.3333333333333</ele><time>2026-04-28T13:51:54.882Z</time></trkpt><trkpt lat="40.097061518177064" lon="9.548131953274543"><ele>707.0</ele><time>2026-04-28T13:51:55.882Z</time></trkpt><trkpt lat="40.09709775981843" lon="9.5478502727004"><ele>708.3333333333333</ele><time>2026-04-28T13:51:56.882Z</time></trkpt><trkpt lat="40.097108819220956" lon="9.547561794689734"><ele>709.6666666666666</ele><time>2026-04-28T13:51:57.882Z</time></trkpt><trkpt lat="40.09712506269198" lon="9.547275702808633"><ele>711.0</ele><time>2026-04-28T13:51:58.882Z</time></trkpt><trkpt lat="40.09715479294859" lon="9.546991491911232"><ele>711.6666666666666</ele><time>2026-04-28T13:51:59.882Z</time></trkpt><trkpt lat="40.09718504742716" lon="9.546707060186831"><ele>712.3333333333333</ele><time>2026-04-28T13:52:00.882Z</time></trkpt><trkpt lat="40.09720773434881" lon="9.546423678701927"><ele>713.0</ele><time>2026-04-28T13:52:01.882Z</time></trkpt><trkpt lat="40.0972314310337" lon="9.54614015716704"><ele>714.3333333333333</ele><time>2026-04-28T13:52:02.882Z</time></trkpt><trkpt lat="40.09725968823167" lon="9.545856156256672"><ele>715.6666666666666</ele><time>2026-04-28T13:52:03.882Z</time></trkpt><trkpt lat="40.097298709627225" lon="9.545577052434261"><ele>717.0</ele><time>2026-04-28T13:52:04.882Z</time></trkpt><trkpt lat="40.0973192797976" lon="9.545313894292818"><ele>717.0</ele><time>2026-04-28T13:52:05.882Z</time></trkpt><trkpt lat="40.09727720312347" lon="9.545096760416824"><ele>717.0</ele><time>2026-04-28T13:52:06.882Z</time></trkpt><trkpt lat="40.09711272026153" lon="9.544939562391463"><ele>717.0</ele><time>2026-04-28T13:52:07.882Z</time></trkpt><trkpt lat="40.09698697866656" lon="9.544824818497377"><ele>717.0</ele><time>2026-04-28T13:52:08.882Z</time></trkpt><trkpt lat="40.096843468551036" lon="9.544702594168298"><ele>717.0</ele><time>2026-04-28T13:52:09.882Z</time></trkpt><trkpt lat="40.09678311987332" lon="9.544522466853586"><ele>717.0</ele><time>2026-04-28T13:52:10.882Z</time></trkpt><trkpt lat="40.096822978400056" lon="9.54428657118525"><ele>718.5</ele><time>2026-04-28T13:52:11.882Z</time></trkpt><trkpt lat="40.09697595497566" lon="9.54402480122904"><ele>720.0</ele><time>2026-04-28T13:52:12.882Z</time></trkpt><trkpt lat="40.0970073064085" lon="9.543702881215603"><ele>723.5</ele><time>2026-04-28T13:52:13.882Z</time></trkpt><trkpt lat="40.09700763574391" lon="9.543409248289136"><ele>727.0</ele><time>2026-04-28T13:52:14.882Z</time></trkpt><trkpt lat="40.09697298579527" lon="9.543106836582334"><ele>727.0</ele><time>2026-04-28T13:52:15.882Z</time></trkpt><trkpt lat="40.096958473909396" lon="9.542791350157547"><ele>727.0</ele><time>2026-04-28T13:52:16.882Z</time></trkpt><trkpt lat="40.096943913471705" lon="9.542479369523265"><ele>727.0</ele><time>2026-04-28T13:52:17.882Z</time></trkpt><trkpt lat="40.09693634734235" lon="9.542173196618515"><ele>727.0</ele><time>2026-04-28T13:52:18.882Z</time></trkpt><trkpt lat="40.09692758940163" lon="9.541875091233218"><ele>726.6666666666667</ele><time>2026-04-28T13:52:19.882Z</time></trkpt><trkpt lat="40.09692385224749" lon="9.541584603438514"><ele>726.3333333333334</ele><time>2026-04-28T13:52:20.882Z</time></trkpt><trkpt lat="40.09697961432846" lon="9.541306672118166"><ele>726.0</ele><time>2026-04-28T13:52:21.882Z</time></trkpt><trkpt lat="40.097099072214476" lon="9.541047796408948"><ele>725.0</ele><time>2026-04-28T13:52:22.882Z</time></trkpt><trkpt lat="40.09719122559211" lon="9.540772867276571"><ele>724.0</ele><time>2026-04-28T13:52:23.882Z</time></trkpt><trkpt lat="40.097240748569824" lon="9.540477259614818"><ele>723.6666666666667</ele><time>2026-04-28T13:52:24.882Z</time></trkpt><trkpt lat="40.097238244784265" lon="9.540171521667403"><ele>723.3333333333334</ele><time>2026-04-28T13:52:25.882Z</time></trkpt><trkpt lat="40.09723668807217" lon="9.539896449554096"><ele>723.0</ele><time>2026-04-28T13:52:26.882Z</time></trkpt><trkpt lat="40.09718139038951" lon="9.539671683559746"><ele>721.6666666666666</ele><time>2026-04-28T13:52:27.882Z</time></trkpt><trkpt lat="40.09701481593999" lon="9.539494756097294"><ele>720.3333333333333</ele><time>2026-04-28T13:52:28.882Z</time></trkpt><trkpt lat="40.096810008601544" lon="9.539407980084947"><ele>719.0</ele><time>2026-04-28T13:52:29.882Z</time></trkpt><trkpt lat="40.096577703716605" lon="9.53945438283286"><ele>719.3333333333333</ele><time>2026-04-28T13:52:30.882Z</time></trkpt><trkpt lat="40.0963618443335" lon="9.539553717649415"><ele>719.6666666666666</ele><time>2026-04-28T13:52:31.882Z</time></trkpt><trkpt lat="40.09615979068259" lon="9.53964749436656"><ele>720.0</ele><time>2026-04-28T13:52:32.882Z</time></trkpt><trkpt lat="40.09599171823117" lon="9.5396470584933"><ele>719.6666666666666</ele><time>2026-04-28T13:52:33.882Z</time></trkpt><trkpt lat="40.09583504064889" lon="9.539506279090034"><ele>719.3333333333333</ele><time>2026-04-28T13:52:34.882Z</time></trkpt><trkpt lat="40.095701968892236" lon="9.539258797143459"><ele>719.0</ele><time>2026-04-28T13:52:35.882Z</time></trkpt><trkpt lat="40.095545470657655" lon="9.539001669373365"><ele>720.0</ele><time>2026-04-28T13:52:36.882Z</time></trkpt><trkpt lat="40.095358438712815" lon="9.538774320286823"><ele>721.0</ele><time>2026-04-28T13:52:37.882Z</time></trkpt><trkpt lat="40.0951681835372" lon="9.538548368342305"><ele>721.5</ele><time>2026-04-28T13:52:38.882Z</time></trkpt><trkpt lat="40.09498285142864" lon="9.5383134615852"><ele>722.0</ele><time>2026-04-28T13:52:39.882Z</time></trkpt><trkpt lat="40.09482002230421" lon="9.538096557955061"><ele>721.6666666666666</ele><time>2026-04-28T13:52:40.882Z</time></trkpt><trkpt lat="40.094690541003985" lon="9.537869603984147"><ele>721.3333333333334</ele><time>2026-04-28T13:52:41.882Z</time></trkpt><trkpt lat="40.094604053802804" lon="9.537591958318044"><ele>721.0</ele><time>2026-04-28T13:52:42.882Z</time></trkpt><trkpt lat="40.09456992327825" lon="9.537279472337355"><ele>721.0</ele><time>2026-04-28T13:52:43.881Z</time></trkpt><trkpt lat="40.09458035809016" lon="9.536965246209004"><ele>721.0</ele><time>2026-04-28T13:52:44.881Z</time></trkpt><trkpt lat="40.09463855774438" lon="9.53666090490487"><ele>721.0</ele><time>2026-04-28T13:52:45.881Z</time></trkpt><trkpt lat="40.09472615788436" lon="9.536357782889992"><ele>721.0</ele><time>2026-04-28T13:52:46.881Z</time></trkpt><trkpt lat="40.094814406106316" lon="9.536061663981677"><ele>721.0</ele><time>2026-04-28T13:52:47.881Z</time></trkpt><trkpt lat="40.09489067646132" lon="9.535764974134961"><ele>721.0</ele><time>2026-04-28T13:52:48.881Z</time></trkpt><trkpt lat="40.094968985508416" lon="9.535459429375381"><ele>722.0</ele><time>2026-04-28T13:52:49.881Z</time></trkpt><trkpt lat="40.095040626930725" lon="9.535151531289776"><ele>723.0</ele><time>2026-04-28T13:52:50.881Z</time></trkpt><trkpt lat="40.09511541952711" lon="9.534849751924927"><ele>723.0</ele><time>2026-04-28T13:52:51.881Z</time></trkpt><trkpt lat="40.09520259142267" lon="9.534561556580513"><ele>723.0</ele><time>2026-04-28T13:52:52.881Z</time></trkpt><trkpt lat="40.095335805389986" lon="9.534332250971005"><ele>724.5</ele><time>2026-04-28T13:52:53.881Z</time></trkpt><trkpt lat="40.09553942870559" lon="9.534178294343336"><ele>726.0</ele><time>2026-04-28T13:52:54.881Z</time></trkpt><trkpt lat="40.09577521295189" lon="9.53405820484965"><ele>726.0</ele><time>2026-04-28T13:52:55.881Z</time></trkpt><trkpt lat="40.09598228378683" lon="9.533923047579874"><ele>726.0</ele><time>2026-04-28T13:52:56.881Z</time></trkpt><trkpt lat="40.096140966109424" lon="9.533778455040471"><ele>726.0</ele><time>2026-04-28T13:52:57.881Z</time></trkpt><trkpt lat="40.096258056834564" lon="9.533594296304576"><ele>726.3333333333334</ele><time>2026-04-28T13:52:58.881Z</time></trkpt><trkpt lat="40.09629365189147" lon="9.533344541276211"><ele>726.6666666666667</ele><time>2026-04-28T13:52:59.881Z</time></trkpt><trkpt lat="40.09626757631844" lon="9.53303884672269"><ele>727.0</ele><time>2026-04-28T13:53:00.881Z</time></trkpt><trkpt lat="40.09624680664884" lon="9.532728039948543"><ele>725.5</ele><time>2026-04-28T13:53:01.881Z</time></trkpt><trkpt lat="40.09624957899711" lon="9.532420605121937"><ele>724.0</ele><time>2026-04-28T13:53:02.881Z</time></trkpt><trkpt lat="40.09625912560663" lon="9.532116889496358"><ele>724.5</ele><time>2026-04-28T13:53:03.881Z</time></trkpt><trkpt lat="40.09626247921746" lon="9.531809040695801"><ele>725.0</ele><time>2026-04-28T13:53:04.881Z</time></trkpt><trkpt lat="40.09626332538409" lon="9.53149709575759"><ele>725.0</ele><time>2026-04-28T13:53:05.881Z</time></trkpt><trkpt lat="40.096266881868786" lon="9.531180516531707"><ele>725.0</ele><time>2026-04-28T13:53:06.881Z</time></trkpt><trkpt lat="40.096273237153994" lon="9.530889853596499"><ele>725.0</ele><time>2026-04-28T13:53:07.881Z</time></trkpt><trkpt lat="40.09629064011872" lon="9.530648573171263"><ele>725.0</ele><time>2026-04-28T13:53:08.881Z</time></trkpt><trkpt lat="40.09635523406254" lon="9.530434662108096"><ele>725.0</ele><time>2026-04-28T13:53:09.881Z</time></trkpt><trkpt lat="40.096497047189644" lon="9.530288204585144"><ele>727.3333333333333</ele><time>2026-04-28T13:53:10.881Z</time></trkpt><trkpt lat="40.09667293768673" lon="9.530200451559887"><ele>729.6666666666666</ele><time>2026-04-28T13:53:11.881Z</time></trkpt><trkpt lat="40.096862571333965" lon="9.530165953416914"><ele>732.0</ele><time>2026-04-28T13:53:12.881Z</time></trkpt><trkpt lat="40.097074547069255" lon="9.530184008724834"><ele>732.0</ele><time>2026-04-28T13:53:13.881Z</time></trkpt><trkpt lat="40.09730033753249" lon="9.530204253687833"><ele>732.0</ele><time>2026-04-28T13:53:14.881Z</time></trkpt><trkpt lat="40.09752262039422" lon="9.530206125798188"><ele>732.0</ele><time>2026-04-28T13:53:15.881Z</time></trkpt><trkpt lat="40.09773902982667" lon="9.530191324557196"><ele>734.3333333333334</ele><time>2026-04-28T13:53:16.881Z</time></trkpt><trkpt lat="40.09794443435695" lon="9.53015477626201"><ele>736.6666666666667</ele><time>2026-04-28T13:53:17.881Z</time></trkpt><trkpt lat="40.09809267690845" lon="9.530088655171705"><ele>739.0</ele><time>2026-04-28T13:53:18.881Z</time></trkpt><trkpt lat="40.09820834090081" lon="9.53003025472652"><ele>739.1666666666667</ele><time>2026-04-28T13:53:19.881Z</time></trkpt><trkpt lat="40.09830487888893" lon="9.529968003993545"><ele>739.3333333333334</ele><time>2026-04-28T13:53:20.881Z</time></trkpt><trkpt lat="40.098390998647076" lon="9.52991152243733"><ele>739.5</ele><time>2026-04-28T13:53:21.881Z</time></trkpt><trkpt lat="40.098472272196666" lon="9.529868537600137"><ele>739.6666666666666</ele><time>2026-04-28T13:53:22.881Z</time></trkpt><trkpt lat="40.09854522821927" lon="9.529833406578158"><ele>739.8333333333333</ele><time>2026-04-28T13:53:23.882Z</time></trkpt><trkpt lat="40.0986098386013" lon="9.529799833510925"><ele>740.0</ele><time>2026-04-28T13:53:24.882Z</time></trkpt><trkpt lat="40.09866720358608" lon="9.529765914405356"><ele>740.0</ele><time>2026-04-28T13:53:25.882Z</time></trkpt><trkpt lat="40.09874560726109" lon="9.52972911760888"><ele>740.0</ele><time>2026-04-28T13:53:27.881Z</time></trkpt><trkpt lat="40.09863246480474" lon="9.529721222394057"><ele>740.0</ele><time>2026-04-28T13:53:37.882Z</time></trkpt><trkpt lat="40.09851197955488" lon="9.52981590917035"><ele>740.0</ele><time>2026-04-28T13:53:38.882Z</time></trkpt><trkpt lat="40.098351106701365" lon="9.529915314741695"><ele>739.6666666666666</ele><time>2026-04-28T13:53:39.882Z</time></trkpt><trkpt lat="40.0981863607794" lon="9.530009610573325"><ele>739.3333333333334</ele><time>2026-04-28T13:53:40.882Z</time></trkpt><trkpt lat="40.09803570635234" lon="9.530062263320199"><ele>739.0</ele><time>2026-04-28T13:53:41.882Z</time></trkpt><trkpt lat="40.09790262824428" lon="9.53010082388033"><ele>739.0</ele><time>2026-04-28T13:53:42.882Z</time></trkpt><trkpt lat="40.097778812262526" lon="9.530143917245299"><ele>739.0</ele><time>2026-04-28T13:53:43.882Z</time></trkpt><trkpt lat="40.09765076553439" lon="9.530173228114904"><ele>739.0</ele><time>2026-04-28T13:53:44.882Z</time></trkpt><trkpt lat="40.09750467571655" lon="9.5301793127472"><ele>739.0</ele><time>2026-04-28T13:53:45.882Z</time></trkpt><trkpt lat="40.0973857520195" lon="9.530164552109117"><ele>739.0</ele><time>2026-04-28T13:53:46.882Z</time></trkpt><trkpt lat="40.09730198217882" lon="9.530113569383234"><ele>739.0</ele><time>2026-04-28T13:53:47.882Z</time></trkpt><trkpt lat="40.09724889561617" lon="9.530052745351268"><ele>739.0</ele><time>2026-04-28T13:53:48.882Z</time></trkpt><trkpt lat="40.097211947961654" lon="9.530165378440023"><ele>739.0</ele><time>2026-04-28T13:53:51.882Z</time></trkpt><trkpt lat="40.09733594090648" lon="9.530236754960642"><ele>739.0</ele><time>2026-04-28T13:53:53.882Z</time></trkpt><trkpt lat="40.09747021730212" lon="9.53022064012175"><ele>739.0</ele><time>2026-04-28T13:53:54.882Z</time></trkpt><trkpt lat="40.097657455513485" lon="9.530198957500236"><ele>739.0</ele><time>2026-04-28T13:53:55.882Z</time></trkpt><trkpt lat="40.097878801332136" lon="9.53015824102096"><ele>739.0</ele><time>2026-04-28T13:53:56.882Z</time></trkpt><trkpt lat="40.09812317567303" lon="9.530076221118705"><ele>739.5</ele><time>2026-04-28T13:53:57.882Z</time></trkpt><trkpt lat="40.098399640198" lon="9.529926482647669"><ele>740.0</ele><time>2026-04-28T13:53:58.882Z</time></trkpt><trkpt lat="40.098699939978275" lon="9.529732511142388"><ele>739.0</ele><time>2026-04-28T13:53:59.882Z</time></trkpt><trkpt lat="40.099002972102745" lon="9.52953244067367"><ele>738.0</ele><time>2026-04-28T13:54:00.882Z</time></trkpt><trkpt lat="40.09930139107569" lon="9.52935766786082"><ele>741.0</ele><time>2026-04-28T13:54:01.882Z</time></trkpt><trkpt lat="40.09956522054233" lon="9.529194470794163"><ele>744.0</ele><time>2026-04-28T13:54:02.882Z</time></trkpt><trkpt lat="40.0998232661375" lon="9.529058215159164"><ele>749.5</ele><time>2026-04-28T13:54:03.882Z</time></trkpt><trkpt lat="40.100126069545155" lon="9.528974104418035"><ele>755.0</ele><time>2026-04-28T13:54:04.882Z</time></trkpt><trkpt lat="40.1004741807635" lon="9.528916009989727"><ele>760.0</ele><time>2026-04-28T13:54:05.882Z</time></trkpt><trkpt lat="40.10083187078456" lon="9.528838551914795"><ele>765.0</ele><time>2026-04-28T13:54:06.882Z</time></trkpt><trkpt lat="40.10113412225129" lon="9.528732282295321"><ele>761.3333333333334</ele><time>2026-04-28T13:54:07.882Z</time></trkpt><trkpt lat="40.10136932084613" lon="9.528633309800302"><ele>757.6666666666667</ele><time>2026-04-28T13:54:08.882Z</time></trkpt><trkpt lat="40.10156413500003" lon="9.52858541030493"><ele>754.0</ele><time>2026-04-28T13:54:09.882Z</time></trkpt><trkpt lat="40.10171029521852" lon="9.528616728838598"><ele>759.0</ele><time>2026-04-28T13:54:10.882Z</time></trkpt><trkpt lat="40.10184286267458" lon="9.528751785224774"><ele>764.0</ele><time>2026-04-28T13:54:11.882Z</time></trkpt><trkpt lat="40.10192925159036" lon="9.528978364558421"><ele>769.0</ele><time>2026-04-28T13:54:12.882Z</time></trkpt><trkpt lat="40.10194107923762" lon="9.529257076781777"><ele>769.0</ele><time>2026-04-28T13:54:13.882Z</time></trkpt><trkpt lat="40.10190259526443" lon="9.529553846374306"><ele>769.0</ele><time>2026-04-28T13:54:14.882Z</time></trkpt><trkpt lat="40.10189936444543" lon="9.529816148803615"><ele>769.0</ele><time>2026-04-28T13:54:15.882Z</time></trkpt><trkpt lat="40.10200631652798" lon="9.529990801511627"><ele>772.0</ele><time>2026-04-28T13:54:16.882Z</time></trkpt><trkpt lat="40.102191969868485" lon="9.530080839324553"><ele>775.0</ele><time>2026-04-28T13:54:17.882Z</time></trkpt><trkpt lat="40.10244334387994" lon="9.530111798508125"><ele>776.0</ele><time>2026-04-28T13:54:18.882Z</time></trkpt><trkpt lat="40.10275962025982" lon="9.53013772533761"><ele>777.0</ele><time>2026-04-28T13:54:19.882Z</time></trkpt><trkpt lat="40.10311582827483" lon="9.530198636414173"><ele>779.5</ele><time>2026-04-28T13:54:20.882Z</time></trkpt><trkpt lat="40.103423028804585" lon="9.53029184852441"><ele>782.0</ele><time>2026-04-28T13:54:21.882Z</time></trkpt><trkpt lat="40.10362365592897" lon="9.530341222316364"><ele>782.0</ele><time>2026-04-28T13:54:22.882Z</time></trkpt><trkpt lat="40.10378163935402" lon="9.530316364254677"><ele>782.0</ele><time>2026-04-28T13:54:23.882Z</time></trkpt><trkpt lat="40.103894599908415" lon="9.53017647687479"><ele>782.0</ele><time>2026-04-28T13:54:24.882Z</time></trkpt><trkpt lat="40.10395596985286" lon="9.529963954804066"><ele>782.0</ele><time>2026-04-28T13:54:25.882Z</time></trkpt><trkpt lat="40.10395585095029" lon="9.529714581192067"><ele>782.0</ele><time>2026-04-28T13:54:26.882Z</time></trkpt><trkpt lat="40.10398508804443" lon="9.52948664928439"><ele>782.0</ele><time>2026-04-28T13:54:27.882Z</time></trkpt><trkpt lat="40.104076952425494" lon="9.529372693038868"><ele>785.0</ele><time>2026-04-28T13:54:28.882Z</time></trkpt><trkpt lat="40.10423009061437" lon="9.529392583170377"><ele>788.0</ele><time>2026-04-28T13:54:29.882Z</time></trkpt><trkpt lat="40.10434835615371" lon="9.529533076481801"><ele>791.0</ele><time>2026-04-28T13:54:30.882Z</time></trkpt><trkpt lat="40.1043922401309" lon="9.529719486756418"><ele>791.0</ele><time>2026-04-28T13:54:31.882Z</time></trkpt><trkpt lat="40.10434842014911" lon="9.529930965216451"><ele>791.0</ele><time>2026-04-28T13:54:32.882Z</time></trkpt><trkpt lat="40.10428362998697" lon="9.530170746151306"><ele>791.0</ele><time>2026-04-28T13:54:33.882Z</time></trkpt><trkpt lat="40.104267873247096" lon="9.53040213736386"><ele>789.0</ele><time>2026-04-28T13:54:34.882Z</time></trkpt><trkpt lat="40.1043559564211" lon="9.53060664688927"><ele>787.0</ele><time>2026-04-28T13:54:35.882Z</time></trkpt><trkpt lat="40.10449965579281" lon="9.530703358612499"><ele>785.0</ele><time>2026-04-28T13:54:36.881Z</time></trkpt><trkpt lat="40.10466177198191" lon="9.53066510046949"><ele>785.0</ele><time>2026-04-28T13:54:37.881Z</time></trkpt><trkpt lat="40.10480195614369" lon="9.530511693105565"><ele>785.0</ele><time>2026-04-28T13:54:38.881Z</time></trkpt><trkpt lat="40.10485538552973" lon="9.53028479424287"><ele>785.0</ele><time>2026-04-28T13:54:39.881Z</time></trkpt><trkpt lat="40.104818648595845" lon="9.530041309893148"><ele>787.0</ele><time>2026-04-28T13:54:40.881Z</time></trkpt><trkpt lat="40.10471193792371" lon="9.529778042843011"><ele>789.0</ele><time>2026-04-28T13:54:41.881Z</time></trkpt><trkpt lat="40.10463753141369" lon="9.529520157669852"><ele>791.0</ele><time>2026-04-28T13:54:42.881Z</time></trkpt><trkpt lat="40.10459517539065" lon="9.529274194323817"><ele>791.6666666666667</ele><time>2026-04-28T13:54:43.881Z</time></trkpt><trkpt lat="40.104562699591575" lon="9.529023095592212"><ele>792.3333333333333</ele><time>2026-04-28T13:54:44.881Z</time></trkpt><trkpt lat="40.10451186183713" lon="9.52877016260035"><ele>793.0</ele><time>2026-04-28T13:54:45.881Z</time></trkpt><trkpt lat="40.10447131451308" lon="9.528524700031662"><ele>793.6666666666666</ele><time>2026-04-28T13:54:46.881Z</time></trkpt><trkpt lat="40.10448326010952" lon="9.52827806169808"><ele>794.3333333333333</ele><time>2026-04-28T13:54:47.881Z</time></trkpt><trkpt lat="40.10454190938142" lon="9.528048388868422"><ele>795.0</ele><time>2026-04-28T13:54:48.881Z</time></trkpt><trkpt lat="40.10461838426824" lon="9.527811718227287"><ele>793.3333333333333</ele><time>2026-04-28T13:54:49.881Z</time></trkpt><trkpt lat="40.10471115501954" lon="9.527604504146648"><ele>791.6666666666666</ele><time>2026-04-28T13:54:50.881Z</time></trkpt><trkpt lat="40.10483814952814" lon="9.527431604606242"><ele>790.0</ele><time>2026-04-28T13:54:51.881Z</time></trkpt><trkpt lat="40.104992505495005" lon="9.527281799118578"><ele>793.0</ele><time>2026-04-28T13:54:52.881Z</time></trkpt><trkpt lat="40.105162921328315" lon="9.527144652381365"><ele>796.0</ele><time>2026-04-28T13:54:53.881Z</time></trkpt><trkpt lat="40.10535423226204" lon="9.527037480953693"><ele>799.0</ele><time>2026-04-28T13:54:54.881Z</time></trkpt><trkpt lat="40.105557699607665" lon="9.526967087927156"><ele>805.0</ele><time>2026-04-28T13:54:55.881Z</time></trkpt><trkpt lat="40.10577040639202" lon="9.52692710752816"><ele>811.0</ele><time>2026-04-28T13:54:56.881Z</time></trkpt><trkpt lat="40.105987543210105" lon="9.526890832419024"><ele>817.0</ele><time>2026-04-28T13:54:57.881Z</time></trkpt><trkpt lat="40.10619070365884" lon="9.526823041877329"><ele>817.0</ele><time>2026-04-28T13:54:58.881Z</time></trkpt><trkpt lat="40.10635801279228" lon="9.526665050124217"><ele>817.0</ele><time>2026-04-28T13:54:59.881Z</time></trkpt><trkpt lat="40.106472952504866" lon="9.526441321883569"><ele>817.0</ele><time>2026-04-28T13:55:00.881Z</time></trkpt><trkpt lat="40.10654635041596" lon="9.526169612907113"><ele>814.5</ele><time>2026-04-28T13:55:01.881Z</time></trkpt><trkpt lat="40.106547147524935" lon="9.525874281165375"><ele>812.0</ele><time>2026-04-28T13:55:02.881Z</time></trkpt><trkpt lat="40.106482629821606" lon="9.525584242089122"><ele>822.5</ele><time>2026-04-28T13:55:03.881Z</time></trkpt><trkpt lat="40.106377500426845" lon="9.525318399554381"><ele>833.0</ele><time>2026-04-28T13:55:04.881Z</time></trkpt><trkpt lat="40.106234440540455" lon="9.525084122028414"><ele>833.0</ele><time>2026-04-28T13:55:05.881Z</time></trkpt><trkpt lat="40.10607429088565" lon="9.524926607388922"><ele>833.0</ele><time>2026-04-28T13:55:06.881Z</time></trkpt><trkpt lat="40.105873662501665" lon="9.524865587099612"><ele>833.0</ele><time>2026-04-28T13:55:07.881Z</time></trkpt><trkpt lat="40.105647017709785" lon="9.524860256252897"><ele>832.3333333333334</ele><time>2026-04-28T13:55:08.881Z</time></trkpt><trkpt lat="40.10540557953488" lon="9.524884392382504"><ele>831.6666666666667</ele><time>2026-04-28T13:55:09.881Z</time></trkpt><trkpt lat="40.10520332547151" lon="9.52486726143982"><ele>831.0</ele><time>2026-04-28T13:55:10.881Z</time></trkpt><trkpt lat="40.10503912817513" lon="9.524857662412172"><ele>831.0</ele><time>2026-04-28T13:55:11.881Z</time></trkpt><trkpt lat="40.104941151176654" lon="9.524783398198313"><ele>831.0</ele><time>2026-04-28T13:55:12.881Z</time></trkpt><trkpt lat="40.1049070829778" lon="9.524594285323497"><ele>831.0</ele><time>2026-04-28T13:55:13.881Z</time></trkpt><trkpt lat="40.10493984740003" lon="9.524377166408678"><ele>831.0</ele><time>2026-04-28T13:55:14.881Z</time></trkpt><trkpt lat="40.10503915429946" lon="9.52414048610808"><ele>828.6666666666667</ele><time>2026-04-28T13:55:15.881Z</time></trkpt><trkpt lat="40.105137622546515" lon="9.523903641782"><ele>826.3333333333334</ele><time>2026-04-28T13:55:16.881Z</time></trkpt><trkpt lat="40.105279068611274" lon="9.523728071603967"><ele>824.0</ele><time>2026-04-28T13:55:17.881Z</time></trkpt><trkpt lat="40.105450496956294" lon="9.523598926808994"><ele>824.0</ele><time>2026-04-28T13:55:18.881Z</time></trkpt><trkpt lat="40.10559959293661" lon="9.523447886327862"><ele>824.0</ele><time>2026-04-28T13:55:19.881Z</time></trkpt><trkpt lat="40.10575658436041" lon="9.523320252396932"><ele>824.0</ele><time>2026-04-28T13:55:20.881Z</time></trkpt><trkpt lat="40.105905197413904" lon="9.523180055969892"><ele>825.5</ele><time>2026-04-28T13:55:21.881Z</time></trkpt><trkpt lat="40.10601420235325" lon="9.52305142473985"><ele>827.0</ele><time>2026-04-28T13:55:22.881Z</time></trkpt><trkpt lat="40.1060968437171" lon="9.522935873369132"><ele>828.5</ele><time>2026-04-28T13:55:23.881Z</time></trkpt><trkpt lat="40.10616763408804" lon="9.522846800444224"><ele>830.0</ele><time>2026-04-28T13:55:24.881Z</time></trkpt><trkpt lat="40.106239526146844" lon="9.522756717057355"><ele>830.0000000000001</ele><time>2026-04-28T13:55:25.881Z</time></trkpt><trkpt lat="40.10630195144937" lon="9.522654558410041"><ele>830.0</ele><time>2026-04-28T13:55:26.881Z</time></trkpt><trkpt lat="40.10635358949616" lon="9.522549502544036"><ele>830.0</ele><time>2026-04-28T13:55:27.881Z</time></trkpt><trkpt lat="40.10639203129056" lon="9.522448735260205"><ele>830.0</ele><time>2026-04-28T13:55:28.881Z</time></trkpt><trkpt lat="40.10642268403542" lon="9.522355979091856"><ele>830.0000000000001</ele><time>2026-04-28T13:55:29.881Z</time></trkpt><trkpt lat="40.10645194061287" lon="9.522276184818622"><ele>830.0</ele><time>2026-04-28T13:55:30.881Z</time></trkpt><trkpt lat="40.1064840391933" lon="9.522194208454392"><ele>830.0000000000001</ele><time>2026-04-28T13:55:31.881Z</time></trkpt><trkpt lat="40.106518079489724" lon="9.52211229779666"><ele>830.0</ele><time>2026-04-28T13:55:32.882Z</time></trkpt><trkpt lat="40.1065497632356" lon="9.522029050115039"><ele>830.0</ele><time>2026-04-28T13:55:33.881Z</time></trkpt><trkpt lat="40.10658882942178" lon="9.521942378846752"><ele>830.0</ele><time>2026-04-28T13:55:34.881Z</time></trkpt><trkpt lat="40.10664091160296" lon="9.521854426867536"><ele>830.0000000000001</ele><time>2026-04-28T13:55:35.882Z</time></trkpt><trkpt lat="40.10669947642057" lon="9.521771081552656"><ele>830.0</ele><time>2026-04-28T13:55:36.882Z</time></trkpt><trkpt lat="40.106756441835" lon="9.5216883655748"><ele>829.0000000000001</ele><time>2026-04-28T13:55:37.882Z</time></trkpt><trkpt lat="40.10682028804869" lon="9.521606237559855"><ele>828.0</ele><time>2026-04-28T13:55:38.881Z</time></trkpt><trkpt lat="40.106882240639486" lon="9.521527130612206"><ele>827.0</ele><time>2026-04-28T13:55:39.881Z</time></trkpt><trkpt lat="40.1069403992732" lon="9.521450627481645"><ele>826.0</ele><time>2026-04-28T13:55:40.881Z</time></trkpt><trkpt lat="40.106998377106144" lon="9.52137616513163"><ele>825.0000000000001</ele><time>2026-04-28T13:55:41.882Z</time></trkpt><trkpt lat="40.10705291539509" lon="9.521299367928329"><ele>824.0</ele><time>2026-04-28T13:55:42.881Z</time></trkpt><trkpt lat="40.10711055688404" lon="9.521226061033818"><ele>824.0000000000001</ele><time>2026-04-28T13:55:43.881Z</time></trkpt><trkpt lat="40.10717454450839" lon="9.521155273844169"><ele>824.0</ele><time>2026-04-28T13:55:44.881Z</time></trkpt><trkpt lat="40.10723771543377" lon="9.521076231391064"><ele>824.0</ele><time>2026-04-28T13:55:45.881Z</time></trkpt><trkpt lat="40.10730559426187" lon="9.520995816698791"><ele>824.0</ele><time>2026-04-28T13:55:46.881Z</time></trkpt><trkpt lat="40.10737446039624" lon="9.520918310603415"><ele>824.0000000000001</ele><time>2026-04-28T13:55:47.881Z</time></trkpt><trkpt lat="40.10745166789982" lon="9.520849418583325"><ele>824.0</ele><time>2026-04-28T13:55:48.881Z</time></trkpt><trkpt lat="40.10754515437815" lon="9.520784479188888"><ele>833.25</ele><time>2026-04-28T13:55:49.881Z</time></trkpt><trkpt lat="40.107662895393425" lon="9.520722516556493"><ele>842.5</ele><time>2026-04-28T13:55:50.881Z</time></trkpt><trkpt lat="40.10780471556175" lon="9.520674702662662"><ele>851.75</ele><time>2026-04-28T13:55:51.881Z</time></trkpt><trkpt lat="40.10796216296422" lon="9.520638224504866"><ele>861.0</ele><time>2026-04-28T13:55:52.881Z</time></trkpt><trkpt lat="40.10812452776904" lon="9.520571886785156"><ele>858.6666666666667</ele><time>2026-04-28T13:55:53.881Z</time></trkpt><trkpt lat="40.108284034212616" lon="9.520430570208058"><ele>856.3333333333334</ele><time>2026-04-28T13:55:54.881Z</time></trkpt><trkpt lat="40.108431330055915" lon="9.520250585433436"><ele>854.0</ele><time>2026-04-28T13:55:55.881Z</time></trkpt><trkpt lat="40.10857262234743" lon="9.520050004822298"><ele>854.0</ele><time>2026-04-28T13:55:56.881Z</time></trkpt><trkpt lat="40.108721950649866" lon="9.519872755604958"><ele>854.0</ele><time>2026-04-28T13:55:57.881Z</time></trkpt><trkpt lat="40.10886068174315" lon="9.519739367914823"><ele>854.0</ele><time>2026-04-28T13:55:58.881Z</time></trkpt><trkpt lat="40.10901226831837" lon="9.51956754299967"><ele>857.6666666666667</ele><time>2026-04-28T13:55:59.881Z</time></trkpt><trkpt lat="40.1091725321384" lon="9.519392284364207"><ele>861.3333333333333</ele><time>2026-04-28T13:56:00.881Z</time></trkpt><trkpt lat="40.10934460898061" lon="9.519226503551838"><ele>865.0</ele><time>2026-04-28T13:56:01.881Z</time></trkpt><trkpt lat="40.10953252588785" lon="9.519098223175348"><ele>865.0</ele><time>2026-04-28T13:56:02.881Z</time></trkpt><trkpt lat="40.10973381528107" lon="9.518998282113136"><ele>865.0</ele><time>2026-04-28T13:56:03.881Z</time></trkpt><trkpt lat="40.10993621790117" lon="9.518893089988739"><ele>865.0</ele><time>2026-04-28T13:56:04.881Z</time></trkpt><trkpt lat="40.110127961934445" lon="9.518756038855427"><ele>865.6666666666666</ele><time>2026-04-28T13:56:05.881Z</time></trkpt><trkpt lat="40.110294553012196" lon="9.518578157453106"><ele>866.3333333333333</ele><time>2026-04-28T13:56:06.881Z</time></trkpt><trkpt lat="40.11045742107406" lon="9.518411663228704"><ele>867.0</ele><time>2026-04-28T13:56:07.881Z</time></trkpt><trkpt lat="40.110603386292546" lon="9.518255251349396"><ele>867.0</ele><time>2026-04-28T13:56:08.881Z</time></trkpt><trkpt lat="40.11069001323481" lon="9.518047332319435"><ele>867.0</ele><time>2026-04-28T13:56:09.881Z</time></trkpt><trkpt lat="40.110737675551974" lon="9.51780025369788"><ele>867.0</ele><time>2026-04-28T13:56:10.881Z</time></trkpt><trkpt lat="40.11077744459701" lon="9.517530142263302"><ele>870.0</ele><time>2026-04-28T13:56:11.881Z</time></trkpt><trkpt lat="40.11084403146758" lon="9.51726924788201"><ele>873.0</ele><time>2026-04-28T13:56:12.881Z</time></trkpt><trkpt lat="40.11096292073618" lon="9.517049088920478"><ele>876.0</ele><time>2026-04-28T13:56:13.881Z</time></trkpt><trkpt lat="40.11111781942658" lon="9.516885295439122"><ele>876.0</ele><time>2026-04-28T13:56:14.881Z</time></trkpt><trkpt lat="40.111261711432604" lon="9.516721756551725"><ele>876.0</ele><time>2026-04-28T13:56:15.881Z</time></trkpt><trkpt lat="40.11133560020993" lon="9.516489417596944"><ele>876.0</ele><time>2026-04-28T13:56:16.881Z</time></trkpt><trkpt lat="40.111399098910034" lon="9.516229467445687"><ele>873.3333333333333</ele><time>2026-04-28T13:56:17.881Z</time></trkpt><trkpt lat="40.111479906373525" lon="9.515982770111554"><ele>870.6666666666666</ele><time>2026-04-28T13:56:18.881Z</time></trkpt><trkpt lat="40.11159776028018" lon="9.515757948514167"><ele>868.0</ele><time>2026-04-28T13:56:19.881Z</time></trkpt><trkpt lat="40.11172546967958" lon="9.515535756018604"><ele>878.0</ele><time>2026-04-28T13:56:20.881Z</time></trkpt><trkpt lat="40.1118606237029" lon="9.515311752335778"><ele>888.0</ele><time>2026-04-28T13:56:21.881Z</time></trkpt><trkpt lat="40.11200063752428" lon="9.515086552597184"><ele>898.0</ele><time>2026-04-28T13:56:22.881Z</time></trkpt><trkpt lat="40.1121480943172" lon="9.51487431402959"><ele>898.0</ele><time>2026-04-28T13:56:23.881Z</time></trkpt><trkpt lat="40.11230909816764" lon="9.514684075531553"><ele>898.0</ele><time>2026-04-28T13:56:24.881Z</time></trkpt><trkpt lat="40.11247994178616" lon="9.514523210831015"><ele>898.0</ele><time>2026-04-28T13:56:25.881Z</time></trkpt><trkpt lat="40.112654591091214" lon="9.51436126240686"><ele>906.0</ele><time>2026-04-28T13:56:26.881Z</time></trkpt><trkpt lat="40.11282938998106" lon="9.514181820981516"><ele>914.0</ele><time>2026-04-28T13:56:27.881Z</time></trkpt><trkpt lat="40.113009302670825" lon="9.513995155672221"><ele>914.0</ele><time>2026-04-28T13:56:28.881Z</time></trkpt><trkpt lat="40.113186002669586" lon="9.51381033525425"><ele>914.0</ele><time>2026-04-28T13:56:29.881Z</time></trkpt><trkpt lat="40.113362471166504" lon="9.51363246549552"><ele>914.0</ele><time>2026-04-28T13:56:30.881Z</time></trkpt><trkpt lat="40.11355118904809" lon="9.51346191204537"><ele>919.0</ele><time>2026-04-28T13:56:31.881Z</time></trkpt><trkpt lat="40.11376372047293" lon="9.513323919285112"><ele>924.0</ele><time>2026-04-28T13:56:32.881Z</time></trkpt><trkpt lat="40.11399569557014" lon="9.513182852027334"><ele>916.5</ele><time>2026-04-28T13:56:33.881Z</time></trkpt><trkpt lat="40.11424430478882" lon="9.51302904676627"><ele>909.0</ele><time>2026-04-28T13:56:34.881Z</time></trkpt><trkpt lat="40.11450189825842" lon="9.512876893393585"><ele>917.5</ele><time>2026-04-28T13:56:35.881Z</time></trkpt><trkpt lat="40.11476191641508" lon="9.512732788908766"><ele>926.0</ele><time>2026-04-28T13:56:36.881Z</time></trkpt><trkpt lat="40.11502536933742" lon="9.512595219193157"><ele>926.0</ele><time>2026-04-28T13:56:37.881Z</time></trkpt><trkpt lat="40.11528770047035" lon="9.512464405132828"><ele>926.0</ele><time>2026-04-28T13:56:38.881Z</time></trkpt><trkpt lat="40.11554607921355" lon="9.512368911248448"><ele>919.5</ele><time>2026-04-28T13:56:39.881Z</time></trkpt><trkpt lat="40.115793065889385" lon="9.512307939680214"><ele>913.0</ele><time>2026-04-28T13:56:40.881Z</time></trkpt><trkpt lat="40.11602362397436" lon="9.512225996209388"><ele>913.0</ele><time>2026-04-28T13:56:41.88Z</time></trkpt><trkpt lat="40.11624342190006" lon="9.512113346665922"><ele>913.0</ele><time>2026-04-28T13:56:42.88Z</time></trkpt><trkpt lat="40.11644634267521" lon="9.511978755261705"><ele>921.0</ele><time>2026-04-28T13:56:43.88Z</time></trkpt><trkpt lat="40.11666043009353" lon="9.511911228777626"><ele>929.0</ele><time>2026-04-28T13:56:44.88Z</time></trkpt><trkpt lat="40.11688309174158" lon="9.511895157710793"><ele>937.0</ele><time>2026-04-28T13:56:45.88Z</time></trkpt><trkpt lat="40.11710399211513" lon="9.51184458900434"><ele>937.0</ele><time>2026-04-28T13:56:46.88Z</time></trkpt><trkpt lat="40.117328752561846" lon="9.511712742609207"><ele>937.0</ele><time>2026-04-28T13:56:47.88Z</time></trkpt><trkpt lat="40.11755014644091" lon="9.511548785468618"><ele>927.5</ele><time>2026-04-28T13:56:48.88Z</time></trkpt><trkpt lat="40.11777312281536" lon="9.511376787349326"><ele>918.0</ele><time>2026-04-28T13:56:49.88Z</time></trkpt><trkpt lat="40.117996916355715" lon="9.511196062354529"><ele>922.0</ele><time>2026-04-28T13:56:50.88Z</time></trkpt><trkpt lat="40.11820850783092" lon="9.511000667707966"><ele>926.0</ele><time>2026-04-28T13:56:51.88Z</time></trkpt><trkpt lat="40.11839223825884" lon="9.510759093412263"><ele>926.0</ele><time>2026-04-28T13:56:52.88Z</time></trkpt><trkpt lat="40.11857435669931" lon="9.51051703321874"><ele>926.0</ele><time>2026-04-28T13:56:53.88Z</time></trkpt><trkpt lat="40.118778191549914" lon="9.510308269673258"><ele>925.5</ele><time>2026-04-28T13:56:54.88Z</time></trkpt><trkpt lat="40.11900030879736" lon="9.510127180462572"><ele>925.0</ele><time>2026-04-28T13:56:55.88Z</time></trkpt><trkpt lat="40.119209531739145" lon="9.50996465231141"><ele>925.0</ele><time>2026-04-28T13:56:56.88Z</time></trkpt><trkpt lat="40.11937493656058" lon="9.50980916812299"><ele>925.0</ele><time>2026-04-28T13:56:57.88Z</time></trkpt><trkpt lat="40.11951662345275" lon="9.509711214134327"><ele>925.0</ele><time>2026-04-28T13:56:58.88Z</time></trkpt><trkpt lat="40.11967788342955" lon="9.509707162981224"><ele>925.0</ele><time>2026-04-28T13:56:59.88Z</time></trkpt><trkpt lat="40.1198649041016" lon="9.50976656509788"><ele>925.0</ele><time>2026-04-28T13:57:00.88Z</time></trkpt><trkpt lat="40.120093951104295" lon="9.509725816600419"><ele>925.0</ele><time>2026-04-28T13:57:01.88Z</time></trkpt><trkpt lat="40.120367975792206" lon="9.509611152197108"><ele>946.5</ele><time>2026-04-28T13:57:02.88Z</time></trkpt><trkpt lat="40.12068535617736" lon="9.509564564815967"><ele>968.0</ele><time>2026-04-28T13:57:03.88Z</time></trkpt><trkpt lat="40.121033071205005" lon="9.509544887490017"><ele>968.0</ele><time>2026-04-28T13:57:04.88Z</time></trkpt><trkpt lat="40.12140851018084" lon="9.50952134899027"><ele>968.0</ele><time>2026-04-28T13:57:05.88Z</time></trkpt><trkpt lat="40.1217918366665" lon="9.509496978365982"><ele>968.5</ele><time>2026-04-28T13:57:06.88Z</time></trkpt><trkpt lat="40.12213617312714" lon="9.509509264710378"><ele>969.0</ele><time>2026-04-28T13:57:07.88Z</time></trkpt><trkpt lat="40.122455675289885" lon="9.509523699978113"><ele>966.5</ele><time>2026-04-28T13:57:08.88Z</time></trkpt><trkpt lat="40.12278604325972" lon="9.50946908968471"><ele>964.0</ele><time>2026-04-28T13:57:09.88Z</time></trkpt><trkpt lat="40.12315045332588" lon="9.509386840750519"><ele>959.0</ele><time>2026-04-28T13:57:10.88Z</time></trkpt><trkpt lat="40.123505685859655" lon="9.50933649771235"><ele>954.0</ele><time>2026-04-28T13:57:11.88Z</time></trkpt><trkpt lat="40.1238304107768" lon="9.509283246363804"><ele>949.0</ele><time>2026-04-28T13:57:12.88Z</time></trkpt><trkpt lat="40.12410470686541" lon="9.509209776164319"><ele>944.0</ele><time>2026-04-28T13:57:13.88Z</time></trkpt><trkpt lat="40.12436393492735" lon="9.509124657514056"><ele>944.0</ele><time>2026-04-28T13:57:14.88Z</time></trkpt><trkpt lat="40.12461882094105" lon="9.509011403374943"><ele>944.0</ele><time>2026-04-28T13:57:15.88Z</time></trkpt><trkpt lat="40.124876483208546" lon="9.508862229038298"><ele>933.5</ele><time>2026-04-28T13:57:16.88Z</time></trkpt><trkpt lat="40.12511923353173" lon="9.508748782474706"><ele>923.0</ele><time>2026-04-28T13:57:17.88Z</time></trkpt><trkpt lat="40.1253270722699" lon="9.508689208772836"><ele>938.0</ele><time>2026-04-28T13:57:18.88Z</time></trkpt><trkpt lat="40.12551523724077" lon="9.508705455167837"><ele>953.0</ele><time>2026-04-28T13:57:19.88Z</time></trkpt><trkpt lat="40.125718002093876" lon="9.508684367884483"><ele>968.0</ele><time>2026-04-28T13:57:20.88Z</time></trkpt><trkpt lat="40.125932126429845" lon="9.508601030407235"><ele>968.0</ele><time>2026-04-28T13:57:21.88Z</time></trkpt><trkpt lat="40.126202558381294" lon="9.50847860925061"><ele>968.0</ele><time>2026-04-28T13:57:22.88Z</time></trkpt><trkpt lat="40.126509963919105" lon="9.508361919828168"><ele>961.0</ele><time>2026-04-28T13:57:23.88Z</time></trkpt><trkpt lat="40.12681319797347" lon="9.508264939799002"><ele>954.0</ele><time>2026-04-28T13:57:24.88Z</time></trkpt><trkpt lat="40.12711659157366" lon="9.508116430440824"><ele>945.0</ele><time>2026-04-28T13:57:25.88Z</time></trkpt><trkpt lat="40.12744008178829" lon="9.507969690876294"><ele>936.0</ele><time>2026-04-28T13:57:26.88Z</time></trkpt><trkpt lat="40.12776798969614" lon="9.50787664726239"><ele>954.0</ele><time>2026-04-28T13:57:27.88Z</time></trkpt><trkpt lat="40.12806210715615" lon="9.507795595651231"><ele>972.0</ele><time>2026-04-28T13:57:28.88Z</time></trkpt><trkpt lat="40.128304107959394" lon="9.50773099583842"><ele>972.0</ele><time>2026-04-28T13:57:29.88Z</time></trkpt><trkpt lat="40.128538711569185" lon="9.507708167808202"><ele>972.0</ele><time>2026-04-28T13:57:30.88Z</time></trkpt><trkpt lat="40.12874396427282" lon="9.507681742930233"><ele>972.0</ele><time>2026-04-28T13:57:31.88Z</time></trkpt><trkpt lat="40.1289452053645" lon="9.507573629234653"><ele>964.0</ele><time>2026-04-28T13:57:32.88Z</time></trkpt><trkpt lat="40.12915788928173" lon="9.50744393348479"><ele>956.0</ele><time>2026-04-28T13:57:33.88Z</time></trkpt><trkpt lat="40.129459422844974" lon="9.507384873142925"><ele>956.0</ele><time>2026-04-28T13:57:34.88Z</time></trkpt><trkpt lat="40.129756061684034" lon="9.507290945803033"><ele>956.0</ele><time>2026-04-28T13:57:35.882Z</time></trkpt><trkpt lat="40.130058308684504" lon="9.507189868245206"><ele>949.0</ele><time>2026-04-28T13:57:36.881Z</time></trkpt><trkpt lat="40.130345615642" lon="9.50710368916505"><ele>942.0</ele><time>2026-04-28T13:57:37.881Z</time></trkpt><trkpt lat="40.13063596509019" lon="9.507059922851742"><ele>935.0</ele><time>2026-04-28T13:57:38.881Z</time></trkpt><trkpt lat="40.13093285007775" lon="9.507068420405588"><ele>928.0</ele><time>2026-04-28T13:57:39.881Z</time></trkpt><trkpt lat="40.13120850439322" lon="9.507129193297335"><ele>928.0</ele><time>2026-04-28T13:57:40.881Z</time></trkpt><trkpt lat="40.13150695685345" lon="9.507124243449379"><ele>928.0</ele><time>2026-04-28T13:57:41.881Z</time></trkpt><trkpt lat="40.13180582102093" lon="9.507102308270936"><ele>951.0</ele><time>2026-04-28T13:57:42.881Z</time></trkpt><trkpt lat="40.132115668992405" lon="9.50704289858344"><ele>974.0</ele><time>2026-04-28T13:57:43.881Z</time></trkpt><trkpt lat="40.132428565094045" lon="9.506948783606388"><ele>974.0</ele><time>2026-04-28T13:57:44.881Z</time></trkpt><trkpt lat="40.13277250076979" lon="9.506880546164087"><ele>974.0</ele><time>2026-04-28T13:57:45.881Z</time></trkpt><trkpt lat="40.13311799051113" lon="9.506855465164675"><ele>964.0</ele><time>2026-04-28T13:57:46.881Z</time></trkpt><trkpt lat="40.13345112939408" lon="9.506843839474815"><ele>954.0</ele><time>2026-04-28T13:57:47.881Z</time></trkpt><trkpt lat="40.133747491227886" lon="9.506791911282013"><ele>954.0</ele><time>2026-04-28T13:57:48.881Z</time></trkpt><trkpt lat="40.13404075119202" lon="9.506809548575076"><ele>954.0</ele><time>2026-04-28T13:57:49.881Z</time></trkpt><trkpt lat="40.13433323982562" lon="9.506867421622436"><ele>957.0</ele><time>2026-04-28T13:57:50.881Z</time></trkpt><trkpt lat="40.13459432668868" lon="9.506954868466561"><ele>960.0</ele><time>2026-04-28T13:57:51.881Z</time></trkpt><trkpt lat="40.13484136083473" lon="9.507006138405416"><ele>959.5</ele><time>2026-04-28T13:57:52.881Z</time></trkpt><trkpt lat="40.1350955458524" lon="9.506984997760597"><ele>959.0</ele><time>2026-04-28T13:57:53.881Z</time></trkpt><trkpt lat="40.135387950620824" lon="9.506952414757116"><ele>951.5</ele><time>2026-04-28T13:57:54.881Z</time></trkpt><trkpt lat="40.135723956019426" lon="9.506900185866872"><ele>944.0</ele><time>2026-04-28T13:57:55.881Z</time></trkpt><trkpt lat="40.13606342935362" lon="9.506712744629855"><ele>944.0</ele><time>2026-04-28T13:57:56.881Z</time></trkpt><trkpt lat="40.13642191193109" lon="9.506630397633678"><ele>944.0</ele><time>2026-04-28T13:57:57.881Z</time></trkpt><trkpt lat="40.13680099992785" lon="9.50651098687252"><ele>939.5</ele><time>2026-04-28T13:57:58.881Z</time></trkpt><trkpt lat="40.137196183840715" lon="9.506390072538364"><ele>935.0</ele><time>2026-04-28T13:57:59.881Z</time></trkpt><trkpt lat="40.13754158857299" lon="9.506296068095422"><ele>954.0</ele><time>2026-04-28T13:58:00.881Z</time></trkpt><trkpt lat="40.13785502961499" lon="9.506220161284677"><ele>973.0</ele><time>2026-04-28T13:58:01.881Z</time></trkpt><trkpt lat="40.138170601159395" lon="9.50614805323344"><ele>961.5</ele><time>2026-04-28T13:58:02.881Z</time></trkpt><trkpt lat="40.13845188265889" lon="9.505987333740777"><ele>950.0</ele><time>2026-04-28T13:58:03.881Z</time></trkpt><trkpt lat="40.138710047045" lon="9.505745008100712"><ele>950.0</ele><time>2026-04-28T13:58:04.881Z</time></trkpt><trkpt lat="40.13900868972158" lon="9.505669467220695"><ele>950.0</ele><time>2026-04-28T13:58:05.881Z</time></trkpt><trkpt lat="40.139357499439654" lon="9.505674596094757"><ele>951.0</ele><time>2026-04-28T13:58:06.881Z</time></trkpt><trkpt lat="40.13974694782415" lon="9.505736163537533"><ele>952.0</ele><time>2026-04-28T13:58:07.881Z</time></trkpt><trkpt lat="40.14017095931343" lon="9.505762448298237"><ele>952.0</ele><time>2026-04-28T13:58:08.881Z</time></trkpt><trkpt lat="40.14057719658853" lon="9.505776975978184"><ele>952.0</ele><time>2026-04-28T13:58:09.881Z</time></trkpt><trkpt lat="40.140943643372005" lon="9.50584804622738"><ele>955.0</ele><time>2026-04-28T13:58:10.881Z</time></trkpt><trkpt lat="40.14126043828169" lon="9.505911284159879"><ele>958.0</ele><time>2026-04-28T13:58:11.881Z</time></trkpt><trkpt lat="40.14158451268166" lon="9.50591488512136"><ele>960.5</ele><time>2026-04-28T13:58:12.881Z</time></trkpt><trkpt lat="40.141941726538825" lon="9.505901787236585"><ele>963.0</ele><time>2026-04-28T13:58:13.881Z</time></trkpt><trkpt lat="40.142326851293916" lon="9.505801681349299"><ele>957.5</ele><time>2026-04-28T13:58:14.88Z</time></trkpt><trkpt lat="40.142707652885534" lon="9.505657006726452"><ele>952.0</ele><time>2026-04-28T13:58:15.88Z</time></trkpt><trkpt lat="40.14305180558265" lon="9.505637544433874"><ele>959.0</ele><time>2026-04-28T13:58:16.88Z</time></trkpt><trkpt lat="40.143397100940916" lon="9.505672235723118"><ele>966.0</ele><time>2026-04-28T13:58:17.88Z</time></trkpt><trkpt lat="40.14375018523518" lon="9.505657092356318"><ele>967.5</ele><time>2026-04-28T13:58:18.88Z</time></trkpt><trkpt lat="40.14409370721255" lon="9.505621323584188"><ele>969.0</ele><time>2026-04-28T13:58:19.88Z</time></trkpt><trkpt lat="40.14440191502389" lon="9.50558507080831"><ele>969.0</ele><time>2026-04-28T13:58:20.88Z</time></trkpt><trkpt lat="40.14463038072969" lon="9.50566597670591"><ele>969.0</ele><time>2026-04-28T13:58:21.88Z</time></trkpt><trkpt lat="40.14488609947059" lon="9.505872155597546"><ele>979.0</ele><time>2026-04-28T13:58:22.88Z</time></trkpt><trkpt lat="40.14514277206352" lon="9.50609939921523"><ele>989.0</ele><time>2026-04-28T13:58:23.88Z</time></trkpt><trkpt lat="40.14538194600237" lon="9.506212977511952"><ele>989.0</ele><time>2026-04-28T13:58:24.88Z</time></trkpt><trkpt lat="40.14564885058011" lon="9.506242029879532"><ele>989.0</ele><time>2026-04-28T13:58:25.88Z</time></trkpt><trkpt lat="40.14595573705245" lon="9.506204348655615"><ele>995.0</ele><time>2026-04-28T13:58:26.88Z</time></trkpt><trkpt lat="40.14625783959446" lon="9.506161835425582"><ele>1001.0</ele><time>2026-04-28T13:58:27.88Z</time></trkpt><trkpt lat="40.14654711096935" lon="9.506143632186593"><ele>1006.5</ele><time>2026-04-28T13:58:28.88Z</time></trkpt><trkpt lat="40.146835792016184" lon="9.506167433191951"><ele>1012.0</ele><time>2026-04-28T13:58:29.88Z</time></trkpt><trkpt lat="40.14714723861434" lon="9.506230599339425"><ele>997.0</ele><time>2026-04-28T13:58:30.88Z</time></trkpt><trkpt lat="40.14747546898194" lon="9.506347193017838"><ele>982.0</ele><time>2026-04-28T13:58:31.88Z</time></trkpt><trkpt lat="40.14782510794322" lon="9.50645671871973"><ele>989.5</ele><time>2026-04-28T13:58:32.88Z</time></trkpt><trkpt lat="40.148216266720254" lon="9.506615841263622"><ele>997.0</ele><time>2026-04-28T13:58:33.88Z</time></trkpt><trkpt lat="40.14863717610446" lon="9.506713822977694"><ele>1005.0</ele><time>2026-04-28T13:58:34.88Z</time></trkpt><trkpt lat="40.14904606467857" lon="9.506785700437785"><ele>1013.0</ele><time>2026-04-28T13:58:35.88Z</time></trkpt><trkpt lat="40.14940184205195" lon="9.506835660144528"><ele>1013.0</ele><time>2026-04-28T13:58:36.88Z</time></trkpt><trkpt lat="40.14972409503917" lon="9.506889849608381"><ele>1013.0</ele><time>2026-04-28T13:58:37.88Z</time></trkpt><trkpt lat="40.15004872292998" lon="9.507005758258114"><ele>1003.5</ele><time>2026-04-28T13:58:38.88Z</time></trkpt><trkpt lat="40.150372207411344" lon="9.507177052435251"><ele>994.0</ele><time>2026-04-28T13:58:39.88Z</time></trkpt><trkpt lat="40.15065817172838" lon="9.50734965914678"><ele>1000.0</ele><time>2026-04-28T13:58:40.88Z</time></trkpt><trkpt lat="40.1509432078089" lon="9.50746702203754"><ele>1006.0</ele><time>2026-04-28T13:58:41.88Z</time></trkpt><trkpt lat="40.15126419221599" lon="9.507501926934532"><ele>1008.5</ele><time>2026-04-28T13:58:42.88Z</time></trkpt><trkpt lat="40.15163245942903" lon="9.507478074083183"><ele>1011.0</ele><time>2026-04-28T13:58:43.88Z</time></trkpt><trkpt lat="40.15202536310779" lon="9.507433765652676"><ele>1011.0</ele><time>2026-04-28T13:58:44.88Z</time></trkpt><trkpt lat="40.15235825731503" lon="9.507431026261441"><ele>1011.0</ele><time>2026-04-28T13:58:45.88Z</time></trkpt><trkpt lat="40.15265921142156" lon="9.507514688416883"><ele>1014.5</ele><time>2026-04-28T13:58:46.88Z</time></trkpt><trkpt lat="40.15293750830283" lon="9.50763897349495"><ele>1018.0</ele><time>2026-04-28T13:58:47.88Z</time></trkpt><trkpt lat="40.15318852898731" lon="9.5077558741483"><ele>1021.5</ele><time>2026-04-28T13:58:48.88Z</time></trkpt><trkpt lat="40.15345515108642" lon="9.507811415928927"><ele>1025.0</ele><time>2026-04-28T13:58:49.88Z</time></trkpt><trkpt lat="40.153748586219805" lon="9.507793109573084"><ele>1025.5</ele><time>2026-04-28T13:58:50.88Z</time></trkpt><trkpt lat="40.154055727492846" lon="9.507691807160544"><ele>1026.0</ele><time>2026-04-28T13:58:51.88Z</time></trkpt><trkpt lat="40.15438272544151" lon="9.507538206589693"><ele>1026.0</ele><time>2026-04-28T13:58:52.88Z</time></trkpt><trkpt lat="40.15472318909008" lon="9.507383225880073"><ele>1026.0</ele><time>2026-04-28T13:58:53.88Z</time></trkpt><trkpt lat="40.15505980650547" lon="9.507262048410206"><ele>1020.0</ele><time>2026-04-28T13:58:54.88Z</time></trkpt><trkpt lat="40.155385537869435" lon="9.507184205312027"><ele>1014.0</ele><time>2026-04-28T13:58:55.88Z</time></trkpt><trkpt lat="40.15570653356175" lon="9.507176568540373"><ele>1011.0</ele><time>2026-04-28T13:58:56.88Z</time></trkpt><trkpt lat="40.15600046312242" lon="9.507175373592561"><ele>1008.0</ele><time>2026-04-28T13:58:57.88Z</time></trkpt><trkpt lat="40.156271149516705" lon="9.507110727692421"><ele>1019.0</ele><time>2026-04-28T13:58:58.88Z</time></trkpt><trkpt lat="40.156513650702465" lon="9.50700084766825"><ele>1030.0</ele><time>2026-04-28T13:58:59.88Z</time></trkpt><trkpt lat="40.156733083819326" lon="9.506929605288105"><ele>1030.0</ele><time>2026-04-28T13:59:00.88Z</time></trkpt><trkpt lat="40.15696066950603" lon="9.506932590808738"><ele>1030.0</ele><time>2026-04-28T13:59:01.88Z</time></trkpt><trkpt lat="40.157177760105874" lon="9.506991473257663"><ele>1030.0</ele><time>2026-04-28T13:59:02.88Z</time></trkpt><trkpt lat="40.157379301923285" lon="9.507076793533935"><ele>1021.6666666666666</ele><time>2026-04-28T13:59:03.88Z</time></trkpt><trkpt lat="40.157556577147645" lon="9.50714626617542"><ele>1013.3333333333333</ele><time>2026-04-28T13:59:04.88Z</time></trkpt><trkpt lat="40.15771104199688" lon="9.507203579082905"><ele>1005.0</ele><time>2026-04-28T13:59:05.88Z</time></trkpt><trkpt lat="40.157855933937874" lon="9.507263221894707"><ele>1005.0</ele><time>2026-04-28T13:59:06.88Z</time></trkpt><trkpt lat="40.157992392499004" lon="9.507329667232387"><ele>1005.0</ele><time>2026-04-28T13:59:07.88Z</time></trkpt><trkpt lat="40.15810662870276" lon="9.507420716144184"><ele>1005.0</ele><time>2026-04-28T13:59:08.88Z</time></trkpt><trkpt lat="40.158210392540745" lon="9.507508699515661"><ele>1005.0</ele><time>2026-04-28T13:59:09.88Z</time></trkpt><trkpt lat="40.15829616458761" lon="9.507593078788421"><ele>1005.1666666666666</ele><time>2026-04-28T13:59:10.88Z</time></trkpt><trkpt lat="40.15836704842913" lon="9.507658861070338"><ele>1005.3333333333333</ele><time>2026-04-28T13:59:11.88Z</time></trkpt><trkpt lat="40.158432275681974" lon="9.507713593916765"><ele>1005.5</ele><time>2026-04-28T13:59:12.88Z</time></trkpt><trkpt lat="40.15851392624532" lon="9.50779824529766"><ele>1005.6666666666666</ele><time>2026-04-28T13:59:14.88Z</time></trkpt><trkpt lat="40.15852160797903" lon="9.50789279865475"><ele>1005.8333333333333</ele><time>2026-04-28T13:59:16.88Z</time></trkpt><trkpt lat="40.15848462955819" lon="9.507961817572612"><ele>1006.0</ele><time>2026-04-28T13:59:18.88Z</time></trkpt><trkpt lat="40.15847839932053" lon="9.508047942020454"><ele>1006.0</ele><time>2026-04-28T13:59:20.88Z</time></trkpt></trkseg><trkseg><trkpt lat="40.15848456896863" lon="9.507997091180535"><ele>1005.9999999999999</ele><time>2026-04-28T14:29:59.995Z</time></trkpt><trkpt lat="40.15853956405107" lon="9.507923981887615"><ele>1006.0</ele><time>2026-04-28T14:30:42.995Z</time></trkpt><trkpt lat="40.15863233644882" lon="9.507968823508767"><ele>1006.0</ele><time>2026-04-28T14:30:45.995Z</time></trkpt><trkpt lat="40.15868837692956" lon="9.508016171271484"><ele>1006.0</ele><time>2026-04-28T14:30:47.995Z</time></trkpt><trkpt lat="40.15876834070789" lon="9.508088481468393"><ele>1005.9999999999999</ele><time>2026-04-28T14:30:49.995Z</time></trkpt><trkpt lat="40.158853726832476" lon="9.50815363224988"><ele>1006.0</ele><time>2026-04-28T14:30:51.995Z</time></trkpt><trkpt lat="40.15891484187028" lon="9.508230799387782"><ele>1006.0</ele><time>2026-04-28T14:30:53.995Z</time></trkpt><trkpt lat="40.15898604742584" lon="9.508301734253207"><ele>1005.9999999999999</ele><time>2026-04-28T14:30:55.995Z</time></trkpt><trkpt lat="40.159067425569816" lon="9.508395666193602"><ele>1005.9999999999999</ele><time>2026-04-28T14:30:57.995Z</time></trkpt><trkpt lat="40.15916009192554" lon="9.508476746851107"><ele>1006.0</ele><time>2026-04-28T14:30:59.995Z</time></trkpt><trkpt lat="40.15925982660608" lon="9.508542030329094"><ele>1006.0</ele><time>2026-04-28T14:31:01.995Z</time></trkpt><trkpt lat="40.15937176824106" lon="9.508582651451585"><ele>1005.6666666666666</ele><time>2026-04-28T14:31:03.995Z</time></trkpt><trkpt lat="40.1594343472277" lon="9.508602421346017"><ele>1005.3333333333333</ele><time>2026-04-28T14:31:04.995Z</time></trkpt><trkpt lat="40.1595624127745" lon="9.508632146550145"><ele>1005.0</ele><time>2026-04-28T14:31:06.995Z</time></trkpt><trkpt lat="40.15962907605782" lon="9.508650529080569"><ele>1004.6666666666667</ele><time>2026-04-28T14:31:07.995Z</time></trkpt><trkpt lat="40.15969782071352" lon="9.508675017768768"><ele>1004.3333333333334</ele><time>2026-04-28T14:31:08.995Z</time></trkpt><trkpt lat="40.159767640964425" lon="9.508692509974066"><ele>1004.0</ele><time>2026-04-28T14:31:09.995Z</time></trkpt><trkpt lat="40.15983393817576" lon="9.508708935474809"><ele>1004.8333333333334</ele><time>2026-04-28T14:31:10.995Z</time></trkpt><trkpt lat="40.15990603703506" lon="9.508732520794107"><ele>1005.6666666666667</ele><time>2026-04-28T14:31:11.995Z</time></trkpt><trkpt lat="40.159978140869164" lon="9.508761703472679"><ele>1006.5</ele><time>2026-04-28T14:31:12.995Z</time></trkpt><trkpt lat="40.16004632942751" lon="9.508792789199173"><ele>1007.3333333333333</ele><time>2026-04-28T14:31:13.995Z</time></trkpt><trkpt lat="40.16011667663511" lon="9.508834504954944"><ele>1008.1666666666666</ele><time>2026-04-28T14:31:14.995Z</time></trkpt><trkpt lat="40.16018700177727" lon="9.5088929928148"><ele>1009.0</ele><time>2026-04-28T14:31:15.995Z</time></trkpt><trkpt lat="40.16024818699638" lon="9.508959709169165"><ele>1008.9999999999999</ele><time>2026-04-28T14:31:16.995Z</time></trkpt><trkpt lat="40.160308163736396" lon="9.50902745947622"><ele>1009.0</ele><time>2026-04-28T14:31:17.995Z</time></trkpt><trkpt lat="40.16036780881718" lon="9.509110014878717"><ele>1009.0</ele><time>2026-04-28T14:31:18.995Z</time></trkpt><trkpt lat="40.16044060071893" lon="9.509170780141455"><ele>1009.0</ele><time>2026-04-28T14:31:19.995Z</time></trkpt><trkpt lat="40.160511995896684" lon="9.509234238305796"><ele>1008.9999999999999</ele><time>2026-04-28T14:31:20.995Z</time></trkpt><trkpt lat="40.1605918623536" lon="9.509294403477258"><ele>1009.0</ele><time>2026-04-28T14:31:21.995Z</time></trkpt><trkpt lat="40.16067622705826" lon="9.50934552832212"><ele>1005.0</ele><time>2026-04-28T14:31:22.995Z</time></trkpt><trkpt lat="40.16076487066425" lon="9.509383070440926"><ele>1001.0000000000001</ele><time>2026-04-28T14:31:23.995Z</time></trkpt><trkpt lat="40.16085289899431" lon="9.509416518786663"><ele>997.0000000000001</ele><time>2026-04-28T14:31:24.995Z</time></trkpt><trkpt lat="40.16094629478679" lon="9.509435901212793"><ele>993.0</ele><time>2026-04-28T14:31:25.995Z</time></trkpt><trkpt lat="40.16104231258703" lon="9.50945522222945"><ele>989.0</ele><time>2026-04-28T14:31:26.995Z</time></trkpt><trkpt lat="40.16113679835531" lon="9.509460301159574"><ele>989.0</ele><time>2026-04-28T14:31:27.995Z</time></trkpt><trkpt lat="40.161235514133104" lon="9.509473329047859"><ele>989.0000000000001</ele><time>2026-04-28T14:31:28.995Z</time></trkpt><trkpt lat="40.16133155780224" lon="9.509505340761258"><ele>989.0000000000001</ele><time>2026-04-28T14:31:29.995Z</time></trkpt><trkpt lat="40.1614158816639" lon="9.509572371523287"><ele>989.0</ele><time>2026-04-28T14:31:30.995Z</time></trkpt><trkpt lat="40.161492683837615" lon="9.509664044636986"><ele>989.0</ele><time>2026-04-28T14:31:31.995Z</time></trkpt><trkpt lat="40.16155818071043" lon="9.509760227852983"><ele>988.6</ele><time>2026-04-28T14:31:32.994Z</time></trkpt><trkpt lat="40.16161641853044" lon="9.50987724977158"><ele>988.2</ele><time>2026-04-28T14:31:33.994Z</time></trkpt><trkpt lat="40.161662130421135" lon="9.50999484814396"><ele>987.8000000000001</ele><time>2026-04-28T14:31:34.994Z</time></trkpt><trkpt lat="40.16170751385161" lon="9.510115714879184"><ele>987.4000000000001</ele><time>2026-04-28T14:31:35.994Z</time></trkpt><trkpt lat="40.16174352174704" lon="9.51024130334599"><ele>987.0</ele><time>2026-04-28T14:31:36.994Z</time></trkpt><trkpt lat="40.16177152899339" lon="9.510369803139964"><ele>987.4000000000001</ele><time>2026-04-28T14:31:37.994Z</time></trkpt><trkpt lat="40.16179567331217" lon="9.510498245791068"><ele>987.8000000000001</ele><time>2026-04-28T14:31:38.994Z</time></trkpt><trkpt lat="40.1618199591471" lon="9.510623181757069"><ele>988.2</ele><time>2026-04-28T14:31:39.994Z</time></trkpt><trkpt lat="40.161848364672586" lon="9.510748188167181"><ele>988.6</ele><time>2026-04-28T14:31:40.994Z</time></trkpt><trkpt lat="40.16187984426256" lon="9.510873184935722"><ele>989.0</ele><time>2026-04-28T14:31:41.994Z</time></trkpt><trkpt lat="40.16190689616134" lon="9.510998758559753"><ele>989.0</ele><time>2026-04-28T14:31:42.994Z</time></trkpt><trkpt lat="40.16193331469381" lon="9.511129875708741"><ele>989.0000000000001</ele><time>2026-04-28T14:31:43.994Z</time></trkpt><trkpt lat="40.16196117002203" lon="9.511254488800088"><ele>989.0000000000001</ele><time>2026-04-28T14:31:44.994Z</time></trkpt><trkpt lat="40.161990655672625" lon="9.511382590849667"><ele>989.0</ele><time>2026-04-28T14:31:45.994Z</time></trkpt><trkpt lat="40.16202043669295" lon="9.511509783766737"><ele>989.0</ele><time>2026-04-28T14:31:46.994Z</time></trkpt><trkpt lat="40.16205053805524" lon="9.511636890552285"><ele>987.0</ele><time>2026-04-28T14:31:47.994Z</time></trkpt><trkpt lat="40.16207986026457" lon="9.511767624563987"><ele>985.0000000000001</ele><time>2026-04-28T14:31:48.994Z</time></trkpt><trkpt lat="40.162108459775475" lon="9.511891034788938"><ele>983.0000000000001</ele><time>2026-04-28T14:31:49.994Z</time></trkpt><trkpt lat="40.16213227103784" lon="9.512023018003063"><ele>981.0</ele><time>2026-04-28T14:31:50.994Z</time></trkpt><trkpt lat="40.162139547129556" lon="9.512156300804472"><ele>979.0</ele><time>2026-04-28T14:31:51.994Z</time></trkpt><trkpt lat="40.16212607036174" lon="9.512279627313898"><ele>978.2</ele><time>2026-04-28T14:31:52.994Z</time></trkpt><trkpt lat="40.162094145727316" lon="9.512400971085775"><ele>977.4000000000001</ele><time>2026-04-28T14:31:53.994Z</time></trkpt><trkpt lat="40.1620438534848" lon="9.512506186781412"><ele>976.6</ele><time>2026-04-28T14:31:54.994Z</time></trkpt><trkpt lat="40.16198628049892" lon="9.51260102602259"><ele>975.8</ele><time>2026-04-28T14:31:55.994Z</time></trkpt><trkpt lat="40.161920356871576" lon="9.512693745758554"><ele>975.0</ele><time>2026-04-28T14:31:56.994Z</time></trkpt><trkpt lat="40.16185617204703" lon="9.512784673035622"><ele>975.0</ele><time>2026-04-28T14:31:57.994Z</time></trkpt><trkpt lat="40.16179438811404" lon="9.512874354212705"><ele>975.0</ele><time>2026-04-28T14:31:58.994Z</time></trkpt><trkpt lat="40.1617355109615" lon="9.5129665238768"><ele>975.0</ele><time>2026-04-28T14:31:59.994Z</time></trkpt><trkpt lat="40.16167782548747" lon="9.513056929993223"><ele>975.0</ele><time>2026-04-28T14:32:00.994Z</time></trkpt><trkpt lat="40.161620428450384" lon="9.513147958723852"><ele>975.0</ele><time>2026-04-28T14:32:01.994Z</time></trkpt><trkpt lat="40.16156146794692" lon="9.513238083680005"><ele>972.6</ele><time>2026-04-28T14:32:02.994Z</time></trkpt><trkpt lat="40.16150105989279" lon="9.513328532416516"><ele>970.2</ele><time>2026-04-28T14:32:03.994Z</time></trkpt><trkpt lat="40.16143630248852" lon="9.513420411150317"><ele>967.8</ele><time>2026-04-28T14:32:04.994Z</time></trkpt><trkpt lat="40.16136925259379" lon="9.513509778175548"><ele>965.4</ele><time>2026-04-28T14:32:05.994Z</time></trkpt><trkpt lat="40.16130184600392" lon="9.513605914446694"><ele>963.0</ele><time>2026-04-28T14:32:06.994Z</time></trkpt><trkpt lat="40.161231627311295" lon="9.513699674726556"><ele>965.8</ele><time>2026-04-28T14:32:07.994Z</time></trkpt><trkpt lat="40.161165546651716" lon="9.513800544039864"><ele>968.5999999999999</ele><time>2026-04-28T14:32:08.994Z</time></trkpt><trkpt lat="40.161099735868596" lon="9.513898810933744"><ele>971.4000000000001</ele><time>2026-04-28T14:32:09.994Z</time></trkpt><trkpt lat="40.161032084705745" lon="9.514001238909039"><ele>974.2</ele><time>2026-04-28T14:32:10.994Z</time></trkpt><trkpt lat="40.160950973199895" lon="9.514094720599427"><ele>977.0</ele><time>2026-04-28T14:32:11.994Z</time></trkpt><trkpt lat="40.1608646952432" lon="9.514180332087442"><ele>977.0</ele><time>2026-04-28T14:32:12.994Z</time></trkpt><trkpt lat="40.16077002831439" lon="9.514250073994646"><ele>977.0</ele><time>2026-04-28T14:32:13.994Z</time></trkpt><trkpt lat="40.16066982028495" lon="9.514307531675891"><ele>977.0</ele><time>2026-04-28T14:32:14.994Z</time></trkpt><trkpt lat="40.16057668836801" lon="9.514363786775695"><ele>977.0</ele><time>2026-04-28T14:32:15.994Z</time></trkpt><trkpt lat="40.160479763414074" lon="9.514427185659857"><ele>977.0</ele><time>2026-04-28T14:32:16.994Z</time></trkpt><trkpt lat="40.16038779195006" lon="9.514497010532299"><ele>977.0</ele><time>2026-04-28T14:32:17.994Z</time></trkpt><trkpt lat="40.160295360008504" lon="9.51457580335893"><ele>977.0</ele><time>2026-04-28T14:32:18.994Z</time></trkpt><trkpt lat="40.160211673132416" lon="9.514670504164354"><ele>977.0</ele><time>2026-04-28T14:32:19.994Z</time></trkpt><trkpt lat="40.160127550066406" lon="9.514765405385846"><ele>977.0</ele><time>2026-04-28T14:32:20.994Z</time></trkpt><trkpt lat="40.16004587653173" lon="9.514860780656601"><ele>977.0</ele><time>2026-04-28T14:32:21.994Z</time></trkpt><trkpt lat="40.15995674471586" lon="9.514959268110253"><ele>977.0</ele><time>2026-04-28T14:32:22.994Z</time></trkpt><trkpt lat="40.159878584414066" lon="9.515065848185827"><ele>977.0</ele><time>2026-04-28T14:32:23.994Z</time></trkpt><trkpt lat="40.15979253700715" lon="9.5151665004082"><ele>977.0</ele><time>2026-04-28T14:32:24.994Z</time></trkpt><trkpt lat="40.15970408514268" lon="9.51526662582502"><ele>977.0</ele><time>2026-04-28T14:32:25.994Z</time></trkpt><trkpt lat="40.15961363203031" lon="9.515369104886739"><ele>977.5</ele><time>2026-04-28T14:32:26.994Z</time></trkpt><trkpt lat="40.159515255030726" lon="9.515460571930586"><ele>978.0</ele><time>2026-04-28T14:32:27.994Z</time></trkpt><trkpt lat="40.15940705191794" lon="9.515532497868861"><ele>978.5</ele><time>2026-04-28T14:32:28.994Z</time></trkpt><trkpt lat="40.159287132484366" lon="9.515586286175584"><ele>979.0</ele><time>2026-04-28T14:32:29.994Z</time></trkpt><trkpt lat="40.1591612380151" lon="9.515637743038658"><ele>979.0</ele><time>2026-04-28T14:32:30.994Z</time></trkpt><trkpt lat="40.159035017793876" lon="9.515702126939894"><ele>979.0</ele><time>2026-04-28T14:32:31.994Z</time></trkpt><trkpt lat="40.15889463606246" lon="9.515784665219801"><ele>979.0</ele><time>2026-04-28T14:32:32.994Z</time></trkpt><trkpt lat="40.15874768328697" lon="9.515881194153412"><ele>975.3333333333333</ele><time>2026-04-28T14:32:33.994Z</time></trkpt><trkpt lat="40.15860898293903" lon="9.515994565734745"><ele>971.6666666666667</ele><time>2026-04-28T14:32:34.994Z</time></trkpt><trkpt lat="40.158491307307344" lon="9.516152366061908"><ele>968.0</ele><time>2026-04-28T14:32:35.994Z</time></trkpt><trkpt lat="40.158406476542595" lon="9.516359701644353"><ele>968.0</ele><time>2026-04-28T14:32:36.994Z</time></trkpt><trkpt lat="40.15833399979086" lon="9.51659977198938"><ele>968.0</ele><time>2026-04-28T14:32:37.994Z</time></trkpt><trkpt lat="40.158280263051736" lon="9.516841665076084"><ele>968.0</ele><time>2026-04-28T14:32:38.994Z</time></trkpt><trkpt lat="40.15827141078828" lon="9.517085035788728"><ele>967.6666666666667</ele><time>2026-04-28T14:32:39.994Z</time></trkpt><trkpt lat="40.158312542265925" lon="9.517342113640044"><ele>967.3333333333333</ele><time>2026-04-28T14:32:40.994Z</time></trkpt><trkpt lat="40.15837852856266" lon="9.517623035849109"><ele>967.0</ele><time>2026-04-28T14:32:41.994Z</time></trkpt><trkpt lat="40.15844278273396" lon="9.517915634334363"><ele>963.0</ele><time>2026-04-28T14:32:42.994Z</time></trkpt><trkpt lat="40.15851221970999" lon="9.518198322960192"><ele>959.0</ele><time>2026-04-28T14:32:43.994Z</time></trkpt><trkpt lat="40.158586901580996" lon="9.51844887412729"><ele>955.0</ele><time>2026-04-28T14:32:44.994Z</time></trkpt><trkpt lat="40.15865921499989" lon="9.518668098950753"><ele>958.3333333333333</ele><time>2026-04-28T14:32:45.994Z</time></trkpt><trkpt lat="40.158774338708525" lon="9.518860704458705"><ele>961.6666666666667</ele><time>2026-04-28T14:32:46.994Z</time></trkpt><trkpt lat="40.158949093557865" lon="9.519013193636352"><ele>965.0</ele><time>2026-04-28T14:32:47.994Z</time></trkpt><trkpt lat="40.159163404495544" lon="9.519159174396956"><ele>965.0</ele><time>2026-04-28T14:32:48.994Z</time></trkpt><trkpt lat="40.15935387209584" lon="9.519326466263058"><ele>965.0</ele><time>2026-04-28T14:32:49.994Z</time></trkpt><trkpt lat="40.159545265081526" lon="9.519465515681087"><ele>965.0</ele><time>2026-04-28T14:32:50.994Z</time></trkpt><trkpt lat="40.15976690127185" lon="9.519535200983768"><ele>972.5</ele><time>2026-04-28T14:32:51.994Z</time></trkpt><trkpt lat="40.16003711518966" lon="9.519528717846406"><ele>980.0</ele><time>2026-04-28T14:32:52.994Z</time></trkpt><trkpt lat="40.16033728967326" lon="9.519491152040404"><ele>980.0</ele><time>2026-04-28T14:32:53.994Z</time></trkpt><trkpt lat="40.16064060289426" lon="9.519462060658515"><ele>980.0</ele><time>2026-04-28T14:32:54.994Z</time></trkpt><trkpt lat="40.16095421180197" lon="9.519440213925662"><ele>979.0</ele><time>2026-04-28T14:32:55.994Z</time></trkpt><trkpt lat="40.161269546604665" lon="9.519425266670002"><ele>978.0</ele><time>2026-04-28T14:32:56.994Z</time></trkpt><trkpt lat="40.161558945235946" lon="9.519415400292674"><ele>975.0</ele><time>2026-04-28T14:32:57.994Z</time></trkpt><trkpt lat="40.16181448119213" lon="9.519404049255694"><ele>972.0</ele><time>2026-04-28T14:32:58.994Z</time></trkpt><trkpt lat="40.162036496556475" lon="9.519393609331752"><ele>972.0</ele><time>2026-04-28T14:32:59.994Z</time></trkpt><trkpt lat="40.16222344236135" lon="9.519392452250704"><ele>972.0</ele><time>2026-04-28T14:33:00.994Z</time></trkpt><trkpt lat="40.162394368872796" lon="9.519436691188037"><ele>972.0</ele><time>2026-04-28T14:33:01.994Z</time></trkpt><trkpt lat="40.162523247237424" lon="9.519572684779625"><ele>967.6666666666667</ele><time>2026-04-28T14:33:02.994Z</time></trkpt><trkpt lat="40.16260597050644" lon="9.519776923151527"><ele>963.3333333333334</ele><time>2026-04-28T14:33:03.994Z</time></trkpt><trkpt lat="40.1626168668737" lon="9.520004424241444"><ele>959.0</ele><time>2026-04-28T14:33:04.994Z</time></trkpt><trkpt lat="40.16254297139683" lon="9.520238211032618"><ele>960.0</ele><time>2026-04-28T14:33:05.994Z</time></trkpt><trkpt lat="40.162437140950814" lon="9.520482794473118"><ele>961.0</ele><time>2026-04-28T14:33:06.994Z</time></trkpt><trkpt lat="40.16232399851744" lon="9.5207420430474"><ele>962.0</ele><time>2026-04-28T14:33:07.994Z</time></trkpt><trkpt lat="40.16220759282986" lon="9.520992572432894"><ele>950.6666666666667</ele><time>2026-04-28T14:33:08.994Z</time></trkpt><trkpt lat="40.16209153765674" lon="9.52123228485557"><ele>939.3333333333333</ele><time>2026-04-28T14:33:09.994Z</time></trkpt><trkpt lat="40.162012308616255" lon="9.521473383198442"><ele>928.0</ele><time>2026-04-28T14:33:10.994Z</time></trkpt><trkpt lat="40.16200351576846" lon="9.521732921804597"><ele>928.0</ele><time>2026-04-28T14:33:11.994Z</time></trkpt><trkpt lat="40.162067622879114" lon="9.521986546965195"><ele>928.0</ele><time>2026-04-28T14:33:12.994Z</time></trkpt><trkpt lat="40.162144363440966" lon="9.52223375926364"><ele>928.0</ele><time>2026-04-28T14:33:13.994Z</time></trkpt><trkpt lat="40.16213276118635" lon="9.522462320910472"><ele>928.3333333333333</ele><time>2026-04-28T14:33:14.994Z</time></trkpt><trkpt lat="40.16203310134071" lon="9.522674903241356"><ele>928.6666666666667</ele><time>2026-04-28T14:33:15.994Z</time></trkpt><trkpt lat="40.1619059793904" lon="9.522908166690886"><ele>929.0</ele><time>2026-04-28T14:33:16.994Z</time></trkpt><trkpt lat="40.16181715511806" lon="9.52314181190682"><ele>928.0</ele><time>2026-04-28T14:33:17.994Z</time></trkpt><trkpt lat="40.161826055231685" lon="9.523361360168044"><ele>927.0</ele><time>2026-04-28T14:33:18.994Z</time></trkpt><trkpt lat="40.161884022385195" lon="9.523576543989325"><ele>926.0</ele><time>2026-04-28T14:33:19.994Z</time></trkpt><trkpt lat="40.161978234494576" lon="9.523754822516368"><ele>926.0</ele><time>2026-04-28T14:33:20.994Z</time></trkpt><trkpt lat="40.162041789146414" lon="9.523929854836148"><ele>926.0</ele><time>2026-04-28T14:33:21.994Z</time></trkpt><trkpt lat="40.16206635011731" lon="9.524122164377728"><ele>926.0</ele><time>2026-04-28T14:33:22.994Z</time></trkpt><trkpt lat="40.16208234505127" lon="9.524257876332118"><ele>926.0</ele><time>2026-04-28T14:33:23.994Z</time></trkpt><trkpt lat="40.16212883428248" lon="9.524378410526609"><ele>926.0000000000001</ele><time>2026-04-28T14:33:24.994Z</time></trkpt><trkpt lat="40.162190725337645" lon="9.524473031504183"><ele>926.0</ele><time>2026-04-28T14:33:25.994Z</time></trkpt><trkpt lat="40.16225173480766" lon="9.524546004744407"><ele>926.0</ele><time>2026-04-28T14:33:26.994Z</time></trkpt><trkpt lat="40.162306259475656" lon="9.524608879794012"><ele>926.0</ele><time>2026-04-28T14:33:27.994Z</time></trkpt><trkpt lat="40.16237168208538" lon="9.524683090316948"><ele>926.0000000000001</ele><time>2026-04-28T14:33:28.994Z</time></trkpt><trkpt lat="40.16245589693455" lon="9.524768247191004"><ele>926.0</ele><time>2026-04-28T14:33:29.994Z</time></trkpt><trkpt lat="40.162549429918556" lon="9.524851283010959"><ele>929.75</ele><time>2026-04-28T14:33:30.994Z</time></trkpt><trkpt lat="40.16265436271131" lon="9.524927064521947"><ele>933.5</ele><time>2026-04-28T14:33:31.993Z</time></trkpt><trkpt lat="40.16277076244581" lon="9.524986607711725"><ele>937.25</ele><time>2026-04-28T14:33:32.993Z</time></trkpt><trkpt lat="40.162901116903534" lon="9.525038116986885"><ele>941.0</ele><time>2026-04-28T14:33:33.993Z</time></trkpt><trkpt lat="40.16301403754655" lon="9.525136343806064"><ele>941.0</ele><time>2026-04-28T14:33:34.993Z</time></trkpt><trkpt lat="40.16307230747623" lon="9.525304668494014"><ele>941.0</ele><time>2026-04-28T14:33:35.993Z</time></trkpt><trkpt lat="40.163055793704174" lon="9.525483552561443"><ele>941.0</ele><time>2026-04-28T14:33:36.993Z</time></trkpt><trkpt lat="40.16298415939828" lon="9.52567218889655"><ele>941.0</ele><time>2026-04-28T14:33:37.993Z</time></trkpt><trkpt lat="40.162881051707934" lon="9.525888900388546"><ele>941.6666666666667</ele><time>2026-04-28T14:33:38.993Z</time></trkpt><trkpt lat="40.16277465978397" lon="9.526123964608018"><ele>942.3333333333333</ele><time>2026-04-28T14:33:39.993Z</time></trkpt><trkpt lat="40.16268663225618" lon="9.526339875511336"><ele>943.0</ele><time>2026-04-28T14:33:40.993Z</time></trkpt><trkpt lat="40.162620106483736" lon="9.526540847128521"><ele>943.0</ele><time>2026-04-28T14:33:41.993Z</time></trkpt><trkpt lat="40.16260799286991" lon="9.526744495398368"><ele>943.0</ele><time>2026-04-28T14:33:42.993Z</time></trkpt><trkpt lat="40.16266568063059" lon="9.526952374607292"><ele>943.0</ele><time>2026-04-28T14:33:43.993Z</time></trkpt><trkpt lat="40.162774658788024" lon="9.527144608182017"><ele>945.6666666666666</ele><time>2026-04-28T14:33:44.993Z</time></trkpt><trkpt lat="40.16293845111776" lon="9.527304387633727"><ele>948.3333333333333</ele><time>2026-04-28T14:33:45.993Z</time></trkpt><trkpt lat="40.16311702788323" lon="9.527470075026448"><ele>951.0</ele><time>2026-04-28T14:33:46.993Z</time></trkpt><trkpt lat="40.16328688464077" lon="9.527635595728915"><ele>951.0</ele><time>2026-04-28T14:33:47.993Z</time></trkpt><trkpt lat="40.163411898606256" lon="9.527830130127104"><ele>951.0</ele><time>2026-04-28T14:33:48.993Z</time></trkpt><trkpt lat="40.16347537052256" lon="9.528057171025553"><ele>951.0</ele><time>2026-04-28T14:33:49.993Z</time></trkpt><trkpt lat="40.16350718333606" lon="9.52832576091912"><ele>947.3333333333333</ele><time>2026-04-28T14:33:50.993Z</time></trkpt><trkpt lat="40.16357276343828" lon="9.528557130059085"><ele>943.6666666666666</ele><time>2026-04-28T14:33:51.993Z</time></trkpt><trkpt lat="40.163697644878226" lon="9.528714204739137"><ele>940.0</ele><time>2026-04-28T14:33:52.993Z</time></trkpt><trkpt lat="40.16386924653686" lon="9.528820058449659"><ele>937.6666666666666</ele><time>2026-04-28T14:33:53.993Z</time></trkpt><trkpt lat="40.164070442869075" lon="9.528897385025896"><ele>935.3333333333333</ele><time>2026-04-28T14:33:54.993Z</time></trkpt><trkpt lat="40.16428900453365" lon="9.52893094087552"><ele>933.0</ele><time>2026-04-28T14:33:55.993Z</time></trkpt><trkpt lat="40.164526026454965" lon="9.528935495354105"><ele>933.0</ele><time>2026-04-28T14:33:56.993Z</time></trkpt><trkpt lat="40.164766950024514" lon="9.528935032708675"><ele>933.0</ele><time>2026-04-28T14:33:57.993Z</time></trkpt><trkpt lat="40.16500927160477" lon="9.528932305972281"><ele>931.6666666666667</ele><time>2026-04-28T14:33:58.993Z</time></trkpt><trkpt lat="40.16524091960472" lon="9.52892662301758"><ele>930.3333333333334</ele><time>2026-04-28T14:33:59.993Z</time></trkpt><trkpt lat="40.16545440305677" lon="9.528879605551126"><ele>929.0</ele><time>2026-04-28T14:34:00.993Z</time></trkpt><trkpt lat="40.16564932451345" lon="9.528792955702404"><ele>932.3333333333334</ele><time>2026-04-28T14:34:01.993Z</time></trkpt><trkpt lat="40.16581720484704" lon="9.528668293769371"><ele>935.6666666666667</ele><time>2026-04-28T14:34:02.993Z</time></trkpt><trkpt lat="40.16596570014617" lon="9.528553899863386"><ele>939.0</ele><time>2026-04-28T14:34:03.993Z</time></trkpt><trkpt lat="40.16610519396182" lon="9.528471827985983"><ele>939.0</ele><time>2026-04-28T14:34:04.993Z</time></trkpt><trkpt lat="40.16626137216871" lon="9.528434136761106"><ele>939.0</ele><time>2026-04-28T14:34:05.993Z</time></trkpt><trkpt lat="40.16641791607693" lon="9.528443624771143"><ele>939.0</ele><time>2026-04-28T14:34:06.993Z</time></trkpt><trkpt lat="40.1665840933586" lon="9.528454001422523"><ele>937.6666666666667</ele><time>2026-04-28T14:34:07.993Z</time></trkpt><trkpt lat="40.16675541068475" lon="9.528454231595711"><ele>936.3333333333334</ele><time>2026-04-28T14:34:08.993Z</time></trkpt><trkpt lat="40.16694025389765" lon="9.528432142531607"><ele>935.0</ele><time>2026-04-28T14:34:09.993Z</time></trkpt><trkpt lat="40.167129492880925" lon="9.528372381607122"><ele>935.0</ele><time>2026-04-28T14:34:10.993Z</time></trkpt><trkpt lat="40.16733434296243" lon="9.528279211957933"><ele>935.0</ele><time>2026-04-28T14:34:11.993Z</time></trkpt><trkpt lat="40.167560468210915" lon="9.528165466849"><ele>931.5</ele><time>2026-04-28T14:34:12.993Z</time></trkpt><trkpt lat="40.16779638678897" lon="9.528073198059479"><ele>928.0</ele><time>2026-04-28T14:34:13.993Z</time></trkpt><trkpt lat="40.16804249675177" lon="9.527953381492683"><ele>927.5</ele><time>2026-04-28T14:34:14.993Z</time></trkpt><trkpt lat="40.168285300663584" lon="9.527787949173998"><ele>927.0</ele><time>2026-04-28T14:34:15.993Z</time></trkpt><trkpt lat="40.16852014902056" lon="9.527582415249604"><ele>927.0</ele><time>2026-04-28T14:34:16.993Z</time></trkpt><trkpt lat="40.16875398254795" lon="9.527376596008793"><ele>927.0</ele><time>2026-04-28T14:34:17.993Z</time></trkpt><trkpt lat="40.16899642737629" lon="9.52717018645535"><ele>925.5</ele><time>2026-04-28T14:34:18.993Z</time></trkpt><trkpt lat="40.16922562354944" lon="9.52697406337959"><ele>924.0</ele><time>2026-04-28T14:34:19.993Z</time></trkpt><trkpt lat="40.1694228040249" lon="9.526793057208133"><ele>924.0</ele><time>2026-04-28T14:34:20.993Z</time></trkpt><trkpt lat="40.16959181144263" lon="9.526591370712463"><ele>924.0</ele><time>2026-04-28T14:34:21.993Z</time></trkpt><trkpt lat="40.16970318547737" lon="9.526351232208151"><ele>924.0</ele><time>2026-04-28T14:34:22.993Z</time></trkpt><trkpt lat="40.169774153585706" lon="9.526117622910975"><ele>921.25</ele><time>2026-04-28T14:34:23.993Z</time></trkpt><trkpt lat="40.16982855026071" lon="9.525922715172115"><ele>918.5</ele><time>2026-04-28T14:34:24.993Z</time></trkpt><trkpt lat="40.169913802857685" lon="9.525788584345813"><ele>915.75</ele><time>2026-04-28T14:34:25.993Z</time></trkpt><trkpt lat="40.17004255168763" lon="9.525747928642138"><ele>913.0</ele><time>2026-04-28T14:34:26.993Z</time></trkpt><trkpt lat="40.17016133207926" lon="9.525801321381023"><ele>913.0</ele><time>2026-04-28T14:34:27.993Z</time></trkpt><trkpt lat="40.170259753687006" lon="9.525958485762459"><ele>913.0</ele><time>2026-04-28T14:34:28.993Z</time></trkpt><trkpt lat="40.17030842946568" lon="9.526191504310155"><ele>913.0</ele><time>2026-04-28T14:34:29.993Z</time></trkpt><trkpt lat="40.17040265347189" lon="9.526437989985611"><ele>913.0</ele><time>2026-04-28T14:34:30.993Z</time></trkpt><trkpt lat="40.17053850013812" lon="9.526672206030259"><ele>913.0</ele><time>2026-04-28T14:34:31.993Z</time></trkpt><trkpt lat="40.17071293273346" lon="9.526856713855606"><ele>913.0</ele><time>2026-04-28T14:34:32.993Z</time></trkpt><trkpt lat="40.1709213652797" lon="9.526983450203954"><ele>905.0</ele><time>2026-04-28T14:34:33.993Z</time></trkpt><trkpt lat="40.171174474626625" lon="9.527071172878637"><ele>897.0</ele><time>2026-04-28T14:34:34.993Z</time></trkpt><trkpt lat="40.17144685606827" lon="9.527133711473322"><ele>900.5</ele><time>2026-04-28T14:34:35.993Z</time></trkpt><trkpt lat="40.17169569097989" lon="9.527170051888843"><ele>904.0</ele><time>2026-04-28T14:34:36.993Z</time></trkpt><trkpt lat="40.17195375554596" lon="9.527142963882214"><ele>904.0</ele><time>2026-04-28T14:34:37.993Z</time></trkpt><trkpt lat="40.17221975699122" lon="9.52708100670273"><ele>904.0</ele><time>2026-04-28T14:34:38.993Z</time></trkpt><trkpt lat="40.172473767817756" lon="9.527024434664385"><ele>904.5</ele><time>2026-04-28T14:34:39.993Z</time></trkpt><trkpt lat="40.172716413760966" lon="9.526973504835325"><ele>905.0</ele><time>2026-04-28T14:34:40.993Z</time></trkpt><trkpt lat="40.172970344979674" lon="9.526913903149428"><ele>898.0</ele><time>2026-04-28T14:34:41.993Z</time></trkpt><trkpt lat="40.17321689931641" lon="9.526864677933055"><ele>891.0</ele><time>2026-04-28T14:34:42.993Z</time></trkpt><trkpt lat="40.1734406801188" lon="9.526838236196454"><ele>891.0</ele><time>2026-04-28T14:34:43.993Z</time></trkpt><trkpt lat="40.17366260135907" lon="9.526898316036673"><ele>891.0</ele><time>2026-04-28T14:34:44.993Z</time></trkpt><trkpt lat="40.173872146347286" lon="9.52696556612281"><ele>891.0</ele><time>2026-04-28T14:34:45.993Z</time></trkpt><trkpt lat="40.1740982867108" lon="9.527027434061877"><ele>903.5</ele><time>2026-04-28T14:34:46.993Z</time></trkpt><trkpt lat="40.17433754970494" lon="9.527080030369314"><ele>916.0</ele><time>2026-04-28T14:34:47.993Z</time></trkpt><trkpt lat="40.174582583794844" lon="9.5271416433208"><ele>916.0</ele><time>2026-04-28T14:34:48.993Z</time></trkpt><trkpt lat="40.174822817412675" lon="9.527201584901492"><ele>916.0</ele><time>2026-04-28T14:34:49.993Z</time></trkpt><trkpt lat="40.175046665436426" lon="9.52725363327575"><ele>914.0</ele><time>2026-04-28T14:34:50.993Z</time></trkpt><trkpt lat="40.175269247368554" lon="9.527253351591083"><ele>912.0</ele><time>2026-04-28T14:34:51.993Z</time></trkpt><trkpt lat="40.17546760251577" lon="9.527265283553625"><ele>910.0</ele><time>2026-04-28T14:34:52.993Z</time></trkpt><trkpt lat="40.17563438277737" lon="9.527316690793462"><ele>909.0</ele><time>2026-04-28T14:34:53.993Z</time></trkpt><trkpt lat="40.17578377109977" lon="9.527307089627639"><ele>908.0</ele><time>2026-04-28T14:34:54.993Z</time></trkpt><trkpt lat="40.17591914007078" lon="9.527198093015976"><ele>907.0</ele><time>2026-04-28T14:34:55.993Z</time></trkpt><trkpt lat="40.1760666673904" lon="9.527081701603715"><ele>903.3333333333333</ele><time>2026-04-28T14:34:56.993Z</time></trkpt><trkpt lat="40.1762187175237" lon="9.52701385767086"><ele>899.6666666666667</ele><time>2026-04-28T14:34:57.993Z</time></trkpt><trkpt lat="40.176391685016156" lon="9.527039079790628"><ele>896.0</ele><time>2026-04-28T14:34:58.993Z</time></trkpt><trkpt lat="40.17658190560137" lon="9.527110594609818"><ele>896.0</ele><time>2026-04-28T14:34:59.993Z</time></trkpt><trkpt lat="40.17679059913147" lon="9.527231849597396"><ele>896.0</ele><time>2026-04-28T14:35:00.993Z</time></trkpt><trkpt lat="40.17699705008852" lon="9.527375433555012"><ele>896.0</ele><time>2026-04-28T14:35:01.993Z</time></trkpt><trkpt lat="40.17718900765922" lon="9.52751301791235"><ele>896.0</ele><time>2026-04-28T14:35:02.993Z</time></trkpt><trkpt lat="40.177340405142836" lon="9.527699366532925"><ele>896.0</ele><time>2026-04-28T14:35:03.993Z</time></trkpt><trkpt lat="40.17747791142158" lon="9.527944383744762"><ele>890.5</ele><time>2026-04-28T14:35:04.993Z</time></trkpt><trkpt lat="40.177630703658146" lon="9.52820497159785"><ele>885.0</ele><time>2026-04-28T14:35:05.993Z</time></trkpt><trkpt lat="40.17779264661167" lon="9.52846092924944"><ele>885.0</ele><time>2026-04-28T14:35:06.993Z</time></trkpt><trkpt lat="40.17798174631511" lon="9.528676899474055"><ele>885.0</ele><time>2026-04-28T14:35:07.993Z</time></trkpt><trkpt lat="40.17816677202704" lon="9.528860295334242"><ele>883.0</ele><time>2026-04-28T14:35:08.993Z</time></trkpt><trkpt lat="40.17834726544595" lon="9.52900467974271"><ele>881.0</ele><time>2026-04-28T14:35:09.993Z</time></trkpt><trkpt lat="40.178523473106615" lon="9.529089896747465"><ele>879.0</ele><time>2026-04-28T14:35:10.993Z</time></trkpt><trkpt lat="40.178700325001145" lon="9.529120211788317"><ele>879.0</ele><time>2026-04-28T14:35:11.993Z</time></trkpt><trkpt lat="40.17885661228481" lon="9.529186820272999"><ele>879.0</ele><time>2026-04-28T14:35:12.993Z</time></trkpt><trkpt lat="40.17897092596977" lon="9.529352129388586"><ele>879.0</ele><time>2026-04-28T14:35:13.993Z</time></trkpt><trkpt lat="40.17903854792007" lon="9.529591467924256"><ele>875.3333333333333</ele><time>2026-04-28T14:35:14.993Z</time></trkpt><trkpt lat="40.179127541435186" lon="9.529815579452306"><ele>871.6666666666666</ele><time>2026-04-28T14:35:15.993Z</time></trkpt><trkpt lat="40.17923132241624" lon="9.529994094892823"><ele>868.0</ele><time>2026-04-28T14:35:16.993Z</time></trkpt><trkpt lat="40.17929565122646" lon="9.530168664578195"><ele>868.0</ele><time>2026-04-28T14:35:17.993Z</time></trkpt><trkpt lat="40.179294755704" lon="9.530356504844942"><ele>868.0</ele><time>2026-04-28T14:35:18.993Z</time></trkpt><trkpt lat="40.179229677082695" lon="9.53056014877915"><ele>868.0</ele><time>2026-04-28T14:35:19.993Z</time></trkpt><trkpt lat="40.179140999523305" lon="9.53080015268318"><ele>867.6666666666666</ele><time>2026-04-28T14:35:20.993Z</time></trkpt><trkpt lat="40.17907127211376" lon="9.53106561323747"><ele>867.3333333333333</ele><time>2026-04-28T14:35:21.993Z</time></trkpt><trkpt lat="40.17903223681138" lon="9.531332444601917"><ele>867.0</ele><time>2026-04-28T14:35:22.993Z</time></trkpt><trkpt lat="40.17903154608607" lon="9.531588576448527"><ele>866.0</ele><time>2026-04-28T14:35:23.993Z</time></trkpt><trkpt lat="40.17905470917674" lon="9.53183839162073"><ele>865.0</ele><time>2026-04-28T14:35:24.993Z</time></trkpt><trkpt lat="40.179046193592" lon="9.532069558927425"><ele>864.0</ele><time>2026-04-28T14:35:25.993Z</time></trkpt><trkpt lat="40.17901211334144" lon="9.53227278368534"><ele>864.0</ele><time>2026-04-28T14:35:26.993Z</time></trkpt><trkpt lat="40.17901710708663" lon="9.532452528884676"><ele>864.0</ele><time>2026-04-28T14:35:27.993Z</time></trkpt><trkpt lat="40.1790660086899" lon="9.53261374807679"><ele>864.0</ele><time>2026-04-28T14:35:28.993Z</time></trkpt><trkpt lat="40.17917675657672" lon="9.532733980061359"><ele>864.0</ele><time>2026-04-28T14:35:29.993Z</time></trkpt><trkpt lat="40.17934752278447" lon="9.532802656601179"><ele>864.0</ele><time>2026-04-28T14:35:30.992Z</time></trkpt><trkpt lat="40.17955569837948" lon="9.532843602848956"><ele>864.0</ele><time>2026-04-28T14:35:31.992Z</time></trkpt><trkpt lat="40.17979419629904" lon="9.53285133939576"><ele>864.0</ele><time>2026-04-28T14:35:32.992Z</time></trkpt><trkpt lat="40.18004757795421" lon="9.532821637852075"><ele>854.0</ele><time>2026-04-28T14:35:33.992Z</time></trkpt><trkpt lat="40.18028962978665" lon="9.532787989005278"><ele>844.0</ele><time>2026-04-28T14:35:34.992Z</time></trkpt><trkpt lat="40.180510292054194" lon="9.53281956298891"><ele>864.5</ele><time>2026-04-28T14:35:35.992Z</time></trkpt><trkpt lat="40.18073030478455" lon="9.532893671443803"><ele>885.0</ele><time>2026-04-28T14:35:36.992Z</time></trkpt><trkpt lat="40.18095693884791" lon="9.532974955747523"><ele>885.0</ele><time>2026-04-28T14:35:37.992Z</time></trkpt><trkpt lat="40.181164278618645" lon="9.533038769895136"><ele>885.0</ele><time>2026-04-28T14:35:38.992Z</time></trkpt><trkpt lat="40.18136087274726" lon="9.533024404372863"><ele>885.0</ele><time>2026-04-28T14:35:39.992Z</time></trkpt><trkpt lat="40.18153442061889" lon="9.532933455941876"><ele>882.0</ele><time>2026-04-28T14:35:40.992Z</time></trkpt><trkpt lat="40.18169316446784" lon="9.532825578743582"><ele>879.0</ele><time>2026-04-28T14:35:41.992Z</time></trkpt><trkpt lat="40.18183704221018" lon="9.532840440393482"><ele>876.0</ele><time>2026-04-28T14:35:42.992Z</time></trkpt><trkpt lat="40.182014509098885" lon="9.532937471866854"><ele>876.0</ele><time>2026-04-28T14:35:43.992Z</time></trkpt><trkpt lat="40.18223914300781" lon="9.533045778998508"><ele>876.0</ele><time>2026-04-28T14:35:44.992Z</time></trkpt><trkpt lat="40.182469022896335" lon="9.533152959062893"><ele>872.5</ele><time>2026-04-28T14:35:45.992Z</time></trkpt><trkpt lat="40.18270917765534" lon="9.533226154782563"><ele>869.0</ele><time>2026-04-28T14:35:46.992Z</time></trkpt><trkpt lat="40.182970330848605" lon="9.53325896031364"><ele>861.5</ele><time>2026-04-28T14:35:47.992Z</time></trkpt><trkpt lat="40.183246090931384" lon="9.533277277333642"><ele>854.0</ele><time>2026-04-28T14:35:48.992Z</time></trkpt><trkpt lat="40.18351145307818" lon="9.533309480048233"><ele>854.0</ele><time>2026-04-28T14:35:49.992Z</time></trkpt><trkpt lat="40.18375632791457" lon="9.53337322126336"><ele>854.0</ele><time>2026-04-28T14:35:50.992Z</time></trkpt><trkpt lat="40.183976984697196" lon="9.53344382111976"><ele>858.3333333333334</ele><time>2026-04-28T14:35:51.992Z</time></trkpt><trkpt lat="40.18416890382732" lon="9.533526896954609"><ele>862.6666666666667</ele><time>2026-04-28T14:35:52.992Z</time></trkpt><trkpt lat="40.184327551649915" lon="9.533658470478956"><ele>867.0</ele><time>2026-04-28T14:35:53.992Z</time></trkpt><trkpt lat="40.18443943556251" lon="9.533848533904164"><ele>867.0</ele><time>2026-04-28T14:35:54.992Z</time></trkpt><trkpt lat="40.184488762208666" lon="9.534053486484154"><ele>867.0</ele><time>2026-04-28T14:35:55.992Z</time></trkpt><trkpt lat="40.18453842315696" lon="9.53425078139866"><ele>867.0</ele><time>2026-04-28T14:35:56.992Z</time></trkpt><trkpt lat="40.18463876952024" lon="9.534343628768179"><ele>867.0</ele><time>2026-04-28T14:35:57.992Z</time></trkpt><trkpt lat="40.1847796176714" lon="9.534342385810444"><ele>857.3333333333333</ele><time>2026-04-28T14:35:58.992Z</time></trkpt><trkpt lat="40.184949508052334" lon="9.534263594211081"><ele>847.6666666666666</ele><time>2026-04-28T14:35:59.992Z</time></trkpt><trkpt lat="40.18513674850829" lon="9.534171117505764"><ele>838.0</ele><time>2026-04-28T14:36:00.992Z</time></trkpt><trkpt lat="40.18531606934051" lon="9.534085695929116"><ele>838.0</ele><time>2026-04-28T14:36:01.992Z</time></trkpt><trkpt lat="40.18538156120943" lon="9.534250332372123"><ele>838.0</ele><time>2026-04-28T14:36:02.992Z</time></trkpt><trkpt lat="40.18549014656899" lon="9.534339202657351"><ele>838.0</ele><time>2026-04-28T14:36:03.992Z</time></trkpt><trkpt lat="40.18554658594691" lon="9.534505726140416"><ele>838.0</ele><time>2026-04-28T14:36:04.992Z</time></trkpt><trkpt lat="40.18559775387268" lon="9.53476059712217"><ele>839.3333333333333</ele><time>2026-04-28T14:36:05.992Z</time></trkpt><trkpt lat="40.18566466290323" lon="9.534989499548125"><ele>840.6666666666667</ele><time>2026-04-28T14:36:06.992Z</time></trkpt><trkpt lat="40.18569741766227" lon="9.535229658534613"><ele>842.0</ele><time>2026-04-28T14:36:07.992Z</time></trkpt><trkpt lat="40.18568608932199" lon="9.535500574649564"><ele>842.0</ele><time>2026-04-28T14:36:08.992Z</time></trkpt><trkpt lat="40.185666198202846" lon="9.535755731218545"><ele>842.0</ele><time>2026-04-28T14:36:09.992Z</time></trkpt><trkpt lat="40.18571445737428" lon="9.535912717239347"><ele>842.0</ele><time>2026-04-28T14:36:10.992Z</time></trkpt><trkpt lat="40.18582922160899" lon="9.536035349105099"><ele>842.0</ele><time>2026-04-28T14:36:11.992Z</time></trkpt><trkpt lat="40.185962632821216" lon="9.536125303145406"><ele>842.0</ele><time>2026-04-28T14:36:12.992Z</time></trkpt><trkpt lat="40.1860813506395" lon="9.536289520459599"><ele>842.0</ele><time>2026-04-28T14:36:13.992Z</time></trkpt><trkpt lat="40.18620301445997" lon="9.536394377827943"><ele>837.6666666666667</ele><time>2026-04-28T14:36:14.992Z</time></trkpt><trkpt lat="40.18632826254697" lon="9.536364787415453"><ele>833.3333333333333</ele><time>2026-04-28T14:36:15.992Z</time></trkpt><trkpt lat="40.186487219836856" lon="9.536248569146617"><ele>829.0</ele><time>2026-04-28T14:36:16.992Z</time></trkpt><trkpt lat="40.18659987417589" lon="9.536050529492465"><ele>829.0</ele><time>2026-04-28T14:36:17.992Z</time></trkpt><trkpt lat="40.18675833833858" lon="9.535825404757782"><ele>829.0</ele><time>2026-04-28T14:36:18.992Z</time></trkpt><trkpt lat="40.18695899004874" lon="9.535652285887286"><ele>829.0</ele><time>2026-04-28T14:36:19.992Z</time></trkpt><trkpt lat="40.18712451014814" lon="9.535525999263198"><ele>829.0</ele><time>2026-04-28T14:36:20.992Z</time></trkpt><trkpt lat="40.18728058488591" lon="9.535426944155665"><ele>829.0</ele><time>2026-04-28T14:36:21.992Z</time></trkpt><trkpt lat="40.187381893088" lon="9.535459521210749"><ele>829.6666666666666</ele><time>2026-04-28T14:36:22.992Z</time></trkpt><trkpt lat="40.187477680799944" lon="9.535572885349712"><ele>830.3333333333333</ele><time>2026-04-28T14:36:23.992Z</time></trkpt><trkpt lat="40.187588556966666" lon="9.535724707724166"><ele>831.0</ele><time>2026-04-28T14:36:24.992Z</time></trkpt><trkpt lat="40.1877790497707" lon="9.535942126799089"><ele>831.0</ele><time>2026-04-28T14:36:25.992Z</time></trkpt><trkpt lat="40.187955967449156" lon="9.536077185642954"><ele>831.0</ele><time>2026-04-28T14:36:26.992Z</time></trkpt><trkpt lat="40.18814066509837" lon="9.536153344881104"><ele>831.0</ele><time>2026-04-28T14:36:27.992Z</time></trkpt><trkpt lat="40.18830483505723" lon="9.536108918568457"><ele>829.0</ele><time>2026-04-28T14:36:28.992Z</time></trkpt><trkpt lat="40.18845489939777" lon="9.535943378325149"><ele>827.0</ele><time>2026-04-28T14:36:29.992Z</time></trkpt><trkpt lat="40.18861015094518" lon="9.535741476365159"><ele>825.0</ele><time>2026-04-28T14:36:30.992Z</time></trkpt><trkpt lat="40.18876085392123" lon="9.53560898932901"><ele>825.0</ele><time>2026-04-28T14:36:31.992Z</time></trkpt><trkpt lat="40.18890014801638" lon="9.535546757918373"><ele>825.0</ele><time>2026-04-28T14:36:32.992Z</time></trkpt><trkpt lat="40.18904123626372" lon="9.53553235114752"><ele>825.0</ele><time>2026-04-28T14:36:33.992Z</time></trkpt><trkpt lat="40.18919753973141" lon="9.535601341439474"><ele>826.3333333333333</ele><time>2026-04-28T14:36:34.992Z</time></trkpt><trkpt lat="40.18937625096585" lon="9.53570014835806"><ele>827.6666666666666</ele><time>2026-04-28T14:36:35.992Z</time></trkpt><trkpt lat="40.1895669744483" lon="9.535813835345998"><ele>829.0</ele><time>2026-04-28T14:36:36.992Z</time></trkpt><trkpt lat="40.1897379736567" lon="9.535905571382484"><ele>833.0</ele><time>2026-04-28T14:36:37.992Z</time></trkpt><trkpt lat="40.18987039061554" lon="9.536007313142319"><ele>837.0</ele><time>2026-04-28T14:36:38.992Z</time></trkpt><trkpt lat="40.18993908906799" lon="9.536199868949794"><ele>841.0</ele><time>2026-04-28T14:36:39.992Z</time></trkpt><trkpt lat="40.19000218459072" lon="9.536432656855823"><ele>841.0</ele><time>2026-04-28T14:36:40.992Z</time></trkpt><trkpt lat="40.19008079845831" lon="9.536611644097379"><ele>841.0</ele><time>2026-04-28T14:36:41.992Z</time></trkpt><trkpt lat="40.19019287130081" lon="9.536681944752747"><ele>841.0</ele><time>2026-04-28T14:36:42.992Z</time></trkpt><trkpt lat="40.190313017193155" lon="9.53666805105905"><ele>841.0</ele><time>2026-04-28T14:36:43.992Z</time></trkpt><trkpt lat="40.19044817887751" lon="9.536544898784442"><ele>841.0</ele><time>2026-04-28T14:36:44.992Z</time></trkpt><trkpt lat="40.19062591299579" lon="9.536467685821922"><ele>841.0</ele><time>2026-04-28T14:36:45.992Z</time></trkpt><trkpt lat="40.19081808219192" lon="9.536456141190968"><ele>841.0</ele><time>2026-04-28T14:36:46.992Z</time></trkpt><trkpt lat="40.19097127296005" lon="9.536406372506288"><ele>817.0</ele><time>2026-04-28T14:36:47.992Z</time></trkpt><trkpt lat="40.191137999081654" lon="9.536208661399046"><ele>793.0</ele><time>2026-04-28T14:36:48.992Z</time></trkpt><trkpt lat="40.191329744643866" lon="9.536045459236691"><ele>805.5</ele><time>2026-04-28T14:36:49.992Z</time></trkpt><trkpt lat="40.19156249822632" lon="9.53593103554386"><ele>818.0</ele><time>2026-04-28T14:36:50.992Z</time></trkpt><trkpt lat="40.191799724873036" lon="9.535813282227776"><ele>818.0</ele><time>2026-04-28T14:36:51.992Z</time></trkpt><trkpt lat="40.19203024314791" lon="9.535687852663091"><ele>818.0</ele><time>2026-04-28T14:36:52.992Z</time></trkpt><trkpt lat="40.192237349189504" lon="9.535598155603683"><ele>819.3333333333334</ele><time>2026-04-28T14:36:53.992Z</time></trkpt><trkpt lat="40.192429245688956" lon="9.535572328589598"><ele>820.6666666666667</ele><time>2026-04-28T14:36:54.992Z</time></trkpt><trkpt lat="40.19257856378477" lon="9.5355882023453"><ele>822.0</ele><time>2026-04-28T14:36:55.992Z</time></trkpt><trkpt lat="40.19270008268599" lon="9.535651736871914"><ele>822.0</ele><time>2026-04-28T14:36:56.992Z</time></trkpt><trkpt lat="40.19278364165772" lon="9.535810023808486"><ele>822.0</ele><time>2026-04-28T14:36:57.992Z</time></trkpt><trkpt lat="40.19281332625304" lon="9.536007295762497"><ele>822.0</ele><time>2026-04-28T14:36:58.992Z</time></trkpt><trkpt lat="40.19280217070027" lon="9.536192688101329"><ele>822.0</ele><time>2026-04-28T14:36:59.992Z</time></trkpt><trkpt lat="40.19283288047436" lon="9.536351584191454"><ele>820.0</ele><time>2026-04-28T14:37:00.992Z</time></trkpt><trkpt lat="40.19296608477593" lon="9.536477591836553"><ele>818.0</ele><time>2026-04-28T14:37:01.992Z</time></trkpt><trkpt lat="40.19313701609228" lon="9.536626507586194"><ele>816.0</ele><time>2026-04-28T14:37:02.992Z</time></trkpt><trkpt lat="40.19332027220023" lon="9.536799301611318"><ele>816.0</ele><time>2026-04-28T14:37:03.992Z</time></trkpt><trkpt lat="40.19350062668013" lon="9.536991075498833"><ele>816.0</ele><time>2026-04-28T14:37:04.992Z</time></trkpt><trkpt lat="40.193662161965065" lon="9.53719503915309"><ele>823.75</ele><time>2026-04-28T14:37:05.992Z</time></trkpt><trkpt lat="40.19378214046738" lon="9.537361654319367"><ele>831.5</ele><time>2026-04-28T14:37:06.992Z</time></trkpt><trkpt lat="40.1938924529816" lon="9.537441600614166"><ele>839.25</ele><time>2026-04-28T14:37:07.992Z</time></trkpt><trkpt lat="40.19401861091881" lon="9.53740384768964"><ele>847.0</ele><time>2026-04-28T14:37:08.992Z</time></trkpt><trkpt lat="40.19414776481814" lon="9.537218251294332"><ele>833.3333333333333</ele><time>2026-04-28T14:37:09.992Z</time></trkpt><trkpt lat="40.1942699211327" lon="9.537042905272376"><ele>819.6666666666667</ele><time>2026-04-28T14:37:10.992Z</time></trkpt><trkpt lat="40.19438803731517" lon="9.536969740913175"><ele>806.0</ele><time>2026-04-28T14:37:11.992Z</time></trkpt><trkpt lat="40.194531063705085" lon="9.536973057133764"><ele>806.0</ele><time>2026-04-28T14:37:12.992Z</time></trkpt><trkpt lat="40.19470805534401" lon="9.537040996466281"><ele>806.0</ele><time>2026-04-28T14:37:13.992Z</time></trkpt><trkpt lat="40.19484212317752" lon="9.53712474342564"><ele>806.0</ele><time>2026-04-28T14:37:14.992Z</time></trkpt><trkpt lat="40.19493889615757" lon="9.53726202386939"><ele>817.6666666666667</ele><time>2026-04-28T14:37:15.992Z</time></trkpt><trkpt lat="40.195041291139674" lon="9.537438110852737"><ele>829.3333333333333</ele><time>2026-04-28T14:37:16.992Z</time></trkpt><trkpt lat="40.195144151963376" lon="9.537550213031139"><ele>841.0</ele><time>2026-04-28T14:37:17.992Z</time></trkpt><trkpt lat="40.195296382138324" lon="9.537545157858451"><ele>841.0</ele><time>2026-04-28T14:37:18.992Z</time></trkpt><trkpt lat="40.19545592717475" lon="9.537391168022625"><ele>841.0</ele><time>2026-04-28T14:37:19.992Z</time></trkpt><trkpt lat="40.19562233123229" lon="9.537193201310705"><ele>841.0</ele><time>2026-04-28T14:37:20.992Z</time></trkpt><trkpt lat="40.195767074715214" lon="9.536980109875167"><ele>832.0</ele><time>2026-04-28T14:37:21.992Z</time></trkpt><trkpt lat="40.19589054217801" lon="9.536715116113177"><ele>823.0</ele><time>2026-04-28T14:37:22.992Z</time></trkpt><trkpt lat="40.19603687074322" lon="9.536474436982248"><ele>823.0</ele><time>2026-04-28T14:37:23.992Z</time></trkpt><trkpt lat="40.19621971849359" lon="9.536293095901225"><ele>823.0</ele><time>2026-04-28T14:37:24.992Z</time></trkpt><trkpt lat="40.19643640027791" lon="9.536161940072645"><ele>819.6666666666666</ele><time>2026-04-28T14:37:25.992Z</time></trkpt><trkpt lat="40.19665971431271" lon="9.53604997702415"><ele>816.3333333333333</ele><time>2026-04-28T14:37:26.992Z</time></trkpt><trkpt lat="40.19685727063034" lon="9.535958370045455"><ele>813.0</ele><time>2026-04-28T14:37:27.992Z</time></trkpt><trkpt lat="40.19702474477289" lon="9.535891804627123"><ele>813.0</ele><time>2026-04-28T14:37:28.992Z</time></trkpt><trkpt lat="40.19717512402288" lon="9.535863900789762"><ele>813.0</ele><time>2026-04-28T14:37:29.991Z</time></trkpt><trkpt lat="40.19730156018092" lon="9.535909027608009"><ele>813.0</ele><time>2026-04-28T14:37:30.991Z</time></trkpt><trkpt lat="40.197383185959644" lon="9.536056493902077"><ele>813.0</ele><time>2026-04-28T14:37:31.991Z</time></trkpt><trkpt lat="40.19739712822902" lon="9.536283090485945"><ele>817.5</ele><time>2026-04-28T14:37:32.991Z</time></trkpt><trkpt lat="40.19738416599019" lon="9.536555075739267"><ele>822.0</ele><time>2026-04-28T14:37:33.991Z</time></trkpt><trkpt lat="40.19738256316588" lon="9.536874273522603"><ele>821.5</ele><time>2026-04-28T14:37:34.991Z</time></trkpt><trkpt lat="40.19741046276771" lon="9.537201769827943"><ele>821.0</ele><time>2026-04-28T14:37:35.991Z</time></trkpt><trkpt lat="40.19743634722045" lon="9.537462148557777"><ele>821.0</ele><time>2026-04-28T14:37:36.991Z</time></trkpt><trkpt lat="40.19742772855801" lon="9.537700922795048"><ele>821.0</ele><time>2026-04-28T14:37:37.991Z</time></trkpt><trkpt lat="40.19741284753285" lon="9.537917256755541"><ele>821.0</ele><time>2026-04-28T14:37:38.991Z</time></trkpt><trkpt lat="40.19737709404749" lon="9.538119879229173"><ele>822.75</ele><time>2026-04-28T14:37:39.991Z</time></trkpt><trkpt lat="40.19738293121184" lon="9.538289146891398"><ele>824.5</ele><time>2026-04-28T14:37:40.991Z</time></trkpt><trkpt lat="40.197457528498866" lon="9.538443865966551"><ele>826.25</ele><time>2026-04-28T14:37:41.991Z</time></trkpt><trkpt lat="40.19761617374396" lon="9.538546015754008"><ele>828.0</ele><time>2026-04-28T14:37:42.991Z</time></trkpt><trkpt lat="40.19780661207413" lon="9.538616023312201"><ele>828.0</ele><time>2026-04-28T14:37:43.991Z</time></trkpt><trkpt lat="40.19796436676488" lon="9.53870914783116"><ele>828.0</ele><time>2026-04-28T14:37:44.991Z</time></trkpt><trkpt lat="40.198092922423456" lon="9.538882159815431"><ele>828.0</ele><time>2026-04-28T14:37:45.991Z</time></trkpt><trkpt lat="40.19819933579648" lon="9.53911419754022"><ele>824.3333333333333</ele><time>2026-04-28T14:37:46.991Z</time></trkpt><trkpt lat="40.198305323659675" lon="9.539301984620817"><ele>820.6666666666666</ele><time>2026-04-28T14:37:47.991Z</time></trkpt><trkpt lat="40.19842632732274" lon="9.539405440990729"><ele>817.0</ele><time>2026-04-28T14:37:48.991Z</time></trkpt><trkpt lat="40.19859692467906" lon="9.539379778680072"><ele>817.0</ele><time>2026-04-28T14:37:49.991Z</time></trkpt><trkpt lat="40.19876577882392" lon="9.539263161313936"><ele>817.0</ele><time>2026-04-28T14:37:50.991Z</time></trkpt><trkpt lat="40.198941286578595" lon="9.539133576979257"><ele>817.0</ele><time>2026-04-28T14:37:51.991Z</time></trkpt><trkpt lat="40.19909940298522" lon="9.539124306563867"><ele>820.3333333333333</ele><time>2026-04-28T14:37:52.991Z</time></trkpt><trkpt lat="40.19925370561128" lon="9.539226847271909"><ele>823.6666666666667</ele><time>2026-04-28T14:37:53.991Z</time></trkpt><trkpt lat="40.19937721159302" lon="9.53937873596304"><ele>827.0</ele><time>2026-04-28T14:37:54.991Z</time></trkpt><trkpt lat="40.19946107747589" lon="9.539570409969075"><ele>827.0</ele><time>2026-04-28T14:37:55.991Z</time></trkpt><trkpt lat="40.199471871005734" lon="9.539769142529822"><ele>827.0</ele><time>2026-04-28T14:37:56.991Z</time></trkpt><trkpt lat="40.199426462368315" lon="9.53996919139137"><ele>827.0</ele><time>2026-04-28T14:37:57.991Z</time></trkpt><trkpt lat="40.19938360491004" lon="9.540165544861344"><ele>827.0</ele><time>2026-04-28T14:37:58.991Z</time></trkpt><trkpt lat="40.19941215711372" lon="9.540344201865963"><ele>827.0</ele><time>2026-04-28T14:37:59.991Z</time></trkpt><trkpt lat="40.19953809500757" lon="9.540462463606163"><ele>827.0</ele><time>2026-04-28T14:38:00.991Z</time></trkpt><trkpt lat="40.19973416226088" lon="9.54053855592217"><ele>824.0</ele><time>2026-04-28T14:38:01.991Z</time></trkpt><trkpt lat="40.19992683339741" lon="9.540650380207675"><ele>821.0</ele><time>2026-04-28T14:38:02.991Z</time></trkpt><trkpt lat="40.20005820704772" lon="9.540807649162229"><ele>818.0</ele><time>2026-04-28T14:38:03.991Z</time></trkpt><trkpt lat="40.20017254776095" lon="9.540930557914683"><ele>818.0</ele><time>2026-04-28T14:38:04.991Z</time></trkpt><trkpt lat="40.20033443380089" lon="9.540959295819828"><ele>818.0</ele><time>2026-04-28T14:38:05.991Z</time></trkpt><trkpt lat="40.20052567990763" lon="9.540911640883765"><ele>818.0</ele><time>2026-04-28T14:38:06.991Z</time></trkpt><trkpt lat="40.20070982485006" lon="9.540772919738775"><ele>815.0</ele><time>2026-04-28T14:38:07.991Z</time></trkpt><trkpt lat="40.20084831228338" lon="9.54065730284513"><ele>812.0</ele><time>2026-04-28T14:38:08.991Z</time></trkpt><trkpt lat="40.20098912536829" lon="9.540630581540148"><ele>809.0</ele><time>2026-04-28T14:38:09.991Z</time></trkpt><trkpt lat="40.20114773671903" lon="9.540742436121159"><ele>809.0</ele><time>2026-04-28T14:38:10.991Z</time></trkpt><trkpt lat="40.2012854273867" lon="9.54089871276404"><ele>809.0</ele><time>2026-04-28T14:38:11.991Z</time></trkpt><trkpt lat="40.20138780293018" lon="9.541083988643392"><ele>809.0</ele><time>2026-04-28T14:38:12.991Z</time></trkpt><trkpt lat="40.20145119362834" lon="9.541312005418382"><ele>810.6666666666667</ele><time>2026-04-28T14:38:13.991Z</time></trkpt><trkpt lat="40.201519019586684" lon="9.541497052443514"><ele>812.3333333333333</ele><time>2026-04-28T14:38:14.991Z</time></trkpt><trkpt lat="40.20167536641944" lon="9.541610862732556"><ele>814.0</ele><time>2026-04-28T14:38:15.991Z</time></trkpt><trkpt lat="40.20190348918697" lon="9.541643298436721"><ele>814.0</ele><time>2026-04-28T14:38:16.991Z</time></trkpt><trkpt lat="40.20213176520694" lon="9.541673260398658"><ele>814.0</ele><time>2026-04-28T14:38:17.991Z</time></trkpt><trkpt lat="40.20233572047174" lon="9.541674986521237"><ele>814.0</ele><time>2026-04-28T14:38:18.991Z</time></trkpt><trkpt lat="40.20251573433069" lon="9.541662286516075"><ele>807.3333333333333</ele><time>2026-04-28T14:38:19.991Z</time></trkpt><trkpt lat="40.20267694522492" lon="9.541666988220461"><ele>800.6666666666667</ele><time>2026-04-28T14:38:20.991Z</time></trkpt><trkpt lat="40.20280701722709" lon="9.541776877495698"><ele>794.0</ele><time>2026-04-28T14:38:21.991Z</time></trkpt><trkpt lat="40.202914285200556" lon="9.541954430478194"><ele>790.3333333333334</ele><time>2026-04-28T14:38:22.991Z</time></trkpt><trkpt lat="40.20301063177753" lon="9.542204450486606"><ele>786.6666666666667</ele><time>2026-04-28T14:38:23.991Z</time></trkpt><trkpt lat="40.20312719890087" lon="9.542419597687266"><ele>783.0</ele><time>2026-04-28T14:38:24.991Z</time></trkpt><trkpt lat="40.20325123987992" lon="9.542655978251243"><ele>783.0</ele><time>2026-04-28T14:38:25.991Z</time></trkpt><trkpt lat="40.20342387213351" lon="9.542829473193052"><ele>783.0</ele><time>2026-04-28T14:38:26.991Z</time></trkpt><trkpt lat="40.2035885467532" lon="9.543024834163056"><ele>783.0</ele><time>2026-04-28T14:38:27.991Z</time></trkpt><trkpt lat="40.203737024753785" lon="9.543205122397548"><ele>781.3333333333333</ele><time>2026-04-28T14:38:28.991Z</time></trkpt><trkpt lat="40.20391550240118" lon="9.543321916207907"><ele>779.6666666666666</ele><time>2026-04-28T14:38:29.991Z</time></trkpt><trkpt lat="40.20411417605975" lon="9.543399304618392"><ele>778.0</ele><time>2026-04-28T14:38:30.991Z</time></trkpt><trkpt lat="40.20429764151109" lon="9.543513719147239"><ele>778.0</ele><time>2026-04-28T14:38:31.991Z</time></trkpt><trkpt lat="40.20445330126767" lon="9.543667942571641"><ele>778.0</ele><time>2026-04-28T14:38:32.991Z</time></trkpt><trkpt lat="40.204610445355705" lon="9.54380939298288"><ele>778.0</ele><time>2026-04-28T14:38:33.991Z</time></trkpt><trkpt lat="40.204797677709195" lon="9.543865032874399"><ele>782.6666666666666</ele><time>2026-04-28T14:38:34.991Z</time></trkpt><trkpt lat="40.20496007615628" lon="9.543891855454428"><ele>787.3333333333333</ele><time>2026-04-28T14:38:35.991Z</time></trkpt><trkpt lat="40.20508993656282" lon="9.544026519834084"><ele>792.0</ele><time>2026-04-28T14:38:36.991Z</time></trkpt><trkpt lat="40.20522914907295" lon="9.544196637171607"><ele>792.0</ele><time>2026-04-28T14:38:37.991Z</time></trkpt><trkpt lat="40.20537231700832" lon="9.544340325247386"><ele>792.0</ele><time>2026-04-28T14:38:38.991Z</time></trkpt><trkpt lat="40.20553307996069" lon="9.544403923521724"><ele>792.0</ele><time>2026-04-28T14:38:39.991Z</time></trkpt><trkpt lat="40.20573547652064" lon="9.544394811841954"><ele>780.5</ele><time>2026-04-28T14:38:40.991Z</time></trkpt><trkpt lat="40.20595848843047" lon="9.544313402544084"><ele>769.0</ele><time>2026-04-28T14:38:41.991Z</time></trkpt><trkpt lat="40.20620094453993" lon="9.544283853023117"><ele>769.0</ele><time>2026-04-28T14:38:42.991Z</time></trkpt><trkpt lat="40.20641909643875" lon="9.544314733597323"><ele>769.0</ele><time>2026-04-28T14:38:43.991Z</time></trkpt><trkpt lat="40.20662745110144" lon="9.54439543418442"><ele>769.0</ele><time>2026-04-28T14:38:44.991Z</time></trkpt><trkpt lat="40.20683646095046" lon="9.544480369390365"><ele>773.6666666666666</ele><time>2026-04-28T14:38:45.991Z</time></trkpt><trkpt lat="40.20705356879268" lon="9.544553280964927"><ele>778.3333333333333</ele><time>2026-04-28T14:38:46.991Z</time></trkpt><trkpt lat="40.207272606783505" lon="9.544616720838496"><ele>783.0</ele><time>2026-04-28T14:38:47.991Z</time></trkpt><trkpt lat="40.207491769185125" lon="9.544663153957059"><ele>783.0</ele><time>2026-04-28T14:38:48.991Z</time></trkpt><trkpt lat="40.20770652713228" lon="9.544699395427529"><ele>783.0</ele><time>2026-04-28T14:38:49.991Z</time></trkpt><trkpt lat="40.20791406920815" lon="9.544773856859223"><ele>783.0</ele><time>2026-04-28T14:38:50.991Z</time></trkpt><trkpt lat="40.20809107347702" lon="9.544855217625866"><ele>774.0</ele><time>2026-04-28T14:38:51.991Z</time></trkpt><trkpt lat="40.20823675343419" lon="9.544928517057244"><ele>765.0</ele><time>2026-04-28T14:38:52.991Z</time></trkpt><trkpt lat="40.20837287402578" lon="9.545034246728012"><ele>756.0</ele><time>2026-04-28T14:38:53.991Z</time></trkpt><trkpt lat="40.20848533011332" lon="9.545225861279773"><ele>765.0</ele><time>2026-04-28T14:38:54.991Z</time></trkpt><trkpt lat="40.20860359325745" lon="9.545467063192811"><ele>774.0</ele><time>2026-04-28T14:38:55.991Z</time></trkpt><trkpt lat="40.208719320522434" lon="9.545712454979924"><ele>783.0</ele><time>2026-04-28T14:38:56.991Z</time></trkpt><trkpt lat="40.20883684014161" lon="9.54597720655425"><ele>793.5</ele><time>2026-04-28T14:38:57.991Z</time></trkpt><trkpt lat="40.20897080989279" lon="9.546246289218384"><ele>804.0</ele><time>2026-04-28T14:38:58.991Z</time></trkpt><trkpt lat="40.20910997765158" lon="9.546518872934746"><ele>779.0</ele><time>2026-04-28T14:38:59.991Z</time></trkpt><trkpt lat="40.2092500188652" lon="9.546775879860908"><ele>754.0</ele><time>2026-04-28T14:39:00.991Z</time></trkpt><trkpt lat="40.209407910164465" lon="9.547018380273192"><ele>766.5</ele><time>2026-04-28T14:39:01.991Z</time></trkpt><trkpt lat="40.20959831091068" lon="9.547242963239414"><ele>779.0</ele><time>2026-04-28T14:39:02.991Z</time></trkpt><trkpt lat="40.20978935316289" lon="9.5474434398011"><ele>772.5</ele><time>2026-04-28T14:39:03.991Z</time></trkpt><trkpt lat="40.20995420147384" lon="9.547653985456966"><ele>766.0</ele><time>2026-04-28T14:39:04.991Z</time></trkpt><trkpt lat="40.210089785917454" lon="9.54789579061501"><ele>766.0</ele><time>2026-04-28T14:39:05.991Z</time></trkpt><trkpt lat="40.21023854982099" lon="9.548121102278905"><ele>766.0</ele><time>2026-04-28T14:39:06.991Z</time></trkpt><trkpt lat="40.210431330433565" lon="9.548292909943429"><ele>766.0</ele><time>2026-04-28T14:39:07.991Z</time></trkpt><trkpt lat="40.21064961439452" lon="9.54843349043308"><ele>766.0</ele><time>2026-04-28T14:39:08.991Z</time></trkpt><trkpt lat="40.21086309712374" lon="9.548581622933417"><ele>766.0</ele><time>2026-04-28T14:39:09.991Z</time></trkpt><trkpt lat="40.21106504593798" lon="9.548744394373182"><ele>766.0</ele><time>2026-04-28T14:39:10.991Z</time></trkpt><trkpt lat="40.21125654619179" lon="9.548937565809677"><ele>766.0</ele><time>2026-04-28T14:39:11.991Z</time></trkpt><trkpt lat="40.21142009084418" lon="9.549163641413648"><ele>766.0</ele><time>2026-04-28T14:39:12.991Z</time></trkpt><trkpt lat="40.21156827061182" lon="9.549396618614969"><ele>762.0</ele><time>2026-04-28T14:39:13.991Z</time></trkpt><trkpt lat="40.21170123478268" lon="9.549625260043895"><ele>758.0</ele><time>2026-04-28T14:39:14.991Z</time></trkpt><trkpt lat="40.21185272659214" lon="9.549835385178817"><ele>754.0</ele><time>2026-04-28T14:39:15.991Z</time></trkpt><trkpt lat="40.212040774552634" lon="9.550026492654904"><ele>754.0</ele><time>2026-04-28T14:39:16.991Z</time></trkpt><trkpt lat="40.212237646084795" lon="9.550231432502946"><ele>754.0</ele><time>2026-04-28T14:39:17.991Z</time></trkpt><trkpt lat="40.21241971766648" lon="9.550461741667423"><ele>744.5</ele><time>2026-04-28T14:39:18.991Z</time></trkpt><trkpt lat="40.21259356537584" lon="9.550675153530744"><ele>735.0</ele><time>2026-04-28T14:39:19.991Z</time></trkpt><trkpt lat="40.21276800124416" lon="9.550859826381926"><ele>735.0</ele><time>2026-04-28T14:39:20.991Z</time></trkpt><trkpt lat="40.2129465481934" lon="9.551022253598422"><ele>735.0</ele><time>2026-04-28T14:39:21.991Z</time></trkpt><trkpt lat="40.21314442255094" lon="9.551162324653639"><ele>735.0</ele><time>2026-04-28T14:39:22.991Z</time></trkpt><trkpt lat="40.21334953497244" lon="9.551284420489196"><ele>740.0</ele><time>2026-04-28T14:39:23.991Z</time></trkpt><trkpt lat="40.21355769717446" lon="9.551410737527842"><ele>745.0</ele><time>2026-04-28T14:39:24.991Z</time></trkpt><trkpt lat="40.213772691121235" lon="9.551543608963053"><ele>730.0</ele><time>2026-04-28T14:39:25.991Z</time></trkpt><trkpt lat="40.21398923834003" lon="9.55167436529618"><ele>715.0</ele><time>2026-04-28T14:39:26.991Z</time></trkpt><trkpt lat="40.21420203067924" lon="9.551767046680197"><ele>715.0</ele><time>2026-04-28T14:39:27.991Z</time></trkpt><trkpt lat="40.2144244973505" lon="9.55182090946061"><ele>715.0</ele><time>2026-04-28T14:39:28.991Z</time></trkpt><trkpt lat="40.214643613759286" lon="9.551801944491631"><ele>715.0</ele><time>2026-04-28T14:39:29.99Z</time></trkpt><trkpt lat="40.21485838954025" lon="9.551775464803857"><ele>710.6666666666667</ele><time>2026-04-28T14:39:30.99Z</time></trkpt><trkpt lat="40.21506836010578" lon="9.551782856170417"><ele>706.3333333333334</ele><time>2026-04-28T14:39:31.99Z</time></trkpt><trkpt lat="40.21525142104884" lon="9.55187304201408"><ele>702.0</ele><time>2026-04-28T14:39:32.99Z</time></trkpt><trkpt lat="40.215439976855976" lon="9.552010314681944"><ele>715.0</ele><time>2026-04-28T14:39:33.99Z</time></trkpt><trkpt lat="40.215651897051146" lon="9.552117898020649"><ele>728.0</ele><time>2026-04-28T14:39:34.99Z</time></trkpt><trkpt lat="40.21588757256002" lon="9.55219375335422"><ele>728.0</ele><time>2026-04-28T14:39:35.99Z</time></trkpt><trkpt lat="40.21611937574701" lon="9.552237480119919"><ele>728.0</ele><time>2026-04-28T14:39:36.99Z</time></trkpt><trkpt lat="40.21634319729174" lon="9.552234809006773"><ele>722.6666666666666</ele><time>2026-04-28T14:39:37.99Z</time></trkpt><trkpt lat="40.2165580690194" lon="9.55220136857468"><ele>717.3333333333334</ele><time>2026-04-28T14:39:38.99Z</time></trkpt><trkpt lat="40.21676556168513" lon="9.552205803040358"><ele>712.0</ele><time>2026-04-28T14:39:39.99Z</time></trkpt><trkpt lat="40.216959974735126" lon="9.552240000308524"><ele>712.0</ele><time>2026-04-28T14:39:40.99Z</time></trkpt><trkpt lat="40.21713696900517" lon="9.552307418654589"><ele>712.0</ele><time>2026-04-28T14:39:41.99Z</time></trkpt><trkpt lat="40.21730468404586" lon="9.552444412846084"><ele>712.0</ele><time>2026-04-28T14:39:42.99Z</time></trkpt><trkpt lat="40.21747192421066" lon="9.552615611117298"><ele>706.6666666666667</ele><time>2026-04-28T14:39:43.99Z</time></trkpt><trkpt lat="40.217649873553654" lon="9.552789504688866"><ele>701.3333333333334</ele><time>2026-04-28T14:39:44.99Z</time></trkpt><trkpt lat="40.217848632682134" lon="9.552904688083421"><ele>696.0</ele><time>2026-04-28T14:39:45.99Z</time></trkpt><trkpt lat="40.218068083245036" lon="9.552949466675491"><ele>702.0</ele><time>2026-04-28T14:39:46.99Z</time></trkpt><trkpt lat="40.21828151470013" lon="9.552961237843377"><ele>708.0</ele><time>2026-04-28T14:39:47.99Z</time></trkpt><trkpt lat="40.218471869283285" lon="9.552992469032267"><ele>714.0</ele><time>2026-04-28T14:39:48.99Z</time></trkpt><trkpt lat="40.21863682764918" lon="9.553125858914518"><ele>714.0</ele><time>2026-04-28T14:39:49.99Z</time></trkpt><trkpt lat="40.21879925786566" lon="9.553269991377634"><ele>714.0</ele><time>2026-04-28T14:39:50.99Z</time></trkpt><trkpt lat="40.218985997450325" lon="9.5533478638216"><ele>714.0</ele><time>2026-04-28T14:39:51.99Z</time></trkpt><trkpt lat="40.219173385108206" lon="9.553390343692154"><ele>720.3333333333334</ele><time>2026-04-28T14:39:52.99Z</time></trkpt><trkpt lat="40.21931573406088" lon="9.553498863882524"><ele>726.6666666666667</ele><time>2026-04-28T14:39:53.99Z</time></trkpt><trkpt lat="40.219397377282576" lon="9.553674744893097"><ele>733.0</ele><time>2026-04-28T14:39:54.99Z</time></trkpt><trkpt lat="40.21947388740688" lon="9.553891446999867"><ele>733.0</ele><time>2026-04-28T14:39:55.99Z</time></trkpt><trkpt lat="40.219598952848735" lon="9.553976212983503"><ele>733.0</ele><time>2026-04-28T14:39:56.99Z</time></trkpt><trkpt lat="40.2197803479245" lon="9.554000429508058"><ele>733.0</ele><time>2026-04-28T14:39:57.99Z</time></trkpt><trkpt lat="40.21998456236908" lon="9.554002948263953"><ele>722.0</ele><time>2026-04-28T14:39:58.99Z</time></trkpt><trkpt lat="40.22020223366149" lon="9.554018042848169"><ele>711.0</ele><time>2026-04-28T14:39:59.99Z</time></trkpt><trkpt lat="40.2204137229477" lon="9.554021760266998"><ele>700.0</ele><time>2026-04-28T14:40:00.99Z</time></trkpt><trkpt lat="40.22060879657683" lon="9.55402184351009"><ele>697.6666666666667</ele><time>2026-04-28T14:40:01.99Z</time></trkpt><trkpt lat="40.22079083354628" lon="9.553964863641527"><ele>695.3333333333334</ele><time>2026-04-28T14:40:02.99Z</time></trkpt><trkpt lat="40.22095562980954" lon="9.553837790256038"><ele>693.0</ele><time>2026-04-28T14:40:03.99Z</time></trkpt><trkpt lat="40.221130451381384" lon="9.55380501590771"><ele>693.0</ele><time>2026-04-28T14:40:04.99Z</time></trkpt><trkpt lat="40.22133514717224" lon="9.553841638090056"><ele>693.0</ele><time>2026-04-28T14:40:05.99Z</time></trkpt><trkpt lat="40.22154945023738" lon="9.55385729993156"><ele>693.0</ele><time>2026-04-28T14:40:06.99Z</time></trkpt><trkpt lat="40.22175722913789" lon="9.553869984288374"><ele>690.3333333333334</ele><time>2026-04-28T14:40:07.99Z</time></trkpt><trkpt lat="40.22195122736438" lon="9.553879702607283"><ele>687.6666666666667</ele><time>2026-04-28T14:40:08.99Z</time></trkpt><trkpt lat="40.22213069307226" lon="9.553878710647828"><ele>685.0</ele><time>2026-04-28T14:40:09.99Z</time></trkpt><trkpt lat="40.222311033313595" lon="9.553849578209116"><ele>684.3333333333334</ele><time>2026-04-28T14:40:10.99Z</time></trkpt><trkpt lat="40.22250115675938" lon="9.5538379780854"><ele>683.6666666666666</ele><time>2026-04-28T14:40:11.99Z</time></trkpt><trkpt lat="40.22270088761309" lon="9.553887247174096"><ele>683.0</ele><time>2026-04-28T14:40:12.99Z</time></trkpt><trkpt lat="40.22290775392054" lon="9.553955398848931"><ele>683.0</ele><time>2026-04-28T14:40:13.99Z</time></trkpt><trkpt lat="40.22311562215925" lon="9.5539829882873"><ele>683.0</ele><time>2026-04-28T14:40:14.99Z</time></trkpt><trkpt lat="40.22332186261178" lon="9.553958324376595"><ele>683.0</ele><time>2026-04-28T14:40:15.99Z</time></trkpt><trkpt lat="40.223529030208006" lon="9.553904312134975"><ele>680.6666666666666</ele><time>2026-04-28T14:40:16.99Z</time></trkpt><trkpt lat="40.22373599490037" lon="9.553901714926607"><ele>678.3333333333334</ele><time>2026-04-28T14:40:17.99Z</time></trkpt><trkpt lat="40.22393794921862" lon="9.553937153751566"><ele>676.0</ele><time>2026-04-28T14:40:18.99Z</time></trkpt><trkpt lat="40.22412526797426" lon="9.554022818900407"><ele>671.3333333333334</ele><time>2026-04-28T14:40:19.99Z</time></trkpt><trkpt lat="40.22432194556436" lon="9.554130995663868"><ele>666.6666666666666</ele><time>2026-04-28T14:40:20.99Z</time></trkpt><trkpt lat="40.224530420682896" lon="9.554217544971301"><ele>662.0</ele><time>2026-04-28T14:40:21.99Z</time></trkpt><trkpt lat="40.22474622980452" lon="9.554280895586482"><ele>664.3333333333333</ele><time>2026-04-28T14:40:22.99Z</time></trkpt><trkpt lat="40.22496211472291" lon="9.554385866140331"><ele>666.6666666666666</ele><time>2026-04-28T14:40:23.99Z</time></trkpt><trkpt lat="40.22515546011111" lon="9.554512839857221"><ele>669.0</ele><time>2026-04-28T14:40:24.99Z</time></trkpt><trkpt lat="40.225324604313734" lon="9.554656437574213"><ele>669.0</ele><time>2026-04-28T14:40:25.99Z</time></trkpt><trkpt lat="40.22545742468797" lon="9.554813169861696"><ele>669.0</ele><time>2026-04-28T14:40:26.99Z</time></trkpt><trkpt lat="40.2255934085706" lon="9.554930029155846"><ele>669.0</ele><time>2026-04-28T14:40:27.99Z</time></trkpt><trkpt lat="40.22576600784184" lon="9.554955487919194"><ele>661.0</ele><time>2026-04-28T14:40:28.99Z</time></trkpt><trkpt lat="40.22598064767209" lon="9.55498513289562"><ele>653.0</ele><time>2026-04-28T14:40:29.99Z</time></trkpt><trkpt lat="40.22624255648527" lon="9.555051028752384"><ele>644.5</ele><time>2026-04-28T14:40:30.99Z</time></trkpt><trkpt lat="40.22649705513025" lon="9.555143333467234"><ele>636.0</ele><time>2026-04-28T14:40:31.99Z</time></trkpt><trkpt lat="40.22675756152759" lon="9.555249570657567"><ele>636.0</ele><time>2026-04-28T14:40:32.99Z</time></trkpt><trkpt lat="40.22701845207946" lon="9.555355580501125"><ele>636.0</ele><time>2026-04-28T14:40:33.99Z</time></trkpt><trkpt lat="40.22726886926095" lon="9.555449776496314"><ele>648.5</ele><time>2026-04-28T14:40:34.99Z</time></trkpt><trkpt lat="40.227510223563776" lon="9.55553616125744"><ele>661.0</ele><time>2026-04-28T14:40:35.99Z</time></trkpt><trkpt lat="40.22773135507587" lon="9.555641346522739"><ele>661.0</ele><time>2026-04-28T14:40:36.99Z</time></trkpt><trkpt lat="40.227927146760294" lon="9.55581634330139"><ele>661.0</ele><time>2026-04-28T14:40:37.99Z</time></trkpt><trkpt lat="40.228116290504055" lon="9.55601216422902"><ele>663.5</ele><time>2026-04-28T14:40:38.99Z</time></trkpt><trkpt lat="40.22832205957637" lon="9.556150129346097"><ele>666.0</ele><time>2026-04-28T14:40:39.99Z</time></trkpt><trkpt lat="40.228529991258604" lon="9.556239357896608"><ele>666.0</ele><time>2026-04-28T14:40:40.99Z</time></trkpt><trkpt lat="40.228734609037595" lon="9.556324014021886"><ele>666.0</ele><time>2026-04-28T14:40:41.99Z</time></trkpt><trkpt lat="40.228905729963984" lon="9.556388594223103"><ele>666.0</ele><time>2026-04-28T14:40:42.99Z</time></trkpt><trkpt lat="40.22904372075631" lon="9.556388432570378"><ele>663.0</ele><time>2026-04-28T14:40:43.99Z</time></trkpt><trkpt lat="40.2291592227164" lon="9.556293782813261"><ele>660.0</ele><time>2026-04-28T14:40:44.99Z</time></trkpt><trkpt lat="40.22926306673715" lon="9.55617880227313"><ele>657.0</ele><time>2026-04-28T14:40:45.99Z</time></trkpt><trkpt lat="40.229393884379235" lon="9.55612453607291"><ele>654.0</ele><time>2026-04-28T14:40:46.99Z</time></trkpt><trkpt lat="40.22951775873599" lon="9.5561672151361"><ele>654.0</ele><time>2026-04-28T14:40:47.99Z</time></trkpt><trkpt lat="40.22963917610099" lon="9.556297093978017"><ele>654.0</ele><time>2026-04-28T14:40:48.99Z</time></trkpt><trkpt lat="40.229778728369645" lon="9.556463864775774"><ele>654.0</ele><time>2026-04-28T14:40:49.99Z</time></trkpt><trkpt lat="40.229963939379594" lon="9.556612378960185"><ele>645.5</ele><time>2026-04-28T14:40:50.99Z</time></trkpt><trkpt lat="40.23018011604127" lon="9.556735484733348"><ele>637.0</ele><time>2026-04-28T14:40:51.99Z</time></trkpt><trkpt lat="40.23041614267611" lon="9.5568214129402"><ele>637.0</ele><time>2026-04-28T14:40:52.99Z</time></trkpt><trkpt lat="40.23064094529917" lon="9.556862238676445"><ele>637.0</ele><time>2026-04-28T14:40:53.99Z</time></trkpt><trkpt lat="40.230844362307586" lon="9.556892426955844"><ele>637.0</ele><time>2026-04-28T14:40:54.99Z</time></trkpt><trkpt lat="40.23100877354311" lon="9.556993019766187"><ele>643.6666666666667</ele><time>2026-04-28T14:40:55.99Z</time></trkpt><trkpt lat="40.231131759097515" lon="9.557188176110376"><ele>650.3333333333334</ele><time>2026-04-28T14:40:56.99Z</time></trkpt><trkpt lat="40.231239363063516" lon="9.557382227035001"><ele>657.0</ele><time>2026-04-28T14:40:57.99Z</time></trkpt><trkpt lat="40.23135560538854" lon="9.55753610183651"><ele>648.0</ele><time>2026-04-28T14:40:58.99Z</time></trkpt><trkpt lat="40.23149080465413" lon="9.557589079560266"><ele>639.0</ele><time>2026-04-28T14:40:59.99Z</time></trkpt><trkpt lat="40.231648456097375" lon="9.557548458913011"><ele>630.0</ele><time>2026-04-28T14:41:00.99Z</time></trkpt><trkpt lat="40.23182683596871" lon="9.557505238024028"><ele>630.0</ele><time>2026-04-28T14:41:01.99Z</time></trkpt><trkpt lat="40.23202344460605" lon="9.557554670935085"><ele>630.0</ele><time>2026-04-28T14:41:02.99Z</time></trkpt><trkpt lat="40.232222988657796" lon="9.557642056313878"><ele>630.0</ele><time>2026-04-28T14:41:03.99Z</time></trkpt><trkpt lat="40.23242535867803" lon="9.557737658420558"><ele>626.6666666666666</ele><time>2026-04-28T14:41:04.99Z</time></trkpt><trkpt lat="40.23261384498344" lon="9.557835273690616"><ele>623.3333333333333</ele><time>2026-04-28T14:41:05.99Z</time></trkpt><trkpt lat="40.23278043674016" lon="9.557937808714852"><ele>620.0</ele><time>2026-04-28T14:41:06.99Z</time></trkpt><trkpt lat="40.23292334947667" lon="9.558046316401542"><ele>630.3333333333333</ele><time>2026-04-28T14:41:07.99Z</time></trkpt><trkpt lat="40.233031910017935" lon="9.558186303405016"><ele>640.6666666666666</ele><time>2026-04-28T14:41:08.99Z</time></trkpt><trkpt lat="40.23308166162401" lon="9.558365841430486"><ele>651.0</ele><time>2026-04-28T14:41:09.99Z</time></trkpt><trkpt lat="40.233122007128976" lon="9.558567544622868"><ele>648.6666666666666</ele><time>2026-04-28T14:41:11.006Z</time></trkpt><trkpt lat="40.23322218810006" lon="9.558713736396877"><ele>646.3333333333333</ele><time>2026-04-28T14:41:12.006Z</time></trkpt><trkpt lat="40.233366192047896" lon="9.558805023085297"><ele>644.0</ele><time>2026-04-28T14:41:13.006Z</time></trkpt><trkpt lat="40.23350179016416" lon="9.55889300889724"><ele>644.0</ele><time>2026-04-28T14:41:14.006Z</time></trkpt><trkpt lat="40.23360747088566" lon="9.559006719408591"><ele>644.0</ele><time>2026-04-28T14:41:15.006Z</time></trkpt><trkpt lat="40.23371052737336" lon="9.559139703512274"><ele>644.0</ele><time>2026-04-28T14:41:16.006Z</time></trkpt><trkpt lat="40.23383865438453" lon="9.559288291932342"><ele>642.0</ele><time>2026-04-28T14:41:17.006Z</time></trkpt><trkpt lat="40.23398690742656" lon="9.559429679018232"><ele>640.0</ele><time>2026-04-28T14:41:18.006Z</time></trkpt><trkpt lat="40.23414390513297" lon="9.559562676935728"><ele>638.0</ele><time>2026-04-28T14:41:19.006Z</time></trkpt><trkpt lat="40.23427301010781" lon="9.559689974590006"><ele>638.0</ele><time>2026-04-28T14:41:20.006Z</time></trkpt><trkpt lat="40.234412019804346" lon="9.559812210900096"><ele>638.0</ele><time>2026-04-28T14:41:21.006Z</time></trkpt><trkpt lat="40.23454516297243" lon="9.55992163737951"><ele>638.0</ele><time>2026-04-28T14:41:22.006Z</time></trkpt><trkpt lat="40.23467274954815" lon="9.560031852436776"><ele>638.0</ele><time>2026-04-28T14:41:23.006Z</time></trkpt><trkpt lat="40.23479121395252" lon="9.560141017478688"><ele>638.0</ele><time>2026-04-28T14:41:24.006Z</time></trkpt><trkpt lat="40.234918230766496" lon="9.560251479627864"><ele>638.0</ele><time>2026-04-28T14:41:25.006Z</time></trkpt><trkpt lat="40.23506891133461" lon="9.560337492555286"><ele>642.0</ele><time>2026-04-28T14:41:26.006Z</time></trkpt><trkpt lat="40.23524887070287" lon="9.560387798313412"><ele>646.0</ele><time>2026-04-28T14:41:27.006Z</time></trkpt><trkpt lat="40.23540198002126" lon="9.56044716672725"><ele>650.0</ele><time>2026-04-28T14:41:28.006Z</time></trkpt><trkpt lat="40.23554072769879" lon="9.560499475253925"><ele>641.75</ele><time>2026-04-28T14:41:29.006Z</time></trkpt><trkpt lat="40.23567481076566" lon="9.560562042800862"><ele>633.5</ele><time>2026-04-28T14:41:30.006Z</time></trkpt><trkpt lat="40.23578879023088" lon="9.560645822459868"><ele>625.25</ele><time>2026-04-28T14:41:31.006Z</time></trkpt><trkpt lat="40.23592521130299" lon="9.56074703934367"><ele>617.0</ele><time>2026-04-28T14:41:32.006Z</time></trkpt><trkpt lat="40.236073501915094" lon="9.56087636444595"><ele>617.0</ele><time>2026-04-28T14:41:33.006Z</time></trkpt><trkpt lat="40.23621595902755" lon="9.56105064023226"><ele>617.0</ele><time>2026-04-28T14:41:34.005Z</time></trkpt><trkpt lat="40.23634327141198" lon="9.561246373005593"><ele>617.0</ele><time>2026-04-28T14:41:35.005Z</time></trkpt><trkpt lat="40.23647671197717" lon="9.561442771103499"><ele>614.5</ele><time>2026-04-28T14:41:36.005Z</time></trkpt><trkpt lat="40.23664650541763" lon="9.561621774322042"><ele>612.0</ele><time>2026-04-28T14:41:37.005Z</time></trkpt><trkpt lat="40.23687175732089" lon="9.561844896818423"><ele>628.0</ele><time>2026-04-28T14:41:38.005Z</time></trkpt><trkpt lat="40.23710604801107" lon="9.562093832747347"><ele>644.0</ele><time>2026-04-28T14:41:39.005Z</time></trkpt><trkpt lat="40.23724392637737" lon="9.562213818561109"><ele>623.5</ele><time>2026-04-28T14:41:40.005Z</time></trkpt><trkpt lat="40.23747715850186" lon="9.562407523505371"><ele>603.0</ele><time>2026-04-28T14:41:41.005Z</time></trkpt><trkpt lat="40.237690604234814" lon="9.562603076262667"><ele>603.0</ele><time>2026-04-28T14:41:42.005Z</time></trkpt><trkpt lat="40.23786896142174" lon="9.562838417790061"><ele>603.0</ele><time>2026-04-28T14:41:43.005Z</time></trkpt><trkpt lat="40.238016248626515" lon="9.563104035193717"><ele>592.5</ele><time>2026-04-28T14:41:44.005Z</time></trkpt><trkpt lat="40.23814110410736" lon="9.563381122357686"><ele>582.0</ele><time>2026-04-28T14:41:45.005Z</time></trkpt><trkpt lat="40.23823693953579" lon="9.563682422879694"><ele>600.5</ele><time>2026-04-28T14:41:46.005Z</time></trkpt><trkpt lat="40.238318816941984" lon="9.563976812791756"><ele>619.0</ele><time>2026-04-28T14:41:47.005Z</time></trkpt><trkpt lat="40.23844304333231" lon="9.564242768365776"><ele>619.0</ele><time>2026-04-28T14:41:48.005Z</time></trkpt><trkpt lat="40.238612126032606" lon="9.564482724729315"><ele>619.0</ele><time>2026-04-28T14:41:49.005Z</time></trkpt><trkpt lat="40.23881753780663" lon="9.564688857843908"><ele>613.0</ele><time>2026-04-28T14:41:50.005Z</time></trkpt><trkpt lat="40.239030188777406" lon="9.564845578376657"><ele>607.0</ele><time>2026-04-28T14:41:51.005Z</time></trkpt><trkpt lat="40.23926349464453" lon="9.564940873159516"><ele>607.0</ele><time>2026-04-28T14:41:52.005Z</time></trkpt><trkpt lat="40.23947358413609" lon="9.56501962831461"><ele>607.0</ele><time>2026-04-28T14:41:53.005Z</time></trkpt><trkpt lat="40.23965191835772" lon="9.565205427847848"><ele>607.0</ele><time>2026-04-28T14:41:54.005Z</time></trkpt><trkpt lat="40.239807919940404" lon="9.565437484866466"><ele>605.5</ele><time>2026-04-28T14:41:55.005Z</time></trkpt><trkpt lat="40.24000368573125" lon="9.565603053586484"><ele>604.0</ele><time>2026-04-28T14:41:56.005Z</time></trkpt><trkpt lat="40.2402417821689" lon="9.56574162487774"><ele>604.0</ele><time>2026-04-28T14:41:57.005Z</time></trkpt><trkpt lat="40.240469673834916" lon="9.565869456401126"><ele>604.0</ele><time>2026-04-28T14:41:58.005Z</time></trkpt><trkpt lat="40.24072665668068" lon="9.565974818635027"><ele>587.0</ele><time>2026-04-28T14:41:59.005Z</time></trkpt><trkpt lat="40.24102629129576" lon="9.566072671087014"><ele>570.0</ele><time>2026-04-28T14:42:00.005Z</time></trkpt><trkpt lat="40.241292122670785" lon="9.566175069227535"><ele>573.5</ele><time>2026-04-28T14:42:01.005Z</time></trkpt><trkpt lat="40.24152824312036" lon="9.566315588360007"><ele>577.0</ele><time>2026-04-28T14:42:02.005Z</time></trkpt><trkpt lat="40.24174559478726" lon="9.56652738546933"><ele>577.0</ele><time>2026-04-28T14:42:03.005Z</time></trkpt><trkpt lat="40.241901123527725" lon="9.566756085406121"><ele>577.0</ele><time>2026-04-28T14:42:04.005Z</time></trkpt><trkpt lat="40.2419827135922" lon="9.567008821577588"><ele>577.0</ele><time>2026-04-28T14:42:05.005Z</time></trkpt><trkpt lat="40.24200279319716" lon="9.567275241082573"><ele>584.0</ele><time>2026-04-28T14:42:06.005Z</time></trkpt><trkpt lat="40.24203646624198" lon="9.567488582085312"><ele>591.0</ele><time>2026-04-28T14:42:07.005Z</time></trkpt><trkpt lat="40.242146016036195" lon="9.56764943528792"><ele>598.0</ele><time>2026-04-28T14:42:08.005Z</time></trkpt><trkpt lat="40.242348584468665" lon="9.567802507687405"><ele>597.0</ele><time>2026-04-28T14:42:09.005Z</time></trkpt><trkpt lat="40.242631173129084" lon="9.567974581097149"><ele>596.0</ele><time>2026-04-28T14:42:10.005Z</time></trkpt><trkpt lat="40.24292424001658" lon="9.568160602324204"><ele>576.5</ele><time>2026-04-28T14:42:11.006Z</time></trkpt><trkpt lat="40.243156584091004" lon="9.568355293153811"><ele>557.0</ele><time>2026-04-28T14:42:12.006Z</time></trkpt><trkpt lat="40.24340607646598" lon="9.568504695159243"><ele>557.0</ele><time>2026-04-28T14:42:13.006Z</time></trkpt><trkpt lat="40.243663820326354" lon="9.568598465590048"><ele>557.0</ele><time>2026-04-28T14:42:14.007Z</time></trkpt><trkpt lat="40.24387174392781" lon="9.568675396615166"><ele>560.5</ele><time>2026-04-28T14:42:15.006Z</time></trkpt><trkpt lat="40.24405869163496" lon="9.568829154228382"><ele>564.0</ele><time>2026-04-28T14:42:16.006Z</time></trkpt><trkpt lat="40.24425827759487" lon="9.569076234474831"><ele>564.0</ele><time>2026-04-28T14:42:17.006Z</time></trkpt><trkpt lat="40.24446075046437" lon="9.569312168280462"><ele>564.0</ele><time>2026-04-28T14:42:18.006Z</time></trkpt><trkpt lat="40.24465373416956" lon="9.56953883980288"><ele>563.5</ele><time>2026-04-28T14:42:19.006Z</time></trkpt><trkpt lat="40.24485715961392" lon="9.569748033337326"><ele>563.0</ele><time>2026-04-28T14:42:20.006Z</time></trkpt><trkpt lat="40.24504553303201" lon="9.569970523405377"><ele>563.0</ele><time>2026-04-28T14:42:21.006Z</time></trkpt><trkpt lat="40.24519662762395" lon="9.570193667501574"><ele>563.0</ele><time>2026-04-28T14:42:22.006Z</time></trkpt><trkpt lat="40.245352099982526" lon="9.57038977348654"><ele>563.0</ele><time>2026-04-28T14:42:23.006Z</time></trkpt><trkpt lat="40.24554535110715" lon="9.570548519039152"><ele>560.0</ele><time>2026-04-28T14:42:24.006Z</time></trkpt><trkpt lat="40.24576161180319" lon="9.570726840038379"><ele>557.0</ele><time>2026-04-28T14:42:25.006Z</time></trkpt><trkpt lat="40.24596665582945" lon="9.570912456813385"><ele>557.0</ele><time>2026-04-28T14:42:26.006Z</time></trkpt><trkpt lat="40.24617207024104" lon="9.571097433342905"><ele>557.0</ele><time>2026-04-28T14:42:27.006Z</time></trkpt><trkpt lat="40.24639844588059" lon="9.571265274798689"><ele>558.5</ele><time>2026-04-28T14:42:28.006Z</time></trkpt><trkpt lat="40.24661261186988" lon="9.571416873067214"><ele>560.0</ele><time>2026-04-28T14:42:29.006Z</time></trkpt><trkpt lat="40.24679899492885" lon="9.571572987010365"><ele>560.0</ele><time>2026-04-28T14:42:30.006Z</time></trkpt><trkpt lat="40.246942536153306" lon="9.571749437512999"><ele>560.0</ele><time>2026-04-28T14:42:31.006Z</time></trkpt><trkpt lat="40.24707536273056" lon="9.571895387782378"><ele>560.0</ele><time>2026-04-28T14:42:32.006Z</time></trkpt><trkpt lat="40.24724989799221" lon="9.571989539118816"><ele>567.3333333333333</ele><time>2026-04-28T14:42:33.006Z</time></trkpt><trkpt lat="40.247465906574" lon="9.572008379709878"><ele>574.6666666666666</ele><time>2026-04-28T14:42:34.006Z</time></trkpt><trkpt lat="40.247655123369036" lon="9.572016434243851"><ele>582.0</ele><time>2026-04-28T14:42:35.006Z</time></trkpt><trkpt lat="40.24783460291887" lon="9.572077343541693"><ele>582.0</ele><time>2026-04-28T14:42:36.006Z</time></trkpt><trkpt lat="40.24803672184024" lon="9.572245055435975"><ele>582.0</ele><time>2026-04-28T14:42:37.006Z</time></trkpt><trkpt lat="40.24822914791158" lon="9.572444909725826"><ele>563.5</ele><time>2026-04-28T14:42:38.006Z</time></trkpt><trkpt lat="40.24842476501464" lon="9.572639354527798"><ele>545.0</ele><time>2026-04-28T14:42:39.006Z</time></trkpt><trkpt lat="40.24862224649124" lon="9.572805988464983"><ele>553.0</ele><time>2026-04-28T14:42:40.006Z</time></trkpt><trkpt lat="40.24883566494159" lon="9.57290426628445"><ele>561.0</ele><time>2026-04-28T14:42:41.006Z</time></trkpt><trkpt lat="40.249061308107066" lon="9.572998999344996"><ele>561.0</ele><time>2026-04-28T14:42:42.006Z</time></trkpt><trkpt lat="40.24929227954306" lon="9.572997960755666"><ele>561.0</ele><time>2026-04-28T14:42:43.006Z</time></trkpt><trkpt lat="40.249497779462246" lon="9.57296714571597"><ele>561.0</ele><time>2026-04-28T14:42:44.006Z</time></trkpt><trkpt lat="40.24969081207156" lon="9.572986017111417"><ele>552.6666666666666</ele><time>2026-04-28T14:42:45.006Z</time></trkpt><trkpt lat="40.249881038262764" lon="9.573090505385325"><ele>544.3333333333333</ele><time>2026-04-28T14:42:46.006Z</time></trkpt><trkpt lat="40.250082862086174" lon="9.573238418239091"><ele>536.0</ele><time>2026-04-28T14:42:47.006Z</time></trkpt><trkpt lat="40.2502869051414" lon="9.57338907497933"><ele>536.0</ele><time>2026-04-28T14:42:48.006Z</time></trkpt><trkpt lat="40.250490176131485" lon="9.573490215564378"><ele>536.0</ele><time>2026-04-28T14:42:49.006Z</time></trkpt><trkpt lat="40.25068636438484" lon="9.573525650711543"><ele>536.0</ele><time>2026-04-28T14:42:50.006Z</time></trkpt><trkpt lat="40.250840360770646" lon="9.573565071225305"><ele>541.6666666666666</ele><time>2026-04-28T14:42:51.006Z</time></trkpt><trkpt lat="40.2509793626039" lon="9.573699804968307"><ele>547.3333333333334</ele><time>2026-04-28T14:42:52.006Z</time></trkpt><trkpt lat="40.25112321168374" lon="9.573877081432363"><ele>553.0</ele><time>2026-04-28T14:42:53.006Z</time></trkpt><trkpt lat="40.25130482772281" lon="9.573963898399137"><ele>546.3333333333334</ele><time>2026-04-28T14:42:54.006Z</time></trkpt><trkpt lat="40.25151933098246" lon="9.573990965023484"><ele>539.6666666666666</ele><time>2026-04-28T14:42:55.006Z</time></trkpt><trkpt lat="40.25173242496206" lon="9.574093689516475"><ele>533.0</ele><time>2026-04-28T14:42:56.006Z</time></trkpt><trkpt lat="40.25192284102874" lon="9.57428131069132"><ele>533.0</ele><time>2026-04-28T14:42:57.006Z</time></trkpt><trkpt lat="40.252121484998135" lon="9.574423168375667"><ele>533.0</ele><time>2026-04-28T14:42:58.006Z</time></trkpt><trkpt lat="40.25237055588299" lon="9.574494698731094"><ele>538.5</ele><time>2026-04-28T14:42:59.006Z</time></trkpt><trkpt lat="40.25262505073089" lon="9.57462380874501"><ele>544.0</ele><time>2026-04-28T14:43:00.006Z</time></trkpt><trkpt lat="40.25287359909057" lon="9.574781290921775"><ele>544.0</ele><time>2026-04-28T14:43:01.006Z</time></trkpt><trkpt lat="40.25311183894272" lon="9.574916208500252"><ele>544.0</ele><time>2026-04-28T14:43:02.006Z</time></trkpt><trkpt lat="40.25333543790506" lon="9.575016057532245"><ele>535.0</ele><time>2026-04-28T14:43:03.006Z</time></trkpt><trkpt lat="40.253561853138706" lon="9.5750835930313"><ele>526.0</ele><time>2026-04-28T14:43:04.006Z</time></trkpt><trkpt lat="40.25378545286034" lon="9.575089436592151"><ele>517.6666666666667</ele><time>2026-04-28T14:43:05.006Z</time></trkpt><trkpt lat="40.25399075209828" lon="9.57510618248948"><ele>509.33333333333337</ele><time>2026-04-28T14:43:06.006Z</time></trkpt><trkpt lat="40.25416497254159" lon="9.575114008512886"><ele>501.0</ele><time>2026-04-28T14:43:07.006Z</time></trkpt><trkpt lat="40.25431144514744" lon="9.575160176827914"><ele>501.0</ele><time>2026-04-28T14:43:08.006Z</time></trkpt><trkpt lat="40.25442849368732" lon="9.575290631000916"><ele>501.0</ele><time>2026-04-28T14:43:09.006Z</time></trkpt><trkpt lat="40.254501709970434" lon="9.575509114094642"><ele>501.0</ele><time>2026-04-28T14:43:10.006Z</time></trkpt><trkpt lat="40.25456098874311" lon="9.575785005794154"><ele>498.66666666666663</ele><time>2026-04-28T14:43:11.006Z</time></trkpt><trkpt lat="40.25467230930083" lon="9.575967907126428"><ele>496.3333333333333</ele><time>2026-04-28T14:43:12.006Z</time></trkpt><trkpt lat="40.25483041158288" lon="9.576152068306861"><ele>494.0</ele><time>2026-04-28T14:43:13.006Z</time></trkpt><trkpt lat="40.25501810557005" lon="9.576345301227118"><ele>503.66666666666663</ele><time>2026-04-28T14:43:14.006Z</time></trkpt><trkpt lat="40.25520473199328" lon="9.57653458070198"><ele>513.3333333333334</ele><time>2026-04-28T14:43:15.006Z</time></trkpt><trkpt lat="40.25532142761943" lon="9.57674876859198"><ele>523.0</ele><time>2026-04-28T14:43:16.006Z</time></trkpt><trkpt lat="40.255463992061344" lon="9.576905035055887"><ele>528.5</ele><time>2026-04-28T14:43:17.006Z</time></trkpt><trkpt lat="40.25567778544157" lon="9.576988585665488"><ele>534.0</ele><time>2026-04-28T14:43:18.006Z</time></trkpt><trkpt lat="40.25593279369588" lon="9.57702615106523"><ele>534.0</ele><time>2026-04-28T14:43:19.006Z</time></trkpt><trkpt lat="40.25617787404626" lon="9.577097880991047"><ele>534.0</ele><time>2026-04-28T14:43:20.006Z</time></trkpt><trkpt lat="40.25639587810401" lon="9.577201675756525"><ele>524.5</ele><time>2026-04-28T14:43:21.006Z</time></trkpt><trkpt lat="40.25661790622736" lon="9.577273872925263"><ele>515.0</ele><time>2026-04-28T14:43:22.006Z</time></trkpt><trkpt lat="40.25687079811845" lon="9.577263897902549"><ele>515.0</ele><time>2026-04-28T14:43:23.006Z</time></trkpt><trkpt lat="40.25711113957811" lon="9.577252102997777"><ele>515.0</ele><time>2026-04-28T14:43:24.006Z</time></trkpt><trkpt lat="40.25733157626535" lon="9.57727539279959"><ele>507.0</ele><time>2026-04-28T14:43:25.006Z</time></trkpt><trkpt lat="40.25756913048078" lon="9.577368894895407"><ele>499.0</ele><time>2026-04-28T14:43:26.006Z</time></trkpt><trkpt lat="40.25780600481568" lon="9.57747128057413"><ele>499.0</ele><time>2026-04-28T14:43:27.006Z</time></trkpt><trkpt lat="40.25805596698668" lon="9.577515607783083"><ele>499.0</ele><time>2026-04-28T14:43:28.006Z</time></trkpt><trkpt lat="40.25829745283926" lon="9.577542491494324"><ele>489.0</ele><time>2026-04-28T14:43:29.006Z</time></trkpt><trkpt lat="40.258532695719275" lon="9.577576334227428"><ele>479.0</ele><time>2026-04-28T14:43:30.006Z</time></trkpt><trkpt lat="40.25874370041459" lon="9.577648099255015"><ele>479.0</ele><time>2026-04-28T14:43:31.006Z</time></trkpt><trkpt lat="40.25893487906679" lon="9.577748748861362"><ele>479.0</ele><time>2026-04-28T14:43:32.006Z</time></trkpt><trkpt lat="40.25911784431115" lon="9.57781726019204"><ele>479.0</ele><time>2026-04-28T14:43:33.006Z</time></trkpt><trkpt lat="40.259292759383484" lon="9.577777148288808"><ele>476.5</ele><time>2026-04-28T14:43:34.006Z</time></trkpt><trkpt lat="40.25943558682725" lon="9.577726602124963"><ele>474.0</ele><time>2026-04-28T14:43:35.006Z</time></trkpt><trkpt lat="40.25955377927031" lon="9.57777796826462"><ele>471.5</ele><time>2026-04-28T14:43:36.006Z</time></trkpt><trkpt lat="40.25968144728857" lon="9.577920007791185"><ele>469.0</ele><time>2026-04-28T14:43:37.006Z</time></trkpt><trkpt lat="40.259770994385214" lon="9.578085003652056"><ele>470.33333333333337</ele><time>2026-04-28T14:43:38.006Z</time></trkpt><trkpt lat="40.25982301694606" lon="9.578303914666881"><ele>471.66666666666663</ele><time>2026-04-28T14:43:39.006Z</time></trkpt><trkpt lat="40.259877217791406" lon="9.57850835147315"><ele>473.0</ele><time>2026-04-28T14:43:40.006Z</time></trkpt><trkpt lat="40.25998384689489" lon="9.578613622565834"><ele>473.0</ele><time>2026-04-28T14:43:41.006Z</time></trkpt><trkpt lat="40.26018850242198" lon="9.578665132700781"><ele>473.0</ele><time>2026-04-28T14:43:42.006Z</time></trkpt><trkpt lat="40.26044562268666" lon="9.578731678887904"><ele>480.5</ele><time>2026-04-28T14:43:43.006Z</time></trkpt><trkpt lat="40.26070621603993" lon="9.57881437908022"><ele>488.0</ele><time>2026-04-28T14:43:44.006Z</time></trkpt><trkpt lat="40.260951099947796" lon="9.57892966272759"><ele>488.0</ele><time>2026-04-28T14:43:45.006Z</time></trkpt><trkpt lat="40.261167682620766" lon="9.579059657017936"><ele>488.0</ele><time>2026-04-28T14:43:46.006Z</time></trkpt><trkpt lat="40.261376660354976" lon="9.579192182498625"><ele>482.66666666666663</ele><time>2026-04-28T14:43:47.006Z</time></trkpt><trkpt lat="40.26159199482062" lon="9.579260029219691"><ele>477.33333333333337</ele><time>2026-04-28T14:43:48.006Z</time></trkpt><trkpt lat="40.261791593608265" lon="9.579234556772114"><ele>472.0</ele><time>2026-04-28T14:43:49.006Z</time></trkpt><trkpt lat="40.26195859286085" lon="9.579229826459242"><ele>472.0</ele><time>2026-04-28T14:43:50.006Z</time></trkpt><trkpt lat="40.26211196424778" lon="9.5793391387047"><ele>472.0</ele><time>2026-04-28T14:43:51.006Z</time></trkpt><trkpt lat="40.262281148966444" lon="9.579489989595377"><ele>472.0</ele><time>2026-04-28T14:43:52.006Z</time></trkpt><trkpt lat="40.26247724513499" lon="9.57964343665379"><ele>479.33333333333337</ele><time>2026-04-28T14:43:53.006Z</time></trkpt><trkpt lat="40.26266800450614" lon="9.579728088641131"><ele>486.66666666666663</ele><time>2026-04-28T14:43:54.006Z</time></trkpt><trkpt lat="40.26287233066312" lon="9.579785890072118"><ele>494.0</ele><time>2026-04-28T14:43:55.006Z</time></trkpt><trkpt lat="40.26309940578399" lon="9.57978284025383"><ele>491.66666666666663</ele><time>2026-04-28T14:43:56.006Z</time></trkpt><trkpt lat="40.26333192238058" lon="9.579789844590186"><ele>489.33333333333337</ele><time>2026-04-28T14:43:57.006Z</time></trkpt><trkpt lat="40.26353308194741" lon="9.579812800007018"><ele>487.0</ele><time>2026-04-28T14:43:58.006Z</time></trkpt><trkpt lat="40.26371208188543" lon="9.579789706655848"><ele>487.0</ele><time>2026-04-28T14:43:59.006Z</time></trkpt><trkpt lat="40.263867894604054" lon="9.57972119217444"><ele>487.0</ele><time>2026-04-28T14:44:00.006Z</time></trkpt><trkpt lat="40.26404881372205" lon="9.579722233306939"><ele>487.0</ele><time>2026-04-28T14:44:01.006Z</time></trkpt><trkpt lat="40.26423613793036" lon="9.579800778801673"><ele>484.33333333333337</ele><time>2026-04-28T14:44:02.006Z</time></trkpt><trkpt lat="40.26443189317362" lon="9.579893261352654"><ele>481.66666666666663</ele><time>2026-04-28T14:44:03.006Z</time></trkpt><trkpt lat="40.26461710387674" lon="9.579969523630751"><ele>479.0</ele><time>2026-04-28T14:44:04.006Z</time></trkpt><trkpt lat="40.26480303627038" lon="9.579964282274489"><ele>478.0</ele><time>2026-04-28T14:44:05.006Z</time></trkpt><trkpt lat="40.26498284131209" lon="9.57984537830519"><ele>477.0</ele><time>2026-04-28T14:44:06.006Z</time></trkpt><trkpt lat="40.26513556700468" lon="9.579716757461744"><ele>476.0</ele><time>2026-04-28T14:44:07.006Z</time></trkpt><trkpt lat="40.265271421531885" lon="9.57969181433766"><ele>476.0</ele><time>2026-04-28T14:44:08.006Z</time></trkpt><trkpt lat="40.26540119869001" lon="9.579785355545692"><ele>476.0</ele><time>2026-04-28T14:44:09.006Z</time></trkpt><trkpt lat="40.265540265586694" lon="9.579972345207311"><ele>476.0</ele><time>2026-04-28T14:44:10.006Z</time></trkpt><trkpt lat="40.265673007052996" lon="9.580215886007856"><ele>477.0</ele><time>2026-04-28T14:44:11.006Z</time></trkpt><trkpt lat="40.265803446381405" lon="9.580443799550439"><ele>478.0</ele><time>2026-04-28T14:44:12.006Z</time></trkpt><trkpt lat="40.265955202197574" lon="9.580651783190184"><ele>479.0</ele><time>2026-04-28T14:44:13.006Z</time></trkpt><trkpt lat="40.26612482099672" lon="9.580813326474502"><ele>479.0</ele><time>2026-04-28T14:44:14.006Z</time></trkpt><trkpt lat="40.266347598733624" lon="9.580912155757947"><ele>479.0</ele><time>2026-04-28T14:44:15.006Z</time></trkpt><trkpt lat="40.26655329424698" lon="9.580994376502542"><ele>481.0</ele><time>2026-04-28T14:44:16.006Z</time></trkpt><trkpt lat="40.266712514560496" lon="9.58109065585496"><ele>483.0</ele><time>2026-04-28T14:44:17.007Z</time></trkpt><trkpt lat="40.266841573673034" lon="9.581301133969236"><ele>485.0</ele><time>2026-04-28T14:44:18.006Z</time></trkpt><trkpt lat="40.266981066063416" lon="9.58151827152891"><ele>485.0</ele><time>2026-04-28T14:44:19.006Z</time></trkpt><trkpt lat="40.26714990598968" lon="9.58172748174197"><ele>485.0</ele><time>2026-04-28T14:44:20.007Z</time></trkpt><trkpt lat="40.2673466543894" lon="9.581888260308004"><ele>484.0</ele><time>2026-04-28T14:44:21.007Z</time></trkpt><trkpt lat="40.267545791005595" lon="9.582048411900102"><ele>483.0</ele><time>2026-04-28T14:44:22.007Z</time></trkpt><trkpt lat="40.267773685970006" lon="9.582225099502557"><ele>483.0</ele><time>2026-04-28T14:44:23.007Z</time></trkpt><trkpt lat="40.26798846299188" lon="9.582410841221748"><ele>483.0</ele><time>2026-04-28T14:44:24.007Z</time></trkpt><trkpt lat="40.268177138509564" lon="9.582590586588582"><ele>484.5</ele><time>2026-04-28T14:44:25.007Z</time></trkpt><trkpt lat="40.268343070961194" lon="9.582783945021337"><ele>486.0</ele><time>2026-04-28T14:44:26.006Z</time></trkpt><trkpt lat="40.26863771530306" lon="9.583034063546684"><ele>486.0</ele><time>2026-04-28T14:44:28.006Z</time></trkpt><trkpt lat="40.268797334457325" lon="9.583032575140116"><ele>486.0</ele><time>2026-04-28T14:44:29.006Z</time></trkpt><trkpt lat="40.26897802274832" lon="9.583050049153396"><ele>486.0</ele><time>2026-04-28T14:44:30.007Z</time></trkpt><trkpt lat="40.26910198940664" lon="9.583192699386904"><ele>478.66666666666663</ele><time>2026-04-28T14:44:31.007Z</time></trkpt><trkpt lat="40.26919426750024" lon="9.58338917064052"><ele>471.3333333333333</ele><time>2026-04-28T14:44:32.007Z</time></trkpt><trkpt lat="40.269312005723485" lon="9.583538661823463"><ele>464.0</ele><time>2026-04-28T14:44:33.007Z</time></trkpt><trkpt lat="40.26948115136091" lon="9.583618483324223"><ele>464.0</ele><time>2026-04-28T14:44:34.007Z</time></trkpt><trkpt lat="40.26965803347604" lon="9.583665305708697"><ele>464.0</ele><time>2026-04-28T14:44:35.007Z</time></trkpt><trkpt lat="40.26978340039078" lon="9.58382302229551"><ele>464.0</ele><time>2026-04-28T14:44:36.007Z</time></trkpt><trkpt lat="40.2698849320516" lon="9.584037170494195"><ele>464.3333333333333</ele><time>2026-04-28T14:44:37.007Z</time></trkpt><trkpt lat="40.27000649416176" lon="9.584243635782896"><ele>464.66666666666663</ele><time>2026-04-28T14:44:38.007Z</time></trkpt><trkpt lat="40.27015975621787" lon="9.584437572345031"><ele>465.0</ele><time>2026-04-28T14:44:39.007Z</time></trkpt><trkpt lat="40.27030918286878" lon="9.58461258744236"><ele>460.66666666666663</ele><time>2026-04-28T14:44:40.007Z</time></trkpt><trkpt lat="40.27046115733849" lon="9.584737143940709"><ele>456.3333333333333</ele><time>2026-04-28T14:44:41.007Z</time></trkpt><trkpt lat="40.27060621560235" lon="9.584816040562618"><ele>452.0</ele><time>2026-04-28T14:44:42.007Z</time></trkpt><trkpt lat="40.27071755940436" lon="9.584946501955203"><ele>452.0</ele><time>2026-04-28T14:44:43.007Z</time></trkpt><trkpt lat="40.27078688897993" lon="9.585150493240567"><ele>452.0</ele><time>2026-04-28T14:44:44.007Z</time></trkpt><trkpt lat="40.27086028734588" lon="9.585380939354408"><ele>452.0</ele><time>2026-04-28T14:44:45.007Z</time></trkpt><trkpt lat="40.270981949754855" lon="9.585579215068481"><ele>459.3333333333333</ele><time>2026-04-28T14:44:46.007Z</time></trkpt><trkpt lat="40.27110735244859" lon="9.585784004420589"><ele>466.66666666666663</ele><time>2026-04-28T14:44:47.007Z</time></trkpt><trkpt lat="40.27117649023492" lon="9.586055175985008"><ele>474.0</ele><time>2026-04-28T14:44:48.007Z</time></trkpt><trkpt lat="40.271219158993546" lon="9.586340772916673"><ele>472.66666666666663</ele><time>2026-04-28T14:44:49.007Z</time></trkpt><trkpt lat="40.27128120866193" lon="9.586615632084639"><ele>471.3333333333333</ele><time>2026-04-28T14:44:50.007Z</time></trkpt><trkpt lat="40.271365329190054" lon="9.586859010439218"><ele>470.0</ele><time>2026-04-28T14:44:51.006Z</time></trkpt><trkpt lat="40.27146942195838" lon="9.58706300214737"><ele>470.0</ele><time>2026-04-28T14:44:52.006Z</time></trkpt><trkpt lat="40.27157304142154" lon="9.587236063055375"><ele>470.0</ele><time>2026-04-28T14:44:53.006Z</time></trkpt><trkpt lat="40.271709368302936" lon="9.587338683176979"><ele>470.0</ele><time>2026-04-28T14:44:54.006Z</time></trkpt><trkpt lat="40.27188597160858" lon="9.587409681211819"><ele>470.0</ele><time>2026-04-28T14:44:55.006Z</time></trkpt><trkpt lat="40.27207365629092" lon="9.58748696030831"><ele>470.0</ele><time>2026-04-28T14:44:56.006Z</time></trkpt><trkpt lat="40.27224250055087" lon="9.587624264242924"><ele>470.0</ele><time>2026-04-28T14:44:57.006Z</time></trkpt><trkpt lat="40.27236611755162" lon="9.58777875197567"><ele>467.3333333333333</ele><time>2026-04-28T14:44:58.006Z</time></trkpt><trkpt lat="40.27242322508909" lon="9.58795603964147"><ele>464.66666666666663</ele><time>2026-04-28T14:44:59.006Z</time></trkpt><trkpt lat="40.27240891864997" lon="9.58817602264681"><ele>462.0</ele><time>2026-04-28T14:45:00.006Z</time></trkpt><trkpt lat="40.27245418530133" lon="9.588401104275041"><ele>462.0</ele><time>2026-04-28T14:45:01.006Z</time></trkpt><trkpt lat="40.272546936092084" lon="9.588596865880481"><ele>462.0</ele><time>2026-04-28T14:45:02.006Z</time></trkpt><trkpt lat="40.27271106567842" lon="9.588709553288634"><ele>462.0</ele><time>2026-04-28T14:45:03.006Z</time></trkpt><trkpt lat="40.272880963086884" lon="9.58879327183752"><ele>469.0</ele><time>2026-04-28T14:45:04.006Z</time></trkpt><trkpt lat="40.27297998257414" lon="9.588957119495491"><ele>476.0</ele><time>2026-04-28T14:45:05.006Z</time></trkpt><trkpt lat="40.273030913152496" lon="9.589190774502674"><ele>483.0</ele><time>2026-04-28T14:45:06.006Z</time></trkpt><trkpt lat="40.273072171400855" lon="9.589443731698317"><ele>474.33333333333337</ele><time>2026-04-28T14:45:07.006Z</time></trkpt><trkpt lat="40.27311147863636" lon="9.589712435932674"><ele>465.6666666666667</ele><time>2026-04-28T14:45:08.006Z</time></trkpt><trkpt lat="40.273148279443" lon="9.589995275816586"><ele>457.0</ele><time>2026-04-28T14:45:09.006Z</time></trkpt><trkpt lat="40.27321852641285" lon="9.590253473956556"><ele>465.0</ele><time>2026-04-28T14:45:10.006Z</time></trkpt><trkpt lat="40.27334793006101" lon="9.590493223330327"><ele>473.0</ele><time>2026-04-28T14:45:11.006Z</time></trkpt><trkpt lat="40.27351131579389" lon="9.590728519062257"><ele>473.0</ele><time>2026-04-28T14:45:12.006Z</time></trkpt><trkpt lat="40.27367320295604" lon="9.590953830696273"><ele>473.0</ele><time>2026-04-28T14:45:13.006Z</time></trkpt><trkpt lat="40.27384566748567" lon="9.59117953074346"><ele>470.5</ele><time>2026-04-28T14:45:14.006Z</time></trkpt><trkpt lat="40.27403692484641" lon="9.591409025393148"><ele>468.0</ele><time>2026-04-28T14:45:15.006Z</time></trkpt><trkpt lat="40.27423981572025" lon="9.591629080804852"><ele>468.0</ele><time>2026-04-28T14:45:16.006Z</time></trkpt><trkpt lat="40.274458631811946" lon="9.591827919710665"><ele>468.0</ele><time>2026-04-28T14:45:17.006Z</time></trkpt><trkpt lat="40.27466907831427" lon="9.592018591283939"><ele>470.66666666666663</ele><time>2026-04-28T14:45:18.006Z</time></trkpt><trkpt lat="40.274860286311124" lon="9.592186277049066"><ele>473.3333333333333</ele><time>2026-04-28T14:45:19.006Z</time></trkpt><trkpt lat="40.27502242020449" lon="9.592286664884572"><ele>476.0</ele><time>2026-04-28T14:45:20.006Z</time></trkpt><trkpt lat="40.275183826233054" lon="9.592323078886382"><ele>476.0</ele><time>2026-04-28T14:45:21.006Z</time></trkpt><trkpt lat="40.2753155297961" lon="9.592334444144525"><ele>476.0</ele><time>2026-04-28T14:45:22.006Z</time></trkpt><trkpt lat="40.27541654934534" lon="9.592328634953986"><ele>476.0</ele><time>2026-04-28T14:45:23.006Z</time></trkpt><trkpt lat="40.2754957440875" lon="9.592340868673347"><ele>476.0</ele><time>2026-04-28T14:45:24.006Z</time></trkpt><trkpt lat="40.275574621915084" lon="9.592358556002416"><ele>476.0</ele><time>2026-04-28T14:45:26.006Z</time></trkpt><trkpt lat="40.275486662147316" lon="9.592371862730129"><ele>475.99999999999994</ele><time>2026-04-28T14:45:34.006Z</time></trkpt><trkpt lat="40.275555489550946" lon="9.592447130068402"><ele>476.0</ele><time>2026-04-28T14:46:45.007Z</time></trkpt><trkpt lat="40.275542490497635" lon="9.592578832628371"><ele>476.0</ele><time>2026-04-28T14:46:47.006Z</time></trkpt><trkpt lat="40.27552347180148" lon="9.592667864133142"><ele>476.0</ele><time>2026-04-28T14:46:48.006Z</time></trkpt><trkpt lat="40.27549586796378" lon="9.592766827618785"><ele>475.99999999999994</ele><time>2026-04-28T14:46:49.006Z</time></trkpt><trkpt lat="40.27546726032067" lon="9.592850608190195"><ele>476.0</ele><time>2026-04-28T14:46:50.006Z</time></trkpt><trkpt lat="40.2754342087189" lon="9.592934746735212"><ele>490.5</ele><time>2026-04-28T14:46:51.006Z</time></trkpt><trkpt lat="40.27540095322097" lon="9.593010365453697"><ele>505.0</ele><time>2026-04-28T14:46:52.006Z</time></trkpt><trkpt lat="40.275354374089034" lon="9.593082692888379"><ele>519.5</ele><time>2026-04-28T14:46:53.006Z</time></trkpt><trkpt lat="40.275180608922845" lon="9.593154015995275"><ele>534.0</ele><time>2026-04-28T14:46:55.147Z</time></trkpt><trkpt lat="40.27505167864764" lon="9.593201748728273"><ele>455.0</ele><time>2026-04-28T14:46:57.148Z</time></trkpt><trkpt lat="40.274733860294724" lon="9.59747869342343"><ele>455.0</ele><time>2026-04-28T14:47:14.006Z</time></trkpt><trkpt lat="40.27468701467118" lon="9.597645828615512"><ele>455.0</ele><time>2026-04-28T14:47:15.006Z</time></trkpt><trkpt lat="40.274717255022324" lon="9.59775207657194"><ele>455.0</ele><time>2026-04-28T14:47:16.006Z</time></trkpt><trkpt lat="40.27464156145584" lon="9.597816881454666"><ele>455.0</ele><time>2026-04-28T14:47:17.006Z</time></trkpt><trkpt lat="40.27454884349746" lon="9.597874629328684"><ele>455.0</ele><time>2026-04-28T14:47:18.006Z</time></trkpt><trkpt lat="40.27445905517965" lon="9.59790706878045"><ele>450.8333333333333</ele><time>2026-04-28T14:47:19.006Z</time></trkpt><trkpt lat="40.27438270170228" lon="9.597905789612799"><ele>446.66666666666663</ele><time>2026-04-28T14:47:20.006Z</time></trkpt><trkpt lat="40.27430100638256" lon="9.597945603350889"><ele>442.5</ele><time>2026-04-28T14:47:22.006Z</time></trkpt><trkpt lat="40.27431260265976" lon="9.598029735350192"><ele>438.33333333333337</ele><time>2026-04-28T14:47:24.006Z</time></trkpt><trkpt lat="40.27439597977811" lon="9.598076337679254"><ele>434.1666666666667</ele><time>2026-04-28T14:47:26.006Z</time></trkpt><trkpt lat="40.27447094454778" lon="9.598085052505375"><ele>430.0</ele><time>2026-04-28T14:47:28.006Z</time></trkpt><trkpt lat="40.2745410331678" lon="9.598056394931815"><ele>430.00000000000006</ele><time>2026-04-28T14:47:31.006Z</time></trkpt><trkpt lat="40.2746010094609" lon="9.598002940855954"><ele>430.0</ele><time>2026-04-28T14:47:34.006Z</time></trkpt><trkpt lat="40.27465226370863" lon="9.597953319792817"><ele>430.0</ele><time>2026-04-28T14:47:37.006Z</time></trkpt><trkpt lat="40.274725983901384" lon="9.597873436102718"><ele>430.0</ele><time>2026-04-28T14:54:04.008Z</time></trkpt><trkpt lat="40.27479389992865" lon="9.597813644335211"><ele>430.00000000000006</ele><time>2026-04-28T14:54:07.008Z</time></trkpt><trkpt lat="40.27484989656132" lon="9.597746550032172"><ele>430.0</ele><time>2026-04-28T14:54:10.008Z</time></trkpt><trkpt lat="40.274875802014435" lon="9.597654098773523"><ele>435.2</ele><time>2026-04-28T14:54:15.008Z</time></trkpt><trkpt lat="40.27488736132551" lon="9.597544230365568"><ele>440.4</ele><time>2026-04-28T14:54:30.008Z</time></trkpt><trkpt lat="40.27489167334449" lon="9.59745404850118"><ele>445.6</ele><time>2026-04-28T14:54:32.008Z</time></trkpt><trkpt lat="40.27492907384775" lon="9.597339642667283"><ele>450.8</ele><time>2026-04-28T14:54:34.008Z</time></trkpt><trkpt lat="40.274946152526134" lon="9.597201926729623"><ele>456.0</ele><time>2026-04-28T14:54:36.008Z</time></trkpt><trkpt lat="40.27496441864948" lon="9.597050874409248"><ele>460.3333333333333</ele><time>2026-04-28T14:54:38.008Z</time></trkpt><trkpt lat="40.274977708697136" lon="9.596955097860711"><ele>464.66666666666663</ele><time>2026-04-28T14:54:39.008Z</time></trkpt><trkpt lat="40.27499060225602" lon="9.596859718727416"><ele>469.0</ele><time>2026-04-28T14:54:40.008Z</time></trkpt><trkpt lat="40.2750037183517" lon="9.596751589792"><ele>473.3333333333333</ele><time>2026-04-28T14:54:41.008Z</time></trkpt><trkpt lat="40.27501515199826" lon="9.596647690289409"><ele>477.66666666666663</ele><time>2026-04-28T14:54:42.008Z</time></trkpt><trkpt lat="40.27502557648779" lon="9.596537581112884"><ele>482.0</ele><time>2026-04-28T14:54:43.008Z</time></trkpt><trkpt lat="40.275034545934844" lon="9.596430821059556"><ele>481.99999999999994</ele><time>2026-04-28T14:54:44.008Z</time></trkpt><trkpt lat="40.275043044862024" lon="9.59632569321461"><ele>482.0</ele><time>2026-04-28T14:54:45.008Z</time></trkpt><trkpt lat="40.2750558335163" lon="9.596196400779869"><ele>482.0</ele><time>2026-04-28T14:54:46.151Z</time></trkpt><trkpt lat="40.27506830522024" lon="9.596089122813522"><ele>482.0</ele><time>2026-04-28T14:54:47.148Z</time></trkpt><trkpt lat="40.27507698733803" lon="9.595967276608858"><ele>481.99999999999994</ele><time>2026-04-28T14:54:48.147Z</time></trkpt><trkpt lat="40.27508888770607" lon="9.59584918642565"><ele>482.0</ele><time>2026-04-28T14:54:49.148Z</time></trkpt><trkpt lat="40.27573203957199" lon="9.593149795979059"><ele>478.66666666666663</ele><time>2026-04-28T14:55:09.008Z</time></trkpt><trkpt lat="40.275699688293805" lon="9.592798121364224"><ele>475.33333333333337</ele><time>2026-04-28T14:55:10.008Z</time></trkpt><trkpt lat="40.27570969194471" lon="9.592597192497593"><ele>472.0</ele><time>2026-04-28T14:55:11.009Z</time></trkpt><trkpt lat="40.27578084211967" lon="9.592454499001212"><ele>472.0</ele><time>2026-04-28T14:55:13.008Z</time></trkpt><trkpt lat="40.275917685450736" lon="9.592313654464121"><ele>472.0</ele><time>2026-04-28T14:55:15.008Z</time></trkpt><trkpt lat="40.27602312188359" lon="9.592279937520548"><ele>472.0</ele><time>2026-04-28T14:55:16.008Z</time></trkpt><trkpt lat="40.2761479487937" lon="9.592239511350309"><ele>472.0</ele><time>2026-04-28T14:55:17.009Z</time></trkpt><trkpt lat="40.27629281228671" lon="9.592200266447756"><ele>472.0</ele><time>2026-04-28T14:55:18.009Z</time></trkpt><trkpt lat="40.27645460974153" lon="9.59214842938149"><ele>472.0</ele><time>2026-04-28T14:55:19.009Z</time></trkpt><trkpt lat="40.27662536028703" lon="9.592101738321333"><ele>472.0</ele><time>2026-04-28T14:55:20.008Z</time></trkpt><trkpt lat="40.27680870024633" lon="9.592033467418554"><ele>461.6666666666667</ele><time>2026-04-28T14:55:21.008Z</time></trkpt><trkpt lat="40.277002545952975" lon="9.591975170326608"><ele>451.33333333333337</ele><time>2026-04-28T14:55:22.008Z</time></trkpt><trkpt lat="40.27721523744058" lon="9.591915513592713"><ele>441.0</ele><time>2026-04-28T14:55:23.008Z</time></trkpt><trkpt lat="40.277424846737595" lon="9.591853325170066"><ele>441.0</ele><time>2026-04-28T14:55:24.008Z</time></trkpt><trkpt lat="40.27763298099861" lon="9.591794173013385"><ele>441.0</ele><time>2026-04-28T14:55:25.008Z</time></trkpt><trkpt lat="40.27784320756162" lon="9.591731333259135"><ele>441.0</ele><time>2026-04-28T14:55:26.008Z</time></trkpt><trkpt lat="40.27806475744585" lon="9.591670201024314"><ele>443.5</ele><time>2026-04-28T14:55:27.008Z</time></trkpt><trkpt lat="40.278294005372715" lon="9.591618989474203"><ele>446.0</ele><time>2026-04-28T14:55:28.008Z</time></trkpt><trkpt lat="40.27853484054846" lon="9.591572873519445"><ele>446.0</ele><time>2026-04-28T14:55:29.008Z</time></trkpt><trkpt lat="40.278779375721214" lon="9.591526352155515"><ele>446.0</ele><time>2026-04-28T14:55:30.008Z</time></trkpt><trkpt lat="40.279011444598964" lon="9.591477418047326"><ele>451.0</ele><time>2026-04-28T14:55:31.008Z</time></trkpt><trkpt lat="40.279235813443584" lon="9.591438367208166"><ele>456.0</ele><time>2026-04-28T14:55:32.008Z</time></trkpt><trkpt lat="40.279458056032205" lon="9.591413284759973"><ele>461.0</ele><time>2026-04-28T14:55:33.008Z</time></trkpt><trkpt lat="40.279673212652995" lon="9.591391322150669"><ele>461.3333333333333</ele><time>2026-04-28T14:55:34.008Z</time></trkpt><trkpt lat="40.279883458745985" lon="9.591363100345838"><ele>461.66666666666663</ele><time>2026-04-28T14:55:35.008Z</time></trkpt><trkpt lat="40.28008626140007" lon="9.59134255298275"><ele>462.0</ele><time>2026-04-28T14:55:36.008Z</time></trkpt><trkpt lat="40.2802888711748" lon="9.591320023460913"><ele>462.0</ele><time>2026-04-28T14:55:37.008Z</time></trkpt><trkpt lat="40.280484666152944" lon="9.591290962183686"><ele>462.0</ele><time>2026-04-28T14:55:38.008Z</time></trkpt><trkpt lat="40.280653266540384" lon="9.591261881030686"><ele>462.0</ele><time>2026-04-28T14:55:39.008Z</time></trkpt><trkpt lat="40.280803935122435" lon="9.591213719584273"><ele>453.33333333333337</ele><time>2026-04-28T14:55:40.008Z</time></trkpt><trkpt lat="40.2809493600074" lon="9.591151920420685"><ele>444.6666666666667</ele><time>2026-04-28T14:55:41.008Z</time></trkpt><trkpt lat="40.281094047801496" lon="9.59110374884909"><ele>436.0</ele><time>2026-04-28T14:55:42.008Z</time></trkpt><trkpt lat="40.28124703935726" lon="9.591080672254302"><ele>436.0</ele><time>2026-04-28T14:55:43.008Z</time></trkpt><trkpt lat="40.28140271486454" lon="9.591069626340769"><ele>436.0</ele><time>2026-04-28T14:55:44.008Z</time></trkpt><trkpt lat="40.28155944171333" lon="9.59107875161849"><ele>436.0</ele><time>2026-04-28T14:55:45.008Z</time></trkpt><trkpt lat="40.28170694305663" lon="9.59107962626792"><ele>435.75</ele><time>2026-04-28T14:55:46.008Z</time></trkpt><trkpt lat="40.281848625695716" lon="9.59107046030693"><ele>435.5</ele><time>2026-04-28T14:55:47.008Z</time></trkpt><trkpt lat="40.28198500299522" lon="9.591072734989389"><ele>435.25</ele><time>2026-04-28T14:55:48.008Z</time></trkpt><trkpt lat="40.28211095775541" lon="9.591070120664586"><ele>435.0</ele><time>2026-04-28T14:55:49.008Z</time></trkpt><trkpt lat="40.28223477588233" lon="9.591068808888268"><ele>435.5</ele><time>2026-04-28T14:55:50.008Z</time></trkpt><trkpt lat="40.282358433148744" lon="9.591096522365895"><ele>436.0</ele><time>2026-04-28T14:55:51.008Z</time></trkpt><trkpt lat="40.28248194101762" lon="9.591150469441367"><ele>436.5</ele><time>2026-04-28T14:55:52.008Z</time></trkpt><trkpt lat="40.282596752569795" lon="9.591218462032773"><ele>437.0</ele><time>2026-04-28T14:55:53.008Z</time></trkpt><trkpt lat="40.282707497899395" lon="9.591275941517788"><ele>437.0</ele><time>2026-04-28T14:55:54.008Z</time></trkpt><trkpt lat="40.28282182084514" lon="9.591286635153823"><ele>437.0</ele><time>2026-04-28T14:55:55.008Z</time></trkpt><trkpt lat="40.28294606688493" lon="9.591254151892327"><ele>437.0</ele><time>2026-04-28T14:55:56.008Z</time></trkpt><trkpt lat="40.28306598826568" lon="9.591199013991307"><ele>437.0</ele><time>2026-04-28T14:55:57.008Z</time></trkpt><trkpt lat="40.28318697603951" lon="9.591152723324074"><ele>437.0</ele><time>2026-04-28T14:55:58.008Z</time></trkpt><trkpt lat="40.28332062182465" lon="9.59113413638226"><ele>437.0</ele><time>2026-04-28T14:55:59.008Z</time></trkpt><trkpt lat="40.28345805763087" lon="9.591148011369233"><ele>437.0</ele><time>2026-04-28T14:56:00.008Z</time></trkpt><trkpt lat="40.28359061285667" lon="9.591176491377945"><ele>437.0</ele><time>2026-04-28T14:56:01.008Z</time></trkpt><trkpt lat="40.28372372764699" lon="9.5912165092529"><ele>440.5</ele><time>2026-04-28T14:56:02.008Z</time></trkpt><trkpt lat="40.28385119086623" lon="9.591248223664849"><ele>444.0</ele><time>2026-04-28T14:56:03.008Z</time></trkpt><trkpt lat="40.28397636169961" lon="9.591287539380762"><ele>447.5</ele><time>2026-04-28T14:56:04.008Z</time></trkpt><trkpt lat="40.28410140933724" lon="9.591332361805922"><ele>451.0</ele><time>2026-04-28T14:56:05.008Z</time></trkpt><trkpt lat="40.28422096552908" lon="9.591360124384527"><ele>451.0</ele><time>2026-04-28T14:56:06.008Z</time></trkpt><trkpt lat="40.28433685505638" lon="9.591386832443018"><ele>451.0</ele><time>2026-04-28T14:56:07.008Z</time></trkpt><trkpt lat="40.28445586369127" lon="9.591414919975389"><ele>451.0</ele><time>2026-04-28T14:56:08.008Z</time></trkpt><trkpt lat="40.28457670094528" lon="9.591425231806511"><ele>451.0</ele><time>2026-04-28T14:56:09.008Z</time></trkpt><trkpt lat="40.284694350859986" lon="9.591398237964803"><ele>449.5</ele><time>2026-04-28T14:56:10.008Z</time></trkpt><trkpt lat="40.28480108173643" lon="9.59132740760441"><ele>448.0</ele><time>2026-04-28T14:56:11.008Z</time></trkpt><trkpt lat="40.28488760440227" lon="9.591216109073718"><ele>446.5</ele><time>2026-04-28T14:56:12.008Z</time></trkpt><trkpt lat="40.28495502635841" lon="9.591096484056438"><ele>445.0</ele><time>2026-04-28T14:56:13.008Z</time></trkpt><trkpt lat="40.28502218876896" lon="9.590985321889145"><ele>442.8</ele><time>2026-04-28T14:56:14.008Z</time></trkpt><trkpt lat="40.285089847710694" lon="9.590875106081725"><ele>440.6</ele><time>2026-04-28T14:56:15.008Z</time></trkpt><trkpt lat="40.28515678925361" lon="9.590770195526572"><ele>438.4</ele><time>2026-04-28T14:56:16.008Z</time></trkpt><trkpt lat="40.28522417648523" lon="9.590667320764231"><ele>436.2</ele><time>2026-04-28T14:56:17.008Z</time></trkpt><trkpt lat="40.28528940227103" lon="9.590566729972924"><ele>434.0</ele><time>2026-04-28T14:56:18.008Z</time></trkpt><trkpt lat="40.2853610142006" lon="9.590457347923694"><ele>434.0</ele><time>2026-04-28T14:56:19.008Z</time></trkpt><trkpt lat="40.285437837287894" lon="9.59034376073921"><ele>434.0</ele><time>2026-04-28T14:56:20.008Z</time></trkpt><trkpt lat="40.285505891701135" lon="9.590214636376752"><ele>434.0</ele><time>2026-04-28T14:56:21.008Z</time></trkpt><trkpt lat="40.285561381284445" lon="9.59005803567536"><ele>434.0</ele><time>2026-04-28T14:56:22.008Z</time></trkpt><trkpt lat="40.28561128429687" lon="9.589894925690881"><ele>434.5</ele><time>2026-04-28T14:56:23.008Z</time></trkpt><trkpt lat="40.285644293742436" lon="9.58972329266983"><ele>435.0</ele><time>2026-04-28T14:56:24.008Z</time></trkpt><trkpt lat="40.28565740937979" lon="9.589539080044915"><ele>435.5</ele><time>2026-04-28T14:56:25.008Z</time></trkpt><trkpt lat="40.28565399196862" lon="9.58935698385214"><ele>436.0</ele><time>2026-04-28T14:56:26.008Z</time></trkpt><trkpt lat="40.285641484616896" lon="9.589178547570867"><ele>436.0</ele><time>2026-04-28T14:56:27.008Z</time></trkpt><trkpt lat="40.28562609914726" lon="9.589014099790857"><ele>436.0</ele><time>2026-04-28T14:56:28.008Z</time></trkpt><trkpt lat="40.28560134931626" lon="9.588850599596812"><ele>436.0</ele><time>2026-04-28T14:56:29.008Z</time></trkpt><trkpt lat="40.285572548117436" lon="9.588702167284243"><ele>436.0</ele><time>2026-04-28T14:56:30.008Z</time></trkpt><trkpt lat="40.28554725869684" lon="9.588553729284856"><ele>430.8</ele><time>2026-04-28T14:56:31.008Z</time></trkpt><trkpt lat="40.28552152273364" lon="9.588408992740307"><ele>425.6</ele><time>2026-04-28T14:56:32.008Z</time></trkpt><trkpt lat="40.2855109126839" lon="9.588269277632849"><ele>420.4</ele><time>2026-04-28T14:56:33.008Z</time></trkpt><trkpt lat="40.28550368261633" lon="9.588130183501459"><ele>415.2</ele><time>2026-04-28T14:56:34.008Z</time></trkpt><trkpt lat="40.28549971523578" lon="9.587994673175725"><ele>410.0</ele><time>2026-04-28T14:56:35.008Z</time></trkpt><trkpt lat="40.285494753165054" lon="9.587870283654476"><ele>409.8</ele><time>2026-04-28T14:56:36.008Z</time></trkpt><trkpt lat="40.28549296634005" lon="9.587739423610003"><ele>409.6</ele><time>2026-04-28T14:56:37.008Z</time></trkpt><trkpt lat="40.2854962586496" lon="9.587619321014794"><ele>409.4</ele><time>2026-04-28T14:56:38.008Z</time></trkpt><trkpt lat="40.2854835943547" lon="9.587485752187293"><ele>409.2</ele><time>2026-04-28T14:56:39.008Z</time></trkpt><trkpt lat="40.28548479644153" lon="9.587352882905472"><ele>409.0</ele><time>2026-04-28T14:56:40.008Z</time></trkpt><trkpt lat="40.28550380958529" lon="9.587212705717876"><ele>409.0</ele><time>2026-04-28T14:56:41.008Z</time></trkpt><trkpt lat="40.28554818760361" lon="9.587082388567936"><ele>409.0</ele><time>2026-04-28T14:56:42.008Z</time></trkpt><trkpt lat="40.28562934610466" lon="9.586986033149257"><ele>409.0</ele><time>2026-04-28T14:56:43.008Z</time></trkpt><trkpt lat="40.28572236260937" lon="9.586920681588449"><ele>409.0</ele><time>2026-04-28T14:56:44.008Z</time></trkpt><trkpt lat="40.28582315090566" lon="9.586891048619647"><ele>409.0</ele><time>2026-04-28T14:56:45.008Z</time></trkpt><trkpt lat="40.28593012500923" lon="9.586895372349744"><ele>411.0</ele><time>2026-04-28T14:56:46.008Z</time></trkpt><trkpt lat="40.28604021673116" lon="9.586903343307549"><ele>413.0</ele><time>2026-04-28T14:56:47.008Z</time></trkpt><trkpt lat="40.28616187435482" lon="9.586920204581075"><ele>415.0</ele><time>2026-04-28T14:56:48.008Z</time></trkpt><trkpt lat="40.28628308909639" lon="9.586944751944134"><ele>417.0</ele><time>2026-04-28T14:56:49.008Z</time></trkpt><trkpt lat="40.28640623328675" lon="9.586975922923143"><ele>416.0</ele><time>2026-04-28T14:56:50.008Z</time></trkpt><trkpt lat="40.28652584141383" lon="9.586981977607653"><ele>415.0</ele><time>2026-04-28T14:56:51.008Z</time></trkpt><trkpt lat="40.286644311754756" lon="9.586990849551203"><ele>414.0</ele><time>2026-04-28T14:56:52.008Z</time></trkpt><trkpt lat="40.286760509100084" lon="9.587002593078115"><ele>413.0</ele><time>2026-04-28T14:56:53.008Z</time></trkpt><trkpt lat="40.2868652013129" lon="9.587006703806058"><ele>414.59999999999997</ele><time>2026-04-28T14:56:54.008Z</time></trkpt><trkpt lat="40.28698007312189" lon="9.58702129355045"><ele>416.2</ele><time>2026-04-28T14:56:55.008Z</time></trkpt><trkpt lat="40.2870871776959" lon="9.587040090967252"><ele>417.8</ele><time>2026-04-28T14:56:56.008Z</time></trkpt><trkpt lat="40.287196685332084" lon="9.587062805656398"><ele>419.4</ele><time>2026-04-28T14:56:57.008Z</time></trkpt><trkpt lat="40.287296285832866" lon="9.58711322535974"><ele>421.0</ele><time>2026-04-28T14:56:58.008Z</time></trkpt><trkpt lat="40.28738667168956" lon="9.5871904494723"><ele>421.0</ele><time>2026-04-28T14:56:59.008Z</time></trkpt><trkpt lat="40.2874814686764" lon="9.587275314502476"><ele>421.0</ele><time>2026-04-28T14:57:00.008Z</time></trkpt><trkpt lat="40.28756176650269" lon="9.587384415426042"><ele>421.0</ele><time>2026-04-28T14:57:01.008Z</time></trkpt><trkpt lat="40.287638981995826" lon="9.587492848228692"><ele>421.0</ele><time>2026-04-28T14:57:02.008Z</time></trkpt><trkpt lat="40.28770867051443" lon="9.587604789842425"><ele>421.0</ele><time>2026-04-28T14:57:03.008Z</time></trkpt><trkpt lat="40.28777493534764" lon="9.587715971012775"><ele>421.0</ele><time>2026-04-28T14:57:04.008Z</time></trkpt><trkpt lat="40.2878342998187" lon="9.587834544450233"><ele>421.0</ele><time>2026-04-28T14:57:05.008Z</time></trkpt><trkpt lat="40.28788810329773" lon="9.587954990063915"><ele>421.0</ele><time>2026-04-28T14:57:06.008Z</time></trkpt><trkpt lat="40.287942690441675" lon="9.588086827205645"><ele>421.0</ele><time>2026-04-28T14:57:07.008Z</time></trkpt><trkpt lat="40.28798711804839" lon="9.58821832794218"><ele>422.4</ele><time>2026-04-28T14:57:08.008Z</time></trkpt><trkpt lat="40.288032250112174" lon="9.588347415536552"><ele>423.8</ele><time>2026-04-28T14:57:09.008Z</time></trkpt><trkpt lat="40.28807345941782" lon="9.58847730596124"><ele>425.19999999999993</ele><time>2026-04-28T14:57:10.008Z</time></trkpt><trkpt lat="40.28810890490495" lon="9.588607356370026"><ele>426.59999999999997</ele><time>2026-04-28T14:57:11.008Z</time></trkpt><trkpt lat="40.28814688985899" lon="9.588736460744796"><ele>428.0</ele><time>2026-04-28T14:57:12.008Z</time></trkpt><trkpt lat="40.288182516444124" lon="9.588865637549045"><ele>423.59999999999997</ele><time>2026-04-28T14:57:13.008Z</time></trkpt><trkpt lat="40.288202129052074" lon="9.588997152213766"><ele>419.19999999999993</ele><time>2026-04-28T14:57:14.008Z</time></trkpt><trkpt lat="40.28821333479718" lon="9.589126553371969"><ele>414.8</ele><time>2026-04-28T14:57:15.008Z</time></trkpt><trkpt lat="40.28822557394609" lon="9.589265735648038"><ele>410.4</ele><time>2026-04-28T14:57:16.008Z</time></trkpt><trkpt lat="40.28823091416805" lon="9.589401161283812"><ele>406.0</ele><time>2026-04-28T14:57:17.009Z</time></trkpt><trkpt lat="40.28823031688079" lon="9.589539195638505"><ele>405.6</ele><time>2026-04-28T14:57:18.008Z</time></trkpt><trkpt lat="40.28821531657272" lon="9.589675455607516"><ele>405.20000000000005</ele><time>2026-04-28T14:57:19.008Z</time></trkpt><trkpt lat="40.28818556196374" lon="9.589804857865278"><ele>404.79999999999995</ele><time>2026-04-28T14:57:20.008Z</time></trkpt><trkpt lat="40.28815174113206" lon="9.589918592093348"><ele>404.4</ele><time>2026-04-28T14:57:21.008Z</time></trkpt><trkpt lat="40.28810701860613" lon="9.590042750594643"><ele>404.0</ele><time>2026-04-28T14:57:22.008Z</time></trkpt><trkpt lat="40.28806208271769" lon="9.590169429370565"><ele>405.79999999999995</ele><time>2026-04-28T14:57:23.008Z</time></trkpt><trkpt lat="40.288005638015946" lon="9.5902884240048"><ele>407.59999999999997</ele><time>2026-04-28T14:57:24.008Z</time></trkpt><trkpt lat="40.287964426485246" lon="9.590408354461344"><ele>409.4</ele><time>2026-04-28T14:57:25.008Z</time></trkpt><trkpt lat="40.28792100176755" lon="9.590529487336454"><ele>411.2</ele><time>2026-04-28T14:57:26.008Z</time></trkpt><trkpt lat="40.287885543039" lon="9.590649559589274"><ele>413.0</ele><time>2026-04-28T14:57:27.008Z</time></trkpt><trkpt lat="40.28785519938162" lon="9.59075484140232"><ele>413.0</ele><time>2026-04-28T14:57:28.008Z</time></trkpt><trkpt lat="40.28785704993845" lon="9.59085740597475"><ele>413.0</ele><time>2026-04-28T14:57:29.008Z</time></trkpt><trkpt lat="40.28789562218093" lon="9.59099053658517"><ele>413.0</ele><time>2026-04-28T14:57:30.008Z</time></trkpt><trkpt lat="40.287946108987214" lon="9.59113537138523"><ele>413.0</ele><time>2026-04-28T14:57:31.008Z</time></trkpt><trkpt lat="40.28800756641798" lon="9.591214207359043"><ele>413.0</ele><time>2026-04-28T14:57:32.008Z</time></trkpt><trkpt lat="40.28809272257198" lon="9.59126637012176"><ele>412.0</ele><time>2026-04-28T14:57:33.008Z</time></trkpt><trkpt lat="40.288190984999915" lon="9.591293889950922"><ele>411.0</ele><time>2026-04-28T14:57:34.008Z</time></trkpt><trkpt lat="40.28828446963" lon="9.591301431089068"><ele>410.0</ele><time>2026-04-28T14:57:35.008Z</time></trkpt><trkpt lat="40.288379431766614" lon="9.591315969486077"><ele>409.0</ele><time>2026-04-28T14:57:36.008Z</time></trkpt><trkpt lat="40.28848324308377" lon="9.591327014146668"><ele>408.0</ele><time>2026-04-28T14:57:37.008Z</time></trkpt><trkpt lat="40.28859537840134" lon="9.591338737521655"><ele>408.0</ele><time>2026-04-28T14:57:38.008Z</time></trkpt><trkpt lat="40.28870537704773" lon="9.591358199183473"><ele>408.0</ele><time>2026-04-28T14:57:39.008Z</time></trkpt><trkpt lat="40.288814734295244" lon="9.591354849538666"><ele>408.0</ele><time>2026-04-28T14:57:40.008Z</time></trkpt><trkpt lat="40.28891644430324" lon="9.591337310596634"><ele>408.0</ele><time>2026-04-28T14:57:41.008Z</time></trkpt><trkpt lat="40.28899406976331" lon="9.591331651324184"><ele>408.0</ele><time>2026-04-28T14:57:42.008Z</time></trkpt><trkpt lat="40.289077460831635" lon="9.591299217738472"><ele>408.2</ele><time>2026-04-28T14:57:44.008Z</time></trkpt><trkpt lat="40.289094309256306" lon="9.591204372907223"><ele>408.4</ele><time>2026-04-28T14:57:47.008Z</time></trkpt><trkpt lat="40.289031190250086" lon="9.591081226115236"><ele>408.59999999999997</ele><time>2026-04-28T14:57:49.008Z</time></trkpt><trkpt lat="40.28899900306336" lon="9.59092970190484"><ele>408.79999999999995</ele><time>2026-04-28T14:57:51.008Z</time></trkpt><trkpt lat="40.28901702619774" lon="9.590812253192754"><ele>409.0</ele><time>2026-04-28T14:57:53.008Z</time></trkpt><trkpt lat="40.289044095835344" lon="9.59068658638007"><ele>407.4</ele><time>2026-04-28T14:57:55.008Z</time></trkpt><trkpt lat="40.289047679668215" lon="9.590572094912735"><ele>405.79999999999995</ele><time>2026-04-28T14:57:57.008Z</time></trkpt><trkpt lat="40.289047251146805" lon="9.59044424331127"><ele>404.20000000000005</ele><time>2026-04-28T14:57:59.008Z</time></trkpt><trkpt lat="40.28907902116716" lon="9.590310617912907"><ele>402.6</ele><time>2026-04-28T14:58:01.008Z</time></trkpt><trkpt lat="40.28907799634898" lon="9.59013009351365"><ele>401.0</ele><time>2026-04-28T14:58:03.008Z</time></trkpt><trkpt lat="40.28907771631987" lon="9.590047265817166"><ele>399.99999999999994</ele><time>2026-04-28T14:58:04.008Z</time></trkpt><trkpt lat="40.28908330641233" lon="9.589956288227773"><ele>399.0</ele><time>2026-04-28T14:58:05.008Z</time></trkpt><trkpt lat="40.289107172312065" lon="9.589808502755728"><ele>398.0</ele><time>2026-04-28T14:58:07.008Z</time></trkpt><trkpt lat="40.289136542678094" lon="9.58972237654174"><ele>397.0</ele><time>2026-04-28T14:58:08.008Z</time></trkpt><trkpt lat="40.289156508029414" lon="9.589633211432563"><ele>395.99999999999994</ele><time>2026-04-28T14:58:09.008Z</time></trkpt><trkpt lat="40.289178942704474" lon="9.589549377707607"><ele>395.0</ele><time>2026-04-28T14:58:10.008Z</time></trkpt><trkpt lat="40.289185607140055" lon="9.589447967083817"><ele>394.66666666666663</ele><time>2026-04-28T14:58:11.008Z</time></trkpt><trkpt lat="40.28918003189655" lon="9.589347595962893"><ele>394.3333333333333</ele><time>2026-04-28T14:58:12.008Z</time></trkpt><trkpt lat="40.28918891365508" lon="9.589262743978008"><ele>394.0</ele><time>2026-04-28T14:58:13.008Z</time></trkpt><trkpt lat="40.28921266171942" lon="9.589149376761467"><ele>393.66666666666663</ele><time>2026-04-28T14:58:15.008Z</time></trkpt><trkpt lat="40.2892252916812" lon="9.589054058031325"><ele>393.3333333333333</ele><time>2026-04-28T14:58:17.008Z</time></trkpt><trkpt lat="40.289242002863304" lon="9.58893602876134"><ele>393.0</ele><time>2026-04-28T14:58:19.008Z</time></trkpt><trkpt lat="40.28928337842933" lon="9.588808247690604"><ele>393.0</ele><time>2026-04-28T14:58:21.007Z</time></trkpt><trkpt lat="40.289297092790925" lon="9.588702619741257"><ele>393.0</ele><time>2026-04-28T14:58:23.007Z</time></trkpt><trkpt lat="40.28932374376242" lon="9.58859059778654"><ele>393.0</ele><time>2026-04-28T14:58:25.007Z</time></trkpt><trkpt lat="40.28935298438387" lon="9.588485865180346"><ele>393.0</ele><time>2026-04-28T14:58:27.007Z</time></trkpt><trkpt lat="40.289370911234315" lon="9.588372280690644"><ele>393.0</ele><time>2026-04-28T14:58:29.007Z</time></trkpt><trkpt lat="40.28938230002229" lon="9.588225064179051"><ele>392.2</ele><time>2026-04-28T14:58:32.007Z</time></trkpt><trkpt lat="40.28937316407493" lon="9.588122081794127"><ele>391.4</ele><time>2026-04-28T14:58:34.007Z</time></trkpt><trkpt lat="40.28935775112633" lon="9.587999774967633"><ele>390.59999999999997</ele><time>2026-04-28T14:58:36.007Z</time></trkpt><trkpt lat="40.289383234719" lon="9.587852720330932"><ele>389.79999999999995</ele><time>2026-04-28T14:58:38.007Z</time></trkpt><trkpt lat="40.2893926619069" lon="9.587709845024614"><ele>389.0</ele><time>2026-04-28T14:58:40.007Z</time></trkpt><trkpt lat="40.289406847484976" lon="9.587560443875308"><ele>387.75</ele><time>2026-04-28T14:58:42.007Z</time></trkpt><trkpt lat="40.28941657810572" lon="9.587437844419965"><ele>386.5</ele><time>2026-04-28T14:58:44.007Z</time></trkpt><trkpt lat="40.289431240141" lon="9.587284692812151"><ele>385.25</ele><time>2026-04-28T14:58:46.007Z</time></trkpt><trkpt lat="40.289460273837356" lon="9.587140980289465"><ele>384.0</ele><time>2026-04-28T14:58:48.007Z</time></trkpt><trkpt lat="40.289483237343376" lon="9.586980275063942"><ele>383.4</ele><time>2026-04-28T14:58:50.007Z</time></trkpt><trkpt lat="40.289485629555806" lon="9.586865171509713"><ele>382.79999999999995</ele><time>2026-04-28T14:58:51.007Z</time></trkpt><trkpt lat="40.28949542001969" lon="9.586745474860626"><ele>382.20000000000005</ele><time>2026-04-28T14:58:52.007Z</time></trkpt><trkpt lat="40.28951975983408" lon="9.586599713208377"><ele>381.6</ele><time>2026-04-28T14:58:53.007Z</time></trkpt><trkpt lat="40.28954130374173" lon="9.586473816857772"><ele>381.0</ele><time>2026-04-28T14:58:54.007Z</time></trkpt><trkpt lat="40.289545426530665" lon="9.58635191639224"><ele>381.0</ele><time>2026-04-28T14:58:55.007Z</time></trkpt><trkpt lat="40.28955612772216" lon="9.586219004744914"><ele>381.0</ele><time>2026-04-28T14:58:56.007Z</time></trkpt><trkpt lat="40.28956728127272" lon="9.586090432094922"><ele>381.0</ele><time>2026-04-28T14:58:57.007Z</time></trkpt><trkpt lat="40.28957341387651" lon="9.585956191905012"><ele>381.0</ele><time>2026-04-28T14:58:58.007Z</time></trkpt><trkpt lat="40.289590235760414" lon="9.58582447994265"><ele>381.0</ele><time>2026-04-28T14:58:59.007Z</time></trkpt><trkpt lat="40.28960249702301" lon="9.585693268352873"><ele>379.6</ele><time>2026-04-28T14:59:00.007Z</time></trkpt><trkpt lat="40.28961391401534" lon="9.58555921103382"><ele>378.20000000000005</ele><time>2026-04-28T14:59:01.007Z</time></trkpt><trkpt lat="40.28963206157817" lon="9.585432382699086"><ele>376.79999999999995</ele><time>2026-04-28T14:59:02.007Z</time></trkpt><trkpt lat="40.28964722456438" lon="9.585315244057098"><ele>375.4</ele><time>2026-04-28T14:59:03.007Z</time></trkpt><trkpt lat="40.28966441121678" lon="9.58518868359303"><ele>374.0</ele><time>2026-04-28T14:59:04.007Z</time></trkpt><trkpt lat="40.28968221415225" lon="9.585064129402838"><ele>373.0</ele><time>2026-04-28T14:59:05.007Z</time></trkpt><trkpt lat="40.28969475687324" lon="9.5849323502253"><ele>372.0</ele><time>2026-04-28T14:59:06.007Z</time></trkpt><trkpt lat="40.28970841205625" lon="9.584804538633069"><ele>371.0</ele><time>2026-04-28T14:59:07.007Z</time></trkpt><trkpt lat="40.28971253572213" lon="9.584668731722454"><ele>370.0</ele><time>2026-04-28T14:59:08.007Z</time></trkpt><trkpt lat="40.28971938668414" lon="9.58452472680411"><ele>369.0</ele><time>2026-04-28T14:59:09.007Z</time></trkpt><trkpt lat="40.28973392384049" lon="9.584386698412859"><ele>368.6</ele><time>2026-04-28T14:59:10.007Z</time></trkpt><trkpt lat="40.289749206739046" lon="9.58424499953765"><ele>368.2</ele><time>2026-04-28T14:59:11.007Z</time></trkpt><trkpt lat="40.289768311099266" lon="9.584098201872205"><ele>367.8</ele><time>2026-04-28T14:59:12.007Z</time></trkpt><trkpt lat="40.28977366992897" lon="9.583950038858664"><ele>367.40000000000003</ele><time>2026-04-28T14:59:13.007Z</time></trkpt><trkpt lat="40.28975708824503" lon="9.583804769157092"><ele>367.0</ele><time>2026-04-28T14:59:14.007Z</time></trkpt><trkpt lat="40.289739158185824" lon="9.583665735957844"><ele>367.40000000000003</ele><time>2026-04-28T14:59:15.007Z</time></trkpt><trkpt lat="40.28971028941023" lon="9.583515895081206"><ele>367.8</ele><time>2026-04-28T14:59:16.007Z</time></trkpt><trkpt lat="40.289696123188236" lon="9.583372198831546"><ele>368.2</ele><time>2026-04-28T14:59:17.007Z</time></trkpt><trkpt lat="40.289692850500636" lon="9.583244307335379"><ele>368.6</ele><time>2026-04-28T14:59:18.007Z</time></trkpt><trkpt lat="40.28971610654401" lon="9.58312164919945"><ele>369.0</ele><time>2026-04-28T14:59:19.007Z</time></trkpt><trkpt lat="40.28977334263093" lon="9.583032999853899"><ele>369.0</ele><time>2026-04-28T14:59:20.008Z</time></trkpt><trkpt lat="40.289863232467845" lon="9.582977130497643"><ele>369.0</ele><time>2026-04-28T14:59:21.008Z</time></trkpt><trkpt lat="40.28996723813101" lon="9.582945446998755"><ele>369.0</ele><time>2026-04-28T14:59:22.008Z</time></trkpt><trkpt lat="40.29007346540278" lon="9.582930710964058"><ele>369.0</ele><time>2026-04-28T14:59:23.008Z</time></trkpt><trkpt lat="40.290180012758995" lon="9.582916922738878"><ele>369.0</ele><time>2026-04-28T14:59:24.008Z</time></trkpt><trkpt lat="40.29028992181315" lon="9.58292011619375"><ele>369.0</ele><time>2026-04-28T14:59:25.008Z</time></trkpt><trkpt lat="40.29040208194792" lon="9.582942856311181"><ele>369.0</ele><time>2026-04-28T14:59:26.008Z</time></trkpt><trkpt lat="40.29050662260978" lon="9.58297319885442"><ele>369.0</ele><time>2026-04-28T14:59:27.008Z</time></trkpt><trkpt lat="40.2906163727486" lon="9.583035967440694"><ele>369.0</ele><time>2026-04-28T14:59:28.008Z</time></trkpt><trkpt lat="40.290712565611095" lon="9.583106826695737"><ele>368.25</ele><time>2026-04-28T14:59:29.008Z</time></trkpt><trkpt lat="40.29079391449746" lon="9.583210508427271"><ele>367.5</ele><time>2026-04-28T14:59:30.008Z</time></trkpt><trkpt lat="40.29087042271695" lon="9.583330994554663"><ele>366.75</ele><time>2026-04-28T14:59:31.008Z</time></trkpt><trkpt lat="40.29094645394318" lon="9.583457232441866"><ele>366.0</ele><time>2026-04-28T14:59:32.008Z</time></trkpt><trkpt lat="40.29102083389812" lon="9.583578905567743"><ele>366.6</ele><time>2026-04-28T14:59:33.008Z</time></trkpt><trkpt lat="40.291090821327614" lon="9.583700144854815"><ele>367.20000000000005</ele><time>2026-04-28T14:59:34.008Z</time></trkpt><trkpt lat="40.291138839459435" lon="9.583831279352244"><ele>367.79999999999995</ele><time>2026-04-28T14:59:35.008Z</time></trkpt><trkpt lat="40.291165285000595" lon="9.583970820229911"><ele>368.4</ele><time>2026-04-28T14:59:36.008Z</time></trkpt><trkpt lat="40.29117202405202" lon="9.584102734172927"><ele>369.0</ele><time>2026-04-28T14:59:37.008Z</time></trkpt><trkpt lat="40.29117755486314" lon="9.584232576341762"><ele>369.0</ele><time>2026-04-28T14:59:38.008Z</time></trkpt><trkpt lat="40.29118240467832" lon="9.584361742807129"><ele>369.0</ele><time>2026-04-28T14:59:39.008Z</time></trkpt><trkpt lat="40.29118487245303" lon="9.584485610454529"><ele>369.0</ele><time>2026-04-28T14:59:40.008Z</time></trkpt><trkpt lat="40.291188551009704" lon="9.584609005225863"><ele>369.0</ele><time>2026-04-28T14:59:41.008Z</time></trkpt><trkpt lat="40.291202130063475" lon="9.584730225991883"><ele>369.0</ele><time>2026-04-28T14:59:42.008Z</time></trkpt><trkpt lat="40.291215953005576" lon="9.584872716685785"><ele>369.0</ele><time>2026-04-28T14:59:43.008Z</time></trkpt><trkpt lat="40.29123296077242" lon="9.585025855512637"><ele>369.0</ele><time>2026-04-28T14:59:44.008Z</time></trkpt><trkpt lat="40.29126378409178" lon="9.585174360162927"><ele>369.0</ele><time>2026-04-28T14:59:45.008Z</time></trkpt><trkpt lat="40.29133088036352" lon="9.585287893482823"><ele>369.0</ele><time>2026-04-28T14:59:46.008Z</time></trkpt><trkpt lat="40.291417716532585" lon="9.585367951690733"><ele>368.0</ele><time>2026-04-28T14:59:47.008Z</time></trkpt><trkpt lat="40.291534261560145" lon="9.585401025472315"><ele>367.0</ele><time>2026-04-28T14:59:48.008Z</time></trkpt><trkpt lat="40.291663037002536" lon="9.585367101335569"><ele>366.0</ele><time>2026-04-28T14:59:49.008Z</time></trkpt><trkpt lat="40.29177031404203" lon="9.585276065843024"><ele>365.0</ele><time>2026-04-28T14:59:50.008Z</time></trkpt><trkpt lat="40.291847016226974" lon="9.585142211513046"><ele>363.25</ele><time>2026-04-28T14:59:51.008Z</time></trkpt><trkpt lat="40.29191321164797" lon="9.58499471676219"><ele>361.5</ele><time>2026-04-28T14:59:52.008Z</time></trkpt><trkpt lat="40.29199557474605" lon="9.584855183125162"><ele>359.75</ele><time>2026-04-28T14:59:53.008Z</time></trkpt><trkpt lat="40.292075533836034" lon="9.584711337076941"><ele>358.0</ele><time>2026-04-28T14:59:54.008Z</time></trkpt><trkpt lat="40.29216014406443" lon="9.584560412026994"><ele>357.0</ele><time>2026-04-28T14:59:55.008Z</time></trkpt><trkpt lat="40.292244898319346" lon="9.584417197308012"><ele>356.0</ele><time>2026-04-28T14:59:56.008Z</time></trkpt><trkpt lat="40.29233056903693" lon="9.584265197033039"><ele>355.0</ele><time>2026-04-28T14:59:57.008Z</time></trkpt><trkpt lat="40.29242304965878" lon="9.584107481700366"><ele>354.0</ele><time>2026-04-28T14:59:58.008Z</time></trkpt><trkpt lat="40.292510216672845" lon="9.583955349855925"><ele>354.0</ele><time>2026-04-28T14:59:59.008Z</time></trkpt><trkpt lat="40.292597350219445" lon="9.583794412400314"><ele>354.0</ele><time>2026-04-28T15:00:00.008Z</time></trkpt><trkpt lat="40.29268323794659" lon="9.58363869434864"><ele>354.0</ele><time>2026-04-28T15:00:01.008Z</time></trkpt><trkpt lat="40.292779683892526" lon="9.583496245120228"><ele>354.0</ele><time>2026-04-28T15:00:02.008Z</time></trkpt><trkpt lat="40.29288295910795" lon="9.583355810079915"><ele>355.5</ele><time>2026-04-28T15:00:03.008Z</time></trkpt><trkpt lat="40.2930086199467" lon="9.583227772668957"><ele>357.0</ele><time>2026-04-28T15:00:04.008Z</time></trkpt><trkpt lat="40.29314590283701" lon="9.583150370554005"><ele>358.5</ele><time>2026-04-28T15:00:05.008Z</time></trkpt><trkpt lat="40.29328613586244" lon="9.583152232431638"><ele>360.0</ele><time>2026-04-28T15:00:06.008Z</time></trkpt><trkpt lat="40.29342137441006" lon="9.58320791881492"><ele>360.0</ele><time>2026-04-28T15:00:07.008Z</time></trkpt><trkpt lat="40.29354703407565" lon="9.583266404134756"><ele>360.0</ele><time>2026-04-28T15:00:08.008Z</time></trkpt><trkpt lat="40.29367150600528" lon="9.583320368799354"><ele>360.0</ele><time>2026-04-28T15:00:09.008Z</time></trkpt><trkpt lat="40.29378069888482" lon="9.583366223036842"><ele>360.0</ele><time>2026-04-28T15:00:10.008Z</time></trkpt><trkpt lat="40.29388774307196" lon="9.583406476128038"><ele>360.6</ele><time>2026-04-28T15:00:11.008Z</time></trkpt><trkpt lat="40.29398705742788" lon="9.583454863126276"><ele>361.2</ele><time>2026-04-28T15:00:12.008Z</time></trkpt><trkpt lat="40.294089341647954" lon="9.58349291077651"><ele>361.79999999999995</ele><time>2026-04-28T15:00:13.008Z</time></trkpt><trkpt lat="40.29419228977066" lon="9.583531487301528"><ele>362.4</ele><time>2026-04-28T15:00:14.007Z</time></trkpt><trkpt lat="40.29429715908209" lon="9.583575336226037"><ele>363.0</ele><time>2026-04-28T15:00:15.007Z</time></trkpt><trkpt lat="40.294399950885044" lon="9.583618658586445"><ele>363.0</ele><time>2026-04-28T15:00:16.007Z</time></trkpt><trkpt lat="40.29450439880744" lon="9.583662538849344"><ele>363.0</ele><time>2026-04-28T15:00:17.007Z</time></trkpt><trkpt lat="40.29460867621054" lon="9.583709015198252"><ele>363.0</ele><time>2026-04-28T15:00:18.007Z</time></trkpt><trkpt lat="40.29471038156113" lon="9.583741098791196"><ele>363.0</ele><time>2026-04-28T15:00:19.007Z</time></trkpt><trkpt lat="40.29481001465798" lon="9.58377679430061"><ele>363.0</ele><time>2026-04-28T15:00:20.007Z</time></trkpt><trkpt lat="40.29490922981082" lon="9.583815603169132"><ele>363.59999999999997</ele><time>2026-04-28T15:00:21.007Z</time></trkpt><trkpt lat="40.295007004735474" lon="9.58385395258741"><ele>364.2</ele><time>2026-04-28T15:00:22.007Z</time></trkpt><trkpt lat="40.29510317148147" lon="9.583888751039009"><ele>364.8</ele><time>2026-04-28T15:00:23.007Z</time></trkpt><trkpt lat="40.29519223843328" lon="9.583918620690238"><ele>365.4</ele><time>2026-04-28T15:00:24.007Z</time></trkpt><trkpt lat="40.29527663566966" lon="9.583938387913408"><ele>366.0</ele><time>2026-04-28T15:00:25.007Z</time></trkpt><trkpt lat="40.2953608580952" lon="9.583941720606816"><ele>366.0</ele><time>2026-04-28T15:00:26.007Z</time></trkpt><trkpt lat="40.2954382633237" lon="9.583943667269379"><ele>366.0</ele><time>2026-04-28T15:00:27.007Z</time></trkpt><trkpt lat="40.29551660891606" lon="9.583939542444552"><ele>366.0</ele><time>2026-04-28T15:00:28.007Z</time></trkpt><trkpt lat="40.295591400333954" lon="9.583932513474949"><ele>366.0</ele><time>2026-04-28T15:00:29.007Z</time></trkpt><trkpt lat="40.295666525915266" lon="9.583918692200406"><ele>366.0</ele><time>2026-04-28T15:00:30.007Z</time></trkpt><trkpt lat="40.29573647406743" lon="9.583905229887671"><ele>366.0</ele><time>2026-04-28T15:00:31.007Z</time></trkpt><trkpt lat="40.29585640639581" lon="9.58388675649089"><ele>366.1666666666667</ele><time>2026-04-28T15:00:33.007Z</time></trkpt><trkpt lat="40.29592086042789" lon="9.583876076016722"><ele>366.3333333333333</ele><time>2026-04-28T15:00:34.007Z</time></trkpt><trkpt lat="40.296038143761656" lon="9.583860904864736"><ele>366.5</ele><time>2026-04-28T15:00:36.007Z</time></trkpt><trkpt lat="40.296115763070716" lon="9.58385330036271"><ele>366.66666666666663</ele><time>2026-04-28T15:00:38.007Z</time></trkpt><trkpt lat="40.296182578954586" lon="9.583852406866864"><ele>366.8333333333333</ele><time>2026-04-28T15:00:43.007Z</time></trkpt><trkpt lat="40.296248708616936" lon="9.583809758206852"><ele>367.0</ele><time>2026-04-28T15:00:48.007Z</time></trkpt><trkpt lat="40.29627126366032" lon="9.58365901937305"><ele>365.66666666666663</ele><time>2026-04-28T15:00:50.007Z</time></trkpt><trkpt lat="40.29626964699256" lon="9.583554941339273"><ele>364.3333333333333</ele><time>2026-04-28T15:00:51.007Z</time></trkpt><trkpt lat="40.29626570022915" lon="9.5834493816924"><ele>363.0</ele><time>2026-04-28T15:00:52.007Z</time></trkpt><trkpt lat="40.29625902737158" lon="9.583350212415233"><ele>361.6666666666667</ele><time>2026-04-28T15:00:53.007Z</time></trkpt><trkpt lat="40.29624884932468" lon="9.58324283599713"><ele>360.33333333333337</ele><time>2026-04-28T15:00:54.007Z</time></trkpt><trkpt lat="40.296240606705574" lon="9.583138635674777"><ele>359.0</ele><time>2026-04-28T15:00:55.007Z</time></trkpt><trkpt lat="40.296236504073356" lon="9.583038987781263"><ele>359.0</ele><time>2026-04-28T15:00:56.007Z</time></trkpt><trkpt lat="40.29623289669649" lon="9.582943624376968"><ele>359.0</ele><time>2026-04-28T15:00:57.007Z</time></trkpt><trkpt lat="40.29622485864486" lon="9.582854089425282"><ele>359.0</ele><time>2026-04-28T15:00:58.007Z</time></trkpt><trkpt lat="40.2962205793068" lon="9.58276652840621"><ele>359.0</ele><time>2026-04-28T15:00:59.007Z</time></trkpt><trkpt lat="40.29621734118176" lon="9.582669109181007"><ele>359.0</ele><time>2026-04-28T15:01:00.007Z</time></trkpt><trkpt lat="40.29621032598683" lon="9.582565147342265"><ele>359.0</ele><time>2026-04-28T15:01:01.007Z</time></trkpt><trkpt lat="40.296208272270356" lon="9.582450348324869"><ele>357.83333333333337</ele><time>2026-04-28T15:01:02.007Z</time></trkpt><trkpt lat="40.29620345509037" lon="9.582331243810854"><ele>356.6666666666667</ele><time>2026-04-28T15:01:03.007Z</time></trkpt><trkpt lat="40.29619927932602" lon="9.582217502493116"><ele>355.5</ele><time>2026-04-28T15:01:04.007Z</time></trkpt><trkpt lat="40.29619046653799" lon="9.58210136273584"><ele>354.3333333333333</ele><time>2026-04-28T15:01:05.007Z</time></trkpt><trkpt lat="40.29618299214469" lon="9.581989182635292"><ele>353.16666666666663</ele><time>2026-04-28T15:01:06.007Z</time></trkpt><trkpt lat="40.29617689225856" lon="9.581875074802578"><ele>352.0</ele><time>2026-04-28T15:01:07.007Z</time></trkpt><trkpt lat="40.29617133677467" lon="9.581750353304546"><ele>352.0</ele><time>2026-04-28T15:01:08.007Z</time></trkpt><trkpt lat="40.29616696617647" lon="9.581616078670756"><ele>352.0</ele><time>2026-04-28T15:01:09.007Z</time></trkpt><trkpt lat="40.29616873826636" lon="9.581482188906412"><ele>352.0</ele><time>2026-04-28T15:01:10.007Z</time></trkpt><trkpt lat="40.29617694384896" lon="9.581348489939755"><ele>352.0</ele><time>2026-04-28T15:01:11.007Z</time></trkpt><trkpt lat="40.296189025658194" lon="9.58121663605748"><ele>352.0</ele><time>2026-04-28T15:01:12.007Z</time></trkpt><trkpt lat="40.29620219788991" lon="9.581086435357031"><ele>351.3333333333333</ele><time>2026-04-28T15:01:13.007Z</time></trkpt><trkpt lat="40.29622302286633" lon="9.580970874375373"><ele>350.66666666666663</ele><time>2026-04-28T15:01:14.007Z</time></trkpt><trkpt lat="40.29624573341409" lon="9.580869951575956"><ele>350.0</ele><time>2026-04-28T15:01:15.007Z</time></trkpt><trkpt lat="40.29627385132158" lon="9.580775179122844"><ele>349.3333333333333</ele><time>2026-04-28T15:01:16.007Z</time></trkpt><trkpt lat="40.29631173934032" lon="9.580684653856716"><ele>348.6666666666667</ele><time>2026-04-28T15:01:17.007Z</time></trkpt><trkpt lat="40.29635327502748" lon="9.580602687881047"><ele>348.0</ele><time>2026-04-28T15:01:18.007Z</time></trkpt><trkpt lat="40.296392767351314" lon="9.580514013677604"><ele>347.8333333333333</ele><time>2026-04-28T15:01:19.007Z</time></trkpt><trkpt lat="40.29642873161171" lon="9.580431285525016"><ele>347.6666666666667</ele><time>2026-04-28T15:01:20.007Z</time></trkpt><trkpt lat="40.29646751931315" lon="9.580349855022993"><ele>347.5</ele><time>2026-04-28T15:01:21.007Z</time></trkpt><trkpt lat="40.29650944136019" lon="9.580264427266082"><ele>347.33333333333337</ele><time>2026-04-28T15:01:22.007Z</time></trkpt><trkpt lat="40.29654979022562" lon="9.580170475753118"><ele>347.1666666666667</ele><time>2026-04-28T15:01:23.007Z</time></trkpt><trkpt lat="40.29658457678111" lon="9.580063923640793"><ele>347.0</ele><time>2026-04-28T15:01:24.007Z</time></trkpt><trkpt lat="40.29660813938489" lon="9.579942792797064"><ele>347.0</ele><time>2026-04-28T15:01:25.007Z</time></trkpt><trkpt lat="40.29661590305743" lon="9.579812797770156"><ele>347.0</ele><time>2026-04-28T15:01:26.008Z</time></trkpt><trkpt lat="40.29661552952246" lon="9.57968803910104"><ele>347.0</ele><time>2026-04-28T15:01:27.008Z</time></trkpt><trkpt lat="40.2966035739611" lon="9.579565762084355"><ele>347.0</ele><time>2026-04-28T15:01:28.008Z</time></trkpt><trkpt lat="40.29659497359461" lon="9.579448623074047"><ele>347.0</ele><time>2026-04-28T15:01:29.008Z</time></trkpt><trkpt lat="40.29658427722182" lon="9.579334681915459"><ele>346.7142857142857</ele><time>2026-04-28T15:01:30.008Z</time></trkpt><trkpt lat="40.29657345944138" lon="9.57922951871109"><ele>346.4285714285714</ele><time>2026-04-28T15:01:31.008Z</time></trkpt><trkpt lat="40.29656350406112" lon="9.579136523891364"><ele>346.1428571428571</ele><time>2026-04-28T15:01:32.008Z</time></trkpt><trkpt lat="40.29655533921928" lon="9.57904677204979"><ele>345.8571428571429</ele><time>2026-04-28T15:01:33.008Z</time></trkpt><trkpt lat="40.29655159275719" lon="9.578955986164472"><ele>345.57142857142856</ele><time>2026-04-28T15:01:34.008Z</time></trkpt><trkpt lat="40.29654583228812" lon="9.578862848669567"><ele>345.2857142857143</ele><time>2026-04-28T15:01:35.008Z</time></trkpt><trkpt lat="40.29654128017336" lon="9.578769080951854"><ele>345.0</ele><time>2026-04-28T15:01:36.008Z</time></trkpt><trkpt lat="40.29653378040892" lon="9.578668727385859"><ele>345.0</ele><time>2026-04-28T15:01:37.008Z</time></trkpt><trkpt lat="40.29653912658797" lon="9.578566456899056"><ele>345.0</ele><time>2026-04-28T15:01:38.008Z</time></trkpt><trkpt lat="40.29654735271154" lon="9.578460553537091"><ele>345.0</ele><time>2026-04-28T15:01:39.008Z</time></trkpt><trkpt lat="40.29656632613009" lon="9.578356002258761"><ele>345.0</ele><time>2026-04-28T15:01:40.008Z</time></trkpt><trkpt lat="40.296595154558624" lon="9.57825752121522"><ele>345.0</ele><time>2026-04-28T15:01:41.008Z</time></trkpt><trkpt lat="40.296628306391185" lon="9.578157527899837"><ele>345.0</ele><time>2026-04-28T15:01:42.008Z</time></trkpt><trkpt lat="40.29667364552012" lon="9.578058034287396"><ele>345.0</ele><time>2026-04-28T15:01:43.008Z</time></trkpt><trkpt lat="40.29672988904113" lon="9.577957923358312"><ele>345.0</ele><time>2026-04-28T15:01:44.008Z</time></trkpt><trkpt lat="40.29679436688649" lon="9.577857650824482"><ele>345.0</ele><time>2026-04-28T15:01:45.008Z</time></trkpt><trkpt lat="40.29686937086746" lon="9.577767898945012"><ele>345.0</ele><time>2026-04-28T15:01:46.008Z</time></trkpt><trkpt lat="40.29694352919848" lon="9.577681990120027"><ele>345.0</ele><time>2026-04-28T15:01:47.008Z</time></trkpt><trkpt lat="40.297023957483226" lon="9.577617005206033"><ele>343.8333333333333</ele><time>2026-04-28T15:01:48.008Z</time></trkpt><trkpt lat="40.297105566883054" lon="9.577578776809803"><ele>342.6666666666667</ele><time>2026-04-28T15:01:49.008Z</time></trkpt><trkpt lat="40.29718635543763" lon="9.577525297649439"><ele>341.5</ele><time>2026-04-28T15:01:50.008Z</time></trkpt><trkpt lat="40.2972719711668" lon="9.577483712498973"><ele>340.33333333333337</ele><time>2026-04-28T15:01:51.008Z</time></trkpt><trkpt lat="40.2973538410184" lon="9.577444304297577"><ele>339.1666666666667</ele><time>2026-04-28T15:01:52.008Z</time></trkpt><trkpt lat="40.29743187095848" lon="9.57741355643168"><ele>338.0</ele><time>2026-04-28T15:01:53.008Z</time></trkpt><trkpt lat="40.29751069680404" lon="9.577406965064277"><ele>337.5</ele><time>2026-04-28T15:01:54.008Z</time></trkpt><trkpt lat="40.297581467595805" lon="9.577427382270029"><ele>337.0</ele><time>2026-04-28T15:01:55.008Z</time></trkpt><trkpt lat="40.297645100740745" lon="9.577469079330612"><ele>336.5</ele><time>2026-04-28T15:01:56.008Z</time></trkpt><trkpt lat="40.29770744545015" lon="9.577525855597514"><ele>336.0</ele><time>2026-04-28T15:01:57.008Z</time></trkpt><trkpt lat="40.297766724119505" lon="9.577592053321263"><ele>335.5</ele><time>2026-04-28T15:01:58.008Z</time></trkpt><trkpt lat="40.29782872734018" lon="9.57765202132109"><ele>335.0</ele><time>2026-04-28T15:01:59.008Z</time></trkpt><trkpt lat="40.29789145243363" lon="9.577708301409658"><ele>335.0</ele><time>2026-04-28T15:02:00.008Z</time></trkpt><trkpt lat="40.297957335626876" lon="9.577748957489346"><ele>335.0</ele><time>2026-04-28T15:02:01.008Z</time></trkpt><trkpt lat="40.29803578436403" lon="9.577776949839988"><ele>335.0</ele><time>2026-04-28T15:02:02.008Z</time></trkpt><trkpt lat="40.29811784106963" lon="9.577777568659583"><ele>335.0</ele><time>2026-04-28T15:02:03.008Z</time></trkpt><trkpt lat="40.2981932605108" lon="9.57774731075002"><ele>335.0</ele><time>2026-04-28T15:02:04.008Z</time></trkpt><trkpt lat="40.298270139873104" lon="9.57769035805964"><ele>335.0</ele><time>2026-04-28T15:02:05.008Z</time></trkpt><trkpt lat="40.29835738953918" lon="9.577586709440176"><ele>334.4</ele><time>2026-04-28T15:02:06.008Z</time></trkpt><trkpt lat="40.29844938374495" lon="9.57746173747434"><ele>333.8</ele><time>2026-04-28T15:02:07.008Z</time></trkpt><trkpt lat="40.29853000812317" lon="9.577348525513893"><ele>333.20000000000005</ele><time>2026-04-28T15:02:08.008Z</time></trkpt><trkpt lat="40.29859817078664" lon="9.57725415255266"><ele>332.6</ele><time>2026-04-28T15:02:09.008Z</time></trkpt><trkpt lat="40.29865426703094" lon="9.577157436275815"><ele>332.0</ele><time>2026-04-28T15:02:10.008Z</time></trkpt><trkpt lat="40.298711403943095" lon="9.577060223641727"><ele>332.25</ele><time>2026-04-28T15:02:11.008Z</time></trkpt><trkpt lat="40.298767220808124" lon="9.57695975296898"><ele>332.5</ele><time>2026-04-28T15:02:12.008Z</time></trkpt><trkpt lat="40.298826036492486" lon="9.576845260598843"><ele>332.75</ele><time>2026-04-28T15:02:13.008Z</time></trkpt><trkpt lat="40.298874316923836" lon="9.576711559345558"><ele>333.0</ele><time>2026-04-28T15:02:14.008Z</time></trkpt><trkpt lat="40.29892312291273" lon="9.576542880545935"><ele>333.0</ele><time>2026-04-28T15:02:15.008Z</time></trkpt><trkpt lat="40.29898810356564" lon="9.576342434926111"><ele>333.0</ele><time>2026-04-28T15:02:16.008Z</time></trkpt><trkpt lat="40.299094739403415" lon="9.576130057144164"><ele>333.0</ele><time>2026-04-28T15:02:17.008Z</time></trkpt><trkpt lat="40.29921299649214" lon="9.575899018889814"><ele>328.0</ele><time>2026-04-28T15:02:18.008Z</time></trkpt><trkpt lat="40.29933051666194" lon="9.575657853784506"><ele>323.0</ele><time>2026-04-28T15:02:19.008Z</time></trkpt><trkpt lat="40.29945026376145" lon="9.575397894362824"><ele>322.33333333333337</ele><time>2026-04-28T15:02:20.008Z</time></trkpt><trkpt lat="40.29956781693722" lon="9.575142176517417"><ele>321.6666666666667</ele><time>2026-04-28T15:02:21.008Z</time></trkpt><trkpt lat="40.29968222279918" lon="9.574900903007116"><ele>321.0</ele><time>2026-04-28T15:02:22.008Z</time></trkpt><trkpt lat="40.29978022413722" lon="9.574657768472052"><ele>318.6666666666667</ele><time>2026-04-28T15:02:23.008Z</time></trkpt><trkpt lat="40.299848620312545" lon="9.574394546324992"><ele>316.33333333333337</ele><time>2026-04-28T15:02:24.008Z</time></trkpt><trkpt lat="40.29989380753335" lon="9.574122188099977"><ele>314.0</ele><time>2026-04-28T15:02:25.008Z</time></trkpt><trkpt lat="40.299927451567186" lon="9.573857229770264"><ele>311.0</ele><time>2026-04-28T15:02:26.008Z</time></trkpt><trkpt lat="40.299984373726026" lon="9.573612818085302"><ele>308.0</ele><time>2026-04-28T15:02:27.008Z</time></trkpt><trkpt lat="40.30008152346818" lon="9.573386244925373"><ele>305.0</ele><time>2026-04-28T15:02:28.008Z</time></trkpt><trkpt lat="40.300211052075596" lon="9.573174100668762"><ele>305.0</ele><time>2026-04-28T15:02:29.008Z</time></trkpt><trkpt lat="40.300345808137344" lon="9.57295691559656"><ele>305.0</ele><time>2026-04-28T15:02:30.008Z</time></trkpt><trkpt lat="40.30047634177858" lon="9.572738061278834"><ele>305.0</ele><time>2026-04-28T15:02:31.008Z</time></trkpt><trkpt lat="40.30059761005641" lon="9.572500276025519"><ele>304.6666666666667</ele><time>2026-04-28T15:02:32.008Z</time></trkpt><trkpt lat="40.300714279056024" lon="9.572258194216987"><ele>304.3333333333333</ele><time>2026-04-28T15:02:33.008Z</time></trkpt><trkpt lat="40.30080787828742" lon="9.572002968837543"><ele>304.0</ele><time>2026-04-28T15:02:34.008Z</time></trkpt><trkpt lat="40.30086290607537" lon="9.571736796571807"><ele>301.66666666666663</ele><time>2026-04-28T15:02:35.008Z</time></trkpt><trkpt lat="40.30089380405139" lon="9.571481937029247"><ele>299.3333333333333</ele><time>2026-04-28T15:02:36.008Z</time></trkpt><trkpt lat="40.30092635847886" lon="9.571242196434486"><ele>297.0</ele><time>2026-04-28T15:02:37.008Z</time></trkpt><trkpt lat="40.30097750591822" lon="9.571034531085667"><ele>295.75</ele><time>2026-04-28T15:02:38.008Z</time></trkpt><trkpt lat="40.301066119416106" lon="9.57089392115366"><ele>294.5</ele><time>2026-04-28T15:02:39.008Z</time></trkpt><trkpt lat="40.30118992599914" lon="9.570830294960555"><ele>293.25</ele><time>2026-04-28T15:02:40.007Z</time></trkpt><trkpt lat="40.30131921752415" lon="9.570847032749546"><ele>292.0</ele><time>2026-04-28T15:02:41.007Z</time></trkpt><trkpt lat="40.301428770228995" lon="9.570939894124672"><ele>292.0</ele><time>2026-04-28T15:02:42.007Z</time></trkpt><trkpt lat="40.30151681222362" lon="9.57108772569852"><ele>292.0</ele><time>2026-04-28T15:02:43.007Z</time></trkpt><trkpt lat="40.301610493788544" lon="9.571257522448255"><ele>292.0</ele><time>2026-04-28T15:02:44.007Z</time></trkpt><trkpt lat="40.301722443519196" lon="9.571433982514728"><ele>293.3333333333333</ele><time>2026-04-28T15:02:45.007Z</time></trkpt><trkpt lat="40.30186694324036" lon="9.57156935629031"><ele>294.6666666666667</ele><time>2026-04-28T15:02:46.007Z</time></trkpt><trkpt lat="40.302030579975856" lon="9.571657365107574"><ele>296.0</ele><time>2026-04-28T15:02:47.007Z</time></trkpt><trkpt lat="40.302206610910865" lon="9.571699593221647"><ele>293.33333333333337</ele><time>2026-04-28T15:02:48.007Z</time></trkpt><trkpt lat="40.302392203330704" lon="9.57171278452608"><ele>290.6666666666667</ele><time>2026-04-28T15:02:49.007Z</time></trkpt><trkpt lat="40.302569951209236" lon="9.571729088260224"><ele>288.0</ele><time>2026-04-28T15:02:50.007Z</time></trkpt><trkpt lat="40.30273247954326" lon="9.571778298538888"><ele>288.0</ele><time>2026-04-28T15:02:51.007Z</time></trkpt><trkpt lat="40.30285924864753" lon="9.571877698584805"><ele>288.0</ele><time>2026-04-28T15:02:52.007Z</time></trkpt><trkpt lat="40.30293813495148" lon="9.572004985135836"><ele>288.0</ele><time>2026-04-28T15:02:53.007Z</time></trkpt><trkpt lat="40.30298019968691" lon="9.572136037187056"><ele>288.0</ele><time>2026-04-28T15:02:54.007Z</time></trkpt><trkpt lat="40.3030152889332" lon="9.572231105082533"><ele>286.2</ele><time>2026-04-28T15:02:55.007Z</time></trkpt><trkpt lat="40.30312475090739" lon="9.572244402162251"><ele>284.4</ele><time>2026-04-28T15:02:57.007Z</time></trkpt><trkpt lat="40.30317479823062" lon="9.57219215481843"><ele>282.59999999999997</ele><time>2026-04-28T15:02:58.007Z</time></trkpt><trkpt lat="40.303230718846045" lon="9.572043036984976"><ele>280.8</ele><time>2026-04-28T15:03:00.007Z</time></trkpt><trkpt lat="40.30325558530582" lon="9.571948327827924"><ele>279.0</ele><time>2026-04-28T15:03:01.007Z</time></trkpt><trkpt lat="40.30327599734617" lon="9.571823800971508"><ele>279.0</ele><time>2026-04-28T15:03:02.007Z</time></trkpt><trkpt lat="40.30329441966934" lon="9.571670505938263"><ele>279.0</ele><time>2026-04-28T15:03:03.007Z</time></trkpt><trkpt lat="40.30331607783057" lon="9.571500708679476"><ele>279.0</ele><time>2026-04-28T15:03:04.007Z</time></trkpt><trkpt lat="40.303342043017125" lon="9.571322261371245"><ele>279.0</ele><time>2026-04-28T15:03:05.007Z</time></trkpt><trkpt lat="40.3033672226525" lon="9.571135724596699"><ele>278.6666666666667</ele><time>2026-04-28T15:03:06.007Z</time></trkpt><trkpt lat="40.30338128770461" lon="9.570943880533733"><ele>278.33333333333337</ele><time>2026-04-28T15:03:07.007Z</time></trkpt><trkpt lat="40.303372268535156" lon="9.570742410367181"><ele>278.0</ele><time>2026-04-28T15:03:08.007Z</time></trkpt><trkpt lat="40.30331206068689" lon="9.570542599014477"><ele>275.6666666666667</ele><time>2026-04-28T15:03:09.007Z</time></trkpt><trkpt lat="40.30323625376798" lon="9.570336703077931"><ele>273.3333333333333</ele><time>2026-04-28T15:03:10.007Z</time></trkpt><trkpt lat="40.303180878914674" lon="9.57011866048551"><ele>271.0</ele><time>2026-04-28T15:03:11.007Z</time></trkpt><trkpt lat="40.30318731707197" lon="9.569894470397855"><ele>271.0</ele><time>2026-04-28T15:03:12.007Z</time></trkpt><trkpt lat="40.30324719167263" lon="9.569667996520932"><ele>271.0</ele><time>2026-04-28T15:03:13.007Z</time></trkpt><trkpt lat="40.30333484488752" lon="9.569450761904488"><ele>271.0</ele><time>2026-04-28T15:03:14.007Z</time></trkpt><trkpt lat="40.3034191054412" lon="9.569228003434489"><ele>270.66666666666663</ele><time>2026-04-28T15:03:15.007Z</time></trkpt><trkpt lat="40.30348000277342" lon="9.5689867139287"><ele>270.3333333333333</ele><time>2026-04-28T15:03:16.007Z</time></trkpt><trkpt lat="40.30354944985309" lon="9.568752164653038"><ele>270.0</ele><time>2026-04-28T15:03:17.007Z</time></trkpt><trkpt lat="40.30361373728362" lon="9.568504252339324"><ele>268.6666666666667</ele><time>2026-04-28T15:03:18.007Z</time></trkpt><trkpt lat="40.303681065658" lon="9.568255946897757"><ele>267.33333333333337</ele><time>2026-04-28T15:03:19.007Z</time></trkpt><trkpt lat="40.30374704984562" lon="9.568009227382337"><ele>266.0</ele><time>2026-04-28T15:03:20.007Z</time></trkpt><trkpt lat="40.30382064870254" lon="9.56775434991689"><ele>265.0</ele><time>2026-04-28T15:03:21.007Z</time></trkpt><trkpt lat="40.30389793327127" lon="9.567499238420421"><ele>264.0</ele><time>2026-04-28T15:03:22.007Z</time></trkpt><trkpt lat="40.30397178996431" lon="9.567240874561286"><ele>263.0</ele><time>2026-04-28T15:03:23.007Z</time></trkpt><trkpt lat="40.30405060852266" lon="9.566985207973554"><ele>260.33333333333337</ele><time>2026-04-28T15:03:24.007Z</time></trkpt><trkpt lat="40.30413253024734" lon="9.566744486387334"><ele>257.6666666666667</ele><time>2026-04-28T15:03:25.007Z</time></trkpt><trkpt lat="40.30420198108653" lon="9.566501931734829"><ele>255.0</ele><time>2026-04-28T15:03:26.007Z</time></trkpt><trkpt lat="40.304268282701614" lon="9.566269957554654"><ele>253.66666666666669</ele><time>2026-04-28T15:03:27.007Z</time></trkpt><trkpt lat="40.30431850672397" lon="9.566034753779018"><ele>252.33333333333334</ele><time>2026-04-28T15:03:28.007Z</time></trkpt><trkpt lat="40.30433992402247" lon="9.565786550979453"><ele>251.0</ele><time>2026-04-28T15:03:29.007Z</time></trkpt><trkpt lat="40.30433213567589" lon="9.56553758864025"><ele>249.66666666666669</ele><time>2026-04-28T15:03:30.007Z</time></trkpt><trkpt lat="40.30429819902128" lon="9.565285847579327"><ele>248.33333333333331</ele><time>2026-04-28T15:03:31.007Z</time></trkpt><trkpt lat="40.30428881921698" lon="9.565030339303012"><ele>247.0</ele><time>2026-04-28T15:03:32.008Z</time></trkpt><trkpt lat="40.30432614509705" lon="9.564784564537351"><ele>247.0</ele><time>2026-04-28T15:03:33.008Z</time></trkpt><trkpt lat="40.30439386561342" lon="9.564548116383813"><ele>247.0</ele><time>2026-04-28T15:03:34.008Z</time></trkpt><trkpt lat="40.304475952921145" lon="9.564306471936854"><ele>247.0</ele><time>2026-04-28T15:03:35.008Z</time></trkpt><trkpt lat="40.30455985892299" lon="9.56406694894826"><ele>246.0</ele><time>2026-04-28T15:03:36.007Z</time></trkpt><trkpt lat="40.304640437609756" lon="9.563827320002707"><ele>245.0</ele><time>2026-04-28T15:03:37.007Z</time></trkpt><trkpt lat="40.304729815574596" lon="9.563576409663774"><ele>244.0</ele><time>2026-04-28T15:03:38.008Z</time></trkpt><trkpt lat="40.30482048987608" lon="9.563322182812335"><ele>242.33333333333331</ele><time>2026-04-28T15:03:39.008Z</time></trkpt><trkpt lat="40.304906062190575" lon="9.563069889545513"><ele>240.66666666666669</ele><time>2026-04-28T15:03:40.008Z</time></trkpt><trkpt lat="40.30499538271721" lon="9.562809507576613"><ele>239.0</ele><time>2026-04-28T15:03:41.008Z</time></trkpt><trkpt lat="40.305090500646344" lon="9.562544264766075"><ele>238.33333333333334</ele><time>2026-04-28T15:03:42.008Z</time></trkpt><trkpt lat="40.30519156854548" lon="9.562280199671727"><ele>237.66666666666669</ele><time>2026-04-28T15:03:43.008Z</time></trkpt><trkpt lat="40.3052898443065" lon="9.562019420737885"><ele>237.0</ele><time>2026-04-28T15:03:44.008Z</time></trkpt><trkpt lat="40.30538260011321" lon="9.56175210706398"><ele>237.0</ele><time>2026-04-28T15:03:45.008Z</time></trkpt><trkpt lat="40.30547688087278" lon="9.561476217265184"><ele>237.0</ele><time>2026-04-28T15:03:46.008Z</time></trkpt><trkpt lat="40.305574959140365" lon="9.561198413583286"><ele>234.5</ele><time>2026-04-28T15:03:47.008Z</time></trkpt><trkpt lat="40.30567637383045" lon="9.560914463420728"><ele>232.0</ele><time>2026-04-28T15:03:48.008Z</time></trkpt><trkpt lat="40.305779177841636" lon="9.560623735672133"><ele>232.0</ele><time>2026-04-28T15:03:49.008Z</time></trkpt><trkpt lat="40.30587973364614" lon="9.560328082462997"><ele>232.0</ele><time>2026-04-28T15:03:50.008Z</time></trkpt><trkpt lat="40.3059823286737" lon="9.560028729067731"><ele>232.0</ele><time>2026-04-28T15:03:51.008Z</time></trkpt><trkpt lat="40.30608318526285" lon="9.559722911376518"><ele>232.0</ele><time>2026-04-28T15:03:52.008Z</time></trkpt><trkpt lat="40.30618085187259" lon="9.559410449187281"><ele>232.0</ele><time>2026-04-28T15:03:53.008Z</time></trkpt><trkpt lat="40.306278506579595" lon="9.559090741014312"><ele>232.0</ele><time>2026-04-28T15:03:54.008Z</time></trkpt><trkpt lat="40.306382777998046" lon="9.55877072181365"><ele>229.0</ele><time>2026-04-28T15:03:55.008Z</time></trkpt><trkpt lat="40.306492701619916" lon="9.55845400588438"><ele>226.0</ele><time>2026-04-28T15:03:56.008Z</time></trkpt><trkpt lat="40.30660067571071" lon="9.558137747554744"><ele>225.5</ele><time>2026-04-28T15:03:57.008Z</time></trkpt><trkpt lat="40.30670756673608" lon="9.557820671951426"><ele>225.0</ele><time>2026-04-28T15:03:58.008Z</time></trkpt><trkpt lat="40.30681337939089" lon="9.557507431170887"><ele>225.0</ele><time>2026-04-28T15:03:59.008Z</time></trkpt><trkpt lat="40.30691898943417" lon="9.557200413594002"><ele>225.0</ele><time>2026-04-28T15:04:00.008Z</time></trkpt><trkpt lat="40.30702388231985" lon="9.556894725201909"><ele>225.0</ele><time>2026-04-28T15:04:01.008Z</time></trkpt><trkpt lat="40.30712643637792" lon="9.556594143689042"><ele>225.0</ele><time>2026-04-28T15:04:02.007Z</time></trkpt><trkpt lat="40.307232599442045" lon="9.556293738126346"><ele>222.0</ele><time>2026-04-28T15:04:03.007Z</time></trkpt><trkpt lat="40.30733437286105" lon="9.555993712611128"><ele>219.0</ele><time>2026-04-28T15:04:04.007Z</time></trkpt><trkpt lat="40.307428518826505" lon="9.555695569426096"><ele>219.0</ele><time>2026-04-28T15:04:05.007Z</time></trkpt><trkpt lat="40.30750188646739" lon="9.55539562888965"><ele>219.0</ele><time>2026-04-28T15:04:06.007Z</time></trkpt><trkpt lat="40.30754263421155" lon="9.555095558730791"><ele>219.0</ele><time>2026-04-28T15:04:07.007Z</time></trkpt><trkpt lat="40.30755857025262" lon="9.554797939498192"><ele>219.0</ele><time>2026-04-28T15:04:08.007Z</time></trkpt><trkpt lat="40.30754399105309" lon="9.554504096163601"><ele>218.0</ele><time>2026-04-28T15:04:09.007Z</time></trkpt><trkpt lat="40.3074985230879" lon="9.554228185510922"><ele>217.0</ele><time>2026-04-28T15:04:10.007Z</time></trkpt><trkpt lat="40.307428965210235" lon="9.553956946565654"><ele>216.0</ele><time>2026-04-28T15:04:11.007Z</time></trkpt><trkpt lat="40.30734625358934" lon="9.553675405523776"><ele>216.0</ele><time>2026-04-28T15:04:12.007Z</time></trkpt><trkpt lat="40.30726046079459" lon="9.55338153894718"><ele>216.0</ele><time>2026-04-28T15:04:13.007Z</time></trkpt><trkpt lat="40.30717640907481" lon="9.553089437173242"><ele>213.5</ele><time>2026-04-28T15:04:14.007Z</time></trkpt><trkpt lat="40.3070913042691" lon="9.552799052458644"><ele>211.0</ele><time>2026-04-28T15:04:15.007Z</time></trkpt><trkpt lat="40.30700617505701" lon="9.552511197107874"><ele>211.0</ele><time>2026-04-28T15:04:16.007Z</time></trkpt><trkpt lat="40.306920794634884" lon="9.552225879223938"><ele>211.0</ele><time>2026-04-28T15:04:17.007Z</time></trkpt><trkpt lat="40.306836140518996" lon="9.551944807097515"><ele>208.5</ele><time>2026-04-28T15:04:18.007Z</time></trkpt><trkpt lat="40.30675186859771" lon="9.55166644677147"><ele>206.0</ele><time>2026-04-28T15:04:19.007Z</time></trkpt><trkpt lat="40.30666607568724" lon="9.551390697089966"><ele>205.33333333333334</ele><time>2026-04-28T15:04:20.007Z</time></trkpt><trkpt lat="40.3065845663691" lon="9.55111778315949"><ele>204.66666666666669</ele><time>2026-04-28T15:04:21.007Z</time></trkpt><trkpt lat="40.306477458077985" lon="9.550868073672717"><ele>204.0</ele><time>2026-04-28T15:04:22.007Z</time></trkpt><trkpt lat="40.306338270851555" lon="9.5506455357302"><ele>204.0</ele><time>2026-04-28T15:04:23.007Z</time></trkpt><trkpt lat="40.306201331541104" lon="9.550412194162128"><ele>204.0</ele><time>2026-04-28T15:04:24.007Z</time></trkpt><trkpt lat="40.306095493946344" lon="9.55013801508703"><ele>200.5</ele><time>2026-04-28T15:04:25.007Z</time></trkpt><trkpt lat="40.305999492839774" lon="9.549856320773278"><ele>197.0</ele><time>2026-04-28T15:04:26.007Z</time></trkpt><trkpt lat="40.305916702464714" lon="9.549556084134554"><ele>196.0</ele><time>2026-04-28T15:04:27.007Z</time></trkpt><trkpt lat="40.30580573177645" lon="9.549298631949389"><ele>195.0</ele><time>2026-04-28T15:04:28.007Z</time></trkpt><trkpt lat="40.305664744938106" lon="9.549084522720651"><ele>194.0</ele><time>2026-04-28T15:04:29.007Z</time></trkpt><trkpt lat="40.30552173730561" lon="9.548881885748074"><ele>192.0</ele><time>2026-04-28T15:04:30.007Z</time></trkpt><trkpt lat="40.30541832375052" lon="9.548624202840813"><ele>190.0</ele><time>2026-04-28T15:04:31.007Z</time></trkpt><trkpt lat="40.305340937164196" lon="9.548364922949144"><ele>188.0</ele><time>2026-04-28T15:04:32.007Z</time></trkpt><trkpt lat="40.30525806184143" lon="9.548123354410142"><ele>188.0</ele><time>2026-04-28T15:04:33.007Z</time></trkpt><trkpt lat="40.305169291598475" lon="9.547885505867495"><ele>188.0</ele><time>2026-04-28T15:04:34.007Z</time></trkpt><trkpt lat="40.30504501549014" lon="9.547692120472577"><ele>188.0</ele><time>2026-04-28T15:04:35.007Z</time></trkpt><trkpt lat="40.30488573625304" lon="9.547533309579496"><ele>187.66666666666666</ele><time>2026-04-28T15:04:36.007Z</time></trkpt><trkpt lat="40.30471482120848" lon="9.547398130693189"><ele>187.33333333333334</ele><time>2026-04-28T15:04:37.007Z</time></trkpt><trkpt lat="40.30455324834719" lon="9.547284950921638"><ele>187.0</ele><time>2026-04-28T15:04:38.007Z</time></trkpt><trkpt lat="40.30441512801094" lon="9.547175899583719"><ele>187.0</ele><time>2026-04-28T15:04:39.007Z</time></trkpt><trkpt lat="40.30428898793423" lon="9.547068477026228"><ele>187.0</ele><time>2026-04-28T15:04:40.007Z</time></trkpt><trkpt lat="40.304162086557376" lon="9.54694364695729"><ele>187.0</ele><time>2026-04-28T15:04:41.007Z</time></trkpt><trkpt lat="40.30405259161717" lon="9.54679048488451"><ele>185.33333333333334</ele><time>2026-04-28T15:04:42.007Z</time></trkpt><trkpt lat="40.30394234209651" lon="9.546607965730002"><ele>183.66666666666666</ele><time>2026-04-28T15:04:43.007Z</time></trkpt><trkpt lat="40.30382526020208" lon="9.546373377897778"><ele>182.0</ele><time>2026-04-28T15:04:44.007Z</time></trkpt><trkpt lat="40.30372366078506" lon="9.546138318847285"><ele>180.66666666666666</ele><time>2026-04-28T15:04:45.007Z</time></trkpt><trkpt lat="40.30365106696671" lon="9.545881816058847"><ele>179.33333333333334</ele><time>2026-04-28T15:04:46.007Z</time></trkpt><trkpt lat="40.3035388718346" lon="9.54565556354934"><ele>178.0</ele><time>2026-04-28T15:04:47.007Z</time></trkpt><trkpt lat="40.30340809236097" lon="9.545432560113513"><ele>177.33333333333334</ele><time>2026-04-28T15:04:48.007Z</time></trkpt><trkpt lat="40.303268162710054" lon="9.545205029608702"><ele>176.66666666666666</ele><time>2026-04-28T15:04:49.007Z</time></trkpt><trkpt lat="40.30312638202355" lon="9.544980708087751"><ele>176.0</ele><time>2026-04-28T15:04:50.007Z</time></trkpt><trkpt lat="40.30298266449737" lon="9.544756783040217"><ele>175.0</ele><time>2026-04-28T15:04:51.007Z</time></trkpt><trkpt lat="40.30284636631937" lon="9.544541304020202"><ele>174.0</ele><time>2026-04-28T15:04:52.007Z</time></trkpt><trkpt lat="40.30271621573962" lon="9.5443339460959"><ele>173.0</ele><time>2026-04-28T15:04:53.007Z</time></trkpt><trkpt lat="40.302601121576295" lon="9.54412039786909"><ele>173.0</ele><time>2026-04-28T15:04:54.007Z</time></trkpt><trkpt lat="40.30252392970641" lon="9.543888289657083"><ele>173.0</ele><time>2026-04-28T15:04:55.007Z</time></trkpt><trkpt lat="40.30248341131686" lon="9.54363217026664"><ele>173.0</ele><time>2026-04-28T15:04:56.007Z</time></trkpt><trkpt lat="40.30247006785979" lon="9.543366862492745"><ele>172.33333333333331</ele><time>2026-04-28T15:04:57.007Z</time></trkpt><trkpt lat="40.3024912955728" lon="9.543104155003569"><ele>171.66666666666666</ele><time>2026-04-28T15:04:58.007Z</time></trkpt><trkpt lat="40.302558239585856" lon="9.542856306461491"><ele>171.0</ele><time>2026-04-28T15:04:59.007Z</time></trkpt><trkpt lat="40.302659683946025" lon="9.542626715145957"><ele>167.0</ele><time>2026-04-28T15:05:00.007Z</time></trkpt><trkpt lat="40.30278498393159" lon="9.542418550297013"><ele>163.0</ele><time>2026-04-28T15:05:01.007Z</time></trkpt><trkpt lat="40.302939346684106" lon="9.542228994261071"><ele>159.0</ele><time>2026-04-28T15:05:02.007Z</time></trkpt><trkpt lat="40.303100238731126" lon="9.542037981288697"><ele>158.0</ele><time>2026-04-28T15:05:03.007Z</time></trkpt><trkpt lat="40.30325992305879" lon="9.541837953729377"><ele>157.0</ele><time>2026-04-28T15:05:04.007Z</time></trkpt><trkpt lat="40.3034228333032" lon="9.541646236430514"><ele>156.0</ele><time>2026-04-28T15:05:05.007Z</time></trkpt><trkpt lat="40.303583786548224" lon="9.541449431081816"><ele>156.0</ele><time>2026-04-28T15:05:06.007Z</time></trkpt><trkpt lat="40.30373848488456" lon="9.541238595107963"><ele>156.0</ele><time>2026-04-28T15:05:07.007Z</time></trkpt><trkpt lat="40.3038898525299" lon="9.541034091368303"><ele>156.0</ele><time>2026-04-28T15:05:08.007Z</time></trkpt><trkpt lat="40.30403759478498" lon="9.540859146228977"><ele>154.66666666666666</ele><time>2026-04-28T15:05:09.007Z</time></trkpt><trkpt lat="40.30419469972173" lon="9.540723478628687"><ele>153.33333333333331</ele><time>2026-04-28T15:05:10.007Z</time></trkpt><trkpt lat="40.30438339183946" lon="9.540690420870087"><ele>152.0</ele><time>2026-04-28T15:05:11.007Z</time></trkpt><trkpt lat="40.30455221011927" lon="9.540732302673428"><ele>152.0</ele><time>2026-04-28T15:05:12.007Z</time></trkpt><trkpt lat="40.30470587031547" lon="9.54086855224855"><ele>152.0</ele><time>2026-04-28T15:05:13.007Z</time></trkpt><trkpt lat="40.30485734524255" lon="9.540991216997694"><ele>152.0</ele><time>2026-04-28T15:05:14.007Z</time></trkpt><trkpt lat="40.30501453367309" lon="9.54114329820461"><ele>155.0</ele><time>2026-04-28T15:05:15.007Z</time></trkpt><trkpt lat="40.30517312902422" lon="9.541284476753034"><ele>158.0</ele><time>2026-04-28T15:05:16.007Z</time></trkpt><trkpt lat="40.30532924004712" lon="9.541408942154085"><ele>161.0</ele><time>2026-04-28T15:05:17.007Z</time></trkpt><trkpt lat="40.305485115271026" lon="9.541522171888944"><ele>158.0</ele><time>2026-04-28T15:05:18.007Z</time></trkpt><trkpt lat="40.30564559151026" lon="9.541594718122457"><ele>155.0</ele><time>2026-04-28T15:05:19.007Z</time></trkpt><trkpt lat="40.30581112081878" lon="9.541624816318164"><ele>152.0</ele><time>2026-04-28T15:05:20.007Z</time></trkpt><trkpt lat="40.30596691930244" lon="9.54159508256246"><ele>152.0</ele><time>2026-04-28T15:05:21.007Z</time></trkpt><trkpt lat="40.30609151781088" lon="9.541491718715953"><ele>152.0</ele><time>2026-04-28T15:05:22.007Z</time></trkpt><trkpt lat="40.306170592819434" lon="9.541332205355724"><ele>152.0</ele><time>2026-04-28T15:05:23.007Z</time></trkpt><trkpt lat="40.30622408475986" lon="9.541138322161661"><ele>141.33333333333331</ele><time>2026-04-28T15:05:24.007Z</time></trkpt><trkpt lat="40.3062679349606" lon="9.540919339193017"><ele>130.66666666666666</ele><time>2026-04-28T15:05:25.007Z</time></trkpt><trkpt lat="40.30631989068329" lon="9.540694298311562"><ele>120.0</ele><time>2026-04-28T15:05:26.007Z</time></trkpt><trkpt lat="40.306368243108835" lon="9.540459561992176"><ele>114.33333333333334</ele><time>2026-04-28T15:05:27.007Z</time></trkpt><trkpt lat="40.30640689926394" lon="9.540210299392886"><ele>108.66666666666667</ele><time>2026-04-28T15:05:28.007Z</time></trkpt><trkpt lat="40.30645577901563" lon="9.539973350368316"><ele>103.0</ele><time>2026-04-28T15:05:29.007Z</time></trkpt><trkpt lat="40.306502412932396" lon="9.53975198082749"><ele>104.33333333333334</ele><time>2026-04-28T15:05:30.007Z</time></trkpt><trkpt lat="40.306544037501425" lon="9.539540388760853"><ele>105.66666666666666</ele><time>2026-04-28T15:05:31.007Z</time></trkpt><trkpt lat="40.306584943217764" lon="9.539337647634671"><ele>107.0</ele><time>2026-04-28T15:05:32.007Z</time></trkpt><trkpt lat="40.306626496578744" lon="9.539132390251893"><ele>107.0</ele><time>2026-04-28T15:05:33.007Z</time></trkpt><trkpt lat="40.30667672243322" lon="9.538923979027917"><ele>107.0</ele><time>2026-04-28T15:05:34.007Z</time></trkpt><trkpt lat="40.30673617152457" lon="9.538732817491987"><ele>107.0</ele><time>2026-04-28T15:05:35.007Z</time></trkpt><trkpt lat="40.3068266758163" lon="9.538582524857002"><ele>117.33333333333333</ele><time>2026-04-28T15:05:36.007Z</time></trkpt><trkpt lat="40.306953992303285" lon="9.538498282356846"><ele>127.66666666666666</ele><time>2026-04-28T15:05:37.007Z</time></trkpt><trkpt lat="40.30710951547325" lon="9.538472413726318"><ele>138.0</ele><time>2026-04-28T15:05:38.008Z</time></trkpt><trkpt lat="40.30726846938006" lon="9.53850565610628"><ele>139.0</ele><time>2026-04-28T15:05:39.007Z</time></trkpt><trkpt lat="40.30743181100252" lon="9.538564547777602"><ele>140.0</ele><time>2026-04-28T15:05:40.007Z</time></trkpt><trkpt lat="40.30760499292219" lon="9.538611322172473"><ele>141.0</ele><time>2026-04-28T15:05:41.007Z</time></trkpt><trkpt lat="40.307781341013914" lon="9.538654777541952"><ele>141.0</ele><time>2026-04-28T15:05:42.008Z</time></trkpt><trkpt lat="40.30794275313092" lon="9.538677477574257"><ele>141.0</ele><time>2026-04-28T15:05:43.008Z</time></trkpt><trkpt lat="40.30809711002" lon="9.538654722450199"><ele>141.0</ele><time>2026-04-28T15:05:44.008Z</time></trkpt><trkpt lat="40.3082398365709" lon="9.538549240218108"><ele>138.0</ele><time>2026-04-28T15:05:45.007Z</time></trkpt><trkpt lat="40.30836460526225" lon="9.538402799206262"><ele>135.0</ele><time>2026-04-28T15:05:46.007Z</time></trkpt><trkpt lat="40.30846884875343" lon="9.538218015909013"><ele>132.0</ele><time>2026-04-28T15:05:47.008Z</time></trkpt><trkpt lat="40.30857022058742" lon="9.538017120558548"><ele>131.33333333333334</ele><time>2026-04-28T15:05:48.007Z</time></trkpt><trkpt lat="40.3086854381735" lon="9.53781123912289"><ele>130.66666666666669</ele><time>2026-04-28T15:05:49.007Z</time></trkpt><trkpt lat="40.308804865445985" lon="9.537598792200223"><ele>130.0</ele><time>2026-04-28T15:05:50.007Z</time></trkpt><trkpt lat="40.30892195453987" lon="9.537379315748838"><ele>130.0</ele><time>2026-04-28T15:05:51.008Z</time></trkpt><trkpt lat="40.30903436818222" lon="9.537155730583203"><ele>130.0</ele><time>2026-04-28T15:05:52.008Z</time></trkpt><trkpt lat="40.30915204143977" lon="9.536946022181276"><ele>130.0</ele><time>2026-04-28T15:05:53.008Z</time></trkpt><trkpt lat="40.309276262976816" lon="9.536755534267021"><ele>129.33333333333334</ele><time>2026-04-28T15:05:54.008Z</time></trkpt><trkpt lat="40.30942536136003" lon="9.536596873842875"><ele>128.66666666666666</ele><time>2026-04-28T15:05:55.008Z</time></trkpt><trkpt lat="40.30960552032328" lon="9.536475244711212"><ele>128.0</ele><time>2026-04-28T15:05:56.008Z</time></trkpt><trkpt lat="40.30980337097896" lon="9.5363979379025"><ele>128.0</ele><time>2026-04-28T15:05:57.008Z</time></trkpt><trkpt lat="40.309997149456805" lon="9.536297204329635"><ele>128.0</ele><time>2026-04-28T15:05:58.008Z</time></trkpt><trkpt lat="40.31018654851728" lon="9.53616085071256"><ele>128.0</ele><time>2026-04-28T15:05:59.008Z</time></trkpt><trkpt lat="40.310359053260385" lon="9.535976950449733"><ele>130.5</ele><time>2026-04-28T15:06:00.008Z</time></trkpt><trkpt lat="40.31051414496617" lon="9.53575600365946"><ele>133.0</ele><time>2026-04-28T15:06:01.008Z</time></trkpt><trkpt lat="40.31064549441875" lon="9.53551440611842"><ele>134.0</ele><time>2026-04-28T15:06:02.008Z</time></trkpt><trkpt lat="40.31075082265771" lon="9.535247176730163"><ele>135.0</ele><time>2026-04-28T15:06:03.008Z</time></trkpt><trkpt lat="40.31084485593308" lon="9.534984385242568"><ele>135.0</ele><time>2026-04-28T15:06:04.008Z</time></trkpt><trkpt lat="40.31093722570586" lon="9.534742964795607"><ele>135.0</ele><time>2026-04-28T15:06:05.008Z</time></trkpt><trkpt lat="40.31101722160803" lon="9.534502527287449"><ele>135.0</ele><time>2026-04-28T15:06:06.008Z</time></trkpt><trkpt lat="40.31109869288697" lon="9.534286043785691"><ele>135.33333333333334</ele><time>2026-04-28T15:06:07.008Z</time></trkpt><trkpt lat="40.31120409116803" lon="9.534102563609386"><ele>135.66666666666669</ele><time>2026-04-28T15:06:08.008Z</time></trkpt><trkpt lat="40.31134095358869" lon="9.533964294944838"><ele>136.0</ele><time>2026-04-28T15:06:09.008Z</time></trkpt><trkpt lat="40.31148719312207" lon="9.533852246828397"><ele>136.0</ele><time>2026-04-28T15:06:10.008Z</time></trkpt><trkpt lat="40.31162622720419" lon="9.53376810141235"><ele>136.0</ele><time>2026-04-28T15:06:11.008Z</time></trkpt><trkpt lat="40.31174222848349" lon="9.533732976954694"><ele>136.0</ele><time>2026-04-28T15:06:12.008Z</time></trkpt><trkpt lat="40.31184850261904" lon="9.53377885242593"><ele>136.0</ele><time>2026-04-28T15:06:13.008Z</time></trkpt><trkpt lat="40.31193325693741" lon="9.533888881255093"><ele>136.0</ele><time>2026-04-28T15:06:14.008Z</time></trkpt><trkpt lat="40.31199408587758" lon="9.534039342091583"><ele>136.0</ele><time>2026-04-28T15:06:15.008Z</time></trkpt><trkpt lat="40.31208877680076" lon="9.534164621930604"><ele>136.0</ele><time>2026-04-28T15:06:16.008Z</time></trkpt><trkpt lat="40.31221802271537" lon="9.534240008492821"><ele>136.0</ele><time>2026-04-28T15:06:17.008Z</time></trkpt><trkpt lat="40.31236720595545" lon="9.534253882956092"><ele>137.33333333333334</ele><time>2026-04-28T15:06:18.008Z</time></trkpt><trkpt lat="40.31253089092911" lon="9.534232060166268"><ele>138.66666666666666</ele><time>2026-04-28T15:06:19.008Z</time></trkpt><trkpt lat="40.31269800501968" lon="9.534213688694182"><ele>140.0</ele><time>2026-04-28T15:06:20.008Z</time></trkpt><trkpt lat="40.31287315818538" lon="9.534222781439922"><ele>140.0</ele><time>2026-04-28T15:06:21.008Z</time></trkpt><trkpt lat="40.313053127413966" lon="9.534250965898586"><ele>140.0</ele><time>2026-04-28T15:06:22.008Z</time></trkpt><trkpt lat="40.313238678269116" lon="9.534285014016744"><ele>140.0</ele><time>2026-04-28T15:06:23.008Z</time></trkpt><trkpt lat="40.31342748810732" lon="9.534313785480496"><ele>140.66666666666666</ele><time>2026-04-28T15:06:24.008Z</time></trkpt><trkpt lat="40.313624817117045" lon="9.534343894630616"><ele>141.33333333333334</ele><time>2026-04-28T15:06:25.008Z</time></trkpt><trkpt lat="40.313817293155054" lon="9.534373065773256"><ele>142.0</ele><time>2026-04-28T15:06:26.008Z</time></trkpt><trkpt lat="40.31401772808092" lon="9.534396455846718"><ele>142.66666666666669</ele><time>2026-04-28T15:06:27.008Z</time></trkpt><trkpt lat="40.314212546035556" lon="9.534418322577913"><ele>143.33333333333334</ele><time>2026-04-28T15:06:28.008Z</time></trkpt><trkpt lat="40.314391556276384" lon="9.534448056498864"><ele>144.0</ele><time>2026-04-28T15:06:29.008Z</time></trkpt><trkpt lat="40.31453475652274" lon="9.534556123545517"><ele>146.33333333333334</ele><time>2026-04-28T15:06:30.008Z</time></trkpt><trkpt lat="40.31463648680649" lon="9.534722547230126"><ele>148.66666666666669</ele><time>2026-04-28T15:06:31.008Z</time></trkpt><trkpt lat="40.31471388546192" lon="9.534908725272759"><ele>151.0</ele><time>2026-04-28T15:06:32.008Z</time></trkpt><trkpt lat="40.31480491781144" lon="9.535051599662324"><ele>151.0</ele><time>2026-04-28T15:06:33.008Z</time></trkpt><trkpt lat="40.31491699668124" lon="9.535139835189463"><ele>151.0</ele><time>2026-04-28T15:06:34.008Z</time></trkpt><trkpt lat="40.31504539966969" lon="9.535148939792096"><ele>151.0</ele><time>2026-04-28T15:06:35.008Z</time></trkpt><trkpt lat="40.31515598585113" lon="9.535068761647869"><ele>151.0</ele><time>2026-04-28T15:06:36.008Z</time></trkpt><trkpt lat="40.31526470800943" lon="9.534938910255745"><ele>151.0</ele><time>2026-04-28T15:06:37.008Z</time></trkpt><trkpt lat="40.31535355332401" lon="9.534773990936767"><ele>151.0</ele><time>2026-04-28T15:06:38.008Z</time></trkpt><trkpt lat="40.315441312271645" lon="9.534604238185633"><ele>151.0</ele><time>2026-04-28T15:06:39.008Z</time></trkpt><trkpt lat="40.31554439947923" lon="9.534441883299989"><ele>151.33333333333334</ele><time>2026-04-28T15:06:40.008Z</time></trkpt><trkpt lat="40.31566772323863" lon="9.534334159464839"><ele>151.66666666666666</ele><time>2026-04-28T15:06:41.008Z</time></trkpt><trkpt lat="40.31581809404807" lon="9.534316457318951"><ele>152.0</ele><time>2026-04-28T15:06:42.008Z</time></trkpt><trkpt lat="40.31597711641856" lon="9.534354669975132"><ele>152.0</ele><time>2026-04-28T15:06:43.008Z</time></trkpt><trkpt lat="40.31613795764638" lon="9.534392586551705"><ele>152.0</ele><time>2026-04-28T15:06:44.008Z</time></trkpt><trkpt lat="40.316312467877864" lon="9.53442154328978"><ele>152.0</ele><time>2026-04-28T15:06:45.008Z</time></trkpt><trkpt lat="40.31649072033954" lon="9.534422435822016"><ele>153.33333333333331</ele><time>2026-04-28T15:06:46.008Z</time></trkpt><trkpt lat="40.31665753597307" lon="9.534421136615217"><ele>154.66666666666666</ele><time>2026-04-28T15:06:47.008Z</time></trkpt><trkpt lat="40.31680621336474" lon="9.534455764179713"><ele>156.0</ele><time>2026-04-28T15:06:48.008Z</time></trkpt><trkpt lat="40.316932511310476" lon="9.534570023446458"><ele>158.0</ele><time>2026-04-28T15:06:49.008Z</time></trkpt><trkpt lat="40.31704508070702" lon="9.534720506359342"><ele>160.0</ele><time>2026-04-28T15:06:50.008Z</time></trkpt><trkpt lat="40.31716004886457" lon="9.534886126513774"><ele>162.0</ele><time>2026-04-28T15:06:51.008Z</time></trkpt><trkpt lat="40.31729013748864" lon="9.535040127099077"><ele>162.0</ele><time>2026-04-28T15:06:52.008Z</time></trkpt><trkpt lat="40.317425016412805" lon="9.535204765340845"><ele>162.0</ele><time>2026-04-28T15:06:53.008Z</time></trkpt><trkpt lat="40.317566940116826" lon="9.535371167794167"><ele>162.0</ele><time>2026-04-28T15:06:54.008Z</time></trkpt><trkpt lat="40.317707834174186" lon="9.535542205059432"><ele>163.66666666666666</ele><time>2026-04-28T15:06:55.008Z</time></trkpt><trkpt lat="40.31784483154668" lon="9.535722651905937"><ele>165.33333333333331</ele><time>2026-04-28T15:06:56.008Z</time></trkpt><trkpt lat="40.31799293486982" lon="9.535869645273086"><ele>167.0</ele><time>2026-04-28T15:06:57.008Z</time></trkpt><trkpt lat="40.318165200973056" lon="9.535948655997533"><ele>167.0</ele><time>2026-04-28T15:06:58.008Z</time></trkpt><trkpt lat="40.318352525492614" lon="9.535980857394017"><ele>167.0</ele><time>2026-04-28T15:06:59.008Z</time></trkpt><trkpt lat="40.31854424860141" lon="9.53597677187638"><ele>167.0</ele><time>2026-04-28T15:07:00.008Z</time></trkpt><trkpt lat="40.318737419815655" lon="9.535961310518587"><ele>168.33333333333331</ele><time>2026-04-28T15:07:01.008Z</time></trkpt><trkpt lat="40.31891703246331" lon="9.535933978201877"><ele>169.66666666666666</ele><time>2026-04-28T15:07:02.007Z</time></trkpt><trkpt lat="40.319064110122504" lon="9.535871305802075"><ele>171.0</ele><time>2026-04-28T15:07:03.007Z</time></trkpt><trkpt lat="40.31919308297335" lon="9.535730658274948"><ele>171.0</ele><time>2026-04-28T15:07:04.007Z</time></trkpt><trkpt lat="40.31928573636913" lon="9.53551886126549"><ele>171.0</ele><time>2026-04-28T15:07:05.007Z</time></trkpt><trkpt lat="40.31936565126195" lon="9.53529365911318"><ele>171.0</ele><time>2026-04-28T15:07:06.007Z</time></trkpt><trkpt lat="40.31945831077775" lon="9.535070522627581"><ele>171.0</ele><time>2026-04-28T15:07:07.007Z</time></trkpt><trkpt lat="40.319552770500515" lon="9.53484601573064"><ele>171.0</ele><time>2026-04-28T15:07:08.007Z</time></trkpt><trkpt lat="40.319650965823975" lon="9.534645315996718"><ele>171.0</ele><time>2026-04-28T15:07:09.007Z</time></trkpt><trkpt lat="40.319774647293386" lon="9.534490922651354"><ele>171.66666666666666</ele><time>2026-04-28T15:07:10.007Z</time></trkpt><trkpt lat="40.3199305591048" lon="9.53441112532102"><ele>172.33333333333331</ele><time>2026-04-28T15:07:11.007Z</time></trkpt><trkpt lat="40.32008884547175" lon="9.534429450120014"><ele>173.0</ele><time>2026-04-28T15:07:12.007Z</time></trkpt><trkpt lat="40.32024604408003" lon="9.534502827500923"><ele>174.0</ele><time>2026-04-28T15:07:13.007Z</time></trkpt><trkpt lat="40.320405842586844" lon="9.534572384463463"><ele>175.0</ele><time>2026-04-28T15:07:14.007Z</time></trkpt><trkpt lat="40.32055793808112" lon="9.534648674547352"><ele>176.0</ele><time>2026-04-28T15:07:15.007Z</time></trkpt><trkpt lat="40.32072196060728" lon="9.534724961281738"><ele>177.0</ele><time>2026-04-28T15:07:16.007Z</time></trkpt><trkpt lat="40.32088944721571" lon="9.534789300149173"><ele>178.0</ele><time>2026-04-28T15:07:17.007Z</time></trkpt><trkpt lat="40.32105546183035" lon="9.534879174648209"><ele>179.0</ele><time>2026-04-28T15:07:18.007Z</time></trkpt><trkpt lat="40.321187060257046" lon="9.535020410038177"><ele>179.0</ele><time>2026-04-28T15:07:19.007Z</time></trkpt><trkpt lat="40.321326537057494" lon="9.535152674423383"><ele>179.0</ele><time>2026-04-28T15:07:20.007Z</time></trkpt><trkpt lat="40.321508099751156" lon="9.535217444012616"><ele>179.0</ele><time>2026-04-28T15:07:21.007Z</time></trkpt><trkpt lat="40.32168551965412" lon="9.535202097153775"><ele>180.33333333333331</ele><time>2026-04-28T15:07:22.007Z</time></trkpt><trkpt lat="40.321848410342426" lon="9.535121608563054"><ele>181.66666666666666</ele><time>2026-04-28T15:07:23.007Z</time></trkpt><trkpt lat="40.32197609264586" lon="9.534980038388472"><ele>183.0</ele><time>2026-04-28T15:07:24.007Z</time></trkpt><trkpt lat="40.32205345945135" lon="9.534814344508632"><ele>183.0</ele><time>2026-04-28T15:07:25.007Z</time></trkpt><trkpt lat="40.32211492116759" lon="9.53461770926377"><ele>183.0</ele><time>2026-04-28T15:07:26.007Z</time></trkpt><trkpt lat="40.32221628248844" lon="9.534449148466866"><ele>183.0</ele><time>2026-04-28T15:07:27.007Z</time></trkpt><trkpt lat="40.322343204856246" lon="9.534326531627041"><ele>183.33333333333334</ele><time>2026-04-28T15:07:28.007Z</time></trkpt><trkpt lat="40.32250006291613" lon="9.53426935509526"><ele>183.66666666666669</ele><time>2026-04-28T15:07:29.007Z</time></trkpt><trkpt lat="40.32266631209695" lon="9.534272666778397"><ele>184.0</ele><time>2026-04-28T15:07:30.007Z</time></trkpt><trkpt lat="40.32284482851152" lon="9.534306785774763"><ele>184.0</ele><time>2026-04-28T15:07:31.007Z</time></trkpt><trkpt lat="40.3230264038163" lon="9.534340484105678"><ele>184.0</ele><time>2026-04-28T15:07:32.007Z</time></trkpt><trkpt lat="40.323223189042466" lon="9.534363145601782"><ele>184.0</ele><time>2026-04-28T15:07:33.007Z</time></trkpt><trkpt lat="40.32342956362427" lon="9.534389086889135"><ele>184.33333333333334</ele><time>2026-04-28T15:07:34.007Z</time></trkpt><trkpt lat="40.32364242830559" lon="9.534426344936596"><ele>184.66666666666666</ele><time>2026-04-28T15:07:35.007Z</time></trkpt><trkpt lat="40.32385714381872" lon="9.534484809057847"><ele>185.0</ele><time>2026-04-28T15:07:36.007Z</time></trkpt><trkpt lat="40.324072909005515" lon="9.53453458590793"><ele>185.66666666666666</ele><time>2026-04-28T15:07:37.007Z</time></trkpt><trkpt lat="40.32428749552534" lon="9.534568888105586"><ele>186.33333333333334</ele><time>2026-04-28T15:07:38.007Z</time></trkpt><trkpt lat="40.324511772491185" lon="9.534583380001349"><ele>187.0</ele><time>2026-04-28T15:07:39.007Z</time></trkpt><trkpt lat="40.3247328728411" lon="9.5346027509408"><ele>187.0</ele><time>2026-04-28T15:07:40.007Z</time></trkpt><trkpt lat="40.324955798257136" lon="9.534625914016335"><ele>187.0</ele><time>2026-04-28T15:07:41.007Z</time></trkpt><trkpt lat="40.3251820523139" lon="9.534630064540316"><ele>187.0</ele><time>2026-04-28T15:07:42.007Z</time></trkpt><trkpt lat="40.32540782437747" lon="9.53460279770578"><ele>187.0</ele><time>2026-04-28T15:07:43.007Z</time></trkpt><trkpt lat="40.3256358658436" lon="9.534544103018748"><ele>188.0</ele><time>2026-04-28T15:07:44.008Z</time></trkpt><trkpt lat="40.325861272733015" lon="9.534454270563876"><ele>189.0</ele><time>2026-04-28T15:07:45.007Z</time></trkpt><trkpt lat="40.326079562015806" lon="9.534323266137267"><ele>189.0</ele><time>2026-04-28T15:07:46.007Z</time></trkpt><trkpt lat="40.32628860304312" lon="9.534158815158085"><ele>189.0</ele><time>2026-04-28T15:07:47.008Z</time></trkpt><trkpt lat="40.326490890217634" lon="9.533977375781337"><ele>188.0</ele><time>2026-04-28T15:07:48.007Z</time></trkpt><trkpt lat="40.32669567472746" lon="9.533783273655313"><ele>187.0</ele><time>2026-04-28T15:07:49.007Z</time></trkpt><trkpt lat="40.32690756222505" lon="9.533591370064714"><ele>187.0</ele><time>2026-04-28T15:07:50.008Z</time></trkpt><trkpt lat="40.32711991516861" lon="9.533401266871051"><ele>187.0</ele><time>2026-04-28T15:07:51.007Z</time></trkpt><trkpt lat="40.327330160598144" lon="9.53320843759275"><ele>187.0</ele><time>2026-04-28T15:07:52.007Z</time></trkpt><trkpt lat="40.327533852108935" lon="9.533016257718074"><ele>187.0</ele><time>2026-04-28T15:07:53.008Z</time></trkpt><trkpt lat="40.32774317097502" lon="9.532855928091324"><ele>187.0</ele><time>2026-04-28T15:07:54.007Z</time></trkpt><trkpt lat="40.32796770832918" lon="9.532719716995652"><ele>187.0</ele><time>2026-04-28T15:07:55.007Z</time></trkpt><trkpt lat="40.32819947804193" lon="9.532604409504883"><ele>186.5</ele><time>2026-04-28T15:07:56.008Z</time></trkpt><trkpt lat="40.32844042068366" lon="9.532515115336418"><ele>186.0</ele><time>2026-04-28T15:07:57.007Z</time></trkpt><trkpt lat="40.32868653598389" lon="9.532439251573228"><ele>186.5</ele><time>2026-04-28T15:07:58.007Z</time></trkpt><trkpt lat="40.32893216356994" lon="9.532363891497418"><ele>187.0</ele><time>2026-04-28T15:07:59.007Z</time></trkpt><trkpt lat="40.32917994256193" lon="9.532278926550834"><ele>187.0</ele><time>2026-04-28T15:08:00.007Z</time></trkpt><trkpt lat="40.32942615505531" lon="9.532199676189085"><ele>187.0</ele><time>2026-04-28T15:08:01.007Z</time></trkpt><trkpt lat="40.32967412532238" lon="9.532119722010293"><ele>188.0</ele><time>2026-04-28T15:08:02.007Z</time></trkpt><trkpt lat="40.32992023988541" lon="9.532042157449332"><ele>189.0</ele><time>2026-04-28T15:08:03.007Z</time></trkpt><trkpt lat="40.33016378530263" lon="9.531957916866387"><ele>189.0</ele><time>2026-04-28T15:08:04.007Z</time></trkpt><trkpt lat="40.33041309857967" lon="9.531872487751777"><ele>189.0</ele><time>2026-04-28T15:08:05.007Z</time></trkpt><trkpt lat="40.33065992645862" lon="9.531792740256241"><ele>188.5</ele><time>2026-04-28T15:08:06.007Z</time></trkpt><trkpt lat="40.330910184157766" lon="9.531718650090848"><ele>188.0</ele><time>2026-04-28T15:08:07.007Z</time></trkpt><trkpt lat="40.33116600966645" lon="9.531649183219718"><ele>188.5</ele><time>2026-04-28T15:08:08.007Z</time></trkpt><trkpt lat="40.33142908561408" lon="9.531581492644452"><ele>189.0</ele><time>2026-04-28T15:08:09.007Z</time></trkpt><trkpt lat="40.33169822858304" lon="9.531507517625514"><ele>189.0</ele><time>2026-04-28T15:08:10.007Z</time></trkpt><trkpt lat="40.3319613423383" lon="9.531435754866129"><ele>189.0</ele><time>2026-04-28T15:08:11.007Z</time></trkpt><trkpt lat="40.33222105603811" lon="9.531361339401547"><ele>188.5</ele><time>2026-04-28T15:08:12.007Z</time></trkpt><trkpt lat="40.33247783863327" lon="9.531284601396264"><ele>188.0</ele><time>2026-04-28T15:08:13.007Z</time></trkpt><trkpt lat="40.33273148971671" lon="9.53120459335541"><ele>187.0</ele><time>2026-04-28T15:08:14.007Z</time></trkpt><trkpt lat="40.33298308934499" lon="9.531129048036039"><ele>186.0</ele><time>2026-04-28T15:08:15.007Z</time></trkpt><trkpt lat="40.33323313582849" lon="9.53105846382798"><ele>185.5</ele><time>2026-04-28T15:08:16.007Z</time></trkpt><trkpt lat="40.33347989701691" lon="9.530996564409433"><ele>185.0</ele><time>2026-04-28T15:08:17.007Z</time></trkpt><trkpt lat="40.33371860634273" lon="9.530931803713333"><ele>183.5</ele><time>2026-04-28T15:08:18.007Z</time></trkpt><trkpt lat="40.33394911615768" lon="9.530869335968594"><ele>182.0</ele><time>2026-04-28T15:08:19.007Z</time></trkpt><trkpt lat="40.334173100967455" lon="9.530786028740923"><ele>182.0</ele><time>2026-04-28T15:08:20.007Z</time></trkpt><trkpt lat="40.33438495907614" lon="9.53068310039507"><ele>182.0</ele><time>2026-04-28T15:08:21.007Z</time></trkpt><trkpt lat="40.334580604405204" lon="9.53053437631753"><ele>182.0</ele><time>2026-04-28T15:08:22.007Z</time></trkpt><trkpt lat="40.33474397236726" lon="9.5303459557429"><ele>182.0</ele><time>2026-04-28T15:08:23.007Z</time></trkpt><trkpt lat="40.33487542615742" lon="9.530107510225166"><ele>182.0</ele><time>2026-04-28T15:08:24.007Z</time></trkpt><trkpt lat="40.33497729119631" lon="9.529842787023458"><ele>182.0</ele><time>2026-04-28T15:08:25.007Z</time></trkpt><trkpt lat="40.335065536563306" lon="9.529566437120849"><ele>182.0</ele><time>2026-04-28T15:08:26.007Z</time></trkpt><trkpt lat="40.33516027686249" lon="9.529291272810939"><ele>183.0</ele><time>2026-04-28T15:08:27.007Z</time></trkpt><trkpt lat="40.33525694141063" lon="9.529005513219378"><ele>184.0</ele><time>2026-04-28T15:08:28.007Z</time></trkpt><trkpt lat="40.33535233472873" lon="9.528719385809117"><ele>184.0</ele><time>2026-04-28T15:08:29.007Z</time></trkpt><trkpt lat="40.33545448835345" lon="9.528423853637058"><ele>184.0</ele><time>2026-04-28T15:08:30.007Z</time></trkpt><trkpt lat="40.335553635072834" lon="9.528128554651834"><ele>187.0</ele><time>2026-04-28T15:08:31.007Z</time></trkpt><trkpt lat="40.33565110888624" lon="9.527824028084328"><ele>190.0</ele><time>2026-04-28T15:08:32.007Z</time></trkpt><trkpt lat="40.3357552282594" lon="9.527517531243177"><ele>190.0</ele><time>2026-04-28T15:08:33.007Z</time></trkpt><trkpt lat="40.33586004347354" lon="9.5272033667855"><ele>190.0</ele><time>2026-04-28T15:08:34.007Z</time></trkpt><trkpt lat="40.33596715326044" lon="9.526884742125628"><ele>190.0</ele><time>2026-04-28T15:08:35.007Z</time></trkpt><trkpt lat="40.3360758258708" lon="9.526563347429702"><ele>190.0</ele><time>2026-04-28T15:08:36.007Z</time></trkpt><trkpt lat="40.33618421155229" lon="9.526239196763598"><ele>191.0</ele><time>2026-04-28T15:08:37.007Z</time></trkpt><trkpt lat="40.33629004493576" lon="9.525918303544781"><ele>192.0</ele><time>2026-04-28T15:08:38.007Z</time></trkpt><trkpt lat="40.33639350103254" lon="9.525608615964229"><ele>193.0</ele><time>2026-04-28T15:08:39.007Z</time></trkpt><trkpt lat="40.33649448328335" lon="9.525312721816187"><ele>194.0</ele><time>2026-04-28T15:08:40.007Z</time></trkpt><trkpt lat="40.33659752786636" lon="9.525031747192495"><ele>194.0</ele><time>2026-04-28T15:08:41.007Z</time></trkpt><trkpt lat="40.33671855830818" lon="9.524785193937682"><ele>194.0</ele><time>2026-04-28T15:08:42.007Z</time></trkpt><trkpt lat="40.336868025083874" lon="9.524558070161193"><ele>194.66666666666669</ele><time>2026-04-28T15:08:43.007Z</time></trkpt><trkpt lat="40.33702995691076" lon="9.524356056614174"><ele>195.33333333333331</ele><time>2026-04-28T15:08:44.007Z</time></trkpt><trkpt lat="40.33720734441187" lon="9.524178405000995"><ele>196.0</ele><time>2026-04-28T15:08:45.007Z</time></trkpt><trkpt lat="40.33740225829339" lon="9.524022038275124"><ele>196.0</ele><time>2026-04-28T15:08:46.007Z</time></trkpt><trkpt lat="40.33759332659919" lon="9.523856219963656"><ele>196.0</ele><time>2026-04-28T15:08:47.007Z</time></trkpt><trkpt lat="40.33778522521629" lon="9.52368546676456"><ele>195.0</ele><time>2026-04-28T15:08:48.007Z</time></trkpt><trkpt lat="40.33798058601964" lon="9.52351297015241"><ele>194.0</ele><time>2026-04-28T15:08:49.007Z</time></trkpt><trkpt lat="40.33818259567973" lon="9.523334831013669"><ele>193.5</ele><time>2026-04-28T15:08:50.007Z</time></trkpt><trkpt lat="40.338389834676214" lon="9.52315586039001"><ele>193.0</ele><time>2026-04-28T15:08:51.007Z</time></trkpt><trkpt lat="40.33859747162866" lon="9.522980536935245"><ele>193.0</ele><time>2026-04-28T15:08:52.007Z</time></trkpt><trkpt lat="40.338800059611565" lon="9.522801609881212"><ele>193.0</ele><time>2026-04-28T15:08:53.007Z</time></trkpt><trkpt lat="40.33900409088151" lon="9.522634135518638"><ele>193.5</ele><time>2026-04-28T15:08:54.007Z</time></trkpt><trkpt lat="40.339216037500805" lon="9.52247168451698"><ele>194.0</ele><time>2026-04-28T15:08:55.007Z</time></trkpt><trkpt lat="40.339420451050756" lon="9.522303512442216"><ele>194.0</ele><time>2026-04-28T15:08:56.007Z</time></trkpt><trkpt lat="40.339619674907134" lon="9.522121726368345"><ele>194.0</ele><time>2026-04-28T15:08:57.007Z</time></trkpt><trkpt lat="40.339827649318536" lon="9.521982714551774"><ele>193.0</ele><time>2026-04-28T15:08:58.007Z</time></trkpt><trkpt lat="40.340032458197825" lon="9.521816670900101"><ele>192.0</ele><time>2026-04-28T15:08:59.007Z</time></trkpt><trkpt lat="40.34023602426781" lon="9.521642879128196"><ele>192.0</ele><time>2026-04-28T15:09:00.007Z</time></trkpt><trkpt lat="40.34043691691423" lon="9.521473244828904"><ele>192.0</ele><time>2026-04-28T15:09:01.006Z</time></trkpt><trkpt lat="40.34064295512388" lon="9.521307430744848"><ele>191.0</ele><time>2026-04-28T15:09:02.006Z</time></trkpt><trkpt lat="40.34084537943426" lon="9.52113919011961"><ele>190.0</ele><time>2026-04-28T15:09:03.006Z</time></trkpt><trkpt lat="40.34104494933203" lon="9.520970872058841"><ele>190.0</ele><time>2026-04-28T15:09:04.006Z</time></trkpt><trkpt lat="40.34124930738028" lon="9.520803688376171"><ele>190.0</ele><time>2026-04-28T15:09:05.006Z</time></trkpt><trkpt lat="40.34145321675118" lon="9.5206299266673"><ele>191.0</ele><time>2026-04-28T15:09:06.006Z</time></trkpt><trkpt lat="40.341655022971" lon="9.520453377229599"><ele>192.0</ele><time>2026-04-28T15:09:07.006Z</time></trkpt><trkpt lat="40.34185903200631" lon="9.520272653508703"><ele>192.5</ele><time>2026-04-28T15:09:08.006Z</time></trkpt><trkpt lat="40.34206190584631" lon="9.520080043447635"><ele>193.0</ele><time>2026-04-28T15:09:09.006Z</time></trkpt><trkpt lat="40.342257679256676" lon="9.519872037036833"><ele>193.0</ele><time>2026-04-28T15:09:10.006Z</time></trkpt><trkpt lat="40.342443520047496" lon="9.519649655339318"><ele>193.0</ele><time>2026-04-28T15:09:11.006Z</time></trkpt><trkpt lat="40.342630991200416" lon="9.519412626272944"><ele>193.0</ele><time>2026-04-28T15:09:12.006Z</time></trkpt><trkpt lat="40.34281932197334" lon="9.519171203843456"><ele>193.0</ele><time>2026-04-28T15:09:13.006Z</time></trkpt><trkpt lat="40.34300810361947" lon="9.518932523450765"><ele>193.5</ele><time>2026-04-28T15:09:14.006Z</time></trkpt><trkpt lat="40.34319248355797" lon="9.518691073576834"><ele>194.0</ele><time>2026-04-28T15:09:15.006Z</time></trkpt><trkpt lat="40.343382228887315" lon="9.518457073229644"><ele>194.0</ele><time>2026-04-28T15:09:16.006Z</time></trkpt><trkpt lat="40.34357154535427" lon="9.518220340343971"><ele>194.0</ele><time>2026-04-28T15:09:17.006Z</time></trkpt><trkpt lat="40.34376681484409" lon="9.517988505296104"><ele>194.0</ele><time>2026-04-28T15:09:18.006Z</time></trkpt><trkpt lat="40.34395145631569" lon="9.51775738452699"><ele>194.0</ele><time>2026-04-28T15:09:19.006Z</time></trkpt><trkpt lat="40.344116084148595" lon="9.517530702376114"><ele>194.0</ele><time>2026-04-28T15:09:20.006Z</time></trkpt><trkpt lat="40.34425475296264" lon="9.517339664635553"><ele>194.0</ele><time>2026-04-28T15:09:21.006Z</time></trkpt><trkpt lat="40.34437989319237" lon="9.517130224969867"><ele>194.0</ele><time>2026-04-28T15:09:22.006Z</time></trkpt><trkpt lat="40.34445783433974" lon="9.516847160949114"><ele>195.0</ele><time>2026-04-28T15:09:23.006Z</time></trkpt><trkpt lat="40.34449805119928" lon="9.516530065240403"><ele>196.0</ele><time>2026-04-28T15:09:24.006Z</time></trkpt><trkpt lat="40.34449836375543" lon="9.51623260827067"><ele>196.0</ele><time>2026-04-28T15:09:25.006Z</time></trkpt><trkpt lat="40.34443780577638" lon="9.51593464356546"><ele>196.0</ele><time>2026-04-28T15:09:26.006Z</time></trkpt><trkpt lat="40.344350944242464" lon="9.515644476973673"><ele>196.0</ele><time>2026-04-28T15:09:27.006Z</time></trkpt><trkpt lat="40.344261701857775" lon="9.515357787817557"><ele>196.0</ele><time>2026-04-28T15:09:28.006Z</time></trkpt><trkpt lat="40.34418824897643" lon="9.51506789127944"><ele>196.0</ele><time>2026-04-28T15:09:29.006Z</time></trkpt><trkpt lat="40.34413686889858" lon="9.514774736363856"><ele>196.0</ele><time>2026-04-28T15:09:30.006Z</time></trkpt><trkpt lat="40.34407720202298" lon="9.514476106836963"><ele>196.0</ele><time>2026-04-28T15:09:31.006Z</time></trkpt><trkpt lat="40.344022183496804" lon="9.514196383880906"><ele>196.0</ele><time>2026-04-28T15:09:32.006Z</time></trkpt><trkpt lat="40.3440021776108" lon="9.513922231490326"><ele>196.0</ele><time>2026-04-28T15:09:33.006Z</time></trkpt><trkpt lat="40.34404034850287" lon="9.513665972837654"><ele>196.0</ele><time>2026-04-28T15:09:34.006Z</time></trkpt><trkpt lat="40.34412793152163" lon="9.513429264525325"><ele>196.0</ele><time>2026-04-28T15:09:35.006Z</time></trkpt><trkpt lat="40.34424722696473" lon="9.513188516284783"><ele>196.0</ele><time>2026-04-28T15:09:36.006Z</time></trkpt><trkpt lat="40.3443851362043" lon="9.5129795000874"><ele>195.66666666666666</ele><time>2026-04-28T15:09:37.006Z</time></trkpt><trkpt lat="40.34451477242055" lon="9.512811511031094"><ele>195.33333333333331</ele><time>2026-04-28T15:09:38.006Z</time></trkpt><trkpt lat="40.344646896823505" lon="9.512683086858951"><ele>195.0</ele><time>2026-04-28T15:09:39.006Z</time></trkpt><trkpt lat="40.344768812545055" lon="9.512543051171479"><ele>194.66666666666669</ele><time>2026-04-28T15:09:40.006Z</time></trkpt><trkpt lat="40.34489249788977" lon="9.51240224231645"><ele>194.33333333333334</ele><time>2026-04-28T15:09:41.006Z</time></trkpt><trkpt lat="40.3450167540607" lon="9.51225071610015"><ele>194.0</ele><time>2026-04-28T15:09:42.006Z</time></trkpt><trkpt lat="40.34513896570371" lon="9.512088712245859"><ele>193.33333333333334</ele><time>2026-04-28T15:09:43.006Z</time></trkpt><trkpt lat="40.34524466750848" lon="9.511897289051513"><ele>192.66666666666669</ele><time>2026-04-28T15:09:44.006Z</time></trkpt><trkpt lat="40.345329977764784" lon="9.51167780392215"><ele>192.0</ele><time>2026-04-28T15:09:45.006Z</time></trkpt><trkpt lat="40.345410691396005" lon="9.511448382709515"><ele>192.0</ele><time>2026-04-28T15:09:46.006Z</time></trkpt><trkpt lat="40.3454994355424" lon="9.51120621996653"><ele>192.0</ele><time>2026-04-28T15:09:47.006Z</time></trkpt><trkpt lat="40.34559289414009" lon="9.510964987555498"><ele>192.0</ele><time>2026-04-28T15:09:48.006Z</time></trkpt><trkpt lat="40.34568167413053" lon="9.510719820550472"><ele>190.66666666666666</ele><time>2026-04-28T15:09:49.006Z</time></trkpt><trkpt lat="40.34577334191986" lon="9.510497652976563"><ele>189.33333333333331</ele><time>2026-04-28T15:09:50.008Z</time></trkpt><trkpt lat="40.34587539452056" lon="9.510284982293236"><ele>188.0</ele><time>2026-04-28T15:09:51.007Z</time></trkpt><trkpt lat="40.345989394720874" lon="9.510082426347644"><ele>187.66666666666666</ele><time>2026-04-28T15:09:52.007Z</time></trkpt><trkpt lat="40.346101917663105" lon="9.509887143788667"><ele>187.33333333333334</ele><time>2026-04-28T15:09:53.008Z</time></trkpt><trkpt lat="40.346209401211425" lon="9.509707164086612"><ele>187.0</ele><time>2026-04-28T15:09:54.007Z</time></trkpt><trkpt lat="40.34631189565282" lon="9.509534288409753"><ele>184.75</ele><time>2026-04-28T15:09:55.007Z</time></trkpt><trkpt lat="40.34640036755825" lon="9.509382199831212"><ele>182.5</ele><time>2026-04-28T15:09:56.008Z</time></trkpt><trkpt lat="40.3464784422793" lon="9.50926967101624"><ele>180.25</ele><time>2026-04-28T15:09:57.008Z</time></trkpt><trkpt lat="40.346564434343684" lon="9.509184661324767"><ele>178.0</ele><time>2026-04-28T15:09:58.008Z</time></trkpt><trkpt lat="40.3466709926966" lon="9.509124631181928"><ele>178.0</ele><time>2026-04-28T15:09:59.007Z</time></trkpt><trkpt lat="40.34676759091901" lon="9.509073259930462"><ele>178.0</ele><time>2026-04-28T15:10:00.007Z</time></trkpt><trkpt lat="40.34682792881992" lon="9.508975978587635"><ele>178.0</ele><time>2026-04-28T15:10:01.007Z</time></trkpt><trkpt lat="40.346828424405814" lon="9.508853642451179"><ele>178.0</ele><time>2026-04-28T15:10:02.007Z</time></trkpt><trkpt lat="40.34677538506345" lon="9.508733279520749"><ele>178.0</ele><time>2026-04-28T15:10:03.008Z</time></trkpt><trkpt lat="40.34667608527684" lon="9.50864981141167"><ele>177.5</ele><time>2026-04-28T15:10:04.008Z</time></trkpt><trkpt lat="40.346555004303184" lon="9.508614775370223"><ele>177.0</ele><time>2026-04-28T15:10:05.008Z</time></trkpt><trkpt lat="40.34642246955768" lon="9.508569223860546"><ele>176.5</ele><time>2026-04-28T15:10:06.008Z</time></trkpt><trkpt lat="40.346308226854966" lon="9.508445747154328"><ele>176.0</ele><time>2026-04-28T15:10:07.008Z</time></trkpt><trkpt lat="40.34620488307022" lon="9.508284146420426"><ele>176.0</ele><time>2026-04-28T15:10:08.008Z</time></trkpt><trkpt lat="40.34609296992141" lon="9.508106251211334"><ele>176.0</ele><time>2026-04-28T15:10:09.008Z</time></trkpt><trkpt lat="40.34596791886304" lon="9.50793361797657"><ele>176.0</ele><time>2026-04-28T15:10:10.008Z</time></trkpt><trkpt lat="40.345837999828944" lon="9.507747266127973"><ele>176.0</ele><time>2026-04-28T15:10:11.008Z</time></trkpt><trkpt lat="40.345689435618226" lon="9.507569939039975"><ele>176.0</ele><time>2026-04-28T15:10:12.008Z</time></trkpt><trkpt lat="40.34552595107548" lon="9.507415253418271"><ele>176.0</ele><time>2026-04-28T15:10:13.008Z</time></trkpt><trkpt lat="40.345353882846425" lon="9.507314854999697"><ele>177.0</ele><time>2026-04-28T15:10:14.008Z</time></trkpt><trkpt lat="40.34518173102798" lon="9.507256268888618"><ele>178.0</ele><time>2026-04-28T15:10:15.008Z</time></trkpt><trkpt lat="40.34501892292754" lon="9.507185123689856"><ele>179.0</ele><time>2026-04-28T15:10:16.008Z</time></trkpt><trkpt lat="40.34488844891009" lon="9.507053803251775"><ele>179.0</ele><time>2026-04-28T15:10:17.008Z</time></trkpt><trkpt lat="40.34479963433782" lon="9.506854143281739"><ele>179.0</ele><time>2026-04-28T15:10:18.008Z</time></trkpt><trkpt lat="40.34474227479599" lon="9.506617783929434"><ele>179.0</ele><time>2026-04-28T15:10:19.008Z</time></trkpt><trkpt lat="40.34469416932506" lon="9.506363661150466"><ele>178.66666666666666</ele><time>2026-04-28T15:10:20.008Z</time></trkpt><trkpt lat="40.344640610753984" lon="9.506108882785954"><ele>178.33333333333334</ele><time>2026-04-28T15:10:21.008Z</time></trkpt><trkpt lat="40.344571079526254" lon="9.505853204569094"><ele>178.0</ele><time>2026-04-28T15:10:22.008Z</time></trkpt><trkpt lat="40.34449738974063" lon="9.505601024063877"><ele>177.0</ele><time>2026-04-28T15:10:23.008Z</time></trkpt><trkpt lat="40.34442832585446" lon="9.505350944868198"><ele>176.0</ele><time>2026-04-28T15:10:24.008Z</time></trkpt><trkpt lat="40.344364902707355" lon="9.505086646960786"><ele>175.0</ele><time>2026-04-28T15:10:25.008Z</time></trkpt><trkpt lat="40.34429657970682" lon="9.504823525495958"><ele>175.0</ele><time>2026-04-28T15:10:26.008Z</time></trkpt><trkpt lat="40.34422480965551" lon="9.504555431016469"><ele>175.0</ele><time>2026-04-28T15:10:27.008Z</time></trkpt><trkpt lat="40.34415931412134" lon="9.504293308063838"><ele>175.0</ele><time>2026-04-28T15:10:28.008Z</time></trkpt><trkpt lat="40.344101711781406" lon="9.504026506822076"><ele>175.0</ele><time>2026-04-28T15:10:29.008Z</time></trkpt><trkpt lat="40.34406275535431" lon="9.503759189386535"><ele>175.0</ele><time>2026-04-28T15:10:30.008Z</time></trkpt><trkpt lat="40.34403953498099" lon="9.503484566679921"><ele>175.0</ele><time>2026-04-28T15:10:31.008Z</time></trkpt><trkpt lat="40.34401889317047" lon="9.503227311273921"><ele>173.66666666666669</ele><time>2026-04-28T15:10:32.008Z</time></trkpt><trkpt lat="40.34395704373696" lon="9.502977492900104"><ele>172.33333333333334</ele><time>2026-04-28T15:10:33.008Z</time></trkpt><trkpt lat="40.34387571903098" lon="9.502740710797163"><ele>171.0</ele><time>2026-04-28T15:10:34.008Z</time></trkpt><trkpt lat="40.343820041228604" lon="9.502480042190678"><ele>175.5</ele><time>2026-04-28T15:10:35.008Z</time></trkpt><trkpt lat="40.343794451482154" lon="9.502176758641294"><ele>180.0</ele><time>2026-04-28T15:10:36.008Z</time></trkpt><trkpt lat="40.34378491066045" lon="9.501873102995551"><ele>180.0</ele><time>2026-04-28T15:10:37.008Z</time></trkpt><trkpt lat="40.343759776184534" lon="9.501583438260111"><ele>180.0</ele><time>2026-04-28T15:10:38.008Z</time></trkpt><trkpt lat="40.34371299035098" lon="9.501310828480127"><ele>180.0</ele><time>2026-04-28T15:10:39.007Z</time></trkpt><trkpt lat="40.343649108204005" lon="9.501051041796437"><ele>176.33333333333334</ele><time>2026-04-28T15:10:40.007Z</time></trkpt><trkpt lat="40.34357025910427" lon="9.500811092775754"><ele>172.66666666666669</ele><time>2026-04-28T15:10:41.007Z</time></trkpt><trkpt lat="40.343457860328265" lon="9.500609796949378"><ele>169.0</ele><time>2026-04-28T15:10:42.007Z</time></trkpt><trkpt lat="40.34329737737588" lon="9.500465681126045"><ele>167.66666666666669</ele><time>2026-04-28T15:10:43.007Z</time></trkpt><trkpt lat="40.34310953908345" lon="9.500340362511702"><ele>166.33333333333334</ele><time>2026-04-28T15:10:44.007Z</time></trkpt><trkpt lat="40.34297971889222" lon="9.500158922847666"><ele>165.0</ele><time>2026-04-28T15:10:45.007Z</time></trkpt><trkpt lat="40.34291043316216" lon="9.499915560186226"><ele>169.33333333333334</ele><time>2026-04-28T15:10:46.007Z</time></trkpt><trkpt lat="40.34292872708156" lon="9.499634965375453"><ele>173.66666666666669</ele><time>2026-04-28T15:10:47.007Z</time></trkpt><trkpt lat="40.34296841879096" lon="9.49935195514629"><ele>178.0</ele><time>2026-04-28T15:10:48.007Z</time></trkpt><trkpt lat="40.3430193441157" lon="9.499064657460725"><ele>178.0</ele><time>2026-04-28T15:10:49.007Z</time></trkpt><trkpt lat="40.343042441431614" lon="9.498772381258105"><ele>178.0</ele><time>2026-04-28T15:10:50.007Z</time></trkpt><trkpt lat="40.343060296392004" lon="9.498484546758556"><ele>178.0</ele><time>2026-04-28T15:10:51.007Z</time></trkpt><trkpt lat="40.343053974354014" lon="9.498221510928023"><ele>177.0</ele><time>2026-04-28T15:10:52.007Z</time></trkpt><trkpt lat="40.342997894932594" lon="9.497969403276333"><ele>176.0</ele><time>2026-04-28T15:10:53.007Z</time></trkpt><trkpt lat="40.3428893981806" lon="9.497709719985588"><ele>175.0</ele><time>2026-04-28T15:10:54.007Z</time></trkpt><trkpt lat="40.34276594277485" lon="9.497447447641967"><ele>172.5</ele><time>2026-04-28T15:10:55.007Z</time></trkpt><trkpt lat="40.3426454634081" lon="9.497181730842918"><ele>170.0</ele><time>2026-04-28T15:10:56.007Z</time></trkpt><trkpt lat="40.34252866851294" lon="9.496901078813323"><ele>166.5</ele><time>2026-04-28T15:10:57.007Z</time></trkpt><trkpt lat="40.34239859816825" lon="9.496628102472332"><ele>163.0</ele><time>2026-04-28T15:10:58.007Z</time></trkpt><trkpt lat="40.34225202804923" lon="9.496394150170367"><ele>161.66666666666669</ele><time>2026-04-28T15:10:59.007Z</time></trkpt><trkpt lat="40.34211500016323" lon="9.496195006266051"><ele>160.33333333333334</ele><time>2026-04-28T15:11:00.007Z</time></trkpt><trkpt lat="40.34203839331625" lon="9.49598880198029"><ele>159.0</ele><time>2026-04-28T15:11:01.007Z</time></trkpt><trkpt lat="40.34203529228207" lon="9.495744357791983"><ele>159.0</ele><time>2026-04-28T15:11:02.007Z</time></trkpt><trkpt lat="40.34205994616024" lon="9.49548851980797"><ele>159.0</ele><time>2026-04-28T15:11:03.007Z</time></trkpt><trkpt lat="40.342056158386704" lon="9.495234342396637"><ele>159.0</ele><time>2026-04-28T15:11:04.007Z</time></trkpt><trkpt lat="40.34201289246917" lon="9.494974612541007"><ele>159.0</ele><time>2026-04-28T15:11:05.007Z</time></trkpt><trkpt lat="40.34194919750967" lon="9.494729245595911"><ele>159.0</ele><time>2026-04-28T15:11:06.007Z</time></trkpt><trkpt lat="40.34185493607613" lon="9.494476428882841"><ele>159.0</ele><time>2026-04-28T15:11:07.007Z</time></trkpt><trkpt lat="40.341743098437156" lon="9.494226688111532"><ele>159.0</ele><time>2026-04-28T15:11:08.007Z</time></trkpt><trkpt lat="40.34162972457963" lon="9.493966857984942"><ele>159.0</ele><time>2026-04-28T15:11:09.007Z</time></trkpt><trkpt lat="40.34151911501455" lon="9.493712006020585"><ele>159.33333333333334</ele><time>2026-04-28T15:11:10.007Z</time></trkpt><trkpt lat="40.34140633950733" lon="9.493456616952981"><ele>159.66666666666669</ele><time>2026-04-28T15:11:11.007Z</time></trkpt><trkpt lat="40.34129081240219" lon="9.493208961855572"><ele>160.0</ele><time>2026-04-28T15:11:12.007Z</time></trkpt><trkpt lat="40.34117516541371" lon="9.492973064609288"><ele>159.66666666666669</ele><time>2026-04-28T15:11:13.007Z</time></trkpt><trkpt lat="40.341039597807494" lon="9.492766294961202"><ele>159.33333333333334</ele><time>2026-04-28T15:11:14.007Z</time></trkpt><trkpt lat="40.3408750068606" lon="9.492592546629517"><ele>159.0</ele><time>2026-04-28T15:11:15.007Z</time></trkpt><trkpt lat="40.34068767338294" lon="9.492449401736755"><ele>158.33333333333334</ele><time>2026-04-28T15:11:16.007Z</time></trkpt><trkpt lat="40.34048667950614" lon="9.492331367746923"><ele>157.66666666666669</ele><time>2026-04-28T15:11:17.007Z</time></trkpt><trkpt lat="40.34028358111616" lon="9.49226485365686"><ele>157.0</ele><time>2026-04-28T15:11:18.007Z</time></trkpt><trkpt lat="40.340091132031304" lon="9.492219654525291"><ele>157.0</ele><time>2026-04-28T15:11:19.007Z</time></trkpt><trkpt lat="40.33992348263653" lon="9.492156842307136"><ele>157.0</ele><time>2026-04-28T15:11:20.007Z</time></trkpt><trkpt lat="40.339793139905034" lon="9.492010896932367"><ele>157.0</ele><time>2026-04-28T15:11:21.007Z</time></trkpt><trkpt lat="40.33970485845521" lon="9.491793019809892"><ele>156.66666666666669</ele><time>2026-04-28T15:11:22.007Z</time></trkpt><trkpt lat="40.339668583665315" lon="9.491531780673881"><ele>156.33333333333334</ele><time>2026-04-28T15:11:23.007Z</time></trkpt><trkpt lat="40.33967177982974" lon="9.491247985654374"><ele>156.0</ele><time>2026-04-28T15:11:24.007Z</time></trkpt><trkpt lat="40.33967921678914" lon="9.490940293347943"><ele>156.0</ele><time>2026-04-28T15:11:25.007Z</time></trkpt><trkpt lat="40.339676076488125" lon="9.490633544805258"><ele>156.0</ele><time>2026-04-28T15:11:26.007Z</time></trkpt><trkpt lat="40.339663940088236" lon="9.490321786345579"><ele>156.0</ele><time>2026-04-28T15:11:27.007Z</time></trkpt><trkpt lat="40.339650507593745" lon="9.49000626838022"><ele>156.0</ele><time>2026-04-28T15:11:28.007Z</time></trkpt><trkpt lat="40.339638899320974" lon="9.489676654282583"><ele>157.0</ele><time>2026-04-28T15:11:29.007Z</time></trkpt><trkpt lat="40.33962749507558" lon="9.489343903853028"><ele>158.0</ele><time>2026-04-28T15:11:30.007Z</time></trkpt><trkpt lat="40.33961803525793" lon="9.489003712924552"><ele>158.0</ele><time>2026-04-28T15:11:31.007Z</time></trkpt><trkpt lat="40.33960128236265" lon="9.488654796940196"><ele>158.0</ele><time>2026-04-28T15:11:32.007Z</time></trkpt><trkpt lat="40.33958989718092" lon="9.488311657884742"><ele>158.0</ele><time>2026-04-28T15:11:33.007Z</time></trkpt><trkpt lat="40.33957949785212" lon="9.487977699479568"><ele>158.0</ele><time>2026-04-28T15:11:34.007Z</time></trkpt><trkpt lat="40.339569487093776" lon="9.487663321491437"><ele>157.5</ele><time>2026-04-28T15:11:35.007Z</time></trkpt><trkpt lat="40.339557891298696" lon="9.48734063589689"><ele>157.0</ele><time>2026-04-28T15:11:36.007Z</time></trkpt><trkpt lat="40.33954467228061" lon="9.487019986497547"><ele>157.0</ele><time>2026-04-28T15:11:37.007Z</time></trkpt><trkpt lat="40.339530842674115" lon="9.486700274000288"><ele>157.0</ele><time>2026-04-28T15:11:38.007Z</time></trkpt><trkpt lat="40.33951688275932" lon="9.48638232699684"><ele>157.5</ele><time>2026-04-28T15:11:39.007Z</time></trkpt><trkpt lat="40.33950144915683" lon="9.486066970230748"><ele>158.0</ele><time>2026-04-28T15:11:40.007Z</time></trkpt><trkpt lat="40.339494503284705" lon="9.485752252772786"><ele>158.0</ele><time>2026-04-28T15:11:41.007Z</time></trkpt><trkpt lat="40.339489036077424" lon="9.485448603702247"><ele>158.0</ele><time>2026-04-28T15:11:42.007Z</time></trkpt><trkpt lat="40.33947844440259" lon="9.485139560841448"><ele>159.5</ele><time>2026-04-28T15:11:43.007Z</time></trkpt><trkpt lat="40.339467647504364" lon="9.484831262980208"><ele>161.0</ele><time>2026-04-28T15:11:44.007Z</time></trkpt><trkpt lat="40.339459287973284" lon="9.484528291651717"><ele>161.5</ele><time>2026-04-28T15:11:45.007Z</time></trkpt><trkpt lat="40.339428173036545" lon="9.48423283928739"><ele>162.0</ele><time>2026-04-28T15:11:46.007Z</time></trkpt><trkpt lat="40.33935939928583" lon="9.483946590494806"><ele>162.5</ele><time>2026-04-28T15:11:47.007Z</time></trkpt><trkpt lat="40.33926894311905" lon="9.483675716428701"><ele>163.0</ele><time>2026-04-28T15:11:48.007Z</time></trkpt><trkpt lat="40.33916754646647" lon="9.48340413391016"><ele>163.0</ele><time>2026-04-28T15:11:49.007Z</time></trkpt><trkpt lat="40.33906402216276" lon="9.483127005485885"><ele>163.0</ele><time>2026-04-28T15:11:50.007Z</time></trkpt><trkpt lat="40.33896150698686" lon="9.482849879480632"><ele>163.0</ele><time>2026-04-28T15:11:51.007Z</time></trkpt><trkpt lat="40.33885922807197" lon="9.482568445823064"><ele>163.0</ele><time>2026-04-28T15:11:52.007Z</time></trkpt><trkpt lat="40.338754618517434" lon="9.482283332565515"><ele>163.5</ele><time>2026-04-28T15:11:53.007Z</time></trkpt><trkpt lat="40.338649693651135" lon="9.48200023462666"><ele>164.0</ele><time>2026-04-28T15:11:54.007Z</time></trkpt><trkpt lat="40.338543809618905" lon="9.481715054227136"><ele>164.0</ele><time>2026-04-28T15:11:55.007Z</time></trkpt><trkpt lat="40.33843914873798" lon="9.481430272185943"><ele>164.0</ele><time>2026-04-28T15:11:56.007Z</time></trkpt><trkpt lat="40.33833772800654" lon="9.481151558471216"><ele>164.66666666666666</ele><time>2026-04-28T15:11:57.007Z</time></trkpt><trkpt lat="40.338247051619064" lon="9.48088854872512"><ele>165.33333333333334</ele><time>2026-04-28T15:11:58.007Z</time></trkpt><trkpt lat="40.338166629318124" lon="9.480643829558677"><ele>166.0</ele><time>2026-04-28T15:11:59.008Z</time></trkpt><trkpt lat="40.338090070560135" lon="9.480449997667629"><ele>164.66666666666669</ele><time>2026-04-28T15:12:00.008Z</time></trkpt><trkpt lat="40.33796840122599" lon="9.48031442498708"><ele>163.33333333333334</ele><time>2026-04-28T15:12:01.008Z</time></trkpt><trkpt lat="40.33780059046439" lon="9.480247739249746"><ele>162.0</ele><time>2026-04-28T15:12:02.008Z</time></trkpt><trkpt lat="40.337619853553306" lon="9.480269034408968"><ele>162.0</ele><time>2026-04-28T15:12:03.008Z</time></trkpt><trkpt lat="40.33743780412051" lon="9.480366241636132"><ele>162.0</ele><time>2026-04-28T15:12:04.008Z</time></trkpt><trkpt lat="40.33727911523708" lon="9.480392780796342"><ele>162.0</ele><time>2026-04-28T15:12:05.008Z</time></trkpt><trkpt lat="40.33714406391507" lon="9.480302435074721"><ele>163.66666666666666</ele><time>2026-04-28T15:12:06.007Z</time></trkpt><trkpt lat="40.33700662081387" lon="9.4801104229048"><ele>165.33333333333331</ele><time>2026-04-28T15:12:07.007Z</time></trkpt><trkpt lat="40.33687177295652" lon="9.479891093069567"><ele>167.0</ele><time>2026-04-28T15:12:08.008Z</time></trkpt><trkpt lat="40.336743075111336" lon="9.479663349217637"><ele>165.33333333333331</ele><time>2026-04-28T15:12:09.007Z</time></trkpt><trkpt lat="40.336607773205756" lon="9.479445554893994"><ele>163.66666666666666</ele><time>2026-04-28T15:12:10.007Z</time></trkpt><trkpt lat="40.33647471612359" lon="9.479234367396586"><ele>162.0</ele><time>2026-04-28T15:12:11.007Z</time></trkpt><trkpt lat="40.336351841074354" lon="9.479033339202493"><ele>163.0</ele><time>2026-04-28T15:12:12.007Z</time></trkpt><trkpt lat="40.336225140847006" lon="9.478834810027793"><ele>164.0</ele><time>2026-04-28T15:12:13.007Z</time></trkpt><trkpt lat="40.33607961697673" lon="9.478660287900249"><ele>165.0</ele><time>2026-04-28T15:12:14.007Z</time></trkpt><trkpt lat="40.33591564180901" lon="9.478518950705523"><ele>165.0</ele><time>2026-04-28T15:12:15.007Z</time></trkpt><trkpt lat="40.33573545265093" lon="9.478397344805597"><ele>165.0</ele><time>2026-04-28T15:12:16.007Z</time></trkpt><trkpt lat="40.3355471775559" lon="9.478274629486322"><ele>165.0</ele><time>2026-04-28T15:12:17.007Z</time></trkpt><trkpt lat="40.335353457853564" lon="9.478146530369884"><ele>165.0</ele><time>2026-04-28T15:12:18.007Z</time></trkpt><trkpt lat="40.33515664902189" lon="9.478021534246572"><ele>165.0</ele><time>2026-04-28T15:12:19.007Z</time></trkpt><trkpt lat="40.334954241148125" lon="9.477900510578893"><ele>165.0</ele><time>2026-04-28T15:12:20.007Z</time></trkpt><trkpt lat="40.33474795306387" lon="9.477784904100638"><ele>166.66666666666666</ele><time>2026-04-28T15:12:21.007Z</time></trkpt><trkpt lat="40.334541200340894" lon="9.477663586259535"><ele>168.33333333333331</ele><time>2026-04-28T15:12:22.007Z</time></trkpt><trkpt lat="40.33435009659486" lon="9.477533794293304"><ele>170.0</ele><time>2026-04-28T15:12:23.007Z</time></trkpt><trkpt lat="40.334166889917874" lon="9.47740127829512"><ele>170.0</ele><time>2026-04-28T15:12:24.007Z</time></trkpt><trkpt lat="40.33399594650285" lon="9.477271538142672"><ele>170.0</ele><time>2026-04-28T15:12:25.007Z</time></trkpt><trkpt lat="40.33380696661039" lon="9.477137934697929"><ele>170.0</ele><time>2026-04-28T15:12:26.007Z</time></trkpt><trkpt lat="40.3336147805318" lon="9.477001644682641"><ele>169.66666666666666</ele><time>2026-04-28T15:12:27.007Z</time></trkpt><trkpt lat="40.3334203109203" lon="9.476858078704218"><ele>169.33333333333334</ele><time>2026-04-28T15:12:28.007Z</time></trkpt><trkpt lat="40.33323218026699" lon="9.47671575339163"><ele>169.0</ele><time>2026-04-28T15:12:29.007Z</time></trkpt><trkpt lat="40.333074005326985" lon="9.476558578639757"><ele>169.0</ele><time>2026-04-28T15:12:30.007Z</time></trkpt><trkpt lat="40.33293125204989" lon="9.476411403037273"><ele>169.0</ele><time>2026-04-28T15:12:31.007Z</time></trkpt><trkpt lat="40.33279670253137" lon="9.4762755397573"><ele>169.0</ele><time>2026-04-28T15:12:32.007Z</time></trkpt><trkpt lat="40.33266679011394" lon="9.476142086405394"><ele>169.0</ele><time>2026-04-28T15:12:33.007Z</time></trkpt><trkpt lat="40.33251597724291" lon="9.475992858894314"><ele>169.0</ele><time>2026-04-28T15:12:34.007Z</time></trkpt><trkpt lat="40.33236687800807" lon="9.47584998273913"><ele>169.0</ele><time>2026-04-28T15:12:35.007Z</time></trkpt><trkpt lat="40.332208721091526" lon="9.475721723172144"><ele>169.0</ele><time>2026-04-28T15:12:36.007Z</time></trkpt><trkpt lat="40.33204209739792" lon="9.475606707387541"><ele>169.0</ele><time>2026-04-28T15:12:37.007Z</time></trkpt><trkpt lat="40.33187168905881" lon="9.475493830098923"><ele>169.0</ele><time>2026-04-28T15:12:38.007Z</time></trkpt><trkpt lat="40.331701536642306" lon="9.475376914919849"><ele>169.0</ele><time>2026-04-28T15:12:39.007Z</time></trkpt><trkpt lat="40.331532547271586" lon="9.475258468886533"><ele>169.0</ele><time>2026-04-28T15:12:40.007Z</time></trkpt><trkpt lat="40.331364163278614" lon="9.475122295397089"><ele>169.0</ele><time>2026-04-28T15:12:41.007Z</time></trkpt><trkpt lat="40.33119958887534" lon="9.474960328210923"><ele>169.66666666666669</ele><time>2026-04-28T15:12:42.007Z</time></trkpt><trkpt lat="40.33104028115114" lon="9.474791437880654"><ele>170.33333333333334</ele><time>2026-04-28T15:12:43.007Z</time></trkpt><trkpt lat="40.33087862438753" lon="9.474626284905009"><ele>171.0</ele><time>2026-04-28T15:12:44.007Z</time></trkpt><trkpt lat="40.33071710117249" lon="9.474462435255571"><ele>171.0</ele><time>2026-04-28T15:12:45.007Z</time></trkpt><trkpt lat="40.33056059474195" lon="9.474297199560926"><ele>171.0</ele><time>2026-04-28T15:12:46.007Z</time></trkpt><trkpt lat="40.33040113291216" lon="9.47413822994861"><ele>171.0</ele><time>2026-04-28T15:12:47.007Z</time></trkpt><trkpt lat="40.33024202603153" lon="9.47397022122738"><ele>170.66666666666666</ele><time>2026-04-28T15:12:48.007Z</time></trkpt><trkpt lat="40.330067470788215" lon="9.473823372501508"><ele>170.33333333333331</ele><time>2026-04-28T15:12:49.007Z</time></trkpt><trkpt lat="40.329881397336806" lon="9.47370810023666"><ele>170.0</ele><time>2026-04-28T15:12:50.007Z</time></trkpt><trkpt lat="40.32967721275777" lon="9.473637884537077"><ele>170.66666666666666</ele><time>2026-04-28T15:12:51.007Z</time></trkpt><trkpt lat="40.32946732180047" lon="9.47361259876585"><ele>171.33333333333334</ele><time>2026-04-28T15:12:52.007Z</time></trkpt><trkpt lat="40.329250533010445" lon="9.473586057376705"><ele>172.0</ele><time>2026-04-28T15:12:53.007Z</time></trkpt><trkpt lat="40.3290383031382" lon="9.473531759716531"><ele>173.66666666666669</ele><time>2026-04-28T15:12:54.007Z</time></trkpt><trkpt lat="40.32883219679751" lon="9.473437211959576"><ele>175.33333333333334</ele><time>2026-04-28T15:12:55.007Z</time></trkpt><trkpt lat="40.32863651302528" lon="9.473291174351512"><ele>177.0</ele><time>2026-04-28T15:12:56.007Z</time></trkpt><trkpt lat="40.32845691676153" lon="9.473127154274794"><ele>177.0</ele><time>2026-04-28T15:12:57.007Z</time></trkpt><trkpt lat="40.328277557118746" lon="9.472975201224614"><ele>177.0</ele><time>2026-04-28T15:12:58.007Z</time></trkpt><trkpt lat="40.328112588307945" lon="9.47284326433276"><ele>177.0</ele><time>2026-04-28T15:12:59.007Z</time></trkpt><trkpt lat="40.327948199831134" lon="9.472761872500143"><ele>176.66666666666666</ele><time>2026-04-28T15:13:00.007Z</time></trkpt><trkpt lat="40.327762578059364" lon="9.472759622356905"><ele>176.33333333333331</ele><time>2026-04-28T15:13:01.007Z</time></trkpt><trkpt lat="40.32756499896589" lon="9.472793362056379"><ele>176.0</ele><time>2026-04-28T15:13:02.007Z</time></trkpt><trkpt lat="40.32739196454662" lon="9.472710924497886"><ele>176.0</ele><time>2026-04-28T15:13:03.007Z</time></trkpt><trkpt lat="40.327240078781955" lon="9.47254625671668"><ele>176.0</ele><time>2026-04-28T15:13:04.007Z</time></trkpt><trkpt lat="40.32707410329044" lon="9.472378012843905"><ele>176.0</ele><time>2026-04-28T15:13:05.007Z</time></trkpt><trkpt lat="40.326903681897605" lon="9.472230048781052"><ele>176.0</ele><time>2026-04-28T15:13:06.007Z</time></trkpt><trkpt lat="40.326739899146645" lon="9.472098600659784"><ele>176.0</ele><time>2026-04-28T15:13:07.007Z</time></trkpt><trkpt lat="40.32659213347666" lon="9.471966171891506"><ele>176.0</ele><time>2026-04-28T15:13:08.007Z</time></trkpt><trkpt lat="40.32647985273777" lon="9.471798315582443"><ele>176.0</ele><time>2026-04-28T15:13:09.007Z</time></trkpt><trkpt lat="40.326425179386355" lon="9.471588818172322"><ele>176.0</ele><time>2026-04-28T15:13:10.007Z</time></trkpt><trkpt lat="40.32640077449436" lon="9.47135771697272"><ele>176.0</ele><time>2026-04-28T15:13:11.007Z</time></trkpt><trkpt lat="40.32641561383867" lon="9.471116567443804"><ele>177.0</ele><time>2026-04-28T15:13:12.007Z</time></trkpt><trkpt lat="40.326447985172535" lon="9.470860330531544"><ele>178.0</ele><time>2026-04-28T15:13:13.006Z</time></trkpt><trkpt lat="40.32642097823821" lon="9.470606326965694"><ele>179.0</ele><time>2026-04-28T15:13:14.006Z</time></trkpt><trkpt lat="40.326350321844124" lon="9.470364980938006"><ele>182.66666666666666</ele><time>2026-04-28T15:13:15.006Z</time></trkpt><trkpt lat="40.326276957005376" lon="9.470116331040295"><ele>186.33333333333334</ele><time>2026-04-28T15:13:16.006Z</time></trkpt><trkpt lat="40.3262408845967" lon="9.469858713272417"><ele>190.0</ele><time>2026-04-28T15:13:17.006Z</time></trkpt><trkpt lat="40.326255924219744" lon="9.469590190402497"><ele>190.66666666666669</ele><time>2026-04-28T15:13:18.006Z</time></trkpt><trkpt lat="40.32625940268081" lon="9.469326659429495"><ele>191.33333333333334</ele><time>2026-04-28T15:13:19.006Z</time></trkpt><trkpt lat="40.326222561539346" lon="9.469057478959845"><ele>192.0</ele><time>2026-04-28T15:13:20.006Z</time></trkpt><trkpt lat="40.326129279513" lon="9.4688029717102"><ele>190.66666666666666</ele><time>2026-04-28T15:13:21.006Z</time></trkpt><trkpt lat="40.32602022963115" lon="9.468572552601419"><ele>189.33333333333331</ele><time>2026-04-28T15:13:22.006Z</time></trkpt><trkpt lat="40.32594068262132" lon="9.468337333609421"><ele>188.0</ele><time>2026-04-28T15:13:23.006Z</time></trkpt><trkpt lat="40.32588466322372" lon="9.468071835286064"><ele>187.0</ele><time>2026-04-28T15:13:24.006Z</time></trkpt><trkpt lat="40.32587683278932" lon="9.46779315792741"><ele>186.0</ele><time>2026-04-28T15:13:25.006Z</time></trkpt><trkpt lat="40.32588581327871" lon="9.46750669671568"><ele>185.0</ele><time>2026-04-28T15:13:26.006Z</time></trkpt><trkpt lat="40.325878139701814" lon="9.46724648610599"><ele>184.33333333333331</ele><time>2026-04-28T15:13:27.006Z</time></trkpt><trkpt lat="40.325871215800916" lon="9.466988128304596"><ele>183.66666666666666</ele><time>2026-04-28T15:13:28.006Z</time></trkpt><trkpt lat="40.32585357663235" lon="9.466734891455488"><ele>183.0</ele><time>2026-04-28T15:13:29.006Z</time></trkpt><trkpt lat="40.325845754761055" lon="9.466467594855688"><ele>184.0</ele><time>2026-04-28T15:13:30.006Z</time></trkpt><trkpt lat="40.32583550814762" lon="9.46620020678078"><ele>185.0</ele><time>2026-04-28T15:13:31.006Z</time></trkpt><trkpt lat="40.32582026811828" lon="9.465937127237218"><ele>186.0</ele><time>2026-04-28T15:13:32.006Z</time></trkpt><trkpt lat="40.325810190401285" lon="9.46568604015719"><ele>186.0</ele><time>2026-04-28T15:13:33.006Z</time></trkpt><trkpt lat="40.32579695772046" lon="9.465460655202618"><ele>186.0</ele><time>2026-04-28T15:13:34.006Z</time></trkpt><trkpt lat="40.325764506743276" lon="9.46524481455428"><ele>186.0</ele><time>2026-04-28T15:13:35.006Z</time></trkpt><trkpt lat="40.3257133237951" lon="9.465017795642858"><ele>186.66666666666666</ele><time>2026-04-28T15:13:36.006Z</time></trkpt><trkpt lat="40.32564176587151" lon="9.46478699961574"><ele>187.33333333333331</ele><time>2026-04-28T15:13:37.006Z</time></trkpt><trkpt lat="40.325580302591064" lon="9.46453907531353"><ele>188.0</ele><time>2026-04-28T15:13:38.006Z</time></trkpt><trkpt lat="40.32552013833585" lon="9.464278496758583"><ele>190.66666666666666</ele><time>2026-04-28T15:13:39.006Z</time></trkpt><trkpt lat="40.325453310018936" lon="9.464017441136264"><ele>193.33333333333331</ele><time>2026-04-28T15:13:40.006Z</time></trkpt><trkpt lat="40.32538799260304" lon="9.463747102638884"><ele>196.0</ele><time>2026-04-28T15:13:41.006Z</time></trkpt><trkpt lat="40.32532165999521" lon="9.463481048012866"><ele>196.0</ele><time>2026-04-28T15:13:42.006Z</time></trkpt><trkpt lat="40.325254241747025" lon="9.46321691438296"><ele>196.0</ele><time>2026-04-28T15:13:43.006Z</time></trkpt><trkpt lat="40.32518689352863" lon="9.462955125920427"><ele>196.0</ele><time>2026-04-28T15:13:44.006Z</time></trkpt><trkpt lat="40.325122034415735" lon="9.462702510025652"><ele>195.0</ele><time>2026-04-28T15:13:45.006Z</time></trkpt><trkpt lat="40.325036580537834" lon="9.462474910233878"><ele>194.0</ele><time>2026-04-28T15:13:46.006Z</time></trkpt><trkpt lat="40.324922109827" lon="9.462268924360885"><ele>193.0</ele><time>2026-04-28T15:13:47.006Z</time></trkpt><trkpt lat="40.32479682910546" lon="9.462081593289685"><ele>196.0</ele><time>2026-04-28T15:13:48.006Z</time></trkpt><trkpt lat="40.3246871419473" lon="9.46186140961003"><ele>199.0</ele><time>2026-04-28T15:13:49.006Z</time></trkpt><trkpt lat="40.32466281390094" lon="9.46160953920645"><ele>202.0</ele><time>2026-04-28T15:13:50.006Z</time></trkpt><trkpt lat="40.32470148819782" lon="9.461335716893949"><ele>203.0</ele><time>2026-04-28T15:13:51.006Z</time></trkpt><trkpt lat="40.32472004486628" lon="9.461062606098398"><ele>204.0</ele><time>2026-04-28T15:13:52.006Z</time></trkpt><trkpt lat="40.32470260037795" lon="9.460785870026056"><ele>205.0</ele><time>2026-04-28T15:13:53.006Z</time></trkpt><trkpt lat="40.324659354137324" lon="9.460508309058447"><ele>204.0</ele><time>2026-04-28T15:13:54.006Z</time></trkpt><trkpt lat="40.32460276989059" lon="9.46021810588979"><ele>203.0</ele><time>2026-04-28T15:13:55.006Z</time></trkpt><trkpt lat="40.324552846214374" lon="9.45992993285769"><ele>203.0</ele><time>2026-04-28T15:13:56.006Z</time></trkpt><trkpt lat="40.32451063634257" lon="9.459639839474148"><ele>203.0</ele><time>2026-04-28T15:13:57.006Z</time></trkpt><trkpt lat="40.32446761518624" lon="9.459352155853585"><ele>203.0</ele><time>2026-04-28T15:13:58.006Z</time></trkpt><trkpt lat="40.324426903716436" lon="9.459062660344065"><ele>204.0</ele><time>2026-04-28T15:13:59.006Z</time></trkpt><trkpt lat="40.32439871268134" lon="9.458764376807123"><ele>205.0</ele><time>2026-04-28T15:14:00.006Z</time></trkpt><trkpt lat="40.324403462508116" lon="9.458450594724372"><ele>205.0</ele><time>2026-04-28T15:14:01.006Z</time></trkpt><trkpt lat="40.32443080960311" lon="9.458145548123591"><ele>205.0</ele><time>2026-04-28T15:14:02.008Z</time></trkpt><trkpt lat="40.324465550890544" lon="9.457841803294741"><ele>203.5</ele><time>2026-04-28T15:14:03.007Z</time></trkpt><trkpt lat="40.32448613883138" lon="9.457535747600177"><ele>202.0</ele><time>2026-04-28T15:14:04.007Z</time></trkpt><trkpt lat="40.32450036316561" lon="9.457236619025316"><ele>203.5</ele><time>2026-04-28T15:14:05.007Z</time></trkpt><trkpt lat="40.32452225150251" lon="9.456936919051747"><ele>205.0</ele><time>2026-04-28T15:14:06.008Z</time></trkpt><trkpt lat="40.32452920689002" lon="9.45663567588789"><ele>205.0</ele><time>2026-04-28T15:14:07.008Z</time></trkpt><trkpt lat="40.32450811777601" lon="9.456338180575477"><ele>205.0</ele><time>2026-04-28T15:14:08.008Z</time></trkpt><trkpt lat="40.324443182932676" lon="9.456047196391356"><ele>205.0</ele><time>2026-04-28T15:14:09.007Z</time></trkpt><trkpt lat="40.324355006956935" lon="9.455761140857854"><ele>205.0</ele><time>2026-04-28T15:14:10.007Z</time></trkpt><trkpt lat="40.32426351091238" lon="9.455479918703212"><ele>207.5</ele><time>2026-04-28T15:14:11.007Z</time></trkpt><trkpt lat="40.32421664645826" lon="9.455193787354533"><ele>210.0</ele><time>2026-04-28T15:14:12.008Z</time></trkpt><trkpt lat="40.32423011139861" lon="9.454886315311269"><ele>212.5</ele><time>2026-04-28T15:14:13.008Z</time></trkpt><trkpt lat="40.324266813047885" lon="9.454586194549062"><ele>215.0</ele><time>2026-04-28T15:14:14.008Z</time></trkpt><trkpt lat="40.324300186070296" lon="9.454285291837087"><ele>215.0</ele><time>2026-04-28T15:14:15.007Z</time></trkpt><trkpt lat="40.32431006279596" lon="9.453980989499573"><ele>215.0</ele><time>2026-04-28T15:14:16.007Z</time></trkpt><trkpt lat="40.32431346044335" lon="9.453673029673693"><ele>216.0</ele><time>2026-04-28T15:14:17.007Z</time></trkpt><trkpt lat="40.32432372107822" lon="9.453358470208563"><ele>217.0</ele><time>2026-04-28T15:14:18.007Z</time></trkpt><trkpt lat="40.32433798304973" lon="9.453026066553608"><ele>218.5</ele><time>2026-04-28T15:14:19.007Z</time></trkpt><trkpt lat="40.32435705382078" lon="9.4526986358906"><ele>220.0</ele><time>2026-04-28T15:14:20.007Z</time></trkpt><trkpt lat="40.324393545406025" lon="9.45237365056597"><ele>224.5</ele><time>2026-04-28T15:14:21.007Z</time></trkpt><trkpt lat="40.324456020017145" lon="9.452048473489878"><ele>229.0</ele><time>2026-04-28T15:14:22.007Z</time></trkpt><trkpt lat="40.32451793770098" lon="9.451730187537562"><ele>229.0</ele><time>2026-04-28T15:14:23.007Z</time></trkpt><trkpt lat="40.32456301268372" lon="9.451407308042551"><ele>229.0</ele><time>2026-04-28T15:14:24.007Z</time></trkpt><trkpt lat="40.32458443268916" lon="9.45108289070216"><ele>231.5</ele><time>2026-04-28T15:14:25.007Z</time></trkpt><trkpt lat="40.324585221206014" lon="9.450772312848578"><ele>234.0</ele><time>2026-04-28T15:14:26.007Z</time></trkpt><trkpt lat="40.32457540151081" lon="9.450473629320605"><ele>231.66666666666669</ele><time>2026-04-28T15:14:27.007Z</time></trkpt><trkpt lat="40.32453585099706" lon="9.450189460612838"><ele>229.33333333333334</ele><time>2026-04-28T15:14:28.007Z</time></trkpt><trkpt lat="40.3244543886595" lon="9.44991702918296"><ele>227.0</ele><time>2026-04-28T15:14:29.007Z</time></trkpt><trkpt lat="40.324330694928086" lon="9.449660838295967"><ele>226.5</ele><time>2026-04-28T15:14:30.007Z</time></trkpt><trkpt lat="40.32417223642666" lon="9.449447548718734"><ele>226.0</ele><time>2026-04-28T15:14:31.007Z</time></trkpt><trkpt lat="40.32400547791099" lon="9.449245196460467"><ele>228.33333333333331</ele><time>2026-04-28T15:14:32.007Z</time></trkpt><trkpt lat="40.32386643134631" lon="9.449024632804974"><ele>230.66666666666669</ele><time>2026-04-28T15:14:33.007Z</time></trkpt><trkpt lat="40.32376496987783" lon="9.448804774596953"><ele>233.0</ele><time>2026-04-28T15:14:34.007Z</time></trkpt><trkpt lat="40.32371653934889" lon="9.44856579531923"><ele>233.0</ele><time>2026-04-28T15:14:35.007Z</time></trkpt><trkpt lat="40.323731841190316" lon="9.448302818744368"><ele>233.0</ele><time>2026-04-28T15:14:36.007Z</time></trkpt><trkpt lat="40.32381758655144" lon="9.448047007830281"><ele>233.0</ele><time>2026-04-28T15:14:37.007Z</time></trkpt><trkpt lat="40.32392474352645" lon="9.447788717350047"><ele>235.0</ele><time>2026-04-28T15:14:38.007Z</time></trkpt><trkpt lat="40.3240060719894" lon="9.44752201819503"><ele>237.0</ele><time>2026-04-28T15:14:39.007Z</time></trkpt><trkpt lat="40.324078337172836" lon="9.44724157016976"><ele>239.0</ele><time>2026-04-28T15:14:40.007Z</time></trkpt><trkpt lat="40.32415227719098" lon="9.446952998461883"><ele>239.0</ele><time>2026-04-28T15:14:41.007Z</time></trkpt><trkpt lat="40.324228406488" lon="9.44665925300763"><ele>239.0</ele><time>2026-04-28T15:14:42.007Z</time></trkpt><trkpt lat="40.32430495797524" lon="9.446357292282283"><ele>240.5</ele><time>2026-04-28T15:14:43.007Z</time></trkpt><trkpt lat="40.324365250799566" lon="9.446062941687325"><ele>242.0</ele><time>2026-04-28T15:14:44.007Z</time></trkpt><trkpt lat="40.32439648477211" lon="9.445767303453794"><ele>242.0</ele><time>2026-04-28T15:14:45.007Z</time></trkpt><trkpt lat="40.324392095627296" lon="9.445465293827905"><ele>242.0</ele><time>2026-04-28T15:14:46.007Z</time></trkpt><trkpt lat="40.32437302573862" lon="9.445163808279684"><ele>242.0</ele><time>2026-04-28T15:14:47.007Z</time></trkpt><trkpt lat="40.32436332101646" lon="9.444862170848998"><ele>242.0</ele><time>2026-04-28T15:14:48.007Z</time></trkpt><trkpt lat="40.32436078364174" lon="9.444549734934714"><ele>239.5</ele><time>2026-04-28T15:14:49.007Z</time></trkpt><trkpt lat="40.32435613186753" lon="9.44422269283029"><ele>237.0</ele><time>2026-04-28T15:14:50.007Z</time></trkpt><trkpt lat="40.32436208004786" lon="9.443893974974051"><ele>235.5</ele><time>2026-04-28T15:14:51.007Z</time></trkpt><trkpt lat="40.32435853867299" lon="9.443561953667958"><ele>234.0</ele><time>2026-04-28T15:14:52.007Z</time></trkpt><trkpt lat="40.324355398469365" lon="9.44322906476043"><ele>232.5</ele><time>2026-04-28T15:14:53.007Z</time></trkpt><trkpt lat="40.32434799594145" lon="9.442897800755501"><ele>231.0</ele><time>2026-04-28T15:14:54.007Z</time></trkpt><trkpt lat="40.32434291557977" lon="9.442560816829403"><ele>231.0</ele><time>2026-04-28T15:14:55.007Z</time></trkpt><trkpt lat="40.32432325423807" lon="9.442225807552836"><ele>231.0</ele><time>2026-04-28T15:14:56.007Z</time></trkpt><trkpt lat="40.32428840080643" lon="9.441895360800508"><ele>230.0</ele><time>2026-04-28T15:14:57.007Z</time></trkpt><trkpt lat="40.324235296885504" lon="9.441558296677345"><ele>229.0</ele><time>2026-04-28T15:14:58.007Z</time></trkpt><trkpt lat="40.32418932221137" lon="9.441227210502747"><ele>229.0</ele><time>2026-04-28T15:14:59.007Z</time></trkpt><trkpt lat="40.324142802192334" lon="9.440921320240133"><ele>229.0</ele><time>2026-04-28T15:15:00.007Z</time></trkpt><trkpt lat="40.32408760406283" lon="9.44063354168123"><ele>229.0</ele><time>2026-04-28T15:15:01.007Z</time></trkpt><trkpt lat="40.32399320730776" lon="9.440378471060813"><ele>229.0</ele><time>2026-04-28T15:15:02.007Z</time></trkpt><trkpt lat="40.32386354318145" lon="9.4401206904471"><ele>228.66666666666666</ele><time>2026-04-28T15:15:03.007Z</time></trkpt><trkpt lat="40.32373837517582" lon="9.439869766001895"><ele>228.33333333333331</ele><time>2026-04-28T15:15:04.007Z</time></trkpt><trkpt lat="40.32360961670225" lon="9.439649419015913"><ele>228.0</ele><time>2026-04-28T15:15:05.007Z</time></trkpt><trkpt lat="40.323440325268585" lon="9.439481571436469"><ele>228.0</ele><time>2026-04-28T15:15:06.007Z</time></trkpt><trkpt lat="40.323246248737064" lon="9.439375253476177"><ele>228.0</ele><time>2026-04-28T15:15:07.007Z</time></trkpt><trkpt lat="40.32305388953553" lon="9.439303712799619"><ele>228.0</ele><time>2026-04-28T15:15:08.007Z</time></trkpt><trkpt lat="40.32289421019501" lon="9.439174753953655"><ele>228.33333333333331</ele><time>2026-04-28T15:15:09.007Z</time></trkpt><trkpt lat="40.322756400136186" lon="9.438968929286148"><ele>228.66666666666666</ele><time>2026-04-28T15:15:10.007Z</time></trkpt><trkpt lat="40.32262442833484" lon="9.43874539037272"><ele>229.0</ele><time>2026-04-28T15:15:11.007Z</time></trkpt><trkpt lat="40.322488805804674" lon="9.438515440976113"><ele>229.0</ele><time>2026-04-28T15:15:12.007Z</time></trkpt><trkpt lat="40.3223401082085" lon="9.438295077582815"><ele>229.0</ele><time>2026-04-28T15:15:13.007Z</time></trkpt><trkpt lat="40.322175302422885" lon="9.438092655211364"><ele>224.5</ele><time>2026-04-28T15:15:14.007Z</time></trkpt><trkpt lat="40.321990097566214" lon="9.437911592671888"><ele>220.0</ele><time>2026-04-28T15:15:15.007Z</time></trkpt><trkpt lat="40.32180237609895" lon="9.437738537757975"><ele>220.0</ele><time>2026-04-28T15:15:16.007Z</time></trkpt><trkpt lat="40.32163320013344" lon="9.437532657334899"><ele>220.0</ele><time>2026-04-28T15:15:17.007Z</time></trkpt><trkpt lat="40.32147804481243" lon="9.437309030536131"><ele>218.0</ele><time>2026-04-28T15:15:18.007Z</time></trkpt><trkpt lat="40.321344430244345" lon="9.437055532786394"><ele>216.0</ele><time>2026-04-28T15:15:19.007Z</time></trkpt><trkpt lat="40.321203321740306" lon="9.436810282697534"><ele>216.0</ele><time>2026-04-28T15:15:20.007Z</time></trkpt><trkpt lat="40.32106271352842" lon="9.436562880922912"><ele>216.0</ele><time>2026-04-28T15:15:21.007Z</time></trkpt><trkpt lat="40.32091731919917" lon="9.436315215506907"><ele>217.5</ele><time>2026-04-28T15:15:22.007Z</time></trkpt><trkpt lat="40.32076523834014" lon="9.43606448305465"><ele>219.0</ele><time>2026-04-28T15:15:23.007Z</time></trkpt><trkpt lat="40.320610852278946" lon="9.435807603932789"><ele>216.5</ele><time>2026-04-28T15:15:24.007Z</time></trkpt><trkpt lat="40.320454694293254" lon="9.435544347368193"><ele>214.0</ele><time>2026-04-28T15:15:25.007Z</time></trkpt><trkpt lat="40.320297425644" lon="9.43527583703461"><ele>214.0</ele><time>2026-04-28T15:15:26.007Z</time></trkpt><trkpt lat="40.320141546951305" lon="9.435010425341318"><ele>214.0</ele><time>2026-04-28T15:15:27.007Z</time></trkpt><trkpt lat="40.31998176864471" lon="9.434743142150742"><ele>215.5</ele><time>2026-04-28T15:15:28.007Z</time></trkpt><trkpt lat="40.31983104878704" lon="9.434473163504176"><ele>217.0</ele><time>2026-04-28T15:15:29.007Z</time></trkpt><trkpt lat="40.31968189356666" lon="9.434205274365915"><ele>215.0</ele><time>2026-04-28T15:15:30.007Z</time></trkpt><trkpt lat="40.31953351984639" lon="9.433940105957927"><ele>213.0</ele><time>2026-04-28T15:15:31.007Z</time></trkpt><trkpt lat="40.31938493331305" lon="9.433678906309611"><ele>213.0</ele><time>2026-04-28T15:15:32.007Z</time></trkpt><trkpt lat="40.3192355203074" lon="9.433419722826926"><ele>213.0</ele><time>2026-04-28T15:15:33.007Z</time></trkpt><trkpt lat="40.319088767456435" lon="9.43316237508919"><ele>215.5</ele><time>2026-04-28T15:15:34.007Z</time></trkpt><trkpt lat="40.31894166371619" lon="9.432902546469268"><ele>218.0</ele><time>2026-04-28T15:15:35.007Z</time></trkpt><trkpt lat="40.3188016912344" lon="9.432640036940889"><ele>213.0</ele><time>2026-04-28T15:15:36.007Z</time></trkpt><trkpt lat="40.3186872145347" lon="9.432363494058116"><ele>208.0</ele><time>2026-04-28T15:15:37.007Z</time></trkpt><trkpt lat="40.31859737325647" lon="9.432075626049475"><ele>208.0</ele><time>2026-04-28T15:15:38.007Z</time></trkpt><trkpt lat="40.31851988919189" lon="9.431782653265467"><ele>208.0</ele><time>2026-04-28T15:15:39.007Z</time></trkpt><trkpt lat="40.31844741013275" lon="9.431487116601577"><ele>210.5</ele><time>2026-04-28T15:15:40.007Z</time></trkpt><trkpt lat="40.3183693881262" lon="9.431192089866903"><ele>213.0</ele><time>2026-04-28T15:15:41.007Z</time></trkpt><trkpt lat="40.31829275531566" lon="9.430900050164917"><ele>213.0</ele><time>2026-04-28T15:15:42.007Z</time></trkpt><trkpt lat="40.31821431106187" lon="9.430613668682073"><ele>213.0</ele><time>2026-04-28T15:15:43.007Z</time></trkpt><trkpt lat="40.31812573701952" lon="9.430333231644335"><ele>209.0</ele><time>2026-04-28T15:15:44.006Z</time></trkpt><trkpt lat="40.31801482412955" lon="9.43006742351711"><ele>205.0</ele><time>2026-04-28T15:15:45.006Z</time></trkpt><trkpt lat="40.31788192246692" lon="9.429824201466312"><ele>207.5</ele><time>2026-04-28T15:15:46.006Z</time></trkpt><trkpt lat="40.317733547762465" lon="9.429580265626528"><ele>210.0</ele><time>2026-04-28T15:15:47.006Z</time></trkpt><trkpt lat="40.317585815332556" lon="9.42934083670152"><ele>210.0</ele><time>2026-04-28T15:15:48.006Z</time></trkpt><trkpt lat="40.31743519171498" lon="9.429096784094732"><ele>210.0</ele><time>2026-04-28T15:15:49.006Z</time></trkpt><trkpt lat="40.31728831133921" lon="9.428857298390758"><ele>206.5</ele><time>2026-04-28T15:15:50.006Z</time></trkpt><trkpt lat="40.317159299248594" lon="9.428611530834285"><ele>203.0</ele><time>2026-04-28T15:15:51.006Z</time></trkpt><trkpt lat="40.31706695018606" lon="9.428343326354414"><ele>203.0</ele><time>2026-04-28T15:15:52.006Z</time></trkpt><trkpt lat="40.317020331209676" lon="9.428055876584338"><ele>203.0</ele><time>2026-04-28T15:15:53.006Z</time></trkpt><trkpt lat="40.31697490913902" lon="9.427769154722563"><ele>203.0</ele><time>2026-04-28T15:15:54.006Z</time></trkpt><trkpt lat="40.31689134379142" lon="9.427500502816743"><ele>203.33333333333334</ele><time>2026-04-28T15:15:55.006Z</time></trkpt><trkpt lat="40.316771503672086" lon="9.427250686292929"><ele>203.66666666666669</ele><time>2026-04-28T15:15:56.006Z</time></trkpt><trkpt lat="40.316643065064795" lon="9.42702002091163"><ele>204.0</ele><time>2026-04-28T15:15:57.006Z</time></trkpt><trkpt lat="40.31651184533228" lon="9.426784621472951"><ele>203.0</ele><time>2026-04-28T15:15:58.006Z</time></trkpt><trkpt lat="40.316388779538315" lon="9.426545379172738"><ele>202.0</ele><time>2026-04-28T15:15:59.006Z</time></trkpt><trkpt lat="40.31627022544955" lon="9.426301626333869"><ele>201.0</ele><time>2026-04-28T15:16:00.006Z</time></trkpt><trkpt lat="40.31618112521199" lon="9.426047773775966"><ele>201.0</ele><time>2026-04-28T15:16:01.006Z</time></trkpt><trkpt lat="40.31613171716379" lon="9.425771836457484"><ele>201.0</ele><time>2026-04-28T15:16:02.006Z</time></trkpt><trkpt lat="40.31611343770862" lon="9.425480012170661"><ele>201.0</ele><time>2026-04-28T15:16:03.006Z</time></trkpt><trkpt lat="40.31612214538357" lon="9.425181993466971"><ele>201.0</ele><time>2026-04-28T15:16:04.006Z</time></trkpt><trkpt lat="40.31614513766366" lon="9.424883921215274"><ele>201.0</ele><time>2026-04-28T15:16:05.006Z</time></trkpt><trkpt lat="40.316171418717175" lon="9.424590510620554"><ele>200.0</ele><time>2026-04-28T15:16:06.006Z</time></trkpt><trkpt lat="40.316190660868166" lon="9.424297605244494"><ele>199.0</ele><time>2026-04-28T15:16:07.006Z</time></trkpt><trkpt lat="40.316204124246696" lon="9.42400297003019"><ele>198.0</ele><time>2026-04-28T15:16:08.008Z</time></trkpt><trkpt lat="40.31622256209502" lon="9.423698646707507"><ele>197.5</ele><time>2026-04-28T15:16:09.007Z</time></trkpt><trkpt lat="40.31624466173338" lon="9.423374016915865"><ele>197.0</ele><time>2026-04-28T15:16:10.007Z</time></trkpt><trkpt lat="40.31627381887844" lon="9.423021511454156"><ele>197.5</ele><time>2026-04-28T15:16:11.008Z</time></trkpt><trkpt lat="40.316300453608065" lon="9.422645087708805"><ele>198.0</ele><time>2026-04-28T15:16:12.008Z</time></trkpt><trkpt lat="40.31632358197994" lon="9.422227910252612"><ele>199.0</ele><time>2026-04-28T15:16:13.008Z</time></trkpt><trkpt lat="40.31635021866295" lon="9.421774848934977"><ele>200.0</ele><time>2026-04-28T15:16:14.008Z</time></trkpt><trkpt lat="40.316395564976006" lon="9.421298353372327"><ele>201.5</ele><time>2026-04-28T15:16:15.008Z</time></trkpt><trkpt lat="40.31643958722044" lon="9.420782341397056"><ele>203.0</ele><time>2026-04-28T15:16:16.008Z</time></trkpt><trkpt lat="40.316474789235166" lon="9.420229978016657"><ele>205.5</ele><time>2026-04-28T15:16:17.008Z</time></trkpt><trkpt lat="40.31651470620089" lon="9.419644477958267"><ele>208.0</ele><time>2026-04-28T15:16:18.008Z</time></trkpt><trkpt lat="40.316560909888" lon="9.41902594819147"><ele>208.0</ele><time>2026-04-28T15:16:19.008Z</time></trkpt><trkpt lat="40.31660259445603" lon="9.418370212627686"><ele>210.0</ele><time>2026-04-28T15:16:20.008Z</time></trkpt><trkpt lat="40.316643970286954" lon="9.417702421509514"><ele>210.0</ele><time>2026-04-28T15:16:21.008Z</time></trkpt><trkpt lat="40.31668076325329" lon="9.417098641283365"><ele>210.0</ele><time>2026-04-28T15:16:22.008Z</time></trkpt><trkpt lat="40.31670813789522" lon="9.41654856095744"><ele>210.0</ele><time>2026-04-28T15:16:23.008Z</time></trkpt><trkpt lat="40.31674304869369" lon="9.416041734817142"><ele>210.5</ele><time>2026-04-28T15:16:24.008Z</time></trkpt><trkpt lat="40.3167724454617" lon="9.41556820856126"><ele>211.0</ele><time>2026-04-28T15:16:25.008Z</time></trkpt><trkpt lat="40.316786208911914" lon="9.415125820822505"><ele>214.0</ele><time>2026-04-28T15:16:26.008Z</time></trkpt><trkpt lat="40.316757699145064" lon="9.414692894617174"><ele>217.0</ele><time>2026-04-28T15:16:27.008Z</time></trkpt><trkpt lat="40.31668893782366" lon="9.41423634312088"><ele>221.5</ele><time>2026-04-28T15:16:28.008Z</time></trkpt><trkpt lat="40.316602243146704" lon="9.41375716137496"><ele>226.0</ele><time>2026-04-28T15:16:29.008Z</time></trkpt><trkpt lat="40.31651301706777" lon="9.413252021681302"><ele>227.5</ele><time>2026-04-28T15:16:30.008Z</time></trkpt><trkpt lat="40.316422279435905" lon="9.412711323097955"><ele>229.0</ele><time>2026-04-28T15:16:31.008Z</time></trkpt><trkpt lat="40.31632498440611" lon="9.412138108374698"><ele>230.5</ele><time>2026-04-28T15:16:32.008Z</time></trkpt><trkpt lat="40.31622967618292" lon="9.411579155447917"><ele>232.0</ele><time>2026-04-28T15:16:33.008Z</time></trkpt><trkpt lat="40.3161461525769" lon="9.411091945303411"><ele>233.0</ele><time>2026-04-28T15:16:34.008Z</time></trkpt><trkpt lat="40.31607311015464" lon="9.410660602507855"><ele>234.0</ele><time>2026-04-28T15:16:35.008Z</time></trkpt><trkpt lat="40.316009129077166" lon="9.410280719398155"><ele>235.0</ele><time>2026-04-28T15:16:36.008Z</time></trkpt><trkpt lat="40.31595818878121" lon="9.409956821263675"><ele>236.0</ele><time>2026-04-28T15:16:37.007Z</time></trkpt><trkpt lat="40.31590721423557" lon="9.409674296273552"><ele>236.33333333333334</ele><time>2026-04-28T15:16:38.007Z</time></trkpt><trkpt lat="40.315826125348" lon="9.409418245753207"><ele>236.66666666666669</ele><time>2026-04-28T15:16:39.007Z</time></trkpt><trkpt lat="40.315721385981625" lon="9.409197962351964"><ele>237.0</ele><time>2026-04-28T15:16:40.007Z</time></trkpt><trkpt lat="40.31560545400322" lon="9.408997012393868"><ele>235.66666666666669</ele><time>2026-04-28T15:16:41.007Z</time></trkpt><trkpt lat="40.315496845005995" lon="9.408796532066594"><ele>234.33333333333334</ele><time>2026-04-28T15:16:42.007Z</time></trkpt><trkpt lat="40.315389919773985" lon="9.408596648102655"><ele>233.0</ele><time>2026-04-28T15:16:43.007Z</time></trkpt><trkpt lat="40.31528843769209" lon="9.408400545563756"><ele>233.0</ele><time>2026-04-28T15:16:44.007Z</time></trkpt><trkpt lat="40.31519331978645" lon="9.408198475678757"><ele>233.0</ele><time>2026-04-28T15:16:45.007Z</time></trkpt><trkpt lat="40.31509385955687" lon="9.408001975776967"><ele>233.0</ele><time>2026-04-28T15:16:46.007Z</time></trkpt><trkpt lat="40.31499517629729" lon="9.407806573868749"><ele>234.33333333333334</ele><time>2026-04-28T15:16:47.007Z</time></trkpt><trkpt lat="40.314894780608334" lon="9.407615635195569"><ele>235.66666666666669</ele><time>2026-04-28T15:16:48.007Z</time></trkpt><trkpt lat="40.314795871376056" lon="9.407411930013149"><ele>237.0</ele><time>2026-04-28T15:16:49.007Z</time></trkpt><trkpt lat="40.31468589060799" lon="9.407199716873635"><ele>235.0</ele><time>2026-04-28T15:16:50.007Z</time></trkpt><trkpt lat="40.31457726860463" lon="9.40698362667612"><ele>233.0</ele><time>2026-04-28T15:16:51.007Z</time></trkpt><trkpt lat="40.314472633838264" lon="9.40676350414262"><ele>231.0</ele><time>2026-04-28T15:16:52.007Z</time></trkpt><trkpt lat="40.31436434704698" lon="9.406554749200263"><ele>231.0</ele><time>2026-04-28T15:16:53.007Z</time></trkpt><trkpt lat="40.31425586356231" lon="9.406347356486622"><ele>231.0</ele><time>2026-04-28T15:16:54.007Z</time></trkpt><trkpt lat="40.314146486663404" lon="9.40612246362962"><ele>231.0</ele><time>2026-04-28T15:16:55.007Z</time></trkpt><trkpt lat="40.3140313978326" lon="9.405893903362125"><ele>233.0</ele><time>2026-04-28T15:16:56.007Z</time></trkpt><trkpt lat="40.31389518604112" lon="9.405645459430941"><ele>235.0</ele><time>2026-04-28T15:16:57.007Z</time></trkpt><trkpt lat="40.313745794082074" lon="9.405361709349265"><ele>236.0</ele><time>2026-04-28T15:16:58.007Z</time></trkpt><trkpt lat="40.31357869210174" lon="9.405040482883596"><ele>237.0</ele><time>2026-04-28T15:16:59.007Z</time></trkpt><trkpt lat="40.31340461326497" lon="9.404673426390199"><ele>238.0</ele><time>2026-04-28T15:17:00.007Z</time></trkpt><trkpt lat="40.313207265670066" lon="9.40428287891125"><ele>239.0</ele><time>2026-04-28T15:17:01.007Z</time></trkpt><trkpt lat="40.31299254044889" lon="9.403868869403778"><ele>240.5</ele><time>2026-04-28T15:17:02.007Z</time></trkpt><trkpt lat="40.31276269863744" lon="9.403420387514693"><ele>242.0</ele><time>2026-04-28T15:17:03.007Z</time></trkpt><trkpt lat="40.312512757786585" lon="9.402935327046425"><ele>245.0</ele><time>2026-04-28T15:17:04.007Z</time></trkpt><trkpt lat="40.31226003397293" lon="9.402446937826177"><ele>246.0</ele><time>2026-04-28T15:17:05.007Z</time></trkpt><trkpt lat="40.31201231636472" lon="9.4019739509855"><ele>247.0</ele><time>2026-04-28T15:17:06.007Z</time></trkpt><trkpt lat="40.31179616333844" lon="9.401536586449014"><ele>251.0</ele><time>2026-04-28T15:17:07.007Z</time></trkpt><trkpt lat="40.31159983539794" lon="9.401131049730203"><ele>255.0</ele><time>2026-04-28T15:17:08.007Z</time></trkpt><trkpt lat="40.311412524210965" lon="9.400753983905282"><ele>254.0</ele><time>2026-04-28T15:17:09.007Z</time></trkpt><trkpt lat="40.31123349194569" lon="9.400392893822502"><ele>253.0</ele><time>2026-04-28T15:17:10.007Z</time></trkpt><trkpt lat="40.311062671765534" lon="9.400053085497818"><ele>253.0</ele><time>2026-04-28T15:17:11.007Z</time></trkpt><trkpt lat="40.310895214253144" lon="9.399720591202227"><ele>253.0</ele><time>2026-04-28T15:17:12.007Z</time></trkpt><trkpt lat="40.31073089799176" lon="9.399395891186568"><ele>252.5</ele><time>2026-04-28T15:17:13.007Z</time></trkpt><trkpt lat="40.310570600223095" lon="9.399079556233463"><ele>252.0</ele><time>2026-04-28T15:17:14.007Z</time></trkpt><trkpt lat="40.310417033036565" lon="9.398771568520335"><ele>254.0</ele><time>2026-04-28T15:17:15.007Z</time></trkpt><trkpt lat="40.31027467675354" lon="9.398486658142811"><ele>256.0</ele><time>2026-04-28T15:17:16.007Z</time></trkpt><trkpt lat="40.31014043439529" lon="9.398222869459932"><ele>257.3333333333333</ele><time>2026-04-28T15:17:17.007Z</time></trkpt><trkpt lat="40.31001724318342" lon="9.397983513904398"><ele>258.6666666666667</ele><time>2026-04-28T15:17:18.007Z</time></trkpt><trkpt lat="40.30990430452623" lon="9.397762669990302"><ele>260.0</ele><time>2026-04-28T15:17:19.007Z</time></trkpt><trkpt lat="40.309826750430844" lon="9.397551245875603"><ele>260.0</ele><time>2026-04-28T15:17:20.007Z</time></trkpt><trkpt lat="40.309808784330656" lon="9.39729628623558"><ele>260.0</ele><time>2026-04-28T15:17:21.007Z</time></trkpt><trkpt lat="40.30983538419607" lon="9.397021676703067"><ele>260.0</ele><time>2026-04-28T15:17:22.007Z</time></trkpt><trkpt lat="40.30989325459457" lon="9.39676040104007"><ele>262.33333333333337</ele><time>2026-04-28T15:17:23.007Z</time></trkpt><trkpt lat="40.30995308150393" lon="9.396525941794406"><ele>264.6666666666667</ele><time>2026-04-28T15:17:24.007Z</time></trkpt><trkpt lat="40.31000859941347" lon="9.396302345180645"><ele>267.0</ele><time>2026-04-28T15:17:25.007Z</time></trkpt><trkpt lat="40.3100453921287" lon="9.396103769420257"><ele>269.6666666666667</ele><time>2026-04-28T15:17:26.007Z</time></trkpt><trkpt lat="40.31002265786291" lon="9.395919579985161"><ele>272.33333333333337</ele><time>2026-04-28T15:17:27.007Z</time></trkpt><trkpt lat="40.30991790559503" lon="9.39575737693657"><ele>275.0</ele><time>2026-04-28T15:17:28.007Z</time></trkpt><trkpt lat="40.30976747231029" lon="9.39561843774571"><ele>275.0</ele><time>2026-04-28T15:17:29.007Z</time></trkpt><trkpt lat="40.309583762431515" lon="9.395483010534239"><ele>275.0</ele><time>2026-04-28T15:17:30.007Z</time></trkpt><trkpt lat="40.30942554147551" lon="9.395289246153231"><ele>275.0</ele><time>2026-04-28T15:17:31.007Z</time></trkpt><trkpt lat="40.30932398300276" lon="9.395035829661184"><ele>275.0</ele><time>2026-04-28T15:17:32.007Z</time></trkpt><trkpt lat="40.30925633016964" lon="9.394758732683671"><ele>275.0</ele><time>2026-04-28T15:17:33.007Z</time></trkpt><trkpt lat="40.309188038043644" lon="9.394476079243523"><ele>275.0</ele><time>2026-04-28T15:17:34.007Z</time></trkpt><trkpt lat="40.30911480317622" lon="9.394206084902631"><ele>279.0</ele><time>2026-04-28T15:17:35.007Z</time></trkpt><trkpt lat="40.309041081607305" lon="9.393963430626862"><ele>283.0</ele><time>2026-04-28T15:17:36.007Z</time></trkpt><trkpt lat="40.30898399255678" lon="9.393742126184245"><ele>287.0</ele><time>2026-04-28T15:17:37.007Z</time></trkpt><trkpt lat="40.30895487054841" lon="9.393530123720751"><ele>288.0</ele><time>2026-04-28T15:17:38.007Z</time></trkpt><trkpt lat="40.30897565273431" lon="9.393316338734014"><ele>289.0</ele><time>2026-04-28T15:17:39.007Z</time></trkpt><trkpt lat="40.30905615183395" lon="9.393121607305831"><ele>290.0</ele><time>2026-04-28T15:17:40.007Z</time></trkpt><trkpt lat="40.309181572930086" lon="9.39295949673744"><ele>287.33333333333337</ele><time>2026-04-28T15:17:41.007Z</time></trkpt><trkpt lat="40.30933870284813" lon="9.392822642359132"><ele>284.6666666666667</ele><time>2026-04-28T15:17:42.007Z</time></trkpt><trkpt lat="40.30951035156634" lon="9.39269347096682"><ele>282.0</ele><time>2026-04-28T15:17:43.007Z</time></trkpt><trkpt lat="40.30965841168551" lon="9.392535287705993"><ele>286.6666666666667</ele><time>2026-04-28T15:17:44.007Z</time></trkpt><trkpt lat="40.30978589829146" lon="9.392343340955742"><ele>291.33333333333337</ele><time>2026-04-28T15:17:45.007Z</time></trkpt><trkpt lat="40.30987931767578" lon="9.392114493265382"><ele>296.0</ele><time>2026-04-28T15:17:46.007Z</time></trkpt><trkpt lat="40.30992761882188" lon="9.391861783710336"><ele>296.0</ele><time>2026-04-28T15:17:47.007Z</time></trkpt><trkpt lat="40.309946149874975" lon="9.39159727892736"><ele>296.0</ele><time>2026-04-28T15:17:48.007Z</time></trkpt><trkpt lat="40.30993301581441" lon="9.391322740533152"><ele>296.0</ele><time>2026-04-28T15:17:49.007Z</time></trkpt><trkpt lat="40.309881201841534" lon="9.391050745537559"><ele>295.33333333333337</ele><time>2026-04-28T15:17:50.007Z</time></trkpt><trkpt lat="40.30981263187077" lon="9.390793572056308"><ele>294.6666666666667</ele><time>2026-04-28T15:17:51.007Z</time></trkpt><trkpt lat="40.30975009219025" lon="9.39053846040219"><ele>294.0</ele><time>2026-04-28T15:17:52.007Z</time></trkpt><trkpt lat="40.30972715001843" lon="9.390276484220944"><ele>297.3333333333333</ele><time>2026-04-28T15:17:53.007Z</time></trkpt><trkpt lat="40.30974554152263" lon="9.390018673559233"><ele>300.66666666666663</ele><time>2026-04-28T15:17:54.007Z</time></trkpt><trkpt lat="40.30978994082074" lon="9.38975328920579"><ele>304.0</ele><time>2026-04-28T15:17:55.007Z</time></trkpt><trkpt lat="40.309862329295576" lon="9.389482039676565"><ele>304.0</ele><time>2026-04-28T15:17:56.007Z</time></trkpt><trkpt lat="40.30995643548915" lon="9.38920887272346"><ele>304.0</ele><time>2026-04-28T15:17:57.007Z</time></trkpt><trkpt lat="40.31005240932553" lon="9.388925185299954"><ele>302.0</ele><time>2026-04-28T15:17:58.007Z</time></trkpt><trkpt lat="40.31014627737665" lon="9.388637415679746"><ele>300.0</ele><time>2026-04-28T15:17:59.007Z</time></trkpt><trkpt lat="40.31021849301094" lon="9.388349841533172"><ele>300.0</ele><time>2026-04-28T15:18:00.007Z</time></trkpt><trkpt lat="40.31026468875153" lon="9.388045292066273"><ele>300.0</ele><time>2026-04-28T15:18:01.007Z</time></trkpt><trkpt lat="40.310296569722176" lon="9.38773011289793"><ele>302.0</ele><time>2026-04-28T15:18:02.007Z</time></trkpt><trkpt lat="40.31031951141746" lon="9.387408680106168"><ele>304.0</ele><time>2026-04-28T15:18:03.007Z</time></trkpt><trkpt lat="40.31033243681063" lon="9.38708726277744"><ele>305.0</ele><time>2026-04-28T15:18:04.007Z</time></trkpt><trkpt lat="40.31034864282837" lon="9.386765342003661"><ele>306.0</ele><time>2026-04-28T15:18:05.007Z</time></trkpt><trkpt lat="40.31036361211695" lon="9.38643853071475"><ele>307.0</ele><time>2026-04-28T15:18:06.007Z</time></trkpt><trkpt lat="40.31037961545115" lon="9.386108326690746"><ele>308.0</ele><time>2026-04-28T15:18:07.007Z</time></trkpt><trkpt lat="40.31039621390366" lon="9.385784700227395"><ele>311.0</ele><time>2026-04-28T15:18:08.007Z</time></trkpt><trkpt lat="40.31039132180724" lon="9.385470804484271"><ele>314.0</ele><time>2026-04-28T15:18:09.007Z</time></trkpt><trkpt lat="40.31032518215799" lon="9.385168054772395"><ele>314.0</ele><time>2026-04-28T15:18:10.007Z</time></trkpt><trkpt lat="40.31019655959856" lon="9.384900690354808"><ele>314.0</ele><time>2026-04-28T15:18:11.007Z</time></trkpt><trkpt lat="40.31004739990992" lon="9.384635741353247"><ele>318.0</ele><time>2026-04-28T15:18:12.007Z</time></trkpt><trkpt lat="40.30997193762976" lon="9.384312013427989"><ele>322.0</ele><time>2026-04-28T15:18:13.007Z</time></trkpt><trkpt lat="40.30992727476594" lon="9.383973532051286"><ele>325.0</ele><time>2026-04-28T15:18:14.008Z</time></trkpt><trkpt lat="40.309884961900764" lon="9.383659587645564"><ele>328.0</ele><time>2026-04-28T15:18:15.008Z</time></trkpt><trkpt lat="40.30984693623653" lon="9.383377044009583"><ele>328.0</ele><time>2026-04-28T15:18:16.008Z</time></trkpt><trkpt lat="40.30977225239181" lon="9.383129275493996"><ele>328.0</ele><time>2026-04-28T15:18:17.008Z</time></trkpt><trkpt lat="40.30962612109172" lon="9.382917487620931"><ele>328.0</ele><time>2026-04-28T15:18:18.008Z</time></trkpt><trkpt lat="40.309482780314895" lon="9.382719175746702"><ele>327.3333333333333</ele><time>2026-04-28T15:18:19.008Z</time></trkpt><trkpt lat="40.30938947921074" lon="9.382471420492541"><ele>326.6666666666667</ele><time>2026-04-28T15:18:20.008Z</time></trkpt><trkpt lat="40.309323447685266" lon="9.382206243392494"><ele>326.0</ele><time>2026-04-28T15:18:21.008Z</time></trkpt><trkpt lat="40.309253411631715" lon="9.381945133731326"><ele>328.33333333333337</ele><time>2026-04-28T15:18:22.008Z</time></trkpt><trkpt lat="40.30916082375819" lon="9.381701188856455"><ele>330.6666666666667</ele><time>2026-04-28T15:18:23.008Z</time></trkpt><trkpt lat="40.30902985759271" lon="9.381489168224126"><ele>333.0</ele><time>2026-04-28T15:18:24.008Z</time></trkpt><trkpt lat="40.30886487340285" lon="9.38130654304975"><ele>334.0</ele><time>2026-04-28T15:18:25.008Z</time></trkpt><trkpt lat="40.30868883895548" lon="9.381126408660394"><ele>335.0</ele><time>2026-04-28T15:18:26.008Z</time></trkpt><trkpt lat="40.308517348208646" lon="9.380925980803497"><ele>335.0</ele><time>2026-04-28T15:18:27.008Z</time></trkpt><trkpt lat="40.30835510719379" lon="9.380725859502952"><ele>335.0</ele><time>2026-04-28T15:18:28.008Z</time></trkpt><trkpt lat="40.30821530212547" lon="9.38053109838383"><ele>335.0</ele><time>2026-04-28T15:18:29.008Z</time></trkpt><trkpt lat="40.308124564116525" lon="9.380312232696665"><ele>334.0</ele><time>2026-04-28T15:18:30.008Z</time></trkpt><trkpt lat="40.30807679479054" lon="9.380070519007669"><ele>333.0</ele><time>2026-04-28T15:18:31.008Z</time></trkpt><trkpt lat="40.30805442745295" lon="9.379803110258349"><ele>332.0</ele><time>2026-04-28T15:18:32.008Z</time></trkpt><trkpt lat="40.30803804343961" lon="9.37952363686193"><ele>334.0</ele><time>2026-04-28T15:18:33.008Z</time></trkpt><trkpt lat="40.308026259725715" lon="9.379233233241582"><ele>336.0</ele><time>2026-04-28T15:18:34.008Z</time></trkpt><trkpt lat="40.30801044999177" lon="9.378942691870806"><ele>338.0</ele><time>2026-04-28T15:18:35.008Z</time></trkpt><trkpt lat="40.30798970589688" lon="9.378662591859326"><ele>339.6666666666667</ele><time>2026-04-28T15:18:36.008Z</time></trkpt><trkpt lat="40.307958147112906" lon="9.378406482246723"><ele>341.3333333333333</ele><time>2026-04-28T15:18:37.008Z</time></trkpt><trkpt lat="40.30787433809621" lon="9.378186991564991"><ele>343.0</ele><time>2026-04-28T15:18:38.008Z</time></trkpt><trkpt lat="40.30775686550458" lon="9.378034311473176"><ele>343.0</ele><time>2026-04-28T15:18:39.008Z</time></trkpt><trkpt lat="40.30762584778092" lon="9.37797529757782"><ele>343.0</ele><time>2026-04-28T15:18:40.008Z</time></trkpt><trkpt lat="40.307444711438144" lon="9.377988406963006"><ele>343.0</ele><time>2026-04-28T15:18:41.008Z</time></trkpt><trkpt lat="40.30725081099007" lon="9.378044293157048"><ele>344.66666666666663</ele><time>2026-04-28T15:18:42.008Z</time></trkpt><trkpt lat="40.307042159473504" lon="9.378047347201193"><ele>346.3333333333333</ele><time>2026-04-28T15:18:43.008Z</time></trkpt><trkpt lat="40.3068760271894" lon="9.377979533275337"><ele>348.0</ele><time>2026-04-28T15:18:44.008Z</time></trkpt><trkpt lat="40.306776274813075" lon="9.37783575036474"><ele>348.0</ele><time>2026-04-28T15:18:45.008Z</time></trkpt><trkpt lat="40.30674015929283" lon="9.377612987603342"><ele>348.0</ele><time>2026-04-28T15:18:46.008Z</time></trkpt><trkpt lat="40.30673019981194" lon="9.37735347933696"><ele>348.0</ele><time>2026-04-28T15:18:47.008Z</time></trkpt><trkpt lat="40.30671563332521" lon="9.377104569428319"><ele>345.3333333333333</ele><time>2026-04-28T15:18:48.008Z</time></trkpt><trkpt lat="40.30664336026496" lon="9.376929206683814"><ele>342.66666666666663</ele><time>2026-04-28T15:18:49.008Z</time></trkpt><trkpt lat="40.30652830597872" lon="9.37677806306938"><ele>340.0</ele><time>2026-04-28T15:18:50.008Z</time></trkpt><trkpt lat="40.30636393988181" lon="9.376681509207568"><ele>340.0</ele><time>2026-04-28T15:18:51.008Z</time></trkpt><trkpt lat="40.30616713870217" lon="9.376628775626862"><ele>340.0</ele><time>2026-04-28T15:18:52.008Z</time></trkpt><trkpt lat="40.305982416354084" lon="9.376521990241146"><ele>340.0</ele><time>2026-04-28T15:18:53.008Z</time></trkpt><trkpt lat="40.30565666961334" lon="9.376176510521168"><ele>339.3333333333333</ele><time>2026-04-28T15:18:55.008Z</time></trkpt><trkpt lat="40.305526268276594" lon="9.37595924222362"><ele>338.6666666666667</ele><time>2026-04-28T15:18:56.008Z</time></trkpt><trkpt lat="40.30542126324166" lon="9.375717706736024"><ele>338.0</ele><time>2026-04-28T15:18:57.008Z</time></trkpt><trkpt lat="40.305325505330366" lon="9.3754644134505"><ele>338.0</ele><time>2026-04-28T15:18:58.008Z</time></trkpt><trkpt lat="40.3052275829814" lon="9.375209697363761"><ele>338.0</ele><time>2026-04-28T15:18:59.008Z</time></trkpt><trkpt lat="40.3051008863951" lon="9.374987263499788"><ele>338.0</ele><time>2026-04-28T15:19:00.008Z</time></trkpt><trkpt lat="40.30494138119386" lon="9.374798771638407"><ele>333.6666666666667</ele><time>2026-04-28T15:19:01.008Z</time></trkpt><trkpt lat="40.30477307979902" lon="9.374615883580637"><ele>329.3333333333333</ele><time>2026-04-28T15:19:02.008Z</time></trkpt><trkpt lat="40.3046377357682" lon="9.374414454261078"><ele>325.0</ele><time>2026-04-28T15:19:03.008Z</time></trkpt><trkpt lat="40.30452754006394" lon="9.374216475646818"><ele>325.0</ele><time>2026-04-28T15:19:04.008Z</time></trkpt><trkpt lat="40.304382347332655" lon="9.374092248292666"><ele>325.0</ele><time>2026-04-28T15:19:05.008Z</time></trkpt><trkpt lat="40.30420643915429" lon="9.374044354564575"><ele>325.0</ele><time>2026-04-28T15:19:06.008Z</time></trkpt><trkpt lat="40.30405167805754" lon="9.373965300931387"><ele>329.0</ele><time>2026-04-28T15:19:07.008Z</time></trkpt><trkpt lat="40.30392338545624" lon="9.373845019305975"><ele>333.0</ele><time>2026-04-28T15:19:08.008Z</time></trkpt><trkpt lat="40.303846158670765" lon="9.373641051366718"><ele>337.0</ele><time>2026-04-28T15:19:09.008Z</time></trkpt><trkpt lat="40.30378558266263" lon="9.373402392451837"><ele>328.3333333333333</ele><time>2026-04-28T15:19:10.008Z</time></trkpt><trkpt lat="40.303726466428394" lon="9.373138216706511"><ele>319.6666666666667</ele><time>2026-04-28T15:19:11.008Z</time></trkpt><trkpt lat="40.30366458783437" lon="9.372877946643102"><ele>311.0</ele><time>2026-04-28T15:19:12.008Z</time></trkpt><trkpt lat="40.303603828099725" lon="9.372624697952885"><ele>311.0</ele><time>2026-04-28T15:19:13.008Z</time></trkpt><trkpt lat="40.30354209695824" lon="9.372354132154321"><ele>311.0</ele><time>2026-04-28T15:19:14.008Z</time></trkpt><trkpt lat="40.30348550975358" lon="9.372081268805443"><ele>311.0</ele><time>2026-04-28T15:19:15.008Z</time></trkpt><trkpt lat="40.30342273060314" lon="9.371816696233186"><ele>312.6666666666667</ele><time>2026-04-28T15:19:16.008Z</time></trkpt><trkpt lat="40.30336161227601" lon="9.371566992461778"><ele>314.3333333333333</ele><time>2026-04-28T15:19:17.008Z</time></trkpt><trkpt lat="40.303305728784935" lon="9.37132985023453"><ele>316.0</ele><time>2026-04-28T15:19:18.008Z</time></trkpt><trkpt lat="40.30326367553479" lon="9.371108489499354"><ele>317.3333333333333</ele><time>2026-04-28T15:19:19.008Z</time></trkpt><trkpt lat="40.303220770856186" lon="9.37090766703368"><ele>318.6666666666667</ele><time>2026-04-28T15:19:20.008Z</time></trkpt><trkpt lat="40.3031756506415" lon="9.370720433419727"><ele>320.0</ele><time>2026-04-28T15:19:21.008Z</time></trkpt><trkpt lat="40.30312804858694" lon="9.370542356548258"><ele>319.75</ele><time>2026-04-28T15:19:22.008Z</time></trkpt><trkpt lat="40.30309066316681" lon="9.370369927290028"><ele>319.5</ele><time>2026-04-28T15:19:23.008Z</time></trkpt><trkpt lat="40.303062428218915" lon="9.370200071870775"><ele>319.25</ele><time>2026-04-28T15:19:24.008Z</time></trkpt><trkpt lat="40.30305310222293" lon="9.370029846322225"><ele>319.0</ele><time>2026-04-28T15:19:25.008Z</time></trkpt><trkpt lat="40.30306680538031" lon="9.36985790454701"><ele>319.5</ele><time>2026-04-28T15:19:26.008Z</time></trkpt><trkpt lat="40.30309729801928" lon="9.369684999929401"><ele>320.0</ele><time>2026-04-28T15:19:27.008Z</time></trkpt><trkpt lat="40.303111054838396" lon="9.369509128899024"><ele>320.5</ele><time>2026-04-28T15:19:28.008Z</time></trkpt><trkpt lat="40.30308663336006" lon="9.369336014552982"><ele>321.0</ele><time>2026-04-28T15:19:29.008Z</time></trkpt><trkpt lat="40.303028352993394" lon="9.369172053806397"><ele>315.25</ele><time>2026-04-28T15:19:30.008Z</time></trkpt><trkpt lat="40.302960777079775" lon="9.369005598549583"><ele>309.5</ele><time>2026-04-28T15:19:31.008Z</time></trkpt><trkpt lat="40.302928080207444" lon="9.368826283564857"><ele>303.75</ele><time>2026-04-28T15:19:32.008Z</time></trkpt><trkpt lat="40.30294808431424" lon="9.368633102546823"><ele>298.0</ele><time>2026-04-28T15:19:33.008Z</time></trkpt><trkpt lat="40.30300794000272" lon="9.368445784280777"><ele>298.0</ele><time>2026-04-28T15:19:34.008Z</time></trkpt><trkpt lat="40.30307208346931" lon="9.368249420791114"><ele>298.0</ele><time>2026-04-28T15:19:35.008Z</time></trkpt><trkpt lat="40.30312531500463" lon="9.368049772617118"><ele>298.0</ele><time>2026-04-28T15:19:36.008Z</time></trkpt><trkpt lat="40.30315606214921" lon="9.367834805840026"><ele>305.3333333333333</ele><time>2026-04-28T15:19:37.008Z</time></trkpt><trkpt lat="40.30314561303815" lon="9.367605732468322"><ele>312.6666666666667</ele><time>2026-04-28T15:19:38.008Z</time></trkpt><trkpt lat="40.3031171446578" lon="9.367380791263924"><ele>320.0</ele><time>2026-04-28T15:19:39.008Z</time></trkpt><trkpt lat="40.30308639050849" lon="9.367162908573095"><ele>312.33333333333337</ele><time>2026-04-28T15:19:40.008Z</time></trkpt><trkpt lat="40.30305557207773" lon="9.366945147426744"><ele>304.6666666666667</ele><time>2026-04-28T15:19:41.008Z</time></trkpt><trkpt lat="40.303024032716806" lon="9.36671796494295"><ele>297.0</ele><time>2026-04-28T15:19:42.008Z</time></trkpt><trkpt lat="40.30298579353492" lon="9.366508883901254"><ele>297.3333333333333</ele><time>2026-04-28T15:19:43.008Z</time></trkpt><trkpt lat="40.30294333666211" lon="9.366295625332285"><ele>297.66666666666663</ele><time>2026-04-28T15:19:44.008Z</time></trkpt><trkpt lat="40.30290331772346" lon="9.366070695063623"><ele>298.0</ele><time>2026-04-28T15:19:45.008Z</time></trkpt><trkpt lat="40.30286629400982" lon="9.365851247763937"><ele>298.0</ele><time>2026-04-28T15:19:46.008Z</time></trkpt><trkpt lat="40.30280337641689" lon="9.365619959904231"><ele>298.0</ele><time>2026-04-28T15:19:47.008Z</time></trkpt><trkpt lat="40.30275237673453" lon="9.365378628917632"><ele>298.0</ele><time>2026-04-28T15:19:48.008Z</time></trkpt><trkpt lat="40.302703415769464" lon="9.365145766375667"><ele>297.3333333333333</ele><time>2026-04-28T15:19:49.008Z</time></trkpt><trkpt lat="40.30262776850655" lon="9.364910424471242"><ele>296.6666666666667</ele><time>2026-04-28T15:19:50.008Z</time></trkpt><trkpt lat="40.302536860883535" lon="9.364703820992048"><ele>296.0</ele><time>2026-04-28T15:19:51.008Z</time></trkpt><trkpt lat="40.302445311716575" lon="9.36451644040696"><ele>293.75</ele><time>2026-04-28T15:19:52.008Z</time></trkpt><trkpt lat="40.30237259798733" lon="9.364364807088002"><ele>291.5</ele><time>2026-04-28T15:19:53.008Z</time></trkpt><trkpt lat="40.30230269507586" lon="9.36423307606454"><ele>289.25</ele><time>2026-04-28T15:19:54.008Z</time></trkpt><trkpt lat="40.30223980454498" lon="9.364105680954292"><ele>287.0</ele><time>2026-04-28T15:19:55.008Z</time></trkpt><trkpt lat="40.30371628363322" lon="9.36399625388472"><ele>295.0</ele><time>2026-04-28T15:19:56.008Z</time></trkpt><trkpt lat="40.30382612799657" lon="9.363857741989554"><ele>303.0</ele><time>2026-04-28T15:19:57.008Z</time></trkpt><trkpt lat="40.30389754838014" lon="9.36373046771296"><ele>311.0</ele><time>2026-04-28T15:19:58.008Z</time></trkpt><trkpt lat="40.30379873545378" lon="9.363421180628206"><ele>311.0</ele><time>2026-04-28T15:20:00.007Z</time></trkpt><trkpt lat="40.303649128421085" lon="9.363287228742696"><ele>311.0</ele><time>2026-04-28T15:20:01.007Z</time></trkpt><trkpt lat="40.303491693278374" lon="9.363165335284316"><ele>311.0</ele><time>2026-04-28T15:20:02.007Z</time></trkpt><trkpt lat="40.303358203528276" lon="9.363044360972333"><ele>314.33333333333337</ele><time>2026-04-28T15:20:03.007Z</time></trkpt><trkpt lat="40.3032748022784" lon="9.362899956827592"><ele>317.6666666666667</ele><time>2026-04-28T15:20:04.007Z</time></trkpt><trkpt lat="40.30324002255705" lon="9.362719315130157"><ele>321.0</ele><time>2026-04-28T15:20:05.007Z</time></trkpt><trkpt lat="40.30326548080491" lon="9.362474548180684"><ele>321.0</ele><time>2026-04-28T15:20:06.007Z</time></trkpt><trkpt lat="40.30330686674779" lon="9.362232373774017"><ele>321.0</ele><time>2026-04-28T15:20:07.007Z</time></trkpt><trkpt lat="40.303340545975175" lon="9.361995287602188"><ele>321.0</ele><time>2026-04-28T15:20:08.007Z</time></trkpt><trkpt lat="40.303353247536506" lon="9.361766488866879"><ele>321.6666666666667</ele><time>2026-04-28T15:20:09.007Z</time></trkpt><trkpt lat="40.3033096080358" lon="9.361529389059235"><ele>322.33333333333337</ele><time>2026-04-28T15:20:10.007Z</time></trkpt><trkpt lat="40.30322251198034" lon="9.361284933178732"><ele>323.0</ele><time>2026-04-28T15:20:11.007Z</time></trkpt><trkpt lat="40.30313100565469" lon="9.361042233737493"><ele>318.33333333333337</ele><time>2026-04-28T15:20:12.007Z</time></trkpt><trkpt lat="40.303045158142005" lon="9.360804125939325"><ele>313.6666666666667</ele><time>2026-04-28T15:20:13.007Z</time></trkpt><trkpt lat="40.30296821720884" lon="9.360574341227318"><ele>309.0</ele><time>2026-04-28T15:20:14.007Z</time></trkpt><trkpt lat="40.302908808496525" lon="9.360360332319607"><ele>309.0</ele><time>2026-04-28T15:20:15.007Z</time></trkpt><trkpt lat="40.30288227364233" lon="9.360143769372955"><ele>309.0</ele><time>2026-04-28T15:20:16.007Z</time></trkpt><trkpt lat="40.30291960074766" lon="9.359923710023924"><ele>309.0</ele><time>2026-04-28T15:20:17.007Z</time></trkpt><trkpt lat="40.30299724948867" lon="9.35971971335368"><ele>311.0</ele><time>2026-04-28T15:20:18.007Z</time></trkpt><trkpt lat="40.303091377954686" lon="9.35953154827581"><ele>313.0</ele><time>2026-04-28T15:20:19.007Z</time></trkpt><trkpt lat="40.30331325724554" lon="9.359412339028074"><ele>315.0</ele><time>2026-04-28T15:20:20.009Z</time></trkpt><trkpt lat="40.303482348561616" lon="9.359320506577902"><ele>315.0</ele><time>2026-04-28T15:20:21.008Z</time></trkpt><trkpt lat="40.30366808509543" lon="9.359266666257408"><ele>315.0</ele><time>2026-04-28T15:20:22.008Z</time></trkpt><trkpt lat="40.303824626427094" lon="9.359228664536376"><ele>315.0</ele><time>2026-04-28T15:20:23.009Z</time></trkpt><trkpt lat="40.303953715173805" lon="9.359192864858143"><ele>318.4</ele><time>2026-04-28T15:20:24.009Z</time></trkpt><trkpt lat="40.30403222990716" lon="9.359143390788237"><ele>321.8</ele><time>2026-04-28T15:20:25.009Z</time></trkpt><trkpt lat="40.30407888959618" lon="9.359054175459052"><ele>325.20000000000005</ele><time>2026-04-28T15:20:26.009Z</time></trkpt><trkpt lat="40.3040983793343" lon="9.358937130227028"><ele>328.6</ele><time>2026-04-28T15:20:27.008Z</time></trkpt><trkpt lat="40.30407796512312" lon="9.35879925133874"><ele>332.0</ele><time>2026-04-28T15:20:28.008Z</time></trkpt><trkpt lat="40.304030810805294" lon="9.358673509560864"><ele>332.0</ele><time>2026-04-28T15:20:29.008Z</time></trkpt><trkpt lat="40.30396696212925" lon="9.358555066446192"><ele>332.0</ele><time>2026-04-28T15:20:30.009Z</time></trkpt><trkpt lat="40.303923441866296" lon="9.35843986355541"><ele>332.0</ele><time>2026-04-28T15:20:31.009Z</time></trkpt><trkpt lat="40.30391383606632" lon="9.358307175587807"><ele>332.0</ele><time>2026-04-28T15:20:32.009Z</time></trkpt><trkpt lat="40.30395364720604" lon="9.35815817056217"><ele>332.0</ele><time>2026-04-28T15:20:33.008Z</time></trkpt><trkpt lat="40.30402613763364" lon="9.358037380525989"><ele>332.40000000000003</ele><time>2026-04-28T15:20:34.008Z</time></trkpt><trkpt lat="40.304102954386956" lon="9.357941986564105"><ele>332.8</ele><time>2026-04-28T15:20:35.008Z</time></trkpt><trkpt lat="40.3041501751016" lon="9.357835095321855"><ele>333.2</ele><time>2026-04-28T15:20:36.008Z</time></trkpt><trkpt lat="40.30416954392332" lon="9.357709931939844"><ele>333.6</ele><time>2026-04-28T15:20:37.008Z</time></trkpt><trkpt lat="40.304161783842346" lon="9.357558417493465"><ele>334.0</ele><time>2026-04-28T15:20:38.008Z</time></trkpt><trkpt lat="40.304109431112835" lon="9.35738867368963"><ele>334.0</ele><time>2026-04-28T15:20:39.008Z</time></trkpt><trkpt lat="40.30404640931149" lon="9.35723123051786"><ele>334.0</ele><time>2026-04-28T15:20:40.008Z</time></trkpt><trkpt lat="40.30398782660556" lon="9.357082530856148"><ele>334.0</ele><time>2026-04-28T15:20:41.008Z</time></trkpt><trkpt lat="40.30393535056853" lon="9.35693639178399"><ele>334.0</ele><time>2026-04-28T15:20:42.008Z</time></trkpt><trkpt lat="40.303908641122966" lon="9.356790457980887"><ele>334.5</ele><time>2026-04-28T15:20:43.008Z</time></trkpt><trkpt lat="40.30393049007277" lon="9.356648799409987"><ele>335.0</ele><time>2026-04-28T15:20:44.008Z</time></trkpt><trkpt lat="40.303988977281826" lon="9.356518673413422"><ele>335.5</ele><time>2026-04-28T15:20:45.008Z</time></trkpt><trkpt lat="40.304079891818304" lon="9.356406480543033"><ele>336.0</ele><time>2026-04-28T15:20:46.008Z</time></trkpt><trkpt lat="40.30416746473036" lon="9.356287634108504"><ele>334.75</ele><time>2026-04-28T15:20:47.008Z</time></trkpt><trkpt lat="40.30425757129735" lon="9.356174836431"><ele>333.5</ele><time>2026-04-28T15:20:48.008Z</time></trkpt><trkpt lat="40.304346936626075" lon="9.3560705508408"><ele>332.25</ele><time>2026-04-28T15:20:49.008Z</time></trkpt><trkpt lat="40.304431131849576" lon="9.3559623836277"><ele>331.0</ele><time>2026-04-28T15:20:50.008Z</time></trkpt><trkpt lat="40.30450478949631" lon="9.355839247241745"><ele>331.0</ele><time>2026-04-28T15:20:51.008Z</time></trkpt><trkpt lat="40.30456136585741" lon="9.355700026703618"><ele>331.0</ele><time>2026-04-28T15:20:52.008Z</time></trkpt><trkpt lat="40.304573487681644" lon="9.355533422300635"><ele>331.0</ele><time>2026-04-28T15:20:53.008Z</time></trkpt><trkpt lat="40.30455670803769" lon="9.35535616841431"><ele>331.0</ele><time>2026-04-28T15:20:54.008Z</time></trkpt><trkpt lat="40.30452356777088" lon="9.355187380009061"><ele>329.5</ele><time>2026-04-28T15:20:55.008Z</time></trkpt><trkpt lat="40.304515750045844" lon="9.355029363578815"><ele>328.0</ele><time>2026-04-28T15:20:56.008Z</time></trkpt><trkpt lat="40.30454729618565" lon="9.354874741832836"><ele>326.5</ele><time>2026-04-28T15:20:57.008Z</time></trkpt><trkpt lat="40.304611244269644" lon="9.354741318301771"><ele>325.0</ele><time>2026-04-28T15:20:58.008Z</time></trkpt><trkpt lat="40.30468403521604" lon="9.35460488584738"><ele>329.25</ele><time>2026-04-28T15:20:59.008Z</time></trkpt><trkpt lat="40.304750848137225" lon="9.354479318142554"><ele>333.5</ele><time>2026-04-28T15:21:00.008Z</time></trkpt><trkpt lat="40.30482839933194" lon="9.354366807806704"><ele>337.75</ele><time>2026-04-28T15:21:01.008Z</time></trkpt><trkpt lat="40.30493081581066" lon="9.35426130503016"><ele>342.0</ele><time>2026-04-28T15:21:02.008Z</time></trkpt><trkpt lat="40.305044862160614" lon="9.354167647462884"><ele>342.0</ele><time>2026-04-28T15:21:03.008Z</time></trkpt><trkpt lat="40.305170249610946" lon="9.354076295721999"><ele>342.0</ele><time>2026-04-28T15:21:04.008Z</time></trkpt><trkpt lat="40.30528877327546" lon="9.353957090167748"><ele>342.0</ele><time>2026-04-28T15:21:05.008Z</time></trkpt><trkpt lat="40.305396334573985" lon="9.353816670269827"><ele>342.0</ele><time>2026-04-28T15:21:06.008Z</time></trkpt><trkpt lat="40.30549130561052" lon="9.35365841121471"><ele>346.0</ele><time>2026-04-28T15:21:07.008Z</time></trkpt><trkpt lat="40.30558393081316" lon="9.353502545231661"><ele>350.0</ele><time>2026-04-28T15:21:08.008Z</time></trkpt><trkpt lat="40.30568892411902" lon="9.353359139664354"><ele>354.0</ele><time>2026-04-28T15:21:09.008Z</time></trkpt><trkpt lat="40.30580221056944" lon="9.35323276498475"><ele>354.0</ele><time>2026-04-28T15:21:10.008Z</time></trkpt><trkpt lat="40.305926188518754" lon="9.353136995927382"><ele>354.0</ele><time>2026-04-28T15:21:11.008Z</time></trkpt><trkpt lat="40.30606849807194" lon="9.353058613024423"><ele>354.0</ele><time>2026-04-28T15:21:12.008Z</time></trkpt><trkpt lat="40.30625934494709" lon="9.352988550450794"><ele>352.0</ele><time>2026-04-28T15:21:13.008Z</time></trkpt><trkpt lat="40.30647073915743" lon="9.352938167499532"><ele>350.0</ele><time>2026-04-28T15:21:14.008Z</time></trkpt><trkpt lat="40.306687514530125" lon="9.352897849612505"><ele>348.0</ele><time>2026-04-28T15:21:15.008Z</time></trkpt><trkpt lat="40.30687927892488" lon="9.352863467557233"><ele>348.0</ele><time>2026-04-28T15:21:16.008Z</time></trkpt><trkpt lat="40.30705441542538" lon="9.352760083890526"><ele>348.0</ele><time>2026-04-28T15:21:17.008Z</time></trkpt><trkpt lat="40.30719610359851" lon="9.352550985769051"><ele>348.0</ele><time>2026-04-28T15:21:18.008Z</time></trkpt><trkpt lat="40.30732452516408" lon="9.352311219736603"><ele>351.0</ele><time>2026-04-28T15:21:19.008Z</time></trkpt><trkpt lat="40.307465253171394" lon="9.352085454527424"><ele>354.0</ele><time>2026-04-28T15:21:20.008Z</time></trkpt><trkpt lat="40.307635229419716" lon="9.35186608463903"><ele>354.0</ele><time>2026-04-28T15:21:21.008Z</time></trkpt><trkpt lat="40.30781691875113" lon="9.351668903165626"><ele>354.0</ele><time>2026-04-28T15:21:22.008Z</time></trkpt><trkpt lat="40.30800132820754" lon="9.351478602561643"><ele>357.0</ele><time>2026-04-28T15:21:23.008Z</time></trkpt><trkpt lat="40.30817092997504" lon="9.351284632985614"><ele>360.0</ele><time>2026-04-28T15:21:24.008Z</time></trkpt><trkpt lat="40.308334171701944" lon="9.351085136064109"><ele>363.0</ele><time>2026-04-28T15:21:25.008Z</time></trkpt><trkpt lat="40.30850407758215" lon="9.350884525685345"><ele>363.0</ele><time>2026-04-28T15:21:26.008Z</time></trkpt><trkpt lat="40.3086870480128" lon="9.350704890069334"><ele>363.0</ele><time>2026-04-28T15:21:27.008Z</time></trkpt><trkpt lat="40.308875331610544" lon="9.350560495999376"><ele>363.0</ele><time>2026-04-28T15:21:28.008Z</time></trkpt><trkpt lat="40.3090553229632" lon="9.350423840017728"><ele>365.0</ele><time>2026-04-28T15:21:29.008Z</time></trkpt><trkpt lat="40.30923636852604" lon="9.350288590782812"><ele>367.0</ele><time>2026-04-28T15:21:30.008Z</time></trkpt><trkpt lat="40.309403303451724" lon="9.35016351821414"><ele>369.0</ele><time>2026-04-28T15:21:31.007Z</time></trkpt><trkpt lat="40.30955713522967" lon="9.350046111012627"><ele>370.5</ele><time>2026-04-28T15:21:32.007Z</time></trkpt><trkpt lat="40.3098241298763" lon="9.349688974045268"><ele>372.0</ele><time>2026-04-28T15:21:34.007Z</time></trkpt><trkpt lat="40.30997434628231" lon="9.349529493662674"><ele>372.0</ele><time>2026-04-28T15:21:35.007Z</time></trkpt><trkpt lat="40.31014172561054" lon="9.349393925886075"><ele>372.0</ele><time>2026-04-28T15:21:36.007Z</time></trkpt><trkpt lat="40.310308822719236" lon="9.349267192511991"><ele>372.0</ele><time>2026-04-28T15:21:37.007Z</time></trkpt><trkpt lat="40.310477291970656" lon="9.34914134445925"><ele>371.6666666666667</ele><time>2026-04-28T15:21:38.007Z</time></trkpt><trkpt lat="40.310642058144026" lon="9.34900178374234"><ele>371.33333333333337</ele><time>2026-04-28T15:21:39.007Z</time></trkpt><trkpt lat="40.310800563008044" lon="9.348905834210287"><ele>371.0</ele><time>2026-04-28T15:21:40.007Z</time></trkpt><trkpt lat="40.31097593089861" lon="9.34884946631751"><ele>371.0</ele><time>2026-04-28T15:21:41.007Z</time></trkpt><trkpt lat="40.31117743882599" lon="9.348816906414552"><ele>371.0</ele><time>2026-04-28T15:21:42.007Z</time></trkpt><trkpt lat="40.31140150988825" lon="9.348720223280882"><ele>371.0</ele><time>2026-04-28T15:21:43.007Z</time></trkpt><trkpt lat="40.311590537306685" lon="9.348567188120079"><ele>375.6666666666667</ele><time>2026-04-28T15:21:44.007Z</time></trkpt><trkpt lat="40.311764394241685" lon="9.34853308438933"><ele>380.33333333333337</ele><time>2026-04-28T15:21:45.007Z</time></trkpt><trkpt lat="40.311911119620866" lon="9.348587230958817"><ele>385.0</ele><time>2026-04-28T15:21:46.007Z</time></trkpt><trkpt lat="40.312047191361124" lon="9.348746999504042"><ele>392.6666666666667</ele><time>2026-04-28T15:21:47.007Z</time></trkpt><trkpt lat="40.31218803131857" lon="9.348903879016827"><ele>400.33333333333337</ele><time>2026-04-28T15:21:48.007Z</time></trkpt><trkpt lat="40.31233071706706" lon="9.34899669297684"><ele>408.0</ele><time>2026-04-28T15:21:49.007Z</time></trkpt><trkpt lat="40.312447657940524" lon="9.348922336048592"><ele>404.33333333333337</ele><time>2026-04-28T15:21:50.007Z</time></trkpt><trkpt lat="40.31253552852525" lon="9.348726243410814"><ele>400.6666666666667</ele><time>2026-04-28T15:21:51.007Z</time></trkpt><trkpt lat="40.31261175682796" lon="9.348495723030165"><ele>397.0</ele><time>2026-04-28T15:21:52.007Z</time></trkpt><trkpt lat="40.312679571122835" lon="9.348225305897206"><ele>391.5</ele><time>2026-04-28T15:21:53.007Z</time></trkpt><trkpt lat="40.312773934136054" lon="9.347965750174666"><ele>386.0</ele><time>2026-04-28T15:21:54.007Z</time></trkpt><trkpt lat="40.31287517737712" lon="9.347692083011538"><ele>386.0</ele><time>2026-04-28T15:21:55.007Z</time></trkpt><trkpt lat="40.31297451699274" lon="9.347400526062279"><ele>386.0</ele><time>2026-04-28T15:21:56.007Z</time></trkpt><trkpt lat="40.31306538778892" lon="9.347129392811429"><ele>392.3333333333333</ele><time>2026-04-28T15:21:57.007Z</time></trkpt><trkpt lat="40.31314902682936" lon="9.346907739307401"><ele>398.66666666666663</ele><time>2026-04-28T15:21:58.007Z</time></trkpt><trkpt lat="40.31321519186491" lon="9.346732874804415"><ele>405.0</ele><time>2026-04-28T15:21:59.007Z</time></trkpt><trkpt lat="40.313298786624" lon="9.34659730439037"><ele>405.0</ele><time>2026-04-28T15:22:00.007Z</time></trkpt><trkpt lat="40.31341713996519" lon="9.346496451438194"><ele>405.0</ele><time>2026-04-28T15:22:01.007Z</time></trkpt><trkpt lat="40.313557034909316" lon="9.34639362038389"><ele>405.0</ele><time>2026-04-28T15:22:02.007Z</time></trkpt><trkpt lat="40.313704143653595" lon="9.346268119944307"><ele>404.0</ele><time>2026-04-28T15:22:03.007Z</time></trkpt><trkpt lat="40.313873023382925" lon="9.346127264760852"><ele>403.0</ele><time>2026-04-28T15:22:04.007Z</time></trkpt><trkpt lat="40.314022452992106" lon="9.345967561854048"><ele>402.0</ele><time>2026-04-28T15:22:05.007Z</time></trkpt><trkpt lat="40.314154539644804" lon="9.345858272761406"><ele>402.0</ele><time>2026-04-28T15:22:06.007Z</time></trkpt><trkpt lat="40.3142788109771" lon="9.345805827087931"><ele>402.0</ele><time>2026-04-28T15:22:07.007Z</time></trkpt><trkpt lat="40.314416166132915" lon="9.345850136601038"><ele>402.0</ele><time>2026-04-28T15:22:08.007Z</time></trkpt><trkpt lat="40.31458031703882" lon="9.345974572593116"><ele>402.0</ele><time>2026-04-28T15:22:09.007Z</time></trkpt><trkpt lat="40.31473555725614" lon="9.346002540854776"><ele>402.0</ele><time>2026-04-28T15:22:10.007Z</time></trkpt><trkpt lat="40.3148958480519" lon="9.345841452053168"><ele>402.0</ele><time>2026-04-28T15:22:11.007Z</time></trkpt><trkpt lat="40.315072677762835" lon="9.345585388787844"><ele>398.5</ele><time>2026-04-28T15:22:12.007Z</time></trkpt><trkpt lat="40.315265574177076" lon="9.345377980888237"><ele>395.0</ele><time>2026-04-28T15:22:13.007Z</time></trkpt><trkpt lat="40.315438740450205" lon="9.345164859129648"><ele>412.0</ele><time>2026-04-28T15:22:14.007Z</time></trkpt><trkpt lat="40.31561058041946" lon="9.344936961225041"><ele>429.0</ele><time>2026-04-28T15:22:15.007Z</time></trkpt><trkpt lat="40.31578399758753" lon="9.344743153766618"><ele>419.0</ele><time>2026-04-28T15:22:16.007Z</time></trkpt><trkpt lat="40.315945635498785" lon="9.344558815642282"><ele>409.0</ele><time>2026-04-28T15:22:17.007Z</time></trkpt><trkpt lat="40.31612083869546" lon="9.34439536283387"><ele>399.0</ele><time>2026-04-28T15:22:18.007Z</time></trkpt><trkpt lat="40.31630107824135" lon="9.344264953944755"><ele>407.33333333333337</ele><time>2026-04-28T15:22:19.007Z</time></trkpt><trkpt lat="40.31646454817795" lon="9.344164503531474"><ele>415.6666666666667</ele><time>2026-04-28T15:22:20.007Z</time></trkpt><trkpt lat="40.31663809438571" lon="9.344104397111018"><ele>424.0</ele><time>2026-04-28T15:22:21.007Z</time></trkpt><trkpt lat="40.3168192011531" lon="9.344055772540752"><ele>424.0</ele><time>2026-04-28T15:22:22.007Z</time></trkpt><trkpt lat="40.31701740597859" lon="9.344043903040255"><ele>424.0</ele><time>2026-04-28T15:22:23.007Z</time></trkpt><trkpt lat="40.31721370703931" lon="9.34402288426835"><ele>424.0</ele><time>2026-04-28T15:22:24.007Z</time></trkpt><trkpt lat="40.317388286451305" lon="9.343969061665508"><ele>426.6666666666667</ele><time>2026-04-28T15:22:25.007Z</time></trkpt><trkpt lat="40.31752796955071" lon="9.34391644361627"><ele>429.33333333333337</ele><time>2026-04-28T15:22:26.009Z</time></trkpt><trkpt lat="40.317673087227185" lon="9.343886024490471"><ele>432.0</ele><time>2026-04-28T15:22:27.009Z</time></trkpt><trkpt lat="40.31782910055366" lon="9.343853735265407"><ele>430.0</ele><time>2026-04-28T15:22:28.009Z</time></trkpt><trkpt lat="40.31794585910882" lon="9.343841653550488"><ele>428.0</ele><time>2026-04-28T15:22:29.009Z</time></trkpt><trkpt lat="40.31805151340563" lon="9.343786778220316"><ele>426.0</ele><time>2026-04-28T15:22:30.009Z</time></trkpt><trkpt lat="40.31821395525217" lon="9.343900999424207"><ele>424.0</ele><time>2026-04-28T15:22:31.009Z</time></trkpt><trkpt lat="40.31836121952807" lon="9.344093476664515"><ele>424.0</ele><time>2026-04-28T15:22:32.009Z</time></trkpt><trkpt lat="40.31851134161192" lon="9.34422913774575"><ele>424.0</ele><time>2026-04-28T15:22:33.009Z</time></trkpt><trkpt lat="40.31863803945058" lon="9.34429878595092"><ele>424.0</ele><time>2026-04-28T15:22:34.009Z</time></trkpt><trkpt lat="40.31876329254635" lon="9.344442519705822"><ele>424.0</ele><time>2026-04-28T15:22:35.009Z</time></trkpt><trkpt lat="40.31888926948616" lon="9.344451885197351"><ele>424.0</ele><time>2026-04-28T15:22:36.009Z</time></trkpt><trkpt lat="40.31901028326899" lon="9.344453364018271"><ele>424.0</ele><time>2026-04-28T15:22:37.009Z</time></trkpt><trkpt lat="40.319139153574895" lon="9.344426608542362"><ele>424.0</ele><time>2026-04-28T15:22:38.009Z</time></trkpt><trkpt lat="40.319273495894436" lon="9.344388991984902"><ele>424.5</ele><time>2026-04-28T15:22:39.009Z</time></trkpt><trkpt lat="40.319411230193275" lon="9.344370511354862"><ele>425.0</ele><time>2026-04-28T15:22:40.009Z</time></trkpt><trkpt lat="40.31955118179111" lon="9.344345196220564"><ele>425.5</ele><time>2026-04-28T15:22:41.009Z</time></trkpt><trkpt lat="40.31969453811535" lon="9.344319638120302"><ele>426.0</ele><time>2026-04-28T15:22:42.009Z</time></trkpt><trkpt lat="40.31983237944582" lon="9.344267078651397"><ele>430.25</ele><time>2026-04-28T15:22:43.009Z</time></trkpt><trkpt lat="40.3199680356965" lon="9.344195075626264"><ele>434.5</ele><time>2026-04-28T15:22:44.009Z</time></trkpt><trkpt lat="40.32009860313369" lon="9.344113813276596"><ele>438.75</ele><time>2026-04-28T15:22:45.009Z</time></trkpt><trkpt lat="40.32023091856294" lon="9.344037420178756"><ele>443.0</ele><time>2026-04-28T15:22:46.009Z</time></trkpt><trkpt lat="40.32036669445422" lon="9.343961002249403"><ele>443.0</ele><time>2026-04-28T15:22:47.009Z</time></trkpt><trkpt lat="40.32050767695644" lon="9.343896805120234"><ele>443.0</ele><time>2026-04-28T15:22:48.009Z</time></trkpt><trkpt lat="40.320658150784816" lon="9.34386123605539"><ele>443.0</ele><time>2026-04-28T15:22:49.009Z</time></trkpt><trkpt lat="40.32081457813418" lon="9.343842652355972"><ele>437.3333333333333</ele><time>2026-04-28T15:22:50.009Z</time></trkpt><trkpt lat="40.32097014450169" lon="9.34384211517455"><ele>431.66666666666663</ele><time>2026-04-28T15:22:51.009Z</time></trkpt><trkpt lat="40.32112772443246" lon="9.34384835998507"><ele>426.0</ele><time>2026-04-28T15:22:52.009Z</time></trkpt><trkpt lat="40.321284967058574" lon="9.34385930104382"><ele>426.5</ele><time>2026-04-28T15:22:53.009Z</time></trkpt><trkpt lat="40.3214338565642" lon="9.343866151413975"><ele>427.0</ele><time>2026-04-28T15:22:54.009Z</time></trkpt><trkpt lat="40.321578169214234" lon="9.343879784573115"><ele>427.5</ele><time>2026-04-28T15:22:55.009Z</time></trkpt><trkpt lat="40.32172275851565" lon="9.34393002934085"><ele>428.0</ele><time>2026-04-28T15:22:56.009Z</time></trkpt><trkpt lat="40.32186266717385" lon="9.343958925605703"><ele>432.0</ele><time>2026-04-28T15:22:57.009Z</time></trkpt><trkpt lat="40.322006086433404" lon="9.343999239283237"><ele>436.0</ele><time>2026-04-28T15:22:58.009Z</time></trkpt><trkpt lat="40.322142409062074" lon="9.344044861611497"><ele>440.0</ele><time>2026-04-28T15:22:59.009Z</time></trkpt><trkpt lat="40.32226400115806" lon="9.344119812826483"><ele>444.0</ele><time>2026-04-28T15:23:00.009Z</time></trkpt><trkpt lat="40.32236085542484" lon="9.344229097856015"><ele>444.0</ele><time>2026-04-28T15:23:01.009Z</time></trkpt><trkpt lat="40.32242656411049" lon="9.344374043556794"><ele>444.0</ele><time>2026-04-28T15:23:02.009Z</time></trkpt><trkpt lat="40.322477510915526" lon="9.344547679073878"><ele>444.0</ele><time>2026-04-28T15:23:03.009Z</time></trkpt><trkpt lat="40.322533966155454" lon="9.344713732598354"><ele>444.0</ele><time>2026-04-28T15:23:04.009Z</time></trkpt><trkpt lat="40.32259843481771" lon="9.344867423887282"><ele>449.25</ele><time>2026-04-28T15:23:05.009Z</time></trkpt><trkpt lat="40.32266368809984" lon="9.345013962437012"><ele>454.5</ele><time>2026-04-28T15:23:06.009Z</time></trkpt><trkpt lat="40.32271944249607" lon="9.345141998506149"><ele>459.75</ele><time>2026-04-28T15:23:07.009Z</time></trkpt><trkpt lat="40.32279201312072" lon="9.345242755491396"><ele>465.0</ele><time>2026-04-28T15:23:08.009Z</time></trkpt><trkpt lat="40.32289616545994" lon="9.34530102525208"><ele>465.0</ele><time>2026-04-28T15:23:09.009Z</time></trkpt><trkpt lat="40.323038729634405" lon="9.345280242486723"><ele>465.0</ele><time>2026-04-28T15:23:10.009Z</time></trkpt><trkpt lat="40.323198743779926" lon="9.345229057240912"><ele>465.0</ele><time>2026-04-28T15:23:11.009Z</time></trkpt><trkpt lat="40.32337722014533" lon="9.345131381097143"><ele>461.66666666666663</ele><time>2026-04-28T15:23:12.009Z</time></trkpt><trkpt lat="40.323566672474406" lon="9.345076951677733"><ele>458.3333333333333</ele><time>2026-04-28T15:23:13.009Z</time></trkpt><trkpt lat="40.32373364307833" lon="9.344987009663193"><ele>455.0</ele><time>2026-04-28T15:23:14.009Z</time></trkpt><trkpt lat="40.32390094245849" lon="9.344813118312327"><ele>458.66666666666663</ele><time>2026-04-28T15:23:15.009Z</time></trkpt><trkpt lat="40.32402640960195" lon="9.344606659677208"><ele>462.33333333333337</ele><time>2026-04-28T15:23:16.009Z</time></trkpt><trkpt lat="40.324148111166714" lon="9.344407722201032"><ele>466.0</ele><time>2026-04-28T15:23:17.009Z</time></trkpt><trkpt lat="40.32427806477869" lon="9.344195507102492"><ele>466.0</ele><time>2026-04-28T15:23:18.009Z</time></trkpt><trkpt lat="40.32439190271647" lon="9.343974397766305"><ele>466.0</ele><time>2026-04-28T15:23:19.009Z</time></trkpt><trkpt lat="40.32446895153157" lon="9.343724740419084"><ele>466.0</ele><time>2026-04-28T15:23:20.008Z</time></trkpt><trkpt lat="40.32452988080182" lon="9.34348008193726"><ele>463.6666666666667</ele><time>2026-04-28T15:23:21.008Z</time></trkpt><trkpt lat="40.32459877234985" lon="9.343266374079416"><ele>461.33333333333337</ele><time>2026-04-28T15:23:22.008Z</time></trkpt><trkpt lat="40.32472295835242" lon="9.343096867702812"><ele>459.0</ele><time>2026-04-28T15:23:23.008Z</time></trkpt><trkpt lat="40.32489491828555" lon="9.342976901787427"><ele>459.0</ele><time>2026-04-28T15:23:24.008Z</time></trkpt><trkpt lat="40.32509249380073" lon="9.342912072006486"><ele>459.0</ele><time>2026-04-28T15:23:25.008Z</time></trkpt><trkpt lat="40.32530167222829" lon="9.342841201231337"><ele>459.0</ele><time>2026-04-28T15:23:26.008Z</time></trkpt><trkpt lat="40.3255083423248" lon="9.342769151745626"><ele>468.66666666666663</ele><time>2026-04-28T15:23:27.008Z</time></trkpt><trkpt lat="40.325706768261234" lon="9.34267355682481"><ele>478.3333333333333</ele><time>2026-04-28T15:23:28.008Z</time></trkpt><trkpt lat="40.32588350180115" lon="9.342542374160093"><ele>488.0</ele><time>2026-04-28T15:23:29.008Z</time></trkpt><trkpt lat="40.326019144715566" lon="9.342311751299995"><ele>491.66666666666663</ele><time>2026-04-28T15:23:30.008Z</time></trkpt><trkpt lat="40.326163631549875" lon="9.342115546940878"><ele>495.33333333333337</ele><time>2026-04-28T15:23:31.008Z</time></trkpt><trkpt lat="40.32633597236598" lon="9.341959987325136"><ele>499.0</ele><time>2026-04-28T15:23:32.008Z</time></trkpt><trkpt lat="40.32649395550932" lon="9.341780535050587"><ele>499.0</ele><time>2026-04-28T15:23:33.008Z</time></trkpt><trkpt lat="40.32661631213089" lon="9.341547022540427"><ele>499.0</ele><time>2026-04-28T15:23:34.008Z</time></trkpt><trkpt lat="40.326739915629275" lon="9.341319662571216"><ele>499.0</ele><time>2026-04-28T15:23:35.008Z</time></trkpt><trkpt lat="40.32690698969328" lon="9.341163970328305"><ele>493.6666666666667</ele><time>2026-04-28T15:23:36.008Z</time></trkpt><trkpt lat="40.32708531238971" lon="9.34106338144187"><ele>488.33333333333337</ele><time>2026-04-28T15:23:37.008Z</time></trkpt><trkpt lat="40.32724593240616" lon="9.34097305594845"><ele>483.0</ele><time>2026-04-28T15:23:38.008Z</time></trkpt><trkpt lat="40.32735569788403" lon="9.340864769059358"><ele>494.66666666666663</ele><time>2026-04-28T15:23:39.008Z</time></trkpt><trkpt lat="40.32741451304847" lon="9.340690349528169"><ele>506.3333333333333</ele><time>2026-04-28T15:23:40.008Z</time></trkpt><trkpt lat="40.3273946768142" lon="9.340494902417454"><ele>518.0</ele><time>2026-04-28T15:23:41.008Z</time></trkpt><trkpt lat="40.32728629094102" lon="9.340271219472255"><ele>511.66666666666663</ele><time>2026-04-28T15:23:42.008Z</time></trkpt><trkpt lat="40.3271563684894" lon="9.340070919364603"><ele>505.33333333333337</ele><time>2026-04-28T15:23:43.008Z</time></trkpt><trkpt lat="40.32702194778267" lon="9.33989610759981"><ele>499.0</ele><time>2026-04-28T15:23:44.008Z</time></trkpt><trkpt lat="40.32685832347106" lon="9.339783724765462"><ele>504.0</ele><time>2026-04-28T15:23:45.008Z</time></trkpt><trkpt lat="40.32668629466698" lon="9.339685773016777"><ele>509.0</ele><time>2026-04-28T15:23:46.008Z</time></trkpt><trkpt lat="40.326519699264416" lon="9.33956970907464"><ele>514.0</ele><time>2026-04-28T15:23:47.008Z</time></trkpt><trkpt lat="40.3263864736398" lon="9.339411920118646"><ele>514.0</ele><time>2026-04-28T15:23:48.008Z</time></trkpt><trkpt lat="40.32626779001792" lon="9.33923946757845"><ele>514.0</ele><time>2026-04-28T15:23:49.008Z</time></trkpt><trkpt lat="40.32614068344461" lon="9.339091235284075"><ele>514.0</ele><time>2026-04-28T15:23:50.008Z</time></trkpt><trkpt lat="40.32600898414337" lon="9.338963951236291"><ele>523.3333333333334</ele><time>2026-04-28T15:23:51.008Z</time></trkpt><trkpt lat="40.32587032162254" lon="9.338852110458351"><ele>532.6666666666666</ele><time>2026-04-28T15:23:52.008Z</time></trkpt><trkpt lat="40.325709273945954" lon="9.338820216285848"><ele>542.0</ele><time>2026-04-28T15:23:53.008Z</time></trkpt><trkpt lat="40.32553188980246" lon="9.338875045531577"><ele>532.6666666666666</ele><time>2026-04-28T15:23:54.008Z</time></trkpt><trkpt lat="40.32536544076844" lon="9.338968568014872"><ele>523.3333333333334</ele><time>2026-04-28T15:23:55.008Z</time></trkpt><trkpt lat="40.32519950406745" lon="9.33905189976786"><ele>514.0</ele><time>2026-04-28T15:23:56.008Z</time></trkpt><trkpt lat="40.325024189654094" lon="9.339061894239464"><ele>514.0</ele><time>2026-04-28T15:23:57.008Z</time></trkpt><trkpt lat="40.32484920021434" lon="9.33899650876362"><ele>514.0</ele><time>2026-04-28T15:23:58.008Z</time></trkpt><trkpt lat="40.32469867930769" lon="9.338896676737962"><ele>514.0</ele><time>2026-04-28T15:23:59.008Z</time></trkpt><trkpt lat="40.32460302339632" lon="9.338752160676735"><ele>518.0</ele><time>2026-04-28T15:24:00.008Z</time></trkpt><trkpt lat="40.32454911772393" lon="9.338581622881938"><ele>522.0</ele><time>2026-04-28T15:24:01.008Z</time></trkpt><trkpt lat="40.32452547817173" lon="9.338405524706667"><ele>526.0</ele><time>2026-04-28T15:24:02.008Z</time></trkpt><trkpt lat="40.32450872673994" lon="9.338227610001049"><ele>530.0</ele><time>2026-04-28T15:24:03.008Z</time></trkpt><trkpt lat="40.32446360609345" lon="9.338068003371115"><ele>534.25</ele><time>2026-04-28T15:24:04.008Z</time></trkpt><trkpt lat="40.32437999556973" lon="9.337941155624133"><ele>538.5</ele><time>2026-04-28T15:24:05.008Z</time></trkpt><trkpt lat="40.324252733484556" lon="9.337899818696387"><ele>542.75</ele><time>2026-04-28T15:24:06.008Z</time></trkpt><trkpt lat="40.324114852396484" lon="9.337938308614723"><ele>547.0</ele><time>2026-04-28T15:24:07.008Z</time></trkpt><trkpt lat="40.3239701989386" lon="9.338017124865969"><ele>542.25</ele><time>2026-04-28T15:24:08.008Z</time></trkpt><trkpt lat="40.3238689057725" lon="9.338125594807346"><ele>537.5</ele><time>2026-04-28T15:24:09.008Z</time></trkpt><trkpt lat="40.3237781017662" lon="9.338229462175546"><ele>532.75</ele><time>2026-04-28T15:24:10.008Z</time></trkpt><trkpt lat="40.32368191448439" lon="9.338303603167757"><ele>528.0</ele><time>2026-04-28T15:24:11.008Z</time></trkpt><trkpt lat="40.3235962080318" lon="9.338341284495165"><ele>528.0</ele><time>2026-04-28T15:24:12.008Z</time></trkpt><trkpt lat="40.32350605876453" lon="9.33829756165322"><ele>528.0</ele><time>2026-04-28T15:24:14.008Z</time></trkpt><trkpt lat="40.32338411520777" lon="9.338258475800524"><ele>528.0</ele><time>2026-04-28T15:24:36.01Z</time></trkpt><trkpt lat="40.32330846062833" lon="9.338236414439397"><ele>528.0</ele><time>2026-04-28T15:24:37.01Z</time></trkpt><trkpt lat="40.32322927747988" lon="9.33819209094241"><ele>528.0</ele><time>2026-04-28T15:24:38.009Z</time></trkpt><trkpt lat="40.323136099961154" lon="9.338123817018811"><ele>530.0</ele><time>2026-04-28T15:24:39.009Z</time></trkpt><trkpt lat="40.323055369356354" lon="9.338019673491766"><ele>532.0</ele><time>2026-04-28T15:24:40.009Z</time></trkpt><trkpt lat="40.322979656258894" lon="9.337909879268691"><ele>534.0</ele><time>2026-04-28T15:24:41.009Z</time></trkpt><trkpt lat="40.32292981843424" lon="9.337793236264993"><ele>536.0</ele><time>2026-04-28T15:24:42.009Z</time></trkpt><trkpt lat="40.32288548427849" lon="9.337678192985214"><ele>538.0</ele><time>2026-04-28T15:24:43.009Z</time></trkpt><trkpt lat="40.322850945723886" lon="9.337543093325166"><ele>538.0</ele><time>2026-04-28T15:24:44.009Z</time></trkpt><trkpt lat="40.3228092453701" lon="9.337411093568084"><ele>538.0</ele><time>2026-04-28T15:24:45.009Z</time></trkpt><trkpt lat="40.32276646246135" lon="9.337296826363056"><ele>538.0</ele><time>2026-04-28T15:24:46.009Z</time></trkpt><trkpt lat="40.322716568335956" lon="9.33718418423531"><ele>538.0</ele><time>2026-04-28T15:24:47.009Z</time></trkpt><trkpt lat="40.322645131463815" lon="9.337093962245318"><ele>538.0</ele><time>2026-04-28T15:24:48.009Z</time></trkpt><trkpt lat="40.322558514659754" lon="9.337051498810432"><ele>539.6</ele><time>2026-04-28T15:24:49.009Z</time></trkpt><trkpt lat="40.3224554173705" lon="9.337056019937688"><ele>541.1999999999999</ele><time>2026-04-28T15:24:50.009Z</time></trkpt><trkpt lat="40.322353817202384" lon="9.337105894330776"><ele>542.8</ele><time>2026-04-28T15:24:51.009Z</time></trkpt><trkpt lat="40.32225593947956" lon="9.337112424493665"><ele>544.4</ele><time>2026-04-28T15:24:52.009Z</time></trkpt><trkpt lat="40.322168006097044" lon="9.337118000598801"><ele>546.0</ele><time>2026-04-28T15:24:53.009Z</time></trkpt><trkpt lat="40.322093585246954" lon="9.337082261672286"><ele>546.1666666666666</ele><time>2026-04-28T15:24:54.009Z</time></trkpt><trkpt lat="40.32203137986692" lon="9.33701297157437"><ele>546.3333333333334</ele><time>2026-04-28T15:24:55.009Z</time></trkpt><trkpt lat="40.321980695390906" lon="9.336924156062198"><ele>546.5</ele><time>2026-04-28T15:24:56.009Z</time></trkpt><trkpt lat="40.32195058844046" lon="9.336801858064323"><ele>546.6666666666667</ele><time>2026-04-28T15:24:57.009Z</time></trkpt><trkpt lat="40.32192786363724" lon="9.336699732986684"><ele>546.8333333333334</ele><time>2026-04-28T15:24:58.009Z</time></trkpt><trkpt lat="40.321923623831836" lon="9.336573741513549"><ele>547.0</ele><time>2026-04-28T15:24:59.009Z</time></trkpt><trkpt lat="40.32191288270135" lon="9.336463815197254"><ele>547.0</ele><time>2026-04-28T15:25:00.009Z</time></trkpt><trkpt lat="40.32194096081274" lon="9.33635061790145"><ele>547.0</ele><time>2026-04-28T15:25:02.009Z</time></trkpt><trkpt lat="40.32200537947545" lon="9.336289581412245"><ele>547.0</ele><time>2026-04-28T15:25:22.009Z</time></trkpt><trkpt lat="40.322039692180674" lon="9.336173900462493"><ele>547.0</ele><time>2026-04-28T15:25:24.009Z</time></trkpt><trkpt lat="40.32202753804073" lon="9.336092737164915"><ele>547.0</ele><time>2026-04-28T15:25:25.009Z</time></trkpt><trkpt lat="40.322022644355705" lon="9.336000084700768"><ele>547.0</ele><time>2026-04-28T15:25:27.009Z</time></trkpt><trkpt lat="40.32209735765379" lon="9.33595054526635"><ele>547.0</ele><time>2026-04-28T15:25:30.009Z</time></trkpt><trkpt lat="40.32216571964277" lon="9.335877296455369"><ele>547.0</ele><time>2026-04-28T15:25:32.009Z</time></trkpt><trkpt lat="40.322234985414106" lon="9.335756802098198"><ele>547.0</ele><time>2026-04-28T15:25:34.009Z</time></trkpt><trkpt lat="40.3223151237158" lon="9.335677940745441"><ele>547.0</ele><time>2026-04-28T15:25:36.009Z</time></trkpt><trkpt lat="40.32240752833963" lon="9.33560146728229"><ele>547.0</ele><time>2026-04-28T15:25:38.009Z</time></trkpt><trkpt lat="40.3225097283512" lon="9.335549253460952"><ele>547.8000000000001</ele><time>2026-04-28T15:25:40.009Z</time></trkpt><trkpt lat="40.32259297949766" lon="9.335478836738387"><ele>548.6</ele><time>2026-04-28T15:25:42.009Z</time></trkpt><trkpt lat="40.32266575379836" lon="9.335462748012313"><ele>549.4000000000001</ele><time>2026-04-28T15:25:43.009Z</time></trkpt><trkpt lat="40.322732336431194" lon="9.335450906842723"><ele>550.2</ele><time>2026-04-28T15:25:44.009Z</time></trkpt><trkpt lat="40.32283891243769" lon="9.335366339227892"><ele>551.0</ele><time>2026-04-28T15:25:46.009Z</time></trkpt><trkpt lat="40.322806812896864" lon="9.335221650695223"><ele>550.9999999999999</ele><time>2026-04-28T15:25:48.009Z</time></trkpt><trkpt lat="40.322796324269746" lon="9.335138837683042"><ele>551.0</ele><time>2026-04-28T15:25:49.009Z</time></trkpt><trkpt lat="40.32280956269479" lon="9.335008730855634"><ele>551.0</ele><time>2026-04-28T15:25:51.009Z</time></trkpt><trkpt lat="40.322833433385235" lon="9.334918908580365"><ele>551.0</ele><time>2026-04-28T15:25:52.009Z</time></trkpt><trkpt lat="40.3228529569672" lon="9.334832373313965"><ele>551.0</ele><time>2026-04-28T15:25:53.009Z</time></trkpt><trkpt lat="40.32285132680104" lon="9.33474615852317"><ele>550.9999999999999</ele><time>2026-04-28T15:25:54.009Z</time></trkpt><trkpt lat="40.322837071754854" lon="9.334662859338925"><ele>551.0</ele><time>2026-04-28T15:25:55.009Z</time></trkpt><trkpt lat="40.32284572625402" lon="9.334572270027389"><ele>550.8571428571428</ele><time>2026-04-28T15:25:56.009Z</time></trkpt><trkpt lat="40.32285115323134" lon="9.334486069182026"><ele>550.7142857142857</ele><time>2026-04-28T15:25:57.009Z</time></trkpt><trkpt lat="40.32285625638636" lon="9.334401246521082"><ele>550.5714285714286</ele><time>2026-04-28T15:25:58.009Z</time></trkpt><trkpt lat="40.32285547704068" lon="9.334311405675898"><ele>550.4285714285713</ele><time>2026-04-28T15:25:59.009Z</time></trkpt><trkpt lat="40.3228657540242" lon="9.334220719406387"><ele>550.2857142857142</ele><time>2026-04-28T15:26:00.009Z</time></trkpt><trkpt lat="40.32288991190168" lon="9.334136871434238"><ele>550.1428571428571</ele><time>2026-04-28T15:26:01.009Z</time></trkpt><trkpt lat="40.32290477290921" lon="9.334041435676774"><ele>550.0</ele><time>2026-04-28T15:26:02.009Z</time></trkpt><trkpt lat="40.32293305265637" lon="9.333949584795988"><ele>550.7142857142858</ele><time>2026-04-28T15:26:03.009Z</time></trkpt><trkpt lat="40.322948296949235" lon="9.333862279158039"><ele>551.4285714285714</ele><time>2026-04-28T15:26:04.009Z</time></trkpt><trkpt lat="40.32296272063138" lon="9.333765045262789"><ele>552.1428571428571</ele><time>2026-04-28T15:26:05.009Z</time></trkpt><trkpt lat="40.32298018384867" lon="9.333677517908413"><ele>552.8571428571429</ele><time>2026-04-28T15:26:06.009Z</time></trkpt><trkpt lat="40.323006527974975" lon="9.33360137650865"><ele>553.5714285714286</ele><time>2026-04-28T15:26:07.009Z</time></trkpt><trkpt lat="40.32303257548527" lon="9.33351107047173"><ele>554.2857142857143</ele><time>2026-04-28T15:26:08.009Z</time></trkpt><trkpt lat="40.32306162333631" lon="9.333429867970224"><ele>555.0</ele><time>2026-04-28T15:26:09.009Z</time></trkpt><trkpt lat="40.323102895797284" lon="9.333350994718659"><ele>555.0000000000001</ele><time>2026-04-28T15:26:10.009Z</time></trkpt><trkpt lat="40.32313357788231" lon="9.33325954825097"><ele>555.0</ele><time>2026-04-28T15:26:11.009Z</time></trkpt><trkpt lat="40.32316731677279" lon="9.333166562686086"><ele>555.0</ele><time>2026-04-28T15:26:12.009Z</time></trkpt><trkpt lat="40.32320337811219" lon="9.333079582588388"><ele>555.0</ele><time>2026-04-28T15:26:13.009Z</time></trkpt><trkpt lat="40.32325239676387" lon="9.333008664825774"><ele>555.0</ele><time>2026-04-28T15:26:14.009Z</time></trkpt><trkpt lat="40.32328617703705" lon="9.332927358755025"><ele>555.0000000000001</ele><time>2026-04-28T15:26:15.009Z</time></trkpt><trkpt lat="40.32330708891099" lon="9.33283446259146"><ele>555.0</ele><time>2026-04-28T15:26:16.009Z</time></trkpt><trkpt lat="40.323332374336964" lon="9.332746829185687"><ele>553.8333333333334</ele><time>2026-04-28T15:26:17.009Z</time></trkpt><trkpt lat="40.3233560790531" lon="9.332661185297216"><ele>552.6666666666666</ele><time>2026-04-28T15:26:18.009Z</time></trkpt><trkpt lat="40.32338060217034" lon="9.332574701495336"><ele>551.5</ele><time>2026-04-28T15:26:19.009Z</time></trkpt><trkpt lat="40.32341137487049" lon="9.332471967662357"><ele>550.3333333333333</ele><time>2026-04-28T15:26:20.009Z</time></trkpt><trkpt lat="40.32345081159282" lon="9.33237344547401"><ele>549.1666666666666</ele><time>2026-04-28T15:26:21.009Z</time></trkpt><trkpt lat="40.323494308181054" lon="9.332280360583333"><ele>548.0</ele><time>2026-04-28T15:26:22.009Z</time></trkpt><trkpt lat="40.32352818803364" lon="9.332186740206494"><ele>547.6666666666666</ele><time>2026-04-28T15:26:23.009Z</time></trkpt><trkpt lat="40.32356250656641" lon="9.332093632196159"><ele>547.3333333333333</ele><time>2026-04-28T15:26:24.009Z</time></trkpt><trkpt lat="40.3235944016196" lon="9.331994930424647"><ele>547.0</ele><time>2026-04-28T15:26:25.009Z</time></trkpt><trkpt lat="40.323638280684435" lon="9.331915491651813"><ele>546.6666666666666</ele><time>2026-04-28T15:26:26.009Z</time></trkpt><trkpt lat="40.32366645251548" lon="9.331813355189961"><ele>546.3333333333334</ele><time>2026-04-28T15:26:27.009Z</time></trkpt><trkpt lat="40.32369344040422" lon="9.331707857066208"><ele>546.0</ele><time>2026-04-28T15:26:28.009Z</time></trkpt><trkpt lat="40.323708981341056" lon="9.331592927257224"><ele>546.0</ele><time>2026-04-28T15:26:29.009Z</time></trkpt><trkpt lat="40.323729020612014" lon="9.33150581851194"><ele>546.0</ele><time>2026-04-28T15:26:30.009Z</time></trkpt><trkpt lat="40.323748614873054" lon="9.33138035216024"><ele>546.0</ele><time>2026-04-28T15:26:35.009Z</time></trkpt><trkpt lat="40.32368958197155" lon="9.331216628829772"><ele>546.0</ele><time>2026-04-28T15:26:37.009Z</time></trkpt><trkpt lat="40.32364015272474" lon="9.331108339702345"><ele>546.0</ele><time>2026-04-28T15:26:38.01Z</time></trkpt><trkpt lat="40.32357775586996" lon="9.331000915980777"><ele>546.2</ele><time>2026-04-28T15:26:39.01Z</time></trkpt><trkpt lat="40.323515681155676" lon="9.330890233034856"><ele>546.4000000000001</ele><time>2026-04-28T15:26:40.01Z</time></trkpt><trkpt lat="40.32345555400163" lon="9.330787805835627"><ele>546.6</ele><time>2026-04-28T15:26:41.01Z</time></trkpt><trkpt lat="40.323401272393454" lon="9.330692605455996"><ele>546.8000000000001</ele><time>2026-04-28T15:26:42.01Z</time></trkpt><trkpt lat="40.323347272345686" lon="9.330604715881497"><ele>547.0</ele><time>2026-04-28T15:26:43.01Z</time></trkpt><trkpt lat="40.32330831662965" lon="9.330521501059575"><ele>547.3333333333334</ele><time>2026-04-28T15:26:44.01Z</time></trkpt><trkpt lat="40.32327496349283" lon="9.330451445949796"><ele>547.6666666666667</ele><time>2026-04-28T15:26:45.01Z</time></trkpt><trkpt lat="40.323255856371" lon="9.33032220099528"><ele>548.0</ele><time>2026-04-28T15:26:47.009Z</time></trkpt><trkpt lat="40.323341417107194" lon="9.33021513626768"><ele>548.3333333333334</ele><time>2026-04-28T15:26:49.01Z</time></trkpt><trkpt lat="40.32339300789856" lon="9.330157845529122"><ele>548.6666666666666</ele><time>2026-04-28T15:26:50.009Z</time></trkpt><trkpt lat="40.32343806074906" lon="9.330094113028807"><ele>549.0</ele><time>2026-04-28T15:26:51.009Z</time></trkpt><trkpt lat="40.32344167601204" lon="9.329913465389183"><ele>549.0</ele><time>2026-04-28T15:27:32.009Z</time></trkpt><trkpt lat="40.323478892008445" lon="9.329817513332655"><ele>549.0</ele><time>2026-04-28T15:27:34.009Z</time></trkpt><trkpt lat="40.32344604412334" lon="9.329714164713899"><ele>549.0</ele><time>2026-04-28T15:27:35.009Z</time></trkpt><trkpt lat="40.323380831876335" lon="9.32961216612722"><ele>549.0</ele><time>2026-04-28T15:27:36.009Z</time></trkpt><trkpt lat="40.32331289589372" lon="9.329531765772092"><ele>549.0</ele><time>2026-04-28T15:27:37.009Z</time></trkpt><trkpt lat="40.32324777079968" lon="9.329435087876298"><ele>549.5</ele><time>2026-04-28T15:27:38.009Z</time></trkpt><trkpt lat="40.32318525178786" lon="9.329343043632525"><ele>550.0</ele><time>2026-04-28T15:27:39.009Z</time></trkpt><trkpt lat="40.32313376504508" lon="9.329264969155508"><ele>550.5</ele><time>2026-04-28T15:27:40.009Z</time></trkpt><trkpt lat="40.323090030469594" lon="9.329196124943682"><ele>551.0</ele><time>2026-04-28T15:27:41.009Z</time></trkpt><trkpt lat="40.32302808926218" lon="9.329108988042035"><ele>551.5</ele><time>2026-04-28T15:27:43.009Z</time></trkpt><trkpt lat="40.3229729737974" lon="9.329046554903773"><ele>552.0</ele><time>2026-04-28T15:27:45.009Z</time></trkpt><trkpt lat="40.3229202599377" lon="9.328979018141935"><ele>552.5</ele><time>2026-04-28T15:27:47.009Z</time></trkpt><trkpt lat="40.322867721531416" lon="9.328909156099588"><ele>553.0</ele><time>2026-04-28T15:27:49.009Z</time></trkpt><trkpt lat="40.32278942535496" lon="9.328808407227873"><ele>553.5</ele><time>2026-04-28T15:27:51.009Z</time></trkpt><trkpt lat="40.32270613796251" lon="9.32869274698814"><ele>554.0</ele><time>2026-04-28T15:27:53.009Z</time></trkpt><trkpt lat="40.32266377319634" lon="9.328626099490616"><ele>554.5</ele><time>2026-04-28T15:27:54.009Z</time></trkpt><trkpt lat="40.32262173605648" lon="9.328558199533191"><ele>555.0</ele><time>2026-04-28T15:27:55.009Z</time></trkpt><trkpt lat="40.322578101395614" lon="9.328486225359002"><ele>555.0000000000001</ele><time>2026-04-28T15:27:56.009Z</time></trkpt><trkpt lat="40.322536240428825" lon="9.328413522787894"><ele>555.0</ele><time>2026-04-28T15:27:57.009Z</time></trkpt><trkpt lat="40.32249257656277" lon="9.328335375935316"><ele>555.0</ele><time>2026-04-28T15:27:58.009Z</time></trkpt><trkpt lat="40.32243146487457" lon="9.328277794311417"><ele>555.0</ele><time>2026-04-28T15:27:59.009Z</time></trkpt><trkpt lat="40.32238030759403" lon="9.328202758930649"><ele>555.0</ele><time>2026-04-28T15:28:00.009Z</time></trkpt><trkpt lat="40.322330572659325" lon="9.328136411872137"><ele>555.0000000000001</ele><time>2026-04-28T15:28:01.009Z</time></trkpt><trkpt lat="40.32229248351786" lon="9.32806940045236"><ele>555.0</ele><time>2026-04-28T15:28:02.009Z</time></trkpt><trkpt lat="40.322227781189476" lon="9.32792773257948"><ele>554.4</ele><time>2026-04-28T15:28:04.009Z</time></trkpt><trkpt lat="40.3221575660552" lon="9.327799410881989"><ele>553.8</ele><time>2026-04-28T15:28:06.009Z</time></trkpt><trkpt lat="40.32207731112381" lon="9.327656332343263"><ele>553.2</ele><time>2026-04-28T15:28:08.009Z</time></trkpt><trkpt lat="40.32203054742832" lon="9.327574020275614"><ele>552.6</ele><time>2026-04-28T15:28:09.009Z</time></trkpt><trkpt lat="40.321988809659985" lon="9.32748564950122"><ele>552.0</ele><time>2026-04-28T15:28:10.009Z</time></trkpt><trkpt lat="40.32194305132007" lon="9.32739208711613"><ele>552.0</ele><time>2026-04-28T15:28:11.009Z</time></trkpt><trkpt lat="40.321899629376" lon="9.327299844976142"><ele>552.0</ele><time>2026-04-28T15:28:12.009Z</time></trkpt><trkpt lat="40.3218570351013" lon="9.327217520620229"><ele>552.0</ele><time>2026-04-28T15:28:13.009Z</time></trkpt><trkpt lat="40.32181328963474" lon="9.327117945804476"><ele>552.0</ele><time>2026-04-28T15:28:14.009Z</time></trkpt><trkpt lat="40.32177561888602" lon="9.32702545419399"><ele>552.0</ele><time>2026-04-28T15:28:15.009Z</time></trkpt><trkpt lat="40.32174314583358" lon="9.326928094381929"><ele>552.0</ele><time>2026-04-28T15:28:16.009Z</time></trkpt><trkpt lat="40.32172076169998" lon="9.326830822508619"><ele>552.3333333333334</ele><time>2026-04-28T15:28:17.009Z</time></trkpt><trkpt lat="40.321707076160095" lon="9.326731985223974"><ele>552.6666666666666</ele><time>2026-04-28T15:28:18.009Z</time></trkpt><trkpt lat="40.321700150990736" lon="9.326639890814821"><ele>553.0</ele><time>2026-04-28T15:28:19.009Z</time></trkpt><trkpt lat="40.32167866613559" lon="9.326549339198245"><ele>553.3333333333333</ele><time>2026-04-28T15:28:20.009Z</time></trkpt><trkpt lat="40.32166698632762" lon="9.32645005156722"><ele>553.6666666666666</ele><time>2026-04-28T15:28:21.009Z</time></trkpt><trkpt lat="40.32166631804639" lon="9.326339453766423"><ele>554.0</ele><time>2026-04-28T15:28:22.009Z</time></trkpt><trkpt lat="40.3216634233649" lon="9.326231471225633"><ele>554.1666666666666</ele><time>2026-04-28T15:28:23.009Z</time></trkpt><trkpt lat="40.321658923481905" lon="9.326122494101549"><ele>554.3333333333333</ele><time>2026-04-28T15:28:24.009Z</time></trkpt><trkpt lat="40.321649738982245" lon="9.326014613065592"><ele>554.5</ele><time>2026-04-28T15:28:25.009Z</time></trkpt><trkpt lat="40.321638097982216" lon="9.325906028308621"><ele>554.6666666666666</ele><time>2026-04-28T15:28:26.009Z</time></trkpt><trkpt lat="40.32163033393007" lon="9.325794343058478"><ele>554.8333333333334</ele><time>2026-04-28T15:28:27.009Z</time></trkpt><trkpt lat="40.32162388905347" lon="9.325677431708648"><ele>555.0</ele><time>2026-04-28T15:28:28.009Z</time></trkpt><trkpt lat="40.321617145241696" lon="9.32555381211062"><ele>554.6</ele><time>2026-04-28T15:28:29.009Z</time></trkpt><trkpt lat="40.32161076596106" lon="9.325429239720565"><ele>554.2</ele><time>2026-04-28T15:28:30.009Z</time></trkpt><trkpt lat="40.32160684955463" lon="9.32530805167134"><ele>553.8</ele><time>2026-04-28T15:28:31.009Z</time></trkpt><trkpt lat="40.32160348614814" lon="9.325180665220016"><ele>553.4</ele><time>2026-04-28T15:28:32.008Z</time></trkpt><trkpt lat="40.321594602020575" lon="9.32505619237181"><ele>553.0</ele><time>2026-04-28T15:28:33.008Z</time></trkpt><trkpt lat="40.32158702869588" lon="9.324931494422666"><ele>553.0</ele><time>2026-04-28T15:28:34.008Z</time></trkpt><trkpt lat="40.32157827669866" lon="9.324805052274776"><ele>553.0</ele><time>2026-04-28T15:28:35.008Z</time></trkpt><trkpt lat="40.32157041998328" lon="9.32467798670844"><ele>553.0</ele><time>2026-04-28T15:28:36.008Z</time></trkpt><trkpt lat="40.32156179732247" lon="9.324550088358029"><ele>553.0</ele><time>2026-04-28T15:28:37.008Z</time></trkpt><trkpt lat="40.321551605128946" lon="9.324420362123222"><ele>553.0</ele><time>2026-04-28T15:28:38.008Z</time></trkpt><trkpt lat="40.32153306067968" lon="9.324304365916905"><ele>552.8333333333334</ele><time>2026-04-28T15:28:39.008Z</time></trkpt><trkpt lat="40.32151221508831" lon="9.324182754103623"><ele>552.6666666666667</ele><time>2026-04-28T15:28:40.008Z</time></trkpt><trkpt lat="40.321485419172824" lon="9.324062819902228"><ele>552.5</ele><time>2026-04-28T15:28:41.008Z</time></trkpt><trkpt lat="40.32145573159446" lon="9.323950992362265"><ele>552.3333333333334</ele><time>2026-04-28T15:28:42.008Z</time></trkpt><trkpt lat="40.3214286582508" lon="9.323851335431321"><ele>552.1666666666666</ele><time>2026-04-28T15:28:43.008Z</time></trkpt><trkpt lat="40.32139347982144" lon="9.32375238639193"><ele>552.0</ele><time>2026-04-28T15:28:44.011Z</time></trkpt><trkpt lat="40.32135500141991" lon="9.323660489962386"><ele>551.0</ele><time>2026-04-28T15:28:45.01Z</time></trkpt><trkpt lat="40.32131981737606" lon="9.323585243710376"><ele>550.0</ele><time>2026-04-28T15:28:46.01Z</time></trkpt><trkpt lat="40.32125198017606" lon="9.323456595996477"><ele>549.0</ele><time>2026-04-28T15:28:48.01Z</time></trkpt><trkpt lat="40.321195852707156" lon="9.323348019537963"><ele>548.0</ele><time>2026-04-28T15:28:50.011Z</time></trkpt><trkpt lat="40.32115027150194" lon="9.323249178709808"><ele>547.0</ele><time>2026-04-28T15:28:52.01Z</time></trkpt><trkpt lat="40.32108607311113" lon="9.32310801258044"><ele>547.8000000000001</ele><time>2026-04-28T15:28:54.01Z</time></trkpt><trkpt lat="40.32104943379713" lon="9.323039578890475"><ele>548.6</ele><time>2026-04-28T15:28:55.01Z</time></trkpt><trkpt lat="40.32101503200464" lon="9.322967121316301"><ele>549.4000000000001</ele><time>2026-04-28T15:28:56.01Z</time></trkpt><trkpt lat="40.320947924299865" lon="9.322836769315211"><ele>550.2</ele><time>2026-04-28T15:28:58.01Z</time></trkpt><trkpt lat="40.320887968978276" lon="9.322724385492688"><ele>551.0</ele><time>2026-04-28T15:29:00.01Z</time></trkpt><trkpt lat="40.32083878650633" lon="9.3226013520004"><ele>551.0</ele><time>2026-04-28T15:29:02.01Z</time></trkpt><trkpt lat="40.320775816584856" lon="9.322462278127425"><ele>551.0</ele><time>2026-04-28T15:29:04.01Z</time></trkpt><trkpt lat="40.32071970060482" lon="9.322333206570079"><ele>551.0</ele><time>2026-04-28T15:29:06.01Z</time></trkpt><trkpt lat="40.32067694446473" lon="9.322200410464939"><ele>551.0</ele><time>2026-04-28T15:29:08.01Z</time></trkpt><trkpt lat="40.320645369703016" lon="9.322047532992787"><ele>550.4</ele><time>2026-04-28T15:29:10.01Z</time></trkpt><trkpt lat="40.320617575827626" lon="9.321892980065927"><ele>549.8</ele><time>2026-04-28T15:29:12.01Z</time></trkpt><trkpt lat="40.32061982331784" lon="9.321776147081609"><ele>549.1999999999999</ele><time>2026-04-28T15:29:14.01Z</time></trkpt><trkpt lat="40.320586281483706" lon="9.321627176955886"><ele>548.6</ele><time>2026-04-28T15:29:27.01Z</time></trkpt><trkpt lat="40.32056650542503" lon="9.32153889276945"><ele>548.0</ele><time>2026-04-28T15:29:28.01Z</time></trkpt><trkpt lat="40.3205547160924" lon="9.321426829745347"><ele>547.6</ele><time>2026-04-28T15:29:29.01Z</time></trkpt><trkpt lat="40.32054692016268" lon="9.321296211175962"><ele>547.1999999999999</ele><time>2026-04-28T15:29:30.01Z</time></trkpt><trkpt lat="40.32054276924682" lon="9.321163472292582"><ele>546.8</ele><time>2026-04-28T15:29:31.01Z</time></trkpt><trkpt lat="40.32053254863338" lon="9.321033248033293"><ele>546.4</ele><time>2026-04-28T15:29:32.01Z</time></trkpt><trkpt lat="40.32052432733317" lon="9.3209145734466"><ele>546.0</ele><time>2026-04-28T15:29:33.01Z</time></trkpt><trkpt lat="40.32051718303175" lon="9.32081464793538"><ele>546.0</ele><time>2026-04-28T15:29:34.01Z</time></trkpt><trkpt lat="40.32050353958605" lon="9.320704681315274"><ele>546.0</ele><time>2026-04-28T15:29:36.01Z</time></trkpt><trkpt lat="40.3204996540449" lon="9.320610037068787"><ele>546.0</ele><time>2026-04-28T15:29:38.01Z</time></trkpt><trkpt lat="40.32049055001254" lon="9.32046645705433"><ele>546.0</ele><time>2026-04-28T15:29:40.01Z</time></trkpt><trkpt lat="40.32045294147055" lon="9.320399542399198"><ele>546.0</ele><time>2026-04-28T15:29:41.01Z</time></trkpt><trkpt lat="40.320390934062026" lon="9.32036601513181"><ele>546.0</ele><time>2026-04-28T15:29:42.01Z</time></trkpt><trkpt lat="40.32032533913689" lon="9.320378099706586"><ele>546.0</ele><time>2026-04-28T15:29:43.01Z</time></trkpt><trkpt lat="40.320235497159565" lon="9.32048315722691"><ele>546.0</ele><time>2026-04-28T15:29:45.01Z</time></trkpt><trkpt lat="40.320184666815564" lon="9.320544066985486"><ele>546.0</ele><time>2026-04-28T15:29:46.01Z</time></trkpt><trkpt lat="40.320138808042365" lon="9.320604549925608"><ele>546.0</ele><time>2026-04-28T15:29:47.01Z</time></trkpt><trkpt lat="40.320087990841394" lon="9.320664652037882"><ele>546.0</ele><time>2026-04-28T15:29:48.01Z</time></trkpt><trkpt lat="40.32000509575676" lon="9.32080268520425"><ele>546.0</ele><time>2026-04-28T15:29:50.01Z</time></trkpt><trkpt lat="40.3199628024955" lon="9.320873170957723"><ele>546.0</ele><time>2026-04-28T15:29:51.01Z</time></trkpt><trkpt lat="40.319896697870504" lon="9.321022354415895"><ele>546.0</ele><time>2026-04-28T15:29:53.01Z</time></trkpt><trkpt lat="40.31986561623443" lon="9.321107566506623"><ele>546.0</ele><time>2026-04-28T15:29:54.01Z</time></trkpt><trkpt lat="40.319829199310256" lon="9.321201337773585"><ele>546.0</ele><time>2026-04-28T15:29:56.01Z</time></trkpt><trkpt lat="40.31981799397326" lon="9.321289838316243"><ele>546.0</ele><time>2026-04-28T15:30:16.009Z</time></trkpt><trkpt lat="40.31975547889015" lon="9.32131078599384"><ele>546.0</ele><time>2026-04-28T15:30:27.009Z</time></trkpt><trkpt lat="40.319739722184615" lon="9.32119650553425"><ele>546.0</ele><time>2026-04-28T15:30:30.009Z</time></trkpt><trkpt lat="40.31973472923198" lon="9.321046931341"><ele>546.0</ele><time>2026-04-28T15:30:42.009Z</time></trkpt><trkpt lat="40.31972833257625" lon="9.320943961066678"><ele>546.0</ele><time>2026-04-28T15:30:48.009Z</time></trkpt><trkpt lat="40.319721392907276" lon="9.320831178010177"><ele>546.0</ele><time>2026-04-28T15:30:50.011Z</time></trkpt><trkpt lat="40.31971085111065" lon="9.320717075196512"><ele>545.25</ele><time>2026-04-28T15:30:52.011Z</time></trkpt><trkpt lat="40.31969092984164" lon="9.320576513037286"><ele>544.5</ele><time>2026-04-28T15:30:54.01Z</time></trkpt><trkpt lat="40.31968115645695" lon="9.320487573908528"><ele>543.75</ele><time>2026-04-28T15:30:55.01Z</time></trkpt><trkpt lat="40.31966205542831" lon="9.320226874047991"><ele>543.0</ele><time>2026-04-28T15:30:57.011Z</time></trkpt><trkpt lat="40.31964958166035" lon="9.320103996598311"><ele>542.8333333333334</ele><time>2026-04-28T15:30:58.011Z</time></trkpt><trkpt lat="40.319635892105566" lon="9.319986079246172"><ele>542.6666666666666</ele><time>2026-04-28T15:30:59.011Z</time></trkpt><trkpt lat="40.3196175967025" lon="9.31986931195846"><ele>542.5</ele><time>2026-04-28T15:31:00.011Z</time></trkpt><trkpt lat="40.3195995776036" lon="9.319757103254922"><ele>542.3333333333333</ele><time>2026-04-28T15:31:01.01Z</time></trkpt><trkpt lat="40.319590643359255" lon="9.319651197845886"><ele>542.1666666666666</ele><time>2026-04-28T15:31:02.01Z</time></trkpt><trkpt lat="40.31957744263916" lon="9.31955225974053"><ele>542.0</ele><time>2026-04-28T15:31:03.011Z</time></trkpt><trkpt lat="40.31956654968511" lon="9.319462695255837"><ele>541.7142857142857</ele><time>2026-04-28T15:31:04.011Z</time></trkpt><trkpt lat="40.31955465096783" lon="9.319375727428564"><ele>541.4285714285714</ele><time>2026-04-28T15:31:05.011Z</time></trkpt><trkpt lat="40.31954438371032" lon="9.319290647263717"><ele>541.1428571428571</ele><time>2026-04-28T15:31:06.011Z</time></trkpt><trkpt lat="40.31953558135695" lon="9.319199615333865"><ele>540.8571428571429</ele><time>2026-04-28T15:31:07.011Z</time></trkpt><trkpt lat="40.319524591459995" lon="9.319101138140073"><ele>540.5714285714286</ele><time>2026-04-28T15:31:08.011Z</time></trkpt><trkpt lat="40.319517002078804" lon="9.318994244913908"><ele>540.2857142857142</ele><time>2026-04-28T15:31:09.011Z</time></trkpt><trkpt lat="40.31950331756993" lon="9.318894041706264"><ele>540.0</ele><time>2026-04-28T15:31:10.011Z</time></trkpt><trkpt lat="40.31949540045912" lon="9.31880114609714"><ele>540.0</ele><time>2026-04-28T15:31:11.011Z</time></trkpt><trkpt lat="40.319490205620376" lon="9.318711600713868"><ele>540.0</ele><time>2026-04-28T15:31:12.011Z</time></trkpt><trkpt lat="40.31947874167932" lon="9.318621547711242"><ele>540.0</ele><time>2026-04-28T15:31:13.011Z</time></trkpt><trkpt lat="40.319470995524206" lon="9.318530685499471"><ele>540.0</ele><time>2026-04-28T15:31:14.011Z</time></trkpt><trkpt lat="40.31946308847351" lon="9.318440683048742"><ele>540.0</ele><time>2026-04-28T15:31:15.011Z</time></trkpt><trkpt lat="40.31945594889412" lon="9.318354547851023"><ele>540.0</ele><time>2026-04-28T15:31:16.011Z</time></trkpt><trkpt lat="40.31944373269121" lon="9.318269073835202"><ele>540.0</ele><time>2026-04-28T15:31:17.011Z</time></trkpt><trkpt lat="40.31942740988906" lon="9.318186890539218"><ele>540.0</ele><time>2026-04-28T15:31:18.011Z</time></trkpt><trkpt lat="40.319418007691354" lon="9.318104437465037"><ele>540.0</ele><time>2026-04-28T15:31:19.011Z</time></trkpt><trkpt lat="40.319392559083" lon="9.31795654200619"><ele>540.0</ele><time>2026-04-28T15:31:21.011Z</time></trkpt><trkpt lat="40.319351786095446" lon="9.317822166491283"><ele>540.0</ele><time>2026-04-28T15:31:23.011Z</time></trkpt><trkpt lat="40.31931341440926" lon="9.317697908574832"><ele>540.0</ele><time>2026-04-28T15:31:25.011Z</time></trkpt><trkpt lat="40.31926548874923" lon="9.31758574140998"><ele>540.6666666666666</ele><time>2026-04-28T15:31:27.011Z</time></trkpt><trkpt lat="40.3192019040935" lon="9.317455766740224"><ele>541.3333333333334</ele><time>2026-04-28T15:31:29.011Z</time></trkpt><trkpt lat="40.31914439291716" lon="9.31739939344417"><ele>542.0</ele><time>2026-04-28T15:31:30.011Z</time></trkpt><trkpt lat="40.31904444515433" lon="9.31741177112315"><ele>542.6666666666667</ele><time>2026-04-28T15:31:32.011Z</time></trkpt><trkpt lat="40.318989838682114" lon="9.317453175857613"><ele>543.3333333333334</ele><time>2026-04-28T15:31:33.011Z</time></trkpt><trkpt lat="40.31895263083683" lon="9.31752630528098"><ele>544.0</ele><time>2026-04-28T15:31:34.011Z</time></trkpt><trkpt lat="40.31892101333571" lon="9.317599694604729"><ele>542.0</ele><time>2026-04-28T15:31:35.011Z</time></trkpt><trkpt lat="40.31887293343854" lon="9.31773376046394"><ele>540.0</ele><time>2026-04-28T15:31:37.011Z</time></trkpt><trkpt lat="40.318812564118126" lon="9.31786299680903"><ele>538.0</ele><time>2026-04-28T15:31:39.011Z</time></trkpt><trkpt lat="40.31871424519111" lon="9.317957576021621"><ele>536.0</ele><time>2026-04-28T15:31:41.011Z</time></trkpt><trkpt lat="40.31863710625207" lon="9.318057416003567"><ele>536.0</ele><time>2026-04-28T15:31:43.011Z</time></trkpt><trkpt lat="40.31864856747357" lon="9.318184102610042"><ele>536.0</ele><time>2026-04-28T15:31:45.011Z</time></trkpt><trkpt lat="40.31869459450918" lon="9.318292875998127"><ele>536.0</ele><time>2026-04-28T15:31:47.011Z</time></trkpt><trkpt lat="40.318719043509226" lon="9.318442316862871"><ele>536.0</ele><time>2026-04-28T15:31:49.011Z</time></trkpt><trkpt lat="40.31871149474541" lon="9.318613124455654"><ele>536.0</ele><time>2026-04-28T15:31:51.011Z</time></trkpt><trkpt lat="40.31870432296111" lon="9.31870038063383"><ele>536.0</ele><time>2026-04-28T15:31:52.011Z</time></trkpt><trkpt lat="40.31869935334721" lon="9.318797216800334"><ele>536.0</ele><time>2026-04-28T15:31:53.011Z</time></trkpt><trkpt lat="40.318688409589505" lon="9.318902668054138"><ele>536.0</ele><time>2026-04-28T15:31:54.011Z</time></trkpt><trkpt lat="40.31867401245851" lon="9.318997648475317"><ele>536.0</ele><time>2026-04-28T15:31:55.011Z</time></trkpt><trkpt lat="40.31864675850505" lon="9.319092213247828"><ele>536.0</ele><time>2026-04-28T15:31:56.011Z</time></trkpt><trkpt lat="40.31859069734151" lon="9.319140356260835"><ele>536.0</ele><time>2026-04-28T15:31:57.011Z</time></trkpt><trkpt lat="40.31851830385628" lon="9.319159968546222"><ele>536.0</ele><time>2026-04-28T15:31:58.011Z</time></trkpt><trkpt lat="40.31844742114697" lon="9.319159311735936"><ele>536.8333333333333</ele><time>2026-04-28T15:31:59.011Z</time></trkpt><trkpt lat="40.31837634395253" lon="9.319159305976351"><ele>537.6666666666666</ele><time>2026-04-28T15:32:00.011Z</time></trkpt><trkpt lat="40.31830235135285" lon="9.319161715868987"><ele>538.5</ele><time>2026-04-28T15:32:01.011Z</time></trkpt><trkpt lat="40.31822116361104" lon="9.319155820721152"><ele>539.3333333333334</ele><time>2026-04-28T15:32:02.011Z</time></trkpt><trkpt lat="40.318136851064835" lon="9.319186223478376"><ele>540.1666666666667</ele><time>2026-04-28T15:32:03.01Z</time></trkpt><trkpt lat="40.3180475328098" lon="9.31920070748957"><ele>541.0</ele><time>2026-04-28T15:32:04.01Z</time></trkpt><trkpt lat="40.31796231674611" lon="9.319196017669096"><ele>541.1666666666667</ele><time>2026-04-28T15:32:05.01Z</time></trkpt><trkpt lat="40.31787290823473" lon="9.319176126616107"><ele>541.3333333333334</ele><time>2026-04-28T15:32:06.01Z</time></trkpt><trkpt lat="40.317787131173965" lon="9.319151567717782"><ele>541.5</ele><time>2026-04-28T15:32:07.01Z</time></trkpt><trkpt lat="40.31769934144253" lon="9.319131825095074"><ele>541.6666666666666</ele><time>2026-04-28T15:32:08.01Z</time></trkpt><trkpt lat="40.31761454407301" lon="9.319119488874819"><ele>541.8333333333333</ele><time>2026-04-28T15:32:09.01Z</time></trkpt><trkpt lat="40.31753339501356" lon="9.319127272393931"><ele>542.0</ele><time>2026-04-28T15:32:10.01Z</time></trkpt><trkpt lat="40.317461359679974" lon="9.31917118954989"><ele>542.0</ele><time>2026-04-28T15:32:11.01Z</time></trkpt><trkpt lat="40.31741372827988" lon="9.319242159452305"><ele>542.0</ele><time>2026-04-28T15:32:12.01Z</time></trkpt><trkpt lat="40.31737167862959" lon="9.319324587755771"><ele>542.0</ele><time>2026-04-28T15:32:13.01Z</time></trkpt><trkpt lat="40.317341922417" lon="9.319400696421598"><ele>542.0</ele><time>2026-04-28T15:32:14.01Z</time></trkpt><trkpt lat="40.3172929132433" lon="9.319512860605059"><ele>542.0</ele><time>2026-04-28T15:32:16.01Z</time></trkpt><trkpt lat="40.31720710492691" lon="9.319495127634276"><ele>542.0</ele><time>2026-04-28T15:32:49.01Z</time></trkpt><trkpt lat="40.31716761101003" lon="9.319598244960549"><ele>542.6666666666666</ele><time>2026-04-28T15:32:51.01Z</time></trkpt><trkpt lat="40.31712196374319" lon="9.319693469621468"><ele>543.3333333333333</ele><time>2026-04-28T15:32:53.01Z</time></trkpt><trkpt lat="40.317024998764" lon="9.319672056426949"><ele>544.0</ele><time>2026-04-28T15:32:55.01Z</time></trkpt><trkpt lat="40.31696451191083" lon="9.319623378730528"><ele>544.6666666666666</ele><time>2026-04-28T15:32:56.011Z</time></trkpt><trkpt lat="40.31689227919217" lon="9.319575775665308"><ele>545.3333333333334</ele><time>2026-04-28T15:32:57.011Z</time></trkpt><trkpt lat="40.31681377059515" lon="9.31952513725142"><ele>546.0</ele><time>2026-04-28T15:32:58.011Z</time></trkpt><trkpt lat="40.31674272458292" lon="9.319478607506648"><ele>546.0</ele><time>2026-04-28T15:32:59.011Z</time></trkpt><trkpt lat="40.31666304039623" lon="9.319419368913445"><ele>546.0</ele><time>2026-04-28T15:33:00.011Z</time></trkpt><trkpt lat="40.31658418758996" lon="9.319356256160512"><ele>546.0</ele><time>2026-04-28T15:33:01.011Z</time></trkpt><trkpt lat="40.316504146231914" lon="9.319288142522572"><ele>546.0</ele><time>2026-04-28T15:33:02.012Z</time></trkpt><trkpt lat="40.31639446509697" lon="9.319212030896956"><ele>546.0</ele><time>2026-04-28T15:33:03.011Z</time></trkpt><trkpt lat="40.316292777952036" lon="9.319147304944297"><ele>545.75</ele><time>2026-04-28T15:33:04.011Z</time></trkpt><trkpt lat="40.316189718131746" lon="9.319081655188837"><ele>545.5</ele><time>2026-04-28T15:33:05.011Z</time></trkpt><trkpt lat="40.31608351025245" lon="9.319009890476016"><ele>545.25</ele><time>2026-04-28T15:33:06.011Z</time></trkpt><trkpt lat="40.315975172797714" lon="9.318921177940997"><ele>545.0</ele><time>2026-04-28T15:33:07.011Z</time></trkpt><trkpt lat="40.31586769314148" lon="9.318820603672014"><ele>545.0</ele><time>2026-04-28T15:33:08.012Z</time></trkpt><trkpt lat="40.31576918362167" lon="9.318702862986354"><ele>545.0</ele><time>2026-04-28T15:33:09.011Z</time></trkpt><trkpt lat="40.31568837623575" lon="9.318586403098296"><ele>545.0</ele><time>2026-04-28T15:33:10.011Z</time></trkpt><trkpt lat="40.315618914121735" lon="9.318464681206525"><ele>545.0</ele><time>2026-04-28T15:33:11.011Z</time></trkpt><trkpt lat="40.31555861293274" lon="9.318341179406922"><ele>545.0</ele><time>2026-04-28T15:33:12.011Z</time></trkpt><trkpt lat="40.31551445060981" lon="9.318212153893112"><ele>545.0</ele><time>2026-04-28T15:33:13.011Z</time></trkpt><trkpt lat="40.315474186159044" lon="9.318089467637279"><ele>545.0</ele><time>2026-04-28T15:33:14.011Z</time></trkpt><trkpt lat="40.315419317060766" lon="9.31797771568655"><ele>545.0</ele><time>2026-04-28T15:33:15.011Z</time></trkpt><trkpt lat="40.31535142730253" lon="9.317878183117715"><ele>545.0</ele><time>2026-04-28T15:33:16.011Z</time></trkpt><trkpt lat="40.31527491912752" lon="9.317798333152675"><ele>543.8</ele><time>2026-04-28T15:33:17.011Z</time></trkpt><trkpt lat="40.315194222987955" lon="9.317727223180457"><ele>542.6</ele><time>2026-04-28T15:33:18.011Z</time></trkpt><trkpt lat="40.315150695996344" lon="9.317617547749498"><ele>541.4</ele><time>2026-04-28T15:33:19.011Z</time></trkpt><trkpt lat="40.315119373114605" lon="9.317507780004417"><ele>540.2</ele><time>2026-04-28T15:33:20.011Z</time></trkpt><trkpt lat="40.31509749768408" lon="9.31739961309904"><ele>539.0</ele><time>2026-04-28T15:33:21.011Z</time></trkpt><trkpt lat="40.315089661176735" lon="9.317284589661588"><ele>537.6</ele><time>2026-04-28T15:33:22.011Z</time></trkpt><trkpt lat="40.31508342755267" lon="9.317158895049909"><ele>536.2</ele><time>2026-04-28T15:33:23.011Z</time></trkpt><trkpt lat="40.31507606560262" lon="9.317022415708518"><ele>534.8000000000001</ele><time>2026-04-28T15:33:24.011Z</time></trkpt><trkpt lat="40.3150613838365" lon="9.316890010735786"><ele>533.4</ele><time>2026-04-28T15:33:25.011Z</time></trkpt><trkpt lat="40.315030637922604" lon="9.316767752500496"><ele>532.0</ele><time>2026-04-28T15:33:26.011Z</time></trkpt><trkpt lat="40.314987622196696" lon="9.316657180393237"><ele>532.0</ele><time>2026-04-28T15:33:27.011Z</time></trkpt><trkpt lat="40.31493177302144" lon="9.316560919136759"><ele>532.0</ele><time>2026-04-28T15:33:28.011Z</time></trkpt><trkpt lat="40.31487303927627" lon="9.316460433616694"><ele>532.0</ele><time>2026-04-28T15:33:29.011Z</time></trkpt><trkpt lat="40.31481296657827" lon="9.31637001635061"><ele>532.0</ele><time>2026-04-28T15:33:30.011Z</time></trkpt><trkpt lat="40.31475217167285" lon="9.316282867769871"><ele>532.0</ele><time>2026-04-28T15:33:31.011Z</time></trkpt><trkpt lat="40.314686831559555" lon="9.316199534778807"><ele>530.2</ele><time>2026-04-28T15:33:32.011Z</time></trkpt><trkpt lat="40.31461946517255" lon="9.316110347670657"><ele>528.4000000000001</ele><time>2026-04-28T15:33:33.011Z</time></trkpt><trkpt lat="40.31455105338425" lon="9.316017657256346"><ele>526.5999999999999</ele><time>2026-04-28T15:33:34.011Z</time></trkpt><trkpt lat="40.31448083850201" lon="9.31592270391005"><ele>524.8</ele><time>2026-04-28T15:33:35.011Z</time></trkpt><trkpt lat="40.314405585456996" lon="9.315828325575994"><ele>523.0</ele><time>2026-04-28T15:33:36.011Z</time></trkpt><trkpt lat="40.31432728350978" lon="9.315731008487996"><ele>523.0</ele><time>2026-04-28T15:33:37.011Z</time></trkpt><trkpt lat="40.314246972081804" lon="9.315630810797408"><ele>523.0</ele><time>2026-04-28T15:33:38.011Z</time></trkpt><trkpt lat="40.31416874998436" lon="9.315533309320182"><ele>523.0</ele><time>2026-04-28T15:33:39.011Z</time></trkpt><trkpt lat="40.31409530265124" lon="9.315439368981087"><ele>523.0</ele><time>2026-04-28T15:33:40.011Z</time></trkpt><trkpt lat="40.31403621347554" lon="9.315364570266015"><ele>523.0</ele><time>2026-04-28T15:33:41.011Z</time></trkpt><trkpt lat="40.31399145450595" lon="9.315291307994816"><ele>522.5</ele><time>2026-04-28T15:33:42.011Z</time></trkpt><trkpt lat="40.31395755345671" lon="9.31520753127352"><ele>522.0</ele><time>2026-04-28T15:33:43.011Z</time></trkpt><trkpt lat="40.313929884715456" lon="9.315126925778294"><ele>521.5</ele><time>2026-04-28T15:33:44.011Z</time></trkpt><trkpt lat="40.31387718619514" lon="9.315051844445026"><ele>521.0</ele><time>2026-04-28T15:33:45.011Z</time></trkpt><trkpt lat="40.31379349215842" lon="9.314995220305292"><ele>520.5</ele><time>2026-04-28T15:33:46.011Z</time></trkpt><trkpt lat="40.31369743117386" lon="9.314935394804108"><ele>520.0</ele><time>2026-04-28T15:33:47.011Z</time></trkpt><trkpt lat="40.313609021179374" lon="9.314845075303992"><ele>519.5</ele><time>2026-04-28T15:33:48.011Z</time></trkpt><trkpt lat="40.313527355603966" lon="9.314740367495856"><ele>519.0</ele><time>2026-04-28T15:33:49.011Z</time></trkpt><trkpt lat="40.31344051750423" lon="9.31463225750277"><ele>518.5</ele><time>2026-04-28T15:33:50.011Z</time></trkpt><trkpt lat="40.313340596683055" lon="9.314518250298269"><ele>518.0</ele><time>2026-04-28T15:33:51.011Z</time></trkpt><trkpt lat="40.313238907566266" lon="9.314399447438301"><ele>518.0</ele><time>2026-04-28T15:33:52.011Z</time></trkpt><trkpt lat="40.31313752893684" lon="9.314281488606618"><ele>518.0</ele><time>2026-04-28T15:33:53.011Z</time></trkpt><trkpt lat="40.31302916640708" lon="9.314162901662801"><ele>518.0</ele><time>2026-04-28T15:33:54.011Z</time></trkpt><trkpt lat="40.31291565980649" lon="9.314040089395128"><ele>518.0</ele><time>2026-04-28T15:33:55.011Z</time></trkpt><trkpt lat="40.312800236323035" lon="9.313912627593156"><ele>515.0</ele><time>2026-04-28T15:33:56.011Z</time></trkpt><trkpt lat="40.31268163750145" lon="9.313786120507887"><ele>512.0</ele><time>2026-04-28T15:33:57.011Z</time></trkpt><trkpt lat="40.312563060609804" lon="9.313659256788572"><ele>509.0</ele><time>2026-04-28T15:33:58.011Z</time></trkpt><trkpt lat="40.312443686936504" lon="9.313530549417287"><ele>509.0</ele><time>2026-04-28T15:33:59.011Z</time></trkpt><trkpt lat="40.312329746985654" lon="9.313397742389508"><ele>509.0</ele><time>2026-04-28T15:34:00.011Z</time></trkpt><trkpt lat="40.31222189798057" lon="9.313260286010749"><ele>509.0</ele><time>2026-04-28T15:34:01.011Z</time></trkpt><trkpt lat="40.31212368765351" lon="9.313115364564613"><ele>505.5</ele><time>2026-04-28T15:34:02.011Z</time></trkpt><trkpt lat="40.312032566821706" lon="9.312974497895743"><ele>502.0</ele><time>2026-04-28T15:34:03.011Z</time></trkpt><trkpt lat="40.31193630280622" lon="9.312843365588227"><ele>498.5</ele><time>2026-04-28T15:34:04.011Z</time></trkpt><trkpt lat="40.31182601690263" lon="9.312743268402526"><ele>495.0</ele><time>2026-04-28T15:34:05.011Z</time></trkpt><trkpt lat="40.3117052957639" lon="9.312697472849338"><ele>495.0</ele><time>2026-04-28T15:34:06.011Z</time></trkpt><trkpt lat="40.31158717611416" lon="9.312684554161683"><ele>495.0</ele><time>2026-04-28T15:34:07.011Z</time></trkpt><trkpt lat="40.31147815051472" lon="9.312670040966923"><ele>495.0</ele><time>2026-04-28T15:34:08.011Z</time></trkpt><trkpt lat="40.31137539168449" lon="9.312630503566956"><ele>495.0</ele><time>2026-04-28T15:34:09.011Z</time></trkpt><trkpt lat="40.31128391375796" lon="9.312557836564464"><ele>495.0</ele><time>2026-04-28T15:34:10.011Z</time></trkpt><trkpt lat="40.31119223249107" lon="9.312486448146062"><ele>494.75</ele><time>2026-04-28T15:34:11.011Z</time></trkpt><trkpt lat="40.311096492693046" lon="9.312469576987867"><ele>494.5</ele><time>2026-04-28T15:34:12.011Z</time></trkpt><trkpt lat="40.31100620461709" lon="9.312506883650894"><ele>494.25</ele><time>2026-04-28T15:34:13.011Z</time></trkpt><trkpt lat="40.31093166457286" lon="9.312585067345262"><ele>494.0</ele><time>2026-04-28T15:34:14.011Z</time></trkpt><trkpt lat="40.31078354165022" lon="9.312750550452114"><ele>494.0</ele><time>2026-04-28T15:34:16.011Z</time></trkpt><trkpt lat="40.31069002918373" lon="9.312772252949822"><ele>494.0</ele><time>2026-04-28T15:34:17.011Z</time></trkpt><trkpt lat="40.31058956526641" lon="9.312751098244762"><ele>494.0</ele><time>2026-04-28T15:34:18.011Z</time></trkpt><trkpt lat="40.31049082335036" lon="9.31269550204908"><ele>494.0</ele><time>2026-04-28T15:34:19.011Z</time></trkpt><trkpt lat="40.31040239126578" lon="9.312602198767475"><ele>494.0</ele><time>2026-04-28T15:34:20.011Z</time></trkpt><trkpt lat="40.31032462690576" lon="9.312483453121116"><ele>496.75</ele><time>2026-04-28T15:34:21.011Z</time></trkpt><trkpt lat="40.31025457889203" lon="9.312338636984773"><ele>499.5</ele><time>2026-04-28T15:34:22.011Z</time></trkpt><trkpt lat="40.31019855828072" lon="9.312166355368582"><ele>502.25</ele><time>2026-04-28T15:34:23.011Z</time></trkpt><trkpt lat="40.31015408722616" lon="9.31198591297937"><ele>505.0</ele><time>2026-04-28T15:34:24.011Z</time></trkpt><trkpt lat="40.31010727789283" lon="9.31179527444395"><ele>505.33333333333337</ele><time>2026-04-28T15:34:25.01Z</time></trkpt><trkpt lat="40.310057189202354" lon="9.311595301003317"><ele>505.66666666666663</ele><time>2026-04-28T15:34:26.01Z</time></trkpt><trkpt lat="40.31001356270197" lon="9.311377206514585"><ele>506.0</ele><time>2026-04-28T15:34:27.01Z</time></trkpt><trkpt lat="40.30997528786769" lon="9.311142367987333"><ele>504.3333333333333</ele><time>2026-04-28T15:34:28.01Z</time></trkpt><trkpt lat="40.3099383076531" lon="9.310891069450623"><ele>502.66666666666663</ele><time>2026-04-28T15:34:29.01Z</time></trkpt><trkpt lat="40.30991166781063" lon="9.31062537834435"><ele>501.0</ele><time>2026-04-28T15:34:30.01Z</time></trkpt><trkpt lat="40.30988509656112" lon="9.310342103134772"><ele>496.5</ele><time>2026-04-28T15:34:31.01Z</time></trkpt><trkpt lat="40.309858210672346" lon="9.310050762043376"><ele>492.0</ele><time>2026-04-28T15:34:32.01Z</time></trkpt><trkpt lat="40.30983196600304" lon="9.309750327918932"><ele>494.5</ele><time>2026-04-28T15:34:33.01Z</time></trkpt><trkpt lat="40.30980474490633" lon="9.309441367499154"><ele>497.0</ele><time>2026-04-28T15:34:34.01Z</time></trkpt><trkpt lat="40.30978113138395" lon="9.309127185104073"><ele>494.5</ele><time>2026-04-28T15:34:35.01Z</time></trkpt><trkpt lat="40.30975330983073" lon="9.308803678789204"><ele>492.0</ele><time>2026-04-28T15:34:36.01Z</time></trkpt><trkpt lat="40.30972431865217" lon="9.308472883728909"><ele>492.0</ele><time>2026-04-28T15:34:37.01Z</time></trkpt><trkpt lat="40.30969475168832" lon="9.308142955124973"><ele>492.0</ele><time>2026-04-28T15:34:38.01Z</time></trkpt><trkpt lat="40.3096647692114" lon="9.30781008620897"><ele>496.5</ele><time>2026-04-28T15:34:39.01Z</time></trkpt><trkpt lat="40.30963272267822" lon="9.30747384758936"><ele>501.0</ele><time>2026-04-28T15:34:40.01Z</time></trkpt><trkpt lat="40.309600031279224" lon="9.307134531805177"><ele>505.0</ele><time>2026-04-28T15:34:41.01Z</time></trkpt><trkpt lat="40.30957060413692" lon="9.306793900255393"><ele>509.0</ele><time>2026-04-28T15:34:42.01Z</time></trkpt><trkpt lat="40.30954190039739" lon="9.30645256261838"><ele>512.5</ele><time>2026-04-28T15:34:43.01Z</time></trkpt><trkpt lat="40.30951062300376" lon="9.306113559195284"><ele>516.0</ele><time>2026-04-28T15:34:44.01Z</time></trkpt><trkpt lat="40.309477006138955" lon="9.305773874066876"><ele>517.5</ele><time>2026-04-28T15:34:45.01Z</time></trkpt><trkpt lat="40.309445941177344" lon="9.305429817638306"><ele>519.0</ele><time>2026-04-28T15:34:46.01Z</time></trkpt><trkpt lat="40.30941794076847" lon="9.305090005980297"><ele>518.5</ele><time>2026-04-28T15:34:47.01Z</time></trkpt><trkpt lat="40.30939563893084" lon="9.304739589346276"><ele>518.0</ele><time>2026-04-28T15:34:48.01Z</time></trkpt><trkpt lat="40.3093755245475" lon="9.304385797675868"><ele>518.0</ele><time>2026-04-28T15:34:49.01Z</time></trkpt><trkpt lat="40.309355620037465" lon="9.304042556619635"><ele>518.0</ele><time>2026-04-28T15:34:50.01Z</time></trkpt><trkpt lat="40.309345090135594" lon="9.30370874752299"><ele>519.5</ele><time>2026-04-28T15:34:51.01Z</time></trkpt><trkpt lat="40.30934108024557" lon="9.303371592598511"><ele>521.0</ele><time>2026-04-28T15:34:52.01Z</time></trkpt><trkpt lat="40.30934475339411" lon="9.303027166233356"><ele>522.0</ele><time>2026-04-28T15:34:53.01Z</time></trkpt><trkpt lat="40.30936116253509" lon="9.302684155651253"><ele>523.0</ele><time>2026-04-28T15:34:54.01Z</time></trkpt><trkpt lat="40.309388193800665" lon="9.302334541527323"><ele>525.0</ele><time>2026-04-28T15:34:55.01Z</time></trkpt><trkpt lat="40.30942739800725" lon="9.30198708631044"><ele>527.0</ele><time>2026-04-28T15:34:56.01Z</time></trkpt><trkpt lat="40.30947101453979" lon="9.30163694642083"><ele>526.5</ele><time>2026-04-28T15:34:57.01Z</time></trkpt><trkpt lat="40.30951933766818" lon="9.301290144401761"><ele>526.0</ele><time>2026-04-28T15:34:58.01Z</time></trkpt><trkpt lat="40.30957843788649" lon="9.300946497512294"><ele>526.0</ele><time>2026-04-28T15:34:59.01Z</time></trkpt><trkpt lat="40.3096484747918" lon="9.30060821621989"><ele>526.0</ele><time>2026-04-28T15:35:00.01Z</time></trkpt><trkpt lat="40.30972850141474" lon="9.300274169162973"><ele>523.5</ele><time>2026-04-28T15:35:01.01Z</time></trkpt><trkpt lat="40.30981374800448" lon="9.29994219834515"><ele>521.0</ele><time>2026-04-28T15:35:02.011Z</time></trkpt><trkpt lat="40.30990597294901" lon="9.299613591855694"><ele>517.0</ele><time>2026-04-28T15:35:03.011Z</time></trkpt><trkpt lat="40.31000492032351" lon="9.299287933571094"><ele>513.0</ele><time>2026-04-28T15:35:04.011Z</time></trkpt><trkpt lat="40.310108580979" lon="9.298967763777052"><ele>514.5</ele><time>2026-04-28T15:35:05.011Z</time></trkpt><trkpt lat="40.31021756009007" lon="9.29864823288985"><ele>516.0</ele><time>2026-04-28T15:35:06.01Z</time></trkpt><trkpt lat="40.310324263443135" lon="9.298327359185805"><ele>518.0</ele><time>2026-04-28T15:35:07.01Z</time></trkpt><trkpt lat="40.31043162061527" lon="9.29800812720691"><ele>520.0</ele><time>2026-04-28T15:35:08.011Z</time></trkpt><trkpt lat="40.31054104384236" lon="9.297691822658251"><ele>520.0</ele><time>2026-04-28T15:35:09.011Z</time></trkpt><trkpt lat="40.310650274571394" lon="9.297377586878259"><ele>520.0</ele><time>2026-04-28T15:35:10.011Z</time></trkpt><trkpt lat="40.31076143455543" lon="9.297061551246307"><ele>521.0</ele><time>2026-04-28T15:35:11.011Z</time></trkpt><trkpt lat="40.310865396359105" lon="9.29674742357231"><ele>522.0</ele><time>2026-04-28T15:35:12.011Z</time></trkpt><trkpt lat="40.310971397577724" lon="9.296431637491603"><ele>522.5</ele><time>2026-04-28T15:35:13.011Z</time></trkpt><trkpt lat="40.31107847061778" lon="9.29611166762558"><ele>523.0</ele><time>2026-04-28T15:35:14.011Z</time></trkpt><trkpt lat="40.31118191914872" lon="9.29578385603674"><ele>522.0</ele><time>2026-04-28T15:35:15.011Z</time></trkpt><trkpt lat="40.31127961456746" lon="9.295443214298114"><ele>521.0</ele><time>2026-04-28T15:35:16.011Z</time></trkpt><trkpt lat="40.31136960047024" lon="9.295096080688294"><ele>522.5</ele><time>2026-04-28T15:35:17.011Z</time></trkpt><trkpt lat="40.31144817800175" lon="9.294750926147602"><ele>524.0</ele><time>2026-04-28T15:35:18.011Z</time></trkpt><trkpt lat="40.31151857658066" lon="9.294404960248302"><ele>524.0</ele><time>2026-04-28T15:35:19.011Z</time></trkpt><trkpt lat="40.311579474936146" lon="9.294056147362197"><ele>524.0</ele><time>2026-04-28T15:35:20.011Z</time></trkpt><trkpt lat="40.31163147928307" lon="9.293707640364044"><ele>526.0</ele><time>2026-04-28T15:35:21.011Z</time></trkpt><trkpt lat="40.311679503383075" lon="9.293349152811185"><ele>528.0</ele><time>2026-04-28T15:35:22.011Z</time></trkpt><trkpt lat="40.31171576450276" lon="9.292991399649225"><ele>530.0</ele><time>2026-04-28T15:35:23.011Z</time></trkpt><trkpt lat="40.31174389252043" lon="9.292629875954294"><ele>532.0</ele><time>2026-04-28T15:35:24.011Z</time></trkpt><trkpt lat="40.311764346951456" lon="9.292271785546808"><ele>534.5</ele><time>2026-04-28T15:35:25.011Z</time></trkpt><trkpt lat="40.31177912394988" lon="9.291912048881747"><ele>537.0</ele><time>2026-04-28T15:35:26.011Z</time></trkpt><trkpt lat="40.31179291728473" lon="9.291547206788671"><ele>538.5</ele><time>2026-04-28T15:35:27.011Z</time></trkpt><trkpt lat="40.31180570141603" lon="9.291183042258105"><ele>540.0</ele><time>2026-04-28T15:35:28.011Z</time></trkpt><trkpt lat="40.31181869502771" lon="9.290816907244821"><ele>540.5</ele><time>2026-04-28T15:35:29.011Z</time></trkpt><trkpt lat="40.311831409081556" lon="9.29045153508518"><ele>541.0</ele><time>2026-04-28T15:35:30.011Z</time></trkpt><trkpt lat="40.31184134907357" lon="9.290081308253782"><ele>541.5</ele><time>2026-04-28T15:35:31.011Z</time></trkpt><trkpt lat="40.311843579354495" lon="9.289706316073918"><ele>542.0</ele><time>2026-04-28T15:35:32.011Z</time></trkpt><trkpt lat="40.31184625906926" lon="9.289330456749326"><ele>542.0</ele><time>2026-04-28T15:35:33.011Z</time></trkpt><trkpt lat="40.31185095808226" lon="9.288957419357402"><ele>542.0</ele><time>2026-04-28T15:35:34.011Z</time></trkpt><trkpt lat="40.31184378506374" lon="9.288580560405913"><ele>543.0</ele><time>2026-04-28T15:35:35.011Z</time></trkpt><trkpt lat="40.31182394416301" lon="9.288203182195778"><ele>544.0</ele><time>2026-04-28T15:35:36.011Z</time></trkpt><trkpt lat="40.311792840659876" lon="9.287830015906891"><ele>545.0</ele><time>2026-04-28T15:35:37.011Z</time></trkpt><trkpt lat="40.31175275038089" lon="9.287467302093452"><ele>546.0</ele><time>2026-04-28T15:35:38.011Z</time></trkpt><trkpt lat="40.31170316125987" lon="9.287136038910146"><ele>547.0</ele><time>2026-04-28T15:35:39.011Z</time></trkpt><trkpt lat="40.31164662307169" lon="9.286826290421308"><ele>548.0</ele><time>2026-04-28T15:35:40.011Z</time></trkpt><trkpt lat="40.31159173504228" lon="9.286536303653044"><ele>548.3333333333333</ele><time>2026-04-28T15:35:41.011Z</time></trkpt><trkpt lat="40.3115370180687" lon="9.286259372140638"><ele>548.6666666666666</ele><time>2026-04-28T15:35:42.011Z</time></trkpt><trkpt lat="40.31147829628042" lon="9.285993330003954"><ele>549.0</ele><time>2026-04-28T15:35:43.011Z</time></trkpt><trkpt lat="40.311415544435555" lon="9.28573100096651"><ele>548.6666666666666</ele><time>2026-04-28T15:35:44.011Z</time></trkpt><trkpt lat="40.31135352255619" lon="9.285486310028883"><ele>548.3333333333333</ele><time>2026-04-28T15:35:45.011Z</time></trkpt><trkpt lat="40.31129710414382" lon="9.285251386387081"><ele>548.0</ele><time>2026-04-28T15:35:46.011Z</time></trkpt><trkpt lat="40.31123773977337" lon="9.28501360754969"><ele>547.6666666666666</ele><time>2026-04-28T15:35:47.011Z</time></trkpt><trkpt lat="40.31117259837779" lon="9.284762321405054"><ele>547.3333333333334</ele><time>2026-04-28T15:35:48.011Z</time></trkpt><trkpt lat="40.311111607014034" lon="9.28449595300114"><ele>547.0</ele><time>2026-04-28T15:35:49.011Z</time></trkpt><trkpt lat="40.31104839410311" lon="9.284228169176888"><ele>547.0</ele><time>2026-04-28T15:35:50.011Z</time></trkpt><trkpt lat="40.31098972266824" lon="9.283949276893685"><ele>547.0</ele><time>2026-04-28T15:35:51.011Z</time></trkpt><trkpt lat="40.310928872227635" lon="9.283664737873748"><ele>547.0</ele><time>2026-04-28T15:35:52.011Z</time></trkpt><trkpt lat="40.310860811909635" lon="9.28337856512154"><ele>545.5</ele><time>2026-04-28T15:35:53.01Z</time></trkpt><trkpt lat="40.31079340030597" lon="9.283079507501643"><ele>544.0</ele><time>2026-04-28T15:35:54.01Z</time></trkpt><trkpt lat="40.310721507692136" lon="9.282773721457884"><ele>544.0</ele><time>2026-04-28T15:35:55.01Z</time></trkpt><trkpt lat="40.310652941207245" lon="9.282463534675143"><ele>544.0</ele><time>2026-04-28T15:35:56.01Z</time></trkpt><trkpt lat="40.3105888609779" lon="9.282170684916927"><ele>542.3333333333334</ele><time>2026-04-28T15:35:57.01Z</time></trkpt><trkpt lat="40.31052381134186" lon="9.281893735640516"><ele>540.6666666666666</ele><time>2026-04-28T15:35:58.01Z</time></trkpt><trkpt lat="40.31046244240214" lon="9.2816329400158"><ele>539.0</ele><time>2026-04-28T15:35:59.01Z</time></trkpt><trkpt lat="40.310405403054006" lon="9.281381319507824"><ele>538.6666666666666</ele><time>2026-04-28T15:36:00.01Z</time></trkpt><trkpt lat="40.310352214239174" lon="9.281136268336494"><ele>538.3333333333334</ele><time>2026-04-28T15:36:01.01Z</time></trkpt><trkpt lat="40.31030993253464" lon="9.28091762080459"><ele>538.0</ele><time>2026-04-28T15:36:02.01Z</time></trkpt><trkpt lat="40.31027439168055" lon="9.280709069516995"><ele>538.5</ele><time>2026-04-28T15:36:03.01Z</time></trkpt><trkpt lat="40.31023382592488" lon="9.280511647800369"><ele>539.0</ele><time>2026-04-28T15:36:04.01Z</time></trkpt><trkpt lat="40.31018214550744" lon="9.280339240931221"><ele>539.5</ele><time>2026-04-28T15:36:05.01Z</time></trkpt><trkpt lat="40.310106600350885" lon="9.280208299558563"><ele>540.0</ele><time>2026-04-28T15:36:06.01Z</time></trkpt><trkpt lat="40.31001731780944" lon="9.280123911746163"><ele>540.0</ele><time>2026-04-28T15:36:07.01Z</time></trkpt><trkpt lat="40.30992398708522" lon="9.28008036355644"><ele>540.0</ele><time>2026-04-28T15:36:08.01Z</time></trkpt><trkpt lat="40.309829726222226" lon="9.28007623020359"><ele>540.0</ele><time>2026-04-28T15:36:09.01Z</time></trkpt><trkpt lat="40.30973206600455" lon="9.280111327539899"><ele>540.0</ele><time>2026-04-28T15:36:10.01Z</time></trkpt><trkpt lat="40.309635002796576" lon="9.280183518779205"><ele>540.0</ele><time>2026-04-28T15:36:11.01Z</time></trkpt><trkpt lat="40.30955277618664" lon="9.280286857746827"><ele>539.25</ele><time>2026-04-28T15:36:12.01Z</time></trkpt><trkpt lat="40.309487887679495" lon="9.280405301512737"><ele>538.5</ele><time>2026-04-28T15:36:13.01Z</time></trkpt><trkpt lat="40.30942565079061" lon="9.280528065391286"><ele>537.75</ele><time>2026-04-28T15:36:14.01Z</time></trkpt><trkpt lat="40.30934771456782" lon="9.280642306753519"><ele>537.0</ele><time>2026-04-28T15:36:15.01Z</time></trkpt><trkpt lat="40.309257152473634" lon="9.280733090406764"><ele>536.5</ele><time>2026-04-28T15:36:16.01Z</time></trkpt><trkpt lat="40.309153727831514" lon="9.28077953659727"><ele>536.0</ele><time>2026-04-28T15:36:17.01Z</time></trkpt><trkpt lat="40.30903894694709" lon="9.280800178874609"><ele>535.5</ele><time>2026-04-28T15:36:18.01Z</time></trkpt><trkpt lat="40.30891221233069" lon="9.280790426635036"><ele>535.0</ele><time>2026-04-28T15:36:19.01Z</time></trkpt><trkpt lat="40.30878549428611" lon="9.280765235954709"><ele>534.0</ele><time>2026-04-28T15:36:20.01Z</time></trkpt><trkpt lat="40.30864367116751" lon="9.280748762951413"><ele>533.0</ele><time>2026-04-28T15:36:21.01Z</time></trkpt><trkpt lat="40.30846856977731" lon="9.280725695156816"><ele>532.0</ele><time>2026-04-28T15:36:22.01Z</time></trkpt><trkpt lat="40.30827509581839" lon="9.280672217508883"><ele>531.3333333333334</ele><time>2026-04-28T15:36:23.01Z</time></trkpt><trkpt lat="40.30806948171452" lon="9.280602002101567"><ele>530.6666666666666</ele><time>2026-04-28T15:36:24.01Z</time></trkpt><trkpt lat="40.30785239235803" lon="9.28051931321377"><ele>530.0</ele><time>2026-04-28T15:36:25.01Z</time></trkpt><trkpt lat="40.307631518655796" lon="9.28041417998256"><ele>532.0</ele><time>2026-04-28T15:36:26.01Z</time></trkpt><trkpt lat="40.30740259032382" lon="9.280288422492404"><ele>534.0</ele><time>2026-04-28T15:36:27.01Z</time></trkpt><trkpt lat="40.30717415158456" lon="9.280146313126156"><ele>534.5</ele><time>2026-04-28T15:36:28.01Z</time></trkpt><trkpt lat="40.30694583907553" lon="9.2799932741967"><ele>535.0</ele><time>2026-04-28T15:36:29.01Z</time></trkpt><trkpt lat="40.306715276340505" lon="9.27983177606504"><ele>535.5</ele><time>2026-04-28T15:36:30.01Z</time></trkpt><trkpt lat="40.30648603239595" lon="9.279665580627077"><ele>536.0</ele><time>2026-04-28T15:36:31.01Z</time></trkpt><trkpt lat="40.306254654303935" lon="9.279493328237184"><ele>536.0</ele><time>2026-04-28T15:36:32.01Z</time></trkpt><trkpt lat="40.306028884004625" lon="9.279323208253956"><ele>536.0</ele><time>2026-04-28T15:36:33.01Z</time></trkpt><trkpt lat="40.305802951434686" lon="9.279157027212305"><ele>534.0</ele><time>2026-04-28T15:36:34.01Z</time></trkpt><trkpt lat="40.30557177028195" lon="9.27897886372049"><ele>532.0</ele><time>2026-04-28T15:36:35.01Z</time></trkpt><trkpt lat="40.30534496276789" lon="9.278807108025822"><ele>530.5</ele><time>2026-04-28T15:36:36.01Z</time></trkpt><trkpt lat="40.30511693386079" lon="9.278637835733695"><ele>529.0</ele><time>2026-04-28T15:36:37.01Z</time></trkpt><trkpt lat="40.304899625415025" lon="9.278478491629702"><ele>527.5</ele><time>2026-04-28T15:36:38.01Z</time></trkpt><trkpt lat="40.30469028286756" lon="9.278322005162037"><ele>526.0</ele><time>2026-04-28T15:36:39.01Z</time></trkpt><trkpt lat="40.30447045595423" lon="9.27815857954521"><ele>525.0</ele><time>2026-04-28T15:36:40.01Z</time></trkpt><trkpt lat="40.304242474705546" lon="9.277990571377245"><ele>524.0</ele><time>2026-04-28T15:36:41.01Z</time></trkpt><trkpt lat="40.304011171482486" lon="9.277817133490034"><ele>523.5</ele><time>2026-04-28T15:36:42.01Z</time></trkpt><trkpt lat="40.303790460701165" lon="9.277648330288349"><ele>523.0</ele><time>2026-04-28T15:36:43.01Z</time></trkpt><trkpt lat="40.3035814932814" lon="9.277488365691617"><ele>523.0</ele><time>2026-04-28T15:36:44.01Z</time></trkpt><trkpt lat="40.303374113690076" lon="9.277333189008168"><ele>523.0</ele><time>2026-04-28T15:36:45.01Z</time></trkpt><trkpt lat="40.30316109310735" lon="9.277171675639867"><ele>522.0</ele><time>2026-04-28T15:36:46.01Z</time></trkpt><trkpt lat="40.30294322795809" lon="9.277003087956972"><ele>521.0</ele><time>2026-04-28T15:36:47.01Z</time></trkpt><trkpt lat="40.30271945732601" lon="9.276835007457203"><ele>521.0</ele><time>2026-04-28T15:36:48.01Z</time></trkpt><trkpt lat="40.30249004381156" lon="9.27666174925627"><ele>521.0</ele><time>2026-04-28T15:36:49.01Z</time></trkpt><trkpt lat="40.30226133958594" lon="9.27648952659995"><ele>520.0</ele><time>2026-04-28T15:36:50.01Z</time></trkpt><trkpt lat="40.302031304270116" lon="9.276318103600785"><ele>519.0</ele><time>2026-04-28T15:36:51.01Z</time></trkpt><trkpt lat="40.30179524700671" lon="9.27614217464021"><ele>519.0</ele><time>2026-04-28T15:36:52.01Z</time></trkpt><trkpt lat="40.30156412925329" lon="9.27596245004456"><ele>519.0</ele><time>2026-04-28T15:36:53.01Z</time></trkpt><trkpt lat="40.30132886417505" lon="9.275776395891793"><ele>519.0</ele><time>2026-04-28T15:36:54.01Z</time></trkpt><trkpt lat="40.30109233319317" lon="9.275590930801911"><ele>519.0</ele><time>2026-04-28T15:36:55.01Z</time></trkpt><trkpt lat="40.3008563480336" lon="9.275391940100393"><ele>519.0</ele><time>2026-04-28T15:36:56.01Z</time></trkpt><trkpt lat="40.3006195390975" lon="9.275176679205961"><ele>519.0</ele><time>2026-04-28T15:36:57.01Z</time></trkpt><trkpt lat="40.300390652341044" lon="9.274947748929046"><ele>518.0</ele><time>2026-04-28T15:36:58.01Z</time></trkpt><trkpt lat="40.300167125425475" lon="9.274704659294363"><ele>517.0</ele><time>2026-04-28T15:36:59.01Z</time></trkpt><trkpt lat="40.29995223745642" lon="9.274448018103529"><ele>516.5</ele><time>2026-04-28T15:37:00.01Z</time></trkpt><trkpt lat="40.29974272192082" lon="9.274180066364096"><ele>516.0</ele><time>2026-04-28T15:37:01.01Z</time></trkpt><trkpt lat="40.299531337807025" lon="9.273908108019507"><ele>516.0</ele><time>2026-04-28T15:37:02.01Z</time></trkpt><trkpt lat="40.299319114114866" lon="9.273636652161342"><ele>516.0</ele><time>2026-04-28T15:37:03.01Z</time></trkpt><trkpt lat="40.299107267833456" lon="9.273362625685316"><ele>516.0</ele><time>2026-04-28T15:37:04.01Z</time></trkpt><trkpt lat="40.298894441618444" lon="9.273084432953887"><ele>516.0</ele><time>2026-04-28T15:37:05.01Z</time></trkpt><trkpt lat="40.29867949340182" lon="9.272807902353444"><ele>516.0</ele><time>2026-04-28T15:37:06.01Z</time></trkpt><trkpt lat="40.29846429535706" lon="9.272534703625901"><ele>516.0</ele><time>2026-04-28T15:37:07.01Z</time></trkpt><trkpt lat="40.29825092946742" lon="9.272266092897157"><ele>516.0</ele><time>2026-04-28T15:37:08.011Z</time></trkpt><trkpt lat="40.2980401251107" lon="9.271995252358233"><ele>516.0</ele><time>2026-04-28T15:37:09.011Z</time></trkpt><trkpt lat="40.29783006390306" lon="9.27172588221323"><ele>516.0</ele><time>2026-04-28T15:37:10.011Z</time></trkpt><trkpt lat="40.297619126271385" lon="9.271455893970694"><ele>516.0</ele><time>2026-04-28T15:37:11.011Z</time></trkpt><trkpt lat="40.297408432571736" lon="9.271186334377427"><ele>517.5</ele><time>2026-04-28T15:37:12.011Z</time></trkpt><trkpt lat="40.29719548043884" lon="9.270914969066528"><ele>519.0</ele><time>2026-04-28T15:37:13.011Z</time></trkpt><trkpt lat="40.29698696242432" lon="9.270643035106216"><ele>521.5</ele><time>2026-04-28T15:37:14.011Z</time></trkpt><trkpt lat="40.296775124175895" lon="9.270366543586123"><ele>524.0</ele><time>2026-04-28T15:37:15.012Z</time></trkpt><trkpt lat="40.296562690060014" lon="9.270089878608811"><ele>524.5</ele><time>2026-04-28T15:37:16.012Z</time></trkpt><trkpt lat="40.296350022038624" lon="9.269813714134056"><ele>525.0</ele><time>2026-04-28T15:37:17.011Z</time></trkpt><trkpt lat="40.296134391813176" lon="9.269537683219099"><ele>525.0</ele><time>2026-04-28T15:37:18.011Z</time></trkpt><trkpt lat="40.295918428486026" lon="9.269258746270554"><ele>525.0</ele><time>2026-04-28T15:37:19.011Z</time></trkpt><trkpt lat="40.295704313439245" lon="9.268986775135014"><ele>525.5</ele><time>2026-04-28T15:37:20.011Z</time></trkpt><trkpt lat="40.2954914951253" lon="9.268709409018125"><ele>526.0</ele><time>2026-04-28T15:37:21.011Z</time></trkpt><trkpt lat="40.29527617814008" lon="9.26843737148034"><ele>526.0</ele><time>2026-04-28T15:37:22.011Z</time></trkpt><trkpt lat="40.295060167435885" lon="9.26816624470469"><ele>526.0</ele><time>2026-04-28T15:37:23.011Z</time></trkpt><trkpt lat="40.294845749392856" lon="9.267892263214845"><ele>527.5</ele><time>2026-04-28T15:37:24.011Z</time></trkpt><trkpt lat="40.29463015612967" lon="9.267621787109308"><ele>529.0</ele><time>2026-04-28T15:37:25.011Z</time></trkpt><trkpt lat="40.294414254079776" lon="9.2673519754379"><ele>530.5</ele><time>2026-04-28T15:37:26.011Z</time></trkpt><trkpt lat="40.29419584012362" lon="9.267082933013235"><ele>532.0</ele><time>2026-04-28T15:37:27.011Z</time></trkpt><trkpt lat="40.293975410480044" lon="9.26681799962802"><ele>533.0</ele><time>2026-04-28T15:37:28.011Z</time></trkpt><trkpt lat="40.293755391218674" lon="9.266557230359693"><ele>534.0</ele><time>2026-04-28T15:37:29.011Z</time></trkpt><trkpt lat="40.29353054010869" lon="9.266299130575325"><ele>534.5</ele><time>2026-04-28T15:37:30.011Z</time></trkpt><trkpt lat="40.293302911500504" lon="9.266041766995393"><ele>535.0</ele><time>2026-04-28T15:37:31.011Z</time></trkpt><trkpt lat="40.29307294257418" lon="9.265789469550205"><ele>537.5</ele><time>2026-04-28T15:37:32.011Z</time></trkpt><trkpt lat="40.29283848757744" lon="9.265539280914897"><ele>540.0</ele><time>2026-04-28T15:37:33.011Z</time></trkpt><trkpt lat="40.29260043216223" lon="9.26529784718149"><ele>540.0</ele><time>2026-04-28T15:37:34.011Z</time></trkpt><trkpt lat="40.29235946057081" lon="9.265061741309353"><ele>540.0</ele><time>2026-04-28T15:37:35.011Z</time></trkpt><trkpt lat="40.292116652965234" lon="9.26483005881718"><ele>542.5</ele><time>2026-04-28T15:37:36.011Z</time></trkpt><trkpt lat="40.29187149942998" lon="9.264599574510834"><ele>545.0</ele><time>2026-04-28T15:37:37.011Z</time></trkpt><trkpt lat="40.29162463506542" lon="9.264379041301357"><ele>546.0</ele><time>2026-04-28T15:37:38.011Z</time></trkpt><trkpt lat="40.29137519078692" lon="9.264161999534842"><ele>547.0</ele><time>2026-04-28T15:37:39.011Z</time></trkpt><trkpt lat="40.29112147301562" lon="9.263953533721125"><ele>548.0</ele><time>2026-04-28T15:37:40.011Z</time></trkpt><trkpt lat="40.290866821529015" lon="9.26374948197029"><ele>549.0</ele><time>2026-04-28T15:37:41.011Z</time></trkpt><trkpt lat="40.29060984062722" lon="9.263551847054929"><ele>553.0</ele><time>2026-04-28T15:37:42.011Z</time></trkpt><trkpt lat="40.290350706368095" lon="9.263358603354042"><ele>557.0</ele><time>2026-04-28T15:37:43.011Z</time></trkpt><trkpt lat="40.29009093676387" lon="9.263169104277662"><ele>558.5</ele><time>2026-04-28T15:37:44.011Z</time></trkpt><trkpt lat="40.28983011789073" lon="9.262981939039332"><ele>560.0</ele><time>2026-04-28T15:37:45.011Z</time></trkpt><trkpt lat="40.289568770875675" lon="9.26280198221454"><ele>562.0</ele><time>2026-04-28T15:37:46.011Z</time></trkpt><trkpt lat="40.28930279171521" lon="9.262638137702929"><ele>564.0</ele><time>2026-04-28T15:37:47.011Z</time></trkpt><trkpt lat="40.2890296333501" lon="9.262467956296408"><ele>563.5</ele><time>2026-04-28T15:37:48.011Z</time></trkpt><trkpt lat="40.288760488990256" lon="9.262311639876915"><ele>563.0</ele><time>2026-04-28T15:37:49.011Z</time></trkpt><trkpt lat="40.28848332924737" lon="9.26216238632389"><ele>564.5</ele><time>2026-04-28T15:37:50.011Z</time></trkpt><trkpt lat="40.28820605964737" lon="9.262014177743929"><ele>566.0</ele><time>2026-04-28T15:37:51.011Z</time></trkpt><trkpt lat="40.28792901190561" lon="9.261870448476987"><ele>566.5</ele><time>2026-04-28T15:37:52.011Z</time></trkpt><trkpt lat="40.28764457083669" lon="9.261731413862309"><ele>567.0</ele><time>2026-04-28T15:37:53.011Z</time></trkpt><trkpt lat="40.28735863945224" lon="9.261601513727076"><ele>568.0</ele><time>2026-04-28T15:37:54.011Z</time></trkpt><trkpt lat="40.2870750720527" lon="9.26147751915234"><ele>569.0</ele><time>2026-04-28T15:37:55.011Z</time></trkpt><trkpt lat="40.28678629616387" lon="9.261362350116357"><ele>572.0</ele><time>2026-04-28T15:37:56.011Z</time></trkpt><trkpt lat="40.28649505505853" lon="9.2612528983377"><ele>575.0</ele><time>2026-04-28T15:37:57.011Z</time></trkpt><trkpt lat="40.28620042434955" lon="9.261147465470694"><ele>575.0</ele><time>2026-04-28T15:37:58.011Z</time></trkpt><trkpt lat="40.28590772551179" lon="9.261050856906644"><ele>575.0</ele><time>2026-04-28T15:37:59.011Z</time></trkpt><trkpt lat="40.28561306805018" lon="9.26095922843269"><ele>574.0</ele><time>2026-04-28T15:38:00.011Z</time></trkpt><trkpt lat="40.285315730189104" lon="9.260868581503555"><ele>573.0</ele><time>2026-04-28T15:38:01.011Z</time></trkpt><trkpt lat="40.28501762116151" lon="9.260790705074571"><ele>572.0</ele><time>2026-04-28T15:38:02.011Z</time></trkpt><trkpt lat="40.28471784906856" lon="9.260718915711893"><ele>571.0</ele><time>2026-04-28T15:38:03.011Z</time></trkpt><trkpt lat="40.2844164966104" lon="9.260655384867638"><ele>573.5</ele><time>2026-04-28T15:38:04.011Z</time></trkpt><trkpt lat="40.284111848843594" lon="9.260587541675937"><ele>576.0</ele><time>2026-04-28T15:38:05.011Z</time></trkpt><trkpt lat="40.283813589712416" lon="9.260517092959722"><ele>577.5</ele><time>2026-04-28T15:38:06.011Z</time></trkpt><trkpt lat="40.283517490997504" lon="9.26044859879383"><ele>579.0</ele><time>2026-04-28T15:38:07.011Z</time></trkpt><trkpt lat="40.28322528749924" lon="9.260382657284326"><ele>578.5</ele><time>2026-04-28T15:38:08.011Z</time></trkpt><trkpt lat="40.282928149365866" lon="9.260317262392334"><ele>578.0</ele><time>2026-04-28T15:38:09.011Z</time></trkpt><trkpt lat="40.28262722552129" lon="9.260252449494773"><ele>578.0</ele><time>2026-04-28T15:38:10.011Z</time></trkpt><trkpt lat="40.282327537850385" lon="9.26019559209888"><ele>578.0</ele><time>2026-04-28T15:38:11.011Z</time></trkpt><trkpt lat="40.282030630026036" lon="9.260139477965057"><ele>577.5</ele><time>2026-04-28T15:38:12.011Z</time></trkpt><trkpt lat="40.281731753997235" lon="9.260084761484952"><ele>577.0</ele><time>2026-04-28T15:38:13.011Z</time></trkpt><trkpt lat="40.28143528810763" lon="9.26002646316848"><ele>580.0</ele><time>2026-04-28T15:38:14.011Z</time></trkpt><trkpt lat="40.281137083365955" lon="9.259969064000797"><ele>583.0</ele><time>2026-04-28T15:38:15.011Z</time></trkpt><trkpt lat="40.28083583592131" lon="9.25991205206027"><ele>584.5</ele><time>2026-04-28T15:38:16.011Z</time></trkpt><trkpt lat="40.28053683151806" lon="9.259857235234996"><ele>586.0</ele><time>2026-04-28T15:38:17.011Z</time></trkpt><trkpt lat="40.28023788298179" lon="9.259799222988773"><ele>587.5</ele><time>2026-04-28T15:38:18.011Z</time></trkpt><trkpt lat="40.279937150783255" lon="9.259742839765334"><ele>589.0</ele><time>2026-04-28T15:38:19.011Z</time></trkpt><trkpt lat="40.27963549685346" lon="9.259684248932485"><ele>591.0</ele><time>2026-04-28T15:38:20.011Z</time></trkpt><trkpt lat="40.27933202010119" lon="9.259625274215448"><ele>593.0</ele><time>2026-04-28T15:38:21.011Z</time></trkpt><trkpt lat="40.27902816797777" lon="9.259564099514934"><ele>591.0</ele><time>2026-04-28T15:38:22.011Z</time></trkpt><trkpt lat="40.278729778846284" lon="9.259501101422577"><ele>589.0</ele><time>2026-04-28T15:38:23.011Z</time></trkpt><trkpt lat="40.27843368012323" lon="9.259434651355555"><ele>589.0</ele><time>2026-04-28T15:38:24.011Z</time></trkpt><trkpt lat="40.27813933327774" lon="9.259363838218546"><ele>589.0</ele><time>2026-04-28T15:38:25.011Z</time></trkpt><trkpt lat="40.27784875553265" lon="9.259287153161537"><ele>586.5</ele><time>2026-04-28T15:38:26.011Z</time></trkpt><trkpt lat="40.27756336590152" lon="9.259206730736095"><ele>584.0</ele><time>2026-04-28T15:38:27.011Z</time></trkpt><trkpt lat="40.27727969290942" lon="9.259117313848401"><ele>583.0</ele><time>2026-04-28T15:38:28.011Z</time></trkpt><trkpt lat="40.27699732983991" lon="9.259020486902964"><ele>582.0</ele><time>2026-04-28T15:38:29.011Z</time></trkpt><trkpt lat="40.27671825206351" lon="9.258916512656258"><ele>582.0</ele><time>2026-04-28T15:38:30.011Z</time></trkpt><trkpt lat="40.27644015009877" lon="9.258805567219678"><ele>582.0</ele><time>2026-04-28T15:38:31.011Z</time></trkpt><trkpt lat="40.27616397995011" lon="9.258685267599938"><ele>580.5</ele><time>2026-04-28T15:38:32.011Z</time></trkpt><trkpt lat="40.27588739524195" lon="9.258556063942253"><ele>579.0</ele><time>2026-04-28T15:38:33.011Z</time></trkpt><trkpt lat="40.275615950958965" lon="9.258417376772833"><ele>582.5</ele><time>2026-04-28T15:38:34.011Z</time></trkpt><trkpt lat="40.275346125016576" lon="9.258269578464555"><ele>586.0</ele><time>2026-04-28T15:38:35.011Z</time></trkpt><trkpt lat="40.27507958257047" lon="9.258111824410069"><ele>588.0</ele><time>2026-04-28T15:38:36.011Z</time></trkpt><trkpt lat="40.274814708031315" lon="9.257943180835062"><ele>590.0</ele><time>2026-04-28T15:38:37.011Z</time></trkpt><trkpt lat="40.27454979702775" lon="9.257764958681454"><ele>591.0</ele><time>2026-04-28T15:38:38.011Z</time></trkpt><trkpt lat="40.274286546758326" lon="9.257580196904483"><ele>592.0</ele><time>2026-04-28T15:38:39.011Z</time></trkpt><trkpt lat="40.27402892065655" lon="9.257383889578582"><ele>593.0</ele><time>2026-04-28T15:38:40.011Z</time></trkpt><trkpt lat="40.27377486562997" lon="9.257177851842588"><ele>594.0</ele><time>2026-04-28T15:38:41.011Z</time></trkpt><trkpt lat="40.273522267129955" lon="9.256965105864671"><ele>594.0</ele><time>2026-04-28T15:38:42.011Z</time></trkpt><trkpt lat="40.27327562985649" lon="9.256742607624465"><ele>594.0</ele><time>2026-04-28T15:38:43.011Z</time></trkpt><trkpt lat="40.27303091595597" lon="9.256513235205903"><ele>591.5</ele><time>2026-04-28T15:38:44.011Z</time></trkpt><trkpt lat="40.27278686104018" lon="9.256277550382023"><ele>589.0</ele><time>2026-04-28T15:38:45.011Z</time></trkpt><trkpt lat="40.27254471968837" lon="9.25603371312031"><ele>589.0</ele><time>2026-04-28T15:38:46.011Z</time></trkpt><trkpt lat="40.27230543780669" lon="9.255791488892111"><ele>589.0</ele><time>2026-04-28T15:38:47.011Z</time></trkpt><trkpt lat="40.27206723834194" lon="9.255548297843877"><ele>588.5</ele><time>2026-04-28T15:38:48.011Z</time></trkpt><trkpt lat="40.27182790125144" lon="9.255302168526804"><ele>588.0</ele><time>2026-04-28T15:38:49.011Z</time></trkpt><trkpt lat="40.271602941503595" lon="9.25503801962609"><ele>583.0</ele><time>2026-04-28T15:38:50.011Z</time></trkpt><trkpt lat="40.271383464030464" lon="9.254769055690598"><ele>578.0</ele><time>2026-04-28T15:38:51.011Z</time></trkpt><trkpt lat="40.27116248190328" lon="9.254504981042155"><ele>578.0</ele><time>2026-04-28T15:38:52.011Z</time></trkpt><trkpt lat="40.27093729003996" lon="9.254245189361535"><ele>578.0</ele><time>2026-04-28T15:38:53.011Z</time></trkpt><trkpt lat="40.27070914359752" lon="9.253990952954695"><ele>573.5</ele><time>2026-04-28T15:38:54.011Z</time></trkpt><trkpt lat="40.270482276942865" lon="9.253733197407461"><ele>569.0</ele><time>2026-04-28T15:38:55.011Z</time></trkpt><trkpt lat="40.270252538899456" lon="9.253475902161473"><ele>569.0</ele><time>2026-04-28T15:38:56.011Z</time></trkpt><trkpt lat="40.27002484019455" lon="9.253216274623126"><ele>569.0</ele><time>2026-04-28T15:38:57.011Z</time></trkpt><trkpt lat="40.26979506743203" lon="9.252957921162134"><ele>567.5</ele><time>2026-04-28T15:38:58.011Z</time></trkpt><trkpt lat="40.26956053987983" lon="9.252709660160338"><ele>566.0</ele><time>2026-04-28T15:38:59.011Z</time></trkpt><trkpt lat="40.26932156400047" lon="9.252475395109332"><ele>565.0</ele><time>2026-04-28T15:39:00.011Z</time></trkpt><trkpt lat="40.26908133846514" lon="9.252250451662972"><ele>564.0</ele><time>2026-04-28T15:39:01.011Z</time></trkpt><trkpt lat="40.26883463205023" lon="9.252037399093027"><ele>564.0</ele><time>2026-04-28T15:39:02.011Z</time></trkpt><trkpt lat="40.268578622878955" lon="9.251836543282117"><ele>564.0</ele><time>2026-04-28T15:39:03.011Z</time></trkpt><trkpt lat="40.26831606805591" lon="9.251643152785935"><ele>564.0</ele><time>2026-04-28T15:39:04.011Z</time></trkpt><trkpt lat="40.26804493435341" lon="9.251465735854927"><ele>564.0</ele><time>2026-04-28T15:39:05.011Z</time></trkpt><trkpt lat="40.26776917366991" lon="9.25129569010209"><ele>564.0</ele><time>2026-04-28T15:39:06.011Z</time></trkpt><trkpt lat="40.26748978346227" lon="9.251146465700614"><ele>564.0</ele><time>2026-04-28T15:39:07.011Z</time></trkpt><trkpt lat="40.26720868133157" lon="9.250999379574052"><ele>558.5</ele><time>2026-04-28T15:39:08.011Z</time></trkpt><trkpt lat="40.2669276222747" lon="9.250859256949866"><ele>553.0</ele><time>2026-04-28T15:39:09.01Z</time></trkpt><trkpt lat="40.26665043835697" lon="9.250719950386621"><ele>549.0</ele><time>2026-04-28T15:39:10.01Z</time></trkpt><trkpt lat="40.266376081462525" lon="9.250585321822202"><ele>545.0</ele><time>2026-04-28T15:39:11.01Z</time></trkpt><trkpt lat="40.26610014762373" lon="9.25044551559141"><ele>545.0</ele><time>2026-04-28T15:39:12.01Z</time></trkpt><trkpt lat="40.26582542046363" lon="9.250305550445022"><ele>545.0</ele><time>2026-04-28T15:39:13.01Z</time></trkpt><trkpt lat="40.26555279169758" lon="9.25016879617817"><ele>543.0</ele><time>2026-04-28T15:39:14.012Z</time></trkpt><trkpt lat="40.265278889112125" lon="9.250036640190931"><ele>541.0</ele><time>2026-04-28T15:39:15.011Z</time></trkpt><trkpt lat="40.265004283987054" lon="9.24990200097701"><ele>541.0</ele><time>2026-04-28T15:39:16.011Z</time></trkpt><trkpt lat="40.26472648047183" lon="9.249767666173877"><ele>541.0</ele><time>2026-04-28T15:39:17.011Z</time></trkpt><trkpt lat="40.26444732423184" lon="9.249629869891368"><ele>541.0</ele><time>2026-04-28T15:39:18.012Z</time></trkpt><trkpt lat="40.2641688232253" lon="9.249490000963078"><ele>541.0</ele><time>2026-04-28T15:39:19.012Z</time></trkpt><trkpt lat="40.263890012772976" lon="9.249350147714104"><ele>539.5</ele><time>2026-04-28T15:39:20.012Z</time></trkpt><trkpt lat="40.26361381774711" lon="9.249210140716945"><ele>538.0</ele><time>2026-04-28T15:39:21.011Z</time></trkpt><trkpt lat="40.2633351533164" lon="9.249071534419437"><ele>540.0</ele><time>2026-04-28T15:39:22.011Z</time></trkpt><trkpt lat="40.263057063684776" lon="9.248931982818215"><ele>542.0</ele><time>2026-04-28T15:39:23.012Z</time></trkpt><trkpt lat="40.26277790318711" lon="9.24879128503235"><ele>542.0</ele><time>2026-04-28T15:39:24.012Z</time></trkpt><trkpt lat="40.262496233026354" lon="9.248654437037473"><ele>542.0</ele><time>2026-04-28T15:39:25.011Z</time></trkpt><trkpt lat="40.262214725524416" lon="9.248519408480142"><ele>538.5</ele><time>2026-04-28T15:39:26.012Z</time></trkpt><trkpt lat="40.26193144725531" lon="9.248384818799554"><ele>535.0</ele><time>2026-04-28T15:39:27.012Z</time></trkpt><trkpt lat="40.26164459324069" lon="9.248244342665943"><ele>535.0</ele><time>2026-04-28T15:39:28.012Z</time></trkpt><trkpt lat="40.261361520339484" lon="9.24809742495436"><ele>535.0</ele><time>2026-04-28T15:39:29.012Z</time></trkpt><trkpt lat="40.261079611857035" lon="9.247957924402408"><ele>535.0</ele><time>2026-04-28T15:39:30.012Z</time></trkpt><trkpt lat="40.2608006037421" lon="9.247815521089432"><ele>535.0</ele><time>2026-04-28T15:39:31.012Z</time></trkpt><trkpt lat="40.2605230214758" lon="9.247675829535051"><ele>532.0</ele><time>2026-04-28T15:39:32.012Z</time></trkpt><trkpt lat="40.260243151787996" lon="9.247534112801924"><ele>529.0</ele><time>2026-04-28T15:39:33.012Z</time></trkpt><trkpt lat="40.25996777345832" lon="9.24739655832548"><ele>525.0</ele><time>2026-04-28T15:39:34.012Z</time></trkpt><trkpt lat="40.25969247793208" lon="9.247254161394295"><ele>521.0</ele><time>2026-04-28T15:39:35.012Z</time></trkpt><trkpt lat="40.259420029938916" lon="9.24711617317921"><ele>521.0</ele><time>2026-04-28T15:39:36.012Z</time></trkpt><trkpt lat="40.25914661583641" lon="9.246985163865368"><ele>521.0</ele><time>2026-04-28T15:39:37.012Z</time></trkpt><trkpt lat="40.25887484106937" lon="9.246860733497591"><ele>516.0</ele><time>2026-04-28T15:39:38.012Z</time></trkpt><trkpt lat="40.258601566425874" lon="9.246751887985805"><ele>511.0</ele><time>2026-04-28T15:39:39.012Z</time></trkpt><trkpt lat="40.25832805545384" lon="9.246646970240908"><ele>506.5</ele><time>2026-04-28T15:39:40.012Z</time></trkpt><trkpt lat="40.25805047339141" lon="9.246565681059217"><ele>502.0</ele><time>2026-04-28T15:39:41.012Z</time></trkpt><trkpt lat="40.25776474240335" lon="9.24650190299769"><ele>497.5</ele><time>2026-04-28T15:39:42.012Z</time></trkpt><trkpt lat="40.25748033094878" lon="9.246457410122515"><ele>493.0</ele><time>2026-04-28T15:39:43.012Z</time></trkpt><trkpt lat="40.25720001979457" lon="9.246434702228939"><ele>488.0</ele><time>2026-04-28T15:39:44.012Z</time></trkpt><trkpt lat="40.25691894086616" lon="9.24644237121024"><ele>483.0</ele><time>2026-04-28T15:39:45.012Z</time></trkpt><trkpt lat="40.25664851483396" lon="9.246469821423553"><ele>463.0</ele><time>2026-04-28T15:39:46.012Z</time></trkpt><trkpt lat="40.256390349022894" lon="9.246519167605141"><ele>443.0</ele><time>2026-04-28T15:39:47.012Z</time></trkpt><trkpt lat="40.256139429247426" lon="9.246576724961088"><ele>443.0</ele><time>2026-04-28T15:39:48.012Z</time></trkpt><trkpt lat="40.25590515903786" lon="9.246652860587979"><ele>443.0</ele><time>2026-04-28T15:39:49.012Z</time></trkpt><trkpt lat="40.255689456329776" lon="9.246739886038245"><ele>441.0</ele><time>2026-04-28T15:39:50.012Z</time></trkpt><trkpt lat="40.25548765740615" lon="9.246830239839532"><ele>439.0</ele><time>2026-04-28T15:39:51.012Z</time></trkpt><trkpt lat="40.255290170988005" lon="9.246933894825656"><ele>437.0</ele><time>2026-04-28T15:39:52.012Z</time></trkpt><trkpt lat="40.255093842905694" lon="9.247065949887174"><ele>437.0</ele><time>2026-04-28T15:39:53.012Z</time></trkpt><trkpt lat="40.25490639144226" lon="9.247200099197471"><ele>437.0</ele><time>2026-04-28T15:39:54.012Z</time></trkpt><trkpt lat="40.25471744840229" lon="9.247339388936552"><ele>437.0</ele><time>2026-04-28T15:39:55.012Z</time></trkpt><trkpt lat="40.254539959662665" lon="9.247495190061487"><ele>449.0</ele><time>2026-04-28T15:39:56.012Z</time></trkpt><trkpt lat="40.254369565267204" lon="9.247661119469551"><ele>461.0</ele><time>2026-04-28T15:39:57.012Z</time></trkpt><trkpt lat="40.2542101486371" lon="9.247842671117109"><ele>473.0</ele><time>2026-04-28T15:39:58.012Z</time></trkpt><trkpt lat="40.25404916674643" lon="9.248029581886692"><ele>485.5</ele><time>2026-04-28T15:39:59.012Z</time></trkpt><trkpt lat="40.25389098634527" lon="9.248231335421456"><ele>498.0</ele><time>2026-04-28T15:40:00.012Z</time></trkpt><trkpt lat="40.253733285638994" lon="9.248453974658466"><ele>498.0</ele><time>2026-04-28T15:40:01.012Z</time></trkpt><trkpt lat="40.253568733230594" lon="9.2486882186013"><ele>498.0</ele><time>2026-04-28T15:40:02.012Z</time></trkpt><trkpt lat="40.25339650598101" lon="9.24893733275505"><ele>501.0</ele><time>2026-04-28T15:40:03.012Z</time></trkpt><trkpt lat="40.25322470794077" lon="9.249191826454098"><ele>504.0</ele><time>2026-04-28T15:40:04.012Z</time></trkpt><trkpt lat="40.253047883427634" lon="9.249445749714996"><ele>512.5</ele><time>2026-04-28T15:40:05.012Z</time></trkpt><trkpt lat="40.2528728994366" lon="9.249701888350508"><ele>521.0</ele><time>2026-04-28T15:40:06.012Z</time></trkpt><trkpt lat="40.252695745856286" lon="9.249960243533733"><ele>523.0</ele><time>2026-04-28T15:40:07.012Z</time></trkpt><trkpt lat="40.2525188731195" lon="9.250218865537734"><ele>525.0</ele><time>2026-04-28T15:40:08.012Z</time></trkpt><trkpt lat="40.25234237213914" lon="9.250482216285672"><ele>532.5</ele><time>2026-04-28T15:40:09.012Z</time></trkpt><trkpt lat="40.2521662186861" lon="9.250741721364097"><ele>540.0</ele><time>2026-04-28T15:40:10.012Z</time></trkpt><trkpt lat="40.25198754130836" lon="9.251005336335783"><ele>540.0</ele><time>2026-04-28T15:40:11.012Z</time></trkpt><trkpt lat="40.25181026496573" lon="9.25126573009709"><ele>540.0</ele><time>2026-04-28T15:40:12.011Z</time></trkpt><trkpt lat="40.25162886866525" lon="9.251521831021774"><ele>534.0</ele><time>2026-04-28T15:40:13.011Z</time></trkpt><trkpt lat="40.251450087134586" lon="9.251781917323921"><ele>528.0</ele><time>2026-04-28T15:40:14.011Z</time></trkpt><trkpt lat="40.25126715666093" lon="9.252046554844291"><ele>519.0</ele><time>2026-04-28T15:40:15.011Z</time></trkpt><trkpt lat="40.25108539641423" lon="9.252312457924328"><ele>510.0</ele><time>2026-04-28T15:40:16.011Z</time></trkpt><trkpt lat="40.250902560908024" lon="9.252578150997806"><ele>510.0</ele><time>2026-04-28T15:40:17.011Z</time></trkpt><trkpt lat="40.25072854106456" lon="9.252844061551832"><ele>510.0</ele><time>2026-04-28T15:40:18.011Z</time></trkpt><trkpt lat="40.25054212315521" lon="9.253100298652953"><ele>496.0</ele><time>2026-04-28T15:40:19.011Z</time></trkpt><trkpt lat="40.25036012211441" lon="9.253364813588608"><ele>482.0</ele><time>2026-04-28T15:40:20.011Z</time></trkpt><trkpt lat="40.25017755326903" lon="9.253629881574707"><ele>482.0</ele><time>2026-04-28T15:40:21.011Z</time></trkpt><trkpt lat="40.24999689423435" lon="9.253894386248094"><ele>482.0</ele><time>2026-04-28T15:40:22.011Z</time></trkpt><trkpt lat="40.24981583483692" lon="9.25415531609202"><ele>480.0</ele><time>2026-04-28T15:40:23.011Z</time></trkpt><trkpt lat="40.24963398791377" lon="9.254415552165998"><ele>478.0</ele><time>2026-04-28T15:40:24.011Z</time></trkpt><trkpt lat="40.24945079856967" lon="9.254678119985078"><ele>480.0</ele><time>2026-04-28T15:40:25.011Z</time></trkpt><trkpt lat="40.249270119842784" lon="9.254949553109476"><ele>482.0</ele><time>2026-04-28T15:40:26.011Z</time></trkpt><trkpt lat="40.24909070998941" lon="9.255214758486185"><ele>493.0</ele><time>2026-04-28T15:40:27.011Z</time></trkpt><trkpt lat="40.24890348471612" lon="9.255475294939062"><ele>504.0</ele><time>2026-04-28T15:40:28.011Z</time></trkpt><trkpt lat="40.24870907780457" lon="9.255729973370979"><ele>504.0</ele><time>2026-04-28T15:40:29.011Z</time></trkpt><trkpt lat="40.248517983835576" lon="9.25598227316426"><ele>504.0</ele><time>2026-04-28T15:40:30.011Z</time></trkpt><trkpt lat="40.24831931260587" lon="9.256232397530928"><ele>514.5</ele><time>2026-04-28T15:40:31.011Z</time></trkpt><trkpt lat="40.24811551235773" lon="9.256479661408815"><ele>525.0</ele><time>2026-04-28T15:40:32.011Z</time></trkpt><trkpt lat="40.24790755656752" lon="9.256727669579039"><ele>525.0</ele><time>2026-04-28T15:40:33.011Z</time></trkpt><trkpt lat="40.24769839238834" lon="9.256974788111389"><ele>525.0</ele><time>2026-04-28T15:40:34.011Z</time></trkpt><trkpt lat="40.24748161464811" lon="9.257207424408833"><ele>534.5</ele><time>2026-04-28T15:40:35.011Z</time></trkpt><trkpt lat="40.24726603568283" lon="9.2574395897808"><ele>544.0</ele><time>2026-04-28T15:40:36.011Z</time></trkpt><trkpt lat="40.24704821841328" lon="9.257663475212865"><ele>544.0</ele><time>2026-04-28T15:40:37.011Z</time></trkpt><trkpt lat="40.246828911380135" lon="9.257885218358087"><ele>544.0</ele><time>2026-04-28T15:40:38.011Z</time></trkpt><trkpt lat="40.246610910194896" lon="9.258104169395478"><ele>549.5</ele><time>2026-04-28T15:40:39.011Z</time></trkpt><trkpt lat="40.24639250724513" lon="9.258312542086239"><ele>555.0</ele><time>2026-04-28T15:40:40.011Z</time></trkpt><trkpt lat="40.246168180814024" lon="9.258524070835222"><ele>555.0</ele><time>2026-04-28T15:40:41.011Z</time></trkpt><trkpt lat="40.24594404640056" lon="9.258728192723414"><ele>555.0</ele><time>2026-04-28T15:40:42.011Z</time></trkpt><trkpt lat="40.245715686181605" lon="9.258931383308013"><ele>554.5</ele><time>2026-04-28T15:40:43.011Z</time></trkpt><trkpt lat="40.245482492424635" lon="9.259132533975622"><ele>554.0</ele><time>2026-04-28T15:40:44.011Z</time></trkpt><trkpt lat="40.24524437598653" lon="9.259332215415267"><ele>554.0</ele><time>2026-04-28T15:40:45.011Z</time></trkpt><trkpt lat="40.24501411519688" lon="9.259513676911693"><ele>554.0</ele><time>2026-04-28T15:40:46.011Z</time></trkpt><trkpt lat="40.24478397729854" lon="9.259705702210743"><ele>560.0</ele><time>2026-04-28T15:40:47.011Z</time></trkpt><trkpt lat="40.24455892477697" lon="9.25989082808237"><ele>566.0</ele><time>2026-04-28T15:40:48.011Z</time></trkpt><trkpt lat="40.244353625621294" lon="9.260062459851103"><ele>566.0</ele><time>2026-04-28T15:40:49.011Z</time></trkpt><trkpt lat="40.244163380104645" lon="9.26021940499737"><ele>566.0</ele><time>2026-04-28T15:40:50.011Z</time></trkpt><trkpt lat="40.243977138676705" lon="9.26036433596487"><ele>566.0</ele><time>2026-04-28T15:40:51.011Z</time></trkpt><trkpt lat="40.24379245845534" lon="9.26051856969297"><ele>574.0</ele><time>2026-04-28T15:40:52.011Z</time></trkpt><trkpt lat="40.243606744210446" lon="9.260671702320908"><ele>582.0</ele><time>2026-04-28T15:40:53.011Z</time></trkpt><trkpt lat="40.24341608068547" lon="9.26082315398864"><ele>590.0</ele><time>2026-04-28T15:40:54.011Z</time></trkpt><trkpt lat="40.243228787647965" lon="9.260984920104855"><ele>594.0</ele><time>2026-04-28T15:40:55.011Z</time></trkpt><trkpt lat="40.24304793338035" lon="9.26114384747597"><ele>598.0</ele><time>2026-04-28T15:40:56.011Z</time></trkpt><trkpt lat="40.24286110877936" lon="9.261309885444879"><ele>602.0</ele><time>2026-04-28T15:40:57.011Z</time></trkpt><trkpt lat="40.24267629500773" lon="9.261484351991129"><ele>602.0</ele><time>2026-04-28T15:40:58.011Z</time></trkpt><trkpt lat="40.242496990002664" lon="9.261639244969105"><ele>602.0</ele><time>2026-04-28T15:40:59.011Z</time></trkpt><trkpt lat="40.24231641182285" lon="9.261806265097071"><ele>602.0</ele><time>2026-04-28T15:41:00.011Z</time></trkpt><trkpt lat="40.237804040031804" lon="9.265428310204909"><ele>602.0</ele><time>2026-04-28T15:41:26.011Z</time></trkpt><trkpt lat="40.237611710382645" lon="9.26556770798078"><ele>602.0</ele><time>2026-04-28T15:41:27.011Z</time></trkpt><trkpt lat="40.23742604234093" lon="9.265646999877466"><ele>602.0</ele><time>2026-04-28T15:41:28.011Z</time></trkpt><trkpt lat="40.23723525611429" lon="9.26573371536888"><ele>594.5</ele><time>2026-04-28T15:41:29.011Z</time></trkpt><trkpt lat="40.23702020141436" lon="9.26583011820863"><ele>587.0</ele><time>2026-04-28T15:41:30.011Z</time></trkpt><trkpt lat="40.23679761672781" lon="9.265885666148526"><ele>587.0</ele><time>2026-04-28T15:41:31.011Z</time></trkpt><trkpt lat="40.23657979065715" lon="9.26593750562095"><ele>587.0</ele><time>2026-04-28T15:41:32.013Z</time></trkpt><trkpt lat="40.23634902686839" lon="9.265958154173292"><ele>588.0</ele><time>2026-04-28T15:41:33.012Z</time></trkpt><trkpt lat="40.23612884424267" lon="9.26597076909779"><ele>589.0</ele><time>2026-04-28T15:41:34.012Z</time></trkpt><trkpt lat="40.23590919189698" lon="9.26598225427564"><ele>590.0</ele><time>2026-04-28T15:41:35.012Z</time></trkpt><trkpt lat="40.23568233330685" lon="9.265980962396688"><ele>591.6666666666666</ele><time>2026-04-28T15:41:36.012Z</time></trkpt><trkpt lat="40.235455484312894" lon="9.265953453439737"><ele>593.3333333333334</ele><time>2026-04-28T15:41:37.012Z</time></trkpt><trkpt lat="40.23523880158702" lon="9.265911753202245"><ele>595.0</ele><time>2026-04-28T15:41:38.012Z</time></trkpt><trkpt lat="40.23501893209368" lon="9.265850362243059"><ele>593.5</ele><time>2026-04-28T15:41:39.012Z</time></trkpt><trkpt lat="40.234786427345576" lon="9.265765710636536"><ele>592.0</ele><time>2026-04-28T15:41:40.012Z</time></trkpt><trkpt lat="40.234565426698126" lon="9.265714968588261"><ele>600.5</ele><time>2026-04-28T15:41:41.012Z</time></trkpt><trkpt lat="40.23431946715985" lon="9.265594081291521"><ele>609.0</ele><time>2026-04-28T15:41:42.012Z</time></trkpt><trkpt lat="40.234070161319" lon="9.265459235822986"><ele>606.0</ele><time>2026-04-28T15:41:43.012Z</time></trkpt><trkpt lat="40.2338137212101" lon="9.265322278119484"><ele>603.0</ele><time>2026-04-28T15:41:44.012Z</time></trkpt><trkpt lat="40.233551558870246" lon="9.265182046973234"><ele>603.0</ele><time>2026-04-28T15:41:45.012Z</time></trkpt><trkpt lat="40.23328773517402" lon="9.265038853933419"><ele>603.0</ele><time>2026-04-28T15:41:46.012Z</time></trkpt><trkpt lat="40.233019116298806" lon="9.264893523808299"><ele>602.5</ele><time>2026-04-28T15:41:47.012Z</time></trkpt><trkpt lat="40.23274689507268" lon="9.264751642238442"><ele>602.0</ele><time>2026-04-28T15:41:48.012Z</time></trkpt><trkpt lat="40.23247522370345" lon="9.26461329128749"><ele>600.0</ele><time>2026-04-28T15:41:49.012Z</time></trkpt><trkpt lat="40.23221447684309" lon="9.264479879656088"><ele>598.0</ele><time>2026-04-28T15:41:50.012Z</time></trkpt><trkpt lat="40.23196167247364" lon="9.264345453491375"><ele>598.0</ele><time>2026-04-28T15:41:51.012Z</time></trkpt><trkpt lat="40.23170886930247" lon="9.264211710459477"><ele>598.0</ele><time>2026-04-28T15:41:52.012Z</time></trkpt><trkpt lat="40.23145547902523" lon="9.264078243399018"><ele>598.5</ele><time>2026-04-28T15:41:53.012Z</time></trkpt><trkpt lat="40.23120490779496" lon="9.263944226562202"><ele>599.0</ele><time>2026-04-28T15:41:54.012Z</time></trkpt><trkpt lat="40.230971547014214" lon="9.263823791186033"><ele>599.0</ele><time>2026-04-28T15:41:55.012Z</time></trkpt><trkpt lat="40.23074344326015" lon="9.263702729026724"><ele>599.0</ele><time>2026-04-28T15:41:56.012Z</time></trkpt><trkpt lat="40.23050568071508" lon="9.263576254747974"><ele>601.0</ele><time>2026-04-28T15:41:57.012Z</time></trkpt><trkpt lat="40.23026880006705" lon="9.263450499549226"><ele>603.0</ele><time>2026-04-28T15:41:58.012Z</time></trkpt><trkpt lat="40.23004024761496" lon="9.263328440341626"><ele>603.0</ele><time>2026-04-28T15:41:59.012Z</time></trkpt><trkpt lat="40.229819815533574" lon="9.263215881726266"><ele>603.0</ele><time>2026-04-28T15:42:00.012Z</time></trkpt><trkpt lat="40.22961718914699" lon="9.26310677704976"><ele>605.3333333333334</ele><time>2026-04-28T15:42:01.012Z</time></trkpt><trkpt lat="40.2294276469116" lon="9.263005145167915"><ele>607.6666666666667</ele><time>2026-04-28T15:42:02.012Z</time></trkpt><trkpt lat="40.229239577108494" lon="9.262905712420086"><ele>610.0</ele><time>2026-04-28T15:42:03.012Z</time></trkpt><trkpt lat="40.22908463223854" lon="9.262825969498785"><ele>608.6666666666667</ele><time>2026-04-28T15:42:04.012Z</time></trkpt><trkpt lat="40.22891778662926" lon="9.262742710414598"><ele>607.3333333333334</ele><time>2026-04-28T15:42:05.012Z</time></trkpt><trkpt lat="40.22875383446544" lon="9.262650855011119"><ele>606.0</ele><time>2026-04-28T15:42:06.012Z</time></trkpt><trkpt lat="40.22859465376026" lon="9.262570273417023"><ele>606.0</ele><time>2026-04-28T15:42:07.012Z</time></trkpt><trkpt lat="40.22842464469988" lon="9.262478875619465"><ele>606.0</ele><time>2026-04-28T15:42:08.012Z</time></trkpt><trkpt lat="40.228249483318926" lon="9.262390692919691"><ele>606.0</ele><time>2026-04-28T15:42:09.012Z</time></trkpt><trkpt lat="40.228074854172185" lon="9.262303559031567"><ele>609.6666666666666</ele><time>2026-04-28T15:42:10.012Z</time></trkpt><trkpt lat="40.22789149909962" lon="9.262208935575552"><ele>613.3333333333333</ele><time>2026-04-28T15:42:11.012Z</time></trkpt><trkpt lat="40.227708485822795" lon="9.262101896769778"><ele>617.0</ele><time>2026-04-28T15:42:12.012Z</time></trkpt><trkpt lat="40.22751687031692" lon="9.262001733331429"><ele>617.0</ele><time>2026-04-28T15:42:13.012Z</time></trkpt><trkpt lat="40.22732255916985" lon="9.261897634689653"><ele>617.0</ele><time>2026-04-28T15:42:14.012Z</time></trkpt><trkpt lat="40.22711419882651" lon="9.261763531840971"><ele>617.0</ele><time>2026-04-28T15:42:15.012Z</time></trkpt><trkpt lat="40.22688532651739" lon="9.261617988923526"><ele>619.0</ele><time>2026-04-28T15:42:16.012Z</time></trkpt><trkpt lat="40.226648314666306" lon="9.261441752583774"><ele>621.0</ele><time>2026-04-28T15:42:17.012Z</time></trkpt><trkpt lat="40.22639574304876" lon="9.261239368777684"><ele>621.0</ele><time>2026-04-28T15:42:18.012Z</time></trkpt><trkpt lat="40.226148455286214" lon="9.26103420620887"><ele>621.0</ele><time>2026-04-28T15:42:19.012Z</time></trkpt><trkpt lat="40.22590297325996" lon="9.26079915872638"><ele>619.5</ele><time>2026-04-28T15:42:20.012Z</time></trkpt><trkpt lat="40.22565343810455" lon="9.260545002238489"><ele>618.0</ele><time>2026-04-28T15:42:21.012Z</time></trkpt><trkpt lat="40.225408465779125" lon="9.260293004434557"><ele>618.0</ele><time>2026-04-28T15:42:22.012Z</time></trkpt><trkpt lat="40.22515553050748" lon="9.260043785942445"><ele>618.0</ele><time>2026-04-28T15:42:23.012Z</time></trkpt><trkpt lat="40.22491167923322" lon="9.259807803100248"><ele>615.5</ele><time>2026-04-28T15:42:24.012Z</time></trkpt><trkpt lat="40.224666980206415" lon="9.259581412921616"><ele>613.0</ele><time>2026-04-28T15:42:25.012Z</time></trkpt><trkpt lat="40.2244209932733" lon="9.25936287131054"><ele>613.0</ele><time>2026-04-28T15:42:26.012Z</time></trkpt><trkpt lat="40.22418149842868" lon="9.259149447888962"><ele>613.0</ele><time>2026-04-28T15:42:27.012Z</time></trkpt><trkpt lat="40.22393225734936" lon="9.258964105960528"><ele>615.5</ele><time>2026-04-28T15:42:28.012Z</time></trkpt><trkpt lat="40.22367737129623" lon="9.258797832710787"><ele>618.0</ele><time>2026-04-28T15:42:29.012Z</time></trkpt><trkpt lat="40.22340941203792" lon="9.258670391199791"><ele>618.0</ele><time>2026-04-28T15:42:30.012Z</time></trkpt><trkpt lat="40.22314178420036" lon="9.258551149056494"><ele>618.0</ele><time>2026-04-28T15:42:31.012Z</time></trkpt><trkpt lat="40.222859409579385" lon="9.258475291494989"><ele>618.0</ele><time>2026-04-28T15:42:32.012Z</time></trkpt><trkpt lat="40.22258028989903" lon="9.258400426170294"><ele>618.0</ele><time>2026-04-28T15:42:33.012Z</time></trkpt><trkpt lat="40.222300740663066" lon="9.258377749317459"><ele>617.5</ele><time>2026-04-28T15:42:34.012Z</time></trkpt><trkpt lat="40.22201719325277" lon="9.258381911046381"><ele>617.0</ele><time>2026-04-28T15:42:35.012Z</time></trkpt><trkpt lat="40.22173877555049" lon="9.258418155256432"><ele>619.5</ele><time>2026-04-28T15:42:36.012Z</time></trkpt><trkpt lat="40.22145758719137" lon="9.258479067643314"><ele>622.0</ele><time>2026-04-28T15:42:37.012Z</time></trkpt><trkpt lat="40.22117873197058" lon="9.258568306389511"><ele>622.0</ele><time>2026-04-28T15:42:38.012Z</time></trkpt><trkpt lat="40.22089659478156" lon="9.258666712361292"><ele>622.0</ele><time>2026-04-28T15:42:39.012Z</time></trkpt><trkpt lat="40.2206258367253" lon="9.25878242832065"><ele>628.5</ele><time>2026-04-28T15:42:40.012Z</time></trkpt><trkpt lat="40.22035564797427" lon="9.258905795782752"><ele>635.0</ele><time>2026-04-28T15:42:41.012Z</time></trkpt><trkpt lat="40.220087906222496" lon="9.25903315127444"><ele>641.0</ele><time>2026-04-28T15:42:42.012Z</time></trkpt><trkpt lat="40.21981202404555" lon="9.259153668990574"><ele>647.0</ele><time>2026-04-28T15:42:43.012Z</time></trkpt><trkpt lat="40.21953664257355" lon="9.25927201407748"><ele>647.0</ele><time>2026-04-28T15:42:44.012Z</time></trkpt><trkpt lat="40.219261915271744" lon="9.259389583179217"><ele>647.0</ele><time>2026-04-28T15:42:45.012Z</time></trkpt><trkpt lat="40.218993106692025" lon="9.259509293687683"><ele>649.5</ele><time>2026-04-28T15:42:46.012Z</time></trkpt><trkpt lat="40.21872347374858" lon="9.259633005636116"><ele>652.0</ele><time>2026-04-28T15:42:47.012Z</time></trkpt><trkpt lat="40.2184535839156" lon="9.2597538285211"><ele>643.5</ele><time>2026-04-28T15:42:48.012Z</time></trkpt><trkpt lat="40.218177865598555" lon="9.259869358284305"><ele>635.0</ele><time>2026-04-28T15:42:49.012Z</time></trkpt><trkpt lat="40.21790403742011" lon="9.259976276691088"><ele>633.5</ele><time>2026-04-28T15:42:50.012Z</time></trkpt><trkpt lat="40.21762299323691" lon="9.260064868120942"><ele>632.0</ele><time>2026-04-28T15:42:51.012Z</time></trkpt><trkpt lat="40.2173413418708" lon="9.260126491557509"><ele>635.0</ele><time>2026-04-28T15:42:52.012Z</time></trkpt><trkpt lat="40.21705820911589" lon="9.260169288021832"><ele>638.0</ele><time>2026-04-28T15:42:53.012Z</time></trkpt><trkpt lat="40.216773865323226" lon="9.260177391190961"><ele>641.5</ele><time>2026-04-28T15:42:54.012Z</time></trkpt><trkpt lat="40.2164858214128" lon="9.260157015288597"><ele>645.0</ele><time>2026-04-28T15:42:55.012Z</time></trkpt><trkpt lat="40.21620612780041" lon="9.260086847344125"><ele>645.0</ele><time>2026-04-28T15:42:56.012Z</time></trkpt><trkpt lat="40.215926359216645" lon="9.26000381903113"><ele>645.0</ele><time>2026-04-28T15:42:57.012Z</time></trkpt><trkpt lat="40.21565808357322" lon="9.259900718106337"><ele>647.5</ele><time>2026-04-28T15:42:58.012Z</time></trkpt><trkpt lat="40.2153985359485" lon="9.259765234593615"><ele>650.0</ele><time>2026-04-28T15:42:59.012Z</time></trkpt><trkpt lat="40.21514767228673" lon="9.259605542072746"><ele>650.0</ele><time>2026-04-28T15:43:00.012Z</time></trkpt><trkpt lat="40.214897684557116" lon="9.259418131210431"><ele>650.0</ele><time>2026-04-28T15:43:01.012Z</time></trkpt><trkpt lat="40.21465074342638" lon="9.259219599846553"><ele>647.5</ele><time>2026-04-28T15:43:02.012Z</time></trkpt><trkpt lat="40.21441321232167" lon="9.25901421348072"><ele>645.0</ele><time>2026-04-28T15:43:03.012Z</time></trkpt><trkpt lat="40.21417511960686" lon="9.258810407405619"><ele>646.0</ele><time>2026-04-28T15:43:04.012Z</time></trkpt><trkpt lat="40.21393687542205" lon="9.258609248323962"><ele>647.0</ele><time>2026-04-28T15:43:05.012Z</time></trkpt><trkpt lat="40.21369598733296" lon="9.258410774041053"><ele>647.0</ele><time>2026-04-28T15:43:06.012Z</time></trkpt><trkpt lat="40.21345323291466" lon="9.258228274920569"><ele>647.0</ele><time>2026-04-28T15:43:07.012Z</time></trkpt><trkpt lat="40.213209647850746" lon="9.258059764090318"><ele>649.0</ele><time>2026-04-28T15:43:08.012Z</time></trkpt><trkpt lat="40.21296302394703" lon="9.257893067244565"><ele>651.0</ele><time>2026-04-28T15:43:09.012Z</time></trkpt><trkpt lat="40.212705662108306" lon="9.257750541420402"><ele>651.0</ele><time>2026-04-28T15:43:10.012Z</time></trkpt><trkpt lat="40.212441028827506" lon="9.25764091526587"><ele>651.0</ele><time>2026-04-28T15:43:11.012Z</time></trkpt><trkpt lat="40.21216667985814" lon="9.257549123248207"><ele>649.5</ele><time>2026-04-28T15:43:12.012Z</time></trkpt><trkpt lat="40.21188929733099" lon="9.257475028185294"><ele>648.0</ele><time>2026-04-28T15:43:13.012Z</time></trkpt><trkpt lat="40.21160360199774" lon="9.257431897007576"><ele>652.0</ele><time>2026-04-28T15:43:14.012Z</time></trkpt><trkpt lat="40.21131690573211" lon="9.257413283208814"><ele>656.0</ele><time>2026-04-28T15:43:15.012Z</time></trkpt><trkpt lat="40.21103550359609" lon="9.257410886844973"><ele>656.0</ele><time>2026-04-28T15:43:16.012Z</time></trkpt><trkpt lat="40.210753926101305" lon="9.257426621797629"><ele>656.0</ele><time>2026-04-28T15:43:17.012Z</time></trkpt><trkpt lat="40.210469919884304" lon="9.257465439184726"><ele>661.0</ele><time>2026-04-28T15:43:18.012Z</time></trkpt><trkpt lat="40.21018643521408" lon="9.257526185849455"><ele>666.0</ele><time>2026-04-28T15:43:19.012Z</time></trkpt><trkpt lat="40.20991676468752" lon="9.257623763024116"><ele>670.5</ele><time>2026-04-28T15:43:20.012Z</time></trkpt><trkpt lat="40.20964882516613" lon="9.257740893497465"><ele>675.0</ele><time>2026-04-28T15:43:21.012Z</time></trkpt><trkpt lat="40.20939024207976" lon="9.257880674089808"><ele>675.0</ele><time>2026-04-28T15:43:22.012Z</time></trkpt><trkpt lat="40.209135869584784" lon="9.258037436198775"><ele>675.0</ele><time>2026-04-28T15:43:23.012Z</time></trkpt><trkpt lat="40.20888712237895" lon="9.258201638416717"><ele>668.0</ele><time>2026-04-28T15:43:24.012Z</time></trkpt><trkpt lat="40.20864696636829" lon="9.258393328606774"><ele>661.0</ele><time>2026-04-28T15:43:25.012Z</time></trkpt><trkpt lat="40.20841358862918" lon="9.258597365500545"><ele>661.0</ele><time>2026-04-28T15:43:26.012Z</time></trkpt><trkpt lat="40.20820126707002" lon="9.258830575200358"><ele>661.0</ele><time>2026-04-28T15:43:27.012Z</time></trkpt><trkpt lat="40.20800285064762" lon="9.259079109486944"><ele>663.5</ele><time>2026-04-28T15:43:28.012Z</time></trkpt><trkpt lat="40.20781636835438" lon="9.259332996800701"><ele>666.0</ele><time>2026-04-28T15:43:29.012Z</time></trkpt><trkpt lat="40.20764275209745" lon="9.259588211640542"><ele>666.5</ele><time>2026-04-28T15:43:30.012Z</time></trkpt><trkpt lat="40.20749760877604" lon="9.259845987185134"><ele>667.0</ele><time>2026-04-28T15:43:31.012Z</time></trkpt><trkpt lat="40.20736355039127" lon="9.26009563289201"><ele>671.6666666666667</ele><time>2026-04-28T15:43:32.012Z</time></trkpt><trkpt lat="40.20724360079932" lon="9.260344497451852"><ele>676.3333333333334</ele><time>2026-04-28T15:43:33.012Z</time></trkpt><trkpt lat="40.207136356620985" lon="9.260596495785123"><ele>681.0</ele><time>2026-04-28T15:43:34.012Z</time></trkpt><trkpt lat="40.207045255979125" lon="9.26085848511351"><ele>681.0</ele><time>2026-04-28T15:43:35.012Z</time></trkpt><trkpt lat="40.20696526989078" lon="9.261114850166456"><ele>681.0</ele><time>2026-04-28T15:43:36.011Z</time></trkpt><trkpt lat="40.206899692310365" lon="9.26137777782445"><ele>681.0</ele><time>2026-04-28T15:43:37.011Z</time></trkpt><trkpt lat="40.20682997717298" lon="9.261642534055753"><ele>677.5</ele><time>2026-04-28T15:43:38.013Z</time></trkpt><trkpt lat="40.206774558899035" lon="9.261932455890417"><ele>674.0</ele><time>2026-04-28T15:43:39.012Z</time></trkpt><trkpt lat="40.20672482631011" lon="9.262245910385277"><ele>674.0</ele><time>2026-04-28T15:43:40.012Z</time></trkpt><trkpt lat="40.20668313062323" lon="9.2625645678557"><ele>674.0</ele><time>2026-04-28T15:43:41.013Z</time></trkpt><trkpt lat="40.20663257831998" lon="9.262887992531526"><ele>675.5</ele><time>2026-04-28T15:43:42.013Z</time></trkpt><trkpt lat="40.2065869242493" lon="9.263227596908138"><ele>677.0</ele><time>2026-04-28T15:43:43.013Z</time></trkpt><trkpt lat="40.20653992926945" lon="9.263557477586565"><ele>684.0</ele><time>2026-04-28T15:43:44.013Z</time></trkpt><trkpt lat="40.20648153328357" lon="9.263886318041962"><ele>691.0</ele><time>2026-04-28T15:43:45.013Z</time></trkpt><trkpt lat="40.20640754561284" lon="9.264210610475342"><ele>693.0</ele><time>2026-04-28T15:43:46.013Z</time></trkpt><trkpt lat="40.206311013324616" lon="9.264526979338552"><ele>695.0</ele><time>2026-04-28T15:43:47.013Z</time></trkpt><trkpt lat="40.20620044313419" lon="9.264832658575816"><ele>697.0</ele><time>2026-04-28T15:43:48.013Z</time></trkpt><trkpt lat="40.20606962194063" lon="9.26512960345433"><ele>699.0</ele><time>2026-04-28T15:43:49.013Z</time></trkpt><trkpt lat="40.20592709043153" lon="9.265413488899119"><ele>701.5</ele><time>2026-04-28T15:43:50.013Z</time></trkpt><trkpt lat="40.20576948380406" lon="9.265687593000823"><ele>704.0</ele><time>2026-04-28T15:43:51.013Z</time></trkpt><trkpt lat="40.20558141629124" lon="9.265929060859687"><ele>710.5</ele><time>2026-04-28T15:43:52.013Z</time></trkpt><trkpt lat="40.20538765980771" lon="9.26615942972225"><ele>717.0</ele><time>2026-04-28T15:43:53.013Z</time></trkpt><trkpt lat="40.2051776251151" lon="9.266361603186214"><ele>715.0</ele><time>2026-04-28T15:43:54.013Z</time></trkpt><trkpt lat="40.20495876063464" lon="9.266548231377264"><ele>713.0</ele><time>2026-04-28T15:43:55.013Z</time></trkpt><trkpt lat="40.204729130122836" lon="9.266711830456945"><ele>717.5</ele><time>2026-04-28T15:43:56.013Z</time></trkpt><trkpt lat="40.20448579618068" lon="9.266848662930922"><ele>722.0</ele><time>2026-04-28T15:43:57.013Z</time></trkpt><trkpt lat="40.20424132218559" lon="9.266968929102827"><ele>729.5</ele><time>2026-04-28T15:43:58.013Z</time></trkpt><trkpt lat="40.203994626152976" lon="9.267082443532491"><ele>737.0</ele><time>2026-04-28T15:43:59.013Z</time></trkpt><trkpt lat="40.20375030150769" lon="9.267200882657196"><ele>726.5</ele><time>2026-04-28T15:44:00.013Z</time></trkpt><trkpt lat="40.203497764213324" lon="9.267307057656405"><ele>716.0</ele><time>2026-04-28T15:44:01.013Z</time></trkpt><trkpt lat="40.20324843343516" lon="9.267411872394566"><ele>720.5</ele><time>2026-04-28T15:44:02.013Z</time></trkpt><trkpt lat="40.203004596404234" lon="9.267538247693503"><ele>725.0</ele><time>2026-04-28T15:44:03.013Z</time></trkpt><trkpt lat="40.202771025386795" lon="9.267690749457287"><ele>725.0</ele><time>2026-04-28T15:44:04.013Z</time></trkpt><trkpt lat="40.20254258813717" lon="9.26787429791615"><ele>725.0</ele><time>2026-04-28T15:44:05.013Z</time></trkpt><trkpt lat="40.20231794802382" lon="9.26806753061644"><ele>727.5</ele><time>2026-04-28T15:44:06.013Z</time></trkpt><trkpt lat="40.20211247441196" lon="9.268293085791187"><ele>730.0</ele><time>2026-04-28T15:44:07.013Z</time></trkpt><trkpt lat="40.201917125884094" lon="9.268533832415438"><ele>730.0</ele><time>2026-04-28T15:44:08.013Z</time></trkpt><trkpt lat="40.20174096232936" lon="9.2687937741317"><ele>730.0</ele><time>2026-04-28T15:44:09.013Z</time></trkpt><trkpt lat="40.20158357971291" lon="9.269070228820105"><ele>741.5</ele><time>2026-04-28T15:44:10.013Z</time></trkpt><trkpt lat="40.201445705655956" lon="9.269366108891834"><ele>753.0</ele><time>2026-04-28T15:44:11.013Z</time></trkpt><trkpt lat="40.2013228472829" lon="9.269669381421869"><ele>750.5</ele><time>2026-04-28T15:44:12.013Z</time></trkpt><trkpt lat="40.20122025632508" lon="9.269981165413785"><ele>748.0</ele><time>2026-04-28T15:44:13.013Z</time></trkpt><trkpt lat="40.20112460260154" lon="9.27029587693119"><ele>742.0</ele><time>2026-04-28T15:44:14.013Z</time></trkpt><trkpt lat="40.20102961053523" lon="9.270610161327385"><ele>736.0</ele><time>2026-04-28T15:44:15.013Z</time></trkpt><trkpt lat="40.20092572292543" lon="9.270921201774328"><ele>736.0</ele><time>2026-04-28T15:44:16.013Z</time></trkpt><trkpt lat="40.20081881222458" lon="9.271234978917011"><ele>736.0</ele><time>2026-04-28T15:44:17.013Z</time></trkpt><trkpt lat="40.20072567562568" lon="9.27155108652904"><ele>744.5</ele><time>2026-04-28T15:44:18.013Z</time></trkpt><trkpt lat="40.200600706923346" lon="9.271840699629688"><ele>753.0</ele><time>2026-04-28T15:44:19.013Z</time></trkpt><trkpt lat="40.20046189234734" lon="9.272129205359624"><ele>752.0</ele><time>2026-04-28T15:44:20.013Z</time></trkpt><trkpt lat="40.20031530172377" lon="9.27240981744414"><ele>751.0</ele><time>2026-04-28T15:44:21.013Z</time></trkpt><trkpt lat="40.20015328670575" lon="9.272662919672044"><ele>751.0</ele><time>2026-04-28T15:44:22.013Z</time></trkpt><trkpt lat="40.19998481450932" lon="9.272911081609399"><ele>751.0</ele><time>2026-04-28T15:44:23.013Z</time></trkpt><trkpt lat="40.19980293321029" lon="9.273133532760486"><ele>755.0</ele><time>2026-04-28T15:44:24.013Z</time></trkpt><trkpt lat="40.19960245903782" lon="9.273333685130186"><ele>759.0</ele><time>2026-04-28T15:44:25.013Z</time></trkpt><trkpt lat="40.19938370111039" lon="9.273523899821502"><ele>759.0</ele><time>2026-04-28T15:44:26.013Z</time></trkpt><trkpt lat="40.199159096282585" lon="9.273690826716193"><ele>759.0</ele><time>2026-04-28T15:44:27.013Z</time></trkpt><trkpt lat="40.19892233330498" lon="9.27382951234099"><ele>754.5</ele><time>2026-04-28T15:44:28.013Z</time></trkpt><trkpt lat="40.19868984446414" lon="9.273941680955833"><ele>750.0</ele><time>2026-04-28T15:44:29.013Z</time></trkpt><trkpt lat="40.19846488472765" lon="9.274035619672713"><ele>750.0</ele><time>2026-04-28T15:44:30.013Z</time></trkpt><trkpt lat="40.19826217794592" lon="9.27415325165367"><ele>750.0</ele><time>2026-04-28T15:44:31.013Z</time></trkpt><trkpt lat="40.19806499049035" lon="9.274241560079117"><ele>750.0</ele><time>2026-04-28T15:44:32.013Z</time></trkpt><trkpt lat="40.1978894106014" lon="9.27433315382081"><ele>752.0</ele><time>2026-04-28T15:44:33.013Z</time></trkpt><trkpt lat="40.19772568478907" lon="9.27441549646555"><ele>754.0</ele><time>2026-04-28T15:44:34.013Z</time></trkpt><trkpt lat="40.19759633687558" lon="9.274483081330686"><ele>756.0</ele><time>2026-04-28T15:44:35.013Z</time></trkpt><trkpt lat="40.197487690367396" lon="9.274536841767482"><ele>758.0</ele><time>2026-04-28T15:44:36.013Z</time></trkpt><trkpt lat="40.19740375780916" lon="9.27457467842585"><ele>760.0</ele><time>2026-04-28T15:44:37.013Z</time></trkpt><trkpt lat="40.19730802616574" lon="9.274602352123757"><ele>762.0</ele><time>2026-04-28T15:44:39.013Z</time></trkpt><trkpt lat="40.19723411359898" lon="9.274604107040576"><ele>764.0</ele><time>2026-04-28T15:44:45.013Z</time></trkpt><trkpt lat="40.19712730756914" lon="9.2746146036903"><ele>766.0</ele><time>2026-04-28T15:44:48.013Z</time></trkpt><trkpt lat="40.19705058451369" lon="9.274637699781694"><ele>768.0</ele><time>2026-04-28T15:44:49.013Z</time></trkpt><trkpt lat="40.19695208281687" lon="9.274666669878814"><ele>768.0</ele><time>2026-04-28T15:44:50.013Z</time></trkpt><trkpt lat="40.19686153941186" lon="9.274657190112414"><ele>768.0</ele><time>2026-04-28T15:44:51.013Z</time></trkpt><trkpt lat="40.1968000649243" lon="9.274592522667449"><ele>768.0</ele><time>2026-04-28T15:44:52.013Z</time></trkpt><trkpt lat="40.19678163020889" lon="9.274509434723173"><ele>768.0</ele><time>2026-04-28T15:44:53.013Z</time></trkpt><trkpt lat="40.196848119238304" lon="9.274372159912966"><ele>768.0</ele><time>2026-04-28T15:44:55.013Z</time></trkpt><trkpt lat="40.196919069593264" lon="9.274327800195854"><ele>768.0</ele><time>2026-04-28T15:44:56.013Z</time></trkpt><trkpt lat="40.19700465157711" lon="9.274316741550654"><ele>768.0</ele><time>2026-04-28T15:44:57.013Z</time></trkpt><trkpt lat="40.197101350293316" lon="9.274289207621976"><ele>768.0</ele><time>2026-04-28T15:44:58.013Z</time></trkpt><trkpt lat="40.19719928395415" lon="9.274245150199755"><ele>768.0</ele><time>2026-04-28T15:44:59.013Z</time></trkpt><trkpt lat="40.19730145459579" lon="9.274181058105778"><ele>768.0</ele><time>2026-04-28T15:45:00.013Z</time></trkpt><trkpt lat="40.19740829291188" lon="9.274100549074314"><ele>768.0</ele><time>2026-04-28T15:45:01.013Z</time></trkpt><trkpt lat="40.197522537604" lon="9.274009294085172"><ele>772.25</ele><time>2026-04-28T15:45:02.013Z</time></trkpt><trkpt lat="40.197645037456724" lon="9.273912093234724"><ele>776.5</ele><time>2026-04-28T15:45:03.013Z</time></trkpt><trkpt lat="40.1977713903817" lon="9.273821651627328"><ele>780.75</ele><time>2026-04-28T15:45:04.013Z</time></trkpt><trkpt lat="40.197897153248086" lon="9.2737316996945"><ele>785.0</ele><time>2026-04-28T15:45:05.013Z</time></trkpt><trkpt lat="40.198024007348806" lon="9.273646633374055"><ele>785.0</ele><time>2026-04-28T15:45:06.013Z</time></trkpt><trkpt lat="40.198143383393244" lon="9.273589678732254"><ele>785.0</ele><time>2026-04-28T15:45:07.013Z</time></trkpt><trkpt lat="40.19827875793031" lon="9.273516288024604"><ele>785.0</ele><time>2026-04-28T15:45:08.013Z</time></trkpt><trkpt lat="40.19841785681865" lon="9.273379380946283"><ele>785.0</ele><time>2026-04-28T15:45:09.013Z</time></trkpt><trkpt lat="40.19855852792506" lon="9.273194141315775"><ele>791.5</ele><time>2026-04-28T15:45:10.013Z</time></trkpt><trkpt lat="40.19867901785221" lon="9.272970511822285"><ele>798.0</ele><time>2026-04-28T15:45:11.013Z</time></trkpt><trkpt lat="40.19876560474546" lon="9.272665900976719"><ele>798.0</ele><time>2026-04-28T15:45:12.013Z</time></trkpt><trkpt lat="40.19885746419842" lon="9.272333171119243"><ele>798.0</ele><time>2026-04-28T15:45:13.013Z</time></trkpt><trkpt lat="40.199295738814186" lon="9.2728207429337"><ele>791.6666666666667</ele><time>2026-04-28T15:45:14.013Z</time></trkpt><trkpt lat="40.199359656929296" lon="9.272581767884882"><ele>785.3333333333334</ele><time>2026-04-28T15:45:15.013Z</time></trkpt><trkpt lat="40.199383160401574" lon="9.27230527934559"><ele>779.0</ele><time>2026-04-28T15:45:16.013Z</time></trkpt><trkpt lat="40.19937448210314" lon="9.272039327243421"><ele>779.0</ele><time>2026-04-28T15:45:17.013Z</time></trkpt><trkpt lat="40.19933956601901" lon="9.271792771676454"><ele>779.0</ele><time>2026-04-28T15:45:18.013Z</time></trkpt><trkpt lat="40.1992506266954" lon="9.271555596111572"><ele>779.0</ele><time>2026-04-28T15:45:19.013Z</time></trkpt><trkpt lat="40.1991351072858" lon="9.271348726157994"><ele>781.0</ele><time>2026-04-28T15:45:20.013Z</time></trkpt><trkpt lat="40.199017208498425" lon="9.271151680245312"><ele>783.0</ele><time>2026-04-28T15:45:21.013Z</time></trkpt><trkpt lat="40.19896189579823" lon="9.270970637150759"><ele>785.0</ele><time>2026-04-28T15:45:22.013Z</time></trkpt><trkpt lat="40.19898487532291" lon="9.270787754296265"><ele>790.3333333333334</ele><time>2026-04-28T15:45:23.013Z</time></trkpt><trkpt lat="40.19906831906258" lon="9.270603098867834"><ele>795.6666666666667</ele><time>2026-04-28T15:45:24.013Z</time></trkpt><trkpt lat="40.19918401042562" lon="9.270413375930433"><ele>801.0</ele><time>2026-04-28T15:45:25.013Z</time></trkpt><trkpt lat="40.19933362518692" lon="9.270227577950966"><ele>801.0</ele><time>2026-04-28T15:45:26.013Z</time></trkpt><trkpt lat="40.19946059778349" lon="9.270003529490968"><ele>801.0</ele><time>2026-04-28T15:45:27.013Z</time></trkpt><trkpt lat="40.19955874892441" lon="9.269736041470768"><ele>801.0</ele><time>2026-04-28T15:45:28.013Z</time></trkpt><trkpt lat="40.199602507945954" lon="9.269469876642146"><ele>804.0</ele><time>2026-04-28T15:45:29.013Z</time></trkpt><trkpt lat="40.19961429222511" lon="9.269187681632992"><ele>807.0</ele><time>2026-04-28T15:45:30.013Z</time></trkpt><trkpt lat="40.19957157726652" lon="9.268892526179677"><ele>810.0</ele><time>2026-04-28T15:45:31.013Z</time></trkpt><trkpt lat="40.199529576303256" lon="9.26859758703302"><ele>811.0</ele><time>2026-04-28T15:45:32.013Z</time></trkpt><trkpt lat="40.199466349558506" lon="9.268301140997762"><ele>812.0</ele><time>2026-04-28T15:45:33.013Z</time></trkpt><trkpt lat="40.19937389320713" lon="9.2680326294732"><ele>813.6666666666667</ele><time>2026-04-28T15:45:34.013Z</time></trkpt><trkpt lat="40.19928745711012" lon="9.267806314241035"><ele>815.3333333333333</ele><time>2026-04-28T15:45:35.013Z</time></trkpt><trkpt lat="40.19924142336158" lon="9.267597219760038"><ele>817.0</ele><time>2026-04-28T15:45:36.013Z</time></trkpt><trkpt lat="40.19926917282143" lon="9.26737032431144"><ele>819.6666666666666</ele><time>2026-04-28T15:45:37.013Z</time></trkpt><trkpt lat="40.19937770946003" lon="9.26712843802332"><ele>822.3333333333333</ele><time>2026-04-28T15:45:38.013Z</time></trkpt><trkpt lat="40.199455301147566" lon="9.26687776642218"><ele>825.0</ele><time>2026-04-28T15:45:39.013Z</time></trkpt><trkpt lat="40.199467902460306" lon="9.266610598138866"><ele>828.6666666666667</ele><time>2026-04-28T15:45:40.013Z</time></trkpt><trkpt lat="40.19943536502756" lon="9.26635845464131"><ele>832.3333333333334</ele><time>2026-04-28T15:45:41.013Z</time></trkpt><trkpt lat="40.199385649262005" lon="9.266123425152793"><ele>836.0</ele><time>2026-04-28T15:45:42.013Z</time></trkpt><trkpt lat="40.19939618592495" lon="9.265922037310727"><ele>836.0</ele><time>2026-04-28T15:45:43.013Z</time></trkpt><trkpt lat="40.19947724860895" lon="9.265707914857082"><ele>836.0</ele><time>2026-04-28T15:45:44.013Z</time></trkpt><trkpt lat="40.19959754880967" lon="9.265489974671496"><ele>836.0</ele><time>2026-04-28T15:45:45.013Z</time></trkpt><trkpt lat="40.19972765942919" lon="9.265275333734712"><ele>839.6666666666667</ele><time>2026-04-28T15:45:46.013Z</time></trkpt><trkpt lat="40.199850605254916" lon="9.265077051036412"><ele>843.3333333333333</ele><time>2026-04-28T15:45:47.013Z</time></trkpt><trkpt lat="40.19992842236392" lon="9.264908831763913"><ele>847.0</ele><time>2026-04-28T15:45:48.013Z</time></trkpt><trkpt lat="40.19995763835595" lon="9.26476769927518"><ele>847.0</ele><time>2026-04-28T15:45:49.013Z</time></trkpt><trkpt lat="40.199892977179914" lon="9.26464084781618"><ele>847.0</ele><time>2026-04-28T15:45:50.014Z</time></trkpt><trkpt lat="40.19977340060678" lon="9.264566256978597"><ele>847.0</ele><time>2026-04-28T15:45:51.014Z</time></trkpt><trkpt lat="40.19963330152696" lon="9.264599464996905"><ele>847.0</ele><time>2026-04-28T15:45:52.014Z</time></trkpt><trkpt lat="40.199519435240866" lon="9.264752395589166"><ele>850.0</ele><time>2026-04-28T15:45:53.013Z</time></trkpt><trkpt lat="40.19945233346379" lon="9.264971471827165"><ele>853.0</ele><time>2026-04-28T15:45:54.013Z</time></trkpt><trkpt lat="40.19940896257533" lon="9.26522996256294"><ele>856.0</ele><time>2026-04-28T15:45:55.013Z</time></trkpt><trkpt lat="40.19933720523922" lon="9.265455207232504"><ele>859.3333333333333</ele><time>2026-04-28T15:45:56.014Z</time></trkpt><trkpt lat="40.19921974526429" lon="9.265657898855451"><ele>862.6666666666667</ele><time>2026-04-28T15:45:57.013Z</time></trkpt><trkpt lat="40.199061281952105" lon="9.265821009318932"><ele>866.0</ele><time>2026-04-28T15:45:58.013Z</time></trkpt><trkpt lat="40.19890701617571" lon="9.265945613431937"><ele>866.0</ele><time>2026-04-28T15:45:59.013Z</time></trkpt><trkpt lat="40.198790683183596" lon="9.266108379111445"><ele>866.0</ele><time>2026-04-28T15:46:00.013Z</time></trkpt><trkpt lat="40.19875779647248" lon="9.266351163675706"><ele>866.0</ele><time>2026-04-28T15:46:01.013Z</time></trkpt><trkpt lat="40.198712743536504" lon="9.266600579813423"><ele>862.6666666666667</ele><time>2026-04-28T15:46:02.013Z</time></trkpt><trkpt lat="40.19862133410041" lon="9.266826383247682"><ele>859.3333333333333</ele><time>2026-04-28T15:46:03.013Z</time></trkpt><trkpt lat="40.198506681980604" lon="9.26701460206404"><ele>856.0</ele><time>2026-04-28T15:46:04.013Z</time></trkpt><trkpt lat="40.19838671521795" lon="9.2671815361091"><ele>858.3333333333333</ele><time>2026-04-28T15:46:05.013Z</time></trkpt><trkpt lat="40.198249202441794" lon="9.267312692322536"><ele>860.6666666666667</ele><time>2026-04-28T15:46:06.013Z</time></trkpt><trkpt lat="40.19808734134851" lon="9.267401835705844"><ele>863.0</ele><time>2026-04-28T15:46:07.013Z</time></trkpt><trkpt lat="40.19791960470478" lon="9.267459818871679"><ele>863.0</ele><time>2026-04-28T15:46:08.013Z</time></trkpt><trkpt lat="40.19776285171422" lon="9.267486213492239"><ele>863.0</ele><time>2026-04-28T15:46:09.013Z</time></trkpt><trkpt lat="40.1976293935277" lon="9.267526254871061"><ele>863.0</ele><time>2026-04-28T15:46:10.013Z</time></trkpt><trkpt lat="40.1975233755845" lon="9.26760535096406"><ele>863.0</ele><time>2026-04-28T15:46:11.013Z</time></trkpt><trkpt lat="40.197456193312874" lon="9.267722704961372"><ele>863.0</ele><time>2026-04-28T15:46:12.013Z</time></trkpt><trkpt lat="40.19741805841943" lon="9.267879450057551"><ele>863.0</ele><time>2026-04-28T15:46:13.013Z</time></trkpt><trkpt lat="40.19744676311023" lon="9.268061558642358"><ele>863.0</ele><time>2026-04-28T15:46:14.013Z</time></trkpt><trkpt lat="40.197461237229426" lon="9.268242843890539"><ele>863.0</ele><time>2026-04-28T15:46:15.013Z</time></trkpt><trkpt lat="40.197486633833165" lon="9.26844009798701"><ele>863.0</ele><time>2026-04-28T15:46:16.013Z</time></trkpt><trkpt lat="40.197504392788254" lon="9.268633032178643"><ele>863.0</ele><time>2026-04-28T15:46:17.013Z</time></trkpt><trkpt lat="40.197511512456614" lon="9.268826735188947"><ele>863.0</ele><time>2026-04-28T15:46:18.013Z</time></trkpt><trkpt lat="40.197511236182535" lon="9.26902705381265"><ele>864.0</ele><time>2026-04-28T15:46:19.013Z</time></trkpt><trkpt lat="40.19749928158419" lon="9.269231477269363"><ele>865.0</ele><time>2026-04-28T15:46:20.013Z</time></trkpt><trkpt lat="40.19744055031231" lon="9.26943737561915"><ele>866.0</ele><time>2026-04-28T15:46:21.013Z</time></trkpt><trkpt lat="40.19733582960631" lon="9.269617437062923"><ele>871.3333333333334</ele><time>2026-04-28T15:46:22.013Z</time></trkpt><trkpt lat="40.197188434804914" lon="9.269760828606621"><ele>876.6666666666667</ele><time>2026-04-28T15:46:23.013Z</time></trkpt><trkpt lat="40.19701607764042" lon="9.26988066473289"><ele>882.0</ele><time>2026-04-28T15:46:24.013Z</time></trkpt><trkpt lat="40.19684158012038" lon="9.269994366945753"><ele>882.0</ele><time>2026-04-28T15:46:25.013Z</time></trkpt><trkpt lat="40.19666310099126" lon="9.27011185098539"><ele>882.0</ele><time>2026-04-28T15:46:26.013Z</time></trkpt><trkpt lat="40.19648912094145" lon="9.27022780578686"><ele>882.0</ele><time>2026-04-28T15:46:27.013Z</time></trkpt><trkpt lat="40.1962955396279" lon="9.270317392412073"><ele>887.0</ele><time>2026-04-28T15:46:28.013Z</time></trkpt><trkpt lat="40.1961000394917" lon="9.27039663280897"><ele>892.0</ele><time>2026-04-28T15:46:29.013Z</time></trkpt><trkpt lat="40.19591421582393" lon="9.270454580855763"><ele>897.0</ele><time>2026-04-28T15:46:30.013Z</time></trkpt><trkpt lat="40.195734407172566" lon="9.270455974754194"><ele>897.3333333333333</ele><time>2026-04-28T15:46:31.013Z</time></trkpt><trkpt lat="40.19554714604987" lon="9.270418724423953"><ele>897.6666666666666</ele><time>2026-04-28T15:46:32.013Z</time></trkpt><trkpt lat="40.195356485436484" lon="9.270356786013632"><ele>898.0</ele><time>2026-04-28T15:46:33.013Z</time></trkpt><trkpt lat="40.1951569463556" lon="9.270286378502536"><ele>898.0</ele><time>2026-04-28T15:46:34.013Z</time></trkpt><trkpt lat="40.19495543861238" lon="9.270231882934254"><ele>898.0</ele><time>2026-04-28T15:46:35.013Z</time></trkpt><trkpt lat="40.194762090760534" lon="9.270163112477265"><ele>898.0</ele><time>2026-04-28T15:46:36.013Z</time></trkpt><trkpt lat="40.19457406340949" lon="9.27008300116982"><ele>898.3333333333333</ele><time>2026-04-28T15:46:37.013Z</time></trkpt><trkpt lat="40.194380964765784" lon="9.269998251517867"><ele>898.6666666666667</ele><time>2026-04-28T15:46:38.013Z</time></trkpt><trkpt lat="40.19418866942835" lon="9.269909359073381"><ele>899.0</ele><time>2026-04-28T15:46:39.013Z</time></trkpt><trkpt lat="40.193989650886486" lon="9.269838900746002"><ele>898.3333333333334</ele><time>2026-04-28T15:46:40.013Z</time></trkpt><trkpt lat="40.19380431754382" lon="9.269766341847674"><ele>897.6666666666667</ele><time>2026-04-28T15:46:41.013Z</time></trkpt><trkpt lat="40.19366297626858" lon="9.269696179390085"><ele>897.0</ele><time>2026-04-28T15:46:42.013Z</time></trkpt><trkpt lat="40.19355821300727" lon="9.269605185101415"><ele>897.0</ele><time>2026-04-28T15:46:43.013Z</time></trkpt><trkpt lat="40.19347274585338" lon="9.26947375240374"><ele>897.0</ele><time>2026-04-28T15:46:44.013Z</time></trkpt><trkpt lat="40.19339505245615" lon="9.269313677989178"><ele>897.0</ele><time>2026-04-28T15:46:45.013Z</time></trkpt><trkpt lat="40.19330622853104" lon="9.269137025157898"><ele>897.0</ele><time>2026-04-28T15:46:46.013Z</time></trkpt><trkpt lat="40.193201340304356" lon="9.268953213169587"><ele>895.3333333333333</ele><time>2026-04-28T15:46:47.013Z</time></trkpt><trkpt lat="40.19308261263456" lon="9.268766865608368"><ele>893.6666666666666</ele><time>2026-04-28T15:46:48.013Z</time></trkpt><trkpt lat="40.19295544725745" lon="9.26856912560404"><ele>892.0</ele><time>2026-04-28T15:46:49.013Z</time></trkpt><trkpt lat="40.19282826828083" lon="9.268366896913191"><ele>892.0</ele><time>2026-04-28T15:46:50.013Z</time></trkpt><trkpt lat="40.19270208204168" lon="9.268163803507766"><ele>892.0</ele><time>2026-04-28T15:46:51.013Z</time></trkpt><trkpt lat="40.1925711386217" lon="9.267947312326367"><ele>892.0</ele><time>2026-04-28T15:46:52.013Z</time></trkpt><trkpt lat="40.19243424485573" lon="9.267720752231808"><ele>889.0</ele><time>2026-04-28T15:46:53.013Z</time></trkpt><trkpt lat="40.19229359101771" lon="9.267483902470143"><ele>886.0</ele><time>2026-04-28T15:46:54.013Z</time></trkpt><trkpt lat="40.19214755178952" lon="9.267243302378963"><ele>886.0</ele><time>2026-04-28T15:46:55.013Z</time></trkpt><trkpt lat="40.19200021716216" lon="9.267001210228356"><ele>886.0</ele><time>2026-04-28T15:46:56.013Z</time></trkpt><trkpt lat="40.191847741084246" lon="9.266760125434773"><ele>886.0</ele><time>2026-04-28T15:46:57.013Z</time></trkpt><trkpt lat="40.19168959630569" lon="9.266511865480853"><ele>886.0</ele><time>2026-04-28T15:46:58.013Z</time></trkpt><trkpt lat="40.191532936974674" lon="9.266255349970374"><ele>884.0</ele><time>2026-04-28T15:46:59.013Z</time></trkpt><trkpt lat="40.191368663582416" lon="9.265998412959963"><ele>882.0</ele><time>2026-04-28T15:47:00.013Z</time></trkpt><trkpt lat="40.19120440015972" lon="9.265733342172522"><ele>884.0</ele><time>2026-04-28T15:47:01.013Z</time></trkpt><trkpt lat="40.19103898441152" lon="9.265462264633442"><ele>886.0</ele><time>2026-04-28T15:47:02.013Z</time></trkpt><trkpt lat="40.19087552759017" lon="9.265189066646109"><ele>886.0</ele><time>2026-04-28T15:47:03.013Z</time></trkpt><trkpt lat="40.19071041655205" lon="9.26491978138432"><ele>886.0</ele><time>2026-04-28T15:47:04.013Z</time></trkpt><trkpt lat="40.19054097492616" lon="9.26465711559833"><ele>884.0</ele><time>2026-04-28T15:47:05.013Z</time></trkpt><trkpt lat="40.19037889869331" lon="9.264386598317005"><ele>882.0</ele><time>2026-04-28T15:47:06.013Z</time></trkpt><trkpt lat="40.190218942129995" lon="9.264115196773044"><ele>884.0</ele><time>2026-04-28T15:47:07.013Z</time></trkpt><trkpt lat="40.19005523740462" lon="9.26386583241218"><ele>886.0</ele><time>2026-04-28T15:47:08.013Z</time></trkpt><trkpt lat="40.18986846636436" lon="9.263649830749992"><ele>884.0</ele><time>2026-04-28T15:47:09.013Z</time></trkpt><trkpt lat="40.18965177970232" lon="9.26348203797766"><ele>882.0</ele><time>2026-04-28T15:47:10.013Z</time></trkpt><trkpt lat="40.189418954459825" lon="9.263341504391907"><ele>882.0</ele><time>2026-04-28T15:47:11.013Z</time></trkpt><trkpt lat="40.18918137457493" lon="9.263179477622687"><ele>882.0</ele><time>2026-04-28T15:47:12.013Z</time></trkpt><trkpt lat="40.18895577997181" lon="9.2630062529933"><ele>880.5</ele><time>2026-04-28T15:47:13.013Z</time></trkpt><trkpt lat="40.1887269940651" lon="9.262835328295875"><ele>879.0</ele><time>2026-04-28T15:47:14.013Z</time></trkpt><trkpt lat="40.18849248346956" lon="9.262675666292843"><ele>879.0</ele><time>2026-04-28T15:47:15.013Z</time></trkpt><trkpt lat="40.188250134731284" lon="9.26254961414735"><ele>879.0</ele><time>2026-04-28T15:47:16.013Z</time></trkpt><trkpt lat="40.18800114530658" lon="9.262438370653658"><ele>879.5</ele><time>2026-04-28T15:47:17.013Z</time></trkpt><trkpt lat="40.187747632435354" lon="9.262335242320011"><ele>880.0</ele><time>2026-04-28T15:47:18.013Z</time></trkpt><trkpt lat="40.187500401601206" lon="9.262219720450638"><ele>874.0</ele><time>2026-04-28T15:47:19.013Z</time></trkpt><trkpt lat="40.18725355011212" lon="9.26211006926379"><ele>868.0</ele><time>2026-04-28T15:47:20.013Z</time></trkpt><trkpt lat="40.18701638415895" lon="9.261962196013462"><ele>868.0</ele><time>2026-04-28T15:47:21.013Z</time></trkpt><trkpt lat="40.18679811588689" lon="9.26178994986574"><ele>868.0</ele><time>2026-04-28T15:47:22.013Z</time></trkpt><trkpt lat="40.18660869877848" lon="9.261621760734934"><ele>866.0</ele><time>2026-04-28T15:47:23.013Z</time></trkpt><trkpt lat="40.18644476910108" lon="9.261470156756122"><ele>864.0</ele><time>2026-04-28T15:47:24.013Z</time></trkpt><trkpt lat="40.18631073319878" lon="9.261293333344971"><ele>862.0</ele><time>2026-04-28T15:47:25.013Z</time></trkpt><trkpt lat="40.18622595549318" lon="9.26107911811056"><ele>862.0</ele><time>2026-04-28T15:47:26.013Z</time></trkpt><trkpt lat="40.18617469560882" lon="9.260850146198328"><ele>862.0</ele><time>2026-04-28T15:47:27.013Z</time></trkpt><trkpt lat="40.18612691676818" lon="9.260645036496376"><ele>862.0</ele><time>2026-04-28T15:47:28.013Z</time></trkpt><trkpt lat="40.18600731195885" lon="9.260512214420434"><ele>862.0</ele><time>2026-04-28T15:47:29.013Z</time></trkpt><trkpt lat="40.185837386150695" lon="9.26046886145714"><ele>862.0</ele><time>2026-04-28T15:47:30.013Z</time></trkpt><trkpt lat="40.185655237331474" lon="9.260512344566429"><ele>862.0</ele><time>2026-04-28T15:47:31.013Z</time></trkpt><trkpt lat="40.18546823952056" lon="9.260670415653346"><ele>862.0</ele><time>2026-04-28T15:47:32.013Z</time></trkpt><trkpt lat="40.18530967691298" lon="9.260833448857946"><ele>862.0</ele><time>2026-04-28T15:47:33.013Z</time></trkpt><trkpt lat="40.185138229778055" lon="9.260957817812324"><ele>862.0</ele><time>2026-04-28T15:47:34.013Z</time></trkpt><trkpt lat="40.18495081651183" lon="9.26104277671399"><ele>861.3333333333333</ele><time>2026-04-28T15:47:35.012Z</time></trkpt><trkpt lat="40.18475101144621" lon="9.261095918106959"><ele>860.6666666666667</ele><time>2026-04-28T15:47:36.012Z</time></trkpt><trkpt lat="40.184549492666164" lon="9.261125011025369"><ele>860.0</ele><time>2026-04-28T15:47:37.012Z</time></trkpt><trkpt lat="40.184339364979714" lon="9.261160063510447"><ele>860.0</ele><time>2026-04-28T15:47:38.012Z</time></trkpt><trkpt lat="40.18412300801796" lon="9.261216944536326"><ele>860.0</ele><time>2026-04-28T15:47:39.012Z</time></trkpt><trkpt lat="40.18389966939165" lon="9.261274134095968"><ele>860.0</ele><time>2026-04-28T15:47:40.012Z</time></trkpt><trkpt lat="40.18366966880683" lon="9.261338234693513"><ele>858.6666666666667</ele><time>2026-04-28T15:47:41.012Z</time></trkpt><trkpt lat="40.18345684077548" lon="9.261415390354264"><ele>857.3333333333333</ele><time>2026-04-28T15:47:42.012Z</time></trkpt><trkpt lat="40.18325087191563" lon="9.261513894933524"><ele>856.0</ele><time>2026-04-28T15:47:43.012Z</time></trkpt><trkpt lat="40.18304174808804" lon="9.261650568574135"><ele>855.0</ele><time>2026-04-28T15:47:44.012Z</time></trkpt><trkpt lat="40.18282987660252" lon="9.261780684800465"><ele>854.0</ele><time>2026-04-28T15:47:45.012Z</time></trkpt><trkpt lat="40.182622262927666" lon="9.261900934260012"><ele>854.0</ele><time>2026-04-28T15:47:46.012Z</time></trkpt><trkpt lat="40.18241739751285" lon="9.261971409669686"><ele>854.0</ele><time>2026-04-28T15:47:47.012Z</time></trkpt><trkpt lat="40.18219381125778" lon="9.261946439566035"><ele>854.0</ele><time>2026-04-28T15:47:48.012Z</time></trkpt><trkpt lat="40.18195922133623" lon="9.261915094454626"><ele>853.5</ele><time>2026-04-28T15:47:49.014Z</time></trkpt><trkpt lat="40.18172838999841" lon="9.261878154653536"><ele>853.0</ele><time>2026-04-28T15:47:50.013Z</time></trkpt><trkpt lat="40.18151190564811" lon="9.261812971062698"><ele>850.6666666666666</ele><time>2026-04-28T15:47:51.013Z</time></trkpt><trkpt lat="40.18130012627836" lon="9.261717614303642"><ele>848.3333333333333</ele><time>2026-04-28T15:47:52.014Z</time></trkpt><trkpt lat="40.18109690436763" lon="9.26162281812309"><ele>846.0</ele><time>2026-04-28T15:47:53.014Z</time></trkpt><trkpt lat="40.18091613891577" lon="9.261512976920852"><ele>845.6666666666667</ele><time>2026-04-28T15:47:54.014Z</time></trkpt><trkpt lat="40.180751338966786" lon="9.261391314935581"><ele>845.3333333333334</ele><time>2026-04-28T15:47:55.015Z</time></trkpt><trkpt lat="40.18059022346201" lon="9.261234145216307"><ele>845.0</ele><time>2026-04-28T15:47:56.014Z</time></trkpt><trkpt lat="40.18041723717774" lon="9.261052894469314"><ele>845.0</ele><time>2026-04-28T15:47:57.014Z</time></trkpt><trkpt lat="40.180235185688815" lon="9.260862648402957"><ele>845.0</ele><time>2026-04-28T15:47:58.015Z</time></trkpt><trkpt lat="40.18005335982294" lon="9.260654982026237"><ele>845.0</ele><time>2026-04-28T15:47:59.014Z</time></trkpt><trkpt lat="40.17987008556424" lon="9.260445281652956"><ele>845.0</ele><time>2026-04-28T15:48:00.014Z</time></trkpt><trkpt lat="40.17968528197673" lon="9.260247965734548"><ele>845.0</ele><time>2026-04-28T15:48:01.014Z</time></trkpt><trkpt lat="40.179504031581814" lon="9.260047197544386"><ele>845.0</ele><time>2026-04-28T15:48:02.014Z</time></trkpt><trkpt lat="40.17933233883374" lon="9.25982886329325"><ele>847.5</ele><time>2026-04-28T15:48:03.014Z</time></trkpt><trkpt lat="40.179165093693996" lon="9.259591107293433"><ele>850.0</ele><time>2026-04-28T15:48:04.014Z</time></trkpt><trkpt lat="40.17899256149535" lon="9.25935591087764"><ele>845.5</ele><time>2026-04-28T15:48:05.014Z</time></trkpt><trkpt lat="40.17882270090693" lon="9.259115162400665"><ele>841.0</ele><time>2026-04-28T15:48:06.014Z</time></trkpt><trkpt lat="40.17865589425674" lon="9.258876803473846"><ele>841.0</ele><time>2026-04-28T15:48:07.014Z</time></trkpt><trkpt lat="40.17849380320519" lon="9.258643424861903"><ele>841.0</ele><time>2026-04-28T15:48:08.014Z</time></trkpt><trkpt lat="40.17833208529055" lon="9.258412850614723"><ele>840.5</ele><time>2026-04-28T15:48:09.014Z</time></trkpt><trkpt lat="40.17816651022584" lon="9.258187353361032"><ele>840.0</ele><time>2026-04-28T15:48:10.014Z</time></trkpt><trkpt lat="40.177975121897276" lon="9.258005083494679"><ele>840.0</ele><time>2026-04-28T15:48:11.014Z</time></trkpt><trkpt lat="40.17776333780182" lon="9.257900891166463"><ele>840.0</ele><time>2026-04-28T15:48:12.014Z</time></trkpt><trkpt lat="40.17753985300449" lon="9.25781971619336"><ele>838.5</ele><time>2026-04-28T15:48:13.014Z</time></trkpt><trkpt lat="40.17731748739242" lon="9.257716816592437"><ele>837.0</ele><time>2026-04-28T15:48:14.014Z</time></trkpt><trkpt lat="40.177098754094445" lon="9.257613765112781"><ele>837.0</ele><time>2026-04-28T15:48:15.014Z</time></trkpt><trkpt lat="40.176881946119" lon="9.257515702270508"><ele>837.0</ele><time>2026-04-28T15:48:16.014Z</time></trkpt><trkpt lat="40.17669053139331" lon="9.257427875649197"><ele>837.0</ele><time>2026-04-28T15:48:17.014Z</time></trkpt><trkpt lat="40.176534681332875" lon="9.25733588172697"><ele>835.0</ele><time>2026-04-28T15:48:18.014Z</time></trkpt><trkpt lat="40.176424361793266" lon="9.257196966608328"><ele>833.0</ele><time>2026-04-28T15:48:19.014Z</time></trkpt><trkpt lat="40.17637041781312" lon="9.256994284029675"><ele>831.0</ele><time>2026-04-28T15:48:20.014Z</time></trkpt><trkpt lat="40.1763784612071" lon="9.25675180373144"><ele>831.0</ele><time>2026-04-28T15:48:21.014Z</time></trkpt><trkpt lat="40.17641193996386" lon="9.256490337834776"><ele>831.0</ele><time>2026-04-28T15:48:22.014Z</time></trkpt><trkpt lat="40.176439897525825" lon="9.256221290093015"><ele>831.0</ele><time>2026-04-28T15:48:23.014Z</time></trkpt><trkpt lat="40.176465806931056" lon="9.255967048325685"><ele>830.6666666666667</ele><time>2026-04-28T15:48:24.014Z</time></trkpt><trkpt lat="40.17645842578165" lon="9.255737968371932"><ele>830.3333333333334</ele><time>2026-04-28T15:48:25.014Z</time></trkpt><trkpt lat="40.17636898489782" lon="9.255533926892127"><ele>830.0</ele><time>2026-04-28T15:48:26.014Z</time></trkpt><trkpt lat="40.17622648169246" lon="9.255361520851315"><ele>830.3333333333334</ele><time>2026-04-28T15:48:27.014Z</time></trkpt><trkpt lat="40.17604289854073" lon="9.25522416246226"><ele>830.6666666666667</ele><time>2026-04-28T15:48:28.014Z</time></trkpt><trkpt lat="40.17584045444094" lon="9.255114130341072"><ele>831.0</ele><time>2026-04-28T15:48:29.014Z</time></trkpt><trkpt lat="40.175642160658846" lon="9.254979542994459"><ele>831.0</ele><time>2026-04-28T15:48:30.014Z</time></trkpt><trkpt lat="40.17545826451755" lon="9.254793812967389"><ele>831.0</ele><time>2026-04-28T15:48:31.014Z</time></trkpt><trkpt lat="40.17528779030654" lon="9.254569142326039"><ele>835.5</ele><time>2026-04-28T15:48:32.014Z</time></trkpt><trkpt lat="40.17512737465711" lon="9.254349525151456"><ele>840.0</ele><time>2026-04-28T15:48:33.014Z</time></trkpt><trkpt lat="40.17494020001686" lon="9.254142445096752"><ele>840.5</ele><time>2026-04-28T15:48:34.014Z</time></trkpt><trkpt lat="40.1747357422578" lon="9.253968735429531"><ele>841.0</ele><time>2026-04-28T15:48:35.014Z</time></trkpt><trkpt lat="40.17451713133672" lon="9.25380616228734"><ele>841.0</ele><time>2026-04-28T15:48:36.014Z</time></trkpt><trkpt lat="40.17429996977019" lon="9.253632401088987"><ele>841.0</ele><time>2026-04-28T15:48:37.014Z</time></trkpt><trkpt lat="40.17407733058526" lon="9.253454994873744"><ele>840.0</ele><time>2026-04-28T15:48:38.014Z</time></trkpt><trkpt lat="40.173860107660985" lon="9.25327282890374"><ele>839.0</ele><time>2026-04-28T15:48:39.014Z</time></trkpt><trkpt lat="40.17363882438698" lon="9.25308973468001"><ele>839.0</ele><time>2026-04-28T15:48:40.014Z</time></trkpt><trkpt lat="40.17341659004767" lon="9.252898494570738"><ele>839.0</ele><time>2026-04-28T15:48:41.014Z</time></trkpt><trkpt lat="40.17318595115108" lon="9.252711745680553"><ele>835.5</ele><time>2026-04-28T15:48:42.014Z</time></trkpt><trkpt lat="40.172956891882" lon="9.252521775054351"><ele>832.0</ele><time>2026-04-28T15:48:43.014Z</time></trkpt><trkpt lat="40.1727320939799" lon="9.252333007076057"><ele>831.5</ele><time>2026-04-28T15:48:44.014Z</time></trkpt><trkpt lat="40.172508884332196" lon="9.252142944685746"><ele>831.0</ele><time>2026-04-28T15:48:45.014Z</time></trkpt><trkpt lat="40.17228965051214" lon="9.251963003216522"><ele>831.0</ele><time>2026-04-28T15:48:46.014Z</time></trkpt><trkpt lat="40.17207088157288" lon="9.251779384258008"><ele>831.0</ele><time>2026-04-28T15:48:47.014Z</time></trkpt><trkpt lat="40.17186008532525" lon="9.251604027922163"><ele>832.0</ele><time>2026-04-28T15:48:48.014Z</time></trkpt><trkpt lat="40.17166644630564" lon="9.25143648097816"><ele>833.0</ele><time>2026-04-28T15:48:49.014Z</time></trkpt><trkpt lat="40.17148450836075" lon="9.251265793297128"><ele>833.0</ele><time>2026-04-28T15:48:50.014Z</time></trkpt><trkpt lat="40.1713339379802" lon="9.251030449234298"><ele>833.0</ele><time>2026-04-28T15:48:51.014Z</time></trkpt><trkpt lat="40.171222082037126" lon="9.250788086672552"><ele>833.0</ele><time>2026-04-28T15:48:52.014Z</time></trkpt><trkpt lat="40.17113753768055" lon="9.250565737387365"><ele>833.0</ele><time>2026-04-28T15:48:53.014Z</time></trkpt><trkpt lat="40.17109968759272" lon="9.25034468994528"><ele>833.0</ele><time>2026-04-28T15:48:54.014Z</time></trkpt><trkpt lat="40.17112291786815" lon="9.250112990679055"><ele>833.0</ele><time>2026-04-28T15:48:55.014Z</time></trkpt><trkpt lat="40.1711975097329" lon="9.249874288961825"><ele>833.0</ele><time>2026-04-28T15:48:56.014Z</time></trkpt><trkpt lat="40.171277245707735" lon="9.249623046096474"><ele>833.0</ele><time>2026-04-28T15:48:57.014Z</time></trkpt><trkpt lat="40.1713493036833" lon="9.249384072187306"><ele>832.3333333333334</ele><time>2026-04-28T15:48:58.014Z</time></trkpt><trkpt lat="40.171388572155955" lon="9.249158714929491"><ele>831.6666666666667</ele><time>2026-04-28T15:48:59.014Z</time></trkpt><trkpt lat="40.171347815157695" lon="9.248947081243951"><ele>831.0</ele><time>2026-04-28T15:49:00.014Z</time></trkpt><trkpt lat="40.17123910493399" lon="9.248739353886895"><ele>831.0</ele><time>2026-04-28T15:49:01.014Z</time></trkpt><trkpt lat="40.17108461345667" lon="9.24856351537673"><ele>831.0</ele><time>2026-04-28T15:49:02.014Z</time></trkpt><trkpt lat="40.17092529631331" lon="9.248380270756677"><ele>831.0</ele><time>2026-04-28T15:49:03.014Z</time></trkpt><trkpt lat="40.17079734387671" lon="9.248171749598614"><ele>830.6666666666667</ele><time>2026-04-28T15:49:04.014Z</time></trkpt><trkpt lat="40.17072614245936" lon="9.24792395595075"><ele>830.3333333333334</ele><time>2026-04-28T15:49:05.014Z</time></trkpt><trkpt lat="40.1706812977173" lon="9.247656041424513"><ele>830.0</ele><time>2026-04-28T15:49:06.014Z</time></trkpt><trkpt lat="40.1706395122236" lon="9.247392024556653"><ele>828.0</ele><time>2026-04-28T15:49:07.014Z</time></trkpt><trkpt lat="40.17059489380078" lon="9.24714115885499"><ele>826.0</ele><time>2026-04-28T15:49:08.014Z</time></trkpt><trkpt lat="40.17053337475473" lon="9.246898407668331"><ele>824.0</ele><time>2026-04-28T15:49:09.014Z</time></trkpt><trkpt lat="40.17042241154971" lon="9.246678345806869"><ele>824.0</ele><time>2026-04-28T15:49:10.014Z</time></trkpt><trkpt lat="40.1702696806319" lon="9.246494123250981"><ele>824.0</ele><time>2026-04-28T15:49:11.014Z</time></trkpt><trkpt lat="40.17010982579868" lon="9.246318145388697"><ele>824.0</ele><time>2026-04-28T15:49:12.014Z</time></trkpt><trkpt lat="40.169950591764874" lon="9.246160880999739"><ele>826.6666666666667</ele><time>2026-04-28T15:49:13.014Z</time></trkpt><trkpt lat="40.16976806225872" lon="9.24607135231442"><ele>829.3333333333333</ele><time>2026-04-28T15:49:14.014Z</time></trkpt><trkpt lat="40.169567890184105" lon="9.246034370865875"><ele>832.0</ele><time>2026-04-28T15:49:15.014Z</time></trkpt><trkpt lat="40.169364462949034" lon="9.246021950029824"><ele>832.0</ele><time>2026-04-28T15:49:16.014Z</time></trkpt><trkpt lat="40.16916121141214" lon="9.24601275891731"><ele>832.0</ele><time>2026-04-28T15:49:17.014Z</time></trkpt><trkpt lat="40.16897499486052" lon="9.245987416548752"><ele>832.0</ele><time>2026-04-28T15:49:18.014Z</time></trkpt><trkpt lat="40.168812705854165" lon="9.245954133140502"><ele>831.3333333333333</ele><time>2026-04-28T15:49:19.014Z</time></trkpt><trkpt lat="40.168664881367306" lon="9.245867371642436"><ele>830.6666666666667</ele><time>2026-04-28T15:49:20.014Z</time></trkpt><trkpt lat="40.168515439259394" lon="9.245726654297064"><ele>830.0</ele><time>2026-04-28T15:49:21.014Z</time></trkpt><trkpt lat="40.168361571304395" lon="9.245564941980048"><ele>830.6666666666667</ele><time>2026-04-28T15:49:22.014Z</time></trkpt><trkpt lat="40.16820898909444" lon="9.245394845570411"><ele>831.3333333333333</ele><time>2026-04-28T15:49:23.014Z</time></trkpt><trkpt lat="40.16805690130705" lon="9.245236062035849"><ele>832.0</ele><time>2026-04-28T15:49:24.014Z</time></trkpt><trkpt lat="40.16790601788911" lon="9.245069226664945"><ele>832.0</ele><time>2026-04-28T15:49:25.014Z</time></trkpt><trkpt lat="40.16778138457258" lon="9.244874223111731"><ele>832.0</ele><time>2026-04-28T15:49:26.014Z</time></trkpt><trkpt lat="40.16768047785567" lon="9.244628931575116"><ele>832.0</ele><time>2026-04-28T15:49:27.014Z</time></trkpt><trkpt lat="40.167581259010724" lon="9.244371198967286"><ele>835.0</ele><time>2026-04-28T15:49:28.014Z</time></trkpt><trkpt lat="40.16747090071345" lon="9.24410975260251"><ele>838.0</ele><time>2026-04-28T15:49:29.014Z</time></trkpt><trkpt lat="40.167358704525526" lon="9.243848346276714"><ele>840.5</ele><time>2026-04-28T15:49:30.014Z</time></trkpt><trkpt lat="40.16725318989002" lon="9.243584172374701"><ele>843.0</ele><time>2026-04-28T15:49:31.014Z</time></trkpt><trkpt lat="40.16714394531965" lon="9.24330982465778"><ele>845.0</ele><time>2026-04-28T15:49:32.014Z</time></trkpt><trkpt lat="40.16702802131001" lon="9.243030983386934"><ele>847.0</ele><time>2026-04-28T15:49:33.014Z</time></trkpt><trkpt lat="40.16691394443078" lon="9.242759516582131"><ele>847.0</ele><time>2026-04-28T15:49:34.014Z</time></trkpt><trkpt lat="40.166808644960305" lon="9.242491146175052"><ele>847.0</ele><time>2026-04-28T15:49:35.014Z</time></trkpt><trkpt lat="40.16670992669872" lon="9.242250827258978"><ele>847.0</ele><time>2026-04-28T15:49:36.014Z</time></trkpt><trkpt lat="40.16662021302488" lon="9.242035180895371"><ele>848.3333333333333</ele><time>2026-04-28T15:49:37.014Z</time></trkpt><trkpt lat="40.16654603016578" lon="9.241828168326062"><ele>849.6666666666667</ele><time>2026-04-28T15:49:38.014Z</time></trkpt><trkpt lat="40.16650272047055" lon="9.241601981311888"><ele>851.0</ele><time>2026-04-28T15:49:39.014Z</time></trkpt><trkpt lat="40.166511847353206" lon="9.241351776409068"><ele>850.0</ele><time>2026-04-28T15:49:40.014Z</time></trkpt><trkpt lat="40.1665298645861" lon="9.241084617230696"><ele>849.0</ele><time>2026-04-28T15:49:41.014Z</time></trkpt><trkpt lat="40.166546209476934" lon="9.240795165492997"><ele>848.0</ele><time>2026-04-28T15:49:42.014Z</time></trkpt><trkpt lat="40.16655354670309" lon="9.240504394988577"><ele>846.5</ele><time>2026-04-28T15:49:43.013Z</time></trkpt><trkpt lat="40.16656744181292" lon="9.240210571884152"><ele>845.0</ele><time>2026-04-28T15:49:44.013Z</time></trkpt><trkpt lat="40.16658728753693" lon="9.239903722158232"><ele>843.5</ele><time>2026-04-28T15:49:45.013Z</time></trkpt><trkpt lat="40.16660520043672" lon="9.239594146156863"><ele>842.0</ele><time>2026-04-28T15:49:46.013Z</time></trkpt><trkpt lat="40.16662330175144" lon="9.239305134161734"><ele>842.0</ele><time>2026-04-28T15:49:47.013Z</time></trkpt><trkpt lat="40.16663635823467" lon="9.23905557576537"><ele>842.0</ele><time>2026-04-28T15:49:48.013Z</time></trkpt><trkpt lat="40.166637223834805" lon="9.238868137835102"><ele>842.0</ele><time>2026-04-28T15:49:49.013Z</time></trkpt><trkpt lat="40.166586063715954" lon="9.238721445617081"><ele>844.3333333333334</ele><time>2026-04-28T15:49:50.013Z</time></trkpt><trkpt lat="40.16646761449804" lon="9.238629058575656"><ele>846.6666666666667</ele><time>2026-04-28T15:49:51.013Z</time></trkpt><trkpt lat="40.16630155958624" lon="9.238590671772682"><ele>849.0</ele><time>2026-04-28T15:49:52.013Z</time></trkpt><trkpt lat="40.16612093458737" lon="9.238573267072612"><ele>849.0</ele><time>2026-04-28T15:49:53.013Z</time></trkpt><trkpt lat="40.16593453593857" lon="9.238552917272466"><ele>849.0</ele><time>2026-04-28T15:49:54.013Z</time></trkpt><trkpt lat="40.16574314451447" lon="9.238520575871293"><ele>849.0</ele><time>2026-04-28T15:49:55.015Z</time></trkpt><trkpt lat="40.16554927025467" lon="9.238496581564505"><ele>850.0</ele><time>2026-04-28T15:49:56.015Z</time></trkpt><trkpt lat="40.16534514233635" lon="9.238469256184674"><ele>851.0</ele><time>2026-04-28T15:49:57.015Z</time></trkpt><trkpt lat="40.165152913131195" lon="9.238443770906802"><ele>852.0</ele><time>2026-04-28T15:49:58.015Z</time></trkpt><trkpt lat="40.164988039462415" lon="9.238415347509731"><ele>852.0</ele><time>2026-04-28T15:49:59.014Z</time></trkpt><trkpt lat="40.164852436966896" lon="9.238337838564396"><ele>852.0</ele><time>2026-04-28T15:50:00.014Z</time></trkpt><trkpt lat="40.164760401686245" lon="9.238175057546544"><ele>852.0</ele><time>2026-04-28T15:50:01.015Z</time></trkpt><trkpt lat="40.16471385413794" lon="9.237950606758007"><ele>853.6666666666667</ele><time>2026-04-28T15:50:02.015Z</time></trkpt><trkpt lat="40.1646813862221" lon="9.237691355148876"><ele>855.3333333333334</ele><time>2026-04-28T15:50:03.015Z</time></trkpt><trkpt lat="40.164650773264775" lon="9.237410854950982"><ele>857.0</ele><time>2026-04-28T15:50:04.015Z</time></trkpt><trkpt lat="40.16460718030964" lon="9.237133657643872"><ele>859.0</ele><time>2026-04-28T15:50:05.014Z</time></trkpt><trkpt lat="40.16456231544519" lon="9.236879039295168"><ele>861.0</ele><time>2026-04-28T15:50:06.014Z</time></trkpt><trkpt lat="40.164503741400125" lon="9.236657828238723"><ele>863.0</ele><time>2026-04-28T15:50:07.015Z</time></trkpt><trkpt lat="40.1644121027616" lon="9.236484380986276"><ele>863.6666666666667</ele><time>2026-04-28T15:50:08.015Z</time></trkpt><trkpt lat="40.16426888140397" lon="9.23632245072007"><ele>864.3333333333333</ele><time>2026-04-28T15:50:09.015Z</time></trkpt><trkpt lat="40.164111004877" lon="9.236163569303846"><ele>865.0</ele><time>2026-04-28T15:50:10.015Z</time></trkpt><trkpt lat="40.16395770293186" lon="9.235994471829333"><ele>865.0</ele><time>2026-04-28T15:50:11.015Z</time></trkpt><trkpt lat="40.163808672007725" lon="9.235815581972833"><ele>865.0</ele><time>2026-04-28T15:50:12.015Z</time></trkpt><trkpt lat="40.163657330634486" lon="9.235623121096076"><ele>865.0</ele><time>2026-04-28T15:50:13.015Z</time></trkpt><trkpt lat="40.16352271051942" lon="9.235421618897137"><ele>865.3333333333333</ele><time>2026-04-28T15:50:14.015Z</time></trkpt><trkpt lat="40.16337683505115" lon="9.235217620910412"><ele>865.6666666666667</ele><time>2026-04-28T15:50:15.015Z</time></trkpt><trkpt lat="40.163218762074585" lon="9.234999229658118"><ele>866.0</ele><time>2026-04-28T15:50:16.015Z</time></trkpt><trkpt lat="40.16305444760748" lon="9.234773038780446"><ele>862.0</ele><time>2026-04-28T15:50:17.015Z</time></trkpt><trkpt lat="40.162893477188646" lon="9.234526224252395"><ele>858.0</ele><time>2026-04-28T15:50:18.015Z</time></trkpt><trkpt lat="40.16275273466744" lon="9.234267311651816"><ele>858.0</ele><time>2026-04-28T15:50:19.015Z</time></trkpt><trkpt lat="40.162629713631084" lon="9.234001249609046"><ele>858.0</ele><time>2026-04-28T15:50:20.015Z</time></trkpt><trkpt lat="40.16252302823013" lon="9.233722984405114"><ele>856.5</ele><time>2026-04-28T15:50:21.015Z</time></trkpt><trkpt lat="40.162407706021526" lon="9.233427892933568"><ele>855.0</ele><time>2026-04-28T15:50:22.015Z</time></trkpt><trkpt lat="40.16229990773058" lon="9.233125755784238"><ele>849.5</ele><time>2026-04-28T15:50:23.015Z</time></trkpt><trkpt lat="40.162187814517594" lon="9.232820582489165"><ele>844.0</ele><time>2026-04-28T15:50:24.015Z</time></trkpt><trkpt lat="40.162078157598295" lon="9.23252179661515"><ele>845.5</ele><time>2026-04-28T15:50:25.015Z</time></trkpt><trkpt lat="40.161970774642754" lon="9.232226259672558"><ele>847.0</ele><time>2026-04-28T15:50:26.015Z</time></trkpt><trkpt lat="40.16185519713451" lon="9.231940038435654"><ele>847.0</ele><time>2026-04-28T15:50:27.015Z</time></trkpt><trkpt lat="40.16171116886557" lon="9.231674969749411"><ele>847.0</ele><time>2026-04-28T15:50:28.015Z</time></trkpt><trkpt lat="40.161547427143375" lon="9.23142761319927"><ele>847.0</ele><time>2026-04-28T15:50:29.015Z</time></trkpt><trkpt lat="40.1613772615888" lon="9.231181791208513"><ele>847.0</ele><time>2026-04-28T15:50:30.015Z</time></trkpt><trkpt lat="40.16120322229668" lon="9.230941504051554"><ele>847.0</ele><time>2026-04-28T15:50:31.015Z</time></trkpt><trkpt lat="40.16103111010938" lon="9.23070213081827"><ele>847.0</ele><time>2026-04-28T15:50:32.015Z</time></trkpt><trkpt lat="40.160863889961604" lon="9.230469183009342"><ele>846.0</ele><time>2026-04-28T15:50:33.015Z</time></trkpt><trkpt lat="40.1607059365412" lon="9.23024901951256"><ele>845.0</ele><time>2026-04-28T15:50:34.015Z</time></trkpt><trkpt lat="40.16056625381855" lon="9.230042838357992"><ele>844.0</ele><time>2026-04-28T15:50:35.015Z</time></trkpt><trkpt lat="40.16044472560466" lon="9.229851447118923"><ele>843.6666666666666</ele><time>2026-04-28T15:50:36.015Z</time></trkpt><trkpt lat="40.16034908686565" lon="9.229647125262375"><ele>843.3333333333333</ele><time>2026-04-28T15:50:37.015Z</time></trkpt><trkpt lat="40.160291043519344" lon="9.229400840129061"><ele>843.0</ele><time>2026-04-28T15:50:38.015Z</time></trkpt><trkpt lat="40.16024278329586" lon="9.229124231292989"><ele>843.0</ele><time>2026-04-28T15:50:39.015Z</time></trkpt><trkpt lat="40.16019197787067" lon="9.228837571383805"><ele>843.0</ele><time>2026-04-28T15:50:40.015Z</time></trkpt><trkpt lat="40.160139371136296" lon="9.228539621047535"><ele>843.0</ele><time>2026-04-28T15:50:41.015Z</time></trkpt><trkpt lat="40.16009798323613" lon="9.228225386984112"><ele>843.0</ele><time>2026-04-28T15:50:42.015Z</time></trkpt><trkpt lat="40.16008325391027" lon="9.227906729936588"><ele>843.5</ele><time>2026-04-28T15:50:43.015Z</time></trkpt><trkpt lat="40.16007528461477" lon="9.227601931463466"><ele>844.0</ele><time>2026-04-28T15:50:44.015Z</time></trkpt><trkpt lat="40.16007301570679" lon="9.227305138040299"><ele>844.0</ele><time>2026-04-28T15:50:45.015Z</time></trkpt><trkpt lat="40.160068214993025" lon="9.227015436659498"><ele>844.0</ele><time>2026-04-28T15:50:46.015Z</time></trkpt><trkpt lat="40.160053560088976" lon="9.226769886338777"><ele>844.0</ele><time>2026-04-28T15:50:47.015Z</time></trkpt><trkpt lat="40.16001728648851" lon="9.226558787945912"><ele>844.0</ele><time>2026-04-28T15:50:48.015Z</time></trkpt><trkpt lat="40.15993318759308" lon="9.226373396148166"><ele>844.0</ele><time>2026-04-28T15:50:49.015Z</time></trkpt><trkpt lat="40.15979558191745" lon="9.226207854246672"><ele>844.0</ele><time>2026-04-28T15:50:50.015Z</time></trkpt><trkpt lat="40.15963915388131" lon="9.226029736594446"><ele>844.0</ele><time>2026-04-28T15:50:51.015Z</time></trkpt><trkpt lat="40.15946419352031" lon="9.225820780333272"><ele>844.0</ele><time>2026-04-28T15:50:52.015Z</time></trkpt><trkpt lat="40.15930302198835" lon="9.225613686422067"><ele>844.5</ele><time>2026-04-28T15:50:53.015Z</time></trkpt><trkpt lat="40.15913615288724" lon="9.22541033938525"><ele>845.0</ele><time>2026-04-28T15:50:54.015Z</time></trkpt><trkpt lat="40.15896562576539" lon="9.225190661417605"><ele>845.0</ele><time>2026-04-28T15:50:55.015Z</time></trkpt><trkpt lat="40.15878489075225" lon="9.224973630062724"><ele>845.0</ele><time>2026-04-28T15:50:56.015Z</time></trkpt><trkpt lat="40.158607249990055" lon="9.224752440485377"><ele>846.5</ele><time>2026-04-28T15:50:57.015Z</time></trkpt><trkpt lat="40.15842967854179" lon="9.224537320157571"><ele>848.0</ele><time>2026-04-28T15:50:58.015Z</time></trkpt><trkpt lat="40.15824852492388" lon="9.224316952487353"><ele>847.0</ele><time>2026-04-28T15:50:59.015Z</time></trkpt><trkpt lat="40.15807983959219" lon="9.224111224202261"><ele>846.0</ele><time>2026-04-28T15:51:00.015Z</time></trkpt><trkpt lat="40.157921977314395" lon="9.22392059937871"><ele>845.0</ele><time>2026-04-28T15:51:01.015Z</time></trkpt><trkpt lat="40.15777604974773" lon="9.22375040245671"><ele>846.3333333333334</ele><time>2026-04-28T15:51:02.015Z</time></trkpt><trkpt lat="40.157619277900814" lon="9.223628826818693"><ele>847.6666666666667</ele><time>2026-04-28T15:51:03.015Z</time></trkpt><trkpt lat="40.1574389851884" lon="9.223580657211453"><ele>849.0</ele><time>2026-04-28T15:51:04.015Z</time></trkpt><trkpt lat="40.15723826123725" lon="9.22356920183179"><ele>849.0</ele><time>2026-04-28T15:51:05.015Z</time></trkpt><trkpt lat="40.15703277231961" lon="9.2235823756005"><ele>849.0</ele><time>2026-04-28T15:51:06.015Z</time></trkpt><trkpt lat="40.15680924764141" lon="9.22357509387909"><ele>849.0</ele><time>2026-04-28T15:51:07.015Z</time></trkpt><trkpt lat="40.15659506431245" lon="9.223558804648295"><ele>849.0</ele><time>2026-04-28T15:51:08.015Z</time></trkpt><trkpt lat="40.15637825241885" lon="9.223539655191095"><ele>849.0</ele><time>2026-04-28T15:51:09.015Z</time></trkpt><trkpt lat="40.15616828780785" lon="9.223518798793917"><ele>849.0</ele><time>2026-04-28T15:51:10.015Z</time></trkpt><trkpt lat="40.15597065090902" lon="9.2235100259427"><ele>849.0</ele><time>2026-04-28T15:51:11.015Z</time></trkpt><trkpt lat="40.155783792185325" lon="9.223530730931968"><ele>849.0</ele><time>2026-04-28T15:51:12.015Z</time></trkpt><trkpt lat="40.155614733237314" lon="9.223624547910378"><ele>849.0</ele><time>2026-04-28T15:51:13.015Z</time></trkpt><trkpt lat="40.15544165960722" lon="9.223762451732473"><ele>849.6666666666667</ele><time>2026-04-28T15:51:14.015Z</time></trkpt><trkpt lat="40.15525689781181" lon="9.223910631513586"><ele>850.3333333333334</ele><time>2026-04-28T15:51:15.015Z</time></trkpt><trkpt lat="40.15506762996529" lon="9.224057739582454"><ele>851.0</ele><time>2026-04-28T15:51:16.015Z</time></trkpt><trkpt lat="40.1548851080969" lon="9.224203874594247"><ele>849.3333333333334</ele><time>2026-04-28T15:51:17.015Z</time></trkpt><trkpt lat="40.15469661854836" lon="9.224360961707644"><ele>847.6666666666667</ele><time>2026-04-28T15:51:18.015Z</time></trkpt><trkpt lat="40.154523346396495" lon="9.224537366209388"><ele>846.0</ele><time>2026-04-28T15:51:19.015Z</time></trkpt><trkpt lat="40.1543642019828" lon="9.22473438678649"><ele>845.6666666666667</ele><time>2026-04-28T15:51:20.015Z</time></trkpt><trkpt lat="40.154205755569905" lon="9.224930679387336"><ele>845.3333333333334</ele><time>2026-04-28T15:51:21.015Z</time></trkpt><trkpt lat="40.154048452942746" lon="9.225132150377357"><ele>845.0</ele><time>2026-04-28T15:51:22.014Z</time></trkpt><trkpt lat="40.153895047463564" lon="9.22532234320352"><ele>845.0</ele><time>2026-04-28T15:51:23.014Z</time></trkpt><trkpt lat="40.15375266272158" lon="9.225486426704657"><ele>845.0</ele><time>2026-04-28T15:51:24.014Z</time></trkpt><trkpt lat="40.153610031336754" lon="9.225589953568631"><ele>845.0</ele><time>2026-04-28T15:51:25.014Z</time></trkpt><trkpt lat="40.15344737112151" lon="9.22558840773784"><ele>845.0</ele><time>2026-04-28T15:51:26.014Z</time></trkpt><trkpt lat="40.153269742772416" lon="9.225513294865326"><ele>845.0</ele><time>2026-04-28T15:51:27.014Z</time></trkpt><trkpt lat="40.15308401882689" lon="9.225412988487328"><ele>845.0</ele><time>2026-04-28T15:51:28.014Z</time></trkpt><trkpt lat="40.152890674850966" lon="9.225322399404542"><ele>844.6666666666667</ele><time>2026-04-28T15:51:29.014Z</time></trkpt><trkpt lat="40.152699601737034" lon="9.225231031618204"><ele>844.3333333333333</ele><time>2026-04-28T15:51:30.014Z</time></trkpt><trkpt lat="40.152503955976684" lon="9.225142428225258"><ele>844.0</ele><time>2026-04-28T15:51:31.014Z</time></trkpt><trkpt lat="40.15231679755555" lon="9.225072922792625"><ele>842.0</ele><time>2026-04-28T15:51:32.014Z</time></trkpt><trkpt lat="40.152131700864516" lon="9.224996041403072"><ele>840.0</ele><time>2026-04-28T15:51:33.014Z</time></trkpt><trkpt lat="40.1519663314673" lon="9.224927691808285"><ele>838.0</ele><time>2026-04-28T15:51:34.014Z</time></trkpt><trkpt lat="40.15178372302335" lon="9.224846675183294"><ele>836.6666666666666</ele><time>2026-04-28T15:51:35.014Z</time></trkpt><trkpt lat="40.15159447136208" lon="9.22475406382887"><ele>835.3333333333333</ele><time>2026-04-28T15:51:36.014Z</time></trkpt><trkpt lat="40.1514085763254" lon="9.22463238708801"><ele>834.0</ele><time>2026-04-28T15:51:37.014Z</time></trkpt><trkpt lat="40.15123896448463" lon="9.224472200405724"><ele>834.0</ele><time>2026-04-28T15:51:38.014Z</time></trkpt><trkpt lat="40.1510910752725" lon="9.224310366837772"><ele>834.0</ele><time>2026-04-28T15:51:39.014Z</time></trkpt><trkpt lat="40.15097403935061" lon="9.224127760608235"><ele>834.0</ele><time>2026-04-28T15:51:40.014Z</time></trkpt><trkpt lat="40.15089346133473" lon="9.223895055556703"><ele>835.6666666666667</ele><time>2026-04-28T15:51:41.014Z</time></trkpt><trkpt lat="40.15082558740695" lon="9.223643621524113"><ele>837.3333333333334</ele><time>2026-04-28T15:51:42.014Z</time></trkpt><trkpt lat="40.150762386351204" lon="9.223402394537343"><ele>839.0</ele><time>2026-04-28T15:51:43.014Z</time></trkpt><trkpt lat="40.15070867632811" lon="9.223182427558598"><ele>839.3333333333334</ele><time>2026-04-28T15:51:44.014Z</time></trkpt><trkpt lat="40.150689279046645" lon="9.222984929248497"><ele>839.6666666666667</ele><time>2026-04-28T15:51:45.014Z</time></trkpt><trkpt lat="40.1507324600317" lon="9.222787977294532"><ele>840.0</ele><time>2026-04-28T15:51:46.014Z</time></trkpt><trkpt lat="40.15081144711387" lon="9.222578322556995"><ele>840.0</ele><time>2026-04-28T15:51:47.014Z</time></trkpt><trkpt lat="40.150899772005566" lon="9.222357655132893"><ele>840.0</ele><time>2026-04-28T15:51:48.014Z</time></trkpt><trkpt lat="40.150978651717395" lon="9.222139820783337"><ele>840.0</ele><time>2026-04-28T15:51:49.014Z</time></trkpt><trkpt lat="40.15104838233506" lon="9.221920265279964"><ele>839.3333333333333</ele><time>2026-04-28T15:51:50.014Z</time></trkpt><trkpt lat="40.151090285714126" lon="9.221691611967554"><ele>838.6666666666666</ele><time>2026-04-28T15:51:51.014Z</time></trkpt><trkpt lat="40.15108799677722" lon="9.221462861044614"><ele>838.0</ele><time>2026-04-28T15:51:52.014Z</time></trkpt><trkpt lat="40.15105489962427" lon="9.221249517280556"><ele>840.5</ele><time>2026-04-28T15:51:53.014Z</time></trkpt><trkpt lat="40.15101534207395" lon="9.221052443611994"><ele>843.0</ele><time>2026-04-28T15:51:54.014Z</time></trkpt><trkpt lat="40.15094950574222" lon="9.22088678486211"><ele>845.5</ele><time>2026-04-28T15:51:55.014Z</time></trkpt><trkpt lat="40.150847804050834" lon="9.220758438300058"><ele>848.0</ele><time>2026-04-28T15:51:56.014Z</time></trkpt><trkpt lat="40.15071214919141" lon="9.220670572407112"><ele>851.25</ele><time>2026-04-28T15:51:57.014Z</time></trkpt><trkpt lat="40.15056031789645" lon="9.220612968209439"><ele>854.5</ele><time>2026-04-28T15:51:58.014Z</time></trkpt><trkpt lat="40.15041661644136" lon="9.220570710453686"><ele>857.75</ele><time>2026-04-28T15:51:59.014Z</time></trkpt><trkpt lat="40.15028434095673" lon="9.220525146865592"><ele>861.0</ele><time>2026-04-28T15:52:00.014Z</time></trkpt><trkpt lat="40.150155604201814" lon="9.220487722155204"><ele>861.0</ele><time>2026-04-28T15:52:01.015Z</time></trkpt><trkpt lat="40.150024556940274" lon="9.220446311281957"><ele>861.0</ele><time>2026-04-28T15:52:02.015Z</time></trkpt><trkpt lat="40.149892973404995" lon="9.220409996663964"><ele>861.0</ele><time>2026-04-28T15:52:03.015Z</time></trkpt><trkpt lat="40.14976332441062" lon="9.22037211787102"><ele>861.0</ele><time>2026-04-28T15:52:04.015Z</time></trkpt><trkpt lat="40.149630194361585" lon="9.22032958847959"><ele>860.75</ele><time>2026-04-28T15:52:05.016Z</time></trkpt><trkpt lat="40.14949845647742" lon="9.220291650231248"><ele>860.5</ele><time>2026-04-28T15:52:06.016Z</time></trkpt><trkpt lat="40.1493678635956" lon="9.220253909248415"><ele>860.25</ele><time>2026-04-28T15:52:07.016Z</time></trkpt><trkpt lat="40.149238977782936" lon="9.220214663028917"><ele>860.0</ele><time>2026-04-28T15:52:08.016Z</time></trkpt><trkpt lat="40.14911244018531" lon="9.220171780442504"><ele>859.4</ele><time>2026-04-28T15:52:09.016Z</time></trkpt><trkpt lat="40.14899960950432" lon="9.220137234607437"><ele>858.8</ele><time>2026-04-28T15:52:10.016Z</time></trkpt><trkpt lat="40.14891192662749" lon="9.220097333835453"><ele>858.2</ele><time>2026-04-28T15:52:11.015Z</time></trkpt><trkpt lat="40.14883615547363" lon="9.220080572357764"><ele>857.6</ele><time>2026-04-28T15:52:12.015Z</time></trkpt><trkpt lat="40.14871975007886" lon="9.22006141908745"><ele>857.0</ele><time>2026-04-28T15:52:14.016Z</time></trkpt><trkpt lat="40.14864886911207" lon="9.220054243062854"><ele>857.0000000000001</ele><time>2026-04-28T15:52:15.016Z</time></trkpt><trkpt lat="40.148576414584284" lon="9.22004471690601"><ele>857.0</ele><time>2026-04-28T15:52:16.016Z</time></trkpt><trkpt lat="40.14849380528147" lon="9.220033718102359"><ele>857.0</ele><time>2026-04-28T15:52:17.016Z</time></trkpt><trkpt lat="40.148400107367394" lon="9.2200270218285"><ele>857.0</ele><time>2026-04-28T15:52:18.016Z</time></trkpt><trkpt lat="40.14830871190758" lon="9.22000592571835"><ele>857.0000000000001</ele><time>2026-04-28T15:52:19.016Z</time></trkpt><trkpt lat="40.148214188216215" lon="9.219967101959698"><ele>857.0</ele><time>2026-04-28T15:52:20.016Z</time></trkpt><trkpt lat="40.14812302966623" lon="9.219906500378311"><ele>857.0</ele><time>2026-04-28T15:52:21.016Z</time></trkpt><trkpt lat="40.14803881818724" lon="9.219845839199673"><ele>857.0</ele><time>2026-04-28T15:52:22.016Z</time></trkpt><trkpt lat="40.147966913933686" lon="9.219765794303221"><ele>857.0</ele><time>2026-04-28T15:52:23.015Z</time></trkpt><trkpt lat="40.14789895395538" lon="9.219671999242577"><ele>857.0</ele><time>2026-04-28T15:52:24.015Z</time></trkpt><trkpt lat="40.14782600685104" lon="9.219574673763423"><ele>857.0</ele><time>2026-04-28T15:52:25.015Z</time></trkpt><trkpt lat="40.14777124662224" lon="9.219465857844446"><ele>857.0</ele><time>2026-04-28T15:52:26.015Z</time></trkpt><trkpt lat="40.14771280323176" lon="9.219353210686874"><ele>857.0</ele><time>2026-04-28T15:52:27.015Z</time></trkpt><trkpt lat="40.14767008080425" lon="9.219237432947889"><ele>857.0</ele><time>2026-04-28T15:52:28.015Z</time></trkpt><trkpt lat="40.14762501307849" lon="9.219112762965828"><ele>857.0</ele><time>2026-04-28T15:52:29.015Z</time></trkpt><trkpt lat="40.147574605324266" lon="9.218997298133774"><ele>857.0</ele><time>2026-04-28T15:52:30.015Z</time></trkpt><trkpt lat="40.147519072453605" lon="9.218891969301627"><ele>858.6</ele><time>2026-04-28T15:52:31.015Z</time></trkpt><trkpt lat="40.1474602461241" lon="9.218787189473305"><ele>860.2</ele><time>2026-04-28T15:52:32.015Z</time></trkpt><trkpt lat="40.14738966667054" lon="9.218683024910476"><ele>861.8</ele><time>2026-04-28T15:52:33.015Z</time></trkpt><trkpt lat="40.1473274987927" lon="9.218590233249369"><ele>863.4</ele><time>2026-04-28T15:52:34.015Z</time></trkpt><trkpt lat="40.147272748704935" lon="9.218491397956322"><ele>865.0</ele><time>2026-04-28T15:52:35.015Z</time></trkpt><trkpt lat="40.14723407240689" lon="9.218385995068376"><ele>865.0</ele><time>2026-04-28T15:52:36.015Z</time></trkpt><trkpt lat="40.147252871142534" lon="9.21827128483425"><ele>865.0</ele><time>2026-04-28T15:52:37.015Z</time></trkpt><trkpt lat="40.14732517840786" lon="9.218176291575617"><ele>865.0</ele><time>2026-04-28T15:52:38.015Z</time></trkpt><trkpt lat="40.14742051959332" lon="9.218134100381942"><ele>865.0</ele><time>2026-04-28T15:52:39.015Z</time></trkpt><trkpt lat="40.147520722814335" lon="9.218175953567087"><ele>865.0</ele><time>2026-04-28T15:52:40.015Z</time></trkpt><trkpt lat="40.14761725674243" lon="9.218240529612348"><ele>865.0</ele><time>2026-04-28T15:52:41.015Z</time></trkpt><trkpt lat="40.147712430354304" lon="9.218299549367226"><ele>865.0</ele><time>2026-04-28T15:52:42.015Z</time></trkpt><trkpt lat="40.14781816000357" lon="9.218314488612327"><ele>865.0</ele><time>2026-04-28T15:52:43.015Z</time></trkpt><trkpt lat="40.14792527814219" lon="9.2183052309967"><ele>865.0</ele><time>2026-04-28T15:52:44.015Z</time></trkpt><trkpt lat="40.14802402958421" lon="9.218264338011094"><ele>865.0</ele><time>2026-04-28T15:52:45.015Z</time></trkpt><trkpt lat="40.14810792145625" lon="9.218209724199445"><ele>865.0</ele><time>2026-04-28T15:52:46.015Z</time></trkpt><trkpt lat="40.1482025073876" lon="9.21816892273811"><ele>865.0</ele><time>2026-04-28T15:52:47.015Z</time></trkpt><trkpt lat="40.148284054786615" lon="9.2181153752857"><ele>865.0</ele><time>2026-04-28T15:52:48.015Z</time></trkpt><trkpt lat="40.14836825194013" lon="9.218086988986824"><ele>865.0</ele><time>2026-04-28T15:52:49.015Z</time></trkpt><trkpt lat="40.148485272784654" lon="9.218081137298986"><ele>865.0</ele><time>2026-04-28T15:52:50.015Z</time></trkpt><trkpt lat="40.14859066769618" lon="9.218095352510584"><ele>866.0</ele><time>2026-04-28T15:52:51.015Z</time></trkpt><trkpt lat="40.148694492489334" lon="9.218125187121364"><ele>867.0</ele><time>2026-04-28T15:52:52.015Z</time></trkpt><trkpt lat="40.14879183124296" lon="9.218169172836925"><ele>868.0</ele><time>2026-04-28T15:52:53.015Z</time></trkpt><trkpt lat="40.14889411795987" lon="9.21821422217518"><ele>869.0</ele><time>2026-04-28T15:52:54.015Z</time></trkpt><trkpt lat="40.14899246717878" lon="9.218274399906191"><ele>870.0</ele><time>2026-04-28T15:52:55.015Z</time></trkpt><trkpt lat="40.149095228894204" lon="9.21833278047398"><ele>870.75</ele><time>2026-04-28T15:52:56.015Z</time></trkpt><trkpt lat="40.149199980745266" lon="9.218407812477452"><ele>871.5</ele><time>2026-04-28T15:52:57.015Z</time></trkpt><trkpt lat="40.149312525398855" lon="9.218465811571644"><ele>872.25</ele><time>2026-04-28T15:52:58.015Z</time></trkpt><trkpt lat="40.149420631772735" lon="9.218509780703222"><ele>873.0</ele><time>2026-04-28T15:52:59.015Z</time></trkpt><trkpt lat="40.14953203764878" lon="9.21855511967988"><ele>873.0</ele><time>2026-04-28T15:53:00.015Z</time></trkpt><trkpt lat="40.14965068798708" lon="9.21860874156993"><ele>873.0</ele><time>2026-04-28T15:53:01.015Z</time></trkpt><trkpt lat="40.149760561850606" lon="9.218657545902468"><ele>873.0</ele><time>2026-04-28T15:53:02.015Z</time></trkpt><trkpt lat="40.14987292309045" lon="9.218697026656338"><ele>873.0</ele><time>2026-04-28T15:53:03.015Z</time></trkpt><trkpt lat="40.14998274200528" lon="9.2187356332384"><ele>873.0</ele><time>2026-04-28T15:53:04.015Z</time></trkpt><trkpt lat="40.15008452851207" lon="9.218776151180048"><ele>873.0</ele><time>2026-04-28T15:53:05.015Z</time></trkpt><trkpt lat="40.150174955020326" lon="9.218802511163409"><ele>873.0</ele><time>2026-04-28T15:53:06.015Z</time></trkpt><trkpt lat="40.150258577076755" lon="9.218816829588867"><ele>873.0</ele><time>2026-04-28T15:53:07.015Z</time></trkpt><trkpt lat="40.15033734951131" lon="9.21883675020794"><ele>873.0</ele><time>2026-04-28T15:53:08.015Z</time></trkpt><trkpt lat="40.15042505710809" lon="9.218855145955006"><ele>873.0</ele><time>2026-04-28T15:53:09.015Z</time></trkpt><trkpt lat="40.15052261954065" lon="9.218868951640806"><ele>873.0</ele><time>2026-04-28T15:53:10.015Z</time></trkpt><trkpt lat="40.150630146050574" lon="9.21887471965233"><ele>873.0</ele><time>2026-04-28T15:53:11.015Z</time></trkpt><trkpt lat="40.15074547578964" lon="9.218878493186372"><ele>873.0</ele><time>2026-04-28T15:53:12.015Z</time></trkpt><trkpt lat="40.15099286086826" lon="9.218874193026123"><ele>873.0</ele><time>2026-04-28T15:53:14.015Z</time></trkpt><trkpt lat="40.151124742763656" lon="9.218877720251387"><ele>873.0</ele><time>2026-04-28T15:53:15.015Z</time></trkpt><trkpt lat="40.15125941853611" lon="9.218880034354996"><ele>873.0</ele><time>2026-04-28T15:53:16.015Z</time></trkpt><trkpt lat="40.15139582450602" lon="9.218876353671998"><ele>873.0</ele><time>2026-04-28T15:53:17.015Z</time></trkpt><trkpt lat="40.151535462481505" lon="9.218880432285678"><ele>875.5</ele><time>2026-04-28T15:53:18.015Z</time></trkpt><trkpt lat="40.151680888753916" lon="9.218887121875545"><ele>878.0</ele><time>2026-04-28T15:53:19.015Z</time></trkpt><trkpt lat="40.1518294521612" lon="9.218903440487477"><ele>880.5</ele><time>2026-04-28T15:53:20.015Z</time></trkpt><trkpt lat="40.15197625322849" lon="9.218917140920665"><ele>883.0</ele><time>2026-04-28T15:53:21.015Z</time></trkpt><trkpt lat="40.15213247762758" lon="9.218945609482116"><ele>882.3333333333333</ele><time>2026-04-28T15:53:22.015Z</time></trkpt><trkpt lat="40.15229942657079" lon="9.218989339820416"><ele>881.6666666666667</ele><time>2026-04-28T15:53:23.015Z</time></trkpt><trkpt lat="40.15248406875771" lon="9.219028871197256"><ele>881.0</ele><time>2026-04-28T15:53:24.015Z</time></trkpt><trkpt lat="40.152688309579055" lon="9.219061010445378"><ele>883.0</ele><time>2026-04-28T15:53:25.015Z</time></trkpt><trkpt lat="40.15291622028303" lon="9.219103262578027"><ele>885.0</ele><time>2026-04-28T15:53:26.015Z</time></trkpt><trkpt lat="40.15316409935166" lon="9.219147613854378"><ele>887.0</ele><time>2026-04-28T15:53:27.015Z</time></trkpt><trkpt lat="40.15342479104476" lon="9.219195315774156"><ele>889.0</ele><time>2026-04-28T15:53:28.015Z</time></trkpt><trkpt lat="40.153697156453674" lon="9.219222087005027"><ele>889.0</ele><time>2026-04-28T15:53:29.015Z</time></trkpt><trkpt lat="40.15397814804883" lon="9.219224251766699"><ele>889.0</ele><time>2026-04-28T15:53:30.015Z</time></trkpt><trkpt lat="40.154268102288334" lon="9.219195704687543"><ele>890.0</ele><time>2026-04-28T15:53:31.015Z</time></trkpt><trkpt lat="40.15453882964975" lon="9.219161606282308"><ele>891.0</ele><time>2026-04-28T15:53:32.015Z</time></trkpt><trkpt lat="40.15480081047311" lon="9.21914796936782"><ele>894.0</ele><time>2026-04-28T15:53:33.015Z</time></trkpt><trkpt lat="40.15504308989705" lon="9.219134037754898"><ele>897.0</ele><time>2026-04-28T15:53:34.015Z</time></trkpt><trkpt lat="40.1552823158137" lon="9.219108498498416"><ele>897.0</ele><time>2026-04-28T15:53:35.015Z</time></trkpt><trkpt lat="40.155516770754716" lon="9.219055097695058"><ele>897.0</ele><time>2026-04-28T15:53:36.015Z</time></trkpt><trkpt lat="40.155753409028115" lon="9.21897537822657"><ele>901.5</ele><time>2026-04-28T15:53:37.015Z</time></trkpt><trkpt lat="40.15599787840191" lon="9.218887159461097"><ele>906.0</ele><time>2026-04-28T15:53:38.015Z</time></trkpt><trkpt lat="40.1562255923534" lon="9.21880519342117"><ele>906.0</ele><time>2026-04-28T15:53:39.015Z</time></trkpt><trkpt lat="40.156436679406674" lon="9.21872558011011"><ele>906.0</ele><time>2026-04-28T15:53:40.015Z</time></trkpt><trkpt lat="40.156639415831094" lon="9.21862132796033"><ele>906.0</ele><time>2026-04-28T15:53:41.015Z</time></trkpt><trkpt lat="40.15682933248927" lon="9.218474135846183"><ele>906.0</ele><time>2026-04-28T15:53:42.015Z</time></trkpt><trkpt lat="40.157019096720106" lon="9.218301114139043"><ele>906.0</ele><time>2026-04-28T15:53:43.015Z</time></trkpt><trkpt lat="40.15720696066569" lon="9.218119293823385"><ele>904.0</ele><time>2026-04-28T15:53:44.015Z</time></trkpt><trkpt lat="40.157389200990885" lon="9.21796195543782"><ele>902.0</ele><time>2026-04-28T15:53:45.015Z</time></trkpt><trkpt lat="40.15754181044672" lon="9.217757971378685"><ele>900.0</ele><time>2026-04-28T15:53:46.015Z</time></trkpt><trkpt lat="40.157670530271254" lon="9.21751921598418"><ele>899.0</ele><time>2026-04-28T15:53:47.015Z</time></trkpt><trkpt lat="40.15778360720058" lon="9.217279274298473"><ele>898.0</ele><time>2026-04-28T15:53:48.015Z</time></trkpt><trkpt lat="40.157884657992966" lon="9.217062228115298"><ele>897.0</ele><time>2026-04-28T15:53:49.015Z</time></trkpt><trkpt lat="40.15792049445769" lon="9.216816500666932"><ele>897.0</ele><time>2026-04-28T15:53:50.015Z</time></trkpt><trkpt lat="40.157919516535024" lon="9.216553247457957"><ele>897.0</ele><time>2026-04-28T15:53:51.015Z</time></trkpt><trkpt lat="40.15790796240084" lon="9.216269834021585"><ele>897.0</ele><time>2026-04-28T15:53:52.015Z</time></trkpt><trkpt lat="40.15790178355695" lon="9.215999822212293"><ele>895.6666666666667</ele><time>2026-04-28T15:53:53.015Z</time></trkpt><trkpt lat="40.15790819227447" lon="9.215751393672273"><ele>894.3333333333334</ele><time>2026-04-28T15:53:54.015Z</time></trkpt><trkpt lat="40.15795334608889" lon="9.215545227032885"><ele>893.0</ele><time>2026-04-28T15:53:55.015Z</time></trkpt><trkpt lat="40.15805757569709" lon="9.215387203753"><ele>888.0</ele><time>2026-04-28T15:53:56.015Z</time></trkpt><trkpt lat="40.15822698317181" lon="9.215259610614929"><ele>883.0</ele><time>2026-04-28T15:53:57.015Z</time></trkpt><trkpt lat="40.15840815486648" lon="9.215113560521068"><ele>878.0</ele><time>2026-04-28T15:53:58.015Z</time></trkpt><trkpt lat="40.15857677424617" lon="9.214955314541276"><ele>873.6666666666667</ele><time>2026-04-28T15:53:59.015Z</time></trkpt><trkpt lat="40.1587383218006" lon="9.21478648450966"><ele>869.3333333333333</ele><time>2026-04-28T15:54:00.015Z</time></trkpt><trkpt lat="40.15887925549016" lon="9.214617311645103"><ele>865.0</ele><time>2026-04-28T15:54:01.015Z</time></trkpt><trkpt lat="40.15898053803782" lon="9.214416758127056"><ele>865.3333333333333</ele><time>2026-04-28T15:54:02.015Z</time></trkpt><trkpt lat="40.15905410067873" lon="9.214197473290797"><ele>865.6666666666667</ele><time>2026-04-28T15:54:03.015Z</time></trkpt><trkpt lat="40.15911477372295" lon="9.213929799537915"><ele>866.0</ele><time>2026-04-28T15:54:04.015Z</time></trkpt><trkpt lat="40.159188794844894" lon="9.213664568267697"><ele>866.0</ele><time>2026-04-28T15:54:05.015Z</time></trkpt><trkpt lat="40.15926621784119" lon="9.213390030984353"><ele>866.0</ele><time>2026-04-28T15:54:06.016Z</time></trkpt><trkpt lat="40.1593380663484" lon="9.213107597671797"><ele>862.0</ele><time>2026-04-28T15:54:07.016Z</time></trkpt><trkpt lat="40.15938525939769" lon="9.212813610353153"><ele>858.0</ele><time>2026-04-28T15:54:08.016Z</time></trkpt><trkpt lat="40.159425059741196" lon="9.212518260804517"><ele>854.6666666666667</ele><time>2026-04-28T15:54:09.016Z</time></trkpt><trkpt lat="40.15947612828883" lon="9.212229763732065"><ele>851.3333333333334</ele><time>2026-04-28T15:54:10.016Z</time></trkpt><trkpt lat="40.15954376782582" lon="9.211977989936512"><ele>848.0</ele><time>2026-04-28T15:54:11.016Z</time></trkpt><trkpt lat="40.15961634389791" lon="9.211757264646325"><ele>848.0</ele><time>2026-04-28T15:54:12.016Z</time></trkpt><trkpt lat="40.15973007584469" lon="9.211598447719856"><ele>848.0</ele><time>2026-04-28T15:54:13.016Z</time></trkpt><trkpt lat="40.15989090416919" lon="9.211507234718084"><ele>848.0</ele><time>2026-04-28T15:54:14.016Z</time></trkpt><trkpt lat="40.160076929583376" lon="9.21142500909362"><ele>848.0</ele><time>2026-04-28T15:54:15.016Z</time></trkpt><trkpt lat="40.1602366072748" lon="9.211311335167188"><ele>848.0</ele><time>2026-04-28T15:54:16.016Z</time></trkpt><trkpt lat="40.16034984617388" lon="9.21113660725752"><ele>848.0</ele><time>2026-04-28T15:54:17.016Z</time></trkpt><trkpt lat="40.16043349917612" lon="9.21090894453779"><ele>848.0</ele><time>2026-04-28T15:54:18.017Z</time></trkpt><trkpt lat="40.16046868739752" lon="9.210661193739288"><ele>848.0</ele><time>2026-04-28T15:54:19.016Z</time></trkpt><trkpt lat="40.16047054117236" lon="9.210407514013617"><ele>848.0</ele><time>2026-04-28T15:54:20.016Z</time></trkpt><trkpt lat="40.16044974901218" lon="9.210136524433807"><ele>847.0</ele><time>2026-04-28T15:54:21.016Z</time></trkpt><trkpt lat="40.16039010863663" lon="9.209872599308985"><ele>846.0</ele><time>2026-04-28T15:54:22.016Z</time></trkpt><trkpt lat="40.16029775662794" lon="9.209625019887962"><ele>845.0</ele><time>2026-04-28T15:54:23.016Z</time></trkpt><trkpt lat="40.16019969025339" lon="9.20938944201238"><ele>845.0</ele><time>2026-04-28T15:54:24.016Z</time></trkpt><trkpt lat="40.16007982007201" lon="9.20915666391431"><ele>845.0</ele><time>2026-04-28T15:54:25.016Z</time></trkpt><trkpt lat="40.15992937715688" lon="9.208947018497176"><ele>845.0</ele><time>2026-04-28T15:54:26.016Z</time></trkpt><trkpt lat="40.15977385115057" lon="9.208736531264135"><ele>841.3333333333334</ele><time>2026-04-28T15:54:27.016Z</time></trkpt><trkpt lat="40.1596202675275" lon="9.20856020981196"><ele>837.6666666666667</ele><time>2026-04-28T15:54:28.016Z</time></trkpt><trkpt lat="40.159514390148544" lon="9.20838424854296"><ele>834.0</ele><time>2026-04-28T15:54:29.016Z</time></trkpt><trkpt lat="40.15947945415089" lon="9.208183174560169"><ele>831.6666666666667</ele><time>2026-04-28T15:54:30.016Z</time></trkpt><trkpt lat="40.15952461437619" lon="9.207970316132132"><ele>829.3333333333334</ele><time>2026-04-28T15:54:31.016Z</time></trkpt><trkpt lat="40.15962707634767" lon="9.207751169232324"><ele>827.0</ele><time>2026-04-28T15:54:32.016Z</time></trkpt><trkpt lat="40.159738439006446" lon="9.207514503431677"><ele>826.3333333333334</ele><time>2026-04-28T15:54:33.015Z</time></trkpt><trkpt lat="40.159844484397084" lon="9.207275926951256"><ele>825.6666666666667</ele><time>2026-04-28T15:54:34.015Z</time></trkpt><trkpt lat="40.15995758869444" lon="9.207039566856375"><ele>825.0</ele><time>2026-04-28T15:54:35.015Z</time></trkpt><trkpt lat="40.16010366702627" lon="9.206815904262111"><ele>825.0</ele><time>2026-04-28T15:54:36.015Z</time></trkpt><trkpt lat="40.16025506206366" lon="9.206612663534298"><ele>825.0</ele><time>2026-04-28T15:54:37.015Z</time></trkpt><trkpt lat="40.16039635644819" lon="9.206416965221264"><ele>825.0</ele><time>2026-04-28T15:54:38.015Z</time></trkpt><trkpt lat="40.16052929711383" lon="9.206237252137484"><ele>822.6666666666667</ele><time>2026-04-28T15:54:39.015Z</time></trkpt><trkpt lat="40.16068350938873" lon="9.206123057758765"><ele>820.3333333333334</ele><time>2026-04-28T15:54:40.015Z</time></trkpt><trkpt lat="40.16087503574782" lon="9.20607864094339"><ele>818.0</ele><time>2026-04-28T15:54:41.015Z</time></trkpt><trkpt lat="40.16108633891806" lon="9.206041653807466"><ele>816.5</ele><time>2026-04-28T15:54:42.015Z</time></trkpt><trkpt lat="40.161310394502244" lon="9.205994883840457"><ele>815.0</ele><time>2026-04-28T15:54:43.015Z</time></trkpt><trkpt lat="40.16152921351097" lon="9.205938099029794"><ele>816.0</ele><time>2026-04-28T15:54:44.015Z</time></trkpt><trkpt lat="40.16173728441962" lon="9.205844306148569"><ele>817.0</ele><time>2026-04-28T15:54:45.015Z</time></trkpt><trkpt lat="40.16193058242319" lon="9.205691875459523"><ele>818.0</ele><time>2026-04-28T15:54:46.015Z</time></trkpt><trkpt lat="40.16212189913873" lon="9.205529734346529"><ele>813.6666666666667</ele><time>2026-04-28T15:54:47.015Z</time></trkpt><trkpt lat="40.162313867467375" lon="9.205384809860114"><ele>809.3333333333333</ele><time>2026-04-28T15:54:48.015Z</time></trkpt><trkpt lat="40.16250775111689" lon="9.205246770423898"><ele>805.0</ele><time>2026-04-28T15:54:49.015Z</time></trkpt><trkpt lat="40.16270481037844" lon="9.205105316542053"><ele>805.0</ele><time>2026-04-28T15:54:50.015Z</time></trkpt><trkpt lat="40.162897277569854" lon="9.204962789945357"><ele>805.0</ele><time>2026-04-28T15:54:51.015Z</time></trkpt><trkpt lat="40.16308265982255" lon="9.204798874521488"><ele>805.0</ele><time>2026-04-28T15:54:52.015Z</time></trkpt><trkpt lat="40.16325580870312" lon="9.20463031304749"><ele>801.0</ele><time>2026-04-28T15:54:53.015Z</time></trkpt><trkpt lat="40.163426926668116" lon="9.204464951030241"><ele>797.0</ele><time>2026-04-28T15:54:54.015Z</time></trkpt><trkpt lat="40.16361388128797" lon="9.2043371239195"><ele>793.0</ele><time>2026-04-28T15:54:55.015Z</time></trkpt><trkpt lat="40.16382199030565" lon="9.204249850399677"><ele>793.0</ele><time>2026-04-28T15:54:56.015Z</time></trkpt><trkpt lat="40.16402998526454" lon="9.204163722691419"><ele>793.0</ele><time>2026-04-28T15:54:57.015Z</time></trkpt><trkpt lat="40.16423343033495" lon="9.204063635785186"><ele>793.0</ele><time>2026-04-28T15:54:58.015Z</time></trkpt><trkpt lat="40.164417136871364" lon="9.20392589629628"><ele>788.6666666666666</ele><time>2026-04-28T15:54:59.015Z</time></trkpt><trkpt lat="40.16459554314535" lon="9.203809075944372"><ele>784.3333333333333</ele><time>2026-04-28T15:55:00.015Z</time></trkpt><trkpt lat="40.16478330659113" lon="9.203750560523373"><ele>780.0</ele><time>2026-04-28T15:55:01.015Z</time></trkpt><trkpt lat="40.16498094538948" lon="9.20376893777565"><ele>780.0</ele><time>2026-04-28T15:55:02.015Z</time></trkpt><trkpt lat="40.165181588585334" lon="9.20382348907201"><ele>780.0</ele><time>2026-04-28T15:55:03.015Z</time></trkpt><trkpt lat="40.16539560809738" lon="9.20388340824842"><ele>780.0</ele><time>2026-04-28T15:55:04.015Z</time></trkpt><trkpt lat="40.165620128482175" lon="9.203918499497941"><ele>778.3333333333333</ele><time>2026-04-28T15:55:05.015Z</time></trkpt><trkpt lat="40.16583511919895" lon="9.203912756439639"><ele>776.6666666666666</ele><time>2026-04-28T15:55:06.015Z</time></trkpt><trkpt lat="40.16605998186601" lon="9.203910306751968"><ele>775.0</ele><time>2026-04-28T15:55:07.015Z</time></trkpt><trkpt lat="40.16628711914637" lon="9.203929629916415"><ele>775.0</ele><time>2026-04-28T15:55:08.015Z</time></trkpt><trkpt lat="40.16651396343726" lon="9.203936652870198"><ele>775.0</ele><time>2026-04-28T15:55:09.015Z</time></trkpt><trkpt lat="40.16674173659576" lon="9.203932197940256"><ele>774.6666666666666</ele><time>2026-04-28T15:55:10.015Z</time></trkpt><trkpt lat="40.166958497400074" lon="9.203920778782964"><ele>774.3333333333333</ele><time>2026-04-28T15:55:11.015Z</time></trkpt><trkpt lat="40.16715539074234" lon="9.203918794873463"><ele>774.0</ele><time>2026-04-28T15:55:12.015Z</time></trkpt><trkpt lat="40.167334125471875" lon="9.203939838522146"><ele>778.6666666666667</ele><time>2026-04-28T15:55:13.015Z</time></trkpt><trkpt lat="40.16748531911565" lon="9.204035230324797"><ele>783.3333333333334</ele><time>2026-04-28T15:55:14.015Z</time></trkpt><trkpt lat="40.16759964413787" lon="9.204207931014466"><ele>788.0</ele><time>2026-04-28T15:55:15.015Z</time></trkpt><trkpt lat="40.16771089305581" lon="9.204419344255475"><ele>788.0</ele><time>2026-04-28T15:55:16.015Z</time></trkpt><trkpt lat="40.16783996709568" lon="9.204639755120162"><ele>788.0</ele><time>2026-04-28T15:55:17.015Z</time></trkpt><trkpt lat="40.167978774340185" lon="9.20483634526885"><ele>788.0</ele><time>2026-04-28T15:55:18.015Z</time></trkpt><trkpt lat="40.168112339393346" lon="9.204979580860819"><ele>787.5</ele><time>2026-04-28T15:55:19.015Z</time></trkpt><trkpt lat="40.16824310752235" lon="9.20502377132813"><ele>787.0</ele><time>2026-04-28T15:55:20.015Z</time></trkpt><trkpt lat="40.16837725432089" lon="9.20499633091699"><ele>786.5</ele><time>2026-04-28T15:55:21.015Z</time></trkpt><trkpt lat="40.16852164018123" lon="9.204883488803558"><ele>786.0</ele><time>2026-04-28T15:55:22.015Z</time></trkpt><trkpt lat="40.16863467397486" lon="9.204715284344477"><ele>782.6666666666667</ele><time>2026-04-28T15:55:23.015Z</time></trkpt><trkpt lat="40.16869600164201" lon="9.204490994055622"><ele>779.3333333333334</ele><time>2026-04-28T15:55:24.015Z</time></trkpt><trkpt lat="40.168762118928875" lon="9.204227516845688"><ele>776.0</ele><time>2026-04-28T15:55:25.015Z</time></trkpt><trkpt lat="40.16884316717462" lon="9.203963721965694"><ele>774.3333333333334</ele><time>2026-04-28T15:55:26.015Z</time></trkpt><trkpt lat="40.16893392364341" lon="9.203718158299134"><ele>772.6666666666667</ele><time>2026-04-28T15:55:27.015Z</time></trkpt><trkpt lat="40.1690186184997" lon="9.203491898741907"><ele>771.0</ele><time>2026-04-28T15:55:28.015Z</time></trkpt><trkpt lat="40.16910367873539" lon="9.20329192654809"><ele>770.3333333333333</ele><time>2026-04-28T15:55:29.015Z</time></trkpt><trkpt lat="40.16913574891043" lon="9.203105280192608"><ele>769.6666666666666</ele><time>2026-04-28T15:55:30.015Z</time></trkpt><trkpt lat="40.169090932706865" lon="9.202899239060883"><ele>769.0</ele><time>2026-04-28T15:55:31.015Z</time></trkpt><trkpt lat="40.16897497917145" lon="9.202723388904957"><ele>765.0</ele><time>2026-04-28T15:55:32.015Z</time></trkpt><trkpt lat="40.168854804224836" lon="9.202530775489908"><ele>761.0</ele><time>2026-04-28T15:55:33.015Z</time></trkpt><trkpt lat="40.16876040281809" lon="9.202301834277733"><ele>757.0</ele><time>2026-04-28T15:55:34.015Z</time></trkpt><trkpt lat="40.16871016578122" lon="9.2020614865831"><ele>757.0</ele><time>2026-04-28T15:55:35.015Z</time></trkpt><trkpt lat="40.16867694148982" lon="9.20180444029302"><ele>757.0</ele><time>2026-04-28T15:55:36.015Z</time></trkpt><trkpt lat="40.16862656850901" lon="9.20156449298639"><ele>757.0</ele><time>2026-04-28T15:55:37.015Z</time></trkpt><trkpt lat="40.16856071557431" lon="9.20135612052645"><ele>758.6666666666667</ele><time>2026-04-28T15:55:38.015Z</time></trkpt><trkpt lat="40.16843393598722" lon="9.20120924569725"><ele>760.3333333333334</ele><time>2026-04-28T15:55:39.015Z</time></trkpt><trkpt lat="40.16827199128136" lon="9.201119845118317"><ele>762.0</ele><time>2026-04-28T15:55:40.015Z</time></trkpt><trkpt lat="40.168092095108996" lon="9.201054158862112"><ele>758.0</ele><time>2026-04-28T15:55:41.015Z</time></trkpt><trkpt lat="40.167912566880986" lon="9.200975792206394"><ele>754.0</ele><time>2026-04-28T15:55:42.015Z</time></trkpt><trkpt lat="40.16775395231344" lon="9.200883750818656"><ele>750.0</ele><time>2026-04-28T15:55:43.015Z</time></trkpt><trkpt lat="40.16760717381345" lon="9.200796128585834"><ele>750.0</ele><time>2026-04-28T15:55:44.015Z</time></trkpt><trkpt lat="40.16747493829835" lon="9.200687833485581"><ele>750.0</ele><time>2026-04-28T15:55:45.015Z</time></trkpt><trkpt lat="40.16735374041018" lon="9.20055027895954"><ele>750.0</ele><time>2026-04-28T15:55:46.015Z</time></trkpt><trkpt lat="40.16723025499326" lon="9.200406838330887"><ele>749.6666666666666</ele><time>2026-04-28T15:55:47.015Z</time></trkpt><trkpt lat="40.16710280998073" lon="9.200270217789152"><ele>749.3333333333333</ele><time>2026-04-28T15:55:48.015Z</time></trkpt><trkpt lat="40.16695938054578" lon="9.200160982512507"><ele>749.0</ele><time>2026-04-28T15:55:49.015Z</time></trkpt><trkpt lat="40.16680176252281" lon="9.200066267342086"><ele>749.0</ele><time>2026-04-28T15:55:50.015Z</time></trkpt><trkpt lat="40.166641951873146" lon="9.19997933184019"><ele>749.0</ele><time>2026-04-28T15:55:51.015Z</time></trkpt><trkpt lat="40.166474011972475" lon="9.199909364165425"><ele>749.0</ele><time>2026-04-28T15:55:52.015Z</time></trkpt><trkpt lat="40.16629990530306" lon="9.199904623019002"><ele>747.6666666666666</ele><time>2026-04-28T15:55:53.015Z</time></trkpt><trkpt lat="40.16611919194824" lon="9.199954793780668"><ele>746.3333333333334</ele><time>2026-04-28T15:55:54.015Z</time></trkpt><trkpt lat="40.16594177020894" lon="9.200021343936024"><ele>745.0</ele><time>2026-04-28T15:55:55.015Z</time></trkpt><trkpt lat="40.16577191442457" lon="9.20006828222026"><ele>741.0</ele><time>2026-04-28T15:55:56.015Z</time></trkpt><trkpt lat="40.16561340445413" lon="9.200057019682305"><ele>737.0</ele><time>2026-04-28T15:55:57.015Z</time></trkpt><trkpt lat="40.165467317079205" lon="9.199973479701375"><ele>733.0</ele><time>2026-04-28T15:55:58.015Z</time></trkpt><trkpt lat="40.165317541397144" lon="9.199846032704754"><ele>735.0</ele><time>2026-04-28T15:55:59.015Z</time></trkpt><trkpt lat="40.16516521483423" lon="9.199726547468966"><ele>737.0</ele><time>2026-04-28T15:56:00.015Z</time></trkpt><trkpt lat="40.165021088935035" lon="9.19962106420555"><ele>739.0</ele><time>2026-04-28T15:56:01.015Z</time></trkpt><trkpt lat="40.16489897112742" lon="9.199505747025585"><ele>735.0</ele><time>2026-04-28T15:56:02.015Z</time></trkpt><trkpt lat="40.16481675366562" lon="9.199358247905401"><ele>731.0</ele><time>2026-04-28T15:56:03.015Z</time></trkpt><trkpt lat="40.164775946697944" lon="9.199179585508318"><ele>727.0</ele><time>2026-04-28T15:56:04.015Z</time></trkpt><trkpt lat="40.16479127345815" lon="9.198990509081764"><ele>723.0</ele><time>2026-04-28T15:56:05.015Z</time></trkpt><trkpt lat="40.16484350396273" lon="9.19879570771114"><ele>726.3333333333334</ele><time>2026-04-28T15:56:06.015Z</time></trkpt><trkpt lat="40.16487895110532" lon="9.198593552826955"><ele>729.6666666666667</ele><time>2026-04-28T15:56:07.015Z</time></trkpt><trkpt lat="40.164908416717395" lon="9.198386142338638"><ele>733.0</ele><time>2026-04-28T15:56:08.015Z</time></trkpt><trkpt lat="40.16492569365615" lon="9.198166702612355"><ele>733.0</ele><time>2026-04-28T15:56:09.015Z</time></trkpt><trkpt lat="40.16490998834809" lon="9.19793747534571"><ele>733.0</ele><time>2026-04-28T15:56:10.015Z</time></trkpt><trkpt lat="40.16487488998108" lon="9.197724242073054"><ele>733.0</ele><time>2026-04-28T15:56:11.015Z</time></trkpt><trkpt lat="40.16483502698799" lon="9.197505756718687"><ele>731.6666666666667</ele><time>2026-04-28T15:56:12.016Z</time></trkpt><trkpt lat="40.16480590363949" lon="9.197300228548135"><ele>730.3333333333334</ele><time>2026-04-28T15:56:13.016Z</time></trkpt><trkpt lat="40.16479235253042" lon="9.19710376121128"><ele>729.0</ele><time>2026-04-28T15:56:14.016Z</time></trkpt><trkpt lat="40.16481058051175" lon="9.196914801813627"><ele>729.0</ele><time>2026-04-28T15:56:15.017Z</time></trkpt><trkpt lat="40.16484995444462" lon="9.196727897664779"><ele>729.0</ele><time>2026-04-28T15:56:16.017Z</time></trkpt><trkpt lat="40.164889412680644" lon="9.196537772175029"><ele>729.0</ele><time>2026-04-28T15:56:17.017Z</time></trkpt><trkpt lat="40.164926474587666" lon="9.196352308483924"><ele>729.0</ele><time>2026-04-28T15:56:18.016Z</time></trkpt><trkpt lat="40.164949389302045" lon="9.196171336323737"><ele>728.0</ele><time>2026-04-28T15:56:19.017Z</time></trkpt><trkpt lat="40.164975980296525" lon="9.196004372894164"><ele>727.0</ele><time>2026-04-28T15:56:20.017Z</time></trkpt><trkpt lat="40.16500511016473" lon="9.19583333447492"><ele>726.0</ele><time>2026-04-28T15:56:21.017Z</time></trkpt><trkpt lat="40.1650172492459" lon="9.195659798474374"><ele>725.0</ele><time>2026-04-28T15:56:22.016Z</time></trkpt><trkpt lat="40.16500325668412" lon="9.195492074416501"><ele>726.75</ele><time>2026-04-28T15:56:23.016Z</time></trkpt><trkpt lat="40.16497606938814" lon="9.195336931907915"><ele>728.5</ele><time>2026-04-28T15:56:24.016Z</time></trkpt><trkpt lat="40.16494173676738" lon="9.195181815204045"><ele>730.25</ele><time>2026-04-28T15:56:25.017Z</time></trkpt><trkpt lat="40.16489754277959" lon="9.195029926730648"><ele>732.0</ele><time>2026-04-28T15:56:26.017Z</time></trkpt><trkpt lat="40.16485609605823" lon="9.19488344741042"><ele>733.25</ele><time>2026-04-28T15:56:27.017Z</time></trkpt><trkpt lat="40.16481477537601" lon="9.194740425162324"><ele>734.5</ele><time>2026-04-28T15:56:28.017Z</time></trkpt><trkpt lat="40.164774407108936" lon="9.194600945448046"><ele>735.75</ele><time>2026-04-28T15:56:29.017Z</time></trkpt><trkpt lat="40.164736084302426" lon="9.194463692804568"><ele>737.0</ele><time>2026-04-28T15:56:30.017Z</time></trkpt><trkpt lat="40.16470123580575" lon="9.19433093912401"><ele>737.0</ele><time>2026-04-28T15:56:31.017Z</time></trkpt><trkpt lat="40.16466903198456" lon="9.194192780212811"><ele>737.0</ele><time>2026-04-28T15:56:32.017Z</time></trkpt><trkpt lat="40.16463081647197" lon="9.194059935106164"><ele>737.0</ele><time>2026-04-28T15:56:33.017Z</time></trkpt><trkpt lat="40.16458841269825" lon="9.193926971344217"><ele>737.0</ele><time>2026-04-28T15:56:34.017Z</time></trkpt><trkpt lat="40.16453712371793" lon="9.193799633820511"><ele>737.0</ele><time>2026-04-28T15:56:35.017Z</time></trkpt><trkpt lat="40.16447354311143" lon="9.193683612753487"><ele>739.75</ele><time>2026-04-28T15:56:36.017Z</time></trkpt><trkpt lat="40.16438493836306" lon="9.193596420277657"><ele>742.5</ele><time>2026-04-28T15:56:37.017Z</time></trkpt><trkpt lat="40.164283965482355" lon="9.193526696649506"><ele>745.25</ele><time>2026-04-28T15:56:38.017Z</time></trkpt><trkpt lat="40.16417162415541" lon="9.193502595426208"><ele>748.0</ele><time>2026-04-28T15:56:39.017Z</time></trkpt><trkpt lat="40.164060504693296" lon="9.193524015118413"><ele>749.2</ele><time>2026-04-28T15:56:40.017Z</time></trkpt><trkpt lat="40.16397695803154" lon="9.193603550130957"><ele>750.4</ele><time>2026-04-28T15:56:41.017Z</time></trkpt><trkpt lat="40.16390785634816" lon="9.193692535620796"><ele>751.6</ele><time>2026-04-28T15:56:42.017Z</time></trkpt><trkpt lat="40.163899109236894" lon="9.19385778228121"><ele>752.8000000000001</ele><time>2026-04-28T15:56:43.017Z</time></trkpt><trkpt lat="40.1639340615084" lon="9.1940012132939"><ele>754.0</ele><time>2026-04-28T15:56:44.017Z</time></trkpt><trkpt lat="40.16395267416079" lon="9.194124963110696"><ele>754.0</ele><time>2026-04-28T15:56:45.017Z</time></trkpt><trkpt lat="40.16394379617916" lon="9.194228724347358"><ele>754.0</ele><time>2026-04-28T15:56:46.017Z</time></trkpt><trkpt lat="40.16388772701809" lon="9.194308539856822"><ele>754.0</ele><time>2026-04-28T15:56:47.017Z</time></trkpt><trkpt lat="40.16381186980848" lon="9.194395524058764"><ele>754.0</ele><time>2026-04-28T15:56:48.017Z</time></trkpt><trkpt lat="40.1637353774969" lon="9.194482879682004"><ele>754.0</ele><time>2026-04-28T15:56:49.017Z</time></trkpt><trkpt lat="40.16366105213917" lon="9.194574664992636"><ele>754.0</ele><time>2026-04-28T15:56:50.017Z</time></trkpt><trkpt lat="40.163555678545926" lon="9.19460613610932"><ele>754.0</ele><time>2026-04-28T15:56:51.017Z</time></trkpt><trkpt lat="40.163459490509" lon="9.194648053093134"><ele>754.0</ele><time>2026-04-28T15:56:52.017Z</time></trkpt><trkpt lat="40.16336365582608" lon="9.194693631974305"><ele>754.0</ele><time>2026-04-28T15:56:53.017Z</time></trkpt><trkpt lat="40.16326270738114" lon="9.194751541572458"><ele>754.0</ele><time>2026-04-28T15:56:54.017Z</time></trkpt><trkpt lat="40.16316560438536" lon="9.194833533913132"><ele>756.4000000000001</ele><time>2026-04-28T15:56:55.017Z</time></trkpt><trkpt lat="40.16310199243945" lon="9.194936741077953"><ele>758.8</ele><time>2026-04-28T15:56:56.017Z</time></trkpt><trkpt lat="40.16303912075432" lon="9.195030469903681"><ele>761.2</ele><time>2026-04-28T15:56:57.017Z</time></trkpt><trkpt lat="40.16296211251686" lon="9.195115269918041"><ele>763.5999999999999</ele><time>2026-04-28T15:56:58.017Z</time></trkpt><trkpt lat="40.16290053503254" lon="9.195226714667905"><ele>766.0</ele><time>2026-04-28T15:56:59.017Z</time></trkpt><trkpt lat="40.16285867153725" lon="9.195348359300501"><ele>766.0</ele><time>2026-04-28T15:57:00.017Z</time></trkpt><trkpt lat="40.16281159407315" lon="9.195462719467942"><ele>766.0</ele><time>2026-04-28T15:57:01.017Z</time></trkpt><trkpt lat="40.16274114239869" lon="9.19555122212883"><ele>766.0</ele><time>2026-04-28T15:57:02.017Z</time></trkpt><trkpt lat="40.16264473900809" lon="9.19557654977712"><ele>766.0</ele><time>2026-04-28T15:57:03.017Z</time></trkpt><trkpt lat="40.162549751245955" lon="9.195573828534968"><ele>766.0</ele><time>2026-04-28T15:57:04.016Z</time></trkpt><trkpt lat="40.16246761383367" lon="9.195594471208917"><ele>766.0</ele><time>2026-04-28T15:57:05.016Z</time></trkpt><trkpt lat="40.16237594426054" lon="9.195601527368076"><ele>766.0</ele><time>2026-04-28T15:57:06.016Z</time></trkpt><trkpt lat="40.16227832488753" lon="9.195593501405977"><ele>766.0</ele><time>2026-04-28T15:57:07.016Z</time></trkpt><trkpt lat="40.1622079616992" lon="9.195572552968294"><ele>766.0</ele><time>2026-04-28T15:57:08.016Z</time></trkpt><trkpt lat="40.162129438025175" lon="9.195563471567631"><ele>766.0</ele><time>2026-04-28T15:57:11.016Z</time></trkpt><trkpt lat="40.16202880018467" lon="9.195538255209707"><ele>766.0</ele><time>2026-04-28T15:57:13.016Z</time></trkpt><trkpt lat="40.16196436333864" lon="9.195549483606772"><ele>766.0</ele><time>2026-04-28T15:57:14.016Z</time></trkpt><trkpt lat="40.16189881648293" lon="9.195528926143844"><ele>766.0</ele><time>2026-04-28T15:57:15.016Z</time></trkpt><trkpt lat="40.16184039371714" lon="9.19548455689756"><ele>766.0</ele><time>2026-04-28T15:57:16.016Z</time></trkpt><trkpt lat="40.16177469110086" lon="9.195451901407736"><ele>766.0</ele><time>2026-04-28T15:57:17.016Z</time></trkpt><trkpt lat="40.16170949624596" lon="9.19542603372297"><ele>766.0</ele><time>2026-04-28T15:57:18.016Z</time></trkpt><trkpt lat="40.16164034415044" lon="9.195389967239159"><ele>766.0</ele><time>2026-04-28T15:57:19.016Z</time></trkpt><trkpt lat="40.16156381294457" lon="9.195352016564069"><ele>766.0</ele><time>2026-04-28T15:57:20.016Z</time></trkpt><trkpt lat="40.1614849851755" lon="9.19531936313798"><ele>766.0</ele><time>2026-04-28T15:57:21.016Z</time></trkpt><trkpt lat="40.16140225407527" lon="9.195283724198353"><ele>766.0</ele><time>2026-04-28T15:57:22.016Z</time></trkpt><trkpt lat="40.161322556273554" lon="9.195249797970824"><ele>766.0</ele><time>2026-04-28T15:57:23.016Z</time></trkpt><trkpt lat="40.161241558599194" lon="9.195214979657193"><ele>766.0</ele><time>2026-04-28T15:57:24.016Z</time></trkpt><trkpt lat="40.161154695957634" lon="9.195187364317238"><ele>766.0</ele><time>2026-04-28T15:57:25.016Z</time></trkpt><trkpt lat="40.161087116925444" lon="9.19516369864197"><ele>766.0</ele><time>2026-04-28T15:57:26.016Z</time></trkpt><trkpt lat="40.16098908281757" lon="9.195059725785478"><ele>766.0</ele><time>2026-04-28T15:57:28.016Z</time></trkpt><trkpt lat="40.160941065130274" lon="9.19493239057445"><ele>766.0</ele><time>2026-04-28T15:57:30.016Z</time></trkpt><trkpt lat="40.16091033400326" lon="9.194854013958757"><ele>766.0</ele><time>2026-04-28T15:57:31.016Z</time></trkpt><trkpt lat="40.160868439059264" lon="9.194782667942357"><ele>766.0</ele><time>2026-04-28T15:57:32.016Z</time></trkpt><trkpt lat="40.16081364461033" lon="9.194729590665366"><ele>766.0</ele><time>2026-04-28T15:57:33.016Z</time></trkpt><trkpt lat="40.16074192758012" lon="9.194696761971246"><ele>766.0</ele><time>2026-04-28T15:57:34.016Z</time></trkpt><trkpt lat="40.16068042419362" lon="9.194656148002542"><ele>769.1666666666667</ele><time>2026-04-28T15:57:35.016Z</time></trkpt><trkpt lat="40.160615530796974" lon="9.19462306899865"><ele>772.3333333333334</ele><time>2026-04-28T15:57:36.016Z</time></trkpt><trkpt lat="40.16052129860348" lon="9.194589279182605"><ele>775.5</ele><time>2026-04-28T15:57:38.016Z</time></trkpt><trkpt lat="40.16046163160928" lon="9.194553356440714"><ele>778.6666666666667</ele><time>2026-04-28T15:57:39.016Z</time></trkpt><trkpt lat="40.16038484042055" lon="9.194513306560609"><ele>781.8333333333334</ele><time>2026-04-28T15:57:40.016Z</time></trkpt><trkpt lat="40.160314953621715" lon="9.19448114711505"><ele>785.0</ele><time>2026-04-28T15:57:41.016Z</time></trkpt><trkpt lat="40.16024072921596" lon="9.19447376474466"><ele>785.0</ele><time>2026-04-28T15:57:42.016Z</time></trkpt><trkpt lat="40.160180229970216" lon="9.194425847465029"><ele>785.0</ele><time>2026-04-28T15:57:43.016Z</time></trkpt><trkpt lat="40.16010347889811" lon="9.194416652395315"><ele>785.0</ele><time>2026-04-28T15:57:44.016Z</time></trkpt><trkpt lat="40.16002694368996" lon="9.194402069685387"><ele>785.0</ele><time>2026-04-28T15:57:45.016Z</time></trkpt><trkpt lat="40.15995627771529" lon="9.194384614242898"><ele>785.0</ele><time>2026-04-28T15:57:46.016Z</time></trkpt><trkpt lat="40.15989883606681" lon="9.194345106722965"><ele>785.0</ele><time>2026-04-28T15:57:47.016Z</time></trkpt><trkpt lat="40.1598315611834" lon="9.194347649344104"><ele>785.0</ele><time>2026-04-28T15:57:48.016Z</time></trkpt><trkpt lat="40.159764846968315" lon="9.194329642988496"><ele>784.1666666666667</ele><time>2026-04-28T15:57:49.016Z</time></trkpt><trkpt lat="40.15968775272" lon="9.194292121556384"><ele>783.3333333333334</ele><time>2026-04-28T15:57:50.016Z</time></trkpt><trkpt lat="40.15962015620398" lon="9.194289708040342"><ele>782.5</ele><time>2026-04-28T15:57:52.016Z</time></trkpt><trkpt lat="40.159521779483384" lon="9.194286969420066"><ele>781.6666666666667</ele><time>2026-04-28T15:57:55.016Z</time></trkpt><trkpt lat="40.15943313697615" lon="9.194366225817104"><ele>780.8333333333334</ele><time>2026-04-28T15:57:57.016Z</time></trkpt><trkpt lat="40.159362425579076" lon="9.194428255525988"><ele>780.0</ele><time>2026-04-28T15:57:59.016Z</time></trkpt><trkpt lat="40.159297900845225" lon="9.194424046117291"><ele>780.0</ele><time>2026-04-28T15:58:02.016Z</time></trkpt></trkseg></trk></gpx>